<?xml version="1.0" encoding="UTF-8" standalone="no" ?>
<gpx xmlns="http://www.topografix.com/GPX/1/1" xmlns:xsi="http://www.w3.org/2001/XMLSchema-instance" xsi:schemaLocation="http://www.topografix.com/GPX/1/1 http://www.topografix.com/GPX/1/1/gpx.xsd" version="1.1" creator="VisuGPX - https://www.visugpx.com">
  <metadata>
    <name>premiere partie voyage</name>
  </metadata>
  <trk>
    <name><![CDATA[J8]]></name>
    <trkseg>
      <trkpt lat="47.80176" lon="-3.57997">
        <ele>65.8</ele>
        <time>2020-06-07T10:38:59Z</time>
      </trkpt>
      <trkpt lat="47.8018" lon="-3.5799">
        <ele>65.7</ele>
        <time>2020-06-07T10:39:00Z</time>
      </trkpt>
      <trkpt lat="47.80182" lon="-3.57988">
        <ele>65.6</ele>
        <time>2020-06-07T10:39:01Z</time>
      </trkpt>
      <trkpt lat="47.80181" lon="-3.57984">
        <ele>65.6</ele>
        <time>2020-06-07T10:39:02Z</time>
      </trkpt>
      <trkpt lat="47.80183" lon="-3.57984">
        <ele>65.5</ele>
        <time>2020-06-07T10:39:03Z</time>
      </trkpt>
      <trkpt lat="47.80185" lon="-3.57989">
        <ele>65.5</ele>
        <time>2020-06-07T10:39:04Z</time>
      </trkpt>
      <trkpt lat="47.80186" lon="-3.57991">
        <ele>65.5</ele>
        <time>2020-06-07T10:39:05Z</time>
      </trkpt>
      <trkpt lat="47.80186" lon="-3.57996">
        <ele>65.4</ele>
        <time>2020-06-07T10:39:06Z</time>
      </trkpt>
      <trkpt lat="47.80185" lon="-3.57999">
        <ele>65.4</ele>
        <time>2020-06-07T10:39:07Z</time>
      </trkpt>
      <trkpt lat="47.80184" lon="-3.58">
        <ele>65.3</ele>
        <time>2020-06-07T10:39:08Z</time>
      </trkpt>
      <trkpt lat="47.80182" lon="-3.58002">
        <ele>65.3</ele>
        <time>2020-06-07T10:39:09Z</time>
      </trkpt>
      <trkpt lat="47.80182" lon="-3.58002">
        <ele>65.3</ele>
        <time>2020-06-07T10:39:10Z</time>
      </trkpt>
      <trkpt lat="47.80181" lon="-3.58002">
        <ele>65.3</ele>
        <time>2020-06-07T10:39:11Z</time>
      </trkpt>
      <trkpt lat="47.80179" lon="-3.58001">
        <ele>65.3</ele>
        <time>2020-06-07T10:39:12Z</time>
      </trkpt>
      <trkpt lat="47.80178" lon="-3.57995">
        <ele>65.2</ele>
        <time>2020-06-07T10:39:13Z</time>
      </trkpt>
      <trkpt lat="47.8018" lon="-3.57995">
        <ele>65.2</ele>
        <time>2020-06-07T10:39:14Z</time>
      </trkpt>
      <trkpt lat="47.80179" lon="-3.57997">
        <ele>65.1</ele>
        <time>2020-06-07T10:39:16Z</time>
      </trkpt>
      <trkpt lat="47.8018" lon="-3.57999">
        <ele>65.1</ele>
        <time>2020-06-07T10:39:17Z</time>
      </trkpt>
      <trkpt lat="47.80181" lon="-3.58">
        <ele>65.1</ele>
        <time>2020-06-07T10:39:18Z</time>
      </trkpt>
      <trkpt lat="47.80182" lon="-3.58001">
        <ele>65.1</ele>
        <time>2020-06-07T10:39:19Z</time>
      </trkpt>
      <trkpt lat="47.80183" lon="-3.58003">
        <ele>65</ele>
        <time>2020-06-07T10:39:20Z</time>
      </trkpt>
      <trkpt lat="47.80183" lon="-3.58005">
        <ele>65</ele>
        <time>2020-06-07T10:39:21Z</time>
      </trkpt>
      <trkpt lat="47.80183" lon="-3.58006">
        <ele>65</ele>
        <time>2020-06-07T10:39:22Z</time>
      </trkpt>
      <trkpt lat="47.80182" lon="-3.58008">
        <ele>65</ele>
        <time>2020-06-07T10:39:23Z</time>
      </trkpt>
      <trkpt lat="47.80182" lon="-3.58011">
        <ele>64.9</ele>
        <time>2020-06-07T10:39:24Z</time>
      </trkpt>
      <trkpt lat="47.80182" lon="-3.58012">
        <ele>64.9</ele>
        <time>2020-06-07T10:39:25Z</time>
      </trkpt>
      <trkpt lat="47.80182" lon="-3.58013">
        <ele>64.9</ele>
        <time>2020-06-07T10:39:26Z</time>
      </trkpt>
      <trkpt lat="47.80182" lon="-3.58014">
        <ele>64.9</ele>
        <time>2020-06-07T10:39:27Z</time>
      </trkpt>
      <trkpt lat="47.80183" lon="-3.58015">
        <ele>64.9</ele>
        <time>2020-06-07T10:39:28Z</time>
      </trkpt>
      <trkpt lat="47.80183" lon="-3.58016">
        <ele>64.9</ele>
        <time>2020-06-07T10:39:29Z</time>
      </trkpt>
      <trkpt lat="47.80183" lon="-3.58016">
        <ele>64.9</ele>
        <time>2020-06-07T10:39:30Z</time>
      </trkpt>
      <trkpt lat="47.80184" lon="-3.58017">
        <ele>64.9</ele>
        <time>2020-06-07T10:39:31Z</time>
      </trkpt>
      <trkpt lat="47.80185" lon="-3.58017">
        <ele>64.8</ele>
        <time>2020-06-07T10:39:32Z</time>
      </trkpt>
      <trkpt lat="47.80185" lon="-3.58017">
        <ele>64.8</ele>
        <time>2020-06-07T10:39:33Z</time>
      </trkpt>
      <trkpt lat="47.80185" lon="-3.58017">
        <ele>64.8</ele>
        <time>2020-06-07T10:39:34Z</time>
      </trkpt>
      <trkpt lat="47.80186" lon="-3.58017">
        <ele>64.8</ele>
        <time>2020-06-07T10:39:35Z</time>
      </trkpt>
      <trkpt lat="47.80186" lon="-3.58016">
        <ele>64.8</ele>
        <time>2020-06-07T10:39:36Z</time>
      </trkpt>
      <trkpt lat="47.80186" lon="-3.58017">
        <ele>64.8</ele>
        <time>2020-06-07T10:39:37Z</time>
      </trkpt>
      <trkpt lat="47.80186" lon="-3.58017">
        <ele>64.8</ele>
        <time>2020-06-07T10:39:38Z</time>
      </trkpt>
      <trkpt lat="47.80187" lon="-3.58017">
        <ele>64.8</ele>
        <time>2020-06-07T10:39:39Z</time>
      </trkpt>
      <trkpt lat="47.80187" lon="-3.58016">
        <ele>64.8</ele>
        <time>2020-06-07T10:39:40Z</time>
      </trkpt>
      <trkpt lat="47.80188" lon="-3.58016">
        <ele>64.8</ele>
        <time>2020-06-07T10:39:41Z</time>
      </trkpt>
      <trkpt lat="47.80188" lon="-3.58016">
        <ele>64.8</ele>
        <time>2020-06-07T10:39:42Z</time>
      </trkpt>
      <trkpt lat="47.80189" lon="-3.58016">
        <ele>64.8</ele>
        <time>2020-06-07T10:39:43Z</time>
      </trkpt>
      <trkpt lat="47.80189" lon="-3.58015">
        <ele>64.8</ele>
        <time>2020-06-07T10:39:44Z</time>
      </trkpt>
      <trkpt lat="47.80188" lon="-3.58015">
        <ele>64.7</ele>
        <time>2020-06-07T10:39:45Z</time>
      </trkpt>
      <trkpt lat="47.80193" lon="-3.58022">
        <ele>64.6</ele>
        <time>2020-06-07T10:39:51Z</time>
      </trkpt>
      <trkpt lat="47.80195" lon="-3.58024">
        <ele>64.6</ele>
        <time>2020-06-07T10:39:52Z</time>
      </trkpt>
      <trkpt lat="47.80197" lon="-3.58026">
        <ele>64.6</ele>
        <time>2020-06-07T10:39:53Z</time>
      </trkpt>
      <trkpt lat="47.80197" lon="-3.58027">
        <ele>64.6</ele>
        <time>2020-06-07T10:39:54Z</time>
      </trkpt>
      <trkpt lat="47.80198" lon="-3.58028">
        <ele>64.5</ele>
        <time>2020-06-07T10:39:55Z</time>
      </trkpt>
      <trkpt lat="47.80199" lon="-3.58029">
        <ele>64.5</ele>
        <time>2020-06-07T10:39:56Z</time>
      </trkpt>
      <trkpt lat="47.802" lon="-3.58031">
        <ele>64.5</ele>
        <time>2020-06-07T10:39:57Z</time>
      </trkpt>
      <trkpt lat="47.802" lon="-3.58032">
        <ele>64.5</ele>
        <time>2020-06-07T10:39:58Z</time>
      </trkpt>
      <trkpt lat="47.80201" lon="-3.58033">
        <ele>64.5</ele>
        <time>2020-06-07T10:39:59Z</time>
      </trkpt>
      <trkpt lat="47.80201" lon="-3.58033">
        <ele>64.5</ele>
        <time>2020-06-07T10:40:00Z</time>
      </trkpt>
      <trkpt lat="47.80201" lon="-3.58034">
        <ele>64.5</ele>
        <time>2020-06-07T10:40:01Z</time>
      </trkpt>
      <trkpt lat="47.80201" lon="-3.58035">
        <ele>64.5</ele>
        <time>2020-06-07T10:40:02Z</time>
      </trkpt>
      <trkpt lat="47.80203" lon="-3.58037">
        <ele>64.4</ele>
        <time>2020-06-07T10:40:03Z</time>
      </trkpt>
      <trkpt lat="47.80203" lon="-3.58038">
        <ele>64.4</ele>
        <time>2020-06-07T10:40:04Z</time>
      </trkpt>
      <trkpt lat="47.80204" lon="-3.5804">
        <ele>64.4</ele>
        <time>2020-06-07T10:40:05Z</time>
      </trkpt>
      <trkpt lat="47.80205" lon="-3.58042">
        <ele>64.4</ele>
        <time>2020-06-07T10:40:06Z</time>
      </trkpt>
      <trkpt lat="47.80205" lon="-3.58044">
        <ele>64.3</ele>
        <time>2020-06-07T10:40:07Z</time>
      </trkpt>
      <trkpt lat="47.80206" lon="-3.58045">
        <ele>64.3</ele>
        <time>2020-06-07T10:40:08Z</time>
      </trkpt>
      <trkpt lat="47.80207" lon="-3.58048">
        <ele>64.3</ele>
        <time>2020-06-07T10:40:09Z</time>
      </trkpt>
      <trkpt lat="47.80208" lon="-3.58052">
        <ele>64.2</ele>
        <time>2020-06-07T10:40:10Z</time>
      </trkpt>
      <trkpt lat="47.80208" lon="-3.58053">
        <ele>64.2</ele>
        <time>2020-06-07T10:40:11Z</time>
      </trkpt>
      <trkpt lat="47.80209" lon="-3.58058">
        <ele>64.2</ele>
        <time>2020-06-07T10:40:12Z</time>
      </trkpt>
      <trkpt lat="47.80209" lon="-3.5806">
        <ele>64.1</ele>
        <time>2020-06-07T10:40:13Z</time>
      </trkpt>
      <trkpt lat="47.80211" lon="-3.58065">
        <ele>64.1</ele>
        <time>2020-06-07T10:40:14Z</time>
      </trkpt>
      <trkpt lat="47.80212" lon="-3.58067">
        <ele>64.1</ele>
        <time>2020-06-07T10:40:15Z</time>
      </trkpt>
      <trkpt lat="47.80213" lon="-3.58071">
        <ele>64</ele>
        <time>2020-06-07T10:40:16Z</time>
      </trkpt>
      <trkpt lat="47.80213" lon="-3.58073">
        <ele>64</ele>
        <time>2020-06-07T10:40:17Z</time>
      </trkpt>
      <trkpt lat="47.80214" lon="-3.58078">
        <ele>63.9</ele>
        <time>2020-06-07T10:40:18Z</time>
      </trkpt>
      <trkpt lat="47.80214" lon="-3.5808">
        <ele>63.9</ele>
        <time>2020-06-07T10:40:19Z</time>
      </trkpt>
      <trkpt lat="47.80215" lon="-3.58085">
        <ele>63.9</ele>
        <time>2020-06-07T10:40:20Z</time>
      </trkpt>
      <trkpt lat="47.80215" lon="-3.58086">
        <ele>63.8</ele>
        <time>2020-06-07T10:40:21Z</time>
      </trkpt>
      <trkpt lat="47.80215" lon="-3.58091">
        <ele>63.8</ele>
        <time>2020-06-07T10:40:22Z</time>
      </trkpt>
      <trkpt lat="47.80215" lon="-3.58093">
        <ele>63.8</ele>
        <time>2020-06-07T10:40:23Z</time>
      </trkpt>
      <trkpt lat="47.80216" lon="-3.58098">
        <ele>63.7</ele>
        <time>2020-06-07T10:40:24Z</time>
      </trkpt>
      <trkpt lat="47.80216" lon="-3.58099">
        <ele>63.7</ele>
        <time>2020-06-07T10:40:25Z</time>
      </trkpt>
      <trkpt lat="47.80216" lon="-3.58105">
        <ele>63.6</ele>
        <time>2020-06-07T10:40:26Z</time>
      </trkpt>
      <trkpt lat="47.80216" lon="-3.58107">
        <ele>63.6</ele>
        <time>2020-06-07T10:40:27Z</time>
      </trkpt>
      <trkpt lat="47.80217" lon="-3.58112">
        <ele>63.6</ele>
        <time>2020-06-07T10:40:28Z</time>
      </trkpt>
      <trkpt lat="47.80217" lon="-3.58114">
        <ele>63.5</ele>
        <time>2020-06-07T10:40:29Z</time>
      </trkpt>
      <trkpt lat="47.80217" lon="-3.58119">
        <ele>63.5</ele>
        <time>2020-06-07T10:40:30Z</time>
      </trkpt>
      <trkpt lat="47.80217" lon="-3.5812">
        <ele>63.5</ele>
        <time>2020-06-07T10:40:31Z</time>
      </trkpt>
      <trkpt lat="47.80217" lon="-3.58125">
        <ele>63.4</ele>
        <time>2020-06-07T10:40:32Z</time>
      </trkpt>
      <trkpt lat="47.80218" lon="-3.58127">
        <ele>63.4</ele>
        <time>2020-06-07T10:40:33Z</time>
      </trkpt>
      <trkpt lat="47.80218" lon="-3.58132">
        <ele>63.3</ele>
        <time>2020-06-07T10:40:34Z</time>
      </trkpt>
      <trkpt lat="47.80218" lon="-3.58134">
        <ele>63.3</ele>
        <time>2020-06-07T10:40:35Z</time>
      </trkpt>
      <trkpt lat="47.80218" lon="-3.58136">
        <ele>63.3</ele>
        <time>2020-06-07T10:40:36Z</time>
      </trkpt>
      <trkpt lat="47.80218" lon="-3.58139">
        <ele>63.3</ele>
        <time>2020-06-07T10:40:37Z</time>
      </trkpt>
      <trkpt lat="47.80218" lon="-3.58143">
        <ele>63.2</ele>
        <time>2020-06-07T10:40:38Z</time>
      </trkpt>
      <trkpt lat="47.80218" lon="-3.58144">
        <ele>63.2</ele>
        <time>2020-06-07T10:40:39Z</time>
      </trkpt>
      <trkpt lat="47.80217" lon="-3.58149">
        <ele>63.2</ele>
        <time>2020-06-07T10:40:40Z</time>
      </trkpt>
      <trkpt lat="47.80217" lon="-3.5815">
        <ele>63.1</ele>
        <time>2020-06-07T10:40:41Z</time>
      </trkpt>
      <trkpt lat="47.80215" lon="-3.58154">
        <ele>63.1</ele>
        <time>2020-06-07T10:40:42Z</time>
      </trkpt>
      <trkpt lat="47.80214" lon="-3.58155">
        <ele>63.1</ele>
        <time>2020-06-07T10:40:43Z</time>
      </trkpt>
      <trkpt lat="47.80211" lon="-3.58157">
        <ele>63</ele>
        <time>2020-06-07T10:40:44Z</time>
      </trkpt>
      <trkpt lat="47.8021" lon="-3.58158">
        <ele>63</ele>
        <time>2020-06-07T10:40:45Z</time>
      </trkpt>
      <trkpt lat="47.80206" lon="-3.58161">
        <ele>62.9</ele>
        <time>2020-06-07T10:40:46Z</time>
      </trkpt>
      <trkpt lat="47.80204" lon="-3.58162">
        <ele>62.9</ele>
        <time>2020-06-07T10:40:47Z</time>
      </trkpt>
      <trkpt lat="47.80201" lon="-3.58165">
        <ele>62.8</ele>
        <time>2020-06-07T10:40:48Z</time>
      </trkpt>
      <trkpt lat="47.80201" lon="-3.58166">
        <ele>62.8</ele>
        <time>2020-06-07T10:40:49Z</time>
      </trkpt>
      <trkpt lat="47.80198" lon="-3.58168">
        <ele>62.8</ele>
        <time>2020-06-07T10:40:50Z</time>
      </trkpt>
      <trkpt lat="47.80194" lon="-3.58173">
        <ele>62.7</ele>
        <time>2020-06-07T10:40:51Z</time>
      </trkpt>
      <trkpt lat="47.80193" lon="-3.58174">
        <ele>62.7</ele>
        <time>2020-06-07T10:40:52Z</time>
      </trkpt>
      <trkpt lat="47.80189" lon="-3.58177">
        <ele>62.6</ele>
        <time>2020-06-07T10:40:53Z</time>
      </trkpt>
      <trkpt lat="47.80186" lon="-3.5818">
        <ele>62.5</ele>
        <time>2020-06-07T10:40:54Z</time>
      </trkpt>
      <trkpt lat="47.80183" lon="-3.58184">
        <ele>62.5</ele>
        <time>2020-06-07T10:40:55Z</time>
      </trkpt>
      <trkpt lat="47.80181" lon="-3.58188">
        <ele>62.4</ele>
        <time>2020-06-07T10:40:56Z</time>
      </trkpt>
      <trkpt lat="47.80178" lon="-3.58192">
        <ele>62.4</ele>
        <time>2020-06-07T10:40:57Z</time>
      </trkpt>
      <trkpt lat="47.80175" lon="-3.58195">
        <ele>62.3</ele>
        <time>2020-06-07T10:40:58Z</time>
      </trkpt>
      <trkpt lat="47.80172" lon="-3.58199">
        <ele>62.2</ele>
        <time>2020-06-07T10:40:59Z</time>
      </trkpt>
      <trkpt lat="47.8017" lon="-3.58203">
        <ele>62.2</ele>
        <time>2020-06-07T10:41:00Z</time>
      </trkpt>
      <trkpt lat="47.80167" lon="-3.58206">
        <ele>61.3</ele>
        <time>2020-06-07T10:41:01Z</time>
      </trkpt>
      <trkpt lat="47.80163" lon="-3.58209">
        <ele>61.3</ele>
        <time>2020-06-07T10:41:02Z</time>
      </trkpt>
      <trkpt lat="47.80159" lon="-3.58214">
        <ele>61.3</ele>
        <time>2020-06-07T10:41:03Z</time>
      </trkpt>
      <trkpt lat="47.80156" lon="-3.58218">
        <ele>61.2</ele>
        <time>2020-06-07T10:41:04Z</time>
      </trkpt>
      <trkpt lat="47.80152" lon="-3.58223">
        <ele>61.2</ele>
        <time>2020-06-07T10:41:05Z</time>
      </trkpt>
      <trkpt lat="47.80149" lon="-3.58227">
        <ele>61.2</ele>
        <time>2020-06-07T10:41:06Z</time>
      </trkpt>
      <trkpt lat="47.80145" lon="-3.58231">
        <ele>61.2</ele>
        <time>2020-06-07T10:41:07Z</time>
      </trkpt>
      <trkpt lat="47.80143" lon="-3.58235">
        <ele>61.2</ele>
        <time>2020-06-07T10:41:08Z</time>
      </trkpt>
      <trkpt lat="47.80139" lon="-3.58243">
        <ele>61.2</ele>
        <time>2020-06-07T10:41:09Z</time>
      </trkpt>
      <trkpt lat="47.80134" lon="-3.58251">
        <ele>61.1</ele>
        <time>2020-06-07T10:41:10Z</time>
      </trkpt>
      <trkpt lat="47.8013" lon="-3.58259">
        <ele>61.1</ele>
        <time>2020-06-07T10:41:11Z</time>
      </trkpt>
      <trkpt lat="47.80125" lon="-3.58266">
        <ele>61</ele>
        <time>2020-06-07T10:41:12Z</time>
      </trkpt>
      <trkpt lat="47.80121" lon="-3.58274">
        <ele>61</ele>
        <time>2020-06-07T10:41:13Z</time>
      </trkpt>
      <trkpt lat="47.80116" lon="-3.58281">
        <ele>61</ele>
        <time>2020-06-07T10:41:14Z</time>
      </trkpt>
      <trkpt lat="47.80111" lon="-3.58286">
        <ele>60.9</ele>
        <time>2020-06-07T10:41:15Z</time>
      </trkpt>
      <trkpt lat="47.80106" lon="-3.58291">
        <ele>60.9</ele>
        <time>2020-06-07T10:41:16Z</time>
      </trkpt>
      <trkpt lat="47.80101" lon="-3.58296">
        <ele>60.9</ele>
        <time>2020-06-07T10:41:17Z</time>
      </trkpt>
      <trkpt lat="47.80095" lon="-3.58301">
        <ele>61</ele>
        <time>2020-06-07T10:41:18Z</time>
      </trkpt>
      <trkpt lat="47.8009" lon="-3.58307">
        <ele>61</ele>
        <time>2020-06-07T10:41:19Z</time>
      </trkpt>
      <trkpt lat="47.80085" lon="-3.58312">
        <ele>61</ele>
        <time>2020-06-07T10:41:20Z</time>
      </trkpt>
      <trkpt lat="47.80081" lon="-3.58316">
        <ele>60.9</ele>
        <time>2020-06-07T10:41:21Z</time>
      </trkpt>
      <trkpt lat="47.80077" lon="-3.58319">
        <ele>60.9</ele>
        <time>2020-06-07T10:41:22Z</time>
      </trkpt>
      <trkpt lat="47.80072" lon="-3.58323">
        <ele>60.8</ele>
        <time>2020-06-07T10:41:23Z</time>
      </trkpt>
      <trkpt lat="47.80066" lon="-3.58327">
        <ele>60.8</ele>
        <time>2020-06-07T10:41:24Z</time>
      </trkpt>
      <trkpt lat="47.80061" lon="-3.58331">
        <ele>60.8</ele>
        <time>2020-06-07T10:41:25Z</time>
      </trkpt>
      <trkpt lat="47.80055" lon="-3.58334">
        <ele>60.8</ele>
        <time>2020-06-07T10:41:26Z</time>
      </trkpt>
      <trkpt lat="47.80049" lon="-3.58338">
        <ele>60.8</ele>
        <time>2020-06-07T10:41:27Z</time>
      </trkpt>
      <trkpt lat="47.80045" lon="-3.58342">
        <ele>60.8</ele>
        <time>2020-06-07T10:41:28Z</time>
      </trkpt>
      <trkpt lat="47.8004" lon="-3.58347">
        <ele>60.8</ele>
        <time>2020-06-07T10:41:29Z</time>
      </trkpt>
      <trkpt lat="47.80036" lon="-3.58351">
        <ele>60.7</ele>
        <time>2020-06-07T10:41:30Z</time>
      </trkpt>
      <trkpt lat="47.80031" lon="-3.58355">
        <ele>60.6</ele>
        <time>2020-06-07T10:41:31Z</time>
      </trkpt>
      <trkpt lat="47.80027" lon="-3.5836">
        <ele>60.5</ele>
        <time>2020-06-07T10:41:32Z</time>
      </trkpt>
      <trkpt lat="47.80023" lon="-3.58364">
        <ele>60.5</ele>
        <time>2020-06-07T10:41:33Z</time>
      </trkpt>
      <trkpt lat="47.80018" lon="-3.58368">
        <ele>60.4</ele>
        <time>2020-06-07T10:41:34Z</time>
      </trkpt>
      <trkpt lat="47.80014" lon="-3.58372">
        <ele>60.3</ele>
        <time>2020-06-07T10:41:35Z</time>
      </trkpt>
      <trkpt lat="47.8001" lon="-3.58375">
        <ele>60.3</ele>
        <time>2020-06-07T10:41:36Z</time>
      </trkpt>
      <trkpt lat="47.80006" lon="-3.58378">
        <ele>60.2</ele>
        <time>2020-06-07T10:41:37Z</time>
      </trkpt>
      <trkpt lat="47.80002" lon="-3.58381">
        <ele>60.2</ele>
        <time>2020-06-07T10:41:38Z</time>
      </trkpt>
      <trkpt lat="47.79997" lon="-3.58386">
        <ele>60.1</ele>
        <time>2020-06-07T10:41:39Z</time>
      </trkpt>
      <trkpt lat="47.79993" lon="-3.58389">
        <ele>60.1</ele>
        <time>2020-06-07T10:41:40Z</time>
      </trkpt>
      <trkpt lat="47.79988" lon="-3.58392">
        <ele>60.1</ele>
        <time>2020-06-07T10:41:41Z</time>
      </trkpt>
      <trkpt lat="47.79982" lon="-3.58395">
        <ele>60</ele>
        <time>2020-06-07T10:41:42Z</time>
      </trkpt>
      <trkpt lat="47.79977" lon="-3.58398">
        <ele>60</ele>
        <time>2020-06-07T10:41:43Z</time>
      </trkpt>
      <trkpt lat="47.79971" lon="-3.58403">
        <ele>59.9</ele>
        <time>2020-06-07T10:41:44Z</time>
      </trkpt>
      <trkpt lat="47.79966" lon="-3.58407">
        <ele>59.9</ele>
        <time>2020-06-07T10:41:45Z</time>
      </trkpt>
      <trkpt lat="47.7996" lon="-3.58411">
        <ele>59.8</ele>
        <time>2020-06-07T10:41:46Z</time>
      </trkpt>
      <trkpt lat="47.79954" lon="-3.58415">
        <ele>59.7</ele>
        <time>2020-06-07T10:41:47Z</time>
      </trkpt>
      <trkpt lat="47.79949" lon="-3.58419">
        <ele>59.6</ele>
        <time>2020-06-07T10:41:48Z</time>
      </trkpt>
      <trkpt lat="47.79943" lon="-3.58424">
        <ele>59.5</ele>
        <time>2020-06-07T10:41:49Z</time>
      </trkpt>
      <trkpt lat="47.79937" lon="-3.58428">
        <ele>59.4</ele>
        <time>2020-06-07T10:41:50Z</time>
      </trkpt>
      <trkpt lat="47.79931" lon="-3.58432">
        <ele>59.3</ele>
        <time>2020-06-07T10:41:51Z</time>
      </trkpt>
      <trkpt lat="47.79925" lon="-3.58436">
        <ele>59.1</ele>
        <time>2020-06-07T10:41:52Z</time>
      </trkpt>
      <trkpt lat="47.79918" lon="-3.5844">
        <ele>59</ele>
        <time>2020-06-07T10:41:53Z</time>
      </trkpt>
      <trkpt lat="47.79912" lon="-3.58443">
        <ele>58.9</ele>
        <time>2020-06-07T10:41:54Z</time>
      </trkpt>
      <trkpt lat="47.79905" lon="-3.58447">
        <ele>58.8</ele>
        <time>2020-06-07T10:41:55Z</time>
      </trkpt>
      <trkpt lat="47.79898" lon="-3.5845">
        <ele>58.6</ele>
        <time>2020-06-07T10:41:56Z</time>
      </trkpt>
      <trkpt lat="47.79892" lon="-3.58453">
        <ele>58.5</ele>
        <time>2020-06-07T10:41:57Z</time>
      </trkpt>
      <trkpt lat="47.79886" lon="-3.58456">
        <ele>58.4</ele>
        <time>2020-06-07T10:41:58Z</time>
      </trkpt>
      <trkpt lat="47.79881" lon="-3.5846">
        <ele>58.3</ele>
        <time>2020-06-07T10:41:59Z</time>
      </trkpt>
      <trkpt lat="47.79875" lon="-3.58463">
        <ele>58.2</ele>
        <time>2020-06-07T10:42:00Z</time>
      </trkpt>
      <trkpt lat="47.79868" lon="-3.58466">
        <ele>58</ele>
        <time>2020-06-07T10:42:01Z</time>
      </trkpt>
      <trkpt lat="47.79862" lon="-3.5847">
        <ele>57.9</ele>
        <time>2020-06-07T10:42:02Z</time>
      </trkpt>
      <trkpt lat="47.79856" lon="-3.58472">
        <ele>57.8</ele>
        <time>2020-06-07T10:42:03Z</time>
      </trkpt>
      <trkpt lat="47.79849" lon="-3.58475">
        <ele>57.6</ele>
        <time>2020-06-07T10:42:04Z</time>
      </trkpt>
      <trkpt lat="47.79843" lon="-3.58478">
        <ele>57.5</ele>
        <time>2020-06-07T10:42:05Z</time>
      </trkpt>
      <trkpt lat="47.79838" lon="-3.5848">
        <ele>57.4</ele>
        <time>2020-06-07T10:42:06Z</time>
      </trkpt>
      <trkpt lat="47.79832" lon="-3.58483">
        <ele>57.3</ele>
        <time>2020-06-07T10:42:07Z</time>
      </trkpt>
      <trkpt lat="47.79826" lon="-3.58487">
        <ele>57.2</ele>
        <time>2020-06-07T10:42:08Z</time>
      </trkpt>
      <trkpt lat="47.7982" lon="-3.58489">
        <ele>57.1</ele>
        <time>2020-06-07T10:42:09Z</time>
      </trkpt>
      <trkpt lat="47.79815" lon="-3.58491">
        <ele>57.1</ele>
        <time>2020-06-07T10:42:10Z</time>
      </trkpt>
      <trkpt lat="47.7981" lon="-3.58494">
        <ele>57</ele>
        <time>2020-06-07T10:42:11Z</time>
      </trkpt>
      <trkpt lat="47.79804" lon="-3.58496">
        <ele>57</ele>
        <time>2020-06-07T10:42:12Z</time>
      </trkpt>
      <trkpt lat="47.79798" lon="-3.58498">
        <ele>57</ele>
        <time>2020-06-07T10:42:13Z</time>
      </trkpt>
      <trkpt lat="47.79792" lon="-3.58502">
        <ele>56.9</ele>
        <time>2020-06-07T10:42:14Z</time>
      </trkpt>
      <trkpt lat="47.79786" lon="-3.58506">
        <ele>56.9</ele>
        <time>2020-06-07T10:42:15Z</time>
      </trkpt>
      <trkpt lat="47.79781" lon="-3.58509">
        <ele>56.9</ele>
        <time>2020-06-07T10:42:16Z</time>
      </trkpt>
      <trkpt lat="47.79776" lon="-3.58512">
        <ele>56.9</ele>
        <time>2020-06-07T10:42:17Z</time>
      </trkpt>
      <trkpt lat="47.7977" lon="-3.58515">
        <ele>56.9</ele>
        <time>2020-06-07T10:42:18Z</time>
      </trkpt>
      <trkpt lat="47.79764" lon="-3.58518">
        <ele>57</ele>
        <time>2020-06-07T10:42:19Z</time>
      </trkpt>
      <trkpt lat="47.79758" lon="-3.58522">
        <ele>57.1</ele>
        <time>2020-06-07T10:42:20Z</time>
      </trkpt>
      <trkpt lat="47.79752" lon="-3.58527">
        <ele>57.2</ele>
        <time>2020-06-07T10:42:21Z</time>
      </trkpt>
      <trkpt lat="47.79747" lon="-3.58529">
        <ele>57.3</ele>
        <time>2020-06-07T10:42:22Z</time>
      </trkpt>
      <trkpt lat="47.79741" lon="-3.58533">
        <ele>57.4</ele>
        <time>2020-06-07T10:42:23Z</time>
      </trkpt>
      <trkpt lat="47.79736" lon="-3.58536">
        <ele>57.5</ele>
        <time>2020-06-07T10:42:24Z</time>
      </trkpt>
      <trkpt lat="47.7973" lon="-3.58539">
        <ele>57.6</ele>
        <time>2020-06-07T10:42:25Z</time>
      </trkpt>
      <trkpt lat="47.79723" lon="-3.58541">
        <ele>57.8</ele>
        <time>2020-06-07T10:42:26Z</time>
      </trkpt>
      <trkpt lat="47.79716" lon="-3.58543">
        <ele>58</ele>
        <time>2020-06-07T10:42:27Z</time>
      </trkpt>
      <trkpt lat="47.79711" lon="-3.58546">
        <ele>58.2</ele>
        <time>2020-06-07T10:42:28Z</time>
      </trkpt>
      <trkpt lat="47.79705" lon="-3.58548">
        <ele>58.4</ele>
        <time>2020-06-07T10:42:29Z</time>
      </trkpt>
      <trkpt lat="47.79699" lon="-3.58549">
        <ele>58.6</ele>
        <time>2020-06-07T10:42:30Z</time>
      </trkpt>
      <trkpt lat="47.79694" lon="-3.5855">
        <ele>58.8</ele>
        <time>2020-06-07T10:42:31Z</time>
      </trkpt>
      <trkpt lat="47.79689" lon="-3.58551">
        <ele>58.9</ele>
        <time>2020-06-07T10:42:32Z</time>
      </trkpt>
      <trkpt lat="47.79684" lon="-3.58553">
        <ele>59.1</ele>
        <time>2020-06-07T10:42:33Z</time>
      </trkpt>
      <trkpt lat="47.7968" lon="-3.58554">
        <ele>59.3</ele>
        <time>2020-06-07T10:42:34Z</time>
      </trkpt>
      <trkpt lat="47.79676" lon="-3.58556">
        <ele>59.5</ele>
        <time>2020-06-07T10:42:35Z</time>
      </trkpt>
      <trkpt lat="47.79671" lon="-3.58558">
        <ele>59.7</ele>
        <time>2020-06-07T10:42:36Z</time>
      </trkpt>
      <trkpt lat="47.79668" lon="-3.58559">
        <ele>59.8</ele>
        <time>2020-06-07T10:42:37Z</time>
      </trkpt>
      <trkpt lat="47.79665" lon="-3.5856">
        <ele>60</ele>
        <time>2020-06-07T10:42:38Z</time>
      </trkpt>
      <trkpt lat="47.79662" lon="-3.5856">
        <ele>60</ele>
        <time>2020-06-07T10:42:39Z</time>
      </trkpt>
      <trkpt lat="47.79658" lon="-3.5856">
        <ele>60.1</ele>
        <time>2020-06-07T10:42:40Z</time>
      </trkpt>
      <trkpt lat="47.79654" lon="-3.58559">
        <ele>60.3</ele>
        <time>2020-06-07T10:42:41Z</time>
      </trkpt>
      <trkpt lat="47.7965" lon="-3.58557">
        <ele>60.4</ele>
        <time>2020-06-07T10:42:42Z</time>
      </trkpt>
      <trkpt lat="47.79646" lon="-3.58556">
        <ele>60.4</ele>
        <time>2020-06-07T10:42:43Z</time>
      </trkpt>
      <trkpt lat="47.79641" lon="-3.58555">
        <ele>60.4</ele>
        <time>2020-06-07T10:42:44Z</time>
      </trkpt>
      <trkpt lat="47.79637" lon="-3.58554">
        <ele>60.4</ele>
        <time>2020-06-07T10:42:45Z</time>
      </trkpt>
      <trkpt lat="47.79633" lon="-3.58554">
        <ele>60.3</ele>
        <time>2020-06-07T10:42:46Z</time>
      </trkpt>
      <trkpt lat="47.79629" lon="-3.58553">
        <ele>60.3</ele>
        <time>2020-06-07T10:42:47Z</time>
      </trkpt>
      <trkpt lat="47.79626" lon="-3.58553">
        <ele>60.3</ele>
        <time>2020-06-07T10:42:48Z</time>
      </trkpt>
      <trkpt lat="47.79623" lon="-3.58553">
        <ele>60.3</ele>
        <time>2020-06-07T10:42:49Z</time>
      </trkpt>
      <trkpt lat="47.7962" lon="-3.58553">
        <ele>60.3</ele>
        <time>2020-06-07T10:42:50Z</time>
      </trkpt>
      <trkpt lat="47.79619" lon="-3.58553">
        <ele>60.3</ele>
        <time>2020-06-07T10:42:51Z</time>
      </trkpt>
      <trkpt lat="47.79618" lon="-3.58553">
        <ele>60.3</ele>
        <time>2020-06-07T10:42:52Z</time>
      </trkpt>
      <trkpt lat="47.79617" lon="-3.58554">
        <ele>60.3</ele>
        <time>2020-06-07T10:42:53Z</time>
      </trkpt>
      <trkpt lat="47.79616" lon="-3.58558">
        <ele>60.3</ele>
        <time>2020-06-07T10:42:54Z</time>
      </trkpt>
      <trkpt lat="47.79615" lon="-3.5856">
        <ele>60.2</ele>
        <time>2020-06-07T10:42:55Z</time>
      </trkpt>
      <trkpt lat="47.79614" lon="-3.58565">
        <ele>60.2</ele>
        <time>2020-06-07T10:42:56Z</time>
      </trkpt>
      <trkpt lat="47.79612" lon="-3.58572">
        <ele>60.2</ele>
        <time>2020-06-07T10:42:57Z</time>
      </trkpt>
      <trkpt lat="47.7961" lon="-3.58578">
        <ele>60.2</ele>
        <time>2020-06-07T10:42:58Z</time>
      </trkpt>
      <trkpt lat="47.79608" lon="-3.58584">
        <ele>60.1</ele>
        <time>2020-06-07T10:42:59Z</time>
      </trkpt>
      <trkpt lat="47.79606" lon="-3.5859">
        <ele>60</ele>
        <time>2020-06-07T10:43:00Z</time>
      </trkpt>
      <trkpt lat="47.79603" lon="-3.58595">
        <ele>60</ele>
        <time>2020-06-07T10:43:01Z</time>
      </trkpt>
      <trkpt lat="47.79601" lon="-3.58601">
        <ele>59.8</ele>
        <time>2020-06-07T10:43:02Z</time>
      </trkpt>
      <trkpt lat="47.79599" lon="-3.58606">
        <ele>59.6</ele>
        <time>2020-06-07T10:43:03Z</time>
      </trkpt>
      <trkpt lat="47.79597" lon="-3.58611">
        <ele>59.4</ele>
        <time>2020-06-07T10:43:04Z</time>
      </trkpt>
      <trkpt lat="47.79595" lon="-3.58616">
        <ele>59.3</ele>
        <time>2020-06-07T10:43:05Z</time>
      </trkpt>
      <trkpt lat="47.79592" lon="-3.58622">
        <ele>59.1</ele>
        <time>2020-06-07T10:43:06Z</time>
      </trkpt>
      <trkpt lat="47.7959" lon="-3.58627">
        <ele>59</ele>
        <time>2020-06-07T10:43:07Z</time>
      </trkpt>
      <trkpt lat="47.79587" lon="-3.58632">
        <ele>58.8</ele>
        <time>2020-06-07T10:43:08Z</time>
      </trkpt>
      <trkpt lat="47.79584" lon="-3.58637">
        <ele>58.7</ele>
        <time>2020-06-07T10:43:09Z</time>
      </trkpt>
      <trkpt lat="47.79581" lon="-3.58641">
        <ele>58.5</ele>
        <time>2020-06-07T10:43:10Z</time>
      </trkpt>
      <trkpt lat="47.79577" lon="-3.58644">
        <ele>58.3</ele>
        <time>2020-06-07T10:43:11Z</time>
      </trkpt>
      <trkpt lat="47.79573" lon="-3.58646">
        <ele>58.2</ele>
        <time>2020-06-07T10:43:12Z</time>
      </trkpt>
      <trkpt lat="47.7957" lon="-3.58649">
        <ele>58.2</ele>
        <time>2020-06-07T10:43:13Z</time>
      </trkpt>
      <trkpt lat="47.79566" lon="-3.58652">
        <ele>58.1</ele>
        <time>2020-06-07T10:43:14Z</time>
      </trkpt>
      <trkpt lat="47.79562" lon="-3.58655">
        <ele>58</ele>
        <time>2020-06-07T10:43:15Z</time>
      </trkpt>
      <trkpt lat="47.79558" lon="-3.58658">
        <ele>57.9</ele>
        <time>2020-06-07T10:43:16Z</time>
      </trkpt>
      <trkpt lat="47.79553" lon="-3.58661">
        <ele>57.7</ele>
        <time>2020-06-07T10:43:17Z</time>
      </trkpt>
      <trkpt lat="47.79548" lon="-3.58665">
        <ele>57.6</ele>
        <time>2020-06-07T10:43:18Z</time>
      </trkpt>
      <trkpt lat="47.79543" lon="-3.58669">
        <ele>57.5</ele>
        <time>2020-06-07T10:43:19Z</time>
      </trkpt>
      <trkpt lat="47.79539" lon="-3.58673">
        <ele>57.4</ele>
        <time>2020-06-07T10:43:20Z</time>
      </trkpt>
      <trkpt lat="47.79534" lon="-3.58678">
        <ele>57.3</ele>
        <time>2020-06-07T10:43:21Z</time>
      </trkpt>
      <trkpt lat="47.7953" lon="-3.58681">
        <ele>57.2</ele>
        <time>2020-06-07T10:43:22Z</time>
      </trkpt>
      <trkpt lat="47.79526" lon="-3.58686">
        <ele>57</ele>
        <time>2020-06-07T10:43:23Z</time>
      </trkpt>
      <trkpt lat="47.79523" lon="-3.58689">
        <ele>56.9</ele>
        <time>2020-06-07T10:43:24Z</time>
      </trkpt>
      <trkpt lat="47.79518" lon="-3.58692">
        <ele>56.8</ele>
        <time>2020-06-07T10:43:25Z</time>
      </trkpt>
      <trkpt lat="47.79514" lon="-3.58695">
        <ele>56.7</ele>
        <time>2020-06-07T10:43:26Z</time>
      </trkpt>
      <trkpt lat="47.79509" lon="-3.58698">
        <ele>56.5</ele>
        <time>2020-06-07T10:43:27Z</time>
      </trkpt>
      <trkpt lat="47.79505" lon="-3.58701">
        <ele>56.3</ele>
        <time>2020-06-07T10:43:28Z</time>
      </trkpt>
      <trkpt lat="47.79499" lon="-3.58705">
        <ele>56.1</ele>
        <time>2020-06-07T10:43:29Z</time>
      </trkpt>
      <trkpt lat="47.79494" lon="-3.58708">
        <ele>55.9</ele>
        <time>2020-06-07T10:43:30Z</time>
      </trkpt>
      <trkpt lat="47.79488" lon="-3.58712">
        <ele>55.7</ele>
        <time>2020-06-07T10:43:31Z</time>
      </trkpt>
      <trkpt lat="47.79483" lon="-3.58715">
        <ele>55.4</ele>
        <time>2020-06-07T10:43:32Z</time>
      </trkpt>
      <trkpt lat="47.79477" lon="-3.58719">
        <ele>55.2</ele>
        <time>2020-06-07T10:43:33Z</time>
      </trkpt>
      <trkpt lat="47.79471" lon="-3.58724">
        <ele>54.8</ele>
        <time>2020-06-07T10:43:34Z</time>
      </trkpt>
      <trkpt lat="47.79464" lon="-3.58729">
        <ele>54.5</ele>
        <time>2020-06-07T10:43:35Z</time>
      </trkpt>
      <trkpt lat="47.79457" lon="-3.58735">
        <ele>54.1</ele>
        <time>2020-06-07T10:43:36Z</time>
      </trkpt>
      <trkpt lat="47.79449" lon="-3.58743">
        <ele>53.6</ele>
        <time>2020-06-07T10:43:37Z</time>
      </trkpt>
      <trkpt lat="47.79442" lon="-3.58751">
        <ele>53.1</ele>
        <time>2020-06-07T10:43:38Z</time>
      </trkpt>
      <trkpt lat="47.79433" lon="-3.58758">
        <ele>52.6</ele>
        <time>2020-06-07T10:43:39Z</time>
      </trkpt>
      <trkpt lat="47.79426" lon="-3.58764">
        <ele>52.2</ele>
        <time>2020-06-07T10:43:40Z</time>
      </trkpt>
      <trkpt lat="47.79419" lon="-3.58768">
        <ele>51.7</ele>
        <time>2020-06-07T10:43:41Z</time>
      </trkpt>
      <trkpt lat="47.79411" lon="-3.58773">
        <ele>51.3</ele>
        <time>2020-06-07T10:43:42Z</time>
      </trkpt>
      <trkpt lat="47.79404" lon="-3.58778">
        <ele>50.9</ele>
        <time>2020-06-07T10:43:43Z</time>
      </trkpt>
      <trkpt lat="47.79397" lon="-3.58783">
        <ele>50.5</ele>
        <time>2020-06-07T10:43:44Z</time>
      </trkpt>
      <trkpt lat="47.79389" lon="-3.58789">
        <ele>50.1</ele>
        <time>2020-06-07T10:43:45Z</time>
      </trkpt>
      <trkpt lat="47.79383" lon="-3.58793">
        <ele>49.7</ele>
        <time>2020-06-07T10:43:46Z</time>
      </trkpt>
      <trkpt lat="47.79376" lon="-3.58799">
        <ele>49.4</ele>
        <time>2020-06-07T10:43:47Z</time>
      </trkpt>
      <trkpt lat="47.79369" lon="-3.58807">
        <ele>49</ele>
        <time>2020-06-07T10:43:48Z</time>
      </trkpt>
      <trkpt lat="47.79361" lon="-3.58815">
        <ele>48.6</ele>
        <time>2020-06-07T10:43:49Z</time>
      </trkpt>
      <trkpt lat="47.79353" lon="-3.58823">
        <ele>48.3</ele>
        <time>2020-06-07T10:43:50Z</time>
      </trkpt>
      <trkpt lat="47.79347" lon="-3.58831">
        <ele>48.2</ele>
        <time>2020-06-07T10:43:51Z</time>
      </trkpt>
      <trkpt lat="47.79341" lon="-3.58839">
        <ele>48.1</ele>
        <time>2020-06-07T10:43:52Z</time>
      </trkpt>
      <trkpt lat="47.79336" lon="-3.58849">
        <ele>48</ele>
        <time>2020-06-07T10:43:53Z</time>
      </trkpt>
      <trkpt lat="47.7933" lon="-3.58858">
        <ele>48.1</ele>
        <time>2020-06-07T10:43:54Z</time>
      </trkpt>
      <trkpt lat="47.79326" lon="-3.58869">
        <ele>48.3</ele>
        <time>2020-06-07T10:43:55Z</time>
      </trkpt>
      <trkpt lat="47.79322" lon="-3.58879">
        <ele>48.4</ele>
        <time>2020-06-07T10:43:56Z</time>
      </trkpt>
      <trkpt lat="47.79319" lon="-3.58888">
        <ele>48.6</ele>
        <time>2020-06-07T10:43:57Z</time>
      </trkpt>
      <trkpt lat="47.79316" lon="-3.58897">
        <ele>48.7</ele>
        <time>2020-06-07T10:43:58Z</time>
      </trkpt>
      <trkpt lat="47.79314" lon="-3.58906">
        <ele>48.9</ele>
        <time>2020-06-07T10:43:59Z</time>
      </trkpt>
      <trkpt lat="47.79312" lon="-3.58914">
        <ele>49</ele>
        <time>2020-06-07T10:44:00Z</time>
      </trkpt>
      <trkpt lat="47.79311" lon="-3.58923">
        <ele>49.2</ele>
        <time>2020-06-07T10:44:01Z</time>
      </trkpt>
      <trkpt lat="47.7931" lon="-3.5893">
        <ele>49.3</ele>
        <time>2020-06-07T10:44:02Z</time>
      </trkpt>
      <trkpt lat="47.7931" lon="-3.58937">
        <ele>49.3</ele>
        <time>2020-06-07T10:44:03Z</time>
      </trkpt>
      <trkpt lat="47.79309" lon="-3.58944">
        <ele>49.4</ele>
        <time>2020-06-07T10:44:04Z</time>
      </trkpt>
      <trkpt lat="47.79307" lon="-3.58952">
        <ele>49.5</ele>
        <time>2020-06-07T10:44:05Z</time>
      </trkpt>
      <trkpt lat="47.79306" lon="-3.58961">
        <ele>49.6</ele>
        <time>2020-06-07T10:44:06Z</time>
      </trkpt>
      <trkpt lat="47.79304" lon="-3.5897">
        <ele>49.6</ele>
        <time>2020-06-07T10:44:07Z</time>
      </trkpt>
      <trkpt lat="47.79302" lon="-3.58977">
        <ele>49.7</ele>
        <time>2020-06-07T10:44:08Z</time>
      </trkpt>
      <trkpt lat="47.793" lon="-3.58985">
        <ele>49.7</ele>
        <time>2020-06-07T10:44:09Z</time>
      </trkpt>
      <trkpt lat="47.79297" lon="-3.58993">
        <ele>49.6</ele>
        <time>2020-06-07T10:44:10Z</time>
      </trkpt>
      <trkpt lat="47.79294" lon="-3.59001">
        <ele>49.6</ele>
        <time>2020-06-07T10:44:11Z</time>
      </trkpt>
      <trkpt lat="47.7929" lon="-3.59008">
        <ele>49.6</ele>
        <time>2020-06-07T10:44:12Z</time>
      </trkpt>
      <trkpt lat="47.79284" lon="-3.59012">
        <ele>49.5</ele>
        <time>2020-06-07T10:44:13Z</time>
      </trkpt>
      <trkpt lat="47.79278" lon="-3.59016">
        <ele>49.5</ele>
        <time>2020-06-07T10:44:14Z</time>
      </trkpt>
      <trkpt lat="47.79272" lon="-3.59021">
        <ele>49.5</ele>
        <time>2020-06-07T10:44:15Z</time>
      </trkpt>
      <trkpt lat="47.79265" lon="-3.59025">
        <ele>49.4</ele>
        <time>2020-06-07T10:44:16Z</time>
      </trkpt>
      <trkpt lat="47.79259" lon="-3.5903">
        <ele>49.3</ele>
        <time>2020-06-07T10:44:17Z</time>
      </trkpt>
      <trkpt lat="47.79253" lon="-3.59033">
        <ele>49.2</ele>
        <time>2020-06-07T10:44:18Z</time>
      </trkpt>
      <trkpt lat="47.79246" lon="-3.59036">
        <ele>49.2</ele>
        <time>2020-06-07T10:44:19Z</time>
      </trkpt>
      <trkpt lat="47.7924" lon="-3.59039">
        <ele>49.2</ele>
        <time>2020-06-07T10:44:20Z</time>
      </trkpt>
      <trkpt lat="47.79233" lon="-3.59043">
        <ele>49.2</ele>
        <time>2020-06-07T10:44:21Z</time>
      </trkpt>
      <trkpt lat="47.79228" lon="-3.59044">
        <ele>49.3</ele>
        <time>2020-06-07T10:44:22Z</time>
      </trkpt>
      <trkpt lat="47.79219" lon="-3.59047">
        <ele>49.3</ele>
        <time>2020-06-07T10:44:23Z</time>
      </trkpt>
      <trkpt lat="47.79212" lon="-3.5905">
        <ele>49.2</ele>
        <time>2020-06-07T10:44:24Z</time>
      </trkpt>
      <trkpt lat="47.79206" lon="-3.59052">
        <ele>49.2</ele>
        <time>2020-06-07T10:44:25Z</time>
      </trkpt>
      <trkpt lat="47.792" lon="-3.59054">
        <ele>49.2</ele>
        <time>2020-06-07T10:44:26Z</time>
      </trkpt>
      <trkpt lat="47.79193" lon="-3.59056">
        <ele>49.2</ele>
        <time>2020-06-07T10:44:27Z</time>
      </trkpt>
      <trkpt lat="47.79186" lon="-3.59059">
        <ele>49.2</ele>
        <time>2020-06-07T10:44:28Z</time>
      </trkpt>
      <trkpt lat="47.79179" lon="-3.59062">
        <ele>49.2</ele>
        <time>2020-06-07T10:44:29Z</time>
      </trkpt>
      <trkpt lat="47.79172" lon="-3.59063">
        <ele>49.2</ele>
        <time>2020-06-07T10:44:30Z</time>
      </trkpt>
      <trkpt lat="47.79166" lon="-3.59064">
        <ele>49.2</ele>
        <time>2020-06-07T10:44:31Z</time>
      </trkpt>
      <trkpt lat="47.79158" lon="-3.59065">
        <ele>49.2</ele>
        <time>2020-06-07T10:44:32Z</time>
      </trkpt>
      <trkpt lat="47.7915" lon="-3.59068">
        <ele>49.1</ele>
        <time>2020-06-07T10:44:33Z</time>
      </trkpt>
      <trkpt lat="47.79143" lon="-3.5907">
        <ele>48.9</ele>
        <time>2020-06-07T10:44:34Z</time>
      </trkpt>
      <trkpt lat="47.79137" lon="-3.59072">
        <ele>48.8</ele>
        <time>2020-06-07T10:44:35Z</time>
      </trkpt>
      <trkpt lat="47.7913" lon="-3.59074">
        <ele>48.6</ele>
        <time>2020-06-07T10:44:36Z</time>
      </trkpt>
      <trkpt lat="47.79124" lon="-3.59075">
        <ele>48.4</ele>
        <time>2020-06-07T10:44:37Z</time>
      </trkpt>
      <trkpt lat="47.79116" lon="-3.59077">
        <ele>48.2</ele>
        <time>2020-06-07T10:44:38Z</time>
      </trkpt>
      <trkpt lat="47.79109" lon="-3.59079">
        <ele>47.9</ele>
        <time>2020-06-07T10:44:39Z</time>
      </trkpt>
      <trkpt lat="47.79102" lon="-3.59083">
        <ele>47.6</ele>
        <time>2020-06-07T10:44:40Z</time>
      </trkpt>
      <trkpt lat="47.79095" lon="-3.59086">
        <ele>47.3</ele>
        <time>2020-06-07T10:44:41Z</time>
      </trkpt>
      <trkpt lat="47.79089" lon="-3.59089">
        <ele>47.1</ele>
        <time>2020-06-07T10:44:42Z</time>
      </trkpt>
      <trkpt lat="47.79082" lon="-3.59095">
        <ele>46.8</ele>
        <time>2020-06-07T10:44:43Z</time>
      </trkpt>
      <trkpt lat="47.79076" lon="-3.59101">
        <ele>46.6</ele>
        <time>2020-06-07T10:44:44Z</time>
      </trkpt>
      <trkpt lat="47.79071" lon="-3.59108">
        <ele>46.4</ele>
        <time>2020-06-07T10:44:45Z</time>
      </trkpt>
      <trkpt lat="47.79065" lon="-3.59114">
        <ele>46.1</ele>
        <time>2020-06-07T10:44:46Z</time>
      </trkpt>
      <trkpt lat="47.79058" lon="-3.59121">
        <ele>45.9</ele>
        <time>2020-06-07T10:44:47Z</time>
      </trkpt>
      <trkpt lat="47.79052" lon="-3.59128">
        <ele>45.7</ele>
        <time>2020-06-07T10:44:48Z</time>
      </trkpt>
      <trkpt lat="47.79047" lon="-3.59135">
        <ele>45.5</ele>
        <time>2020-06-07T10:44:49Z</time>
      </trkpt>
      <trkpt lat="47.79042" lon="-3.59141">
        <ele>45.2</ele>
        <time>2020-06-07T10:44:50Z</time>
      </trkpt>
      <trkpt lat="47.79037" lon="-3.59147">
        <ele>45.1</ele>
        <time>2020-06-07T10:44:51Z</time>
      </trkpt>
      <trkpt lat="47.79032" lon="-3.59153">
        <ele>44.9</ele>
        <time>2020-06-07T10:44:52Z</time>
      </trkpt>
      <trkpt lat="47.79026" lon="-3.5916">
        <ele>44.7</ele>
        <time>2020-06-07T10:44:53Z</time>
      </trkpt>
      <trkpt lat="47.7902" lon="-3.59166">
        <ele>44.5</ele>
        <time>2020-06-07T10:44:54Z</time>
      </trkpt>
      <trkpt lat="47.79016" lon="-3.5917">
        <ele>44.2</ele>
        <time>2020-06-07T10:44:55Z</time>
      </trkpt>
      <trkpt lat="47.7901" lon="-3.59176">
        <ele>44</ele>
        <time>2020-06-07T10:44:56Z</time>
      </trkpt>
      <trkpt lat="47.79005" lon="-3.59182">
        <ele>43.6</ele>
        <time>2020-06-07T10:44:57Z</time>
      </trkpt>
      <trkpt lat="47.78999" lon="-3.59188">
        <ele>43.3</ele>
        <time>2020-06-07T10:44:58Z</time>
      </trkpt>
      <trkpt lat="47.78993" lon="-3.59193">
        <ele>43</ele>
        <time>2020-06-07T10:44:59Z</time>
      </trkpt>
      <trkpt lat="47.78988" lon="-3.59199">
        <ele>42.8</ele>
        <time>2020-06-07T10:45:00Z</time>
      </trkpt>
      <trkpt lat="47.78983" lon="-3.59205">
        <ele>42.5</ele>
        <time>2020-06-07T10:45:01Z</time>
      </trkpt>
      <trkpt lat="47.78978" lon="-3.59213">
        <ele>42.1</ele>
        <time>2020-06-07T10:45:02Z</time>
      </trkpt>
      <trkpt lat="47.78972" lon="-3.5922">
        <ele>41.7</ele>
        <time>2020-06-07T10:45:03Z</time>
      </trkpt>
      <trkpt lat="47.78967" lon="-3.59227">
        <ele>41.5</ele>
        <time>2020-06-07T10:45:04Z</time>
      </trkpt>
      <trkpt lat="47.78961" lon="-3.59235">
        <ele>41.4</ele>
        <time>2020-06-07T10:45:05Z</time>
      </trkpt>
      <trkpt lat="47.78957" lon="-3.59243">
        <ele>41.2</ele>
        <time>2020-06-07T10:45:06Z</time>
      </trkpt>
      <trkpt lat="47.78952" lon="-3.59251">
        <ele>41.1</ele>
        <time>2020-06-07T10:45:07Z</time>
      </trkpt>
      <trkpt lat="47.78949" lon="-3.59259">
        <ele>41</ele>
        <time>2020-06-07T10:45:08Z</time>
      </trkpt>
      <trkpt lat="47.78946" lon="-3.59269">
        <ele>40.8</ele>
        <time>2020-06-07T10:45:09Z</time>
      </trkpt>
      <trkpt lat="47.78944" lon="-3.59278">
        <ele>40.7</ele>
        <time>2020-06-07T10:45:10Z</time>
      </trkpt>
      <trkpt lat="47.78943" lon="-3.59288">
        <ele>40.5</ele>
        <time>2020-06-07T10:45:11Z</time>
      </trkpt>
      <trkpt lat="47.78942" lon="-3.59298">
        <ele>40.4</ele>
        <time>2020-06-07T10:45:12Z</time>
      </trkpt>
      <trkpt lat="47.78942" lon="-3.59308">
        <ele>40.2</ele>
        <time>2020-06-07T10:45:13Z</time>
      </trkpt>
      <trkpt lat="47.78942" lon="-3.59319">
        <ele>40</ele>
        <time>2020-06-07T10:45:14Z</time>
      </trkpt>
      <trkpt lat="47.78943" lon="-3.59329">
        <ele>39.9</ele>
        <time>2020-06-07T10:45:15Z</time>
      </trkpt>
      <trkpt lat="47.78945" lon="-3.5934">
        <ele>39.8</ele>
        <time>2020-06-07T10:45:16Z</time>
      </trkpt>
      <trkpt lat="47.78947" lon="-3.59352">
        <ele>39.4</ele>
        <time>2020-06-07T10:45:17Z</time>
      </trkpt>
      <trkpt lat="47.78949" lon="-3.59363">
        <ele>38.9</ele>
        <time>2020-06-07T10:45:18Z</time>
      </trkpt>
      <trkpt lat="47.78952" lon="-3.59374">
        <ele>38.5</ele>
        <time>2020-06-07T10:45:19Z</time>
      </trkpt>
      <trkpt lat="47.78954" lon="-3.59384">
        <ele>38</ele>
        <time>2020-06-07T10:45:20Z</time>
      </trkpt>
      <trkpt lat="47.78957" lon="-3.59394">
        <ele>37.6</ele>
        <time>2020-06-07T10:45:21Z</time>
      </trkpt>
      <trkpt lat="47.7896" lon="-3.59405">
        <ele>37</ele>
        <time>2020-06-07T10:45:22Z</time>
      </trkpt>
      <trkpt lat="47.78963" lon="-3.59416">
        <ele>36.3</ele>
        <time>2020-06-07T10:45:23Z</time>
      </trkpt>
      <trkpt lat="47.78966" lon="-3.59428">
        <ele>35.7</ele>
        <time>2020-06-07T10:45:24Z</time>
      </trkpt>
      <trkpt lat="47.78968" lon="-3.59442">
        <ele>35</ele>
        <time>2020-06-07T10:45:25Z</time>
      </trkpt>
      <trkpt lat="47.78971" lon="-3.59456">
        <ele>34.2</ele>
        <time>2020-06-07T10:45:26Z</time>
      </trkpt>
      <trkpt lat="47.78973" lon="-3.59467">
        <ele>33.6</ele>
        <time>2020-06-07T10:45:27Z</time>
      </trkpt>
      <trkpt lat="47.78975" lon="-3.59482">
        <ele>32.7</ele>
        <time>2020-06-07T10:45:28Z</time>
      </trkpt>
      <trkpt lat="47.78977" lon="-3.59494">
        <ele>31.9</ele>
        <time>2020-06-07T10:45:29Z</time>
      </trkpt>
      <trkpt lat="47.78979" lon="-3.59508">
        <ele>31.1</ele>
        <time>2020-06-07T10:45:30Z</time>
      </trkpt>
      <trkpt lat="47.7898" lon="-3.59523">
        <ele>30.4</ele>
        <time>2020-06-07T10:45:31Z</time>
      </trkpt>
      <trkpt lat="47.78982" lon="-3.59538">
        <ele>29.8</ele>
        <time>2020-06-07T10:45:32Z</time>
      </trkpt>
      <trkpt lat="47.78983" lon="-3.59554">
        <ele>29.3</ele>
        <time>2020-06-07T10:45:33Z</time>
      </trkpt>
      <trkpt lat="47.78984" lon="-3.59571">
        <ele>29</ele>
        <time>2020-06-07T10:45:34Z</time>
      </trkpt>
      <trkpt lat="47.78984" lon="-3.5959">
        <ele>29</ele>
        <time>2020-06-07T10:45:35Z</time>
      </trkpt>
      <trkpt lat="47.78983" lon="-3.59607">
        <ele>29.2</ele>
        <time>2020-06-07T10:45:36Z</time>
      </trkpt>
      <trkpt lat="47.78981" lon="-3.59623">
        <ele>29.5</ele>
        <time>2020-06-07T10:45:37Z</time>
      </trkpt>
      <trkpt lat="47.78978" lon="-3.59637">
        <ele>29.9</ele>
        <time>2020-06-07T10:45:38Z</time>
      </trkpt>
      <trkpt lat="47.78976" lon="-3.59649">
        <ele>30.4</ele>
        <time>2020-06-07T10:45:39Z</time>
      </trkpt>
      <trkpt lat="47.78973" lon="-3.59662">
        <ele>30.9</ele>
        <time>2020-06-07T10:45:40Z</time>
      </trkpt>
      <trkpt lat="47.78967" lon="-3.59676">
        <ele>31.4</ele>
        <time>2020-06-07T10:45:41Z</time>
      </trkpt>
      <trkpt lat="47.7896" lon="-3.59689">
        <ele>31.8</ele>
        <time>2020-06-07T10:45:42Z</time>
      </trkpt>
      <trkpt lat="47.78956" lon="-3.59697">
        <ele>32.1</ele>
        <time>2020-06-07T10:45:43Z</time>
      </trkpt>
      <trkpt lat="47.78949" lon="-3.59707">
        <ele>32.5</ele>
        <time>2020-06-07T10:45:44Z</time>
      </trkpt>
      <trkpt lat="47.78941" lon="-3.59716">
        <ele>33.2</ele>
        <time>2020-06-07T10:45:45Z</time>
      </trkpt>
      <trkpt lat="47.78935" lon="-3.59722">
        <ele>33.9</ele>
        <time>2020-06-07T10:45:46Z</time>
      </trkpt>
      <trkpt lat="47.78929" lon="-3.59727">
        <ele>34.3</ele>
        <time>2020-06-07T10:45:47Z</time>
      </trkpt>
      <trkpt lat="47.78924" lon="-3.59731">
        <ele>34.6</ele>
        <time>2020-06-07T10:45:48Z</time>
      </trkpt>
      <trkpt lat="47.7892" lon="-3.59735">
        <ele>34.7</ele>
        <time>2020-06-07T10:45:49Z</time>
      </trkpt>
      <trkpt lat="47.78914" lon="-3.59739">
        <ele>34.9</ele>
        <time>2020-06-07T10:45:50Z</time>
      </trkpt>
      <trkpt lat="47.78909" lon="-3.59744">
        <ele>35</ele>
        <time>2020-06-07T10:45:51Z</time>
      </trkpt>
      <trkpt lat="47.78904" lon="-3.59747">
        <ele>35</ele>
        <time>2020-06-07T10:45:52Z</time>
      </trkpt>
      <trkpt lat="47.78898" lon="-3.5975">
        <ele>35</ele>
        <time>2020-06-07T10:45:53Z</time>
      </trkpt>
      <trkpt lat="47.78892" lon="-3.59752">
        <ele>34.9</ele>
        <time>2020-06-07T10:45:54Z</time>
      </trkpt>
      <trkpt lat="47.78886" lon="-3.59755">
        <ele>34.8</ele>
        <time>2020-06-07T10:45:55Z</time>
      </trkpt>
      <trkpt lat="47.78881" lon="-3.59758">
        <ele>34.6</ele>
        <time>2020-06-07T10:45:56Z</time>
      </trkpt>
      <trkpt lat="47.78876" lon="-3.5976">
        <ele>34.5</ele>
        <time>2020-06-07T10:45:57Z</time>
      </trkpt>
      <trkpt lat="47.78872" lon="-3.59762">
        <ele>34.3</ele>
        <time>2020-06-07T10:45:58Z</time>
      </trkpt>
      <trkpt lat="47.78867" lon="-3.59764">
        <ele>34</ele>
        <time>2020-06-07T10:45:59Z</time>
      </trkpt>
      <trkpt lat="47.78861" lon="-3.59767">
        <ele>33.7</ele>
        <time>2020-06-07T10:46:00Z</time>
      </trkpt>
      <trkpt lat="47.78857" lon="-3.59769">
        <ele>33.4</ele>
        <time>2020-06-07T10:46:01Z</time>
      </trkpt>
      <trkpt lat="47.78852" lon="-3.59772">
        <ele>33.2</ele>
        <time>2020-06-07T10:46:02Z</time>
      </trkpt>
      <trkpt lat="47.78848" lon="-3.59774">
        <ele>32.9</ele>
        <time>2020-06-07T10:46:03Z</time>
      </trkpt>
      <trkpt lat="47.78843" lon="-3.59778">
        <ele>32.6</ele>
        <time>2020-06-07T10:46:04Z</time>
      </trkpt>
      <trkpt lat="47.78838" lon="-3.59781">
        <ele>32.3</ele>
        <time>2020-06-07T10:46:05Z</time>
      </trkpt>
      <trkpt lat="47.78831" lon="-3.59783">
        <ele>32</ele>
        <time>2020-06-07T10:46:06Z</time>
      </trkpt>
      <trkpt lat="47.78825" lon="-3.59787">
        <ele>31.7</ele>
        <time>2020-06-07T10:46:07Z</time>
      </trkpt>
      <trkpt lat="47.7882" lon="-3.59791">
        <ele>31.4</ele>
        <time>2020-06-07T10:46:08Z</time>
      </trkpt>
      <trkpt lat="47.78815" lon="-3.59795">
        <ele>31.2</ele>
        <time>2020-06-07T10:46:09Z</time>
      </trkpt>
      <trkpt lat="47.7881" lon="-3.598">
        <ele>31</ele>
        <time>2020-06-07T10:46:11Z</time>
      </trkpt>
      <trkpt lat="47.78806" lon="-3.59807">
        <ele>30.9</ele>
        <time>2020-06-07T10:46:12Z</time>
      </trkpt>
      <trkpt lat="47.78803" lon="-3.59812">
        <ele>30.8</ele>
        <time>2020-06-07T10:46:13Z</time>
      </trkpt>
      <trkpt lat="47.78799" lon="-3.59818">
        <ele>30.7</ele>
        <time>2020-06-07T10:46:14Z</time>
      </trkpt>
      <trkpt lat="47.78795" lon="-3.59824">
        <ele>30.6</ele>
        <time>2020-06-07T10:46:15Z</time>
      </trkpt>
      <trkpt lat="47.78793" lon="-3.59829">
        <ele>30.5</ele>
        <time>2020-06-07T10:46:16Z</time>
      </trkpt>
      <trkpt lat="47.78795" lon="-3.59833">
        <ele>30.5</ele>
        <time>2020-06-07T10:46:17Z</time>
      </trkpt>
      <trkpt lat="47.78793" lon="-3.59838">
        <ele>30.5</ele>
        <time>2020-06-07T10:46:18Z</time>
      </trkpt>
      <trkpt lat="47.78791" lon="-3.59842">
        <ele>30.5</ele>
        <time>2020-06-07T10:46:19Z</time>
      </trkpt>
      <trkpt lat="47.7879" lon="-3.59849">
        <ele>30.4</ele>
        <time>2020-06-07T10:46:20Z</time>
      </trkpt>
      <trkpt lat="47.78789" lon="-3.59853">
        <ele>30.4</ele>
        <time>2020-06-07T10:46:21Z</time>
      </trkpt>
      <trkpt lat="47.78787" lon="-3.59857">
        <ele>30.5</ele>
        <time>2020-06-07T10:46:22Z</time>
      </trkpt>
      <trkpt lat="47.78787" lon="-3.59859">
        <ele>30.5</ele>
        <time>2020-06-07T10:46:23Z</time>
      </trkpt>
      <trkpt lat="47.78785" lon="-3.59864">
        <ele>30.5</ele>
        <time>2020-06-07T10:46:24Z</time>
      </trkpt>
      <trkpt lat="47.78784" lon="-3.59869">
        <ele>30.5</ele>
        <time>2020-06-07T10:46:25Z</time>
      </trkpt>
      <trkpt lat="47.78783" lon="-3.59874">
        <ele>30.6</ele>
        <time>2020-06-07T10:46:26Z</time>
      </trkpt>
      <trkpt lat="47.78781" lon="-3.59881">
        <ele>30.6</ele>
        <time>2020-06-07T10:46:27Z</time>
      </trkpt>
      <trkpt lat="47.7878" lon="-3.59888">
        <ele>30.7</ele>
        <time>2020-06-07T10:46:28Z</time>
      </trkpt>
      <trkpt lat="47.78779" lon="-3.59895">
        <ele>30.8</ele>
        <time>2020-06-07T10:46:29Z</time>
      </trkpt>
      <trkpt lat="47.78777" lon="-3.599">
        <ele>30.8</ele>
        <time>2020-06-07T10:46:30Z</time>
      </trkpt>
      <trkpt lat="47.78775" lon="-3.59906">
        <ele>30.9</ele>
        <time>2020-06-07T10:46:31Z</time>
      </trkpt>
      <trkpt lat="47.78775" lon="-3.59908">
        <ele>30.9</ele>
        <time>2020-06-07T10:46:32Z</time>
      </trkpt>
      <trkpt lat="47.78772" lon="-3.59915">
        <ele>31</ele>
        <time>2020-06-07T10:46:33Z</time>
      </trkpt>
      <trkpt lat="47.78769" lon="-3.5992">
        <ele>31</ele>
        <time>2020-06-07T10:46:34Z</time>
      </trkpt>
      <trkpt lat="47.78768" lon="-3.59922">
        <ele>31.1</ele>
        <time>2020-06-07T10:46:35Z</time>
      </trkpt>
      <trkpt lat="47.78761" lon="-3.59935">
        <ele>31.2</ele>
        <time>2020-06-07T10:46:36Z</time>
      </trkpt>
      <trkpt lat="47.78756" lon="-3.59942">
        <ele>31.3</ele>
        <time>2020-06-07T10:46:37Z</time>
      </trkpt>
      <trkpt lat="47.78752" lon="-3.59944">
        <ele>31.4</ele>
        <time>2020-06-07T10:46:38Z</time>
      </trkpt>
      <trkpt lat="47.78749" lon="-3.59944">
        <ele>31.4</ele>
        <time>2020-06-07T10:46:39Z</time>
      </trkpt>
      <trkpt lat="47.78745" lon="-3.59943">
        <ele>31.5</ele>
        <time>2020-06-07T10:46:40Z</time>
      </trkpt>
      <trkpt lat="47.78742" lon="-3.59942">
        <ele>31.5</ele>
        <time>2020-06-07T10:46:41Z</time>
      </trkpt>
      <trkpt lat="47.78739" lon="-3.59942">
        <ele>31.5</ele>
        <time>2020-06-07T10:46:42Z</time>
      </trkpt>
      <trkpt lat="47.78736" lon="-3.59943">
        <ele>31.5</ele>
        <time>2020-06-07T10:46:43Z</time>
      </trkpt>
      <trkpt lat="47.78731" lon="-3.59942">
        <ele>31.5</ele>
        <time>2020-06-07T10:46:44Z</time>
      </trkpt>
      <trkpt lat="47.78725" lon="-3.59942">
        <ele>31.4</ele>
        <time>2020-06-07T10:46:45Z</time>
      </trkpt>
      <trkpt lat="47.78719" lon="-3.59941">
        <ele>31.4</ele>
        <time>2020-06-07T10:46:46Z</time>
      </trkpt>
      <trkpt lat="47.78713" lon="-3.59941">
        <ele>31.4</ele>
        <time>2020-06-07T10:46:47Z</time>
      </trkpt>
      <trkpt lat="47.78707" lon="-3.59941">
        <ele>31.5</ele>
        <time>2020-06-07T10:46:48Z</time>
      </trkpt>
      <trkpt lat="47.78702" lon="-3.59942">
        <ele>31.6</ele>
        <time>2020-06-07T10:46:49Z</time>
      </trkpt>
      <trkpt lat="47.78697" lon="-3.59943">
        <ele>31.8</ele>
        <time>2020-06-07T10:46:50Z</time>
      </trkpt>
      <trkpt lat="47.78691" lon="-3.59943">
        <ele>32</ele>
        <time>2020-06-07T10:46:51Z</time>
      </trkpt>
      <trkpt lat="47.78687" lon="-3.59945">
        <ele>32.3</ele>
        <time>2020-06-07T10:46:52Z</time>
      </trkpt>
      <trkpt lat="47.78682" lon="-3.59947">
        <ele>32.5</ele>
        <time>2020-06-07T10:46:53Z</time>
      </trkpt>
      <trkpt lat="47.78672" lon="-3.59952">
        <ele>33.1</ele>
        <time>2020-06-07T10:46:54Z</time>
      </trkpt>
      <trkpt lat="47.78667" lon="-3.59955">
        <ele>33.4</ele>
        <time>2020-06-07T10:46:55Z</time>
      </trkpt>
      <trkpt lat="47.78661" lon="-3.59956">
        <ele>33.7</ele>
        <time>2020-06-07T10:46:56Z</time>
      </trkpt>
      <trkpt lat="47.78655" lon="-3.59961">
        <ele>34</ele>
        <time>2020-06-07T10:46:57Z</time>
      </trkpt>
      <trkpt lat="47.7865" lon="-3.59966">
        <ele>34.4</ele>
        <time>2020-06-07T10:46:58Z</time>
      </trkpt>
      <trkpt lat="47.78645" lon="-3.59969">
        <ele>34.7</ele>
        <time>2020-06-07T10:46:59Z</time>
      </trkpt>
      <trkpt lat="47.7864" lon="-3.59974">
        <ele>35</ele>
        <time>2020-06-07T10:47:00Z</time>
      </trkpt>
      <trkpt lat="47.78636" lon="-3.59978">
        <ele>35.3</ele>
        <time>2020-06-07T10:47:01Z</time>
      </trkpt>
      <trkpt lat="47.78633" lon="-3.59982">
        <ele>35.5</ele>
        <time>2020-06-07T10:47:02Z</time>
      </trkpt>
      <trkpt lat="47.7863" lon="-3.59987">
        <ele>35.8</ele>
        <time>2020-06-07T10:47:03Z</time>
      </trkpt>
      <trkpt lat="47.78628" lon="-3.59991">
        <ele>36</ele>
        <time>2020-06-07T10:47:04Z</time>
      </trkpt>
      <trkpt lat="47.78625" lon="-3.59995">
        <ele>36.3</ele>
        <time>2020-06-07T10:47:05Z</time>
      </trkpt>
      <trkpt lat="47.78623" lon="-3.59999">
        <ele>36.5</ele>
        <time>2020-06-07T10:47:06Z</time>
      </trkpt>
      <trkpt lat="47.78621" lon="-3.60003">
        <ele>36.7</ele>
        <time>2020-06-07T10:47:07Z</time>
      </trkpt>
      <trkpt lat="47.7862" lon="-3.60006">
        <ele>36.9</ele>
        <time>2020-06-07T10:47:08Z</time>
      </trkpt>
      <trkpt lat="47.78618" lon="-3.6001">
        <ele>37.1</ele>
        <time>2020-06-07T10:47:09Z</time>
      </trkpt>
      <trkpt lat="47.78617" lon="-3.60015">
        <ele>37.3</ele>
        <time>2020-06-07T10:47:10Z</time>
      </trkpt>
      <trkpt lat="47.78615" lon="-3.6002">
        <ele>37.5</ele>
        <time>2020-06-07T10:47:11Z</time>
      </trkpt>
      <trkpt lat="47.78614" lon="-3.60025">
        <ele>37.7</ele>
        <time>2020-06-07T10:47:12Z</time>
      </trkpt>
      <trkpt lat="47.78612" lon="-3.60032">
        <ele>38</ele>
        <time>2020-06-07T10:47:13Z</time>
      </trkpt>
      <trkpt lat="47.78611" lon="-3.60037">
        <ele>38.3</ele>
        <time>2020-06-07T10:47:14Z</time>
      </trkpt>
      <trkpt lat="47.78609" lon="-3.60043">
        <ele>38.5</ele>
        <time>2020-06-07T10:47:15Z</time>
      </trkpt>
      <trkpt lat="47.78608" lon="-3.60049">
        <ele>38.8</ele>
        <time>2020-06-07T10:47:16Z</time>
      </trkpt>
      <trkpt lat="47.78606" lon="-3.60055">
        <ele>39.1</ele>
        <time>2020-06-07T10:47:17Z</time>
      </trkpt>
      <trkpt lat="47.78605" lon="-3.6006">
        <ele>39.3</ele>
        <time>2020-06-07T10:47:18Z</time>
      </trkpt>
      <trkpt lat="47.78603" lon="-3.60066">
        <ele>39.6</ele>
        <time>2020-06-07T10:47:19Z</time>
      </trkpt>
      <trkpt lat="47.78601" lon="-3.60072">
        <ele>39.8</ele>
        <time>2020-06-07T10:47:20Z</time>
      </trkpt>
      <trkpt lat="47.78599" lon="-3.60077">
        <ele>40</ele>
        <time>2020-06-07T10:47:21Z</time>
      </trkpt>
      <trkpt lat="47.78598" lon="-3.60083">
        <ele>40.3</ele>
        <time>2020-06-07T10:47:22Z</time>
      </trkpt>
      <trkpt lat="47.78597" lon="-3.6009">
        <ele>40.5</ele>
        <time>2020-06-07T10:47:23Z</time>
      </trkpt>
      <trkpt lat="47.78595" lon="-3.60096">
        <ele>40.8</ele>
        <time>2020-06-07T10:47:24Z</time>
      </trkpt>
      <trkpt lat="47.78594" lon="-3.60102">
        <ele>41</ele>
        <time>2020-06-07T10:47:25Z</time>
      </trkpt>
      <trkpt lat="47.78592" lon="-3.60108">
        <ele>41.2</ele>
        <time>2020-06-07T10:47:26Z</time>
      </trkpt>
      <trkpt lat="47.78591" lon="-3.60114">
        <ele>41.4</ele>
        <time>2020-06-07T10:47:27Z</time>
      </trkpt>
      <trkpt lat="47.7859" lon="-3.60121">
        <ele>41.6</ele>
        <time>2020-06-07T10:47:28Z</time>
      </trkpt>
      <trkpt lat="47.78589" lon="-3.60127">
        <ele>41.8</ele>
        <time>2020-06-07T10:47:29Z</time>
      </trkpt>
      <trkpt lat="47.78588" lon="-3.60133">
        <ele>42</ele>
        <time>2020-06-07T10:47:30Z</time>
      </trkpt>
      <trkpt lat="47.78587" lon="-3.60139">
        <ele>42.2</ele>
        <time>2020-06-07T10:47:31Z</time>
      </trkpt>
      <trkpt lat="47.78586" lon="-3.60145">
        <ele>42.4</ele>
        <time>2020-06-07T10:47:32Z</time>
      </trkpt>
      <trkpt lat="47.78585" lon="-3.60152">
        <ele>42.6</ele>
        <time>2020-06-07T10:47:33Z</time>
      </trkpt>
      <trkpt lat="47.78584" lon="-3.60159">
        <ele>42.7</ele>
        <time>2020-06-07T10:47:34Z</time>
      </trkpt>
      <trkpt lat="47.78582" lon="-3.60165">
        <ele>42.9</ele>
        <time>2020-06-07T10:47:35Z</time>
      </trkpt>
      <trkpt lat="47.7858" lon="-3.60173">
        <ele>43</ele>
        <time>2020-06-07T10:47:36Z</time>
      </trkpt>
      <trkpt lat="47.78578" lon="-3.6018">
        <ele>43.1</ele>
        <time>2020-06-07T10:47:37Z</time>
      </trkpt>
      <trkpt lat="47.78575" lon="-3.60187">
        <ele>43.2</ele>
        <time>2020-06-07T10:47:38Z</time>
      </trkpt>
      <trkpt lat="47.7857" lon="-3.60193">
        <ele>43.3</ele>
        <time>2020-06-07T10:47:39Z</time>
      </trkpt>
      <trkpt lat="47.78566" lon="-3.60197">
        <ele>43.4</ele>
        <time>2020-06-07T10:47:40Z</time>
      </trkpt>
      <trkpt lat="47.7856" lon="-3.60202">
        <ele>43.4</ele>
        <time>2020-06-07T10:47:41Z</time>
      </trkpt>
      <trkpt lat="47.78556" lon="-3.60206">
        <ele>43.4</ele>
        <time>2020-06-07T10:47:42Z</time>
      </trkpt>
      <trkpt lat="47.78551" lon="-3.6021">
        <ele>43.5</ele>
        <time>2020-06-07T10:47:43Z</time>
      </trkpt>
      <trkpt lat="47.78546" lon="-3.60213">
        <ele>43.5</ele>
        <time>2020-06-07T10:47:44Z</time>
      </trkpt>
      <trkpt lat="47.78542" lon="-3.60215">
        <ele>43.5</ele>
        <time>2020-06-07T10:47:45Z</time>
      </trkpt>
      <trkpt lat="47.78537" lon="-3.60216">
        <ele>43.4</ele>
        <time>2020-06-07T10:47:46Z</time>
      </trkpt>
      <trkpt lat="47.78532" lon="-3.60216">
        <ele>43.6</ele>
        <time>2020-06-07T10:47:47Z</time>
      </trkpt>
      <trkpt lat="47.78528" lon="-3.60217">
        <ele>43.8</ele>
        <time>2020-06-07T10:47:48Z</time>
      </trkpt>
      <trkpt lat="47.78523" lon="-3.60218">
        <ele>43.8</ele>
        <time>2020-06-07T10:47:49Z</time>
      </trkpt>
      <trkpt lat="47.78519" lon="-3.60219">
        <ele>43.9</ele>
        <time>2020-06-07T10:47:50Z</time>
      </trkpt>
      <trkpt lat="47.78514" lon="-3.6022">
        <ele>43.9</ele>
        <time>2020-06-07T10:47:51Z</time>
      </trkpt>
      <trkpt lat="47.78509" lon="-3.60221">
        <ele>43.9</ele>
        <time>2020-06-07T10:47:52Z</time>
      </trkpt>
      <trkpt lat="47.78505" lon="-3.60223">
        <ele>43.9</ele>
        <time>2020-06-07T10:47:53Z</time>
      </trkpt>
      <trkpt lat="47.78499" lon="-3.60225">
        <ele>43.8</ele>
        <time>2020-06-07T10:47:54Z</time>
      </trkpt>
      <trkpt lat="47.78493" lon="-3.60228">
        <ele>43.8</ele>
        <time>2020-06-07T10:47:55Z</time>
      </trkpt>
      <trkpt lat="47.78488" lon="-3.60231">
        <ele>43.8</ele>
        <time>2020-06-07T10:47:56Z</time>
      </trkpt>
      <trkpt lat="47.78482" lon="-3.60233">
        <ele>43.8</ele>
        <time>2020-06-07T10:47:57Z</time>
      </trkpt>
      <trkpt lat="47.78477" lon="-3.60236">
        <ele>43.7</ele>
        <time>2020-06-07T10:47:58Z</time>
      </trkpt>
      <trkpt lat="47.78472" lon="-3.60239">
        <ele>43.7</ele>
        <time>2020-06-07T10:47:59Z</time>
      </trkpt>
      <trkpt lat="47.78467" lon="-3.60241">
        <ele>43.6</ele>
        <time>2020-06-07T10:48:00Z</time>
      </trkpt>
      <trkpt lat="47.78462" lon="-3.60244">
        <ele>43.6</ele>
        <time>2020-06-07T10:48:01Z</time>
      </trkpt>
      <trkpt lat="47.78457" lon="-3.60246">
        <ele>43.5</ele>
        <time>2020-06-07T10:48:02Z</time>
      </trkpt>
      <trkpt lat="47.78452" lon="-3.60249">
        <ele>43.5</ele>
        <time>2020-06-07T10:48:03Z</time>
      </trkpt>
      <trkpt lat="47.78447" lon="-3.60251">
        <ele>43.4</ele>
        <time>2020-06-07T10:48:04Z</time>
      </trkpt>
      <trkpt lat="47.78442" lon="-3.60253">
        <ele>43.3</ele>
        <time>2020-06-07T10:48:05Z</time>
      </trkpt>
      <trkpt lat="47.78436" lon="-3.60256">
        <ele>43.2</ele>
        <time>2020-06-07T10:48:06Z</time>
      </trkpt>
      <trkpt lat="47.7843" lon="-3.6026">
        <ele>43</ele>
        <time>2020-06-07T10:48:07Z</time>
      </trkpt>
      <trkpt lat="47.78423" lon="-3.60264">
        <ele>42.8</ele>
        <time>2020-06-07T10:48:08Z</time>
      </trkpt>
      <trkpt lat="47.78416" lon="-3.60266">
        <ele>42.6</ele>
        <time>2020-06-07T10:48:09Z</time>
      </trkpt>
      <trkpt lat="47.7841" lon="-3.60267">
        <ele>42.4</ele>
        <time>2020-06-07T10:48:10Z</time>
      </trkpt>
      <trkpt lat="47.78405" lon="-3.60267">
        <ele>42.2</ele>
        <time>2020-06-07T10:48:11Z</time>
      </trkpt>
      <trkpt lat="47.784" lon="-3.60267">
        <ele>42</ele>
        <time>2020-06-07T10:48:12Z</time>
      </trkpt>
      <trkpt lat="47.78395" lon="-3.60266">
        <ele>41.9</ele>
        <time>2020-06-07T10:48:13Z</time>
      </trkpt>
      <trkpt lat="47.78391" lon="-3.60265">
        <ele>41.8</ele>
        <time>2020-06-07T10:48:14Z</time>
      </trkpt>
      <trkpt lat="47.78386" lon="-3.60263">
        <ele>41.6</ele>
        <time>2020-06-07T10:48:15Z</time>
      </trkpt>
      <trkpt lat="47.78381" lon="-3.6026">
        <ele>41.5</ele>
        <time>2020-06-07T10:48:16Z</time>
      </trkpt>
      <trkpt lat="47.78375" lon="-3.60258">
        <ele>41.2</ele>
        <time>2020-06-07T10:48:17Z</time>
      </trkpt>
      <trkpt lat="47.78369" lon="-3.60256">
        <ele>41</ele>
        <time>2020-06-07T10:48:18Z</time>
      </trkpt>
      <trkpt lat="47.78363" lon="-3.60253">
        <ele>40.7</ele>
        <time>2020-06-07T10:48:19Z</time>
      </trkpt>
      <trkpt lat="47.78356" lon="-3.60252">
        <ele>40.3</ele>
        <time>2020-06-07T10:48:20Z</time>
      </trkpt>
      <trkpt lat="47.78349" lon="-3.6025">
        <ele>40</ele>
        <time>2020-06-07T10:48:21Z</time>
      </trkpt>
      <trkpt lat="47.78342" lon="-3.60247">
        <ele>39.6</ele>
        <time>2020-06-07T10:48:22Z</time>
      </trkpt>
      <trkpt lat="47.78334" lon="-3.60245">
        <ele>39.3</ele>
        <time>2020-06-07T10:48:23Z</time>
      </trkpt>
      <trkpt lat="47.78327" lon="-3.60242">
        <ele>38.9</ele>
        <time>2020-06-07T10:48:24Z</time>
      </trkpt>
      <trkpt lat="47.78318" lon="-3.60239">
        <ele>38.5</ele>
        <time>2020-06-07T10:48:25Z</time>
      </trkpt>
      <trkpt lat="47.7831" lon="-3.60237">
        <ele>38.2</ele>
        <time>2020-06-07T10:48:26Z</time>
      </trkpt>
      <trkpt lat="47.78301" lon="-3.60233">
        <ele>37.8</ele>
        <time>2020-06-07T10:48:27Z</time>
      </trkpt>
      <trkpt lat="47.78293" lon="-3.6023">
        <ele>37.4</ele>
        <time>2020-06-07T10:48:28Z</time>
      </trkpt>
      <trkpt lat="47.78285" lon="-3.60227">
        <ele>37</ele>
        <time>2020-06-07T10:48:29Z</time>
      </trkpt>
      <trkpt lat="47.78277" lon="-3.60225">
        <ele>36.6</ele>
        <time>2020-06-07T10:48:30Z</time>
      </trkpt>
      <trkpt lat="47.78269" lon="-3.60222">
        <ele>36.2</ele>
        <time>2020-06-07T10:48:31Z</time>
      </trkpt>
      <trkpt lat="47.7826" lon="-3.6022">
        <ele>35.8</ele>
        <time>2020-06-07T10:48:32Z</time>
      </trkpt>
      <trkpt lat="47.78251" lon="-3.60219">
        <ele>35.4</ele>
        <time>2020-06-07T10:48:33Z</time>
      </trkpt>
      <trkpt lat="47.78242" lon="-3.60219">
        <ele>35.1</ele>
        <time>2020-06-07T10:48:34Z</time>
      </trkpt>
      <trkpt lat="47.78234" lon="-3.60221">
        <ele>34.8</ele>
        <time>2020-06-07T10:48:35Z</time>
      </trkpt>
      <trkpt lat="47.78228" lon="-3.60225">
        <ele>34.5</ele>
        <time>2020-06-07T10:48:36Z</time>
      </trkpt>
      <trkpt lat="47.7822" lon="-3.60232">
        <ele>34.1</ele>
        <time>2020-06-07T10:48:37Z</time>
      </trkpt>
      <trkpt lat="47.78212" lon="-3.6024">
        <ele>33.7</ele>
        <time>2020-06-07T10:48:38Z</time>
      </trkpt>
      <trkpt lat="47.78204" lon="-3.60246">
        <ele>33.3</ele>
        <time>2020-06-07T10:48:39Z</time>
      </trkpt>
      <trkpt lat="47.78196" lon="-3.6025">
        <ele>32.9</ele>
        <time>2020-06-07T10:48:40Z</time>
      </trkpt>
      <trkpt lat="47.78188" lon="-3.60253">
        <ele>32.5</ele>
        <time>2020-06-07T10:48:41Z</time>
      </trkpt>
      <trkpt lat="47.78178" lon="-3.60252">
        <ele>32.2</ele>
        <time>2020-06-07T10:48:42Z</time>
      </trkpt>
      <trkpt lat="47.78168" lon="-3.60252">
        <ele>31.9</ele>
        <time>2020-06-07T10:48:43Z</time>
      </trkpt>
      <trkpt lat="47.78158" lon="-3.60251">
        <ele>31.6</ele>
        <time>2020-06-07T10:48:44Z</time>
      </trkpt>
      <trkpt lat="47.78148" lon="-3.6025">
        <ele>31.3</ele>
        <time>2020-06-07T10:48:45Z</time>
      </trkpt>
      <trkpt lat="47.78139" lon="-3.60249">
        <ele>31</ele>
        <time>2020-06-07T10:48:46Z</time>
      </trkpt>
      <trkpt lat="47.7813" lon="-3.60248">
        <ele>30.7</ele>
        <time>2020-06-07T10:48:47Z</time>
      </trkpt>
      <trkpt lat="47.78121" lon="-3.60246">
        <ele>30.4</ele>
        <time>2020-06-07T10:48:48Z</time>
      </trkpt>
      <trkpt lat="47.78113" lon="-3.60245">
        <ele>30</ele>
        <time>2020-06-07T10:48:49Z</time>
      </trkpt>
      <trkpt lat="47.78104" lon="-3.60244">
        <ele>29.7</ele>
        <time>2020-06-07T10:48:50Z</time>
      </trkpt>
      <trkpt lat="47.78094" lon="-3.60242">
        <ele>29.3</ele>
        <time>2020-06-07T10:48:51Z</time>
      </trkpt>
      <trkpt lat="47.78084" lon="-3.60242">
        <ele>28.9</ele>
        <time>2020-06-07T10:48:52Z</time>
      </trkpt>
      <trkpt lat="47.78075" lon="-3.60241">
        <ele>28.5</ele>
        <time>2020-06-07T10:48:53Z</time>
      </trkpt>
      <trkpt lat="47.78065" lon="-3.60241">
        <ele>28.1</ele>
        <time>2020-06-07T10:48:54Z</time>
      </trkpt>
      <trkpt lat="47.78055" lon="-3.60242">
        <ele>27.7</ele>
        <time>2020-06-07T10:48:55Z</time>
      </trkpt>
      <trkpt lat="47.78045" lon="-3.60243">
        <ele>27.2</ele>
        <time>2020-06-07T10:48:56Z</time>
      </trkpt>
      <trkpt lat="47.78036" lon="-3.60244">
        <ele>26.8</ele>
        <time>2020-06-07T10:48:57Z</time>
      </trkpt>
      <trkpt lat="47.78026" lon="-3.60245">
        <ele>26.3</ele>
        <time>2020-06-07T10:48:58Z</time>
      </trkpt>
      <trkpt lat="47.78017" lon="-3.60249">
        <ele>25.8</ele>
        <time>2020-06-07T10:48:59Z</time>
      </trkpt>
      <trkpt lat="47.78007" lon="-3.60254">
        <ele>25.3</ele>
        <time>2020-06-07T10:49:00Z</time>
      </trkpt>
      <trkpt lat="47.77999" lon="-3.60258">
        <ele>24.9</ele>
        <time>2020-06-07T10:49:01Z</time>
      </trkpt>
      <trkpt lat="47.7799" lon="-3.60261">
        <ele>24.5</ele>
        <time>2020-06-07T10:49:02Z</time>
      </trkpt>
      <trkpt lat="47.77981" lon="-3.60264">
        <ele>24.1</ele>
        <time>2020-06-07T10:49:03Z</time>
      </trkpt>
      <trkpt lat="47.77972" lon="-3.60267">
        <ele>23.7</ele>
        <time>2020-06-07T10:49:04Z</time>
      </trkpt>
      <trkpt lat="47.77963" lon="-3.60269">
        <ele>23.3</ele>
        <time>2020-06-07T10:49:05Z</time>
      </trkpt>
      <trkpt lat="47.77954" lon="-3.60271">
        <ele>23</ele>
        <time>2020-06-07T10:49:06Z</time>
      </trkpt>
      <trkpt lat="47.77945" lon="-3.60274">
        <ele>22.6</ele>
        <time>2020-06-07T10:49:07Z</time>
      </trkpt>
      <trkpt lat="47.77937" lon="-3.60277">
        <ele>22.2</ele>
        <time>2020-06-07T10:49:08Z</time>
      </trkpt>
      <trkpt lat="47.77929" lon="-3.60281">
        <ele>21.8</ele>
        <time>2020-06-07T10:49:09Z</time>
      </trkpt>
      <trkpt lat="47.77921" lon="-3.60286">
        <ele>21.4</ele>
        <time>2020-06-07T10:49:10Z</time>
      </trkpt>
      <trkpt lat="47.77914" lon="-3.60291">
        <ele>20.9</ele>
        <time>2020-06-07T10:49:11Z</time>
      </trkpt>
      <trkpt lat="47.77908" lon="-3.60298">
        <ele>20.4</ele>
        <time>2020-06-07T10:49:12Z</time>
      </trkpt>
      <trkpt lat="47.77902" lon="-3.60306">
        <ele>19.9</ele>
        <time>2020-06-07T10:49:13Z</time>
      </trkpt>
      <trkpt lat="47.77896" lon="-3.60314">
        <ele>19.3</ele>
        <time>2020-06-07T10:49:14Z</time>
      </trkpt>
      <trkpt lat="47.77891" lon="-3.60324">
        <ele>18.8</ele>
        <time>2020-06-07T10:49:15Z</time>
      </trkpt>
      <trkpt lat="47.77886" lon="-3.60335">
        <ele>18.2</ele>
        <time>2020-06-07T10:49:16Z</time>
      </trkpt>
      <trkpt lat="47.77883" lon="-3.60349">
        <ele>17.5</ele>
        <time>2020-06-07T10:49:17Z</time>
      </trkpt>
      <trkpt lat="47.77879" lon="-3.60362">
        <ele>16.9</ele>
        <time>2020-06-07T10:49:18Z</time>
      </trkpt>
      <trkpt lat="47.77875" lon="-3.60377">
        <ele>16</ele>
        <time>2020-06-07T10:49:19Z</time>
      </trkpt>
      <trkpt lat="47.77871" lon="-3.6039">
        <ele>15.3</ele>
        <time>2020-06-07T10:49:20Z</time>
      </trkpt>
      <trkpt lat="47.77866" lon="-3.60403">
        <ele>14.6</ele>
        <time>2020-06-07T10:49:21Z</time>
      </trkpt>
      <trkpt lat="47.77862" lon="-3.60416">
        <ele>14</ele>
        <time>2020-06-07T10:49:22Z</time>
      </trkpt>
      <trkpt lat="47.77858" lon="-3.60429">
        <ele>13.4</ele>
        <time>2020-06-07T10:49:23Z</time>
      </trkpt>
      <trkpt lat="47.77854" lon="-3.60442">
        <ele>13</ele>
        <time>2020-06-07T10:49:24Z</time>
      </trkpt>
      <trkpt lat="47.77852" lon="-3.60452">
        <ele>12.7</ele>
        <time>2020-06-07T10:49:25Z</time>
      </trkpt>
      <trkpt lat="47.77851" lon="-3.60461">
        <ele>12.4</ele>
        <time>2020-06-07T10:49:26Z</time>
      </trkpt>
      <trkpt lat="47.7785" lon="-3.60465">
        <ele>12.3</ele>
        <time>2020-06-07T10:49:27Z</time>
      </trkpt>
      <trkpt lat="47.7785" lon="-3.6047">
        <ele>12.2</ele>
        <time>2020-06-07T10:49:28Z</time>
      </trkpt>
      <trkpt lat="47.7785" lon="-3.60471">
        <ele>12.2</ele>
        <time>2020-06-07T10:49:29Z</time>
      </trkpt>
      <trkpt lat="47.77851" lon="-3.60472">
        <ele>12.2</ele>
        <time>2020-06-07T10:49:30Z</time>
      </trkpt>
      <trkpt lat="47.7785" lon="-3.60473">
        <ele>12.2</ele>
        <time>2020-06-07T10:49:31Z</time>
      </trkpt>
      <trkpt lat="47.77848" lon="-3.60473">
        <ele>12.1</ele>
        <time>2020-06-07T10:49:32Z</time>
      </trkpt>
      <trkpt lat="47.77847" lon="-3.60474">
        <ele>11.4</ele>
        <time>2020-06-07T10:49:33Z</time>
      </trkpt>
      <trkpt lat="47.77844" lon="-3.60473">
        <ele>11.2</ele>
        <time>2020-06-07T10:49:34Z</time>
      </trkpt>
      <trkpt lat="47.7784" lon="-3.60473">
        <ele>10.9</ele>
        <time>2020-06-07T10:49:35Z</time>
      </trkpt>
      <trkpt lat="47.77836" lon="-3.60471">
        <ele>10.6</ele>
        <time>2020-06-07T10:49:36Z</time>
      </trkpt>
      <trkpt lat="47.77832" lon="-3.6047">
        <ele>10.3</ele>
        <time>2020-06-07T10:49:37Z</time>
      </trkpt>
      <trkpt lat="47.77827" lon="-3.6047">
        <ele>9.9</ele>
        <time>2020-06-07T10:49:38Z</time>
      </trkpt>
      <trkpt lat="47.77821" lon="-3.6047">
        <ele>9.4</ele>
        <time>2020-06-07T10:49:39Z</time>
      </trkpt>
      <trkpt lat="47.77815" lon="-3.60469">
        <ele>9</ele>
        <time>2020-06-07T10:49:40Z</time>
      </trkpt>
      <trkpt lat="47.77809" lon="-3.60469">
        <ele>8.5</ele>
        <time>2020-06-07T10:49:41Z</time>
      </trkpt>
      <trkpt lat="47.77803" lon="-3.60469">
        <ele>7.9</ele>
        <time>2020-06-07T10:49:42Z</time>
      </trkpt>
      <trkpt lat="47.77796" lon="-3.60468">
        <ele>7.4</ele>
        <time>2020-06-07T10:49:43Z</time>
      </trkpt>
      <trkpt lat="47.77788" lon="-3.60466">
        <ele>6.8</ele>
        <time>2020-06-07T10:49:44Z</time>
      </trkpt>
      <trkpt lat="47.7778" lon="-3.60463">
        <ele>6.1</ele>
        <time>2020-06-07T10:49:45Z</time>
      </trkpt>
      <trkpt lat="47.77771" lon="-3.60458">
        <ele>5.5</ele>
        <time>2020-06-07T10:49:46Z</time>
      </trkpt>
      <trkpt lat="47.77761" lon="-3.60454">
        <ele>5</ele>
        <time>2020-06-07T10:49:47Z</time>
      </trkpt>
      <trkpt lat="47.77751" lon="-3.60449">
        <ele>4.6</ele>
        <time>2020-06-07T10:49:48Z</time>
      </trkpt>
      <trkpt lat="47.77741" lon="-3.60445">
        <ele>4.3</ele>
        <time>2020-06-07T10:49:49Z</time>
      </trkpt>
      <trkpt lat="47.77733" lon="-3.60441">
        <ele>4.2</ele>
        <time>2020-06-07T10:49:50Z</time>
      </trkpt>
      <trkpt lat="47.77724" lon="-3.60437">
        <ele>4.1</ele>
        <time>2020-06-07T10:49:51Z</time>
      </trkpt>
      <trkpt lat="47.77716" lon="-3.60433">
        <ele>4.1</ele>
        <time>2020-06-07T10:49:52Z</time>
      </trkpt>
      <trkpt lat="47.77708" lon="-3.6043">
        <ele>4</ele>
        <time>2020-06-07T10:49:53Z</time>
      </trkpt>
      <trkpt lat="47.77702" lon="-3.60427">
        <ele>4.1</ele>
        <time>2020-06-07T10:49:54Z</time>
      </trkpt>
      <trkpt lat="47.77697" lon="-3.60424">
        <ele>4.1</ele>
        <time>2020-06-07T10:49:55Z</time>
      </trkpt>
      <trkpt lat="47.77692" lon="-3.6042">
        <ele>4.2</ele>
        <time>2020-06-07T10:49:56Z</time>
      </trkpt>
      <trkpt lat="47.77687" lon="-3.60417">
        <ele>4.3</ele>
        <time>2020-06-07T10:49:57Z</time>
      </trkpt>
      <trkpt lat="47.77681" lon="-3.60413">
        <ele>4.5</ele>
        <time>2020-06-07T10:49:58Z</time>
      </trkpt>
      <trkpt lat="47.77676" lon="-3.6041">
        <ele>4.7</ele>
        <time>2020-06-07T10:49:59Z</time>
      </trkpt>
      <trkpt lat="47.77671" lon="-3.60407">
        <ele>4.9</ele>
        <time>2020-06-07T10:50:00Z</time>
      </trkpt>
      <trkpt lat="47.77667" lon="-3.60404">
        <ele>5.2</ele>
        <time>2020-06-07T10:50:01Z</time>
      </trkpt>
      <trkpt lat="47.77663" lon="-3.60401">
        <ele>5.4</ele>
        <time>2020-06-07T10:50:02Z</time>
      </trkpt>
      <trkpt lat="47.7766" lon="-3.60399">
        <ele>5.6</ele>
        <time>2020-06-07T10:50:03Z</time>
      </trkpt>
      <trkpt lat="47.77656" lon="-3.60396">
        <ele>5.8</ele>
        <time>2020-06-07T10:50:04Z</time>
      </trkpt>
      <trkpt lat="47.77653" lon="-3.60392">
        <ele>6.1</ele>
        <time>2020-06-07T10:50:05Z</time>
      </trkpt>
      <trkpt lat="47.77651" lon="-3.60389">
        <ele>6.3</ele>
        <time>2020-06-07T10:50:06Z</time>
      </trkpt>
      <trkpt lat="47.77648" lon="-3.60386">
        <ele>6.4</ele>
        <time>2020-06-07T10:50:07Z</time>
      </trkpt>
      <trkpt lat="47.77645" lon="-3.60383">
        <ele>6.6</ele>
        <time>2020-06-07T10:50:08Z</time>
      </trkpt>
      <trkpt lat="47.77643" lon="-3.6038">
        <ele>6.8</ele>
        <time>2020-06-07T10:50:09Z</time>
      </trkpt>
      <trkpt lat="47.77642" lon="-3.6038">
        <ele>6.8</ele>
        <time>2020-06-07T10:50:10Z</time>
      </trkpt>
      <trkpt lat="47.7764" lon="-3.60378">
        <ele>6.9</ele>
        <time>2020-06-07T10:50:11Z</time>
      </trkpt>
      <trkpt lat="47.77638" lon="-3.60376">
        <ele>7</ele>
        <time>2020-06-07T10:50:12Z</time>
      </trkpt>
      <trkpt lat="47.77637" lon="-3.60376">
        <ele>7</ele>
        <time>2020-06-07T10:50:13Z</time>
      </trkpt>
      <trkpt lat="47.77635" lon="-3.60375">
        <ele>7.1</ele>
        <time>2020-06-07T10:50:14Z</time>
      </trkpt>
      <trkpt lat="47.77631" lon="-3.60372">
        <ele>7.2</ele>
        <time>2020-06-07T10:50:15Z</time>
      </trkpt>
      <trkpt lat="47.7763" lon="-3.60371">
        <ele>7.3</ele>
        <time>2020-06-07T10:50:16Z</time>
      </trkpt>
      <trkpt lat="47.77627" lon="-3.60371">
        <ele>7.3</ele>
        <time>2020-06-07T10:50:17Z</time>
      </trkpt>
      <trkpt lat="47.77624" lon="-3.60371">
        <ele>7.3</ele>
        <time>2020-06-07T10:50:18Z</time>
      </trkpt>
      <trkpt lat="47.77622" lon="-3.60372">
        <ele>7.3</ele>
        <time>2020-06-07T10:50:19Z</time>
      </trkpt>
      <trkpt lat="47.77621" lon="-3.60373">
        <ele>7.3</ele>
        <time>2020-06-07T10:50:20Z</time>
      </trkpt>
      <trkpt lat="47.77618" lon="-3.60373">
        <ele>7.3</ele>
        <time>2020-06-07T10:50:21Z</time>
      </trkpt>
      <trkpt lat="47.77615" lon="-3.60374">
        <ele>7.3</ele>
        <time>2020-06-07T10:50:22Z</time>
      </trkpt>
      <trkpt lat="47.7761" lon="-3.60375">
        <ele>7.3</ele>
        <time>2020-06-07T10:50:23Z</time>
      </trkpt>
      <trkpt lat="47.77608" lon="-3.60376">
        <ele>7.2</ele>
        <time>2020-06-07T10:50:24Z</time>
      </trkpt>
      <trkpt lat="47.77605" lon="-3.60376">
        <ele>7.2</ele>
        <time>2020-06-07T10:50:25Z</time>
      </trkpt>
      <trkpt lat="47.77601" lon="-3.60376">
        <ele>7.1</ele>
        <time>2020-06-07T10:50:26Z</time>
      </trkpt>
      <trkpt lat="47.77597" lon="-3.60376">
        <ele>7.1</ele>
        <time>2020-06-07T10:50:27Z</time>
      </trkpt>
      <trkpt lat="47.77591" lon="-3.60378">
        <ele>7</ele>
        <time>2020-06-07T10:50:28Z</time>
      </trkpt>
      <trkpt lat="47.77586" lon="-3.60379">
        <ele>6.9</ele>
        <time>2020-06-07T10:50:29Z</time>
      </trkpt>
      <trkpt lat="47.77581" lon="-3.6038">
        <ele>6.8</ele>
        <time>2020-06-07T10:50:30Z</time>
      </trkpt>
      <trkpt lat="47.77576" lon="-3.6038">
        <ele>6.7</ele>
        <time>2020-06-07T10:50:31Z</time>
      </trkpt>
      <trkpt lat="47.77572" lon="-3.60381">
        <ele>6.6</ele>
        <time>2020-06-07T10:50:32Z</time>
      </trkpt>
      <trkpt lat="47.77567" lon="-3.60384">
        <ele>6.5</ele>
        <time>2020-06-07T10:50:33Z</time>
      </trkpt>
      <trkpt lat="47.77562" lon="-3.60387">
        <ele>6.4</ele>
        <time>2020-06-07T10:50:34Z</time>
      </trkpt>
      <trkpt lat="47.77557" lon="-3.60391">
        <ele>6.3</ele>
        <time>2020-06-07T10:50:35Z</time>
      </trkpt>
      <trkpt lat="47.77553" lon="-3.60396">
        <ele>6.3</ele>
        <time>2020-06-07T10:50:36Z</time>
      </trkpt>
      <trkpt lat="47.77549" lon="-3.60401">
        <ele>6.2</ele>
        <time>2020-06-07T10:50:37Z</time>
      </trkpt>
      <trkpt lat="47.77546" lon="-3.60407">
        <ele>6.1</ele>
        <time>2020-06-07T10:50:38Z</time>
      </trkpt>
      <trkpt lat="47.77543" lon="-3.60413">
        <ele>6</ele>
        <time>2020-06-07T10:50:39Z</time>
      </trkpt>
      <trkpt lat="47.7754" lon="-3.60417">
        <ele>6</ele>
        <time>2020-06-07T10:50:40Z</time>
      </trkpt>
      <trkpt lat="47.77537" lon="-3.60421">
        <ele>5.9</ele>
        <time>2020-06-07T10:50:41Z</time>
      </trkpt>
      <trkpt lat="47.77535" lon="-3.60424">
        <ele>5.7</ele>
        <time>2020-06-07T10:50:42Z</time>
      </trkpt>
      <trkpt lat="47.77533" lon="-3.60428">
        <ele>5.6</ele>
        <time>2020-06-07T10:50:43Z</time>
      </trkpt>
      <trkpt lat="47.77531" lon="-3.60431">
        <ele>5.5</ele>
        <time>2020-06-07T10:50:44Z</time>
      </trkpt>
      <trkpt lat="47.77528" lon="-3.60434">
        <ele>5.3</ele>
        <time>2020-06-07T10:50:45Z</time>
      </trkpt>
      <trkpt lat="47.77525" lon="-3.60438">
        <ele>5.1</ele>
        <time>2020-06-07T10:50:46Z</time>
      </trkpt>
      <trkpt lat="47.77521" lon="-3.60441">
        <ele>4.9</ele>
        <time>2020-06-07T10:50:47Z</time>
      </trkpt>
      <trkpt lat="47.77517" lon="-3.60444">
        <ele>4.7</ele>
        <time>2020-06-07T10:50:48Z</time>
      </trkpt>
      <trkpt lat="47.77512" lon="-3.60446">
        <ele>4.5</ele>
        <time>2020-06-07T10:50:49Z</time>
      </trkpt>
      <trkpt lat="47.77506" lon="-3.6045">
        <ele>4.2</ele>
        <time>2020-06-07T10:50:50Z</time>
      </trkpt>
      <trkpt lat="47.77501" lon="-3.60454">
        <ele>3.9</ele>
        <time>2020-06-07T10:50:51Z</time>
      </trkpt>
      <trkpt lat="47.77494" lon="-3.60458">
        <ele>3.7</ele>
        <time>2020-06-07T10:50:52Z</time>
      </trkpt>
      <trkpt lat="47.77488" lon="-3.60461">
        <ele>3.5</ele>
        <time>2020-06-07T10:50:53Z</time>
      </trkpt>
      <trkpt lat="47.77481" lon="-3.60464">
        <ele>3.3</ele>
        <time>2020-06-07T10:50:54Z</time>
      </trkpt>
      <trkpt lat="47.77475" lon="-3.60467">
        <ele>3.2</ele>
        <time>2020-06-07T10:50:55Z</time>
      </trkpt>
      <trkpt lat="47.7747" lon="-3.60469">
        <ele>3.1</ele>
        <time>2020-06-07T10:50:56Z</time>
      </trkpt>
      <trkpt lat="47.77465" lon="-3.6047">
        <ele>3</ele>
        <time>2020-06-07T10:50:57Z</time>
      </trkpt>
      <trkpt lat="47.77459" lon="-3.60472">
        <ele>2.9</ele>
        <time>2020-06-07T10:50:58Z</time>
      </trkpt>
      <trkpt lat="47.77453" lon="-3.60475">
        <ele>2.8</ele>
        <time>2020-06-07T10:50:59Z</time>
      </trkpt>
      <trkpt lat="47.77448" lon="-3.60479">
        <ele>2.8</ele>
        <time>2020-06-07T10:51:00Z</time>
      </trkpt>
      <trkpt lat="47.77443" lon="-3.60485">
        <ele>2.7</ele>
        <time>2020-06-07T10:51:01Z</time>
      </trkpt>
      <trkpt lat="47.77439" lon="-3.60491">
        <ele>2.7</ele>
        <time>2020-06-07T10:51:02Z</time>
      </trkpt>
      <trkpt lat="47.77436" lon="-3.60497">
        <ele>2.8</ele>
        <time>2020-06-07T10:51:03Z</time>
      </trkpt>
      <trkpt lat="47.77434" lon="-3.605">
        <ele>2.8</ele>
        <time>2020-06-07T10:51:04Z</time>
      </trkpt>
      <trkpt lat="47.77432" lon="-3.60505">
        <ele>2.8</ele>
        <time>2020-06-07T10:51:05Z</time>
      </trkpt>
      <trkpt lat="47.7743" lon="-3.60511">
        <ele>2.9</ele>
        <time>2020-06-07T10:51:06Z</time>
      </trkpt>
      <trkpt lat="47.77427" lon="-3.60519">
        <ele>2.9</ele>
        <time>2020-06-07T10:51:07Z</time>
      </trkpt>
      <trkpt lat="47.77425" lon="-3.60527">
        <ele>2.9</ele>
        <time>2020-06-07T10:51:08Z</time>
      </trkpt>
      <trkpt lat="47.77423" lon="-3.60535">
        <ele>2.9</ele>
        <time>2020-06-07T10:51:09Z</time>
      </trkpt>
      <trkpt lat="47.77421" lon="-3.60542">
        <ele>3</ele>
        <time>2020-06-07T10:51:10Z</time>
      </trkpt>
      <trkpt lat="47.77419" lon="-3.60548">
        <ele>3</ele>
        <time>2020-06-07T10:51:11Z</time>
      </trkpt>
      <trkpt lat="47.77416" lon="-3.60554">
        <ele>3</ele>
        <time>2020-06-07T10:51:12Z</time>
      </trkpt>
      <trkpt lat="47.77414" lon="-3.6056">
        <ele>3</ele>
        <time>2020-06-07T10:51:13Z</time>
      </trkpt>
      <trkpt lat="47.77412" lon="-3.60565">
        <ele>3</ele>
        <time>2020-06-07T10:51:14Z</time>
      </trkpt>
      <trkpt lat="47.77409" lon="-3.60572">
        <ele>3</ele>
        <time>2020-06-07T10:51:15Z</time>
      </trkpt>
      <trkpt lat="47.77406" lon="-3.60579">
        <ele>3</ele>
        <time>2020-06-07T10:51:16Z</time>
      </trkpt>
      <trkpt lat="47.77403" lon="-3.60585">
        <ele>3</ele>
        <time>2020-06-07T10:51:17Z</time>
      </trkpt>
      <trkpt lat="47.774" lon="-3.60589">
        <ele>3</ele>
        <time>2020-06-07T10:51:18Z</time>
      </trkpt>
      <trkpt lat="47.77398" lon="-3.60594">
        <ele>3</ele>
        <time>2020-06-07T10:51:19Z</time>
      </trkpt>
      <trkpt lat="47.77396" lon="-3.60599">
        <ele>3.1</ele>
        <time>2020-06-07T10:51:20Z</time>
      </trkpt>
      <trkpt lat="47.77393" lon="-3.60605">
        <ele>3.1</ele>
        <time>2020-06-07T10:51:21Z</time>
      </trkpt>
      <trkpt lat="47.77392" lon="-3.60611">
        <ele>3.1</ele>
        <time>2020-06-07T10:51:22Z</time>
      </trkpt>
      <trkpt lat="47.7739" lon="-3.60617">
        <ele>3.2</ele>
        <time>2020-06-07T10:51:23Z</time>
      </trkpt>
      <trkpt lat="47.77389" lon="-3.60624">
        <ele>3.2</ele>
        <time>2020-06-07T10:51:24Z</time>
      </trkpt>
      <trkpt lat="47.77388" lon="-3.6063">
        <ele>3.2</ele>
        <time>2020-06-07T10:51:25Z</time>
      </trkpt>
      <trkpt lat="47.77386" lon="-3.60635">
        <ele>3.2</ele>
        <time>2020-06-07T10:51:26Z</time>
      </trkpt>
      <trkpt lat="47.77385" lon="-3.60641">
        <ele>3.2</ele>
        <time>2020-06-07T10:51:27Z</time>
      </trkpt>
      <trkpt lat="47.77384" lon="-3.60646">
        <ele>3.3</ele>
        <time>2020-06-07T10:51:28Z</time>
      </trkpt>
      <trkpt lat="47.77383" lon="-3.60652">
        <ele>3.3</ele>
        <time>2020-06-07T10:51:29Z</time>
      </trkpt>
      <trkpt lat="47.77382" lon="-3.60658">
        <ele>3.3</ele>
        <time>2020-06-07T10:51:30Z</time>
      </trkpt>
      <trkpt lat="47.7738" lon="-3.60664">
        <ele>3.3</ele>
        <time>2020-06-07T10:51:31Z</time>
      </trkpt>
      <trkpt lat="47.77379" lon="-3.6067">
        <ele>3.3</ele>
        <time>2020-06-07T10:51:32Z</time>
      </trkpt>
      <trkpt lat="47.77377" lon="-3.60675">
        <ele>3.3</ele>
        <time>2020-06-07T10:51:33Z</time>
      </trkpt>
      <trkpt lat="47.77376" lon="-3.60681">
        <ele>3.3</ele>
        <time>2020-06-07T10:51:34Z</time>
      </trkpt>
      <trkpt lat="47.77374" lon="-3.60686">
        <ele>3.3</ele>
        <time>2020-06-07T10:51:35Z</time>
      </trkpt>
      <trkpt lat="47.77373" lon="-3.60691">
        <ele>3.3</ele>
        <time>2020-06-07T10:51:36Z</time>
      </trkpt>
      <trkpt lat="47.77371" lon="-3.60696">
        <ele>3.3</ele>
        <time>2020-06-07T10:51:37Z</time>
      </trkpt>
      <trkpt lat="47.77369" lon="-3.607">
        <ele>3.3</ele>
        <time>2020-06-07T10:51:38Z</time>
      </trkpt>
      <trkpt lat="47.77368" lon="-3.60705">
        <ele>3.3</ele>
        <time>2020-06-07T10:51:39Z</time>
      </trkpt>
      <trkpt lat="47.77367" lon="-3.60708">
        <ele>3.3</ele>
        <time>2020-06-07T10:51:40Z</time>
      </trkpt>
      <trkpt lat="47.77365" lon="-3.60712">
        <ele>3.3</ele>
        <time>2020-06-07T10:51:41Z</time>
      </trkpt>
      <trkpt lat="47.77365" lon="-3.60716">
        <ele>3.3</ele>
        <time>2020-06-07T10:51:42Z</time>
      </trkpt>
      <trkpt lat="47.77364" lon="-3.60721">
        <ele>3.3</ele>
        <time>2020-06-07T10:51:43Z</time>
      </trkpt>
      <trkpt lat="47.77364" lon="-3.60723">
        <ele>3.3</ele>
        <time>2020-06-07T10:51:44Z</time>
      </trkpt>
      <trkpt lat="47.77364" lon="-3.60729">
        <ele>3.3</ele>
        <time>2020-06-07T10:51:45Z</time>
      </trkpt>
      <trkpt lat="47.77364" lon="-3.60731">
        <ele>3.3</ele>
        <time>2020-06-07T10:51:46Z</time>
      </trkpt>
      <trkpt lat="47.77363" lon="-3.60736">
        <ele>3.4</ele>
        <time>2020-06-07T10:51:47Z</time>
      </trkpt>
      <trkpt lat="47.77363" lon="-3.60738">
        <ele>3.4</ele>
        <time>2020-06-07T10:51:48Z</time>
      </trkpt>
      <trkpt lat="47.77361" lon="-3.60743">
        <ele>3.4</ele>
        <time>2020-06-07T10:51:49Z</time>
      </trkpt>
      <trkpt lat="47.77361" lon="-3.60744">
        <ele>3.4</ele>
        <time>2020-06-07T10:51:50Z</time>
      </trkpt>
      <trkpt lat="47.77359" lon="-3.60749">
        <ele>3.4</ele>
        <time>2020-06-07T10:51:51Z</time>
      </trkpt>
      <trkpt lat="47.77359" lon="-3.60751">
        <ele>3.4</ele>
        <time>2020-06-07T10:51:52Z</time>
      </trkpt>
      <trkpt lat="47.77357" lon="-3.60755">
        <ele>3.4</ele>
        <time>2020-06-07T10:51:53Z</time>
      </trkpt>
      <trkpt lat="47.77356" lon="-3.60757">
        <ele>3.4</ele>
        <time>2020-06-07T10:51:54Z</time>
      </trkpt>
      <trkpt lat="47.77353" lon="-3.6076">
        <ele>3.3</ele>
        <time>2020-06-07T10:51:55Z</time>
      </trkpt>
      <trkpt lat="47.77352" lon="-3.60761">
        <ele>3.3</ele>
        <time>2020-06-07T10:51:56Z</time>
      </trkpt>
      <trkpt lat="47.77349" lon="-3.60762">
        <ele>3.3</ele>
        <time>2020-06-07T10:51:57Z</time>
      </trkpt>
      <trkpt lat="47.77345" lon="-3.60764">
        <ele>3.3</ele>
        <time>2020-06-07T10:51:58Z</time>
      </trkpt>
      <trkpt lat="47.77344" lon="-3.60765">
        <ele>3.3</ele>
        <time>2020-06-07T10:51:59Z</time>
      </trkpt>
      <trkpt lat="47.77341" lon="-3.60767">
        <ele>3.3</ele>
        <time>2020-06-07T10:52:00Z</time>
      </trkpt>
      <trkpt lat="47.77338" lon="-3.60769">
        <ele>3.3</ele>
        <time>2020-06-07T10:52:01Z</time>
      </trkpt>
      <trkpt lat="47.77335" lon="-3.60771">
        <ele>3.3</ele>
        <time>2020-06-07T10:52:02Z</time>
      </trkpt>
      <trkpt lat="47.77333" lon="-3.60772">
        <ele>3.3</ele>
        <time>2020-06-07T10:52:03Z</time>
      </trkpt>
      <trkpt lat="47.7733" lon="-3.60774">
        <ele>3.3</ele>
        <time>2020-06-07T10:52:04Z</time>
      </trkpt>
      <trkpt lat="47.77327" lon="-3.60776">
        <ele>3.4</ele>
        <time>2020-06-07T10:52:05Z</time>
      </trkpt>
      <trkpt lat="47.77323" lon="-3.60778">
        <ele>3.4</ele>
        <time>2020-06-07T10:52:06Z</time>
      </trkpt>
      <trkpt lat="47.77322" lon="-3.60779">
        <ele>3.4</ele>
        <time>2020-06-07T10:52:07Z</time>
      </trkpt>
      <trkpt lat="47.77319" lon="-3.60781">
        <ele>3.5</ele>
        <time>2020-06-07T10:52:08Z</time>
      </trkpt>
      <trkpt lat="47.77315" lon="-3.60784">
        <ele>3.6</ele>
        <time>2020-06-07T10:52:09Z</time>
      </trkpt>
      <trkpt lat="47.77314" lon="-3.60786">
        <ele>3.7</ele>
        <time>2020-06-07T10:52:10Z</time>
      </trkpt>
      <trkpt lat="47.77311" lon="-3.60788">
        <ele>3.8</ele>
        <time>2020-06-07T10:52:11Z</time>
      </trkpt>
      <trkpt lat="47.77309" lon="-3.6079">
        <ele>3.9</ele>
        <time>2020-06-07T10:52:12Z</time>
      </trkpt>
      <trkpt lat="47.77305" lon="-3.60791">
        <ele>4.1</ele>
        <time>2020-06-07T10:52:13Z</time>
      </trkpt>
      <trkpt lat="47.77302" lon="-3.60792">
        <ele>4.3</ele>
        <time>2020-06-07T10:52:14Z</time>
      </trkpt>
      <trkpt lat="47.77299" lon="-3.60794">
        <ele>4.4</ele>
        <time>2020-06-07T10:52:15Z</time>
      </trkpt>
      <trkpt lat="47.77295" lon="-3.60795">
        <ele>4.7</ele>
        <time>2020-06-07T10:52:16Z</time>
      </trkpt>
      <trkpt lat="47.77291" lon="-3.60797">
        <ele>4.9</ele>
        <time>2020-06-07T10:52:17Z</time>
      </trkpt>
      <trkpt lat="47.77288" lon="-3.60798">
        <ele>5.1</ele>
        <time>2020-06-07T10:52:18Z</time>
      </trkpt>
      <trkpt lat="47.77284" lon="-3.608">
        <ele>5.4</ele>
        <time>2020-06-07T10:52:19Z</time>
      </trkpt>
      <trkpt lat="47.7728" lon="-3.60802">
        <ele>6</ele>
        <time>2020-06-07T10:52:20Z</time>
      </trkpt>
      <trkpt lat="47.77277" lon="-3.60803">
        <ele>6.2</ele>
        <time>2020-06-07T10:52:21Z</time>
      </trkpt>
      <trkpt lat="47.77274" lon="-3.60805">
        <ele>6.6</ele>
        <time>2020-06-07T10:52:22Z</time>
      </trkpt>
      <trkpt lat="47.77271" lon="-3.60806">
        <ele>6.8</ele>
        <time>2020-06-07T10:52:23Z</time>
      </trkpt>
      <trkpt lat="47.77268" lon="-3.60807">
        <ele>7</ele>
        <time>2020-06-07T10:52:24Z</time>
      </trkpt>
      <trkpt lat="47.77265" lon="-3.60808">
        <ele>7.3</ele>
        <time>2020-06-07T10:52:25Z</time>
      </trkpt>
      <trkpt lat="47.77262" lon="-3.6081">
        <ele>7.5</ele>
        <time>2020-06-07T10:52:26Z</time>
      </trkpt>
      <trkpt lat="47.77259" lon="-3.60812">
        <ele>7.8</ele>
        <time>2020-06-07T10:52:27Z</time>
      </trkpt>
      <trkpt lat="47.77255" lon="-3.60813">
        <ele>8.1</ele>
        <time>2020-06-07T10:52:28Z</time>
      </trkpt>
      <trkpt lat="47.77252" lon="-3.60814">
        <ele>8.4</ele>
        <time>2020-06-07T10:52:29Z</time>
      </trkpt>
      <trkpt lat="47.77248" lon="-3.60815">
        <ele>8.6</ele>
        <time>2020-06-07T10:52:30Z</time>
      </trkpt>
      <trkpt lat="47.77245" lon="-3.60816">
        <ele>8.8</ele>
        <time>2020-06-07T10:52:31Z</time>
      </trkpt>
      <trkpt lat="47.77241" lon="-3.60818">
        <ele>9</ele>
        <time>2020-06-07T10:52:32Z</time>
      </trkpt>
      <trkpt lat="47.77238" lon="-3.60818">
        <ele>9.2</ele>
        <time>2020-06-07T10:52:33Z</time>
      </trkpt>
      <trkpt lat="47.77234" lon="-3.60819">
        <ele>9.4</ele>
        <time>2020-06-07T10:52:34Z</time>
      </trkpt>
      <trkpt lat="47.7723" lon="-3.60821">
        <ele>9.6</ele>
        <time>2020-06-07T10:52:35Z</time>
      </trkpt>
      <trkpt lat="47.77227" lon="-3.60822">
        <ele>9.8</ele>
        <time>2020-06-07T10:52:36Z</time>
      </trkpt>
      <trkpt lat="47.77224" lon="-3.60824">
        <ele>9.9</ele>
        <time>2020-06-07T10:52:37Z</time>
      </trkpt>
      <trkpt lat="47.77221" lon="-3.60825">
        <ele>10</ele>
        <time>2020-06-07T10:52:38Z</time>
      </trkpt>
      <trkpt lat="47.77218" lon="-3.60826">
        <ele>10.2</ele>
        <time>2020-06-07T10:52:39Z</time>
      </trkpt>
      <trkpt lat="47.77214" lon="-3.60828">
        <ele>10.4</ele>
        <time>2020-06-07T10:52:40Z</time>
      </trkpt>
      <trkpt lat="47.77211" lon="-3.60829">
        <ele>10.6</ele>
        <time>2020-06-07T10:52:41Z</time>
      </trkpt>
      <trkpt lat="47.77208" lon="-3.60829">
        <ele>10.7</ele>
        <time>2020-06-07T10:52:42Z</time>
      </trkpt>
      <trkpt lat="47.77205" lon="-3.60829">
        <ele>10.9</ele>
        <time>2020-06-07T10:52:43Z</time>
      </trkpt>
      <trkpt lat="47.77204" lon="-3.6083">
        <ele>11</ele>
        <time>2020-06-07T10:52:44Z</time>
      </trkpt>
      <trkpt lat="47.772" lon="-3.60829">
        <ele>11.2</ele>
        <time>2020-06-07T10:52:45Z</time>
      </trkpt>
      <trkpt lat="47.77199" lon="-3.60829">
        <ele>11.7</ele>
        <time>2020-06-07T10:52:46Z</time>
      </trkpt>
      <trkpt lat="47.77197" lon="-3.60829">
        <ele>11.7</ele>
        <time>2020-06-07T10:52:47Z</time>
      </trkpt>
      <trkpt lat="47.77196" lon="-3.60827">
        <ele>11.7</ele>
        <time>2020-06-07T10:52:48Z</time>
      </trkpt>
      <trkpt lat="47.77195" lon="-3.60827">
        <ele>11.7</ele>
        <time>2020-06-07T10:52:49Z</time>
      </trkpt>
      <trkpt lat="47.77195" lon="-3.60827">
        <ele>11.6</ele>
        <time>2020-06-07T10:52:50Z</time>
      </trkpt>
      <trkpt lat="47.77195" lon="-3.60826">
        <ele>11.6</ele>
        <time>2020-06-07T10:52:51Z</time>
      </trkpt>
      <trkpt lat="47.77194" lon="-3.60826">
        <ele>11.6</ele>
        <time>2020-06-07T10:52:52Z</time>
      </trkpt>
      <trkpt lat="47.77193" lon="-3.60825">
        <ele>11.6</ele>
        <time>2020-06-07T10:52:53Z</time>
      </trkpt>
      <trkpt lat="47.77192" lon="-3.60825">
        <ele>11.6</ele>
        <time>2020-06-07T10:52:54Z</time>
      </trkpt>
      <trkpt lat="47.77192" lon="-3.60824">
        <ele>11.6</ele>
        <time>2020-06-07T10:52:55Z</time>
      </trkpt>
      <trkpt lat="47.77192" lon="-3.60825">
        <ele>11.6</ele>
        <time>2020-06-07T10:52:56Z</time>
      </trkpt>
      <trkpt lat="47.77192" lon="-3.60826">
        <ele>11.6</ele>
        <time>2020-06-07T10:52:57Z</time>
      </trkpt>
      <trkpt lat="47.77191" lon="-3.60828">
        <ele>11.6</ele>
        <time>2020-06-07T10:52:58Z</time>
      </trkpt>
      <trkpt lat="47.7719" lon="-3.6083">
        <ele>11.6</ele>
        <time>2020-06-07T10:52:59Z</time>
      </trkpt>
      <trkpt lat="47.77189" lon="-3.60831">
        <ele>11.6</ele>
        <time>2020-06-07T10:53:00Z</time>
      </trkpt>
      <trkpt lat="47.77186" lon="-3.60834">
        <ele>11.6</ele>
        <time>2020-06-07T10:53:01Z</time>
      </trkpt>
      <trkpt lat="47.77185" lon="-3.60835">
        <ele>11.6</ele>
        <time>2020-06-07T10:53:02Z</time>
      </trkpt>
      <trkpt lat="47.77184" lon="-3.60836">
        <ele>11.6</ele>
        <time>2020-06-07T10:53:03Z</time>
      </trkpt>
      <trkpt lat="47.77186" lon="-3.60831">
        <ele>11.6</ele>
        <time>2020-06-07T10:53:43Z</time>
      </trkpt>
      <trkpt lat="47.77186" lon="-3.60831">
        <ele>11.6</ele>
        <time>2020-06-07T10:53:44Z</time>
      </trkpt>
      <trkpt lat="47.77186" lon="-3.60831">
        <ele>11.6</ele>
        <time>2020-06-07T10:53:45Z</time>
      </trkpt>
      <trkpt lat="47.77186" lon="-3.60831">
        <ele>11.6</ele>
        <time>2020-06-07T10:53:46Z</time>
      </trkpt>
      <trkpt lat="47.77185" lon="-3.60831">
        <ele>11.6</ele>
        <time>2020-06-07T10:53:47Z</time>
      </trkpt>
      <trkpt lat="47.77185" lon="-3.60831">
        <ele>11.6</ele>
        <time>2020-06-07T10:53:48Z</time>
      </trkpt>
      <trkpt lat="47.77185" lon="-3.60831">
        <ele>11.6</ele>
        <time>2020-06-07T10:53:49Z</time>
      </trkpt>
      <trkpt lat="47.77185" lon="-3.6083">
        <ele>11.6</ele>
        <time>2020-06-07T10:53:50Z</time>
      </trkpt>
      <trkpt lat="47.77184" lon="-3.60831">
        <ele>11.6</ele>
        <time>2020-06-07T10:53:51Z</time>
      </trkpt>
      <trkpt lat="47.77184" lon="-3.60831">
        <ele>11.6</ele>
        <time>2020-06-07T10:53:52Z</time>
      </trkpt>
      <trkpt lat="47.77184" lon="-3.60829">
        <ele>11.6</ele>
        <time>2020-06-07T10:53:53Z</time>
      </trkpt>
      <trkpt lat="47.77186" lon="-3.60831">
        <ele>11.6</ele>
        <time>2020-06-07T10:53:54Z</time>
      </trkpt>
      <trkpt lat="47.77186" lon="-3.60832">
        <ele>11.6</ele>
        <time>2020-06-07T10:53:55Z</time>
      </trkpt>
      <trkpt lat="47.77186" lon="-3.60832">
        <ele>11.6</ele>
        <time>2020-06-07T10:53:56Z</time>
      </trkpt>
      <trkpt lat="47.77186" lon="-3.60832">
        <ele>11.6</ele>
        <time>2020-06-07T10:53:57Z</time>
      </trkpt>
      <trkpt lat="47.77186" lon="-3.60832">
        <ele>11.6</ele>
        <time>2020-06-07T10:53:58Z</time>
      </trkpt>
      <trkpt lat="47.77186" lon="-3.60832">
        <ele>11.6</ele>
        <time>2020-06-07T10:53:59Z</time>
      </trkpt>
      <trkpt lat="47.77186" lon="-3.60832">
        <ele>11.6</ele>
        <time>2020-06-07T10:54:00Z</time>
      </trkpt>
      <trkpt lat="47.77186" lon="-3.60832">
        <ele>11.6</ele>
        <time>2020-06-07T10:54:01Z</time>
      </trkpt>
      <trkpt lat="47.77186" lon="-3.60832">
        <ele>11.6</ele>
        <time>2020-06-07T10:54:02Z</time>
      </trkpt>
      <trkpt lat="47.77186" lon="-3.60832">
        <ele>11.6</ele>
        <time>2020-06-07T10:54:03Z</time>
      </trkpt>
      <trkpt lat="47.77193" lon="-3.60823">
        <ele>11.6</ele>
        <time>2020-06-07T10:55:00Z</time>
      </trkpt>
      <trkpt lat="47.77193" lon="-3.60822">
        <ele>11.6</ele>
        <time>2020-06-07T10:55:01Z</time>
      </trkpt>
      <trkpt lat="47.77194" lon="-3.60822">
        <ele>11.6</ele>
        <time>2020-06-07T10:55:02Z</time>
      </trkpt>
      <trkpt lat="47.77194" lon="-3.60821">
        <ele>11.6</ele>
        <time>2020-06-07T10:55:03Z</time>
      </trkpt>
      <trkpt lat="47.77195" lon="-3.60822">
        <ele>11.6</ele>
        <time>2020-06-07T10:55:04Z</time>
      </trkpt>
      <trkpt lat="47.77195" lon="-3.60824">
        <ele>11.6</ele>
        <time>2020-06-07T10:55:05Z</time>
      </trkpt>
      <trkpt lat="47.77196" lon="-3.60825">
        <ele>11.6</ele>
        <time>2020-06-07T10:55:06Z</time>
      </trkpt>
      <trkpt lat="47.77198" lon="-3.6083">
        <ele>11.6</ele>
        <time>2020-06-07T10:55:07Z</time>
      </trkpt>
      <trkpt lat="47.77199" lon="-3.60831">
        <ele>11.6</ele>
        <time>2020-06-07T10:55:08Z</time>
      </trkpt>
      <trkpt lat="47.77202" lon="-3.60832">
        <ele>11.5</ele>
        <time>2020-06-07T10:55:09Z</time>
      </trkpt>
      <trkpt lat="47.77205" lon="-3.60833">
        <ele>11.3</ele>
        <time>2020-06-07T10:55:10Z</time>
      </trkpt>
      <trkpt lat="47.77209" lon="-3.60834">
        <ele>10.9</ele>
        <time>2020-06-07T10:55:11Z</time>
      </trkpt>
      <trkpt lat="47.77214" lon="-3.60833">
        <ele>10.6</ele>
        <time>2020-06-07T10:55:12Z</time>
      </trkpt>
      <trkpt lat="47.77219" lon="-3.60832">
        <ele>10.3</ele>
        <time>2020-06-07T10:55:13Z</time>
      </trkpt>
      <trkpt lat="47.77224" lon="-3.6083">
        <ele>10</ele>
        <time>2020-06-07T10:55:14Z</time>
      </trkpt>
      <trkpt lat="47.7723" lon="-3.60827">
        <ele>9.8</ele>
        <time>2020-06-07T10:55:15Z</time>
      </trkpt>
      <trkpt lat="47.77235" lon="-3.60826">
        <ele>9.5</ele>
        <time>2020-06-07T10:55:16Z</time>
      </trkpt>
      <trkpt lat="47.7724" lon="-3.60824">
        <ele>9.2</ele>
        <time>2020-06-07T10:55:17Z</time>
      </trkpt>
      <trkpt lat="47.77246" lon="-3.60823">
        <ele>8.9</ele>
        <time>2020-06-07T10:55:18Z</time>
      </trkpt>
      <trkpt lat="47.77251" lon="-3.60821">
        <ele>8.6</ele>
        <time>2020-06-07T10:55:19Z</time>
      </trkpt>
      <trkpt lat="47.77257" lon="-3.6082">
        <ele>8.2</ele>
        <time>2020-06-07T10:55:20Z</time>
      </trkpt>
      <trkpt lat="47.77261" lon="-3.60818">
        <ele>7.8</ele>
        <time>2020-06-07T10:55:21Z</time>
      </trkpt>
      <trkpt lat="47.77266" lon="-3.60815">
        <ele>7.4</ele>
        <time>2020-06-07T10:55:22Z</time>
      </trkpt>
      <trkpt lat="47.77271" lon="-3.60813">
        <ele>7</ele>
        <time>2020-06-07T10:55:23Z</time>
      </trkpt>
      <trkpt lat="47.77275" lon="-3.60811">
        <ele>6.7</ele>
        <time>2020-06-07T10:55:24Z</time>
      </trkpt>
      <trkpt lat="47.7728" lon="-3.6081">
        <ele>6.2</ele>
        <time>2020-06-07T10:55:25Z</time>
      </trkpt>
      <trkpt lat="47.77285" lon="-3.60809">
        <ele>5.8</ele>
        <time>2020-06-07T10:55:26Z</time>
      </trkpt>
      <trkpt lat="47.7729" lon="-3.60808">
        <ele>5.4</ele>
        <time>2020-06-07T10:55:27Z</time>
      </trkpt>
      <trkpt lat="47.77295" lon="-3.60807">
        <ele>5</ele>
        <time>2020-06-07T10:55:28Z</time>
      </trkpt>
      <trkpt lat="47.773" lon="-3.60805">
        <ele>4.6</ele>
        <time>2020-06-07T10:55:29Z</time>
      </trkpt>
      <trkpt lat="47.77304" lon="-3.60803">
        <ele>4.3</ele>
        <time>2020-06-07T10:55:30Z</time>
      </trkpt>
      <trkpt lat="47.77308" lon="-3.608">
        <ele>4.1</ele>
        <time>2020-06-07T10:55:31Z</time>
      </trkpt>
      <trkpt lat="47.77312" lon="-3.60797">
        <ele>3.9</ele>
        <time>2020-06-07T10:55:32Z</time>
      </trkpt>
      <trkpt lat="47.77314" lon="-3.60795">
        <ele>3.8</ele>
        <time>2020-06-07T10:55:33Z</time>
      </trkpt>
      <trkpt lat="47.77317" lon="-3.60792">
        <ele>3.6</ele>
        <time>2020-06-07T10:55:34Z</time>
      </trkpt>
      <trkpt lat="47.77318" lon="-3.60792">
        <ele>3.6</ele>
        <time>2020-06-07T10:55:35Z</time>
      </trkpt>
      <trkpt lat="47.77319" lon="-3.6079">
        <ele>3.5</ele>
        <time>2020-06-07T10:55:36Z</time>
      </trkpt>
      <trkpt lat="47.7732" lon="-3.60789">
        <ele>3.5</ele>
        <time>2020-06-07T10:55:37Z</time>
      </trkpt>
      <trkpt lat="47.77322" lon="-3.60788">
        <ele>3.5</ele>
        <time>2020-06-07T10:55:38Z</time>
      </trkpt>
      <trkpt lat="47.77324" lon="-3.60786">
        <ele>3.4</ele>
        <time>2020-06-07T10:55:39Z</time>
      </trkpt>
      <trkpt lat="47.77326" lon="-3.60784">
        <ele>3.4</ele>
        <time>2020-06-07T10:55:40Z</time>
      </trkpt>
      <trkpt lat="47.77329" lon="-3.60781">
        <ele>3.4</ele>
        <time>2020-06-07T10:55:41Z</time>
      </trkpt>
      <trkpt lat="47.7733" lon="-3.60779">
        <ele>3.4</ele>
        <time>2020-06-07T10:55:42Z</time>
      </trkpt>
      <trkpt lat="47.77333" lon="-3.60777">
        <ele>3.3</ele>
        <time>2020-06-07T10:55:43Z</time>
      </trkpt>
      <trkpt lat="47.77334" lon="-3.60776">
        <ele>3.3</ele>
        <time>2020-06-07T10:55:44Z</time>
      </trkpt>
      <trkpt lat="47.77337" lon="-3.60774">
        <ele>3.3</ele>
        <time>2020-06-07T10:55:45Z</time>
      </trkpt>
      <trkpt lat="47.77339" lon="-3.60771">
        <ele>3.3</ele>
        <time>2020-06-07T10:55:46Z</time>
      </trkpt>
      <trkpt lat="47.77342" lon="-3.60769">
        <ele>3.3</ele>
        <time>2020-06-07T10:55:47Z</time>
      </trkpt>
      <trkpt lat="47.77343" lon="-3.60768">
        <ele>3.3</ele>
        <time>2020-06-07T10:55:48Z</time>
      </trkpt>
      <trkpt lat="47.77346" lon="-3.60765">
        <ele>3.3</ele>
        <time>2020-06-07T10:55:49Z</time>
      </trkpt>
      <trkpt lat="47.77348" lon="-3.60763">
        <ele>3.3</ele>
        <time>2020-06-07T10:55:50Z</time>
      </trkpt>
      <trkpt lat="47.77352" lon="-3.6076">
        <ele>3.3</ele>
        <time>2020-06-07T10:55:51Z</time>
      </trkpt>
      <trkpt lat="47.77353" lon="-3.60759">
        <ele>3.3</ele>
        <time>2020-06-07T10:55:52Z</time>
      </trkpt>
      <trkpt lat="47.77356" lon="-3.60757">
        <ele>3.3</ele>
        <time>2020-06-07T10:55:53Z</time>
      </trkpt>
      <trkpt lat="47.77358" lon="-3.60756">
        <ele>3.3</ele>
        <time>2020-06-07T10:55:54Z</time>
      </trkpt>
      <trkpt lat="47.77362" lon="-3.60754">
        <ele>3.3</ele>
        <time>2020-06-07T10:55:55Z</time>
      </trkpt>
      <trkpt lat="47.77363" lon="-3.60753">
        <ele>3.3</ele>
        <time>2020-06-07T10:55:56Z</time>
      </trkpt>
      <trkpt lat="47.77366" lon="-3.6075">
        <ele>3.3</ele>
        <time>2020-06-07T10:55:57Z</time>
      </trkpt>
      <trkpt lat="47.77366" lon="-3.60748">
        <ele>3.3</ele>
        <time>2020-06-07T10:55:58Z</time>
      </trkpt>
      <trkpt lat="47.77367" lon="-3.60745">
        <ele>3.3</ele>
        <time>2020-06-07T10:55:59Z</time>
      </trkpt>
      <trkpt lat="47.77369" lon="-3.60741">
        <ele>3.4</ele>
        <time>2020-06-07T10:56:00Z</time>
      </trkpt>
      <trkpt lat="47.7737" lon="-3.60736">
        <ele>3.4</ele>
        <time>2020-06-07T10:56:01Z</time>
      </trkpt>
      <trkpt lat="47.77372" lon="-3.60732">
        <ele>3.4</ele>
        <time>2020-06-07T10:56:02Z</time>
      </trkpt>
      <trkpt lat="47.77374" lon="-3.60727">
        <ele>3.4</ele>
        <time>2020-06-07T10:56:03Z</time>
      </trkpt>
      <trkpt lat="47.77374" lon="-3.60723">
        <ele>3.4</ele>
        <time>2020-06-07T10:56:04Z</time>
      </trkpt>
      <trkpt lat="47.77374" lon="-3.6072">
        <ele>3.4</ele>
        <time>2020-06-07T10:56:05Z</time>
      </trkpt>
      <trkpt lat="47.77373" lon="-3.60718">
        <ele>3.4</ele>
        <time>2020-06-07T10:56:06Z</time>
      </trkpt>
      <trkpt lat="47.77372" lon="-3.60716">
        <ele>3.4</ele>
        <time>2020-06-07T10:56:07Z</time>
      </trkpt>
      <trkpt lat="47.77372" lon="-3.60716">
        <ele>3.4</ele>
        <time>2020-06-07T10:56:08Z</time>
      </trkpt>
      <trkpt lat="47.77371" lon="-3.60715">
        <ele>3.4</ele>
        <time>2020-06-07T10:56:09Z</time>
      </trkpt>
      <trkpt lat="47.7737" lon="-3.60715">
        <ele>3.4</ele>
        <time>2020-06-07T10:56:10Z</time>
      </trkpt>
      <trkpt lat="47.77371" lon="-3.60714">
        <ele>3.4</ele>
        <time>2020-06-07T10:56:11Z</time>
      </trkpt>
      <trkpt lat="47.77369" lon="-3.60713">
        <ele>3.4</ele>
        <time>2020-06-07T10:56:12Z</time>
      </trkpt>
      <trkpt lat="47.77369" lon="-3.60712">
        <ele>3.4</ele>
        <time>2020-06-07T10:56:13Z</time>
      </trkpt>
      <trkpt lat="47.77368" lon="-3.60713">
        <ele>3.4</ele>
        <time>2020-06-07T10:56:14Z</time>
      </trkpt>
      <trkpt lat="47.77368" lon="-3.60715">
        <ele>3.4</ele>
        <time>2020-06-07T10:56:15Z</time>
      </trkpt>
      <trkpt lat="47.77368" lon="-3.60716">
        <ele>3.4</ele>
        <time>2020-06-07T10:56:16Z</time>
      </trkpt>
      <trkpt lat="47.77368" lon="-3.60718">
        <ele>3.4</ele>
        <time>2020-06-07T10:56:17Z</time>
      </trkpt>
      <trkpt lat="47.77368" lon="-3.6072">
        <ele>3.4</ele>
        <time>2020-06-07T10:56:18Z</time>
      </trkpt>
      <trkpt lat="47.77369" lon="-3.60721">
        <ele>3.4</ele>
        <time>2020-06-07T10:56:19Z</time>
      </trkpt>
      <trkpt lat="47.77369" lon="-3.60723">
        <ele>3.4</ele>
        <time>2020-06-07T10:56:20Z</time>
      </trkpt>
      <trkpt lat="47.77369" lon="-3.60724">
        <ele>3.4</ele>
        <time>2020-06-07T10:58:02Z</time>
      </trkpt>
      <trkpt lat="47.77369" lon="-3.60726">
        <ele>3.4</ele>
        <time>2020-06-07T10:58:03Z</time>
      </trkpt>
      <trkpt lat="47.77369" lon="-3.60729">
        <ele>3.3</ele>
        <time>2020-06-07T10:58:04Z</time>
      </trkpt>
      <trkpt lat="47.77369" lon="-3.6073">
        <ele>3.3</ele>
        <time>2020-06-07T10:58:05Z</time>
      </trkpt>
      <trkpt lat="47.77368" lon="-3.60732">
        <ele>3.3</ele>
        <time>2020-06-07T10:58:06Z</time>
      </trkpt>
      <trkpt lat="47.77368" lon="-3.60733">
        <ele>3.3</ele>
        <time>2020-06-07T10:58:07Z</time>
      </trkpt>
      <trkpt lat="47.77368" lon="-3.60734">
        <ele>3.3</ele>
        <time>2020-06-07T10:58:08Z</time>
      </trkpt>
      <trkpt lat="47.77368" lon="-3.60734">
        <ele>3.3</ele>
        <time>2020-06-07T10:58:09Z</time>
      </trkpt>
      <trkpt lat="47.77368" lon="-3.60734">
        <ele>3.3</ele>
        <time>2020-06-07T10:58:10Z</time>
      </trkpt>
      <trkpt lat="47.77368" lon="-3.60733">
        <ele>3.3</ele>
        <time>2020-06-07T10:58:11Z</time>
      </trkpt>
      <trkpt lat="47.77369" lon="-3.60732">
        <ele>3.3</ele>
        <time>2020-06-07T10:58:12Z</time>
      </trkpt>
      <trkpt lat="47.7737" lon="-3.6073">
        <ele>3.3</ele>
        <time>2020-06-07T10:58:13Z</time>
      </trkpt>
      <trkpt lat="47.77371" lon="-3.60728">
        <ele>3.3</ele>
        <time>2020-06-07T10:58:14Z</time>
      </trkpt>
      <trkpt lat="47.77371" lon="-3.60726">
        <ele>3.3</ele>
        <time>2020-06-07T10:58:15Z</time>
      </trkpt>
      <trkpt lat="47.77371" lon="-3.60724">
        <ele>3.3</ele>
        <time>2020-06-07T10:58:16Z</time>
      </trkpt>
      <trkpt lat="47.77372" lon="-3.60723">
        <ele>3.3</ele>
        <time>2020-06-07T10:58:17Z</time>
      </trkpt>
      <trkpt lat="47.77372" lon="-3.60722">
        <ele>3.3</ele>
        <time>2020-06-07T10:58:18Z</time>
      </trkpt>
      <trkpt lat="47.77371" lon="-3.60721">
        <ele>3.3</ele>
        <time>2020-06-07T10:58:19Z</time>
      </trkpt>
      <trkpt lat="47.7737" lon="-3.6072">
        <ele>3.3</ele>
        <time>2020-06-07T10:58:20Z</time>
      </trkpt>
      <trkpt lat="47.7737" lon="-3.6072">
        <ele>3.3</ele>
        <time>2020-06-07T10:58:21Z</time>
      </trkpt>
      <trkpt lat="47.7737" lon="-3.60719">
        <ele>3.3</ele>
        <time>2020-06-07T10:58:22Z</time>
      </trkpt>
      <trkpt lat="47.77369" lon="-3.60719">
        <ele>3.3</ele>
        <time>2020-06-07T10:58:23Z</time>
      </trkpt>
      <trkpt lat="47.77368" lon="-3.60719">
        <ele>3.3</ele>
        <time>2020-06-07T10:58:24Z</time>
      </trkpt>
      <trkpt lat="47.77368" lon="-3.60719">
        <ele>3.3</ele>
        <time>2020-06-07T10:58:25Z</time>
      </trkpt>
      <trkpt lat="47.77368" lon="-3.60718">
        <ele>3.3</ele>
        <time>2020-06-07T10:58:26Z</time>
      </trkpt>
      <trkpt lat="47.77368" lon="-3.60717">
        <ele>3.3</ele>
        <time>2020-06-07T10:58:27Z</time>
      </trkpt>
      <trkpt lat="47.77367" lon="-3.60717">
        <ele>3.3</ele>
        <time>2020-06-07T10:58:28Z</time>
      </trkpt>
      <trkpt lat="47.77368" lon="-3.60718">
        <ele>3.3</ele>
        <time>2020-06-07T10:58:29Z</time>
      </trkpt>
      <trkpt lat="47.77368" lon="-3.60718">
        <ele>3.3</ele>
        <time>2020-06-07T10:58:30Z</time>
      </trkpt>
      <trkpt lat="47.77367" lon="-3.60717">
        <ele>3.3</ele>
        <time>2020-06-07T10:58:31Z</time>
      </trkpt>
      <trkpt lat="47.77367" lon="-3.60716">
        <ele>3.3</ele>
        <time>2020-06-07T10:58:32Z</time>
      </trkpt>
      <trkpt lat="47.77366" lon="-3.60715">
        <ele>3.3</ele>
        <time>2020-06-07T10:58:33Z</time>
      </trkpt>
      <trkpt lat="47.77367" lon="-3.60715">
        <ele>3.3</ele>
        <time>2020-06-07T10:58:34Z</time>
      </trkpt>
      <trkpt lat="47.77367" lon="-3.60715">
        <ele>3.3</ele>
        <time>2020-06-07T10:58:35Z</time>
      </trkpt>
      <trkpt lat="47.77367" lon="-3.60715">
        <ele>3.3</ele>
        <time>2020-06-07T10:58:36Z</time>
      </trkpt>
      <trkpt lat="47.77367" lon="-3.60716">
        <ele>3.3</ele>
        <time>2020-06-07T10:58:37Z</time>
      </trkpt>
      <trkpt lat="47.77367" lon="-3.60716">
        <ele>3.3</ele>
        <time>2020-06-07T10:58:38Z</time>
      </trkpt>
      <trkpt lat="47.77369" lon="-3.60718">
        <ele>3.3</ele>
        <time>2020-06-07T10:58:43Z</time>
      </trkpt>
      <trkpt lat="47.77369" lon="-3.60718">
        <ele>3.3</ele>
        <time>2020-06-07T10:58:44Z</time>
      </trkpt>
      <trkpt lat="47.77369" lon="-3.60718">
        <ele>3.3</ele>
        <time>2020-06-07T10:58:45Z</time>
      </trkpt>
      <trkpt lat="47.77369" lon="-3.60717">
        <ele>3.3</ele>
        <time>2020-06-07T10:58:46Z</time>
      </trkpt>
      <trkpt lat="47.77369" lon="-3.60717">
        <ele>3.3</ele>
        <time>2020-06-07T10:58:47Z</time>
      </trkpt>
      <trkpt lat="47.77369" lon="-3.60717">
        <ele>3.3</ele>
        <time>2020-06-07T10:58:48Z</time>
      </trkpt>
      <trkpt lat="47.77369" lon="-3.60717">
        <ele>3.3</ele>
        <time>2020-06-07T10:58:49Z</time>
      </trkpt>
      <trkpt lat="47.77369" lon="-3.60717">
        <ele>3.3</ele>
        <time>2020-06-07T10:58:50Z</time>
      </trkpt>
      <trkpt lat="47.77369" lon="-3.60717">
        <ele>3.3</ele>
        <time>2020-06-07T10:58:51Z</time>
      </trkpt>
      <trkpt lat="47.77368" lon="-3.60717">
        <ele>3.3</ele>
        <time>2020-06-07T10:58:52Z</time>
      </trkpt>
      <trkpt lat="47.77368" lon="-3.60717">
        <ele>3.3</ele>
        <time>2020-06-07T10:58:53Z</time>
      </trkpt>
      <trkpt lat="47.77369" lon="-3.60705">
        <ele>3.3</ele>
        <time>2020-06-07T11:04:04Z</time>
      </trkpt>
      <trkpt lat="47.77371" lon="-3.60704">
        <ele>3.3</ele>
        <time>2020-06-07T11:04:05Z</time>
      </trkpt>
      <trkpt lat="47.77371" lon="-3.60703">
        <ele>3.3</ele>
        <time>2020-06-07T11:04:06Z</time>
      </trkpt>
      <trkpt lat="47.77373" lon="-3.60702">
        <ele>3.3</ele>
        <time>2020-06-07T11:04:07Z</time>
      </trkpt>
      <trkpt lat="47.77373" lon="-3.60701">
        <ele>3.3</ele>
        <time>2020-06-07T11:04:08Z</time>
      </trkpt>
      <trkpt lat="47.77373" lon="-3.60701">
        <ele>3.3</ele>
        <time>2020-06-07T11:04:09Z</time>
      </trkpt>
      <trkpt lat="47.77373" lon="-3.607">
        <ele>3.3</ele>
        <time>2020-06-07T11:04:10Z</time>
      </trkpt>
      <trkpt lat="47.77373" lon="-3.60701">
        <ele>3.3</ele>
        <time>2020-06-07T11:04:11Z</time>
      </trkpt>
      <trkpt lat="47.77372" lon="-3.60702">
        <ele>3.3</ele>
        <time>2020-06-07T11:04:12Z</time>
      </trkpt>
      <trkpt lat="47.77372" lon="-3.60702">
        <ele>3.3</ele>
        <time>2020-06-07T11:04:13Z</time>
      </trkpt>
      <trkpt lat="47.77371" lon="-3.60702">
        <ele>3.3</ele>
        <time>2020-06-07T11:04:14Z</time>
      </trkpt>
      <trkpt lat="47.7737" lon="-3.60703">
        <ele>3.3</ele>
        <time>2020-06-07T11:04:15Z</time>
      </trkpt>
      <trkpt lat="47.7737" lon="-3.60704">
        <ele>3.3</ele>
        <time>2020-06-07T11:04:16Z</time>
      </trkpt>
      <trkpt lat="47.7737" lon="-3.60704">
        <ele>3.3</ele>
        <time>2020-06-07T11:04:17Z</time>
      </trkpt>
      <trkpt lat="47.7737" lon="-3.60706">
        <ele>3.3</ele>
        <time>2020-06-07T11:04:18Z</time>
      </trkpt>
      <trkpt lat="47.7737" lon="-3.60706">
        <ele>3.3</ele>
        <time>2020-06-07T11:04:19Z</time>
      </trkpt>
      <trkpt lat="47.77369" lon="-3.60707">
        <ele>3.3</ele>
        <time>2020-06-07T11:04:20Z</time>
      </trkpt>
      <trkpt lat="47.77369" lon="-3.60707">
        <ele>3.3</ele>
        <time>2020-06-07T11:04:21Z</time>
      </trkpt>
      <trkpt lat="47.77369" lon="-3.60707">
        <ele>3.3</ele>
        <time>2020-06-07T11:04:22Z</time>
      </trkpt>
      <trkpt lat="47.77369" lon="-3.60708">
        <ele>3.3</ele>
        <time>2020-06-07T11:04:23Z</time>
      </trkpt>
      <trkpt lat="47.77369" lon="-3.60709">
        <ele>3.3</ele>
        <time>2020-06-07T11:04:24Z</time>
      </trkpt>
      <trkpt lat="47.77368" lon="-3.6071">
        <ele>3.3</ele>
        <time>2020-06-07T11:04:25Z</time>
      </trkpt>
      <trkpt lat="47.77368" lon="-3.60711">
        <ele>3.3</ele>
        <time>2020-06-07T11:04:26Z</time>
      </trkpt>
      <trkpt lat="47.77368" lon="-3.60712">
        <ele>3.3</ele>
        <time>2020-06-07T11:04:27Z</time>
      </trkpt>
      <trkpt lat="47.77368" lon="-3.60712">
        <ele>3.3</ele>
        <time>2020-06-07T11:04:28Z</time>
      </trkpt>
      <trkpt lat="47.77368" lon="-3.60713">
        <ele>3.3</ele>
        <time>2020-06-07T11:04:29Z</time>
      </trkpt>
      <trkpt lat="47.77368" lon="-3.60713">
        <ele>3.3</ele>
        <time>2020-06-07T11:04:30Z</time>
      </trkpt>
      <trkpt lat="47.77368" lon="-3.60714">
        <ele>3.3</ele>
        <time>2020-06-07T11:04:31Z</time>
      </trkpt>
      <trkpt lat="47.77368" lon="-3.60715">
        <ele>3.3</ele>
        <time>2020-06-07T11:04:32Z</time>
      </trkpt>
      <trkpt lat="47.77368" lon="-3.60714">
        <ele>3.3</ele>
        <time>2020-06-07T11:04:33Z</time>
      </trkpt>
      <trkpt lat="47.77367" lon="-3.60714">
        <ele>3.3</ele>
        <time>2020-06-07T11:04:34Z</time>
      </trkpt>
      <trkpt lat="47.77366" lon="-3.60714">
        <ele>3.3</ele>
        <time>2020-06-07T11:04:35Z</time>
      </trkpt>
      <trkpt lat="47.77364" lon="-3.60714">
        <ele>3.3</ele>
        <time>2020-06-07T11:04:36Z</time>
      </trkpt>
      <trkpt lat="47.77363" lon="-3.60714">
        <ele>3.3</ele>
        <time>2020-06-07T11:04:37Z</time>
      </trkpt>
      <trkpt lat="47.77363" lon="-3.60713">
        <ele>3.3</ele>
        <time>2020-06-07T11:04:38Z</time>
      </trkpt>
      <trkpt lat="47.77365" lon="-3.60713">
        <ele>3.3</ele>
        <time>2020-06-07T11:04:39Z</time>
      </trkpt>
      <trkpt lat="47.77364" lon="-3.60712">
        <ele>3.3</ele>
        <time>2020-06-07T11:04:40Z</time>
      </trkpt>
      <trkpt lat="47.77364" lon="-3.60713">
        <ele>3.3</ele>
        <time>2020-06-07T11:04:41Z</time>
      </trkpt>
      <trkpt lat="47.77364" lon="-3.60712">
        <ele>3.3</ele>
        <time>2020-06-07T11:04:42Z</time>
      </trkpt>
      <trkpt lat="47.77363" lon="-3.60712">
        <ele>3.3</ele>
        <time>2020-06-07T11:04:43Z</time>
      </trkpt>
      <trkpt lat="47.77362" lon="-3.60711">
        <ele>3.3</ele>
        <time>2020-06-07T11:04:44Z</time>
      </trkpt>
      <trkpt lat="47.77362" lon="-3.60711">
        <ele>3.3</ele>
        <time>2020-06-07T11:04:45Z</time>
      </trkpt>
      <trkpt lat="47.77363" lon="-3.60712">
        <ele>3.3</ele>
        <time>2020-06-07T11:04:46Z</time>
      </trkpt>
      <trkpt lat="47.77363" lon="-3.60712">
        <ele>3.3</ele>
        <time>2020-06-07T11:04:47Z</time>
      </trkpt>
      <trkpt lat="47.77363" lon="-3.60713">
        <ele>3.3</ele>
        <time>2020-06-07T11:04:48Z</time>
      </trkpt>
      <trkpt lat="47.77363" lon="-3.60714">
        <ele>3.3</ele>
        <time>2020-06-07T11:04:49Z</time>
      </trkpt>
      <trkpt lat="47.77364" lon="-3.60714">
        <ele>3.3</ele>
        <time>2020-06-07T11:04:50Z</time>
      </trkpt>
      <trkpt lat="47.77365" lon="-3.60714">
        <ele>3.3</ele>
        <time>2020-06-07T11:04:51Z</time>
      </trkpt>
      <trkpt lat="47.77365" lon="-3.60715">
        <ele>3.3</ele>
        <time>2020-06-07T11:04:52Z</time>
      </trkpt>
      <trkpt lat="47.77366" lon="-3.60715">
        <ele>3.3</ele>
        <time>2020-06-07T11:04:53Z</time>
      </trkpt>
      <trkpt lat="47.77366" lon="-3.60716">
        <ele>3.3</ele>
        <time>2020-06-07T11:04:54Z</time>
      </trkpt>
      <trkpt lat="47.77366" lon="-3.60716">
        <ele>3.3</ele>
        <time>2020-06-07T11:04:55Z</time>
      </trkpt>
      <trkpt lat="47.77366" lon="-3.60717">
        <ele>3.3</ele>
        <time>2020-06-07T11:04:56Z</time>
      </trkpt>
      <trkpt lat="47.77366" lon="-3.60717">
        <ele>3.3</ele>
        <time>2020-06-07T11:04:57Z</time>
      </trkpt>
      <trkpt lat="47.77367" lon="-3.60718">
        <ele>3.3</ele>
        <time>2020-06-07T11:04:58Z</time>
      </trkpt>
      <trkpt lat="47.77367" lon="-3.60719">
        <ele>3.3</ele>
        <time>2020-06-07T11:04:59Z</time>
      </trkpt>
      <trkpt lat="47.77367" lon="-3.6072">
        <ele>3.3</ele>
        <time>2020-06-07T11:05:00Z</time>
      </trkpt>
      <trkpt lat="47.77367" lon="-3.6072">
        <ele>3.3</ele>
        <time>2020-06-07T11:05:01Z</time>
      </trkpt>
      <trkpt lat="47.77368" lon="-3.6072">
        <ele>3.3</ele>
        <time>2020-06-07T11:05:02Z</time>
      </trkpt>
      <trkpt lat="47.77368" lon="-3.6072">
        <ele>3.3</ele>
        <time>2020-06-07T11:05:03Z</time>
      </trkpt>
      <trkpt lat="47.77368" lon="-3.60721">
        <ele>3.3</ele>
        <time>2020-06-07T11:05:04Z</time>
      </trkpt>
      <trkpt lat="47.77369" lon="-3.6072">
        <ele>3.3</ele>
        <time>2020-06-07T11:05:05Z</time>
      </trkpt>
      <trkpt lat="47.77368" lon="-3.60719">
        <ele>3.3</ele>
        <time>2020-06-07T11:05:06Z</time>
      </trkpt>
      <trkpt lat="47.77368" lon="-3.6072">
        <ele>3.3</ele>
        <time>2020-06-07T11:05:07Z</time>
      </trkpt>
      <trkpt lat="47.77368" lon="-3.6072">
        <ele>3.3</ele>
        <time>2020-06-07T11:05:08Z</time>
      </trkpt>
      <trkpt lat="47.77367" lon="-3.60721">
        <ele>3.3</ele>
        <time>2020-06-07T11:05:09Z</time>
      </trkpt>
      <trkpt lat="47.77365" lon="-3.60721">
        <ele>3.3</ele>
        <time>2020-06-07T11:05:10Z</time>
      </trkpt>
      <trkpt lat="47.77364" lon="-3.6072">
        <ele>3.3</ele>
        <time>2020-06-07T11:05:11Z</time>
      </trkpt>
      <trkpt lat="47.77364" lon="-3.6072">
        <ele>3.3</ele>
        <time>2020-06-07T11:05:12Z</time>
      </trkpt>
      <trkpt lat="47.77364" lon="-3.6072">
        <ele>3.3</ele>
        <time>2020-06-07T11:05:13Z</time>
      </trkpt>
      <trkpt lat="47.77363" lon="-3.6072">
        <ele>3.3</ele>
        <time>2020-06-07T11:05:14Z</time>
      </trkpt>
      <trkpt lat="47.77363" lon="-3.60721">
        <ele>3.3</ele>
        <time>2020-06-07T11:05:15Z</time>
      </trkpt>
      <trkpt lat="47.77363" lon="-3.60721">
        <ele>3.3</ele>
        <time>2020-06-07T11:05:16Z</time>
      </trkpt>
      <trkpt lat="47.77362" lon="-3.6072">
        <ele>3.3</ele>
        <time>2020-06-07T11:05:17Z</time>
      </trkpt>
      <trkpt lat="47.77361" lon="-3.60719">
        <ele>3.3</ele>
        <time>2020-06-07T11:05:18Z</time>
      </trkpt>
      <trkpt lat="47.77361" lon="-3.6072">
        <ele>3.3</ele>
        <time>2020-06-07T11:05:19Z</time>
      </trkpt>
      <trkpt lat="47.77361" lon="-3.60719">
        <ele>3.3</ele>
        <time>2020-06-07T11:05:20Z</time>
      </trkpt>
      <trkpt lat="47.77361" lon="-3.60719">
        <ele>3.3</ele>
        <time>2020-06-07T11:05:21Z</time>
      </trkpt>
      <trkpt lat="47.77361" lon="-3.60719">
        <ele>3.3</ele>
        <time>2020-06-07T11:05:22Z</time>
      </trkpt>
      <trkpt lat="47.7736" lon="-3.6072">
        <ele>3.3</ele>
        <time>2020-06-07T11:05:23Z</time>
      </trkpt>
      <trkpt lat="47.7736" lon="-3.6072">
        <ele>3.3</ele>
        <time>2020-06-07T11:05:24Z</time>
      </trkpt>
      <trkpt lat="47.7736" lon="-3.6072">
        <ele>3.3</ele>
        <time>2020-06-07T11:05:25Z</time>
      </trkpt>
      <trkpt lat="47.77359" lon="-3.6072">
        <ele>3.3</ele>
        <time>2020-06-07T11:05:26Z</time>
      </trkpt>
      <trkpt lat="47.77358" lon="-3.60721">
        <ele>3.3</ele>
        <time>2020-06-07T11:05:27Z</time>
      </trkpt>
      <trkpt lat="47.77357" lon="-3.60721">
        <ele>3.3</ele>
        <time>2020-06-07T11:05:28Z</time>
      </trkpt>
      <trkpt lat="47.77355" lon="-3.60721">
        <ele>3.3</ele>
        <time>2020-06-07T11:05:29Z</time>
      </trkpt>
      <trkpt lat="47.77354" lon="-3.60722">
        <ele>3.3</ele>
        <time>2020-06-07T11:05:30Z</time>
      </trkpt>
      <trkpt lat="47.77354" lon="-3.60723">
        <ele>3.3</ele>
        <time>2020-06-07T11:05:31Z</time>
      </trkpt>
      <trkpt lat="47.77353" lon="-3.60724">
        <ele>3.3</ele>
        <time>2020-06-07T11:05:32Z</time>
      </trkpt>
      <trkpt lat="47.77353" lon="-3.60725">
        <ele>3.3</ele>
        <time>2020-06-07T11:05:33Z</time>
      </trkpt>
      <trkpt lat="47.77353" lon="-3.60725">
        <ele>3.3</ele>
        <time>2020-06-07T11:05:34Z</time>
      </trkpt>
      <trkpt lat="47.77354" lon="-3.60725">
        <ele>3.3</ele>
        <time>2020-06-07T11:05:35Z</time>
      </trkpt>
      <trkpt lat="47.77354" lon="-3.60724">
        <ele>3.3</ele>
        <time>2020-06-07T11:05:36Z</time>
      </trkpt>
      <trkpt lat="47.77354" lon="-3.60723">
        <ele>3.3</ele>
        <time>2020-06-07T11:05:37Z</time>
      </trkpt>
      <trkpt lat="47.77355" lon="-3.60723">
        <ele>3.3</ele>
        <time>2020-06-07T11:05:38Z</time>
      </trkpt>
      <trkpt lat="47.77355" lon="-3.60722">
        <ele>3.3</ele>
        <time>2020-06-07T11:05:39Z</time>
      </trkpt>
      <trkpt lat="47.77355" lon="-3.60723">
        <ele>3.3</ele>
        <time>2020-06-07T11:05:40Z</time>
      </trkpt>
      <trkpt lat="47.77355" lon="-3.60724">
        <ele>3.3</ele>
        <time>2020-06-07T11:05:41Z</time>
      </trkpt>
      <trkpt lat="47.77355" lon="-3.60724">
        <ele>3.3</ele>
        <time>2020-06-07T11:05:42Z</time>
      </trkpt>
      <trkpt lat="47.77354" lon="-3.60725">
        <ele>3.3</ele>
        <time>2020-06-07T11:05:43Z</time>
      </trkpt>
      <trkpt lat="47.77353" lon="-3.60725">
        <ele>3.3</ele>
        <time>2020-06-07T11:05:44Z</time>
      </trkpt>
      <trkpt lat="47.77352" lon="-3.60725">
        <ele>3.3</ele>
        <time>2020-06-07T11:05:45Z</time>
      </trkpt>
      <trkpt lat="47.77352" lon="-3.60726">
        <ele>3.3</ele>
        <time>2020-06-07T11:05:46Z</time>
      </trkpt>
      <trkpt lat="47.77352" lon="-3.60726">
        <ele>3.3</ele>
        <time>2020-06-07T11:05:47Z</time>
      </trkpt>
      <trkpt lat="47.77351" lon="-3.60727">
        <ele>3.3</ele>
        <time>2020-06-07T11:05:48Z</time>
      </trkpt>
      <trkpt lat="47.77351" lon="-3.60727">
        <ele>3.3</ele>
        <time>2020-06-07T11:05:49Z</time>
      </trkpt>
      <trkpt lat="47.77351" lon="-3.60727">
        <ele>3.3</ele>
        <time>2020-06-07T11:05:50Z</time>
      </trkpt>
      <trkpt lat="47.77352" lon="-3.60726">
        <ele>3.3</ele>
        <time>2020-06-07T11:05:51Z</time>
      </trkpt>
      <trkpt lat="47.77354" lon="-3.60726">
        <ele>3.3</ele>
        <time>2020-06-07T11:05:52Z</time>
      </trkpt>
      <trkpt lat="47.77354" lon="-3.60726">
        <ele>3.3</ele>
        <time>2020-06-07T11:05:53Z</time>
      </trkpt>
      <trkpt lat="47.77355" lon="-3.60726">
        <ele>3.3</ele>
        <time>2020-06-07T11:05:54Z</time>
      </trkpt>
      <trkpt lat="47.77356" lon="-3.60726">
        <ele>3.3</ele>
        <time>2020-06-07T11:05:55Z</time>
      </trkpt>
      <trkpt lat="47.77356" lon="-3.60726">
        <ele>3.3</ele>
        <time>2020-06-07T11:05:56Z</time>
      </trkpt>
      <trkpt lat="47.77356" lon="-3.60726">
        <ele>3.3</ele>
        <time>2020-06-07T11:05:57Z</time>
      </trkpt>
      <trkpt lat="47.77356" lon="-3.60726">
        <ele>3.3</ele>
        <time>2020-06-07T11:05:58Z</time>
      </trkpt>
      <trkpt lat="47.77355" lon="-3.60726">
        <ele>3.3</ele>
        <time>2020-06-07T11:05:59Z</time>
      </trkpt>
      <trkpt lat="47.77355" lon="-3.60725">
        <ele>3.3</ele>
        <time>2020-06-07T11:06:00Z</time>
      </trkpt>
      <trkpt lat="47.77355" lon="-3.60726">
        <ele>3.3</ele>
        <time>2020-06-07T11:06:01Z</time>
      </trkpt>
      <trkpt lat="47.77355" lon="-3.60725">
        <ele>3.3</ele>
        <time>2020-06-07T11:06:02Z</time>
      </trkpt>
      <trkpt lat="47.77354" lon="-3.60725">
        <ele>3.3</ele>
        <time>2020-06-07T11:06:03Z</time>
      </trkpt>
      <trkpt lat="47.77353" lon="-3.60725">
        <ele>3.3</ele>
        <time>2020-06-07T11:06:04Z</time>
      </trkpt>
      <trkpt lat="47.77353" lon="-3.60725">
        <ele>3.3</ele>
        <time>2020-06-07T11:06:05Z</time>
      </trkpt>
      <trkpt lat="47.77352" lon="-3.60726">
        <ele>3.3</ele>
        <time>2020-06-07T11:06:06Z</time>
      </trkpt>
      <trkpt lat="47.77353" lon="-3.60726">
        <ele>3.3</ele>
        <time>2020-06-07T11:06:07Z</time>
      </trkpt>
      <trkpt lat="47.77353" lon="-3.60727">
        <ele>3.3</ele>
        <time>2020-06-07T11:06:08Z</time>
      </trkpt>
      <trkpt lat="47.77353" lon="-3.60727">
        <ele>3.3</ele>
        <time>2020-06-07T11:06:09Z</time>
      </trkpt>
      <trkpt lat="47.77354" lon="-3.60726">
        <ele>3.3</ele>
        <time>2020-06-07T11:06:10Z</time>
      </trkpt>
      <trkpt lat="47.77354" lon="-3.60726">
        <ele>3.3</ele>
        <time>2020-06-07T11:06:11Z</time>
      </trkpt>
      <trkpt lat="47.77354" lon="-3.60726">
        <ele>3.3</ele>
        <time>2020-06-07T11:06:12Z</time>
      </trkpt>
      <trkpt lat="47.77355" lon="-3.60725">
        <ele>3.3</ele>
        <time>2020-06-07T11:06:13Z</time>
      </trkpt>
      <trkpt lat="47.77355" lon="-3.60725">
        <ele>3.3</ele>
        <time>2020-06-07T11:06:14Z</time>
      </trkpt>
      <trkpt lat="47.77354" lon="-3.60724">
        <ele>3.3</ele>
        <time>2020-06-07T11:06:15Z</time>
      </trkpt>
      <trkpt lat="47.77354" lon="-3.60724">
        <ele>3.3</ele>
        <time>2020-06-07T11:06:16Z</time>
      </trkpt>
      <trkpt lat="47.77354" lon="-3.60725">
        <ele>3.3</ele>
        <time>2020-06-07T11:06:17Z</time>
      </trkpt>
      <trkpt lat="47.77354" lon="-3.60725">
        <ele>3.3</ele>
        <time>2020-06-07T11:06:18Z</time>
      </trkpt>
      <trkpt lat="47.77355" lon="-3.60726">
        <ele>3.3</ele>
        <time>2020-06-07T11:06:19Z</time>
      </trkpt>
      <trkpt lat="47.77356" lon="-3.60726">
        <ele>3.3</ele>
        <time>2020-06-07T11:06:20Z</time>
      </trkpt>
      <trkpt lat="47.77356" lon="-3.60726">
        <ele>3.3</ele>
        <time>2020-06-07T11:06:21Z</time>
      </trkpt>
      <trkpt lat="47.77357" lon="-3.60726">
        <ele>3.3</ele>
        <time>2020-06-07T11:06:22Z</time>
      </trkpt>
      <trkpt lat="47.77358" lon="-3.60726">
        <ele>3.3</ele>
        <time>2020-06-07T11:06:23Z</time>
      </trkpt>
      <trkpt lat="47.77358" lon="-3.60727">
        <ele>3.3</ele>
        <time>2020-06-07T11:06:24Z</time>
      </trkpt>
      <trkpt lat="47.7736" lon="-3.60726">
        <ele>3.3</ele>
        <time>2020-06-07T11:06:25Z</time>
      </trkpt>
      <trkpt lat="47.7736" lon="-3.60726">
        <ele>3.3</ele>
        <time>2020-06-07T11:06:26Z</time>
      </trkpt>
      <trkpt lat="47.7736" lon="-3.60725">
        <ele>3.3</ele>
        <time>2020-06-07T11:06:27Z</time>
      </trkpt>
      <trkpt lat="47.77361" lon="-3.60724">
        <ele>3.3</ele>
        <time>2020-06-07T11:06:28Z</time>
      </trkpt>
      <trkpt lat="47.77362" lon="-3.60722">
        <ele>3.3</ele>
        <time>2020-06-07T11:06:29Z</time>
      </trkpt>
      <trkpt lat="47.77362" lon="-3.60721">
        <ele>3.3</ele>
        <time>2020-06-07T11:06:30Z</time>
      </trkpt>
      <trkpt lat="47.77363" lon="-3.6072">
        <ele>3.3</ele>
        <time>2020-06-07T11:06:31Z</time>
      </trkpt>
      <trkpt lat="47.77364" lon="-3.60719">
        <ele>3.3</ele>
        <time>2020-06-07T11:06:32Z</time>
      </trkpt>
      <trkpt lat="47.77365" lon="-3.60716">
        <ele>3.3</ele>
        <time>2020-06-07T11:06:33Z</time>
      </trkpt>
      <trkpt lat="47.77366" lon="-3.60715">
        <ele>3.3</ele>
        <time>2020-06-07T11:06:34Z</time>
      </trkpt>
      <trkpt lat="47.77367" lon="-3.60714">
        <ele>3.3</ele>
        <time>2020-06-07T11:06:35Z</time>
      </trkpt>
      <trkpt lat="47.77368" lon="-3.60709">
        <ele>3.3</ele>
        <time>2020-06-07T11:06:36Z</time>
      </trkpt>
      <trkpt lat="47.77368" lon="-3.60708">
        <ele>3.3</ele>
        <time>2020-06-07T11:06:37Z</time>
      </trkpt>
      <trkpt lat="47.77368" lon="-3.60707">
        <ele>3.3</ele>
        <time>2020-06-07T11:06:38Z</time>
      </trkpt>
      <trkpt lat="47.77369" lon="-3.60707">
        <ele>3.3</ele>
        <time>2020-06-07T11:06:39Z</time>
      </trkpt>
      <trkpt lat="47.77369" lon="-3.60706">
        <ele>3.3</ele>
        <time>2020-06-07T11:06:40Z</time>
      </trkpt>
      <trkpt lat="47.7737" lon="-3.60706">
        <ele>3.3</ele>
        <time>2020-06-07T11:06:41Z</time>
      </trkpt>
      <trkpt lat="47.7737" lon="-3.60706">
        <ele>3.3</ele>
        <time>2020-06-07T11:06:42Z</time>
      </trkpt>
      <trkpt lat="47.7737" lon="-3.60705">
        <ele>3.3</ele>
        <time>2020-06-07T11:06:43Z</time>
      </trkpt>
      <trkpt lat="47.77371" lon="-3.60704">
        <ele>3.3</ele>
        <time>2020-06-07T11:06:44Z</time>
      </trkpt>
      <trkpt lat="47.77371" lon="-3.60704">
        <ele>3.3</ele>
        <time>2020-06-07T11:06:45Z</time>
      </trkpt>
      <trkpt lat="47.77371" lon="-3.60704">
        <ele>3.3</ele>
        <time>2020-06-07T11:06:46Z</time>
      </trkpt>
      <trkpt lat="47.77371" lon="-3.60704">
        <ele>3.3</ele>
        <time>2020-06-07T11:06:47Z</time>
      </trkpt>
      <trkpt lat="47.77372" lon="-3.60704">
        <ele>3.3</ele>
        <time>2020-06-07T11:06:48Z</time>
      </trkpt>
      <trkpt lat="47.77371" lon="-3.60703">
        <ele>3.3</ele>
        <time>2020-06-07T11:06:49Z</time>
      </trkpt>
      <trkpt lat="47.77371" lon="-3.60702">
        <ele>3.3</ele>
        <time>2020-06-07T11:06:50Z</time>
      </trkpt>
      <trkpt lat="47.77372" lon="-3.60703">
        <ele>3.3</ele>
        <time>2020-06-07T11:06:51Z</time>
      </trkpt>
      <trkpt lat="47.77372" lon="-3.60704">
        <ele>3.3</ele>
        <time>2020-06-07T11:06:52Z</time>
      </trkpt>
      <trkpt lat="47.77372" lon="-3.60706">
        <ele>3.3</ele>
        <time>2020-06-07T11:06:53Z</time>
      </trkpt>
      <trkpt lat="47.77373" lon="-3.60706">
        <ele>3.3</ele>
        <time>2020-06-07T11:06:54Z</time>
      </trkpt>
      <trkpt lat="47.77373" lon="-3.60707">
        <ele>3.3</ele>
        <time>2020-06-07T11:06:55Z</time>
      </trkpt>
      <trkpt lat="47.77373" lon="-3.60707">
        <ele>3.3</ele>
        <time>2020-06-07T11:06:56Z</time>
      </trkpt>
      <trkpt lat="47.7736" lon="-3.6072">
        <ele>1.6</ele>
        <time>2020-06-07T11:07:24Z</time>
      </trkpt>
      <trkpt lat="47.77358" lon="-3.60723">
        <ele>1.4</ele>
        <time>2020-06-07T11:07:25Z</time>
      </trkpt>
      <trkpt lat="47.77356" lon="-3.60727">
        <ele>1.4</ele>
        <time>2020-06-07T11:07:26Z</time>
      </trkpt>
      <trkpt lat="47.77355" lon="-3.60728">
        <ele>1.2</ele>
        <time>2020-06-07T11:07:27Z</time>
      </trkpt>
      <trkpt lat="47.77353" lon="-3.60732">
        <ele>1.5</ele>
        <time>2020-06-07T11:07:28Z</time>
      </trkpt>
      <trkpt lat="47.77352" lon="-3.60732">
        <ele>1.4</ele>
        <time>2020-06-07T11:07:29Z</time>
      </trkpt>
      <trkpt lat="47.7735" lon="-3.60736">
        <ele>1.9</ele>
        <time>2020-06-07T11:07:30Z</time>
      </trkpt>
      <trkpt lat="47.77349" lon="-3.60737">
        <ele>1.7</ele>
        <time>2020-06-07T11:07:31Z</time>
      </trkpt>
      <trkpt lat="47.77348" lon="-3.60739">
        <ele>2.5</ele>
        <time>2020-06-07T11:07:32Z</time>
      </trkpt>
      <trkpt lat="47.77347" lon="-3.6074">
        <ele>2.3</ele>
        <time>2020-06-07T11:07:33Z</time>
      </trkpt>
      <trkpt lat="47.77345" lon="-3.60741">
        <ele>3.2</ele>
        <time>2020-06-07T11:07:34Z</time>
      </trkpt>
      <trkpt lat="47.77344" lon="-3.60742">
        <ele>2.6</ele>
        <time>2020-06-07T11:07:35Z</time>
      </trkpt>
      <trkpt lat="47.77342" lon="-3.60743">
        <ele>3.5</ele>
        <time>2020-06-07T11:07:36Z</time>
      </trkpt>
      <trkpt lat="47.77341" lon="-3.60744">
        <ele>3.4</ele>
        <time>2020-06-07T11:07:37Z</time>
      </trkpt>
      <trkpt lat="47.77339" lon="-3.60745">
        <ele>4.4</ele>
        <time>2020-06-07T11:07:38Z</time>
      </trkpt>
      <trkpt lat="47.77339" lon="-3.60746">
        <ele>4.3</ele>
        <time>2020-06-07T11:07:39Z</time>
      </trkpt>
      <trkpt lat="47.77341" lon="-3.60743">
        <ele>2.9</ele>
        <time>2020-06-07T11:07:40Z</time>
      </trkpt>
      <trkpt lat="47.77342" lon="-3.60742">
        <ele>3.6</ele>
        <time>2020-06-07T11:07:41Z</time>
      </trkpt>
      <trkpt lat="47.77342" lon="-3.60741">
        <ele>3.5</ele>
        <time>2020-06-07T11:07:42Z</time>
      </trkpt>
      <trkpt lat="47.77342" lon="-3.60741">
        <ele>3.3</ele>
        <time>2020-06-07T11:07:43Z</time>
      </trkpt>
      <trkpt lat="47.77342" lon="-3.60741">
        <ele>3.2</ele>
        <time>2020-06-07T11:07:44Z</time>
      </trkpt>
      <trkpt lat="47.77342" lon="-3.6074">
        <ele>3.1</ele>
        <time>2020-06-07T11:07:45Z</time>
      </trkpt>
      <trkpt lat="47.77343" lon="-3.6074">
        <ele>1.6</ele>
        <time>2020-06-07T11:07:46Z</time>
      </trkpt>
      <trkpt lat="47.77343" lon="-3.60739">
        <ele>1.5</ele>
        <time>2020-06-07T11:07:47Z</time>
      </trkpt>
      <trkpt lat="47.77343" lon="-3.60739">
        <ele>1.4</ele>
        <time>2020-06-07T11:07:48Z</time>
      </trkpt>
      <trkpt lat="47.77449" lon="-3.60601">
        <ele>-2.3</ele>
        <time>2020-06-07T12:08:14Z</time>
      </trkpt>
      <trkpt lat="47.77671" lon="-3.60288">
        <ele>9.7</ele>
        <time>2020-06-07T12:08:15Z</time>
      </trkpt>
      <trkpt lat="47.77668" lon="-3.60304">
        <ele>9</ele>
        <time>2020-06-07T12:08:16Z</time>
      </trkpt>
      <trkpt lat="47.77662" lon="-3.60332">
        <ele>7.4</ele>
        <time>2020-06-07T12:08:17Z</time>
      </trkpt>
      <trkpt lat="47.77662" lon="-3.60347">
        <ele>6.3</ele>
        <time>2020-06-07T12:08:18Z</time>
      </trkpt>
      <trkpt lat="47.77667" lon="-3.60364">
        <ele>5.8</ele>
        <time>2020-06-07T12:08:19Z</time>
      </trkpt>
      <trkpt lat="47.77675" lon="-3.60382">
        <ele>5.1</ele>
        <time>2020-06-07T12:08:20Z</time>
      </trkpt>
      <trkpt lat="47.77849" lon="-3.60519">
        <ele>11.4</ele>
        <time>2020-06-07T12:08:58Z</time>
      </trkpt>
      <trkpt lat="47.77849" lon="-3.60523">
        <ele>11.5</ele>
        <time>2020-06-07T12:08:59Z</time>
      </trkpt>
      <trkpt lat="47.77847" lon="-3.6053">
        <ele>11.8</ele>
        <time>2020-06-07T12:09:00Z</time>
      </trkpt>
      <trkpt lat="47.77843" lon="-3.60538">
        <ele>12.2</ele>
        <time>2020-06-07T12:09:01Z</time>
      </trkpt>
      <trkpt lat="47.77842" lon="-3.60543">
        <ele>12.4</ele>
        <time>2020-06-07T12:09:02Z</time>
      </trkpt>
      <trkpt lat="47.77841" lon="-3.60547">
        <ele>12.6</ele>
        <time>2020-06-07T12:09:03Z</time>
      </trkpt>
      <trkpt lat="47.7784" lon="-3.60552">
        <ele>12.7</ele>
        <time>2020-06-07T12:09:04Z</time>
      </trkpt>
      <trkpt lat="47.77839" lon="-3.60557">
        <ele>12.9</ele>
        <time>2020-06-07T12:09:05Z</time>
      </trkpt>
      <trkpt lat="47.7784" lon="-3.60562">
        <ele>13.1</ele>
        <time>2020-06-07T12:09:06Z</time>
      </trkpt>
      <trkpt lat="47.7784" lon="-3.60565">
        <ele>13.2</ele>
        <time>2020-06-07T12:09:07Z</time>
      </trkpt>
      <trkpt lat="47.77838" lon="-3.6057">
        <ele>13.4</ele>
        <time>2020-06-07T12:09:08Z</time>
      </trkpt>
      <trkpt lat="47.77837" lon="-3.60576">
        <ele>13.6</ele>
        <time>2020-06-07T12:09:09Z</time>
      </trkpt>
      <trkpt lat="47.77835" lon="-3.60583">
        <ele>13.8</ele>
        <time>2020-06-07T12:09:10Z</time>
      </trkpt>
      <trkpt lat="47.77834" lon="-3.60588">
        <ele>13.9</ele>
        <time>2020-06-07T12:09:11Z</time>
      </trkpt>
      <trkpt lat="47.7783" lon="-3.60594">
        <ele>14.1</ele>
        <time>2020-06-07T12:09:12Z</time>
      </trkpt>
      <trkpt lat="47.77827" lon="-3.60601">
        <ele>14.3</ele>
        <time>2020-06-07T12:09:13Z</time>
      </trkpt>
      <trkpt lat="47.77825" lon="-3.6061">
        <ele>14.5</ele>
        <time>2020-06-07T12:09:14Z</time>
      </trkpt>
      <trkpt lat="47.77823" lon="-3.60618">
        <ele>14.6</ele>
        <time>2020-06-07T12:09:15Z</time>
      </trkpt>
      <trkpt lat="47.7782" lon="-3.60626">
        <ele>14.8</ele>
        <time>2020-06-07T12:09:16Z</time>
      </trkpt>
      <trkpt lat="47.77818" lon="-3.60634">
        <ele>14.9</ele>
        <time>2020-06-07T12:09:17Z</time>
      </trkpt>
      <trkpt lat="47.77815" lon="-3.60644">
        <ele>15</ele>
        <time>2020-06-07T12:09:18Z</time>
      </trkpt>
      <trkpt lat="47.77814" lon="-3.60653">
        <ele>15.1</ele>
        <time>2020-06-07T12:09:19Z</time>
      </trkpt>
      <trkpt lat="47.77808" lon="-3.6066">
        <ele>15.2</ele>
        <time>2020-06-07T12:09:20Z</time>
      </trkpt>
      <trkpt lat="47.77806" lon="-3.60671">
        <ele>15.4</ele>
        <time>2020-06-07T12:09:21Z</time>
      </trkpt>
      <trkpt lat="47.77803" lon="-3.6068">
        <ele>15.6</ele>
        <time>2020-06-07T12:09:22Z</time>
      </trkpt>
      <trkpt lat="47.778" lon="-3.6069">
        <ele>15.9</ele>
        <time>2020-06-07T12:09:23Z</time>
      </trkpt>
      <trkpt lat="47.77798" lon="-3.60699">
        <ele>16.2</ele>
        <time>2020-06-07T12:09:24Z</time>
      </trkpt>
      <trkpt lat="47.77796" lon="-3.60708">
        <ele>16.6</ele>
        <time>2020-06-07T12:09:25Z</time>
      </trkpt>
      <trkpt lat="47.77794" lon="-3.60716">
        <ele>17</ele>
        <time>2020-06-07T12:09:26Z</time>
      </trkpt>
      <trkpt lat="47.77792" lon="-3.60723">
        <ele>17.3</ele>
        <time>2020-06-07T12:09:27Z</time>
      </trkpt>
      <trkpt lat="47.77789" lon="-3.6073">
        <ele>17.6</ele>
        <time>2020-06-07T12:09:28Z</time>
      </trkpt>
      <trkpt lat="47.77787" lon="-3.60737">
        <ele>18</ele>
        <time>2020-06-07T12:09:29Z</time>
      </trkpt>
      <trkpt lat="47.77785" lon="-3.60744">
        <ele>18.3</ele>
        <time>2020-06-07T12:09:30Z</time>
      </trkpt>
      <trkpt lat="47.77784" lon="-3.60749">
        <ele>18.6</ele>
        <time>2020-06-07T12:09:31Z</time>
      </trkpt>
      <trkpt lat="47.77782" lon="-3.60755">
        <ele>18.9</ele>
        <time>2020-06-07T12:09:32Z</time>
      </trkpt>
      <trkpt lat="47.77781" lon="-3.6076">
        <ele>19.1</ele>
        <time>2020-06-07T12:09:33Z</time>
      </trkpt>
      <trkpt lat="47.77779" lon="-3.60764">
        <ele>19.3</ele>
        <time>2020-06-07T12:09:34Z</time>
      </trkpt>
      <trkpt lat="47.77779" lon="-3.60769">
        <ele>19.6</ele>
        <time>2020-06-07T12:09:35Z</time>
      </trkpt>
      <trkpt lat="47.77778" lon="-3.60771">
        <ele>19.6</ele>
        <time>2020-06-07T12:09:36Z</time>
      </trkpt>
      <trkpt lat="47.77778" lon="-3.60775">
        <ele>19.8</ele>
        <time>2020-06-07T12:09:37Z</time>
      </trkpt>
      <trkpt lat="47.77777" lon="-3.60781">
        <ele>20</ele>
        <time>2020-06-07T12:09:38Z</time>
      </trkpt>
      <trkpt lat="47.77776" lon="-3.60787">
        <ele>20.3</ele>
        <time>2020-06-07T12:09:39Z</time>
      </trkpt>
      <trkpt lat="47.77775" lon="-3.60792">
        <ele>20.5</ele>
        <time>2020-06-07T12:09:40Z</time>
      </trkpt>
      <trkpt lat="47.77774" lon="-3.60798">
        <ele>20.7</ele>
        <time>2020-06-07T12:09:41Z</time>
      </trkpt>
      <trkpt lat="47.77773" lon="-3.60805">
        <ele>21</ele>
        <time>2020-06-07T12:09:42Z</time>
      </trkpt>
      <trkpt lat="47.77772" lon="-3.60811">
        <ele>21.3</ele>
        <time>2020-06-07T12:09:43Z</time>
      </trkpt>
      <trkpt lat="47.77771" lon="-3.60818">
        <ele>21.5</ele>
        <time>2020-06-07T12:09:44Z</time>
      </trkpt>
      <trkpt lat="47.7777" lon="-3.60824">
        <ele>21.8</ele>
        <time>2020-06-07T12:09:45Z</time>
      </trkpt>
      <trkpt lat="47.7777" lon="-3.6083">
        <ele>22</ele>
        <time>2020-06-07T12:09:46Z</time>
      </trkpt>
      <trkpt lat="47.77769" lon="-3.60835">
        <ele>22.3</ele>
        <time>2020-06-07T12:09:47Z</time>
      </trkpt>
      <trkpt lat="47.77769" lon="-3.6084">
        <ele>22.5</ele>
        <time>2020-06-07T12:09:48Z</time>
      </trkpt>
      <trkpt lat="47.77769" lon="-3.60842">
        <ele>22.7</ele>
        <time>2020-06-07T12:09:49Z</time>
      </trkpt>
      <trkpt lat="47.77768" lon="-3.60847">
        <ele>22.9</ele>
        <time>2020-06-07T12:09:50Z</time>
      </trkpt>
      <trkpt lat="47.77768" lon="-3.60849">
        <ele>23</ele>
        <time>2020-06-07T12:09:51Z</time>
      </trkpt>
      <trkpt lat="47.77767" lon="-3.60855">
        <ele>23.3</ele>
        <time>2020-06-07T12:09:52Z</time>
      </trkpt>
      <trkpt lat="47.77767" lon="-3.60857">
        <ele>23.5</ele>
        <time>2020-06-07T12:09:53Z</time>
      </trkpt>
      <trkpt lat="47.77766" lon="-3.60862">
        <ele>23.8</ele>
        <time>2020-06-07T12:09:54Z</time>
      </trkpt>
      <trkpt lat="47.77766" lon="-3.60864">
        <ele>23.8</ele>
        <time>2020-06-07T12:09:55Z</time>
      </trkpt>
      <trkpt lat="47.77765" lon="-3.60868">
        <ele>24.1</ele>
        <time>2020-06-07T12:09:56Z</time>
      </trkpt>
      <trkpt lat="47.77765" lon="-3.60869">
        <ele>24.2</ele>
        <time>2020-06-07T12:09:57Z</time>
      </trkpt>
      <trkpt lat="47.77765" lon="-3.60872">
        <ele>24.3</ele>
        <time>2020-06-07T12:09:58Z</time>
      </trkpt>
      <trkpt lat="47.77765" lon="-3.60875">
        <ele>24.5</ele>
        <time>2020-06-07T12:09:59Z</time>
      </trkpt>
      <trkpt lat="47.77764" lon="-3.60879">
        <ele>24.7</ele>
        <time>2020-06-07T12:10:00Z</time>
      </trkpt>
      <trkpt lat="47.77764" lon="-3.6088">
        <ele>24.8</ele>
        <time>2020-06-07T12:10:01Z</time>
      </trkpt>
      <trkpt lat="47.77763" lon="-3.60884">
        <ele>25</ele>
        <time>2020-06-07T12:10:02Z</time>
      </trkpt>
      <trkpt lat="47.77763" lon="-3.60886">
        <ele>25.1</ele>
        <time>2020-06-07T12:10:03Z</time>
      </trkpt>
      <trkpt lat="47.77762" lon="-3.60891">
        <ele>25.4</ele>
        <time>2020-06-07T12:10:04Z</time>
      </trkpt>
      <trkpt lat="47.77762" lon="-3.60892">
        <ele>25.5</ele>
        <time>2020-06-07T12:10:05Z</time>
      </trkpt>
      <trkpt lat="47.77761" lon="-3.60897">
        <ele>25.8</ele>
        <time>2020-06-07T12:10:06Z</time>
      </trkpt>
      <trkpt lat="47.77761" lon="-3.60898">
        <ele>25.9</ele>
        <time>2020-06-07T12:10:07Z</time>
      </trkpt>
      <trkpt lat="47.77761" lon="-3.60901">
        <ele>26.1</ele>
        <time>2020-06-07T12:10:08Z</time>
      </trkpt>
      <trkpt lat="47.77761" lon="-3.60902">
        <ele>26.2</ele>
        <time>2020-06-07T12:10:09Z</time>
      </trkpt>
      <trkpt lat="47.77761" lon="-3.60905">
        <ele>26.2</ele>
        <time>2020-06-07T12:10:10Z</time>
      </trkpt>
      <trkpt lat="47.7776" lon="-3.60905">
        <ele>26.3</ele>
        <time>2020-06-07T12:10:11Z</time>
      </trkpt>
      <trkpt lat="47.7776" lon="-3.60906">
        <ele>26.3</ele>
        <time>2020-06-07T12:10:12Z</time>
      </trkpt>
      <trkpt lat="47.77759" lon="-3.60907">
        <ele>26.3</ele>
        <time>2020-06-07T12:10:13Z</time>
      </trkpt>
      <trkpt lat="47.77756" lon="-3.60908">
        <ele>26.4</ele>
        <time>2020-06-07T12:10:14Z</time>
      </trkpt>
      <trkpt lat="47.77754" lon="-3.60908">
        <ele>26.5</ele>
        <time>2020-06-07T12:10:15Z</time>
      </trkpt>
      <trkpt lat="47.77752" lon="-3.60909">
        <ele>26.6</ele>
        <time>2020-06-07T12:10:16Z</time>
      </trkpt>
      <trkpt lat="47.77751" lon="-3.60908">
        <ele>27.4</ele>
        <time>2020-06-07T12:10:17Z</time>
      </trkpt>
      <trkpt lat="47.77749" lon="-3.60909">
        <ele>27.4</ele>
        <time>2020-06-07T12:10:18Z</time>
      </trkpt>
      <trkpt lat="47.77748" lon="-3.6091">
        <ele>27.5</ele>
        <time>2020-06-07T12:10:19Z</time>
      </trkpt>
      <trkpt lat="47.77746" lon="-3.60912">
        <ele>27.5</ele>
        <time>2020-06-07T12:10:20Z</time>
      </trkpt>
      <trkpt lat="47.77745" lon="-3.60913">
        <ele>27.5</ele>
        <time>2020-06-07T12:10:21Z</time>
      </trkpt>
      <trkpt lat="47.77743" lon="-3.60913">
        <ele>27.6</ele>
        <time>2020-06-07T12:10:22Z</time>
      </trkpt>
      <trkpt lat="47.77742" lon="-3.60913">
        <ele>27.6</ele>
        <time>2020-06-07T12:10:23Z</time>
      </trkpt>
      <trkpt lat="47.77741" lon="-3.60913">
        <ele>27.6</ele>
        <time>2020-06-07T12:10:24Z</time>
      </trkpt>
      <trkpt lat="47.77738" lon="-3.60912">
        <ele>27.7</ele>
        <time>2020-06-07T12:10:25Z</time>
      </trkpt>
      <trkpt lat="47.77735" lon="-3.6091">
        <ele>27.7</ele>
        <time>2020-06-07T12:10:26Z</time>
      </trkpt>
      <trkpt lat="47.77731" lon="-3.60909">
        <ele>27.8</ele>
        <time>2020-06-07T12:10:27Z</time>
      </trkpt>
      <trkpt lat="47.77728" lon="-3.60907">
        <ele>27.8</ele>
        <time>2020-06-07T12:10:28Z</time>
      </trkpt>
      <trkpt lat="47.77725" lon="-3.60905">
        <ele>27.8</ele>
        <time>2020-06-07T12:10:29Z</time>
      </trkpt>
      <trkpt lat="47.77722" lon="-3.60905">
        <ele>27.9</ele>
        <time>2020-06-07T12:10:30Z</time>
      </trkpt>
      <trkpt lat="47.77719" lon="-3.60904">
        <ele>27.9</ele>
        <time>2020-06-07T12:10:31Z</time>
      </trkpt>
      <trkpt lat="47.77715" lon="-3.60905">
        <ele>27.9</ele>
        <time>2020-06-07T12:10:32Z</time>
      </trkpt>
      <trkpt lat="47.77714" lon="-3.60905">
        <ele>27.9</ele>
        <time>2020-06-07T12:10:33Z</time>
      </trkpt>
      <trkpt lat="47.7771" lon="-3.60905">
        <ele>27.9</ele>
        <time>2020-06-07T12:10:34Z</time>
      </trkpt>
      <trkpt lat="47.77709" lon="-3.60905">
        <ele>27.9</ele>
        <time>2020-06-07T12:10:35Z</time>
      </trkpt>
      <trkpt lat="47.77705" lon="-3.60903">
        <ele>27.8</ele>
        <time>2020-06-07T12:10:36Z</time>
      </trkpt>
      <trkpt lat="47.77703" lon="-3.60903">
        <ele>27.8</ele>
        <time>2020-06-07T12:10:37Z</time>
      </trkpt>
      <trkpt lat="47.777" lon="-3.60902">
        <ele>27.8</ele>
        <time>2020-06-07T12:10:38Z</time>
      </trkpt>
      <trkpt lat="47.77696" lon="-3.60901">
        <ele>27.7</ele>
        <time>2020-06-07T12:10:39Z</time>
      </trkpt>
      <trkpt lat="47.77692" lon="-3.609">
        <ele>27.7</ele>
        <time>2020-06-07T12:10:40Z</time>
      </trkpt>
      <trkpt lat="47.77688" lon="-3.609">
        <ele>27.6</ele>
        <time>2020-06-07T12:10:41Z</time>
      </trkpt>
      <trkpt lat="47.77684" lon="-3.60899">
        <ele>27.5</ele>
        <time>2020-06-07T12:10:42Z</time>
      </trkpt>
      <trkpt lat="47.77679" lon="-3.60898">
        <ele>27.5</ele>
        <time>2020-06-07T12:10:43Z</time>
      </trkpt>
      <trkpt lat="47.77675" lon="-3.60897">
        <ele>27.4</ele>
        <time>2020-06-07T12:10:44Z</time>
      </trkpt>
      <trkpt lat="47.77671" lon="-3.60896">
        <ele>27.3</ele>
        <time>2020-06-07T12:10:45Z</time>
      </trkpt>
      <trkpt lat="47.77667" lon="-3.60895">
        <ele>27.3</ele>
        <time>2020-06-07T12:10:46Z</time>
      </trkpt>
      <trkpt lat="47.77664" lon="-3.60894">
        <ele>27.2</ele>
        <time>2020-06-07T12:10:47Z</time>
      </trkpt>
      <trkpt lat="47.7766" lon="-3.60893">
        <ele>27.2</ele>
        <time>2020-06-07T12:10:48Z</time>
      </trkpt>
      <trkpt lat="47.77656" lon="-3.60892">
        <ele>27.1</ele>
        <time>2020-06-07T12:10:49Z</time>
      </trkpt>
      <trkpt lat="47.77652" lon="-3.60892">
        <ele>27</ele>
        <time>2020-06-07T12:10:50Z</time>
      </trkpt>
      <trkpt lat="47.77648" lon="-3.60892">
        <ele>27</ele>
        <time>2020-06-07T12:10:51Z</time>
      </trkpt>
      <trkpt lat="47.77644" lon="-3.60894">
        <ele>26.9</ele>
        <time>2020-06-07T12:10:52Z</time>
      </trkpt>
      <trkpt lat="47.7764" lon="-3.60897">
        <ele>26.8</ele>
        <time>2020-06-07T12:10:53Z</time>
      </trkpt>
      <trkpt lat="47.77637" lon="-3.609">
        <ele>26.8</ele>
        <time>2020-06-07T12:10:54Z</time>
      </trkpt>
      <trkpt lat="47.77635" lon="-3.60905">
        <ele>26.7</ele>
        <time>2020-06-07T12:10:55Z</time>
      </trkpt>
      <trkpt lat="47.77632" lon="-3.60911">
        <ele>26.6</ele>
        <time>2020-06-07T12:10:56Z</time>
      </trkpt>
      <trkpt lat="47.77628" lon="-3.60915">
        <ele>26.6</ele>
        <time>2020-06-07T12:10:57Z</time>
      </trkpt>
      <trkpt lat="47.77624" lon="-3.60921">
        <ele>26.5</ele>
        <time>2020-06-07T12:10:58Z</time>
      </trkpt>
      <trkpt lat="47.7762" lon="-3.60926">
        <ele>26.4</ele>
        <time>2020-06-07T12:10:59Z</time>
      </trkpt>
      <trkpt lat="47.77616" lon="-3.60932">
        <ele>26.3</ele>
        <time>2020-06-07T12:11:00Z</time>
      </trkpt>
      <trkpt lat="47.77612" lon="-3.60938">
        <ele>26.2</ele>
        <time>2020-06-07T12:11:01Z</time>
      </trkpt>
      <trkpt lat="47.77609" lon="-3.60945">
        <ele>25.5</ele>
        <time>2020-06-07T12:11:02Z</time>
      </trkpt>
      <trkpt lat="47.77605" lon="-3.60952">
        <ele>25.4</ele>
        <time>2020-06-07T12:11:03Z</time>
      </trkpt>
      <trkpt lat="47.77601" lon="-3.60959">
        <ele>25.3</ele>
        <time>2020-06-07T12:11:04Z</time>
      </trkpt>
      <trkpt lat="47.77598" lon="-3.60966">
        <ele>25.2</ele>
        <time>2020-06-07T12:11:05Z</time>
      </trkpt>
      <trkpt lat="47.77593" lon="-3.60973">
        <ele>25.1</ele>
        <time>2020-06-07T12:11:06Z</time>
      </trkpt>
      <trkpt lat="47.77589" lon="-3.6098">
        <ele>24.9</ele>
        <time>2020-06-07T12:11:07Z</time>
      </trkpt>
      <trkpt lat="47.77584" lon="-3.60987">
        <ele>24.7</ele>
        <time>2020-06-07T12:11:08Z</time>
      </trkpt>
      <trkpt lat="47.7758" lon="-3.60993">
        <ele>24.5</ele>
        <time>2020-06-07T12:11:09Z</time>
      </trkpt>
      <trkpt lat="47.77575" lon="-3.61001">
        <ele>24.3</ele>
        <time>2020-06-07T12:11:10Z</time>
      </trkpt>
      <trkpt lat="47.77571" lon="-3.61011">
        <ele>24</ele>
        <time>2020-06-07T12:11:11Z</time>
      </trkpt>
      <trkpt lat="47.77567" lon="-3.6102">
        <ele>23.7</ele>
        <time>2020-06-07T12:11:12Z</time>
      </trkpt>
      <trkpt lat="47.77565" lon="-3.61028">
        <ele>23.4</ele>
        <time>2020-06-07T12:11:13Z</time>
      </trkpt>
      <trkpt lat="47.77563" lon="-3.61035">
        <ele>23.1</ele>
        <time>2020-06-07T12:11:14Z</time>
      </trkpt>
      <trkpt lat="47.7756" lon="-3.61045">
        <ele>22.7</ele>
        <time>2020-06-07T12:11:15Z</time>
      </trkpt>
      <trkpt lat="47.77558" lon="-3.61056">
        <ele>22.3</ele>
        <time>2020-06-07T12:11:16Z</time>
      </trkpt>
      <trkpt lat="47.77557" lon="-3.61064">
        <ele>22</ele>
        <time>2020-06-07T12:11:17Z</time>
      </trkpt>
      <trkpt lat="47.77557" lon="-3.6107">
        <ele>21.8</ele>
        <time>2020-06-07T12:11:18Z</time>
      </trkpt>
      <trkpt lat="47.77555" lon="-3.6108">
        <ele>21.6</ele>
        <time>2020-06-07T12:11:19Z</time>
      </trkpt>
      <trkpt lat="47.77551" lon="-3.61095">
        <ele>21.3</ele>
        <time>2020-06-07T12:11:20Z</time>
      </trkpt>
      <trkpt lat="47.77548" lon="-3.61107">
        <ele>21.1</ele>
        <time>2020-06-07T12:11:21Z</time>
      </trkpt>
      <trkpt lat="47.77547" lon="-3.61113">
        <ele>21</ele>
        <time>2020-06-07T12:11:22Z</time>
      </trkpt>
      <trkpt lat="47.77547" lon="-3.61119">
        <ele>20.9</ele>
        <time>2020-06-07T12:11:23Z</time>
      </trkpt>
      <trkpt lat="47.77546" lon="-3.61129">
        <ele>20.7</ele>
        <time>2020-06-07T12:11:24Z</time>
      </trkpt>
      <trkpt lat="47.77546" lon="-3.61139">
        <ele>20.6</ele>
        <time>2020-06-07T12:11:25Z</time>
      </trkpt>
      <trkpt lat="47.77547" lon="-3.61148">
        <ele>20.4</ele>
        <time>2020-06-07T12:11:26Z</time>
      </trkpt>
      <trkpt lat="47.77548" lon="-3.61157">
        <ele>20.3</ele>
        <time>2020-06-07T12:11:27Z</time>
      </trkpt>
      <trkpt lat="47.7755" lon="-3.61164">
        <ele>20.2</ele>
        <time>2020-06-07T12:11:28Z</time>
      </trkpt>
      <trkpt lat="47.77552" lon="-3.61169">
        <ele>20.2</ele>
        <time>2020-06-07T12:11:29Z</time>
      </trkpt>
      <trkpt lat="47.77553" lon="-3.61174">
        <ele>20.1</ele>
        <time>2020-06-07T12:11:30Z</time>
      </trkpt>
      <trkpt lat="47.77555" lon="-3.61179">
        <ele>20.1</ele>
        <time>2020-06-07T12:11:31Z</time>
      </trkpt>
      <trkpt lat="47.77558" lon="-3.61184">
        <ele>20.1</ele>
        <time>2020-06-07T12:11:32Z</time>
      </trkpt>
      <trkpt lat="47.77562" lon="-3.61192">
        <ele>20.2</ele>
        <time>2020-06-07T12:11:33Z</time>
      </trkpt>
      <trkpt lat="47.77569" lon="-3.61199">
        <ele>20.4</ele>
        <time>2020-06-07T12:11:34Z</time>
      </trkpt>
      <trkpt lat="47.77574" lon="-3.61204">
        <ele>20.5</ele>
        <time>2020-06-07T12:11:35Z</time>
      </trkpt>
      <trkpt lat="47.77578" lon="-3.61211">
        <ele>20.7</ele>
        <time>2020-06-07T12:11:36Z</time>
      </trkpt>
      <trkpt lat="47.77581" lon="-3.6122">
        <ele>20.8</ele>
        <time>2020-06-07T12:11:37Z</time>
      </trkpt>
      <trkpt lat="47.77583" lon="-3.61231">
        <ele>20.9</ele>
        <time>2020-06-07T12:11:38Z</time>
      </trkpt>
      <trkpt lat="47.77585" lon="-3.61239">
        <ele>21</ele>
        <time>2020-06-07T12:11:39Z</time>
      </trkpt>
      <trkpt lat="47.77585" lon="-3.61247">
        <ele>21.1</ele>
        <time>2020-06-07T12:11:40Z</time>
      </trkpt>
      <trkpt lat="47.77584" lon="-3.61255">
        <ele>21.5</ele>
        <time>2020-06-07T12:11:41Z</time>
      </trkpt>
      <trkpt lat="47.77582" lon="-3.61263">
        <ele>21.5</ele>
        <time>2020-06-07T12:11:42Z</time>
      </trkpt>
      <trkpt lat="47.77579" lon="-3.61267">
        <ele>21.7</ele>
        <time>2020-06-07T12:11:43Z</time>
      </trkpt>
      <trkpt lat="47.77576" lon="-3.61272">
        <ele>21.1</ele>
        <time>2020-06-07T12:11:44Z</time>
      </trkpt>
      <trkpt lat="47.77573" lon="-3.61275">
        <ele>20.5</ele>
        <time>2020-06-07T12:11:45Z</time>
      </trkpt>
      <trkpt lat="47.77569" lon="-3.61278">
        <ele>19.9</ele>
        <time>2020-06-07T12:11:46Z</time>
      </trkpt>
      <trkpt lat="47.77564" lon="-3.61279">
        <ele>19.4</ele>
        <time>2020-06-07T12:11:47Z</time>
      </trkpt>
      <trkpt lat="47.7756" lon="-3.61278">
        <ele>19.9</ele>
        <time>2020-06-07T12:11:48Z</time>
      </trkpt>
      <trkpt lat="47.77555" lon="-3.61275">
        <ele>20.2</ele>
        <time>2020-06-07T12:11:49Z</time>
      </trkpt>
      <trkpt lat="47.7755" lon="-3.6127">
        <ele>20.5</ele>
        <time>2020-06-07T12:11:50Z</time>
      </trkpt>
      <trkpt lat="47.77545" lon="-3.61267">
        <ele>20.8</ele>
        <time>2020-06-07T12:11:51Z</time>
      </trkpt>
      <trkpt lat="47.7754" lon="-3.61263">
        <ele>21.1</ele>
        <time>2020-06-07T12:11:52Z</time>
      </trkpt>
      <trkpt lat="47.77536" lon="-3.61259">
        <ele>21.5</ele>
        <time>2020-06-07T12:11:53Z</time>
      </trkpt>
      <trkpt lat="47.77533" lon="-3.61256">
        <ele>21.7</ele>
        <time>2020-06-07T12:11:54Z</time>
      </trkpt>
      <trkpt lat="47.77528" lon="-3.61254">
        <ele>22</ele>
        <time>2020-06-07T12:11:55Z</time>
      </trkpt>
      <trkpt lat="47.77524" lon="-3.61252">
        <ele>22.3</ele>
        <time>2020-06-07T12:11:56Z</time>
      </trkpt>
      <trkpt lat="47.77523" lon="-3.61251">
        <ele>22.4</ele>
        <time>2020-06-07T12:11:57Z</time>
      </trkpt>
      <trkpt lat="47.77519" lon="-3.61249">
        <ele>22.6</ele>
        <time>2020-06-07T12:11:58Z</time>
      </trkpt>
      <trkpt lat="47.77516" lon="-3.61248">
        <ele>22.8</ele>
        <time>2020-06-07T12:11:59Z</time>
      </trkpt>
      <trkpt lat="47.77512" lon="-3.61247">
        <ele>22.9</ele>
        <time>2020-06-07T12:12:00Z</time>
      </trkpt>
      <trkpt lat="47.77509" lon="-3.61247">
        <ele>23.1</ele>
        <time>2020-06-07T12:12:01Z</time>
      </trkpt>
      <trkpt lat="47.77506" lon="-3.61246">
        <ele>23.2</ele>
        <time>2020-06-07T12:12:02Z</time>
      </trkpt>
      <trkpt lat="47.77502" lon="-3.61246">
        <ele>23.3</ele>
        <time>2020-06-07T12:12:03Z</time>
      </trkpt>
      <trkpt lat="47.77498" lon="-3.61245">
        <ele>23.4</ele>
        <time>2020-06-07T12:12:04Z</time>
      </trkpt>
      <trkpt lat="47.77494" lon="-3.61243">
        <ele>23.7</ele>
        <time>2020-06-07T12:12:05Z</time>
      </trkpt>
      <trkpt lat="47.77491" lon="-3.61242">
        <ele>23.8</ele>
        <time>2020-06-07T12:12:06Z</time>
      </trkpt>
      <trkpt lat="47.77488" lon="-3.6124">
        <ele>23.9</ele>
        <time>2020-06-07T12:12:07Z</time>
      </trkpt>
      <trkpt lat="47.77484" lon="-3.61239">
        <ele>24</ele>
        <time>2020-06-07T12:12:08Z</time>
      </trkpt>
      <trkpt lat="47.7748" lon="-3.61237">
        <ele>24.1</ele>
        <time>2020-06-07T12:12:09Z</time>
      </trkpt>
      <trkpt lat="47.77476" lon="-3.61235">
        <ele>24.2</ele>
        <time>2020-06-07T12:12:10Z</time>
      </trkpt>
      <trkpt lat="47.77471" lon="-3.61233">
        <ele>24.3</ele>
        <time>2020-06-07T12:12:11Z</time>
      </trkpt>
      <trkpt lat="47.77466" lon="-3.6123">
        <ele>24.4</ele>
        <time>2020-06-07T12:12:12Z</time>
      </trkpt>
      <trkpt lat="47.77462" lon="-3.61228">
        <ele>24.4</ele>
        <time>2020-06-07T12:12:13Z</time>
      </trkpt>
      <trkpt lat="47.77457" lon="-3.61225">
        <ele>24.4</ele>
        <time>2020-06-07T12:12:14Z</time>
      </trkpt>
      <trkpt lat="47.77453" lon="-3.61223">
        <ele>24.4</ele>
        <time>2020-06-07T12:12:15Z</time>
      </trkpt>
      <trkpt lat="47.77448" lon="-3.61221">
        <ele>24.4</ele>
        <time>2020-06-07T12:12:16Z</time>
      </trkpt>
      <trkpt lat="47.77443" lon="-3.61219">
        <ele>24.3</ele>
        <time>2020-06-07T12:12:17Z</time>
      </trkpt>
      <trkpt lat="47.77438" lon="-3.61218">
        <ele>24.2</ele>
        <time>2020-06-07T12:12:18Z</time>
      </trkpt>
      <trkpt lat="47.77432" lon="-3.61217">
        <ele>24.1</ele>
        <time>2020-06-07T12:12:19Z</time>
      </trkpt>
      <trkpt lat="47.77427" lon="-3.61216">
        <ele>24</ele>
        <time>2020-06-07T12:12:20Z</time>
      </trkpt>
      <trkpt lat="47.77421" lon="-3.61214">
        <ele>23.9</ele>
        <time>2020-06-07T12:12:21Z</time>
      </trkpt>
      <trkpt lat="47.77415" lon="-3.61212">
        <ele>23.7</ele>
        <time>2020-06-07T12:12:22Z</time>
      </trkpt>
      <trkpt lat="47.77409" lon="-3.61209">
        <ele>23.5</ele>
        <time>2020-06-07T12:12:23Z</time>
      </trkpt>
      <trkpt lat="47.77401" lon="-3.61207">
        <ele>23.2</ele>
        <time>2020-06-07T12:12:24Z</time>
      </trkpt>
      <trkpt lat="47.77394" lon="-3.61205">
        <ele>23</ele>
        <time>2020-06-07T12:12:25Z</time>
      </trkpt>
      <trkpt lat="47.77386" lon="-3.61203">
        <ele>22.8</ele>
        <time>2020-06-07T12:12:26Z</time>
      </trkpt>
      <trkpt lat="47.77379" lon="-3.61201">
        <ele>22.6</ele>
        <time>2020-06-07T12:12:27Z</time>
      </trkpt>
      <trkpt lat="47.77369" lon="-3.61199">
        <ele>22.4</ele>
        <time>2020-06-07T12:12:28Z</time>
      </trkpt>
      <trkpt lat="47.77361" lon="-3.61194">
        <ele>22.3</ele>
        <time>2020-06-07T12:12:29Z</time>
      </trkpt>
      <trkpt lat="47.77353" lon="-3.61189">
        <ele>22.2</ele>
        <time>2020-06-07T12:12:30Z</time>
      </trkpt>
      <trkpt lat="47.77347" lon="-3.61185">
        <ele>22.2</ele>
        <time>2020-06-07T12:12:31Z</time>
      </trkpt>
      <trkpt lat="47.77341" lon="-3.6118">
        <ele>22.2</ele>
        <time>2020-06-07T12:12:32Z</time>
      </trkpt>
      <trkpt lat="47.77334" lon="-3.61177">
        <ele>22.2</ele>
        <time>2020-06-07T12:12:33Z</time>
      </trkpt>
      <trkpt lat="47.77329" lon="-3.61175">
        <ele>22.2</ele>
        <time>2020-06-07T12:12:34Z</time>
      </trkpt>
      <trkpt lat="47.77321" lon="-3.61173">
        <ele>22.1</ele>
        <time>2020-06-07T12:12:35Z</time>
      </trkpt>
      <trkpt lat="47.77315" lon="-3.6117">
        <ele>22.1</ele>
        <time>2020-06-07T12:12:36Z</time>
      </trkpt>
      <trkpt lat="47.77308" lon="-3.61165">
        <ele>22</ele>
        <time>2020-06-07T12:12:37Z</time>
      </trkpt>
      <trkpt lat="47.77303" lon="-3.6116">
        <ele>21.9</ele>
        <time>2020-06-07T12:12:38Z</time>
      </trkpt>
      <trkpt lat="47.77297" lon="-3.61154">
        <ele>21.8</ele>
        <time>2020-06-07T12:12:39Z</time>
      </trkpt>
      <trkpt lat="47.77293" lon="-3.61148">
        <ele>21.7</ele>
        <time>2020-06-07T12:12:40Z</time>
      </trkpt>
      <trkpt lat="47.7729" lon="-3.61142">
        <ele>21.4</ele>
        <time>2020-06-07T12:12:41Z</time>
      </trkpt>
      <trkpt lat="47.77289" lon="-3.61137">
        <ele>21.2</ele>
        <time>2020-06-07T12:12:42Z</time>
      </trkpt>
      <trkpt lat="47.77289" lon="-3.6113">
        <ele>21</ele>
        <time>2020-06-07T12:12:43Z</time>
      </trkpt>
      <trkpt lat="47.7729" lon="-3.61123">
        <ele>20.7</ele>
        <time>2020-06-07T12:12:44Z</time>
      </trkpt>
      <trkpt lat="47.77291" lon="-3.61117">
        <ele>20.5</ele>
        <time>2020-06-07T12:12:45Z</time>
      </trkpt>
      <trkpt lat="47.77293" lon="-3.61111">
        <ele>20</ele>
        <time>2020-06-07T12:12:46Z</time>
      </trkpt>
      <trkpt lat="47.77295" lon="-3.61105">
        <ele>19.5</ele>
        <time>2020-06-07T12:12:47Z</time>
      </trkpt>
      <trkpt lat="47.77298" lon="-3.611">
        <ele>19</ele>
        <time>2020-06-07T12:12:48Z</time>
      </trkpt>
      <trkpt lat="47.77298" lon="-3.61093">
        <ele>18.5</ele>
        <time>2020-06-07T12:12:49Z</time>
      </trkpt>
      <trkpt lat="47.77299" lon="-3.61087">
        <ele>18</ele>
        <time>2020-06-07T12:12:50Z</time>
      </trkpt>
      <trkpt lat="47.773" lon="-3.61083">
        <ele>17.6</ele>
        <time>2020-06-07T12:12:51Z</time>
      </trkpt>
      <trkpt lat="47.77301" lon="-3.61079">
        <ele>17.2</ele>
        <time>2020-06-07T12:12:52Z</time>
      </trkpt>
      <trkpt lat="47.77301" lon="-3.61068">
        <ele>16.2</ele>
        <time>2020-06-07T12:12:53Z</time>
      </trkpt>
      <trkpt lat="47.77302" lon="-3.61064">
        <ele>15.7</ele>
        <time>2020-06-07T12:12:54Z</time>
      </trkpt>
      <trkpt lat="47.77302" lon="-3.61056">
        <ele>14.8</ele>
        <time>2020-06-07T12:12:55Z</time>
      </trkpt>
      <trkpt lat="47.77301" lon="-3.6105">
        <ele>14.2</ele>
        <time>2020-06-07T12:12:56Z</time>
      </trkpt>
      <trkpt lat="47.77301" lon="-3.61048">
        <ele>14.3</ele>
        <time>2020-06-07T12:12:57Z</time>
      </trkpt>
      <trkpt lat="47.77301" lon="-3.61048">
        <ele>14.4</ele>
        <time>2020-06-07T12:12:58Z</time>
      </trkpt>
      <trkpt lat="47.77299" lon="-3.61048">
        <ele>14.6</ele>
        <time>2020-06-07T12:12:59Z</time>
      </trkpt>
      <trkpt lat="47.77296" lon="-3.61049">
        <ele>14.8</ele>
        <time>2020-06-07T12:13:00Z</time>
      </trkpt>
      <trkpt lat="47.77295" lon="-3.6105">
        <ele>14.9</ele>
        <time>2020-06-07T12:13:01Z</time>
      </trkpt>
      <trkpt lat="47.7729" lon="-3.61051">
        <ele>15.5</ele>
        <time>2020-06-07T12:13:02Z</time>
      </trkpt>
      <trkpt lat="47.77285" lon="-3.61053">
        <ele>15.8</ele>
        <time>2020-06-07T12:13:03Z</time>
      </trkpt>
      <trkpt lat="47.77281" lon="-3.61053">
        <ele>16.3</ele>
        <time>2020-06-07T12:13:04Z</time>
      </trkpt>
      <trkpt lat="47.77277" lon="-3.61052">
        <ele>16.6</ele>
        <time>2020-06-07T12:13:05Z</time>
      </trkpt>
      <trkpt lat="47.77273" lon="-3.61051">
        <ele>17.1</ele>
        <time>2020-06-07T12:13:06Z</time>
      </trkpt>
      <trkpt lat="47.77271" lon="-3.61051">
        <ele>17.2</ele>
        <time>2020-06-07T12:13:07Z</time>
      </trkpt>
      <trkpt lat="47.77268" lon="-3.61051">
        <ele>17.4</ele>
        <time>2020-06-07T12:13:08Z</time>
      </trkpt>
      <trkpt lat="47.77267" lon="-3.61051">
        <ele>17.7</ele>
        <time>2020-06-07T12:13:09Z</time>
      </trkpt>
      <trkpt lat="47.77265" lon="-3.6105">
        <ele>17.8</ele>
        <time>2020-06-07T12:13:10Z</time>
      </trkpt>
      <trkpt lat="47.77263" lon="-3.61049">
        <ele>17.9</ele>
        <time>2020-06-07T12:13:11Z</time>
      </trkpt>
      <trkpt lat="47.77262" lon="-3.61049">
        <ele>18</ele>
        <time>2020-06-07T12:13:12Z</time>
      </trkpt>
      <trkpt lat="47.77259" lon="-3.61047">
        <ele>18.2</ele>
        <time>2020-06-07T12:13:13Z</time>
      </trkpt>
      <trkpt lat="47.77256" lon="-3.61046">
        <ele>18.3</ele>
        <time>2020-06-07T12:13:14Z</time>
      </trkpt>
      <trkpt lat="47.77252" lon="-3.61047">
        <ele>18.5</ele>
        <time>2020-06-07T12:13:15Z</time>
      </trkpt>
      <trkpt lat="47.77248" lon="-3.61047">
        <ele>18.8</ele>
        <time>2020-06-07T12:13:16Z</time>
      </trkpt>
      <trkpt lat="47.77243" lon="-3.61047">
        <ele>18.8</ele>
        <time>2020-06-07T12:13:17Z</time>
      </trkpt>
      <trkpt lat="47.77239" lon="-3.61046">
        <ele>18.6</ele>
        <time>2020-06-07T12:13:18Z</time>
      </trkpt>
      <trkpt lat="47.77235" lon="-3.61045">
        <ele>18.7</ele>
        <time>2020-06-07T12:13:19Z</time>
      </trkpt>
      <trkpt lat="47.77232" lon="-3.61043">
        <ele>18.7</ele>
        <time>2020-06-07T12:13:20Z</time>
      </trkpt>
      <trkpt lat="47.77229" lon="-3.61041">
        <ele>18.6</ele>
        <time>2020-06-07T12:13:21Z</time>
      </trkpt>
      <trkpt lat="47.77228" lon="-3.6104">
        <ele>18.7</ele>
        <time>2020-06-07T12:13:22Z</time>
      </trkpt>
      <trkpt lat="47.77224" lon="-3.61038">
        <ele>18.7</ele>
        <time>2020-06-07T12:13:23Z</time>
      </trkpt>
      <trkpt lat="47.77223" lon="-3.61038">
        <ele>18.8</ele>
        <time>2020-06-07T12:13:24Z</time>
      </trkpt>
      <trkpt lat="47.77222" lon="-3.61038">
        <ele>18.9</ele>
        <time>2020-06-07T12:13:25Z</time>
      </trkpt>
      <trkpt lat="47.7722" lon="-3.61037">
        <ele>18.9</ele>
        <time>2020-06-07T12:13:26Z</time>
      </trkpt>
      <trkpt lat="47.77217" lon="-3.61036">
        <ele>19</ele>
        <time>2020-06-07T12:13:27Z</time>
      </trkpt>
      <trkpt lat="47.77214" lon="-3.61033">
        <ele>19.2</ele>
        <time>2020-06-07T12:13:28Z</time>
      </trkpt>
      <trkpt lat="47.77214" lon="-3.61033">
        <ele>19.2</ele>
        <time>2020-06-07T12:13:29Z</time>
      </trkpt>
      <trkpt lat="47.77212" lon="-3.61029">
        <ele>19.3</ele>
        <time>2020-06-07T12:13:30Z</time>
      </trkpt>
      <trkpt lat="47.77211" lon="-3.61027">
        <ele>19.4</ele>
        <time>2020-06-07T12:13:31Z</time>
      </trkpt>
      <trkpt lat="47.7721" lon="-3.61023">
        <ele>19.2</ele>
        <time>2020-06-07T12:13:32Z</time>
      </trkpt>
      <trkpt lat="47.77209" lon="-3.61021">
        <ele>19.3</ele>
        <time>2020-06-07T12:13:33Z</time>
      </trkpt>
      <trkpt lat="47.77209" lon="-3.61017">
        <ele>18.8</ele>
        <time>2020-06-07T12:13:34Z</time>
      </trkpt>
      <trkpt lat="47.77208" lon="-3.61014">
        <ele>17.9</ele>
        <time>2020-06-07T12:13:35Z</time>
      </trkpt>
      <trkpt lat="47.77208" lon="-3.61008">
        <ele>16.5</ele>
        <time>2020-06-07T12:13:36Z</time>
      </trkpt>
      <trkpt lat="47.77207" lon="-3.61004">
        <ele>14.4</ele>
        <time>2020-06-07T12:13:37Z</time>
      </trkpt>
      <trkpt lat="47.77206" lon="-3.61003">
        <ele>12.2</ele>
        <time>2020-06-07T12:13:38Z</time>
      </trkpt>
      <trkpt lat="47.77205" lon="-3.61">
        <ele>12.3</ele>
        <time>2020-06-07T12:13:39Z</time>
      </trkpt>
      <trkpt lat="47.77193" lon="-3.60971">
        <ele>4.4</ele>
        <time>2020-06-07T12:22:30Z</time>
      </trkpt>
      <trkpt lat="47.77193" lon="-3.6097">
        <ele>4.4</ele>
        <time>2020-06-07T12:22:31Z</time>
      </trkpt>
      <trkpt lat="47.77192" lon="-3.60968">
        <ele>4.4</ele>
        <time>2020-06-07T12:22:32Z</time>
      </trkpt>
      <trkpt lat="47.77192" lon="-3.60969">
        <ele>4.4</ele>
        <time>2020-06-07T12:22:33Z</time>
      </trkpt>
      <trkpt lat="47.77192" lon="-3.60969">
        <ele>4.4</ele>
        <time>2020-06-07T12:22:34Z</time>
      </trkpt>
      <trkpt lat="47.77192" lon="-3.6097">
        <ele>4.4</ele>
        <time>2020-06-07T12:22:35Z</time>
      </trkpt>
      <trkpt lat="47.77192" lon="-3.6097">
        <ele>4.4</ele>
        <time>2020-06-07T12:22:36Z</time>
      </trkpt>
      <trkpt lat="47.77192" lon="-3.6097">
        <ele>4.4</ele>
        <time>2020-06-07T12:22:37Z</time>
      </trkpt>
      <trkpt lat="47.77191" lon="-3.60971">
        <ele>4.4</ele>
        <time>2020-06-07T12:22:38Z</time>
      </trkpt>
      <trkpt lat="47.77191" lon="-3.60971">
        <ele>4.4</ele>
        <time>2020-06-07T12:22:39Z</time>
      </trkpt>
      <trkpt lat="47.77191" lon="-3.60971">
        <ele>4.4</ele>
        <time>2020-06-07T12:22:40Z</time>
      </trkpt>
      <trkpt lat="47.77191" lon="-3.6097">
        <ele>4.4</ele>
        <time>2020-06-07T12:22:41Z</time>
      </trkpt>
      <trkpt lat="47.77192" lon="-3.60969">
        <ele>4.4</ele>
        <time>2020-06-07T12:22:42Z</time>
      </trkpt>
      <trkpt lat="47.77192" lon="-3.60968">
        <ele>4.3</ele>
        <time>2020-06-07T12:22:43Z</time>
      </trkpt>
      <trkpt lat="47.77192" lon="-3.60969">
        <ele>4.3</ele>
        <time>2020-06-07T12:22:44Z</time>
      </trkpt>
      <trkpt lat="47.77192" lon="-3.6097">
        <ele>4.3</ele>
        <time>2020-06-07T12:22:45Z</time>
      </trkpt>
      <trkpt lat="47.77192" lon="-3.60971">
        <ele>4.3</ele>
        <time>2020-06-07T12:22:46Z</time>
      </trkpt>
      <trkpt lat="47.77192" lon="-3.60972">
        <ele>4.3</ele>
        <time>2020-06-07T12:22:47Z</time>
      </trkpt>
      <trkpt lat="47.77192" lon="-3.60974">
        <ele>4.3</ele>
        <time>2020-06-07T12:22:48Z</time>
      </trkpt>
      <trkpt lat="47.77192" lon="-3.60976">
        <ele>4.3</ele>
        <time>2020-06-07T12:22:49Z</time>
      </trkpt>
      <trkpt lat="47.77192" lon="-3.60977">
        <ele>4.3</ele>
        <time>2020-06-07T12:22:50Z</time>
      </trkpt>
      <trkpt lat="47.77192" lon="-3.60978">
        <ele>4.3</ele>
        <time>2020-06-07T12:22:51Z</time>
      </trkpt>
      <trkpt lat="47.77192" lon="-3.60978">
        <ele>4.3</ele>
        <time>2020-06-07T12:22:52Z</time>
      </trkpt>
      <trkpt lat="47.77191" lon="-3.60978">
        <ele>4.3</ele>
        <time>2020-06-07T12:22:53Z</time>
      </trkpt>
      <trkpt lat="47.77191" lon="-3.60977">
        <ele>4.3</ele>
        <time>2020-06-07T12:22:54Z</time>
      </trkpt>
      <trkpt lat="47.77191" lon="-3.60978">
        <ele>4.3</ele>
        <time>2020-06-07T12:22:55Z</time>
      </trkpt>
      <trkpt lat="47.77189" lon="-3.60979">
        <ele>4.3</ele>
        <time>2020-06-07T12:22:56Z</time>
      </trkpt>
      <trkpt lat="47.77188" lon="-3.6098">
        <ele>4.3</ele>
        <time>2020-06-07T12:22:57Z</time>
      </trkpt>
      <trkpt lat="47.77187" lon="-3.60981">
        <ele>4.3</ele>
        <time>2020-06-07T12:22:58Z</time>
      </trkpt>
      <trkpt lat="47.77186" lon="-3.60982">
        <ele>4.3</ele>
        <time>2020-06-07T12:22:59Z</time>
      </trkpt>
      <trkpt lat="47.77184" lon="-3.60983">
        <ele>4.3</ele>
        <time>2020-06-07T12:23:00Z</time>
      </trkpt>
      <trkpt lat="47.77185" lon="-3.60982">
        <ele>4.3</ele>
        <time>2020-06-07T12:23:01Z</time>
      </trkpt>
      <trkpt lat="47.77185" lon="-3.60981">
        <ele>4.3</ele>
        <time>2020-06-07T12:23:02Z</time>
      </trkpt>
      <trkpt lat="47.77185" lon="-3.6098">
        <ele>4.3</ele>
        <time>2020-06-07T12:23:03Z</time>
      </trkpt>
      <trkpt lat="47.77186" lon="-3.60978">
        <ele>4.3</ele>
        <time>2020-06-07T12:23:04Z</time>
      </trkpt>
      <trkpt lat="47.77186" lon="-3.60977">
        <ele>4.3</ele>
        <time>2020-06-07T12:23:05Z</time>
      </trkpt>
      <trkpt lat="47.77186" lon="-3.60976">
        <ele>4.3</ele>
        <time>2020-06-07T12:23:06Z</time>
      </trkpt>
      <trkpt lat="47.77187" lon="-3.60976">
        <ele>4.3</ele>
        <time>2020-06-07T12:23:07Z</time>
      </trkpt>
      <trkpt lat="47.77187" lon="-3.60975">
        <ele>4.3</ele>
        <time>2020-06-07T12:23:08Z</time>
      </trkpt>
      <trkpt lat="47.77187" lon="-3.60975">
        <ele>4.3</ele>
        <time>2020-06-07T12:23:09Z</time>
      </trkpt>
      <trkpt lat="47.77188" lon="-3.60975">
        <ele>4.3</ele>
        <time>2020-06-07T12:23:10Z</time>
      </trkpt>
      <trkpt lat="47.77188" lon="-3.60975">
        <ele>4.3</ele>
        <time>2020-06-07T12:23:11Z</time>
      </trkpt>
      <trkpt lat="47.77189" lon="-3.60974">
        <ele>4.2</ele>
        <time>2020-06-07T12:23:12Z</time>
      </trkpt>
      <trkpt lat="47.77189" lon="-3.60973">
        <ele>4.2</ele>
        <time>2020-06-07T12:23:13Z</time>
      </trkpt>
      <trkpt lat="47.77189" lon="-3.60973">
        <ele>4.2</ele>
        <time>2020-06-07T12:23:14Z</time>
      </trkpt>
      <trkpt lat="47.77189" lon="-3.60973">
        <ele>4.2</ele>
        <time>2020-06-07T12:23:15Z</time>
      </trkpt>
      <trkpt lat="47.77185" lon="-3.60979">
        <ele>4.2</ele>
        <time>2020-06-07T12:23:32Z</time>
      </trkpt>
      <trkpt lat="47.77185" lon="-3.60981">
        <ele>4.2</ele>
        <time>2020-06-07T12:23:33Z</time>
      </trkpt>
      <trkpt lat="47.77185" lon="-3.60983">
        <ele>4.2</ele>
        <time>2020-06-07T12:23:34Z</time>
      </trkpt>
      <trkpt lat="47.77186" lon="-3.60984">
        <ele>4.2</ele>
        <time>2020-06-07T12:23:35Z</time>
      </trkpt>
      <trkpt lat="47.77185" lon="-3.60985">
        <ele>4.2</ele>
        <time>2020-06-07T12:23:36Z</time>
      </trkpt>
      <trkpt lat="47.77185" lon="-3.60986">
        <ele>4.2</ele>
        <time>2020-06-07T12:23:37Z</time>
      </trkpt>
      <trkpt lat="47.77185" lon="-3.60987">
        <ele>4.2</ele>
        <time>2020-06-07T12:23:38Z</time>
      </trkpt>
      <trkpt lat="47.77185" lon="-3.60987">
        <ele>4.2</ele>
        <time>2020-06-07T12:23:39Z</time>
      </trkpt>
      <trkpt lat="47.77185" lon="-3.60987">
        <ele>4.2</ele>
        <time>2020-06-07T12:23:40Z</time>
      </trkpt>
      <trkpt lat="47.77185" lon="-3.60987">
        <ele>4.2</ele>
        <time>2020-06-07T12:23:41Z</time>
      </trkpt>
      <trkpt lat="47.77185" lon="-3.60987">
        <ele>4.2</ele>
        <time>2020-06-07T12:23:42Z</time>
      </trkpt>
      <trkpt lat="47.77185" lon="-3.60987">
        <ele>4.2</ele>
        <time>2020-06-07T12:23:43Z</time>
      </trkpt>
      <trkpt lat="47.77184" lon="-3.60989">
        <ele>4.2</ele>
        <time>2020-06-07T12:23:44Z</time>
      </trkpt>
      <trkpt lat="47.77185" lon="-3.60988">
        <ele>4.2</ele>
        <time>2020-06-07T12:23:45Z</time>
      </trkpt>
      <trkpt lat="47.77185" lon="-3.60988">
        <ele>4.2</ele>
        <time>2020-06-07T12:23:46Z</time>
      </trkpt>
      <trkpt lat="47.77186" lon="-3.60988">
        <ele>4.2</ele>
        <time>2020-06-07T12:23:47Z</time>
      </trkpt>
      <trkpt lat="47.77186" lon="-3.60988">
        <ele>4.2</ele>
        <time>2020-06-07T12:23:48Z</time>
      </trkpt>
      <trkpt lat="47.77186" lon="-3.60988">
        <ele>4.2</ele>
        <time>2020-06-07T12:23:49Z</time>
      </trkpt>
      <trkpt lat="47.77196" lon="-3.60982">
        <ele>4.2</ele>
        <time>2020-06-07T12:37:28Z</time>
      </trkpt>
      <trkpt lat="47.77196" lon="-3.60981">
        <ele>4.2</ele>
        <time>2020-06-07T12:37:29Z</time>
      </trkpt>
      <trkpt lat="47.77196" lon="-3.6098">
        <ele>4.1</ele>
        <time>2020-06-07T12:37:30Z</time>
      </trkpt>
      <trkpt lat="47.77197" lon="-3.60981">
        <ele>4.1</ele>
        <time>2020-06-07T12:37:31Z</time>
      </trkpt>
      <trkpt lat="47.77197" lon="-3.6098">
        <ele>4.1</ele>
        <time>2020-06-07T12:37:32Z</time>
      </trkpt>
      <trkpt lat="47.77197" lon="-3.60979">
        <ele>4.1</ele>
        <time>2020-06-07T12:37:33Z</time>
      </trkpt>
      <trkpt lat="47.77197" lon="-3.60979">
        <ele>4.1</ele>
        <time>2020-06-07T12:37:34Z</time>
      </trkpt>
      <trkpt lat="47.77197" lon="-3.60979">
        <ele>4.1</ele>
        <time>2020-06-07T12:37:35Z</time>
      </trkpt>
      <trkpt lat="47.77197" lon="-3.60978">
        <ele>4.1</ele>
        <time>2020-06-07T12:37:36Z</time>
      </trkpt>
      <trkpt lat="47.77197" lon="-3.60978">
        <ele>4.1</ele>
        <time>2020-06-07T12:37:37Z</time>
      </trkpt>
      <trkpt lat="47.77197" lon="-3.60978">
        <ele>4.1</ele>
        <time>2020-06-07T12:37:38Z</time>
      </trkpt>
      <trkpt lat="47.77197" lon="-3.60977">
        <ele>4.1</ele>
        <time>2020-06-07T12:37:39Z</time>
      </trkpt>
      <trkpt lat="47.77198" lon="-3.60977">
        <ele>4.1</ele>
        <time>2020-06-07T12:37:40Z</time>
      </trkpt>
      <trkpt lat="47.77198" lon="-3.60977">
        <ele>4.1</ele>
        <time>2020-06-07T12:37:41Z</time>
      </trkpt>
      <trkpt lat="47.77198" lon="-3.60977">
        <ele>4.1</ele>
        <time>2020-06-07T12:37:42Z</time>
      </trkpt>
      <trkpt lat="47.77198" lon="-3.60977">
        <ele>4.1</ele>
        <time>2020-06-07T12:37:43Z</time>
      </trkpt>
      <trkpt lat="47.77198" lon="-3.60977">
        <ele>4.1</ele>
        <time>2020-06-07T12:37:44Z</time>
      </trkpt>
      <trkpt lat="47.77192" lon="-3.60967">
        <ele>4.1</ele>
        <time>2020-06-07T12:43:51Z</time>
      </trkpt>
      <trkpt lat="47.77192" lon="-3.60966">
        <ele>4.1</ele>
        <time>2020-06-07T12:43:52Z</time>
      </trkpt>
      <trkpt lat="47.77192" lon="-3.60966">
        <ele>4.1</ele>
        <time>2020-06-07T12:43:53Z</time>
      </trkpt>
      <trkpt lat="47.77192" lon="-3.60966">
        <ele>4.1</ele>
        <time>2020-06-07T12:43:54Z</time>
      </trkpt>
      <trkpt lat="47.77192" lon="-3.60966">
        <ele>4.1</ele>
        <time>2020-06-07T12:43:55Z</time>
      </trkpt>
      <trkpt lat="47.77192" lon="-3.60966">
        <ele>4.1</ele>
        <time>2020-06-07T12:43:56Z</time>
      </trkpt>
      <trkpt lat="47.77192" lon="-3.60966">
        <ele>4.1</ele>
        <time>2020-06-07T12:43:57Z</time>
      </trkpt>
      <trkpt lat="47.77193" lon="-3.60968">
        <ele>4.1</ele>
        <time>2020-06-07T12:43:58Z</time>
      </trkpt>
      <trkpt lat="47.77193" lon="-3.60968">
        <ele>4.1</ele>
        <time>2020-06-07T12:43:59Z</time>
      </trkpt>
      <trkpt lat="47.77193" lon="-3.60969">
        <ele>4.1</ele>
        <time>2020-06-07T12:44:00Z</time>
      </trkpt>
      <trkpt lat="47.77194" lon="-3.6097">
        <ele>4.1</ele>
        <time>2020-06-07T12:44:01Z</time>
      </trkpt>
      <trkpt lat="47.77194" lon="-3.6097">
        <ele>4.1</ele>
        <time>2020-06-07T12:44:02Z</time>
      </trkpt>
      <trkpt lat="47.77194" lon="-3.6097">
        <ele>4.1</ele>
        <time>2020-06-07T12:44:03Z</time>
      </trkpt>
      <trkpt lat="47.77194" lon="-3.6097">
        <ele>4.1</ele>
        <time>2020-06-07T12:44:04Z</time>
      </trkpt>
      <trkpt lat="47.77194" lon="-3.6097">
        <ele>4.1</ele>
        <time>2020-06-07T12:44:05Z</time>
      </trkpt>
      <trkpt lat="47.77194" lon="-3.6097">
        <ele>4.1</ele>
        <time>2020-06-07T12:44:06Z</time>
      </trkpt>
      <trkpt lat="47.77194" lon="-3.6097">
        <ele>4.1</ele>
        <time>2020-06-07T12:44:07Z</time>
      </trkpt>
      <trkpt lat="47.77194" lon="-3.6097">
        <ele>4.1</ele>
        <time>2020-06-07T12:44:08Z</time>
      </trkpt>
      <trkpt lat="47.77194" lon="-3.6097">
        <ele>4.1</ele>
        <time>2020-06-07T12:44:09Z</time>
      </trkpt>
      <trkpt lat="47.77194" lon="-3.6097">
        <ele>4.1</ele>
        <time>2020-06-07T12:44:10Z</time>
      </trkpt>
      <trkpt lat="47.77194" lon="-3.6097">
        <ele>4.1</ele>
        <time>2020-06-07T12:44:11Z</time>
      </trkpt>
      <trkpt lat="47.77194" lon="-3.6097">
        <ele>4.1</ele>
        <time>2020-06-07T12:44:12Z</time>
      </trkpt>
      <trkpt lat="47.77187" lon="-3.60964">
        <ele>4.1</ele>
        <time>2020-06-07T13:02:37Z</time>
      </trkpt>
      <trkpt lat="47.77186" lon="-3.60964">
        <ele>4.1</ele>
        <time>2020-06-07T13:02:38Z</time>
      </trkpt>
      <trkpt lat="47.77185" lon="-3.60965">
        <ele>4.1</ele>
        <time>2020-06-07T13:02:39Z</time>
      </trkpt>
      <trkpt lat="47.77184" lon="-3.60965">
        <ele>4.1</ele>
        <time>2020-06-07T13:02:40Z</time>
      </trkpt>
      <trkpt lat="47.77183" lon="-3.60966">
        <ele>4.1</ele>
        <time>2020-06-07T13:02:41Z</time>
      </trkpt>
      <trkpt lat="47.77183" lon="-3.60967">
        <ele>4.1</ele>
        <time>2020-06-07T13:02:42Z</time>
      </trkpt>
      <trkpt lat="47.77182" lon="-3.60967">
        <ele>4.1</ele>
        <time>2020-06-07T13:02:43Z</time>
      </trkpt>
      <trkpt lat="47.77181" lon="-3.60967">
        <ele>4.1</ele>
        <time>2020-06-07T13:02:44Z</time>
      </trkpt>
      <trkpt lat="47.77181" lon="-3.60968">
        <ele>4.1</ele>
        <time>2020-06-07T13:02:45Z</time>
      </trkpt>
      <trkpt lat="47.77181" lon="-3.60969">
        <ele>4.1</ele>
        <time>2020-06-07T13:02:46Z</time>
      </trkpt>
      <trkpt lat="47.7718" lon="-3.6097">
        <ele>4.1</ele>
        <time>2020-06-07T13:02:47Z</time>
      </trkpt>
      <trkpt lat="47.77178" lon="-3.60972">
        <ele>4.1</ele>
        <time>2020-06-07T13:02:48Z</time>
      </trkpt>
      <trkpt lat="47.77177" lon="-3.60973">
        <ele>4.1</ele>
        <time>2020-06-07T13:02:49Z</time>
      </trkpt>
      <trkpt lat="47.77176" lon="-3.60974">
        <ele>4.1</ele>
        <time>2020-06-07T13:02:50Z</time>
      </trkpt>
      <trkpt lat="47.77175" lon="-3.60975">
        <ele>4.1</ele>
        <time>2020-06-07T13:02:51Z</time>
      </trkpt>
      <trkpt lat="47.77174" lon="-3.60975">
        <ele>4.1</ele>
        <time>2020-06-07T13:02:52Z</time>
      </trkpt>
      <trkpt lat="47.77173" lon="-3.60977">
        <ele>4</ele>
        <time>2020-06-07T13:02:53Z</time>
      </trkpt>
      <trkpt lat="47.77172" lon="-3.60979">
        <ele>4</ele>
        <time>2020-06-07T13:02:54Z</time>
      </trkpt>
      <trkpt lat="47.77172" lon="-3.6098">
        <ele>4</ele>
        <time>2020-06-07T13:02:55Z</time>
      </trkpt>
      <trkpt lat="47.77171" lon="-3.60981">
        <ele>4</ele>
        <time>2020-06-07T13:02:56Z</time>
      </trkpt>
      <trkpt lat="47.7717" lon="-3.60982">
        <ele>4</ele>
        <time>2020-06-07T13:02:57Z</time>
      </trkpt>
      <trkpt lat="47.77169" lon="-3.60982">
        <ele>4</ele>
        <time>2020-06-07T13:02:58Z</time>
      </trkpt>
      <trkpt lat="47.77169" lon="-3.60982">
        <ele>4</ele>
        <time>2020-06-07T13:02:59Z</time>
      </trkpt>
      <trkpt lat="47.77168" lon="-3.60983">
        <ele>4</ele>
        <time>2020-06-07T13:03:00Z</time>
      </trkpt>
      <trkpt lat="47.77167" lon="-3.60983">
        <ele>4</ele>
        <time>2020-06-07T13:03:01Z</time>
      </trkpt>
      <trkpt lat="47.77166" lon="-3.60983">
        <ele>4</ele>
        <time>2020-06-07T13:03:02Z</time>
      </trkpt>
      <trkpt lat="47.77164" lon="-3.60983">
        <ele>4</ele>
        <time>2020-06-07T13:03:03Z</time>
      </trkpt>
      <trkpt lat="47.77163" lon="-3.60983">
        <ele>4</ele>
        <time>2020-06-07T13:03:04Z</time>
      </trkpt>
      <trkpt lat="47.77162" lon="-3.60983">
        <ele>4</ele>
        <time>2020-06-07T13:03:05Z</time>
      </trkpt>
      <trkpt lat="47.77162" lon="-3.60984">
        <ele>4</ele>
        <time>2020-06-07T13:03:06Z</time>
      </trkpt>
      <trkpt lat="47.77161" lon="-3.60985">
        <ele>4</ele>
        <time>2020-06-07T13:03:07Z</time>
      </trkpt>
      <trkpt lat="47.77162" lon="-3.60985">
        <ele>4</ele>
        <time>2020-06-07T13:03:08Z</time>
      </trkpt>
      <trkpt lat="47.77162" lon="-3.60985">
        <ele>4</ele>
        <time>2020-06-07T13:03:09Z</time>
      </trkpt>
      <trkpt lat="47.77161" lon="-3.60986">
        <ele>4</ele>
        <time>2020-06-07T13:03:10Z</time>
      </trkpt>
      <trkpt lat="47.77161" lon="-3.60985">
        <ele>4</ele>
        <time>2020-06-07T13:03:11Z</time>
      </trkpt>
      <trkpt lat="47.77161" lon="-3.60985">
        <ele>4</ele>
        <time>2020-06-07T13:03:12Z</time>
      </trkpt>
      <trkpt lat="47.7716" lon="-3.60985">
        <ele>4</ele>
        <time>2020-06-07T13:03:13Z</time>
      </trkpt>
      <trkpt lat="47.7716" lon="-3.60986">
        <ele>4</ele>
        <time>2020-06-07T13:03:14Z</time>
      </trkpt>
      <trkpt lat="47.7716" lon="-3.60986">
        <ele>4</ele>
        <time>2020-06-07T13:03:15Z</time>
      </trkpt>
      <trkpt lat="47.7716" lon="-3.60986">
        <ele>4</ele>
        <time>2020-06-07T13:03:16Z</time>
      </trkpt>
      <trkpt lat="47.77161" lon="-3.60986">
        <ele>4</ele>
        <time>2020-06-07T13:03:17Z</time>
      </trkpt>
      <trkpt lat="47.77165" lon="-3.60977">
        <ele>4</ele>
        <time>2020-06-07T13:05:29Z</time>
      </trkpt>
      <trkpt lat="47.77167" lon="-3.60977">
        <ele>4</ele>
        <time>2020-06-07T13:05:30Z</time>
      </trkpt>
      <trkpt lat="47.77169" lon="-3.60977">
        <ele>4</ele>
        <time>2020-06-07T13:05:31Z</time>
      </trkpt>
      <trkpt lat="47.7717" lon="-3.60977">
        <ele>4</ele>
        <time>2020-06-07T13:05:32Z</time>
      </trkpt>
      <trkpt lat="47.77173" lon="-3.60975">
        <ele>4</ele>
        <time>2020-06-07T13:05:33Z</time>
      </trkpt>
      <trkpt lat="47.77174" lon="-3.60975">
        <ele>4</ele>
        <time>2020-06-07T13:05:34Z</time>
      </trkpt>
      <trkpt lat="47.77174" lon="-3.60974">
        <ele>4</ele>
        <time>2020-06-07T13:05:35Z</time>
      </trkpt>
      <trkpt lat="47.77175" lon="-3.60973">
        <ele>4</ele>
        <time>2020-06-07T13:05:36Z</time>
      </trkpt>
      <trkpt lat="47.77176" lon="-3.60972">
        <ele>4</ele>
        <time>2020-06-07T13:05:37Z</time>
      </trkpt>
      <trkpt lat="47.77177" lon="-3.60971">
        <ele>4</ele>
        <time>2020-06-07T13:05:38Z</time>
      </trkpt>
      <trkpt lat="47.77177" lon="-3.60971">
        <ele>4</ele>
        <time>2020-06-07T13:05:39Z</time>
      </trkpt>
      <trkpt lat="47.77178" lon="-3.60972">
        <ele>4</ele>
        <time>2020-06-07T13:05:40Z</time>
      </trkpt>
      <trkpt lat="47.7718" lon="-3.60973">
        <ele>4</ele>
        <time>2020-06-07T13:05:41Z</time>
      </trkpt>
      <trkpt lat="47.7718" lon="-3.60973">
        <ele>4</ele>
        <time>2020-06-07T13:05:42Z</time>
      </trkpt>
      <trkpt lat="47.77182" lon="-3.60974">
        <ele>4</ele>
        <time>2020-06-07T13:05:43Z</time>
      </trkpt>
      <trkpt lat="47.77183" lon="-3.60973">
        <ele>4</ele>
        <time>2020-06-07T13:05:44Z</time>
      </trkpt>
      <trkpt lat="47.77184" lon="-3.60973">
        <ele>4</ele>
        <time>2020-06-07T13:05:45Z</time>
      </trkpt>
      <trkpt lat="47.77184" lon="-3.60973">
        <ele>4</ele>
        <time>2020-06-07T13:05:46Z</time>
      </trkpt>
      <trkpt lat="47.77185" lon="-3.60973">
        <ele>4</ele>
        <time>2020-06-07T13:05:47Z</time>
      </trkpt>
      <trkpt lat="47.77185" lon="-3.60973">
        <ele>4</ele>
        <time>2020-06-07T13:05:48Z</time>
      </trkpt>
      <trkpt lat="47.77185" lon="-3.60973">
        <ele>4</ele>
        <time>2020-06-07T13:05:49Z</time>
      </trkpt>
      <trkpt lat="47.77185" lon="-3.60973">
        <ele>4</ele>
        <time>2020-06-07T13:05:50Z</time>
      </trkpt>
      <trkpt lat="47.77185" lon="-3.60973">
        <ele>4</ele>
        <time>2020-06-07T13:05:51Z</time>
      </trkpt>
      <trkpt lat="47.77185" lon="-3.60973">
        <ele>4</ele>
        <time>2020-06-07T13:05:52Z</time>
      </trkpt>
      <trkpt lat="47.77185" lon="-3.60972">
        <ele>4</ele>
        <time>2020-06-07T13:05:53Z</time>
      </trkpt>
      <trkpt lat="47.77184" lon="-3.60972">
        <ele>4</ele>
        <time>2020-06-07T13:05:54Z</time>
      </trkpt>
      <trkpt lat="47.77184" lon="-3.60972">
        <ele>4</ele>
        <time>2020-06-07T13:05:55Z</time>
      </trkpt>
      <trkpt lat="47.77184" lon="-3.60972">
        <ele>4</ele>
        <time>2020-06-07T13:05:56Z</time>
      </trkpt>
      <trkpt lat="47.77191" lon="-3.60969">
        <ele>4</ele>
        <time>2020-06-07T13:06:43Z</time>
      </trkpt>
      <trkpt lat="47.77192" lon="-3.60969">
        <ele>4</ele>
        <time>2020-06-07T13:06:44Z</time>
      </trkpt>
      <trkpt lat="47.77193" lon="-3.60969">
        <ele>4</ele>
        <time>2020-06-07T13:06:45Z</time>
      </trkpt>
      <trkpt lat="47.77193" lon="-3.60969">
        <ele>4</ele>
        <time>2020-06-07T13:06:46Z</time>
      </trkpt>
      <trkpt lat="47.77192" lon="-3.6097">
        <ele>4</ele>
        <time>2020-06-07T13:06:47Z</time>
      </trkpt>
      <trkpt lat="47.77192" lon="-3.6097">
        <ele>4</ele>
        <time>2020-06-07T13:06:48Z</time>
      </trkpt>
      <trkpt lat="47.77193" lon="-3.6097">
        <ele>4</ele>
        <time>2020-06-07T13:06:49Z</time>
      </trkpt>
      <trkpt lat="47.77193" lon="-3.60971">
        <ele>4</ele>
        <time>2020-06-07T13:06:50Z</time>
      </trkpt>
      <trkpt lat="47.77193" lon="-3.60971">
        <ele>4</ele>
        <time>2020-06-07T13:06:51Z</time>
      </trkpt>
      <trkpt lat="47.77194" lon="-3.60972">
        <ele>4</ele>
        <time>2020-06-07T13:06:52Z</time>
      </trkpt>
      <trkpt lat="47.77194" lon="-3.60972">
        <ele>4</ele>
        <time>2020-06-07T13:06:53Z</time>
      </trkpt>
      <trkpt lat="47.77194" lon="-3.60973">
        <ele>4</ele>
        <time>2020-06-07T13:06:54Z</time>
      </trkpt>
      <trkpt lat="47.77195" lon="-3.60972">
        <ele>4</ele>
        <time>2020-06-07T13:06:55Z</time>
      </trkpt>
      <trkpt lat="47.77195" lon="-3.60972">
        <ele>4</ele>
        <time>2020-06-07T13:06:56Z</time>
      </trkpt>
      <trkpt lat="47.77195" lon="-3.60972">
        <ele>4</ele>
        <time>2020-06-07T13:06:57Z</time>
      </trkpt>
      <trkpt lat="47.77195" lon="-3.60972">
        <ele>4</ele>
        <time>2020-06-07T13:06:58Z</time>
      </trkpt>
      <trkpt lat="47.77195" lon="-3.60973">
        <ele>4</ele>
        <time>2020-06-07T13:06:59Z</time>
      </trkpt>
      <trkpt lat="47.77194" lon="-3.60973">
        <ele>4</ele>
        <time>2020-06-07T13:07:00Z</time>
      </trkpt>
      <trkpt lat="47.77194" lon="-3.60974">
        <ele>4</ele>
        <time>2020-06-07T13:07:01Z</time>
      </trkpt>
      <trkpt lat="47.77193" lon="-3.60974">
        <ele>4</ele>
        <time>2020-06-07T13:07:02Z</time>
      </trkpt>
      <trkpt lat="47.77192" lon="-3.60974">
        <ele>4</ele>
        <time>2020-06-07T13:07:03Z</time>
      </trkpt>
      <trkpt lat="47.77191" lon="-3.60973">
        <ele>4</ele>
        <time>2020-06-07T13:07:04Z</time>
      </trkpt>
      <trkpt lat="47.7719" lon="-3.60972">
        <ele>4</ele>
        <time>2020-06-07T13:07:05Z</time>
      </trkpt>
      <trkpt lat="47.7719" lon="-3.60971">
        <ele>4</ele>
        <time>2020-06-07T13:07:06Z</time>
      </trkpt>
      <trkpt lat="47.77188" lon="-3.60971">
        <ele>4</ele>
        <time>2020-06-07T13:07:07Z</time>
      </trkpt>
      <trkpt lat="47.77187" lon="-3.60971">
        <ele>4</ele>
        <time>2020-06-07T13:07:08Z</time>
      </trkpt>
      <trkpt lat="47.77186" lon="-3.60971">
        <ele>4</ele>
        <time>2020-06-07T13:07:09Z</time>
      </trkpt>
      <trkpt lat="47.77187" lon="-3.60971">
        <ele>4</ele>
        <time>2020-06-07T13:07:10Z</time>
      </trkpt>
      <trkpt lat="47.77187" lon="-3.60971">
        <ele>4</ele>
        <time>2020-06-07T13:07:11Z</time>
      </trkpt>
      <trkpt lat="47.77186" lon="-3.6097">
        <ele>4</ele>
        <time>2020-06-07T13:07:12Z</time>
      </trkpt>
      <trkpt lat="47.77186" lon="-3.60969">
        <ele>4</ele>
        <time>2020-06-07T13:07:13Z</time>
      </trkpt>
      <trkpt lat="47.77186" lon="-3.60969">
        <ele>4</ele>
        <time>2020-06-07T13:07:14Z</time>
      </trkpt>
      <trkpt lat="47.77186" lon="-3.60968">
        <ele>4</ele>
        <time>2020-06-07T13:07:15Z</time>
      </trkpt>
      <trkpt lat="47.77186" lon="-3.60969">
        <ele>4</ele>
        <time>2020-06-07T13:07:16Z</time>
      </trkpt>
      <trkpt lat="47.77185" lon="-3.60969">
        <ele>4</ele>
        <time>2020-06-07T13:07:17Z</time>
      </trkpt>
      <trkpt lat="47.77185" lon="-3.6097">
        <ele>4</ele>
        <time>2020-06-07T13:07:18Z</time>
      </trkpt>
      <trkpt lat="47.77184" lon="-3.6097">
        <ele>4</ele>
        <time>2020-06-07T13:07:19Z</time>
      </trkpt>
      <trkpt lat="47.77184" lon="-3.6097">
        <ele>4</ele>
        <time>2020-06-07T13:07:20Z</time>
      </trkpt>
      <trkpt lat="47.77184" lon="-3.60969">
        <ele>4</ele>
        <time>2020-06-07T13:07:21Z</time>
      </trkpt>
      <trkpt lat="47.77184" lon="-3.6097">
        <ele>4</ele>
        <time>2020-06-07T13:07:22Z</time>
      </trkpt>
      <trkpt lat="47.77184" lon="-3.60971">
        <ele>4</ele>
        <time>2020-06-07T13:07:23Z</time>
      </trkpt>
      <trkpt lat="47.77184" lon="-3.60971">
        <ele>4</ele>
        <time>2020-06-07T13:07:24Z</time>
      </trkpt>
      <trkpt lat="47.77184" lon="-3.60971">
        <ele>4</ele>
        <time>2020-06-07T13:07:25Z</time>
      </trkpt>
      <trkpt lat="47.77184" lon="-3.60971">
        <ele>4</ele>
        <time>2020-06-07T13:07:26Z</time>
      </trkpt>
      <trkpt lat="47.77184" lon="-3.60971">
        <ele>4</ele>
        <time>2020-06-07T13:07:27Z</time>
      </trkpt>
      <trkpt lat="47.77183" lon="-3.60971">
        <ele>4</ele>
        <time>2020-06-07T13:07:28Z</time>
      </trkpt>
      <trkpt lat="47.77183" lon="-3.6097">
        <ele>4</ele>
        <time>2020-06-07T13:07:29Z</time>
      </trkpt>
      <trkpt lat="47.77179" lon="-3.60972">
        <ele>4</ele>
        <time>2020-06-07T13:07:41Z</time>
      </trkpt>
      <trkpt lat="47.77178" lon="-3.60972">
        <ele>4</ele>
        <time>2020-06-07T13:07:42Z</time>
      </trkpt>
      <trkpt lat="47.77178" lon="-3.60973">
        <ele>4</ele>
        <time>2020-06-07T13:07:43Z</time>
      </trkpt>
      <trkpt lat="47.77178" lon="-3.60973">
        <ele>4</ele>
        <time>2020-06-07T13:07:44Z</time>
      </trkpt>
      <trkpt lat="47.77177" lon="-3.60973">
        <ele>4</ele>
        <time>2020-06-07T13:07:45Z</time>
      </trkpt>
      <trkpt lat="47.77176" lon="-3.60973">
        <ele>4</ele>
        <time>2020-06-07T13:07:46Z</time>
      </trkpt>
      <trkpt lat="47.77175" lon="-3.60973">
        <ele>4</ele>
        <time>2020-06-07T13:07:47Z</time>
      </trkpt>
      <trkpt lat="47.77174" lon="-3.60974">
        <ele>4</ele>
        <time>2020-06-07T13:07:48Z</time>
      </trkpt>
      <trkpt lat="47.77173" lon="-3.60975">
        <ele>4</ele>
        <time>2020-06-07T13:07:49Z</time>
      </trkpt>
      <trkpt lat="47.77171" lon="-3.60976">
        <ele>4</ele>
        <time>2020-06-07T13:07:50Z</time>
      </trkpt>
      <trkpt lat="47.7717" lon="-3.60977">
        <ele>4</ele>
        <time>2020-06-07T13:07:51Z</time>
      </trkpt>
      <trkpt lat="47.7717" lon="-3.60978">
        <ele>4</ele>
        <time>2020-06-07T13:07:52Z</time>
      </trkpt>
      <trkpt lat="47.7717" lon="-3.6098">
        <ele>4</ele>
        <time>2020-06-07T13:07:53Z</time>
      </trkpt>
      <trkpt lat="47.77169" lon="-3.60981">
        <ele>4</ele>
        <time>2020-06-07T13:07:54Z</time>
      </trkpt>
      <trkpt lat="47.77169" lon="-3.60982">
        <ele>4</ele>
        <time>2020-06-07T13:07:55Z</time>
      </trkpt>
      <trkpt lat="47.77168" lon="-3.60982">
        <ele>4</ele>
        <time>2020-06-07T13:07:56Z</time>
      </trkpt>
      <trkpt lat="47.77168" lon="-3.60983">
        <ele>4</ele>
        <time>2020-06-07T13:07:57Z</time>
      </trkpt>
      <trkpt lat="47.77167" lon="-3.60984">
        <ele>4</ele>
        <time>2020-06-07T13:07:58Z</time>
      </trkpt>
      <trkpt lat="47.77166" lon="-3.60985">
        <ele>4</ele>
        <time>2020-06-07T13:07:59Z</time>
      </trkpt>
      <trkpt lat="47.77165" lon="-3.60986">
        <ele>4</ele>
        <time>2020-06-07T13:08:00Z</time>
      </trkpt>
      <trkpt lat="47.77164" lon="-3.60986">
        <ele>3.9</ele>
        <time>2020-06-07T13:08:01Z</time>
      </trkpt>
      <trkpt lat="47.77164" lon="-3.60987">
        <ele>3.9</ele>
        <time>2020-06-07T13:08:02Z</time>
      </trkpt>
      <trkpt lat="47.77163" lon="-3.60987">
        <ele>3.8</ele>
        <time>2020-06-07T13:08:03Z</time>
      </trkpt>
      <trkpt lat="47.77163" lon="-3.60987">
        <ele>3.8</ele>
        <time>2020-06-07T13:08:04Z</time>
      </trkpt>
      <trkpt lat="47.77162" lon="-3.60987">
        <ele>3.7</ele>
        <time>2020-06-07T13:08:05Z</time>
      </trkpt>
      <trkpt lat="47.7716" lon="-3.60987">
        <ele>3.6</ele>
        <time>2020-06-07T13:08:06Z</time>
      </trkpt>
      <trkpt lat="47.77159" lon="-3.60987">
        <ele>3.5</ele>
        <time>2020-06-07T13:08:07Z</time>
      </trkpt>
      <trkpt lat="47.77158" lon="-3.60988">
        <ele>3.4</ele>
        <time>2020-06-07T13:08:08Z</time>
      </trkpt>
      <trkpt lat="47.77157" lon="-3.60987">
        <ele>3.3</ele>
        <time>2020-06-07T13:08:09Z</time>
      </trkpt>
      <trkpt lat="47.77156" lon="-3.60987">
        <ele>3.2</ele>
        <time>2020-06-07T13:08:10Z</time>
      </trkpt>
      <trkpt lat="47.77155" lon="-3.60987">
        <ele>3.1</ele>
        <time>2020-06-07T13:08:11Z</time>
      </trkpt>
      <trkpt lat="47.77154" lon="-3.60987">
        <ele>3</ele>
        <time>2020-06-07T13:08:12Z</time>
      </trkpt>
      <trkpt lat="47.77153" lon="-3.60986">
        <ele>2.9</ele>
        <time>2020-06-07T13:08:13Z</time>
      </trkpt>
      <trkpt lat="47.77151" lon="-3.60986">
        <ele>2.8</ele>
        <time>2020-06-07T13:08:14Z</time>
      </trkpt>
      <trkpt lat="47.77151" lon="-3.60986">
        <ele>2.8</ele>
        <time>2020-06-07T13:08:15Z</time>
      </trkpt>
      <trkpt lat="47.7715" lon="-3.60986">
        <ele>2.7</ele>
        <time>2020-06-07T13:08:16Z</time>
      </trkpt>
      <trkpt lat="47.77149" lon="-3.60986">
        <ele>2.6</ele>
        <time>2020-06-07T13:08:17Z</time>
      </trkpt>
      <trkpt lat="47.77148" lon="-3.60986">
        <ele>2.6</ele>
        <time>2020-06-07T13:08:18Z</time>
      </trkpt>
      <trkpt lat="47.77147" lon="-3.60986">
        <ele>2.5</ele>
        <time>2020-06-07T13:08:19Z</time>
      </trkpt>
      <trkpt lat="47.77146" lon="-3.60986">
        <ele>2.4</ele>
        <time>2020-06-07T13:08:20Z</time>
      </trkpt>
      <trkpt lat="47.77146" lon="-3.60986">
        <ele>2.4</ele>
        <time>2020-06-07T13:08:21Z</time>
      </trkpt>
      <trkpt lat="47.77146" lon="-3.60986">
        <ele>2.4</ele>
        <time>2020-06-07T13:08:22Z</time>
      </trkpt>
      <trkpt lat="47.77146" lon="-3.60986">
        <ele>2.3</ele>
        <time>2020-06-07T13:08:23Z</time>
      </trkpt>
      <trkpt lat="47.77146" lon="-3.60986">
        <ele>2.3</ele>
        <time>2020-06-07T13:08:24Z</time>
      </trkpt>
      <trkpt lat="47.77146" lon="-3.60986">
        <ele>2.3</ele>
        <time>2020-06-07T13:08:25Z</time>
      </trkpt>
      <trkpt lat="47.77145" lon="-3.60986">
        <ele>2.3</ele>
        <time>2020-06-07T13:08:26Z</time>
      </trkpt>
      <trkpt lat="47.77145" lon="-3.60986">
        <ele>2.2</ele>
        <time>2020-06-07T13:08:27Z</time>
      </trkpt>
      <trkpt lat="47.77145" lon="-3.60986">
        <ele>2.2</ele>
        <time>2020-06-07T13:08:28Z</time>
      </trkpt>
      <trkpt lat="47.77145" lon="-3.60986">
        <ele>2.2</ele>
        <time>2020-06-07T13:08:29Z</time>
      </trkpt>
      <trkpt lat="47.77145" lon="-3.60985">
        <ele>2.2</ele>
        <time>2020-06-07T13:08:30Z</time>
      </trkpt>
      <trkpt lat="47.77145" lon="-3.60985">
        <ele>2.2</ele>
        <time>2020-06-07T13:08:31Z</time>
      </trkpt>
      <trkpt lat="47.77145" lon="-3.60984">
        <ele>2.1</ele>
        <time>2020-06-07T13:08:32Z</time>
      </trkpt>
      <trkpt lat="47.77143" lon="-3.60981">
        <ele>1.9</ele>
        <time>2020-06-07T13:08:46Z</time>
      </trkpt>
      <trkpt lat="47.77143" lon="-3.60979">
        <ele>1.8</ele>
        <time>2020-06-07T13:08:47Z</time>
      </trkpt>
      <trkpt lat="47.77143" lon="-3.60977">
        <ele>1.7</ele>
        <time>2020-06-07T13:08:48Z</time>
      </trkpt>
      <trkpt lat="47.77143" lon="-3.60975">
        <ele>1.6</ele>
        <time>2020-06-07T13:08:49Z</time>
      </trkpt>
      <trkpt lat="47.77142" lon="-3.60973">
        <ele>1.5</ele>
        <time>2020-06-07T13:08:50Z</time>
      </trkpt>
      <trkpt lat="47.77143" lon="-3.60972">
        <ele>1.4</ele>
        <time>2020-06-07T13:08:51Z</time>
      </trkpt>
      <trkpt lat="47.77142" lon="-3.60969">
        <ele>1.3</ele>
        <time>2020-06-07T13:08:52Z</time>
      </trkpt>
      <trkpt lat="47.77142" lon="-3.60968">
        <ele>1.2</ele>
        <time>2020-06-07T13:08:53Z</time>
      </trkpt>
      <trkpt lat="47.77142" lon="-3.60966">
        <ele>1.1</ele>
        <time>2020-06-07T13:08:54Z</time>
      </trkpt>
      <trkpt lat="47.77143" lon="-3.60963">
        <ele>1</ele>
        <time>2020-06-07T13:08:55Z</time>
      </trkpt>
      <trkpt lat="47.77143" lon="-3.60959">
        <ele>0.8</ele>
        <time>2020-06-07T13:08:56Z</time>
      </trkpt>
      <trkpt lat="47.77143" lon="-3.60957">
        <ele>0.7</ele>
        <time>2020-06-07T13:08:57Z</time>
      </trkpt>
      <trkpt lat="47.77143" lon="-3.60955">
        <ele>0.6</ele>
        <time>2020-06-07T13:08:58Z</time>
      </trkpt>
      <trkpt lat="47.77142" lon="-3.60953">
        <ele>0.5</ele>
        <time>2020-06-07T13:08:59Z</time>
      </trkpt>
      <trkpt lat="47.77141" lon="-3.6095">
        <ele>0.4</ele>
        <time>2020-06-07T13:09:00Z</time>
      </trkpt>
      <trkpt lat="47.77141" lon="-3.60949">
        <ele>0.3</ele>
        <time>2020-06-07T13:09:01Z</time>
      </trkpt>
      <trkpt lat="47.77141" lon="-3.60948">
        <ele>0.3</ele>
        <time>2020-06-07T13:09:02Z</time>
      </trkpt>
      <trkpt lat="47.7714" lon="-3.60946">
        <ele>0.4</ele>
        <time>2020-06-07T13:09:03Z</time>
      </trkpt>
      <trkpt lat="47.7714" lon="-3.60945">
        <ele>0.4</ele>
        <time>2020-06-07T13:09:04Z</time>
      </trkpt>
      <trkpt lat="47.77139" lon="-3.60944">
        <ele>0.4</ele>
        <time>2020-06-07T13:09:05Z</time>
      </trkpt>
      <trkpt lat="47.77139" lon="-3.60943">
        <ele>0.4</ele>
        <time>2020-06-07T13:09:06Z</time>
      </trkpt>
      <trkpt lat="47.77138" lon="-3.60941">
        <ele>0.5</ele>
        <time>2020-06-07T13:09:07Z</time>
      </trkpt>
      <trkpt lat="47.77138" lon="-3.6094">
        <ele>0.5</ele>
        <time>2020-06-07T13:09:08Z</time>
      </trkpt>
      <trkpt lat="47.77137" lon="-3.60939">
        <ele>0.5</ele>
        <time>2020-06-07T13:09:09Z</time>
      </trkpt>
      <trkpt lat="47.77137" lon="-3.60937">
        <ele>0.6</ele>
        <time>2020-06-07T13:09:10Z</time>
      </trkpt>
      <trkpt lat="47.77137" lon="-3.60936">
        <ele>0.6</ele>
        <time>2020-06-07T13:09:11Z</time>
      </trkpt>
      <trkpt lat="47.77137" lon="-3.60935">
        <ele>0.6</ele>
        <time>2020-06-07T13:09:12Z</time>
      </trkpt>
      <trkpt lat="47.77136" lon="-3.60936">
        <ele>0.6</ele>
        <time>2020-06-07T13:09:13Z</time>
      </trkpt>
      <trkpt lat="47.77134" lon="-3.60937">
        <ele>0.7</ele>
        <time>2020-06-07T13:09:14Z</time>
      </trkpt>
      <trkpt lat="47.77133" lon="-3.60937">
        <ele>0.7</ele>
        <time>2020-06-07T13:09:15Z</time>
      </trkpt>
      <trkpt lat="47.77131" lon="-3.60937">
        <ele>0.8</ele>
        <time>2020-06-07T13:09:16Z</time>
      </trkpt>
      <trkpt lat="47.77129" lon="-3.60938">
        <ele>0.8</ele>
        <time>2020-06-07T13:09:17Z</time>
      </trkpt>
      <trkpt lat="47.77129" lon="-3.60938">
        <ele>0.8</ele>
        <time>2020-06-07T13:09:18Z</time>
      </trkpt>
      <trkpt lat="47.77128" lon="-3.60937">
        <ele>0.9</ele>
        <time>2020-06-07T13:09:19Z</time>
      </trkpt>
      <trkpt lat="47.77127" lon="-3.60938">
        <ele>0.9</ele>
        <time>2020-06-07T13:09:20Z</time>
      </trkpt>
      <trkpt lat="47.77126" lon="-3.60938">
        <ele>0.9</ele>
        <time>2020-06-07T13:09:21Z</time>
      </trkpt>
      <trkpt lat="47.77125" lon="-3.60938">
        <ele>1</ele>
        <time>2020-06-07T13:09:22Z</time>
      </trkpt>
      <trkpt lat="47.77124" lon="-3.60939">
        <ele>1</ele>
        <time>2020-06-07T13:09:23Z</time>
      </trkpt>
      <trkpt lat="47.77122" lon="-3.60941">
        <ele>1.1</ele>
        <time>2020-06-07T13:09:24Z</time>
      </trkpt>
      <trkpt lat="47.77121" lon="-3.60942">
        <ele>1.1</ele>
        <time>2020-06-07T13:09:25Z</time>
      </trkpt>
      <trkpt lat="47.7712" lon="-3.60943">
        <ele>1.1</ele>
        <time>2020-06-07T13:09:26Z</time>
      </trkpt>
      <trkpt lat="47.77118" lon="-3.60944">
        <ele>1.2</ele>
        <time>2020-06-07T13:09:27Z</time>
      </trkpt>
      <trkpt lat="47.77116" lon="-3.60944">
        <ele>1.3</ele>
        <time>2020-06-07T13:09:28Z</time>
      </trkpt>
      <trkpt lat="47.77116" lon="-3.60944">
        <ele>1.3</ele>
        <time>2020-06-07T13:09:29Z</time>
      </trkpt>
      <trkpt lat="47.77114" lon="-3.60945">
        <ele>1.4</ele>
        <time>2020-06-07T13:09:30Z</time>
      </trkpt>
      <trkpt lat="47.77112" lon="-3.60947">
        <ele>1.4</ele>
        <time>2020-06-07T13:09:31Z</time>
      </trkpt>
      <trkpt lat="47.77111" lon="-3.60948">
        <ele>1.5</ele>
        <time>2020-06-07T13:09:32Z</time>
      </trkpt>
      <trkpt lat="47.77111" lon="-3.60949">
        <ele>1.5</ele>
        <time>2020-06-07T13:09:33Z</time>
      </trkpt>
      <trkpt lat="47.7711" lon="-3.60949">
        <ele>1.5</ele>
        <time>2020-06-07T13:09:34Z</time>
      </trkpt>
      <trkpt lat="47.7711" lon="-3.6095">
        <ele>1.5</ele>
        <time>2020-06-07T13:09:35Z</time>
      </trkpt>
      <trkpt lat="47.77111" lon="-3.60951">
        <ele>1.5</ele>
        <time>2020-06-07T13:09:36Z</time>
      </trkpt>
      <trkpt lat="47.77111" lon="-3.60951">
        <ele>1.6</ele>
        <time>2020-06-07T13:09:37Z</time>
      </trkpt>
      <trkpt lat="47.77111" lon="-3.60951">
        <ele>1.6</ele>
        <time>2020-06-07T13:09:38Z</time>
      </trkpt>
      <trkpt lat="47.77111" lon="-3.60951">
        <ele>1.6</ele>
        <time>2020-06-07T13:09:39Z</time>
      </trkpt>
      <trkpt lat="47.77111" lon="-3.60951">
        <ele>1.6</ele>
        <time>2020-06-07T13:09:40Z</time>
      </trkpt>
      <trkpt lat="47.77111" lon="-3.6095">
        <ele>1.6</ele>
        <time>2020-06-07T13:09:41Z</time>
      </trkpt>
      <trkpt lat="47.77112" lon="-3.60949">
        <ele>1.6</ele>
        <time>2020-06-07T13:09:42Z</time>
      </trkpt>
      <trkpt lat="47.77111" lon="-3.60949">
        <ele>1.6</ele>
        <time>2020-06-07T13:09:43Z</time>
      </trkpt>
      <trkpt lat="47.77111" lon="-3.60947">
        <ele>1.7</ele>
        <time>2020-06-07T13:09:44Z</time>
      </trkpt>
      <trkpt lat="47.77111" lon="-3.60946">
        <ele>1.7</ele>
        <time>2020-06-07T13:09:45Z</time>
      </trkpt>
      <trkpt lat="47.77111" lon="-3.60946">
        <ele>1.7</ele>
        <time>2020-06-07T13:09:46Z</time>
      </trkpt>
      <trkpt lat="47.77112" lon="-3.60945">
        <ele>1.7</ele>
        <time>2020-06-07T13:09:47Z</time>
      </trkpt>
      <trkpt lat="47.77112" lon="-3.60944">
        <ele>1.8</ele>
        <time>2020-06-07T13:09:48Z</time>
      </trkpt>
      <trkpt lat="47.77114" lon="-3.60943">
        <ele>1.8</ele>
        <time>2020-06-07T13:09:49Z</time>
      </trkpt>
      <trkpt lat="47.77114" lon="-3.60943">
        <ele>1.8</ele>
        <time>2020-06-07T13:09:50Z</time>
      </trkpt>
      <trkpt lat="47.77115" lon="-3.60943">
        <ele>1.9</ele>
        <time>2020-06-07T13:09:51Z</time>
      </trkpt>
      <trkpt lat="47.77116" lon="-3.60943">
        <ele>1.9</ele>
        <time>2020-06-07T13:09:52Z</time>
      </trkpt>
      <trkpt lat="47.77117" lon="-3.60943">
        <ele>1.9</ele>
        <time>2020-06-07T13:09:53Z</time>
      </trkpt>
      <trkpt lat="47.77118" lon="-3.60944">
        <ele>2</ele>
        <time>2020-06-07T13:09:54Z</time>
      </trkpt>
      <trkpt lat="47.77119" lon="-3.60943">
        <ele>2</ele>
        <time>2020-06-07T13:09:55Z</time>
      </trkpt>
      <trkpt lat="47.7712" lon="-3.60943">
        <ele>2</ele>
        <time>2020-06-07T13:09:56Z</time>
      </trkpt>
      <trkpt lat="47.7712" lon="-3.60943">
        <ele>2</ele>
        <time>2020-06-07T13:09:57Z</time>
      </trkpt>
      <trkpt lat="47.77121" lon="-3.60942">
        <ele>2.1</ele>
        <time>2020-06-07T13:09:58Z</time>
      </trkpt>
      <trkpt lat="47.77123" lon="-3.60943">
        <ele>2.1</ele>
        <time>2020-06-07T13:09:59Z</time>
      </trkpt>
      <trkpt lat="47.77124" lon="-3.60944">
        <ele>2.2</ele>
        <time>2020-06-07T13:10:00Z</time>
      </trkpt>
      <trkpt lat="47.77126" lon="-3.60945">
        <ele>2.2</ele>
        <time>2020-06-07T13:10:01Z</time>
      </trkpt>
      <trkpt lat="47.77127" lon="-3.60949">
        <ele>2.3</ele>
        <time>2020-06-07T13:10:02Z</time>
      </trkpt>
      <trkpt lat="47.77128" lon="-3.6095">
        <ele>2.4</ele>
        <time>2020-06-07T13:10:03Z</time>
      </trkpt>
      <trkpt lat="47.77129" lon="-3.60951">
        <ele>2.4</ele>
        <time>2020-06-07T13:10:04Z</time>
      </trkpt>
      <trkpt lat="47.7713" lon="-3.60953">
        <ele>2.4</ele>
        <time>2020-06-07T13:10:05Z</time>
      </trkpt>
      <trkpt lat="47.77131" lon="-3.60954">
        <ele>2.5</ele>
        <time>2020-06-07T13:10:06Z</time>
      </trkpt>
      <trkpt lat="47.77132" lon="-3.60956">
        <ele>2.5</ele>
        <time>2020-06-07T13:10:07Z</time>
      </trkpt>
      <trkpt lat="47.77133" lon="-3.60958">
        <ele>2.6</ele>
        <time>2020-06-07T13:10:08Z</time>
      </trkpt>
      <trkpt lat="47.77134" lon="-3.6096">
        <ele>2.7</ele>
        <time>2020-06-07T13:10:09Z</time>
      </trkpt>
      <trkpt lat="47.77135" lon="-3.60963">
        <ele>2.7</ele>
        <time>2020-06-07T13:10:10Z</time>
      </trkpt>
      <trkpt lat="47.77135" lon="-3.60965">
        <ele>2.8</ele>
        <time>2020-06-07T13:10:11Z</time>
      </trkpt>
      <trkpt lat="47.77135" lon="-3.60966">
        <ele>2.8</ele>
        <time>2020-06-07T13:10:12Z</time>
      </trkpt>
      <trkpt lat="47.77136" lon="-3.60967">
        <ele>2.9</ele>
        <time>2020-06-07T13:10:13Z</time>
      </trkpt>
      <trkpt lat="47.77137" lon="-3.60969">
        <ele>2.9</ele>
        <time>2020-06-07T13:10:14Z</time>
      </trkpt>
      <trkpt lat="47.77138" lon="-3.60971">
        <ele>2.9</ele>
        <time>2020-06-07T13:10:15Z</time>
      </trkpt>
      <trkpt lat="47.77139" lon="-3.60973">
        <ele>3</ele>
        <time>2020-06-07T13:10:16Z</time>
      </trkpt>
      <trkpt lat="47.77139" lon="-3.60974">
        <ele>3</ele>
        <time>2020-06-07T13:10:17Z</time>
      </trkpt>
      <trkpt lat="47.7714" lon="-3.60976">
        <ele>3.1</ele>
        <time>2020-06-07T13:10:18Z</time>
      </trkpt>
      <trkpt lat="47.77142" lon="-3.60978">
        <ele>3.2</ele>
        <time>2020-06-07T13:10:19Z</time>
      </trkpt>
      <trkpt lat="47.77143" lon="-3.60979">
        <ele>3.2</ele>
        <time>2020-06-07T13:10:20Z</time>
      </trkpt>
      <trkpt lat="47.77144" lon="-3.60979">
        <ele>3.2</ele>
        <time>2020-06-07T13:10:21Z</time>
      </trkpt>
      <trkpt lat="47.77145" lon="-3.6098">
        <ele>3.3</ele>
        <time>2020-06-07T13:10:22Z</time>
      </trkpt>
      <trkpt lat="47.77147" lon="-3.60981">
        <ele>3.4</ele>
        <time>2020-06-07T13:10:23Z</time>
      </trkpt>
      <trkpt lat="47.7715" lon="-3.60981">
        <ele>3.4</ele>
        <time>2020-06-07T13:10:24Z</time>
      </trkpt>
      <trkpt lat="47.77151" lon="-3.60981">
        <ele>3.5</ele>
        <time>2020-06-07T13:10:25Z</time>
      </trkpt>
      <trkpt lat="47.77154" lon="-3.6098">
        <ele>3.6</ele>
        <time>2020-06-07T13:10:26Z</time>
      </trkpt>
      <trkpt lat="47.77155" lon="-3.60981">
        <ele>3.6</ele>
        <time>2020-06-07T13:10:27Z</time>
      </trkpt>
      <trkpt lat="47.77157" lon="-3.6098">
        <ele>3.7</ele>
        <time>2020-06-07T13:10:28Z</time>
      </trkpt>
      <trkpt lat="47.77158" lon="-3.60981">
        <ele>3.7</ele>
        <time>2020-06-07T13:10:29Z</time>
      </trkpt>
      <trkpt lat="47.7716" lon="-3.60981">
        <ele>3.8</ele>
        <time>2020-06-07T13:10:30Z</time>
      </trkpt>
      <trkpt lat="47.77161" lon="-3.60982">
        <ele>3.8</ele>
        <time>2020-06-07T13:10:31Z</time>
      </trkpt>
      <trkpt lat="47.77162" lon="-3.60982">
        <ele>3.9</ele>
        <time>2020-06-07T13:10:32Z</time>
      </trkpt>
      <trkpt lat="47.77164" lon="-3.60981">
        <ele>3.9</ele>
        <time>2020-06-07T13:10:33Z</time>
      </trkpt>
      <trkpt lat="47.77165" lon="-3.6098">
        <ele>4</ele>
        <time>2020-06-07T13:10:34Z</time>
      </trkpt>
      <trkpt lat="47.77166" lon="-3.6098">
        <ele>4</ele>
        <time>2020-06-07T13:10:35Z</time>
      </trkpt>
      <trkpt lat="47.77167" lon="-3.60979">
        <ele>4</ele>
        <time>2020-06-07T13:10:36Z</time>
      </trkpt>
      <trkpt lat="47.77169" lon="-3.60979">
        <ele>4</ele>
        <time>2020-06-07T13:10:37Z</time>
      </trkpt>
      <trkpt lat="47.77171" lon="-3.60978">
        <ele>4</ele>
        <time>2020-06-07T13:10:38Z</time>
      </trkpt>
      <trkpt lat="47.77172" lon="-3.60978">
        <ele>4</ele>
        <time>2020-06-07T13:10:39Z</time>
      </trkpt>
      <trkpt lat="47.77173" lon="-3.60978">
        <ele>4</ele>
        <time>2020-06-07T13:10:40Z</time>
      </trkpt>
      <trkpt lat="47.77174" lon="-3.60978">
        <ele>4</ele>
        <time>2020-06-07T13:10:41Z</time>
      </trkpt>
      <trkpt lat="47.77174" lon="-3.60977">
        <ele>4</ele>
        <time>2020-06-07T13:10:42Z</time>
      </trkpt>
      <trkpt lat="47.77176" lon="-3.60977">
        <ele>4</ele>
        <time>2020-06-07T13:10:43Z</time>
      </trkpt>
      <trkpt lat="47.77177" lon="-3.60977">
        <ele>4</ele>
        <time>2020-06-07T13:10:44Z</time>
      </trkpt>
      <trkpt lat="47.77178" lon="-3.60975">
        <ele>4</ele>
        <time>2020-06-07T13:10:45Z</time>
      </trkpt>
      <trkpt lat="47.77178" lon="-3.60974">
        <ele>4</ele>
        <time>2020-06-07T13:10:46Z</time>
      </trkpt>
      <trkpt lat="47.77179" lon="-3.60973">
        <ele>4</ele>
        <time>2020-06-07T13:10:47Z</time>
      </trkpt>
      <trkpt lat="47.7718" lon="-3.60973">
        <ele>4</ele>
        <time>2020-06-07T13:10:48Z</time>
      </trkpt>
      <trkpt lat="47.77181" lon="-3.60973">
        <ele>4</ele>
        <time>2020-06-07T13:10:49Z</time>
      </trkpt>
      <trkpt lat="47.77181" lon="-3.60974">
        <ele>4</ele>
        <time>2020-06-07T13:10:50Z</time>
      </trkpt>
      <trkpt lat="47.77181" lon="-3.60974">
        <ele>4</ele>
        <time>2020-06-07T13:10:51Z</time>
      </trkpt>
      <trkpt lat="47.77181" lon="-3.60974">
        <ele>4</ele>
        <time>2020-06-07T13:10:52Z</time>
      </trkpt>
      <trkpt lat="47.77181" lon="-3.60975">
        <ele>4</ele>
        <time>2020-06-07T13:10:53Z</time>
      </trkpt>
      <trkpt lat="47.77181" lon="-3.60977">
        <ele>4</ele>
        <time>2020-06-07T13:10:54Z</time>
      </trkpt>
      <trkpt lat="47.77181" lon="-3.60977">
        <ele>4</ele>
        <time>2020-06-07T13:10:55Z</time>
      </trkpt>
      <trkpt lat="47.7718" lon="-3.60978">
        <ele>4</ele>
        <time>2020-06-07T13:10:56Z</time>
      </trkpt>
      <trkpt lat="47.7718" lon="-3.60978">
        <ele>4</ele>
        <time>2020-06-07T13:10:57Z</time>
      </trkpt>
      <trkpt lat="47.7718" lon="-3.60978">
        <ele>4</ele>
        <time>2020-06-07T13:10:58Z</time>
      </trkpt>
      <trkpt lat="47.77181" lon="-3.60978">
        <ele>4</ele>
        <time>2020-06-07T13:10:59Z</time>
      </trkpt>
      <trkpt lat="47.77182" lon="-3.60978">
        <ele>4</ele>
        <time>2020-06-07T13:11:00Z</time>
      </trkpt>
      <trkpt lat="47.77182" lon="-3.60978">
        <ele>4</ele>
        <time>2020-06-07T13:11:01Z</time>
      </trkpt>
      <trkpt lat="47.77183" lon="-3.60978">
        <ele>4</ele>
        <time>2020-06-07T13:11:02Z</time>
      </trkpt>
      <trkpt lat="47.77183" lon="-3.60978">
        <ele>4</ele>
        <time>2020-06-07T13:11:03Z</time>
      </trkpt>
      <trkpt lat="47.77183" lon="-3.60977">
        <ele>4</ele>
        <time>2020-06-07T13:11:04Z</time>
      </trkpt>
      <trkpt lat="47.77183" lon="-3.60977">
        <ele>4</ele>
        <time>2020-06-07T13:11:05Z</time>
      </trkpt>
      <trkpt lat="47.77182" lon="-3.60974">
        <ele>4.1</ele>
        <time>2020-06-07T13:11:24Z</time>
      </trkpt>
      <trkpt lat="47.77181" lon="-3.60973">
        <ele>4.1</ele>
        <time>2020-06-07T13:11:25Z</time>
      </trkpt>
      <trkpt lat="47.77181" lon="-3.60973">
        <ele>4.1</ele>
        <time>2020-06-07T13:11:26Z</time>
      </trkpt>
      <trkpt lat="47.77181" lon="-3.60972">
        <ele>4.1</ele>
        <time>2020-06-07T13:11:27Z</time>
      </trkpt>
      <trkpt lat="47.7718" lon="-3.60971">
        <ele>4.1</ele>
        <time>2020-06-07T13:11:28Z</time>
      </trkpt>
      <trkpt lat="47.7718" lon="-3.60972">
        <ele>4.1</ele>
        <time>2020-06-07T13:11:29Z</time>
      </trkpt>
      <trkpt lat="47.7718" lon="-3.60972">
        <ele>4.1</ele>
        <time>2020-06-07T13:11:30Z</time>
      </trkpt>
      <trkpt lat="47.7718" lon="-3.60971">
        <ele>4.1</ele>
        <time>2020-06-07T13:11:31Z</time>
      </trkpt>
      <trkpt lat="47.77181" lon="-3.6097">
        <ele>4.1</ele>
        <time>2020-06-07T13:11:32Z</time>
      </trkpt>
      <trkpt lat="47.77181" lon="-3.6097">
        <ele>4.1</ele>
        <time>2020-06-07T13:11:33Z</time>
      </trkpt>
      <trkpt lat="47.77181" lon="-3.6097">
        <ele>4.1</ele>
        <time>2020-06-07T13:11:34Z</time>
      </trkpt>
      <trkpt lat="47.77182" lon="-3.60969">
        <ele>4.1</ele>
        <time>2020-06-07T13:11:35Z</time>
      </trkpt>
      <trkpt lat="47.77182" lon="-3.60969">
        <ele>4.1</ele>
        <time>2020-06-07T13:11:36Z</time>
      </trkpt>
      <trkpt lat="47.77188" lon="-3.60976">
        <ele>4.2</ele>
        <time>2020-06-07T13:12:37Z</time>
      </trkpt>
      <trkpt lat="47.77189" lon="-3.60975">
        <ele>4.2</ele>
        <time>2020-06-07T13:12:38Z</time>
      </trkpt>
      <trkpt lat="47.77189" lon="-3.60975">
        <ele>4.2</ele>
        <time>2020-06-07T13:12:39Z</time>
      </trkpt>
      <trkpt lat="47.77189" lon="-3.60975">
        <ele>4.2</ele>
        <time>2020-06-07T13:12:40Z</time>
      </trkpt>
      <trkpt lat="47.77188" lon="-3.60977">
        <ele>4.2</ele>
        <time>2020-06-07T13:12:41Z</time>
      </trkpt>
      <trkpt lat="47.77189" lon="-3.60978">
        <ele>4.2</ele>
        <time>2020-06-07T13:12:42Z</time>
      </trkpt>
      <trkpt lat="47.77188" lon="-3.60978">
        <ele>4.2</ele>
        <time>2020-06-07T13:12:43Z</time>
      </trkpt>
      <trkpt lat="47.77188" lon="-3.60978">
        <ele>4.2</ele>
        <time>2020-06-07T13:12:44Z</time>
      </trkpt>
      <trkpt lat="47.77188" lon="-3.60978">
        <ele>4.2</ele>
        <time>2020-06-07T13:12:45Z</time>
      </trkpt>
      <trkpt lat="47.77188" lon="-3.60978">
        <ele>4.2</ele>
        <time>2020-06-07T13:12:46Z</time>
      </trkpt>
      <trkpt lat="47.77189" lon="-3.60978">
        <ele>4.2</ele>
        <time>2020-06-07T13:12:47Z</time>
      </trkpt>
      <trkpt lat="47.77182" lon="-3.60977">
        <ele>4.1</ele>
        <time>2020-06-07T13:13:19Z</time>
      </trkpt>
      <trkpt lat="47.7718" lon="-3.60976">
        <ele>4.1</ele>
        <time>2020-06-07T13:13:20Z</time>
      </trkpt>
      <trkpt lat="47.77179" lon="-3.60975">
        <ele>4.1</ele>
        <time>2020-06-07T13:13:21Z</time>
      </trkpt>
      <trkpt lat="47.77179" lon="-3.60974">
        <ele>4</ele>
        <time>2020-06-07T13:13:22Z</time>
      </trkpt>
      <trkpt lat="47.77179" lon="-3.60975">
        <ele>4</ele>
        <time>2020-06-07T13:13:23Z</time>
      </trkpt>
      <trkpt lat="47.77179" lon="-3.60975">
        <ele>4</ele>
        <time>2020-06-07T13:13:24Z</time>
      </trkpt>
      <trkpt lat="47.77179" lon="-3.60975">
        <ele>4</ele>
        <time>2020-06-07T13:13:25Z</time>
      </trkpt>
      <trkpt lat="47.77179" lon="-3.60975">
        <ele>4</ele>
        <time>2020-06-07T13:13:26Z</time>
      </trkpt>
      <trkpt lat="47.77179" lon="-3.60975">
        <ele>4</ele>
        <time>2020-06-07T13:13:27Z</time>
      </trkpt>
      <trkpt lat="47.77179" lon="-3.60975">
        <ele>4</ele>
        <time>2020-06-07T13:13:28Z</time>
      </trkpt>
      <trkpt lat="47.77179" lon="-3.60975">
        <ele>4</ele>
        <time>2020-06-07T13:13:29Z</time>
      </trkpt>
      <trkpt lat="47.77179" lon="-3.60975">
        <ele>4</ele>
        <time>2020-06-07T13:13:30Z</time>
      </trkpt>
      <trkpt lat="47.77179" lon="-3.60975">
        <ele>4</ele>
        <time>2020-06-07T13:13:31Z</time>
      </trkpt>
      <trkpt lat="47.77179" lon="-3.60974">
        <ele>4</ele>
        <time>2020-06-07T13:13:32Z</time>
      </trkpt>
      <trkpt lat="47.77179" lon="-3.60974">
        <ele>4</ele>
        <time>2020-06-07T13:13:33Z</time>
      </trkpt>
      <trkpt lat="47.77177" lon="-3.60977">
        <ele>4</ele>
        <time>2020-06-07T13:13:48Z</time>
      </trkpt>
      <trkpt lat="47.77176" lon="-3.60978">
        <ele>4</ele>
        <time>2020-06-07T13:13:49Z</time>
      </trkpt>
      <trkpt lat="47.77176" lon="-3.60979">
        <ele>4</ele>
        <time>2020-06-07T13:13:50Z</time>
      </trkpt>
      <trkpt lat="47.77176" lon="-3.6098">
        <ele>4</ele>
        <time>2020-06-07T13:13:51Z</time>
      </trkpt>
      <trkpt lat="47.77175" lon="-3.60981">
        <ele>4</ele>
        <time>2020-06-07T13:13:52Z</time>
      </trkpt>
      <trkpt lat="47.77174" lon="-3.60982">
        <ele>4</ele>
        <time>2020-06-07T13:13:53Z</time>
      </trkpt>
      <trkpt lat="47.77173" lon="-3.60983">
        <ele>4</ele>
        <time>2020-06-07T13:13:54Z</time>
      </trkpt>
      <trkpt lat="47.77173" lon="-3.60985">
        <ele>4</ele>
        <time>2020-06-07T13:13:55Z</time>
      </trkpt>
      <trkpt lat="47.77173" lon="-3.60986">
        <ele>4</ele>
        <time>2020-06-07T13:13:56Z</time>
      </trkpt>
      <trkpt lat="47.77173" lon="-3.60987">
        <ele>4</ele>
        <time>2020-06-07T13:13:57Z</time>
      </trkpt>
      <trkpt lat="47.77174" lon="-3.60987">
        <ele>4</ele>
        <time>2020-06-07T13:13:58Z</time>
      </trkpt>
      <trkpt lat="47.77173" lon="-3.60988">
        <ele>4</ele>
        <time>2020-06-07T13:13:59Z</time>
      </trkpt>
      <trkpt lat="47.77173" lon="-3.60989">
        <ele>4</ele>
        <time>2020-06-07T13:14:00Z</time>
      </trkpt>
      <trkpt lat="47.77172" lon="-3.60989">
        <ele>4</ele>
        <time>2020-06-07T13:14:01Z</time>
      </trkpt>
      <trkpt lat="47.77172" lon="-3.60989">
        <ele>4</ele>
        <time>2020-06-07T13:14:02Z</time>
      </trkpt>
      <trkpt lat="47.77173" lon="-3.60988">
        <ele>4</ele>
        <time>2020-06-07T13:14:03Z</time>
      </trkpt>
      <trkpt lat="47.77172" lon="-3.60988">
        <ele>4</ele>
        <time>2020-06-07T13:14:04Z</time>
      </trkpt>
      <trkpt lat="47.77172" lon="-3.60989">
        <ele>4</ele>
        <time>2020-06-07T13:14:05Z</time>
      </trkpt>
      <trkpt lat="47.77172" lon="-3.6099">
        <ele>4</ele>
        <time>2020-06-07T13:14:06Z</time>
      </trkpt>
      <trkpt lat="47.77172" lon="-3.60989">
        <ele>4</ele>
        <time>2020-06-07T13:14:07Z</time>
      </trkpt>
      <trkpt lat="47.77172" lon="-3.60989">
        <ele>4</ele>
        <time>2020-06-07T13:14:08Z</time>
      </trkpt>
      <trkpt lat="47.77173" lon="-3.6099">
        <ele>4</ele>
        <time>2020-06-07T13:14:09Z</time>
      </trkpt>
      <trkpt lat="47.77173" lon="-3.60989">
        <ele>4</ele>
        <time>2020-06-07T13:14:10Z</time>
      </trkpt>
      <trkpt lat="47.77173" lon="-3.60989">
        <ele>4</ele>
        <time>2020-06-07T13:14:11Z</time>
      </trkpt>
      <trkpt lat="47.77173" lon="-3.60989">
        <ele>4</ele>
        <time>2020-06-07T13:14:12Z</time>
      </trkpt>
      <trkpt lat="47.77173" lon="-3.60989">
        <ele>4</ele>
        <time>2020-06-07T13:14:13Z</time>
      </trkpt>
      <trkpt lat="47.77173" lon="-3.60989">
        <ele>4</ele>
        <time>2020-06-07T13:14:14Z</time>
      </trkpt>
      <trkpt lat="47.77173" lon="-3.60989">
        <ele>4</ele>
        <time>2020-06-07T13:14:15Z</time>
      </trkpt>
      <trkpt lat="47.77173" lon="-3.6099">
        <ele>4</ele>
        <time>2020-06-07T13:14:16Z</time>
      </trkpt>
      <trkpt lat="47.77173" lon="-3.6099">
        <ele>4</ele>
        <time>2020-06-07T13:14:17Z</time>
      </trkpt>
      <trkpt lat="47.77173" lon="-3.6099">
        <ele>4</ele>
        <time>2020-06-07T13:14:18Z</time>
      </trkpt>
      <trkpt lat="47.77173" lon="-3.6099">
        <ele>4</ele>
        <time>2020-06-07T13:14:19Z</time>
      </trkpt>
      <trkpt lat="47.77173" lon="-3.60991">
        <ele>4</ele>
        <time>2020-06-07T13:14:20Z</time>
      </trkpt>
      <trkpt lat="47.77173" lon="-3.60992">
        <ele>4</ele>
        <time>2020-06-07T13:14:21Z</time>
      </trkpt>
      <trkpt lat="47.77174" lon="-3.60992">
        <ele>4</ele>
        <time>2020-06-07T13:14:22Z</time>
      </trkpt>
      <trkpt lat="47.77174" lon="-3.60993">
        <ele>4</ele>
        <time>2020-06-07T13:14:23Z</time>
      </trkpt>
      <trkpt lat="47.77174" lon="-3.60994">
        <ele>4</ele>
        <time>2020-06-07T13:14:24Z</time>
      </trkpt>
      <trkpt lat="47.77174" lon="-3.60996">
        <ele>4</ele>
        <time>2020-06-07T13:14:25Z</time>
      </trkpt>
      <trkpt lat="47.77173" lon="-3.60997">
        <ele>4.5</ele>
        <time>2020-06-07T13:14:26Z</time>
      </trkpt>
      <trkpt lat="47.77173" lon="-3.60998">
        <ele>4.5</ele>
        <time>2020-06-07T13:14:27Z</time>
      </trkpt>
      <trkpt lat="47.77174" lon="-3.60999">
        <ele>4.6</ele>
        <time>2020-06-07T13:14:28Z</time>
      </trkpt>
      <trkpt lat="47.77174" lon="-3.60999">
        <ele>4.7</ele>
        <time>2020-06-07T13:14:29Z</time>
      </trkpt>
      <trkpt lat="47.77175" lon="-3.60999">
        <ele>4.7</ele>
        <time>2020-06-07T13:14:30Z</time>
      </trkpt>
      <trkpt lat="47.77175" lon="-3.60999">
        <ele>4.7</ele>
        <time>2020-06-07T13:14:31Z</time>
      </trkpt>
      <trkpt lat="47.77174" lon="-3.60998">
        <ele>4.8</ele>
        <time>2020-06-07T13:14:32Z</time>
      </trkpt>
      <trkpt lat="47.77175" lon="-3.60998">
        <ele>4.8</ele>
        <time>2020-06-07T13:14:33Z</time>
      </trkpt>
      <trkpt lat="47.77176" lon="-3.60998">
        <ele>4</ele>
        <time>2020-06-07T13:14:34Z</time>
      </trkpt>
      <trkpt lat="47.77177" lon="-3.60999">
        <ele>4</ele>
        <time>2020-06-07T13:14:35Z</time>
      </trkpt>
      <trkpt lat="47.77178" lon="-3.60998">
        <ele>4</ele>
        <time>2020-06-07T13:14:36Z</time>
      </trkpt>
      <trkpt lat="47.77179" lon="-3.60999">
        <ele>4.7</ele>
        <time>2020-06-07T13:14:37Z</time>
      </trkpt>
      <trkpt lat="47.77179" lon="-3.60999">
        <ele>4.8</ele>
        <time>2020-06-07T13:14:38Z</time>
      </trkpt>
      <trkpt lat="47.77179" lon="-3.61">
        <ele>5</ele>
        <time>2020-06-07T13:14:39Z</time>
      </trkpt>
      <trkpt lat="47.77179" lon="-3.61">
        <ele>5</ele>
        <time>2020-06-07T13:14:40Z</time>
      </trkpt>
      <trkpt lat="47.77179" lon="-3.61">
        <ele>5</ele>
        <time>2020-06-07T13:14:41Z</time>
      </trkpt>
      <trkpt lat="47.77179" lon="-3.61">
        <ele>5.2</ele>
        <time>2020-06-07T13:14:42Z</time>
      </trkpt>
      <trkpt lat="47.77178" lon="-3.61">
        <ele>5.3</ele>
        <time>2020-06-07T13:14:43Z</time>
      </trkpt>
      <trkpt lat="47.77178" lon="-3.60999">
        <ele>5.5</ele>
        <time>2020-06-07T13:14:44Z</time>
      </trkpt>
      <trkpt lat="47.77178" lon="-3.60999">
        <ele>5.5</ele>
        <time>2020-06-07T13:14:45Z</time>
      </trkpt>
      <trkpt lat="47.77178" lon="-3.6101">
        <ele>7.4</ele>
        <time>2020-06-07T13:15:27Z</time>
      </trkpt>
      <trkpt lat="47.77179" lon="-3.61013">
        <ele>7.9</ele>
        <time>2020-06-07T13:15:28Z</time>
      </trkpt>
      <trkpt lat="47.77181" lon="-3.61016">
        <ele>8.6</ele>
        <time>2020-06-07T13:15:29Z</time>
      </trkpt>
      <trkpt lat="47.77183" lon="-3.6102">
        <ele>9.4</ele>
        <time>2020-06-07T13:15:30Z</time>
      </trkpt>
      <trkpt lat="47.77184" lon="-3.61023">
        <ele>10</ele>
        <time>2020-06-07T13:15:31Z</time>
      </trkpt>
      <trkpt lat="47.77186" lon="-3.61024">
        <ele>10.4</ele>
        <time>2020-06-07T13:15:32Z</time>
      </trkpt>
      <trkpt lat="47.77188" lon="-3.61024">
        <ele>8.2</ele>
        <time>2020-06-07T13:15:33Z</time>
      </trkpt>
      <trkpt lat="47.7719" lon="-3.61026">
        <ele>8.2</ele>
        <time>2020-06-07T13:15:34Z</time>
      </trkpt>
      <trkpt lat="47.77191" lon="-3.61027">
        <ele>8.2</ele>
        <time>2020-06-07T13:15:35Z</time>
      </trkpt>
      <trkpt lat="47.77191" lon="-3.61028">
        <ele>8.2</ele>
        <time>2020-06-07T13:15:36Z</time>
      </trkpt>
      <trkpt lat="47.77191" lon="-3.61026">
        <ele>8.2</ele>
        <time>2020-06-07T13:15:37Z</time>
      </trkpt>
      <trkpt lat="47.77192" lon="-3.61027">
        <ele>8.2</ele>
        <time>2020-06-07T13:15:38Z</time>
      </trkpt>
      <trkpt lat="47.77193" lon="-3.61027">
        <ele>8.2</ele>
        <time>2020-06-07T13:15:39Z</time>
      </trkpt>
      <trkpt lat="47.77194" lon="-3.61027">
        <ele>8.2</ele>
        <time>2020-06-07T13:15:40Z</time>
      </trkpt>
      <trkpt lat="47.77213" lon="-3.61033">
        <ele>8.2</ele>
        <time>2020-06-07T13:15:50Z</time>
      </trkpt>
      <trkpt lat="47.77214" lon="-3.61033">
        <ele>8.2</ele>
        <time>2020-06-07T13:15:51Z</time>
      </trkpt>
      <trkpt lat="47.77214" lon="-3.61034">
        <ele>8.2</ele>
        <time>2020-06-07T13:15:52Z</time>
      </trkpt>
      <trkpt lat="47.77216" lon="-3.61035">
        <ele>8.2</ele>
        <time>2020-06-07T13:15:53Z</time>
      </trkpt>
      <trkpt lat="47.77216" lon="-3.61035">
        <ele>8.2</ele>
        <time>2020-06-07T13:15:54Z</time>
      </trkpt>
      <trkpt lat="47.77214" lon="-3.61034">
        <ele>8.2</ele>
        <time>2020-06-07T13:15:55Z</time>
      </trkpt>
      <trkpt lat="47.77213" lon="-3.61033">
        <ele>8.2</ele>
        <time>2020-06-07T13:15:56Z</time>
      </trkpt>
      <trkpt lat="47.77211" lon="-3.61031">
        <ele>8.2</ele>
        <time>2020-06-07T13:15:57Z</time>
      </trkpt>
      <trkpt lat="47.77209" lon="-3.6103">
        <ele>8.2</ele>
        <time>2020-06-07T13:15:58Z</time>
      </trkpt>
      <trkpt lat="47.77207" lon="-3.61024">
        <ele>8.2</ele>
        <time>2020-06-07T13:15:59Z</time>
      </trkpt>
      <trkpt lat="47.77205" lon="-3.61019">
        <ele>8.2</ele>
        <time>2020-06-07T13:16:00Z</time>
      </trkpt>
      <trkpt lat="47.77205" lon="-3.61014">
        <ele>8.2</ele>
        <time>2020-06-07T13:16:01Z</time>
      </trkpt>
      <trkpt lat="47.77204" lon="-3.6101">
        <ele>8.2</ele>
        <time>2020-06-07T13:16:02Z</time>
      </trkpt>
      <trkpt lat="47.77202" lon="-3.61009">
        <ele>8.2</ele>
        <time>2020-06-07T13:16:03Z</time>
      </trkpt>
      <trkpt lat="47.772" lon="-3.61007">
        <ele>8.2</ele>
        <time>2020-06-07T13:16:04Z</time>
      </trkpt>
      <trkpt lat="47.772" lon="-3.61007">
        <ele>8.2</ele>
        <time>2020-06-07T13:16:05Z</time>
      </trkpt>
      <trkpt lat="47.77198" lon="-3.61007">
        <ele>8.2</ele>
        <time>2020-06-07T13:16:06Z</time>
      </trkpt>
      <trkpt lat="47.77196" lon="-3.61007">
        <ele>8.2</ele>
        <time>2020-06-07T13:16:07Z</time>
      </trkpt>
      <trkpt lat="47.77195" lon="-3.61007">
        <ele>8.2</ele>
        <time>2020-06-07T13:16:08Z</time>
      </trkpt>
      <trkpt lat="47.77194" lon="-3.61007">
        <ele>8.2</ele>
        <time>2020-06-07T13:16:09Z</time>
      </trkpt>
      <trkpt lat="47.77194" lon="-3.61007">
        <ele>8.2</ele>
        <time>2020-06-07T13:16:10Z</time>
      </trkpt>
      <trkpt lat="47.77193" lon="-3.61007">
        <ele>8.2</ele>
        <time>2020-06-07T13:16:11Z</time>
      </trkpt>
      <trkpt lat="47.77194" lon="-3.61007">
        <ele>8.2</ele>
        <time>2020-06-07T13:16:12Z</time>
      </trkpt>
      <trkpt lat="47.77194" lon="-3.61008">
        <ele>8.2</ele>
        <time>2020-06-07T13:16:13Z</time>
      </trkpt>
      <trkpt lat="47.77194" lon="-3.61008">
        <ele>8.2</ele>
        <time>2020-06-07T13:16:14Z</time>
      </trkpt>
      <trkpt lat="47.77194" lon="-3.61007">
        <ele>8.2</ele>
        <time>2020-06-07T13:16:15Z</time>
      </trkpt>
      <trkpt lat="47.77194" lon="-3.61007">
        <ele>8.2</ele>
        <time>2020-06-07T13:16:16Z</time>
      </trkpt>
      <trkpt lat="47.77193" lon="-3.61007">
        <ele>8.2</ele>
        <time>2020-06-07T13:16:17Z</time>
      </trkpt>
      <trkpt lat="47.77193" lon="-3.61007">
        <ele>8.2</ele>
        <time>2020-06-07T13:16:18Z</time>
      </trkpt>
      <trkpt lat="47.77192" lon="-3.61007">
        <ele>8.2</ele>
        <time>2020-06-07T13:16:19Z</time>
      </trkpt>
      <trkpt lat="47.77193" lon="-3.61007">
        <ele>8.2</ele>
        <time>2020-06-07T13:16:20Z</time>
      </trkpt>
      <trkpt lat="47.77193" lon="-3.61007">
        <ele>8.2</ele>
        <time>2020-06-07T13:16:21Z</time>
      </trkpt>
      <trkpt lat="47.77193" lon="-3.61006">
        <ele>8.2</ele>
        <time>2020-06-07T13:16:22Z</time>
      </trkpt>
      <trkpt lat="47.77193" lon="-3.61007">
        <ele>8.2</ele>
        <time>2020-06-07T13:16:23Z</time>
      </trkpt>
      <trkpt lat="47.77194" lon="-3.61006">
        <ele>8.2</ele>
        <time>2020-06-07T13:16:24Z</time>
      </trkpt>
      <trkpt lat="47.77194" lon="-3.61006">
        <ele>8.2</ele>
        <time>2020-06-07T13:16:25Z</time>
      </trkpt>
      <trkpt lat="47.77191" lon="-3.61005">
        <ele>8.2</ele>
        <time>2020-06-07T13:16:26Z</time>
      </trkpt>
      <trkpt lat="47.77189" lon="-3.61004">
        <ele>8.2</ele>
        <time>2020-06-07T13:16:27Z</time>
      </trkpt>
      <trkpt lat="47.77187" lon="-3.61004">
        <ele>8.2</ele>
        <time>2020-06-07T13:16:28Z</time>
      </trkpt>
      <trkpt lat="47.77185" lon="-3.61004">
        <ele>8.2</ele>
        <time>2020-06-07T13:16:29Z</time>
      </trkpt>
      <trkpt lat="47.7718" lon="-3.61004">
        <ele>8.2</ele>
        <time>2020-06-07T13:16:30Z</time>
      </trkpt>
      <trkpt lat="47.77179" lon="-3.61004">
        <ele>8.2</ele>
        <time>2020-06-07T13:16:31Z</time>
      </trkpt>
      <trkpt lat="47.77179" lon="-3.61004">
        <ele>8.2</ele>
        <time>2020-06-07T13:16:32Z</time>
      </trkpt>
      <trkpt lat="47.77179" lon="-3.61004">
        <ele>8.2</ele>
        <time>2020-06-07T13:16:33Z</time>
      </trkpt>
      <trkpt lat="47.77178" lon="-3.61003">
        <ele>8.2</ele>
        <time>2020-06-07T13:16:34Z</time>
      </trkpt>
      <trkpt lat="47.77178" lon="-3.61002">
        <ele>8.2</ele>
        <time>2020-06-07T13:16:35Z</time>
      </trkpt>
      <trkpt lat="47.77178" lon="-3.61002">
        <ele>8.2</ele>
        <time>2020-06-07T13:16:36Z</time>
      </trkpt>
      <trkpt lat="47.77177" lon="-3.61">
        <ele>8</ele>
        <time>2020-06-07T13:16:37Z</time>
      </trkpt>
      <trkpt lat="47.77177" lon="-3.60999">
        <ele>8</ele>
        <time>2020-06-07T13:16:38Z</time>
      </trkpt>
      <trkpt lat="47.77177" lon="-3.60998">
        <ele>8</ele>
        <time>2020-06-07T13:16:39Z</time>
      </trkpt>
      <trkpt lat="47.77177" lon="-3.60997">
        <ele>8</ele>
        <time>2020-06-07T13:16:40Z</time>
      </trkpt>
      <trkpt lat="47.77177" lon="-3.60995">
        <ele>8</ele>
        <time>2020-06-07T13:16:55Z</time>
      </trkpt>
      <trkpt lat="47.77177" lon="-3.60994">
        <ele>8</ele>
        <time>2020-06-07T13:16:56Z</time>
      </trkpt>
      <trkpt lat="47.77177" lon="-3.60993">
        <ele>8</ele>
        <time>2020-06-07T13:16:57Z</time>
      </trkpt>
      <trkpt lat="47.77177" lon="-3.60989">
        <ele>8</ele>
        <time>2020-06-07T13:16:58Z</time>
      </trkpt>
      <trkpt lat="47.77177" lon="-3.60987">
        <ele>8</ele>
        <time>2020-06-07T13:16:59Z</time>
      </trkpt>
      <trkpt lat="47.77177" lon="-3.60985">
        <ele>8</ele>
        <time>2020-06-07T13:17:00Z</time>
      </trkpt>
      <trkpt lat="47.77178" lon="-3.60983">
        <ele>8</ele>
        <time>2020-06-07T13:17:01Z</time>
      </trkpt>
      <trkpt lat="47.77178" lon="-3.60982">
        <ele>8</ele>
        <time>2020-06-07T13:17:02Z</time>
      </trkpt>
      <trkpt lat="47.77178" lon="-3.60981">
        <ele>8</ele>
        <time>2020-06-07T13:17:03Z</time>
      </trkpt>
      <trkpt lat="47.77178" lon="-3.60982">
        <ele>8</ele>
        <time>2020-06-07T13:17:04Z</time>
      </trkpt>
      <trkpt lat="47.77178" lon="-3.60982">
        <ele>8</ele>
        <time>2020-06-07T13:17:05Z</time>
      </trkpt>
      <trkpt lat="47.77179" lon="-3.60982">
        <ele>8</ele>
        <time>2020-06-07T13:17:06Z</time>
      </trkpt>
      <trkpt lat="47.77179" lon="-3.60982">
        <ele>8</ele>
        <time>2020-06-07T13:17:07Z</time>
      </trkpt>
      <trkpt lat="47.77179" lon="-3.60983">
        <ele>8</ele>
        <time>2020-06-07T13:17:08Z</time>
      </trkpt>
      <trkpt lat="47.77179" lon="-3.60983">
        <ele>8</ele>
        <time>2020-06-07T13:17:09Z</time>
      </trkpt>
      <trkpt lat="47.77179" lon="-3.60983">
        <ele>8</ele>
        <time>2020-06-07T13:17:10Z</time>
      </trkpt>
      <trkpt lat="47.77179" lon="-3.60983">
        <ele>8</ele>
        <time>2020-06-07T13:17:11Z</time>
      </trkpt>
      <trkpt lat="47.7718" lon="-3.60983">
        <ele>8</ele>
        <time>2020-06-07T13:17:12Z</time>
      </trkpt>
      <trkpt lat="47.7718" lon="-3.60983">
        <ele>8</ele>
        <time>2020-06-07T13:17:13Z</time>
      </trkpt>
      <trkpt lat="47.7718" lon="-3.60983">
        <ele>8</ele>
        <time>2020-06-07T13:17:14Z</time>
      </trkpt>
      <trkpt lat="47.7718" lon="-3.6098">
        <ele>8</ele>
        <time>2020-06-07T13:17:48Z</time>
      </trkpt>
      <trkpt lat="47.77181" lon="-3.60981">
        <ele>8</ele>
        <time>2020-06-07T13:17:49Z</time>
      </trkpt>
      <trkpt lat="47.77181" lon="-3.60981">
        <ele>8</ele>
        <time>2020-06-07T13:17:50Z</time>
      </trkpt>
      <trkpt lat="47.77181" lon="-3.60982">
        <ele>8</ele>
        <time>2020-06-07T13:17:51Z</time>
      </trkpt>
      <trkpt lat="47.7718" lon="-3.60982">
        <ele>8</ele>
        <time>2020-06-07T13:17:52Z</time>
      </trkpt>
      <trkpt lat="47.77179" lon="-3.6098">
        <ele>8</ele>
        <time>2020-06-07T13:17:53Z</time>
      </trkpt>
      <trkpt lat="47.77178" lon="-3.60979">
        <ele>8</ele>
        <time>2020-06-07T13:17:54Z</time>
      </trkpt>
      <trkpt lat="47.77178" lon="-3.60978">
        <ele>8</ele>
        <time>2020-06-07T13:17:55Z</time>
      </trkpt>
      <trkpt lat="47.77178" lon="-3.60979">
        <ele>8</ele>
        <time>2020-06-07T13:17:56Z</time>
      </trkpt>
      <trkpt lat="47.77178" lon="-3.60979">
        <ele>8</ele>
        <time>2020-06-07T13:17:57Z</time>
      </trkpt>
      <trkpt lat="47.77177" lon="-3.60979">
        <ele>8</ele>
        <time>2020-06-07T13:17:58Z</time>
      </trkpt>
      <trkpt lat="47.77184" lon="-3.60983">
        <ele>8</ele>
        <time>2020-06-07T13:18:48Z</time>
      </trkpt>
      <trkpt lat="47.77185" lon="-3.60983">
        <ele>8</ele>
        <time>2020-06-07T13:18:49Z</time>
      </trkpt>
      <trkpt lat="47.77186" lon="-3.60983">
        <ele>8</ele>
        <time>2020-06-07T13:18:50Z</time>
      </trkpt>
      <trkpt lat="47.77186" lon="-3.60984">
        <ele>8</ele>
        <time>2020-06-07T13:18:51Z</time>
      </trkpt>
      <trkpt lat="47.77186" lon="-3.60984">
        <ele>8</ele>
        <time>2020-06-07T13:18:52Z</time>
      </trkpt>
      <trkpt lat="47.77187" lon="-3.60985">
        <ele>8</ele>
        <time>2020-06-07T13:18:53Z</time>
      </trkpt>
      <trkpt lat="47.77187" lon="-3.60985">
        <ele>8</ele>
        <time>2020-06-07T13:18:54Z</time>
      </trkpt>
      <trkpt lat="47.77187" lon="-3.60985">
        <ele>8</ele>
        <time>2020-06-07T13:18:55Z</time>
      </trkpt>
      <trkpt lat="47.77187" lon="-3.60986">
        <ele>8</ele>
        <time>2020-06-07T13:18:56Z</time>
      </trkpt>
      <trkpt lat="47.77187" lon="-3.60986">
        <ele>8</ele>
        <time>2020-06-07T13:18:57Z</time>
      </trkpt>
      <trkpt lat="47.77187" lon="-3.60987">
        <ele>8</ele>
        <time>2020-06-07T13:18:58Z</time>
      </trkpt>
      <trkpt lat="47.77187" lon="-3.60986">
        <ele>8</ele>
        <time>2020-06-07T13:18:59Z</time>
      </trkpt>
      <trkpt lat="47.77186" lon="-3.60986">
        <ele>8</ele>
        <time>2020-06-07T13:19:00Z</time>
      </trkpt>
      <trkpt lat="47.77185" lon="-3.60987">
        <ele>8</ele>
        <time>2020-06-07T13:19:01Z</time>
      </trkpt>
      <trkpt lat="47.77189" lon="-3.60981">
        <ele>8</ele>
        <time>2020-06-07T13:19:21Z</time>
      </trkpt>
      <trkpt lat="47.77189" lon="-3.60981">
        <ele>8</ele>
        <time>2020-06-07T13:19:22Z</time>
      </trkpt>
      <trkpt lat="47.77189" lon="-3.60981">
        <ele>8</ele>
        <time>2020-06-07T13:19:23Z</time>
      </trkpt>
      <trkpt lat="47.7719" lon="-3.60981">
        <ele>8</ele>
        <time>2020-06-07T13:19:24Z</time>
      </trkpt>
      <trkpt lat="47.7719" lon="-3.60981">
        <ele>8</ele>
        <time>2020-06-07T13:19:25Z</time>
      </trkpt>
      <trkpt lat="47.7719" lon="-3.60981">
        <ele>8</ele>
        <time>2020-06-07T13:19:26Z</time>
      </trkpt>
      <trkpt lat="47.7719" lon="-3.60982">
        <ele>8</ele>
        <time>2020-06-07T13:19:27Z</time>
      </trkpt>
      <trkpt lat="47.7719" lon="-3.60983">
        <ele>8</ele>
        <time>2020-06-07T13:19:28Z</time>
      </trkpt>
      <trkpt lat="47.77191" lon="-3.60984">
        <ele>8</ele>
        <time>2020-06-07T13:19:29Z</time>
      </trkpt>
      <trkpt lat="47.77191" lon="-3.60986">
        <ele>8</ele>
        <time>2020-06-07T13:19:30Z</time>
      </trkpt>
      <trkpt lat="47.77192" lon="-3.60986">
        <ele>8</ele>
        <time>2020-06-07T13:19:31Z</time>
      </trkpt>
      <trkpt lat="47.77192" lon="-3.60986">
        <ele>8</ele>
        <time>2020-06-07T13:19:32Z</time>
      </trkpt>
      <trkpt lat="47.77194" lon="-3.60986">
        <ele>8</ele>
        <time>2020-06-07T13:19:33Z</time>
      </trkpt>
      <trkpt lat="47.77195" lon="-3.60986">
        <ele>8</ele>
        <time>2020-06-07T13:19:34Z</time>
      </trkpt>
      <trkpt lat="47.77195" lon="-3.60987">
        <ele>8</ele>
        <time>2020-06-07T13:19:35Z</time>
      </trkpt>
      <trkpt lat="47.77195" lon="-3.60986">
        <ele>8</ele>
        <time>2020-06-07T13:19:36Z</time>
      </trkpt>
      <trkpt lat="47.77195" lon="-3.60986">
        <ele>8</ele>
        <time>2020-06-07T13:19:37Z</time>
      </trkpt>
      <trkpt lat="47.77196" lon="-3.60987">
        <ele>8</ele>
        <time>2020-06-07T13:19:38Z</time>
      </trkpt>
      <trkpt lat="47.77196" lon="-3.60987">
        <ele>8</ele>
        <time>2020-06-07T13:19:39Z</time>
      </trkpt>
      <trkpt lat="47.77197" lon="-3.60986">
        <ele>8</ele>
        <time>2020-06-07T13:19:40Z</time>
      </trkpt>
      <trkpt lat="47.77198" lon="-3.60985">
        <ele>8</ele>
        <time>2020-06-07T13:19:41Z</time>
      </trkpt>
      <trkpt lat="47.77199" lon="-3.60984">
        <ele>8</ele>
        <time>2020-06-07T13:19:42Z</time>
      </trkpt>
      <trkpt lat="47.772" lon="-3.60983">
        <ele>8</ele>
        <time>2020-06-07T13:19:43Z</time>
      </trkpt>
      <trkpt lat="47.772" lon="-3.60983">
        <ele>8</ele>
        <time>2020-06-07T13:19:44Z</time>
      </trkpt>
      <trkpt lat="47.772" lon="-3.60983">
        <ele>8</ele>
        <time>2020-06-07T13:19:45Z</time>
      </trkpt>
      <trkpt lat="47.772" lon="-3.60983">
        <ele>8</ele>
        <time>2020-06-07T13:19:46Z</time>
      </trkpt>
      <trkpt lat="47.772" lon="-3.60983">
        <ele>8</ele>
        <time>2020-06-07T13:19:47Z</time>
      </trkpt>
      <trkpt lat="47.772" lon="-3.60983">
        <ele>8</ele>
        <time>2020-06-07T13:19:48Z</time>
      </trkpt>
      <trkpt lat="47.772" lon="-3.60983">
        <ele>8</ele>
        <time>2020-06-07T13:19:49Z</time>
      </trkpt>
      <trkpt lat="47.772" lon="-3.60983">
        <ele>8</ele>
        <time>2020-06-07T13:19:50Z</time>
      </trkpt>
      <trkpt lat="47.772" lon="-3.60983">
        <ele>8</ele>
        <time>2020-06-07T13:19:51Z</time>
      </trkpt>
      <trkpt lat="47.772" lon="-3.60983">
        <ele>8</ele>
        <time>2020-06-07T13:19:52Z</time>
      </trkpt>
      <trkpt lat="47.772" lon="-3.60983">
        <ele>8</ele>
        <time>2020-06-07T13:19:53Z</time>
      </trkpt>
      <trkpt lat="47.772" lon="-3.60983">
        <ele>8</ele>
        <time>2020-06-07T13:19:54Z</time>
      </trkpt>
      <trkpt lat="47.772" lon="-3.60983">
        <ele>8</ele>
        <time>2020-06-07T13:19:55Z</time>
      </trkpt>
      <trkpt lat="47.77191" lon="-3.60983">
        <ele>8</ele>
        <time>2020-06-07T13:22:12Z</time>
      </trkpt>
      <trkpt lat="47.77191" lon="-3.60983">
        <ele>8</ele>
        <time>2020-06-07T13:22:13Z</time>
      </trkpt>
      <trkpt lat="47.77191" lon="-3.60984">
        <ele>8</ele>
        <time>2020-06-07T13:22:14Z</time>
      </trkpt>
      <trkpt lat="47.77191" lon="-3.60983">
        <ele>8</ele>
        <time>2020-06-07T13:22:15Z</time>
      </trkpt>
      <trkpt lat="47.77191" lon="-3.60984">
        <ele>8</ele>
        <time>2020-06-07T13:22:16Z</time>
      </trkpt>
      <trkpt lat="47.7719" lon="-3.60984">
        <ele>8</ele>
        <time>2020-06-07T13:22:17Z</time>
      </trkpt>
      <trkpt lat="47.7719" lon="-3.60983">
        <ele>8</ele>
        <time>2020-06-07T13:22:18Z</time>
      </trkpt>
      <trkpt lat="47.77191" lon="-3.60983">
        <ele>8</ele>
        <time>2020-06-07T13:22:19Z</time>
      </trkpt>
      <trkpt lat="47.77191" lon="-3.60982">
        <ele>8</ele>
        <time>2020-06-07T13:22:20Z</time>
      </trkpt>
      <trkpt lat="47.77191" lon="-3.60982">
        <ele>8</ele>
        <time>2020-06-07T13:22:21Z</time>
      </trkpt>
      <trkpt lat="47.77192" lon="-3.6098">
        <ele>8</ele>
        <time>2020-06-07T13:22:22Z</time>
      </trkpt>
      <trkpt lat="47.77192" lon="-3.6098">
        <ele>8</ele>
        <time>2020-06-07T13:22:23Z</time>
      </trkpt>
      <trkpt lat="47.77192" lon="-3.60979">
        <ele>8</ele>
        <time>2020-06-07T13:22:24Z</time>
      </trkpt>
      <trkpt lat="47.77192" lon="-3.60979">
        <ele>8</ele>
        <time>2020-06-07T13:22:25Z</time>
      </trkpt>
      <trkpt lat="47.77192" lon="-3.60979">
        <ele>8</ele>
        <time>2020-06-07T13:22:26Z</time>
      </trkpt>
      <trkpt lat="47.77192" lon="-3.60979">
        <ele>8</ele>
        <time>2020-06-07T13:22:27Z</time>
      </trkpt>
      <trkpt lat="47.77192" lon="-3.6098">
        <ele>8</ele>
        <time>2020-06-07T13:22:28Z</time>
      </trkpt>
      <trkpt lat="47.77192" lon="-3.6098">
        <ele>8</ele>
        <time>2020-06-07T13:22:29Z</time>
      </trkpt>
      <trkpt lat="47.77192" lon="-3.6098">
        <ele>8</ele>
        <time>2020-06-07T13:22:30Z</time>
      </trkpt>
      <trkpt lat="47.77192" lon="-3.60981">
        <ele>8</ele>
        <time>2020-06-07T13:22:31Z</time>
      </trkpt>
      <trkpt lat="47.77192" lon="-3.60981">
        <ele>8</ele>
        <time>2020-06-07T13:22:32Z</time>
      </trkpt>
      <trkpt lat="47.77192" lon="-3.6098">
        <ele>8</ele>
        <time>2020-06-07T13:22:33Z</time>
      </trkpt>
      <trkpt lat="47.77192" lon="-3.6098">
        <ele>8</ele>
        <time>2020-06-07T13:22:34Z</time>
      </trkpt>
      <trkpt lat="47.77192" lon="-3.6098">
        <ele>8</ele>
        <time>2020-06-07T13:22:35Z</time>
      </trkpt>
      <trkpt lat="47.77192" lon="-3.6098">
        <ele>8</ele>
        <time>2020-06-07T13:22:36Z</time>
      </trkpt>
      <trkpt lat="47.77192" lon="-3.6098">
        <ele>8</ele>
        <time>2020-06-07T13:22:37Z</time>
      </trkpt>
      <trkpt lat="47.77192" lon="-3.6098">
        <ele>8</ele>
        <time>2020-06-07T13:22:38Z</time>
      </trkpt>
      <trkpt lat="47.77194" lon="-3.60984">
        <ele>8</ele>
        <time>2020-06-07T13:22:46Z</time>
      </trkpt>
      <trkpt lat="47.77194" lon="-3.60984">
        <ele>8</ele>
        <time>2020-06-07T13:22:47Z</time>
      </trkpt>
      <trkpt lat="47.77194" lon="-3.60984">
        <ele>8</ele>
        <time>2020-06-07T13:22:48Z</time>
      </trkpt>
      <trkpt lat="47.77195" lon="-3.60984">
        <ele>8</ele>
        <time>2020-06-07T13:22:49Z</time>
      </trkpt>
      <trkpt lat="47.77195" lon="-3.60984">
        <ele>8</ele>
        <time>2020-06-07T13:22:50Z</time>
      </trkpt>
      <trkpt lat="47.77195" lon="-3.60984">
        <ele>8</ele>
        <time>2020-06-07T13:22:51Z</time>
      </trkpt>
      <trkpt lat="47.77195" lon="-3.60983">
        <ele>8</ele>
        <time>2020-06-07T13:22:52Z</time>
      </trkpt>
      <trkpt lat="47.77194" lon="-3.60983">
        <ele>8</ele>
        <time>2020-06-07T13:22:53Z</time>
      </trkpt>
      <trkpt lat="47.77194" lon="-3.60983">
        <ele>8</ele>
        <time>2020-06-07T13:22:54Z</time>
      </trkpt>
      <trkpt lat="47.77194" lon="-3.60983">
        <ele>8</ele>
        <time>2020-06-07T13:22:55Z</time>
      </trkpt>
      <trkpt lat="47.77193" lon="-3.60983">
        <ele>8</ele>
        <time>2020-06-07T13:22:56Z</time>
      </trkpt>
      <trkpt lat="47.77189" lon="-3.60985">
        <ele>8</ele>
        <time>2020-06-07T13:23:52Z</time>
      </trkpt>
      <trkpt lat="47.77189" lon="-3.60986">
        <ele>8</ele>
        <time>2020-06-07T13:23:53Z</time>
      </trkpt>
      <trkpt lat="47.77188" lon="-3.60988">
        <ele>8</ele>
        <time>2020-06-07T13:23:54Z</time>
      </trkpt>
      <trkpt lat="47.77188" lon="-3.60989">
        <ele>8</ele>
        <time>2020-06-07T13:23:55Z</time>
      </trkpt>
      <trkpt lat="47.77188" lon="-3.6099">
        <ele>8</ele>
        <time>2020-06-07T13:23:56Z</time>
      </trkpt>
      <trkpt lat="47.77188" lon="-3.6099">
        <ele>8</ele>
        <time>2020-06-07T13:23:57Z</time>
      </trkpt>
      <trkpt lat="47.77188" lon="-3.60991">
        <ele>8</ele>
        <time>2020-06-07T13:23:58Z</time>
      </trkpt>
      <trkpt lat="47.77188" lon="-3.60991">
        <ele>8</ele>
        <time>2020-06-07T13:23:59Z</time>
      </trkpt>
      <trkpt lat="47.77187" lon="-3.60992">
        <ele>8</ele>
        <time>2020-06-07T13:24:00Z</time>
      </trkpt>
      <trkpt lat="47.77187" lon="-3.60992">
        <ele>8</ele>
        <time>2020-06-07T13:24:01Z</time>
      </trkpt>
      <trkpt lat="47.77187" lon="-3.60992">
        <ele>8</ele>
        <time>2020-06-07T13:24:02Z</time>
      </trkpt>
      <trkpt lat="47.77187" lon="-3.60992">
        <ele>8</ele>
        <time>2020-06-07T13:24:03Z</time>
      </trkpt>
      <trkpt lat="47.77187" lon="-3.60992">
        <ele>8</ele>
        <time>2020-06-07T13:24:04Z</time>
      </trkpt>
      <trkpt lat="47.77187" lon="-3.60993">
        <ele>8</ele>
        <time>2020-06-07T13:24:05Z</time>
      </trkpt>
      <trkpt lat="47.77187" lon="-3.60993">
        <ele>8</ele>
        <time>2020-06-07T13:24:06Z</time>
      </trkpt>
      <trkpt lat="47.77187" lon="-3.60993">
        <ele>8</ele>
        <time>2020-06-07T13:24:07Z</time>
      </trkpt>
      <trkpt lat="47.77187" lon="-3.60993">
        <ele>8</ele>
        <time>2020-06-07T13:24:08Z</time>
      </trkpt>
      <trkpt lat="47.77187" lon="-3.60993">
        <ele>8</ele>
        <time>2020-06-07T13:24:09Z</time>
      </trkpt>
      <trkpt lat="47.77188" lon="-3.60992">
        <ele>8</ele>
        <time>2020-06-07T13:24:10Z</time>
      </trkpt>
      <trkpt lat="47.77188" lon="-3.60991">
        <ele>8</ele>
        <time>2020-06-07T13:24:11Z</time>
      </trkpt>
      <trkpt lat="47.77188" lon="-3.60991">
        <ele>8</ele>
        <time>2020-06-07T13:24:12Z</time>
      </trkpt>
      <trkpt lat="47.77192" lon="-3.61002">
        <ele>8</ele>
        <time>2020-06-07T13:25:16Z</time>
      </trkpt>
      <trkpt lat="47.77193" lon="-3.61003">
        <ele>8</ele>
        <time>2020-06-07T13:25:17Z</time>
      </trkpt>
      <trkpt lat="47.77193" lon="-3.61003">
        <ele>8</ele>
        <time>2020-06-07T13:25:18Z</time>
      </trkpt>
      <trkpt lat="47.77193" lon="-3.61002">
        <ele>8</ele>
        <time>2020-06-07T13:25:19Z</time>
      </trkpt>
      <trkpt lat="47.77193" lon="-3.61003">
        <ele>8</ele>
        <time>2020-06-07T13:25:20Z</time>
      </trkpt>
      <trkpt lat="47.77193" lon="-3.61002">
        <ele>8</ele>
        <time>2020-06-07T13:25:21Z</time>
      </trkpt>
      <trkpt lat="47.77193" lon="-3.61003">
        <ele>8</ele>
        <time>2020-06-07T13:25:22Z</time>
      </trkpt>
      <trkpt lat="47.77193" lon="-3.61002">
        <ele>8</ele>
        <time>2020-06-07T13:25:23Z</time>
      </trkpt>
      <trkpt lat="47.77193" lon="-3.61003">
        <ele>8</ele>
        <time>2020-06-07T13:25:24Z</time>
      </trkpt>
      <trkpt lat="47.77193" lon="-3.61002">
        <ele>8</ele>
        <time>2020-06-07T13:25:25Z</time>
      </trkpt>
      <trkpt lat="47.77193" lon="-3.61002">
        <ele>8</ele>
        <time>2020-06-07T13:25:26Z</time>
      </trkpt>
      <trkpt lat="47.77193" lon="-3.61002">
        <ele>8</ele>
        <time>2020-06-07T13:25:27Z</time>
      </trkpt>
      <trkpt lat="47.77193" lon="-3.61002">
        <ele>8</ele>
        <time>2020-06-07T13:25:28Z</time>
      </trkpt>
      <trkpt lat="47.77193" lon="-3.61002">
        <ele>8</ele>
        <time>2020-06-07T13:25:29Z</time>
      </trkpt>
      <trkpt lat="47.77193" lon="-3.61002">
        <ele>8</ele>
        <time>2020-06-07T13:25:30Z</time>
      </trkpt>
      <trkpt lat="47.77193" lon="-3.61002">
        <ele>8</ele>
        <time>2020-06-07T13:25:31Z</time>
      </trkpt>
      <trkpt lat="47.77193" lon="-3.61002">
        <ele>8</ele>
        <time>2020-06-07T13:25:32Z</time>
      </trkpt>
      <trkpt lat="47.77193" lon="-3.61001">
        <ele>8</ele>
        <time>2020-06-07T13:25:33Z</time>
      </trkpt>
      <trkpt lat="47.77193" lon="-3.61001">
        <ele>8</ele>
        <time>2020-06-07T13:25:34Z</time>
      </trkpt>
      <trkpt lat="47.77193" lon="-3.61002">
        <ele>8</ele>
        <time>2020-06-07T13:25:35Z</time>
      </trkpt>
      <trkpt lat="47.77193" lon="-3.61003">
        <ele>8</ele>
        <time>2020-06-07T13:25:36Z</time>
      </trkpt>
      <trkpt lat="47.77193" lon="-3.61003">
        <ele>8</ele>
        <time>2020-06-07T13:25:37Z</time>
      </trkpt>
      <trkpt lat="47.77195" lon="-3.61005">
        <ele>8</ele>
        <time>2020-06-07T13:25:46Z</time>
      </trkpt>
      <trkpt lat="47.77196" lon="-3.61006">
        <ele>8</ele>
        <time>2020-06-07T13:25:47Z</time>
      </trkpt>
      <trkpt lat="47.77196" lon="-3.61006">
        <ele>8</ele>
        <time>2020-06-07T13:25:48Z</time>
      </trkpt>
      <trkpt lat="47.77197" lon="-3.61005">
        <ele>8</ele>
        <time>2020-06-07T13:25:49Z</time>
      </trkpt>
      <trkpt lat="47.77197" lon="-3.61005">
        <ele>8</ele>
        <time>2020-06-07T13:25:50Z</time>
      </trkpt>
      <trkpt lat="47.77198" lon="-3.61005">
        <ele>8</ele>
        <time>2020-06-07T13:25:51Z</time>
      </trkpt>
      <trkpt lat="47.77198" lon="-3.61005">
        <ele>8</ele>
        <time>2020-06-07T13:25:52Z</time>
      </trkpt>
      <trkpt lat="47.77198" lon="-3.61005">
        <ele>8</ele>
        <time>2020-06-07T13:25:53Z</time>
      </trkpt>
      <trkpt lat="47.77199" lon="-3.61006">
        <ele>8</ele>
        <time>2020-06-07T13:25:54Z</time>
      </trkpt>
      <trkpt lat="47.77199" lon="-3.61006">
        <ele>8</ele>
        <time>2020-06-07T13:25:55Z</time>
      </trkpt>
      <trkpt lat="47.772" lon="-3.61007">
        <ele>8</ele>
        <time>2020-06-07T13:25:56Z</time>
      </trkpt>
      <trkpt lat="47.772" lon="-3.61008">
        <ele>8</ele>
        <time>2020-06-07T13:25:57Z</time>
      </trkpt>
      <trkpt lat="47.77201" lon="-3.61009">
        <ele>8</ele>
        <time>2020-06-07T13:25:58Z</time>
      </trkpt>
      <trkpt lat="47.77201" lon="-3.6101">
        <ele>8</ele>
        <time>2020-06-07T13:25:59Z</time>
      </trkpt>
      <trkpt lat="47.772" lon="-3.61009">
        <ele>8</ele>
        <time>2020-06-07T13:26:00Z</time>
      </trkpt>
      <trkpt lat="47.77201" lon="-3.61009">
        <ele>8</ele>
        <time>2020-06-07T13:26:01Z</time>
      </trkpt>
      <trkpt lat="47.77201" lon="-3.61009">
        <ele>8</ele>
        <time>2020-06-07T13:26:02Z</time>
      </trkpt>
      <trkpt lat="47.77201" lon="-3.61009">
        <ele>8</ele>
        <time>2020-06-07T13:26:03Z</time>
      </trkpt>
      <trkpt lat="47.77201" lon="-3.61007">
        <ele>8</ele>
        <time>2020-06-07T13:26:04Z</time>
      </trkpt>
      <trkpt lat="47.77201" lon="-3.61006">
        <ele>8</ele>
        <time>2020-06-07T13:26:05Z</time>
      </trkpt>
      <trkpt lat="47.77201" lon="-3.61005">
        <ele>8</ele>
        <time>2020-06-07T13:26:06Z</time>
      </trkpt>
      <trkpt lat="47.77201" lon="-3.61005">
        <ele>8</ele>
        <time>2020-06-07T13:26:07Z</time>
      </trkpt>
      <trkpt lat="47.77201" lon="-3.61005">
        <ele>8</ele>
        <time>2020-06-07T13:26:08Z</time>
      </trkpt>
      <trkpt lat="47.77201" lon="-3.61005">
        <ele>8</ele>
        <time>2020-06-07T13:26:09Z</time>
      </trkpt>
      <trkpt lat="47.77201" lon="-3.61004">
        <ele>8</ele>
        <time>2020-06-07T13:26:10Z</time>
      </trkpt>
      <trkpt lat="47.77201" lon="-3.61004">
        <ele>8</ele>
        <time>2020-06-07T13:26:11Z</time>
      </trkpt>
      <trkpt lat="47.77201" lon="-3.61004">
        <ele>8</ele>
        <time>2020-06-07T13:26:12Z</time>
      </trkpt>
      <trkpt lat="47.77201" lon="-3.61004">
        <ele>8</ele>
        <time>2020-06-07T13:26:13Z</time>
      </trkpt>
      <trkpt lat="47.77201" lon="-3.61004">
        <ele>8</ele>
        <time>2020-06-07T13:26:14Z</time>
      </trkpt>
      <trkpt lat="47.77196" lon="-3.60999">
        <ele>8</ele>
        <time>2020-06-07T13:26:38Z</time>
      </trkpt>
      <trkpt lat="47.77196" lon="-3.60998">
        <ele>8</ele>
        <time>2020-06-07T13:26:39Z</time>
      </trkpt>
      <trkpt lat="47.77195" lon="-3.60997">
        <ele>8</ele>
        <time>2020-06-07T13:26:40Z</time>
      </trkpt>
      <trkpt lat="47.77195" lon="-3.60996">
        <ele>8</ele>
        <time>2020-06-07T13:26:41Z</time>
      </trkpt>
      <trkpt lat="47.77195" lon="-3.60995">
        <ele>8</ele>
        <time>2020-06-07T13:26:42Z</time>
      </trkpt>
      <trkpt lat="47.77196" lon="-3.60995">
        <ele>8</ele>
        <time>2020-06-07T13:26:43Z</time>
      </trkpt>
      <trkpt lat="47.77196" lon="-3.60995">
        <ele>8</ele>
        <time>2020-06-07T13:26:44Z</time>
      </trkpt>
      <trkpt lat="47.77196" lon="-3.60995">
        <ele>8</ele>
        <time>2020-06-07T13:26:45Z</time>
      </trkpt>
      <trkpt lat="47.77195" lon="-3.60995">
        <ele>8</ele>
        <time>2020-06-07T13:26:46Z</time>
      </trkpt>
      <trkpt lat="47.77195" lon="-3.60994">
        <ele>8</ele>
        <time>2020-06-07T13:26:47Z</time>
      </trkpt>
      <trkpt lat="47.77195" lon="-3.60994">
        <ele>8</ele>
        <time>2020-06-07T13:26:48Z</time>
      </trkpt>
      <trkpt lat="47.7719" lon="-3.60972">
        <ele>8</ele>
        <time>2020-06-07T13:28:38Z</time>
      </trkpt>
      <trkpt lat="47.7719" lon="-3.60972">
        <ele>8</ele>
        <time>2020-06-07T13:28:39Z</time>
      </trkpt>
      <trkpt lat="47.77188" lon="-3.60972">
        <ele>8</ele>
        <time>2020-06-07T13:28:40Z</time>
      </trkpt>
      <trkpt lat="47.77187" lon="-3.60972">
        <ele>8</ele>
        <time>2020-06-07T13:28:41Z</time>
      </trkpt>
      <trkpt lat="47.77186" lon="-3.60972">
        <ele>8</ele>
        <time>2020-06-07T13:28:42Z</time>
      </trkpt>
      <trkpt lat="47.77186" lon="-3.60972">
        <ele>8</ele>
        <time>2020-06-07T13:28:43Z</time>
      </trkpt>
      <trkpt lat="47.77186" lon="-3.60972">
        <ele>8</ele>
        <time>2020-06-07T13:28:44Z</time>
      </trkpt>
      <trkpt lat="47.77185" lon="-3.60972">
        <ele>8</ele>
        <time>2020-06-07T13:28:45Z</time>
      </trkpt>
      <trkpt lat="47.77184" lon="-3.60972">
        <ele>8</ele>
        <time>2020-06-07T13:28:46Z</time>
      </trkpt>
      <trkpt lat="47.77184" lon="-3.60972">
        <ele>8</ele>
        <time>2020-06-07T13:28:47Z</time>
      </trkpt>
      <trkpt lat="47.77184" lon="-3.60972">
        <ele>8</ele>
        <time>2020-06-07T13:28:48Z</time>
      </trkpt>
      <trkpt lat="47.77184" lon="-3.60972">
        <ele>8</ele>
        <time>2020-06-07T13:28:49Z</time>
      </trkpt>
      <trkpt lat="47.77184" lon="-3.6097">
        <ele>8</ele>
        <time>2020-06-07T13:28:50Z</time>
      </trkpt>
      <trkpt lat="47.77184" lon="-3.60969">
        <ele>8</ele>
        <time>2020-06-07T13:28:51Z</time>
      </trkpt>
      <trkpt lat="47.77184" lon="-3.60969">
        <ele>8</ele>
        <time>2020-06-07T13:28:52Z</time>
      </trkpt>
      <trkpt lat="47.77184" lon="-3.60969">
        <ele>8</ele>
        <time>2020-06-07T13:28:53Z</time>
      </trkpt>
      <trkpt lat="47.77184" lon="-3.60968">
        <ele>8</ele>
        <time>2020-06-07T13:28:54Z</time>
      </trkpt>
      <trkpt lat="47.77184" lon="-3.60968">
        <ele>8</ele>
        <time>2020-06-07T13:28:55Z</time>
      </trkpt>
      <trkpt lat="47.77184" lon="-3.60968">
        <ele>8</ele>
        <time>2020-06-07T13:28:56Z</time>
      </trkpt>
      <trkpt lat="47.77191" lon="-3.60969">
        <ele>8</ele>
        <time>2020-06-07T13:29:20Z</time>
      </trkpt>
      <trkpt lat="47.77192" lon="-3.60969">
        <ele>8</ele>
        <time>2020-06-07T13:29:21Z</time>
      </trkpt>
      <trkpt lat="47.77193" lon="-3.60969">
        <ele>8</ele>
        <time>2020-06-07T13:29:22Z</time>
      </trkpt>
      <trkpt lat="47.77195" lon="-3.60968">
        <ele>8</ele>
        <time>2020-06-07T13:29:23Z</time>
      </trkpt>
      <trkpt lat="47.77196" lon="-3.60967">
        <ele>8</ele>
        <time>2020-06-07T13:29:24Z</time>
      </trkpt>
      <trkpt lat="47.77197" lon="-3.60967">
        <ele>8</ele>
        <time>2020-06-07T13:29:25Z</time>
      </trkpt>
      <trkpt lat="47.772" lon="-3.60967">
        <ele>8</ele>
        <time>2020-06-07T13:29:26Z</time>
      </trkpt>
      <trkpt lat="47.77201" lon="-3.60966">
        <ele>8</ele>
        <time>2020-06-07T13:29:27Z</time>
      </trkpt>
      <trkpt lat="47.77205" lon="-3.60966">
        <ele>8</ele>
        <time>2020-06-07T13:29:28Z</time>
      </trkpt>
      <trkpt lat="47.77206" lon="-3.60966">
        <ele>8</ele>
        <time>2020-06-07T13:29:29Z</time>
      </trkpt>
      <trkpt lat="47.77209" lon="-3.60966">
        <ele>8</ele>
        <time>2020-06-07T13:29:30Z</time>
      </trkpt>
      <trkpt lat="47.77211" lon="-3.60966">
        <ele>8</ele>
        <time>2020-06-07T13:29:31Z</time>
      </trkpt>
      <trkpt lat="47.77215" lon="-3.60967">
        <ele>7.9</ele>
        <time>2020-06-07T13:29:32Z</time>
      </trkpt>
      <trkpt lat="47.77216" lon="-3.60968">
        <ele>7.9</ele>
        <time>2020-06-07T13:29:33Z</time>
      </trkpt>
      <trkpt lat="47.77219" lon="-3.60971">
        <ele>7.9</ele>
        <time>2020-06-07T13:29:34Z</time>
      </trkpt>
      <trkpt lat="47.77222" lon="-3.60973">
        <ele>7.9</ele>
        <time>2020-06-07T13:29:35Z</time>
      </trkpt>
      <trkpt lat="47.77223" lon="-3.60974">
        <ele>6.5</ele>
        <time>2020-06-07T13:29:36Z</time>
      </trkpt>
      <trkpt lat="47.77226" lon="-3.60975">
        <ele>6.6</ele>
        <time>2020-06-07T13:29:37Z</time>
      </trkpt>
      <trkpt lat="47.77227" lon="-3.60975">
        <ele>6.6</ele>
        <time>2020-06-07T13:29:38Z</time>
      </trkpt>
      <trkpt lat="47.7723" lon="-3.60978">
        <ele>6.7</ele>
        <time>2020-06-07T13:29:39Z</time>
      </trkpt>
      <trkpt lat="47.77231" lon="-3.60979">
        <ele>6.7</ele>
        <time>2020-06-07T13:29:40Z</time>
      </trkpt>
      <trkpt lat="47.77234" lon="-3.60982">
        <ele>6.8</ele>
        <time>2020-06-07T13:29:41Z</time>
      </trkpt>
      <trkpt lat="47.77235" lon="-3.60982">
        <ele>6.9</ele>
        <time>2020-06-07T13:29:42Z</time>
      </trkpt>
      <trkpt lat="47.77238" lon="-3.60983">
        <ele>7</ele>
        <time>2020-06-07T13:29:43Z</time>
      </trkpt>
      <trkpt lat="47.77239" lon="-3.60984">
        <ele>7</ele>
        <time>2020-06-07T13:29:44Z</time>
      </trkpt>
      <trkpt lat="47.77243" lon="-3.60985">
        <ele>7.2</ele>
        <time>2020-06-07T13:29:45Z</time>
      </trkpt>
      <trkpt lat="47.77244" lon="-3.60986">
        <ele>7.3</ele>
        <time>2020-06-07T13:29:46Z</time>
      </trkpt>
      <trkpt lat="47.77245" lon="-3.60985">
        <ele>7.3</ele>
        <time>2020-06-07T13:29:47Z</time>
      </trkpt>
      <trkpt lat="47.77247" lon="-3.60985">
        <ele>7.4</ele>
        <time>2020-06-07T13:29:48Z</time>
      </trkpt>
      <trkpt lat="47.77249" lon="-3.60984">
        <ele>7.5</ele>
        <time>2020-06-07T13:29:49Z</time>
      </trkpt>
      <trkpt lat="47.7725" lon="-3.60983">
        <ele>7.5</ele>
        <time>2020-06-07T13:29:50Z</time>
      </trkpt>
      <trkpt lat="47.77253" lon="-3.60983">
        <ele>7.7</ele>
        <time>2020-06-07T13:29:51Z</time>
      </trkpt>
      <trkpt lat="47.77254" lon="-3.60983">
        <ele>7.7</ele>
        <time>2020-06-07T13:29:52Z</time>
      </trkpt>
      <trkpt lat="47.77258" lon="-3.60982">
        <ele>8</ele>
        <time>2020-06-07T13:29:53Z</time>
      </trkpt>
      <trkpt lat="47.7726" lon="-3.60982">
        <ele>8.1</ele>
        <time>2020-06-07T13:29:54Z</time>
      </trkpt>
      <trkpt lat="47.77262" lon="-3.60981">
        <ele>8.4</ele>
        <time>2020-06-07T13:29:55Z</time>
      </trkpt>
      <trkpt lat="47.77263" lon="-3.60981">
        <ele>8.4</ele>
        <time>2020-06-07T13:29:56Z</time>
      </trkpt>
      <trkpt lat="47.77267" lon="-3.60982">
        <ele>8.7</ele>
        <time>2020-06-07T13:29:57Z</time>
      </trkpt>
      <trkpt lat="47.77268" lon="-3.60982">
        <ele>8.8</ele>
        <time>2020-06-07T13:29:58Z</time>
      </trkpt>
      <trkpt lat="47.77272" lon="-3.60981">
        <ele>9.1</ele>
        <time>2020-06-07T13:29:59Z</time>
      </trkpt>
      <trkpt lat="47.77273" lon="-3.60981">
        <ele>9.2</ele>
        <time>2020-06-07T13:30:00Z</time>
      </trkpt>
      <trkpt lat="47.77276" lon="-3.60981">
        <ele>9.5</ele>
        <time>2020-06-07T13:30:01Z</time>
      </trkpt>
      <trkpt lat="47.77277" lon="-3.60981">
        <ele>9.6</ele>
        <time>2020-06-07T13:30:02Z</time>
      </trkpt>
      <trkpt lat="47.7728" lon="-3.60983">
        <ele>9.9</ele>
        <time>2020-06-07T13:30:03Z</time>
      </trkpt>
      <trkpt lat="47.77281" lon="-3.60984">
        <ele>10</ele>
        <time>2020-06-07T13:30:04Z</time>
      </trkpt>
      <trkpt lat="47.77285" lon="-3.60987">
        <ele>10.3</ele>
        <time>2020-06-07T13:30:05Z</time>
      </trkpt>
      <trkpt lat="47.77286" lon="-3.60988">
        <ele>10.4</ele>
        <time>2020-06-07T13:30:06Z</time>
      </trkpt>
      <trkpt lat="47.77288" lon="-3.60992">
        <ele>10.8</ele>
        <time>2020-06-07T13:30:07Z</time>
      </trkpt>
      <trkpt lat="47.77289" lon="-3.60996">
        <ele>11</ele>
        <time>2020-06-07T13:30:08Z</time>
      </trkpt>
      <trkpt lat="47.7729" lon="-3.60998">
        <ele>11.1</ele>
        <time>2020-06-07T13:30:09Z</time>
      </trkpt>
      <trkpt lat="47.7729" lon="-3.61">
        <ele>11.1</ele>
        <time>2020-06-07T13:30:10Z</time>
      </trkpt>
      <trkpt lat="47.7729" lon="-3.61003">
        <ele>11.2</ele>
        <time>2020-06-07T13:30:11Z</time>
      </trkpt>
      <trkpt lat="47.7729" lon="-3.61008">
        <ele>11.7</ele>
        <time>2020-06-07T13:30:12Z</time>
      </trkpt>
      <trkpt lat="47.7729" lon="-3.61009">
        <ele>11.8</ele>
        <time>2020-06-07T13:30:13Z</time>
      </trkpt>
      <trkpt lat="47.7729" lon="-3.61013">
        <ele>12.1</ele>
        <time>2020-06-07T13:30:14Z</time>
      </trkpt>
      <trkpt lat="47.77289" lon="-3.61014">
        <ele>12.2</ele>
        <time>2020-06-07T13:30:15Z</time>
      </trkpt>
      <trkpt lat="47.7729" lon="-3.61019">
        <ele>12.6</ele>
        <time>2020-06-07T13:30:16Z</time>
      </trkpt>
      <trkpt lat="47.7729" lon="-3.6102">
        <ele>12.9</ele>
        <time>2020-06-07T13:30:17Z</time>
      </trkpt>
      <trkpt lat="47.77291" lon="-3.61022">
        <ele>13</ele>
        <time>2020-06-07T13:30:18Z</time>
      </trkpt>
      <trkpt lat="47.77291" lon="-3.61024">
        <ele>13.1</ele>
        <time>2020-06-07T13:30:19Z</time>
      </trkpt>
      <trkpt lat="47.77292" lon="-3.61027">
        <ele>13.2</ele>
        <time>2020-06-07T13:30:20Z</time>
      </trkpt>
      <trkpt lat="47.77292" lon="-3.6103">
        <ele>13.3</ele>
        <time>2020-06-07T13:30:21Z</time>
      </trkpt>
      <trkpt lat="47.77292" lon="-3.61032">
        <ele>13.4</ele>
        <time>2020-06-07T13:30:22Z</time>
      </trkpt>
      <trkpt lat="47.77292" lon="-3.61034">
        <ele>13.5</ele>
        <time>2020-06-07T13:30:23Z</time>
      </trkpt>
      <trkpt lat="47.77292" lon="-3.61037">
        <ele>13.6</ele>
        <time>2020-06-07T13:30:24Z</time>
      </trkpt>
      <trkpt lat="47.77293" lon="-3.61039">
        <ele>13.7</ele>
        <time>2020-06-07T13:30:25Z</time>
      </trkpt>
      <trkpt lat="47.77294" lon="-3.61042">
        <ele>13.8</ele>
        <time>2020-06-07T13:30:26Z</time>
      </trkpt>
      <trkpt lat="47.77294" lon="-3.61044">
        <ele>13.9</ele>
        <time>2020-06-07T13:30:27Z</time>
      </trkpt>
      <trkpt lat="47.77294" lon="-3.61048">
        <ele>14</ele>
        <time>2020-06-07T13:30:28Z</time>
      </trkpt>
      <trkpt lat="47.77294" lon="-3.6105">
        <ele>14.3</ele>
        <time>2020-06-07T13:30:29Z</time>
      </trkpt>
      <trkpt lat="47.77294" lon="-3.61055">
        <ele>14.7</ele>
        <time>2020-06-07T13:30:30Z</time>
      </trkpt>
      <trkpt lat="47.77294" lon="-3.61056">
        <ele>14.9</ele>
        <time>2020-06-07T13:30:31Z</time>
      </trkpt>
      <trkpt lat="47.77294" lon="-3.61058">
        <ele>15.1</ele>
        <time>2020-06-07T13:30:32Z</time>
      </trkpt>
      <trkpt lat="47.77294" lon="-3.61062">
        <ele>15.4</ele>
        <time>2020-06-07T13:30:33Z</time>
      </trkpt>
      <trkpt lat="47.77294" lon="-3.61066">
        <ele>15.9</ele>
        <time>2020-06-07T13:30:34Z</time>
      </trkpt>
      <trkpt lat="47.77294" lon="-3.61068">
        <ele>16</ele>
        <time>2020-06-07T13:30:35Z</time>
      </trkpt>
      <trkpt lat="47.77292" lon="-3.61073">
        <ele>16.5</ele>
        <time>2020-06-07T13:30:36Z</time>
      </trkpt>
      <trkpt lat="47.77292" lon="-3.61074">
        <ele>16.7</ele>
        <time>2020-06-07T13:30:37Z</time>
      </trkpt>
      <trkpt lat="47.77291" lon="-3.61079">
        <ele>17.1</ele>
        <time>2020-06-07T13:30:38Z</time>
      </trkpt>
      <trkpt lat="47.77291" lon="-3.61081">
        <ele>17.3</ele>
        <time>2020-06-07T13:30:39Z</time>
      </trkpt>
      <trkpt lat="47.77289" lon="-3.61086">
        <ele>17.7</ele>
        <time>2020-06-07T13:30:40Z</time>
      </trkpt>
      <trkpt lat="47.77289" lon="-3.61087">
        <ele>17.8</ele>
        <time>2020-06-07T13:30:41Z</time>
      </trkpt>
      <trkpt lat="47.77288" lon="-3.61089">
        <ele>18</ele>
        <time>2020-06-07T13:30:42Z</time>
      </trkpt>
      <trkpt lat="47.77287" lon="-3.61092">
        <ele>18.2</ele>
        <time>2020-06-07T13:30:43Z</time>
      </trkpt>
      <trkpt lat="47.77287" lon="-3.61096">
        <ele>18.5</ele>
        <time>2020-06-07T13:30:44Z</time>
      </trkpt>
      <trkpt lat="47.77287" lon="-3.61097">
        <ele>18.7</ele>
        <time>2020-06-07T13:30:45Z</time>
      </trkpt>
      <trkpt lat="47.77287" lon="-3.61101">
        <ele>19</ele>
        <time>2020-06-07T13:30:46Z</time>
      </trkpt>
      <trkpt lat="47.77287" lon="-3.61107">
        <ele>19.4</ele>
        <time>2020-06-07T13:30:47Z</time>
      </trkpt>
      <trkpt lat="47.77287" lon="-3.61109">
        <ele>19.5</ele>
        <time>2020-06-07T13:30:48Z</time>
      </trkpt>
      <trkpt lat="47.77287" lon="-3.61114">
        <ele>19.9</ele>
        <time>2020-06-07T13:30:49Z</time>
      </trkpt>
      <trkpt lat="47.77287" lon="-3.61116">
        <ele>20</ele>
        <time>2020-06-07T13:30:50Z</time>
      </trkpt>
      <trkpt lat="47.77288" lon="-3.61121">
        <ele>20.4</ele>
        <time>2020-06-07T13:30:51Z</time>
      </trkpt>
      <trkpt lat="47.77288" lon="-3.61123">
        <ele>20.5</ele>
        <time>2020-06-07T13:30:52Z</time>
      </trkpt>
      <trkpt lat="47.77288" lon="-3.61128">
        <ele>20.8</ele>
        <time>2020-06-07T13:30:53Z</time>
      </trkpt>
      <trkpt lat="47.77288" lon="-3.6113">
        <ele>20.9</ele>
        <time>2020-06-07T13:30:54Z</time>
      </trkpt>
      <trkpt lat="47.77288" lon="-3.61135">
        <ele>21.1</ele>
        <time>2020-06-07T13:30:55Z</time>
      </trkpt>
      <trkpt lat="47.77288" lon="-3.61136">
        <ele>21.2</ele>
        <time>2020-06-07T13:30:56Z</time>
      </trkpt>
      <trkpt lat="47.77289" lon="-3.6114">
        <ele>21.3</ele>
        <time>2020-06-07T13:30:57Z</time>
      </trkpt>
      <trkpt lat="47.7729" lon="-3.61144">
        <ele>21.5</ele>
        <time>2020-06-07T13:30:58Z</time>
      </trkpt>
      <trkpt lat="47.77292" lon="-3.61148">
        <ele>21.6</ele>
        <time>2020-06-07T13:30:59Z</time>
      </trkpt>
      <trkpt lat="47.77293" lon="-3.61149">
        <ele>21.7</ele>
        <time>2020-06-07T13:31:00Z</time>
      </trkpt>
      <trkpt lat="47.77296" lon="-3.61153">
        <ele>21.8</ele>
        <time>2020-06-07T13:31:01Z</time>
      </trkpt>
      <trkpt lat="47.77297" lon="-3.61154">
        <ele>21.8</ele>
        <time>2020-06-07T13:31:02Z</time>
      </trkpt>
      <trkpt lat="47.773" lon="-3.61157">
        <ele>21.8</ele>
        <time>2020-06-07T13:31:03Z</time>
      </trkpt>
      <trkpt lat="47.773" lon="-3.61158">
        <ele>21.9</ele>
        <time>2020-06-07T13:31:04Z</time>
      </trkpt>
      <trkpt lat="47.77303" lon="-3.6116">
        <ele>21.9</ele>
        <time>2020-06-07T13:31:05Z</time>
      </trkpt>
      <trkpt lat="47.77304" lon="-3.61161">
        <ele>21.9</ele>
        <time>2020-06-07T13:31:06Z</time>
      </trkpt>
      <trkpt lat="47.77308" lon="-3.61162">
        <ele>21.9</ele>
        <time>2020-06-07T13:31:07Z</time>
      </trkpt>
      <trkpt lat="47.77309" lon="-3.61162">
        <ele>22</ele>
        <time>2020-06-07T13:31:08Z</time>
      </trkpt>
      <trkpt lat="47.77312" lon="-3.61164">
        <ele>22</ele>
        <time>2020-06-07T13:31:09Z</time>
      </trkpt>
      <trkpt lat="47.77312" lon="-3.61164">
        <ele>22</ele>
        <time>2020-06-07T13:31:10Z</time>
      </trkpt>
      <trkpt lat="47.77316" lon="-3.61167">
        <ele>22.1</ele>
        <time>2020-06-07T13:31:11Z</time>
      </trkpt>
      <trkpt lat="47.77317" lon="-3.61169">
        <ele>22.1</ele>
        <time>2020-06-07T13:31:12Z</time>
      </trkpt>
      <trkpt lat="47.7732" lon="-3.61172">
        <ele>22.1</ele>
        <time>2020-06-07T13:31:13Z</time>
      </trkpt>
      <trkpt lat="47.77321" lon="-3.61173">
        <ele>22.1</ele>
        <time>2020-06-07T13:31:14Z</time>
      </trkpt>
      <trkpt lat="47.77324" lon="-3.61175">
        <ele>22.1</ele>
        <time>2020-06-07T13:31:15Z</time>
      </trkpt>
      <trkpt lat="47.77327" lon="-3.61178">
        <ele>22.1</ele>
        <time>2020-06-07T13:31:16Z</time>
      </trkpt>
      <trkpt lat="47.77329" lon="-3.6118">
        <ele>22.2</ele>
        <time>2020-06-07T13:31:17Z</time>
      </trkpt>
      <trkpt lat="47.77332" lon="-3.61183">
        <ele>22.2</ele>
        <time>2020-06-07T13:31:18Z</time>
      </trkpt>
      <trkpt lat="47.77335" lon="-3.61185">
        <ele>22.2</ele>
        <time>2020-06-07T13:31:19Z</time>
      </trkpt>
      <trkpt lat="47.77338" lon="-3.61187">
        <ele>22.2</ele>
        <time>2020-06-07T13:31:20Z</time>
      </trkpt>
      <trkpt lat="47.77341" lon="-3.61189">
        <ele>22.2</ele>
        <time>2020-06-07T13:31:21Z</time>
      </trkpt>
      <trkpt lat="47.77343" lon="-3.61192">
        <ele>22.2</ele>
        <time>2020-06-07T13:31:22Z</time>
      </trkpt>
      <trkpt lat="47.77346" lon="-3.61193">
        <ele>22.2</ele>
        <time>2020-06-07T13:31:23Z</time>
      </trkpt>
      <trkpt lat="47.77349" lon="-3.61194">
        <ele>22.2</ele>
        <time>2020-06-07T13:31:24Z</time>
      </trkpt>
      <trkpt lat="47.77353" lon="-3.61196">
        <ele>22.2</ele>
        <time>2020-06-07T13:31:25Z</time>
      </trkpt>
      <trkpt lat="47.77356" lon="-3.61198">
        <ele>22.3</ele>
        <time>2020-06-07T13:31:26Z</time>
      </trkpt>
      <trkpt lat="47.7736" lon="-3.612">
        <ele>22.3</ele>
        <time>2020-06-07T13:31:27Z</time>
      </trkpt>
      <trkpt lat="47.77363" lon="-3.61202">
        <ele>22.4</ele>
        <time>2020-06-07T13:31:28Z</time>
      </trkpt>
      <trkpt lat="47.77367" lon="-3.61204">
        <ele>22.4</ele>
        <time>2020-06-07T13:31:29Z</time>
      </trkpt>
      <trkpt lat="47.77371" lon="-3.61203">
        <ele>22.5</ele>
        <time>2020-06-07T13:31:30Z</time>
      </trkpt>
      <trkpt lat="47.77374" lon="-3.61204">
        <ele>22.6</ele>
        <time>2020-06-07T13:31:31Z</time>
      </trkpt>
      <trkpt lat="47.77378" lon="-3.61204">
        <ele>22.7</ele>
        <time>2020-06-07T13:31:32Z</time>
      </trkpt>
      <trkpt lat="47.77382" lon="-3.61205">
        <ele>22.8</ele>
        <time>2020-06-07T13:31:33Z</time>
      </trkpt>
      <trkpt lat="47.77385" lon="-3.61207">
        <ele>22.9</ele>
        <time>2020-06-07T13:31:34Z</time>
      </trkpt>
      <trkpt lat="47.77389" lon="-3.61208">
        <ele>23</ele>
        <time>2020-06-07T13:31:35Z</time>
      </trkpt>
      <trkpt lat="47.77392" lon="-3.61209">
        <ele>23.1</ele>
        <time>2020-06-07T13:31:36Z</time>
      </trkpt>
      <trkpt lat="47.77395" lon="-3.6121">
        <ele>23.1</ele>
        <time>2020-06-07T13:31:37Z</time>
      </trkpt>
      <trkpt lat="47.77398" lon="-3.61211">
        <ele>23.2</ele>
        <time>2020-06-07T13:31:38Z</time>
      </trkpt>
      <trkpt lat="47.77401" lon="-3.61213">
        <ele>23.3</ele>
        <time>2020-06-07T13:31:39Z</time>
      </trkpt>
      <trkpt lat="47.77404" lon="-3.61215">
        <ele>23.4</ele>
        <time>2020-06-07T13:31:40Z</time>
      </trkpt>
      <trkpt lat="47.77406" lon="-3.61216">
        <ele>23.4</ele>
        <time>2020-06-07T13:31:41Z</time>
      </trkpt>
      <trkpt lat="47.77408" lon="-3.61218">
        <ele>23.5</ele>
        <time>2020-06-07T13:31:42Z</time>
      </trkpt>
      <trkpt lat="47.77411" lon="-3.61219">
        <ele>23.6</ele>
        <time>2020-06-07T13:31:43Z</time>
      </trkpt>
      <trkpt lat="47.77414" lon="-3.61219">
        <ele>23.7</ele>
        <time>2020-06-07T13:31:44Z</time>
      </trkpt>
      <trkpt lat="47.77417" lon="-3.6122">
        <ele>23.8</ele>
        <time>2020-06-07T13:31:45Z</time>
      </trkpt>
      <trkpt lat="47.7742" lon="-3.61221">
        <ele>23.8</ele>
        <time>2020-06-07T13:31:46Z</time>
      </trkpt>
      <trkpt lat="47.77424" lon="-3.61221">
        <ele>23.9</ele>
        <time>2020-06-07T13:31:47Z</time>
      </trkpt>
      <trkpt lat="47.77425" lon="-3.61222">
        <ele>24</ele>
        <time>2020-06-07T13:31:48Z</time>
      </trkpt>
      <trkpt lat="47.77429" lon="-3.61223">
        <ele>24</ele>
        <time>2020-06-07T13:31:49Z</time>
      </trkpt>
      <trkpt lat="47.7743" lon="-3.61224">
        <ele>24.1</ele>
        <time>2020-06-07T13:31:50Z</time>
      </trkpt>
      <trkpt lat="47.77434" lon="-3.61226">
        <ele>24.1</ele>
        <time>2020-06-07T13:31:51Z</time>
      </trkpt>
      <trkpt lat="47.77437" lon="-3.61227">
        <ele>24.2</ele>
        <time>2020-06-07T13:31:52Z</time>
      </trkpt>
      <trkpt lat="47.7744" lon="-3.6123">
        <ele>24.2</ele>
        <time>2020-06-07T13:31:53Z</time>
      </trkpt>
      <trkpt lat="47.77445" lon="-3.61233">
        <ele>24.3</ele>
        <time>2020-06-07T13:31:54Z</time>
      </trkpt>
      <trkpt lat="47.77448" lon="-3.61235">
        <ele>24.4</ele>
        <time>2020-06-07T13:31:55Z</time>
      </trkpt>
      <trkpt lat="47.77451" lon="-3.61236">
        <ele>24.4</ele>
        <time>2020-06-07T13:31:56Z</time>
      </trkpt>
      <trkpt lat="47.77454" lon="-3.61238">
        <ele>24.4</ele>
        <time>2020-06-07T13:31:57Z</time>
      </trkpt>
      <trkpt lat="47.77457" lon="-3.61239">
        <ele>24.4</ele>
        <time>2020-06-07T13:31:58Z</time>
      </trkpt>
      <trkpt lat="47.7746" lon="-3.6124">
        <ele>24.4</ele>
        <time>2020-06-07T13:31:59Z</time>
      </trkpt>
      <trkpt lat="47.77463" lon="-3.6124">
        <ele>24.4</ele>
        <time>2020-06-07T13:32:00Z</time>
      </trkpt>
      <trkpt lat="47.77466" lon="-3.6124">
        <ele>24.4</ele>
        <time>2020-06-07T13:32:01Z</time>
      </trkpt>
      <trkpt lat="47.77469" lon="-3.61239">
        <ele>24.4</ele>
        <time>2020-06-07T13:32:02Z</time>
      </trkpt>
      <trkpt lat="47.77473" lon="-3.61239">
        <ele>24.3</ele>
        <time>2020-06-07T13:32:03Z</time>
      </trkpt>
      <trkpt lat="47.77476" lon="-3.61238">
        <ele>24.3</ele>
        <time>2020-06-07T13:32:04Z</time>
      </trkpt>
      <trkpt lat="47.7748" lon="-3.61238">
        <ele>24.2</ele>
        <time>2020-06-07T13:32:05Z</time>
      </trkpt>
      <trkpt lat="47.77484" lon="-3.61238">
        <ele>24.1</ele>
        <time>2020-06-07T13:32:06Z</time>
      </trkpt>
      <trkpt lat="47.77489" lon="-3.61238">
        <ele>24</ele>
        <time>2020-06-07T13:32:07Z</time>
      </trkpt>
      <trkpt lat="47.77494" lon="-3.61239">
        <ele>23.9</ele>
        <time>2020-06-07T13:32:08Z</time>
      </trkpt>
      <trkpt lat="47.77499" lon="-3.61238">
        <ele>23.8</ele>
        <time>2020-06-07T13:32:09Z</time>
      </trkpt>
      <trkpt lat="47.77503" lon="-3.61238">
        <ele>23.6</ele>
        <time>2020-06-07T13:32:10Z</time>
      </trkpt>
      <trkpt lat="47.77507" lon="-3.61239">
        <ele>23.4</ele>
        <time>2020-06-07T13:32:11Z</time>
      </trkpt>
      <trkpt lat="47.77511" lon="-3.61239">
        <ele>23.2</ele>
        <time>2020-06-07T13:32:12Z</time>
      </trkpt>
      <trkpt lat="47.77515" lon="-3.6124">
        <ele>23</ele>
        <time>2020-06-07T13:32:13Z</time>
      </trkpt>
      <trkpt lat="47.77519" lon="-3.61241">
        <ele>22.8</ele>
        <time>2020-06-07T13:32:14Z</time>
      </trkpt>
      <trkpt lat="47.77523" lon="-3.61242">
        <ele>22.6</ele>
        <time>2020-06-07T13:32:15Z</time>
      </trkpt>
      <trkpt lat="47.77527" lon="-3.61243">
        <ele>22.3</ele>
        <time>2020-06-07T13:32:16Z</time>
      </trkpt>
      <trkpt lat="47.7753" lon="-3.61243">
        <ele>22</ele>
        <time>2020-06-07T13:32:17Z</time>
      </trkpt>
      <trkpt lat="47.77534" lon="-3.61244">
        <ele>21.8</ele>
        <time>2020-06-07T13:32:18Z</time>
      </trkpt>
      <trkpt lat="47.77538" lon="-3.61245">
        <ele>21.5</ele>
        <time>2020-06-07T13:32:19Z</time>
      </trkpt>
      <trkpt lat="47.77542" lon="-3.61245">
        <ele>21.2</ele>
        <time>2020-06-07T13:32:20Z</time>
      </trkpt>
      <trkpt lat="47.77545" lon="-3.61245">
        <ele>21</ele>
        <time>2020-06-07T13:32:21Z</time>
      </trkpt>
      <trkpt lat="47.77548" lon="-3.61247">
        <ele>20.7</ele>
        <time>2020-06-07T13:32:22Z</time>
      </trkpt>
      <trkpt lat="47.77553" lon="-3.6125">
        <ele>20.4</ele>
        <time>2020-06-07T13:32:23Z</time>
      </trkpt>
      <trkpt lat="47.77559" lon="-3.61253">
        <ele>20.1</ele>
        <time>2020-06-07T13:32:24Z</time>
      </trkpt>
      <trkpt lat="47.77563" lon="-3.61256">
        <ele>19.9</ele>
        <time>2020-06-07T13:32:25Z</time>
      </trkpt>
      <trkpt lat="47.77567" lon="-3.6126">
        <ele>19.6</ele>
        <time>2020-06-07T13:32:26Z</time>
      </trkpt>
      <trkpt lat="47.77571" lon="-3.61262">
        <ele>19.5</ele>
        <time>2020-06-07T13:32:27Z</time>
      </trkpt>
      <trkpt lat="47.77576" lon="-3.61265">
        <ele>19.4</ele>
        <time>2020-06-07T13:32:28Z</time>
      </trkpt>
      <trkpt lat="47.7758" lon="-3.61266">
        <ele>21.7</ele>
        <time>2020-06-07T13:32:29Z</time>
      </trkpt>
      <trkpt lat="47.77583" lon="-3.61268">
        <ele>21.7</ele>
        <time>2020-06-07T13:32:30Z</time>
      </trkpt>
      <trkpt lat="47.77586" lon="-3.6127">
        <ele>21.7</ele>
        <time>2020-06-07T13:32:31Z</time>
      </trkpt>
      <trkpt lat="47.77589" lon="-3.61271">
        <ele>21.7</ele>
        <time>2020-06-07T13:32:32Z</time>
      </trkpt>
      <trkpt lat="47.77592" lon="-3.61276">
        <ele>22</ele>
        <time>2020-06-07T13:32:33Z</time>
      </trkpt>
      <trkpt lat="47.77595" lon="-3.61277">
        <ele>22.2</ele>
        <time>2020-06-07T13:32:34Z</time>
      </trkpt>
      <trkpt lat="47.77597" lon="-3.61279">
        <ele>22.3</ele>
        <time>2020-06-07T13:32:35Z</time>
      </trkpt>
      <trkpt lat="47.776" lon="-3.61278">
        <ele>22.4</ele>
        <time>2020-06-07T13:32:36Z</time>
      </trkpt>
      <trkpt lat="47.77605" lon="-3.61278">
        <ele>22.6</ele>
        <time>2020-06-07T13:32:37Z</time>
      </trkpt>
      <trkpt lat="47.77606" lon="-3.61278">
        <ele>22.7</ele>
        <time>2020-06-07T13:32:38Z</time>
      </trkpt>
      <trkpt lat="47.77609" lon="-3.61278">
        <ele>22.8</ele>
        <time>2020-06-07T13:32:39Z</time>
      </trkpt>
      <trkpt lat="47.77613" lon="-3.61279">
        <ele>22.9</ele>
        <time>2020-06-07T13:32:40Z</time>
      </trkpt>
      <trkpt lat="47.77614" lon="-3.61279">
        <ele>23</ele>
        <time>2020-06-07T13:32:41Z</time>
      </trkpt>
      <trkpt lat="47.77617" lon="-3.6128">
        <ele>23.2</ele>
        <time>2020-06-07T13:32:42Z</time>
      </trkpt>
      <trkpt lat="47.77618" lon="-3.6128">
        <ele>23.2</ele>
        <time>2020-06-07T13:32:43Z</time>
      </trkpt>
      <trkpt lat="47.7762" lon="-3.61281">
        <ele>23.3</ele>
        <time>2020-06-07T13:32:44Z</time>
      </trkpt>
      <trkpt lat="47.77621" lon="-3.6128">
        <ele>23.3</ele>
        <time>2020-06-07T13:32:45Z</time>
      </trkpt>
      <trkpt lat="47.77622" lon="-3.6128">
        <ele>23.4</ele>
        <time>2020-06-07T13:32:46Z</time>
      </trkpt>
      <trkpt lat="47.77625" lon="-3.6128">
        <ele>23.5</ele>
        <time>2020-06-07T13:32:47Z</time>
      </trkpt>
      <trkpt lat="47.77626" lon="-3.6128">
        <ele>23.6</ele>
        <time>2020-06-07T13:32:48Z</time>
      </trkpt>
      <trkpt lat="47.77629" lon="-3.61281">
        <ele>23.7</ele>
        <time>2020-06-07T13:32:49Z</time>
      </trkpt>
      <trkpt lat="47.77632" lon="-3.61283">
        <ele>23.9</ele>
        <time>2020-06-07T13:32:50Z</time>
      </trkpt>
      <trkpt lat="47.77633" lon="-3.61283">
        <ele>24</ele>
        <time>2020-06-07T13:32:51Z</time>
      </trkpt>
      <trkpt lat="47.77636" lon="-3.61284">
        <ele>24.1</ele>
        <time>2020-06-07T13:32:52Z</time>
      </trkpt>
      <trkpt lat="47.77637" lon="-3.61284">
        <ele>24.2</ele>
        <time>2020-06-07T13:32:53Z</time>
      </trkpt>
      <trkpt lat="47.77638" lon="-3.61284">
        <ele>24.3</ele>
        <time>2020-06-07T13:32:54Z</time>
      </trkpt>
      <trkpt lat="47.7764" lon="-3.61285">
        <ele>24.3</ele>
        <time>2020-06-07T13:32:55Z</time>
      </trkpt>
      <trkpt lat="47.77641" lon="-3.61285">
        <ele>24.4</ele>
        <time>2020-06-07T13:32:56Z</time>
      </trkpt>
      <trkpt lat="47.77643" lon="-3.61286">
        <ele>24.5</ele>
        <time>2020-06-07T13:32:57Z</time>
      </trkpt>
      <trkpt lat="47.77646" lon="-3.61287">
        <ele>24.6</ele>
        <time>2020-06-07T13:32:58Z</time>
      </trkpt>
      <trkpt lat="47.77646" lon="-3.61287">
        <ele>24.6</ele>
        <time>2020-06-07T13:32:59Z</time>
      </trkpt>
      <trkpt lat="47.77647" lon="-3.61288">
        <ele>24.6</ele>
        <time>2020-06-07T13:33:00Z</time>
      </trkpt>
      <trkpt lat="47.77647" lon="-3.61287">
        <ele>24.7</ele>
        <time>2020-06-07T13:33:01Z</time>
      </trkpt>
      <trkpt lat="47.77647" lon="-3.61286">
        <ele>24.7</ele>
        <time>2020-06-07T13:33:02Z</time>
      </trkpt>
      <trkpt lat="47.77646" lon="-3.61286">
        <ele>24.7</ele>
        <time>2020-06-07T13:33:03Z</time>
      </trkpt>
      <trkpt lat="47.77644" lon="-3.61287">
        <ele>24.8</ele>
        <time>2020-06-07T13:33:04Z</time>
      </trkpt>
      <trkpt lat="47.77645" lon="-3.6129">
        <ele>24.9</ele>
        <time>2020-06-07T13:33:05Z</time>
      </trkpt>
      <trkpt lat="47.77646" lon="-3.61293">
        <ele>25</ele>
        <time>2020-06-07T13:33:06Z</time>
      </trkpt>
      <trkpt lat="47.77647" lon="-3.61296">
        <ele>25.1</ele>
        <time>2020-06-07T13:33:07Z</time>
      </trkpt>
      <trkpt lat="47.77649" lon="-3.61299">
        <ele>25.2</ele>
        <time>2020-06-07T13:33:08Z</time>
      </trkpt>
      <trkpt lat="47.7765" lon="-3.61302">
        <ele>25.3</ele>
        <time>2020-06-07T13:33:09Z</time>
      </trkpt>
      <trkpt lat="47.77651" lon="-3.61305">
        <ele>25.4</ele>
        <time>2020-06-07T13:33:50Z</time>
      </trkpt>
      <trkpt lat="47.77652" lon="-3.61307">
        <ele>25.5</ele>
        <time>2020-06-07T13:33:51Z</time>
      </trkpt>
      <trkpt lat="47.77655" lon="-3.6131">
        <ele>25.7</ele>
        <time>2020-06-07T13:33:52Z</time>
      </trkpt>
      <trkpt lat="47.77656" lon="-3.61311">
        <ele>25.8</ele>
        <time>2020-06-07T13:33:53Z</time>
      </trkpt>
      <trkpt lat="47.77658" lon="-3.61312">
        <ele>26</ele>
        <time>2020-06-07T13:33:54Z</time>
      </trkpt>
      <trkpt lat="47.77659" lon="-3.61313">
        <ele>26.1</ele>
        <time>2020-06-07T13:33:55Z</time>
      </trkpt>
      <trkpt lat="47.77663" lon="-3.61316">
        <ele>26.4</ele>
        <time>2020-06-07T13:33:56Z</time>
      </trkpt>
      <trkpt lat="47.77664" lon="-3.61316">
        <ele>26.5</ele>
        <time>2020-06-07T13:33:57Z</time>
      </trkpt>
      <trkpt lat="47.77667" lon="-3.61318">
        <ele>26.8</ele>
        <time>2020-06-07T13:33:58Z</time>
      </trkpt>
      <trkpt lat="47.7767" lon="-3.61321">
        <ele>27.1</ele>
        <time>2020-06-07T13:33:59Z</time>
      </trkpt>
      <trkpt lat="47.77672" lon="-3.61322">
        <ele>27.2</ele>
        <time>2020-06-07T13:34:00Z</time>
      </trkpt>
      <trkpt lat="47.77674" lon="-3.61324">
        <ele>27.5</ele>
        <time>2020-06-07T13:34:01Z</time>
      </trkpt>
      <trkpt lat="47.77677" lon="-3.61327">
        <ele>27.7</ele>
        <time>2020-06-07T13:34:02Z</time>
      </trkpt>
      <trkpt lat="47.7768" lon="-3.61329">
        <ele>28</ele>
        <time>2020-06-07T13:34:03Z</time>
      </trkpt>
      <trkpt lat="47.77684" lon="-3.61331">
        <ele>28.3</ele>
        <time>2020-06-07T13:34:04Z</time>
      </trkpt>
      <trkpt lat="47.77685" lon="-3.61332">
        <ele>28.4</ele>
        <time>2020-06-07T13:34:05Z</time>
      </trkpt>
      <trkpt lat="47.77688" lon="-3.61333">
        <ele>28.6</ele>
        <time>2020-06-07T13:34:06Z</time>
      </trkpt>
      <trkpt lat="47.77689" lon="-3.61334">
        <ele>28.7</ele>
        <time>2020-06-07T13:34:07Z</time>
      </trkpt>
      <trkpt lat="47.77692" lon="-3.61336">
        <ele>29</ele>
        <time>2020-06-07T13:34:08Z</time>
      </trkpt>
      <trkpt lat="47.77693" lon="-3.61336">
        <ele>29.1</ele>
        <time>2020-06-07T13:34:09Z</time>
      </trkpt>
      <trkpt lat="47.77696" lon="-3.61337">
        <ele>29.4</ele>
        <time>2020-06-07T13:34:10Z</time>
      </trkpt>
      <trkpt lat="47.77699" lon="-3.61338">
        <ele>29.6</ele>
        <time>2020-06-07T13:34:11Z</time>
      </trkpt>
      <trkpt lat="47.77699" lon="-3.61339">
        <ele>29.6</ele>
        <time>2020-06-07T13:34:12Z</time>
      </trkpt>
      <trkpt lat="47.777" lon="-3.61341">
        <ele>29.8</ele>
        <time>2020-06-07T13:34:13Z</time>
      </trkpt>
      <trkpt lat="47.77701" lon="-3.61342">
        <ele>29.9</ele>
        <time>2020-06-07T13:34:14Z</time>
      </trkpt>
      <trkpt lat="47.77702" lon="-3.61343">
        <ele>30</ele>
        <time>2020-06-07T13:34:15Z</time>
      </trkpt>
      <trkpt lat="47.77703" lon="-3.61344">
        <ele>30</ele>
        <time>2020-06-07T13:34:16Z</time>
      </trkpt>
      <trkpt lat="47.77704" lon="-3.61346">
        <ele>30.2</ele>
        <time>2020-06-07T13:34:17Z</time>
      </trkpt>
      <trkpt lat="47.77706" lon="-3.61349">
        <ele>30.4</ele>
        <time>2020-06-07T13:34:18Z</time>
      </trkpt>
      <trkpt lat="47.77706" lon="-3.6135">
        <ele>30.4</ele>
        <time>2020-06-07T13:34:19Z</time>
      </trkpt>
      <trkpt lat="47.77708" lon="-3.61351">
        <ele>30.5</ele>
        <time>2020-06-07T13:34:20Z</time>
      </trkpt>
      <trkpt lat="47.77709" lon="-3.61352">
        <ele>30.6</ele>
        <time>2020-06-07T13:34:21Z</time>
      </trkpt>
      <trkpt lat="47.77711" lon="-3.61351">
        <ele>30.7</ele>
        <time>2020-06-07T13:34:22Z</time>
      </trkpt>
      <trkpt lat="47.77712" lon="-3.61351">
        <ele>30.8</ele>
        <time>2020-06-07T13:34:23Z</time>
      </trkpt>
      <trkpt lat="47.77713" lon="-3.6135">
        <ele>30.8</ele>
        <time>2020-06-07T13:34:24Z</time>
      </trkpt>
      <trkpt lat="47.77714" lon="-3.61351">
        <ele>30.9</ele>
        <time>2020-06-07T13:34:25Z</time>
      </trkpt>
      <trkpt lat="47.77716" lon="-3.61352">
        <ele>31</ele>
        <time>2020-06-07T13:34:26Z</time>
      </trkpt>
      <trkpt lat="47.77718" lon="-3.61356">
        <ele>31.1</ele>
        <time>2020-06-07T13:34:27Z</time>
      </trkpt>
      <trkpt lat="47.77718" lon="-3.61357">
        <ele>31.1</ele>
        <time>2020-06-07T13:34:28Z</time>
      </trkpt>
      <trkpt lat="47.77719" lon="-3.6136">
        <ele>31.3</ele>
        <time>2020-06-07T13:34:29Z</time>
      </trkpt>
      <trkpt lat="47.7772" lon="-3.61362">
        <ele>31.3</ele>
        <time>2020-06-07T13:34:30Z</time>
      </trkpt>
      <trkpt lat="47.7772" lon="-3.61365">
        <ele>31.4</ele>
        <time>2020-06-07T13:34:31Z</time>
      </trkpt>
      <trkpt lat="47.77721" lon="-3.61367">
        <ele>31.4</ele>
        <time>2020-06-07T13:34:32Z</time>
      </trkpt>
      <trkpt lat="47.77722" lon="-3.61371">
        <ele>31.5</ele>
        <time>2020-06-07T13:34:33Z</time>
      </trkpt>
      <trkpt lat="47.77722" lon="-3.61373">
        <ele>31.5</ele>
        <time>2020-06-07T13:34:34Z</time>
      </trkpt>
      <trkpt lat="47.77724" lon="-3.61377">
        <ele>31.6</ele>
        <time>2020-06-07T13:34:35Z</time>
      </trkpt>
      <trkpt lat="47.77725" lon="-3.61382">
        <ele>31.7</ele>
        <time>2020-06-07T13:34:36Z</time>
      </trkpt>
      <trkpt lat="47.77727" lon="-3.61388">
        <ele>31.7</ele>
        <time>2020-06-07T13:34:37Z</time>
      </trkpt>
      <trkpt lat="47.77729" lon="-3.61394">
        <ele>31.7</ele>
        <time>2020-06-07T13:34:38Z</time>
      </trkpt>
      <trkpt lat="47.77731" lon="-3.61399">
        <ele>31.7</ele>
        <time>2020-06-07T13:34:39Z</time>
      </trkpt>
      <trkpt lat="47.77732" lon="-3.61404">
        <ele>31.8</ele>
        <time>2020-06-07T13:34:40Z</time>
      </trkpt>
      <trkpt lat="47.77734" lon="-3.6141">
        <ele>31.8</ele>
        <time>2020-06-07T13:34:41Z</time>
      </trkpt>
      <trkpt lat="47.77736" lon="-3.61414">
        <ele>31.8</ele>
        <time>2020-06-07T13:34:42Z</time>
      </trkpt>
      <trkpt lat="47.77738" lon="-3.61419">
        <ele>31.8</ele>
        <time>2020-06-07T13:34:43Z</time>
      </trkpt>
      <trkpt lat="47.7774" lon="-3.61423">
        <ele>31.8</ele>
        <time>2020-06-07T13:34:44Z</time>
      </trkpt>
      <trkpt lat="47.77741" lon="-3.61428">
        <ele>31.8</ele>
        <time>2020-06-07T13:34:45Z</time>
      </trkpt>
      <trkpt lat="47.77742" lon="-3.61434">
        <ele>31.9</ele>
        <time>2020-06-07T13:34:46Z</time>
      </trkpt>
      <trkpt lat="47.77743" lon="-3.61442">
        <ele>31.9</ele>
        <time>2020-06-07T13:34:47Z</time>
      </trkpt>
      <trkpt lat="47.77744" lon="-3.61449">
        <ele>31.8</ele>
        <time>2020-06-07T13:34:48Z</time>
      </trkpt>
      <trkpt lat="47.77744" lon="-3.61456">
        <ele>31.8</ele>
        <time>2020-06-07T13:34:49Z</time>
      </trkpt>
      <trkpt lat="47.77744" lon="-3.61464">
        <ele>31.8</ele>
        <time>2020-06-07T13:34:50Z</time>
      </trkpt>
      <trkpt lat="47.77744" lon="-3.61471">
        <ele>31.8</ele>
        <time>2020-06-07T13:34:51Z</time>
      </trkpt>
      <trkpt lat="47.77744" lon="-3.61479">
        <ele>31.7</ele>
        <time>2020-06-07T13:34:52Z</time>
      </trkpt>
      <trkpt lat="47.77744" lon="-3.61487">
        <ele>31.7</ele>
        <time>2020-06-07T13:34:53Z</time>
      </trkpt>
      <trkpt lat="47.77744" lon="-3.61493">
        <ele>31.7</ele>
        <time>2020-06-07T13:34:54Z</time>
      </trkpt>
      <trkpt lat="47.77744" lon="-3.61502">
        <ele>31.6</ele>
        <time>2020-06-07T13:34:55Z</time>
      </trkpt>
      <trkpt lat="47.77745" lon="-3.61509">
        <ele>31.6</ele>
        <time>2020-06-07T13:34:56Z</time>
      </trkpt>
      <trkpt lat="47.77746" lon="-3.61517">
        <ele>31.5</ele>
        <time>2020-06-07T13:34:57Z</time>
      </trkpt>
      <trkpt lat="47.77747" lon="-3.61524">
        <ele>31.4</ele>
        <time>2020-06-07T13:34:58Z</time>
      </trkpt>
      <trkpt lat="47.77748" lon="-3.61531">
        <ele>31.3</ele>
        <time>2020-06-07T13:34:59Z</time>
      </trkpt>
      <trkpt lat="47.77751" lon="-3.61539">
        <ele>31.2</ele>
        <time>2020-06-07T13:35:00Z</time>
      </trkpt>
      <trkpt lat="47.77753" lon="-3.61545">
        <ele>31.1</ele>
        <time>2020-06-07T13:35:01Z</time>
      </trkpt>
      <trkpt lat="47.77755" lon="-3.61553">
        <ele>30.9</ele>
        <time>2020-06-07T13:35:02Z</time>
      </trkpt>
      <trkpt lat="47.77758" lon="-3.6156">
        <ele>30.8</ele>
        <time>2020-06-07T13:35:03Z</time>
      </trkpt>
      <trkpt lat="47.7776" lon="-3.61568">
        <ele>30.5</ele>
        <time>2020-06-07T13:35:04Z</time>
      </trkpt>
      <trkpt lat="47.77763" lon="-3.61574">
        <ele>30.4</ele>
        <time>2020-06-07T13:35:05Z</time>
      </trkpt>
      <trkpt lat="47.77766" lon="-3.61581">
        <ele>30.3</ele>
        <time>2020-06-07T13:35:06Z</time>
      </trkpt>
      <trkpt lat="47.77768" lon="-3.61589">
        <ele>30.1</ele>
        <time>2020-06-07T13:35:07Z</time>
      </trkpt>
      <trkpt lat="47.77771" lon="-3.61596">
        <ele>29.9</ele>
        <time>2020-06-07T13:35:08Z</time>
      </trkpt>
      <trkpt lat="47.77773" lon="-3.61604">
        <ele>29.7</ele>
        <time>2020-06-07T13:35:09Z</time>
      </trkpt>
      <trkpt lat="47.77775" lon="-3.61612">
        <ele>29.5</ele>
        <time>2020-06-07T13:35:10Z</time>
      </trkpt>
      <trkpt lat="47.77777" lon="-3.61622">
        <ele>29.2</ele>
        <time>2020-06-07T13:35:11Z</time>
      </trkpt>
      <trkpt lat="47.77779" lon="-3.61632">
        <ele>29</ele>
        <time>2020-06-07T13:35:12Z</time>
      </trkpt>
      <trkpt lat="47.77781" lon="-3.61641">
        <ele>28.8</ele>
        <time>2020-06-07T13:35:13Z</time>
      </trkpt>
      <trkpt lat="47.77782" lon="-3.61649">
        <ele>28.6</ele>
        <time>2020-06-07T13:35:14Z</time>
      </trkpt>
      <trkpt lat="47.77783" lon="-3.61658">
        <ele>28.4</ele>
        <time>2020-06-07T13:35:15Z</time>
      </trkpt>
      <trkpt lat="47.77785" lon="-3.61667">
        <ele>28.2</ele>
        <time>2020-06-07T13:35:16Z</time>
      </trkpt>
      <trkpt lat="47.77788" lon="-3.61675">
        <ele>28</ele>
        <time>2020-06-07T13:35:17Z</time>
      </trkpt>
      <trkpt lat="47.77791" lon="-3.61682">
        <ele>27.8</ele>
        <time>2020-06-07T13:35:18Z</time>
      </trkpt>
      <trkpt lat="47.77796" lon="-3.61691">
        <ele>27.6</ele>
        <time>2020-06-07T13:35:19Z</time>
      </trkpt>
      <trkpt lat="47.77801" lon="-3.61699">
        <ele>27.5</ele>
        <time>2020-06-07T13:35:20Z</time>
      </trkpt>
      <trkpt lat="47.77806" lon="-3.61706">
        <ele>27.3</ele>
        <time>2020-06-07T13:35:21Z</time>
      </trkpt>
      <trkpt lat="47.77812" lon="-3.61712">
        <ele>27.2</ele>
        <time>2020-06-07T13:35:22Z</time>
      </trkpt>
      <trkpt lat="47.77818" lon="-3.61718">
        <ele>27.1</ele>
        <time>2020-06-07T13:35:23Z</time>
      </trkpt>
      <trkpt lat="47.77824" lon="-3.61723">
        <ele>27.1</ele>
        <time>2020-06-07T13:35:24Z</time>
      </trkpt>
      <trkpt lat="47.7783" lon="-3.61727">
        <ele>27.1</ele>
        <time>2020-06-07T13:35:25Z</time>
      </trkpt>
      <trkpt lat="47.77837" lon="-3.61731">
        <ele>27.1</ele>
        <time>2020-06-07T13:35:26Z</time>
      </trkpt>
      <trkpt lat="47.77842" lon="-3.61735">
        <ele>27.1</ele>
        <time>2020-06-07T13:35:27Z</time>
      </trkpt>
      <trkpt lat="47.77848" lon="-3.61738">
        <ele>27.2</ele>
        <time>2020-06-07T13:35:28Z</time>
      </trkpt>
      <trkpt lat="47.77853" lon="-3.6174">
        <ele>27.2</ele>
        <time>2020-06-07T13:35:29Z</time>
      </trkpt>
      <trkpt lat="47.77859" lon="-3.6174">
        <ele>27.2</ele>
        <time>2020-06-07T13:35:30Z</time>
      </trkpt>
      <trkpt lat="47.77866" lon="-3.61739">
        <ele>27.4</ele>
        <time>2020-06-07T13:35:31Z</time>
      </trkpt>
      <trkpt lat="47.77871" lon="-3.61737">
        <ele>27.5</ele>
        <time>2020-06-07T13:35:32Z</time>
      </trkpt>
      <trkpt lat="47.77876" lon="-3.61735">
        <ele>27.7</ele>
        <time>2020-06-07T13:35:33Z</time>
      </trkpt>
      <trkpt lat="47.77882" lon="-3.61733">
        <ele>27.8</ele>
        <time>2020-06-07T13:35:34Z</time>
      </trkpt>
      <trkpt lat="47.77887" lon="-3.61731">
        <ele>28</ele>
        <time>2020-06-07T13:35:35Z</time>
      </trkpt>
      <trkpt lat="47.77893" lon="-3.61728">
        <ele>28.2</ele>
        <time>2020-06-07T13:35:36Z</time>
      </trkpt>
      <trkpt lat="47.77899" lon="-3.61726">
        <ele>28.4</ele>
        <time>2020-06-07T13:35:37Z</time>
      </trkpt>
      <trkpt lat="47.77904" lon="-3.61724">
        <ele>28.6</ele>
        <time>2020-06-07T13:35:38Z</time>
      </trkpt>
      <trkpt lat="47.7791" lon="-3.61724">
        <ele>28.8</ele>
        <time>2020-06-07T13:35:39Z</time>
      </trkpt>
      <trkpt lat="47.77914" lon="-3.61723">
        <ele>29</ele>
        <time>2020-06-07T13:35:40Z</time>
      </trkpt>
      <trkpt lat="47.77919" lon="-3.61723">
        <ele>29.2</ele>
        <time>2020-06-07T13:35:41Z</time>
      </trkpt>
      <trkpt lat="47.77925" lon="-3.61725">
        <ele>29.4</ele>
        <time>2020-06-07T13:35:42Z</time>
      </trkpt>
      <trkpt lat="47.77929" lon="-3.61728">
        <ele>29.6</ele>
        <time>2020-06-07T13:35:43Z</time>
      </trkpt>
      <trkpt lat="47.77933" lon="-3.61734">
        <ele>29.8</ele>
        <time>2020-06-07T13:35:44Z</time>
      </trkpt>
      <trkpt lat="47.77934" lon="-3.61741">
        <ele>30</ele>
        <time>2020-06-07T13:35:45Z</time>
      </trkpt>
      <trkpt lat="47.77936" lon="-3.61749">
        <ele>30.1</ele>
        <time>2020-06-07T13:35:46Z</time>
      </trkpt>
      <trkpt lat="47.77937" lon="-3.61757">
        <ele>30.3</ele>
        <time>2020-06-07T13:35:47Z</time>
      </trkpt>
      <trkpt lat="47.77938" lon="-3.61765">
        <ele>30.4</ele>
        <time>2020-06-07T13:35:48Z</time>
      </trkpt>
      <trkpt lat="47.77939" lon="-3.61771">
        <ele>30.6</ele>
        <time>2020-06-07T13:35:49Z</time>
      </trkpt>
      <trkpt lat="47.7794" lon="-3.61779">
        <ele>30.7</ele>
        <time>2020-06-07T13:35:50Z</time>
      </trkpt>
      <trkpt lat="47.7794" lon="-3.61785">
        <ele>30.9</ele>
        <time>2020-06-07T13:35:51Z</time>
      </trkpt>
      <trkpt lat="47.7794" lon="-3.61794">
        <ele>31.1</ele>
        <time>2020-06-07T13:35:52Z</time>
      </trkpt>
      <trkpt lat="47.77941" lon="-3.61803">
        <ele>31.3</ele>
        <time>2020-06-07T13:35:53Z</time>
      </trkpt>
      <trkpt lat="47.77941" lon="-3.6181">
        <ele>31.4</ele>
        <time>2020-06-07T13:35:54Z</time>
      </trkpt>
      <trkpt lat="47.77942" lon="-3.61817">
        <ele>31.6</ele>
        <time>2020-06-07T13:35:55Z</time>
      </trkpt>
      <trkpt lat="47.77945" lon="-3.61822">
        <ele>31.7</ele>
        <time>2020-06-07T13:35:56Z</time>
      </trkpt>
      <trkpt lat="47.77946" lon="-3.61829">
        <ele>31.9</ele>
        <time>2020-06-07T13:35:57Z</time>
      </trkpt>
      <trkpt lat="47.77948" lon="-3.61836">
        <ele>32</ele>
        <time>2020-06-07T13:35:58Z</time>
      </trkpt>
      <trkpt lat="47.77949" lon="-3.61843">
        <ele>32.1</ele>
        <time>2020-06-07T13:35:59Z</time>
      </trkpt>
      <trkpt lat="47.77951" lon="-3.61848">
        <ele>32.2</ele>
        <time>2020-06-07T13:36:00Z</time>
      </trkpt>
      <trkpt lat="47.77954" lon="-3.61854">
        <ele>32.3</ele>
        <time>2020-06-07T13:36:01Z</time>
      </trkpt>
      <trkpt lat="47.77956" lon="-3.6186">
        <ele>32.4</ele>
        <time>2020-06-07T13:36:02Z</time>
      </trkpt>
      <trkpt lat="47.77959" lon="-3.61866">
        <ele>32.6</ele>
        <time>2020-06-07T13:36:03Z</time>
      </trkpt>
      <trkpt lat="47.77961" lon="-3.61872">
        <ele>32.7</ele>
        <time>2020-06-07T13:36:04Z</time>
      </trkpt>
      <trkpt lat="47.77963" lon="-3.61877">
        <ele>32.8</ele>
        <time>2020-06-07T13:36:05Z</time>
      </trkpt>
      <trkpt lat="47.77965" lon="-3.61882">
        <ele>32.9</ele>
        <time>2020-06-07T13:36:06Z</time>
      </trkpt>
      <trkpt lat="47.77968" lon="-3.61887">
        <ele>33</ele>
        <time>2020-06-07T13:36:07Z</time>
      </trkpt>
      <trkpt lat="47.77971" lon="-3.61893">
        <ele>33.1</ele>
        <time>2020-06-07T13:36:08Z</time>
      </trkpt>
      <trkpt lat="47.77974" lon="-3.61898">
        <ele>33.2</ele>
        <time>2020-06-07T13:36:09Z</time>
      </trkpt>
      <trkpt lat="47.77977" lon="-3.61904">
        <ele>33.3</ele>
        <time>2020-06-07T13:36:10Z</time>
      </trkpt>
      <trkpt lat="47.77979" lon="-3.61908">
        <ele>33.4</ele>
        <time>2020-06-07T13:36:11Z</time>
      </trkpt>
      <trkpt lat="47.77982" lon="-3.61914">
        <ele>33.5</ele>
        <time>2020-06-07T13:36:12Z</time>
      </trkpt>
      <trkpt lat="47.77984" lon="-3.6192">
        <ele>33.6</ele>
        <time>2020-06-07T13:36:13Z</time>
      </trkpt>
      <trkpt lat="47.77986" lon="-3.61925">
        <ele>33.7</ele>
        <time>2020-06-07T13:36:14Z</time>
      </trkpt>
      <trkpt lat="47.77988" lon="-3.6193">
        <ele>33.7</ele>
        <time>2020-06-07T13:36:15Z</time>
      </trkpt>
      <trkpt lat="47.77991" lon="-3.61935">
        <ele>33.8</ele>
        <time>2020-06-07T13:36:16Z</time>
      </trkpt>
      <trkpt lat="47.77993" lon="-3.6194">
        <ele>33.9</ele>
        <time>2020-06-07T13:36:17Z</time>
      </trkpt>
      <trkpt lat="47.77996" lon="-3.61946">
        <ele>34.1</ele>
        <time>2020-06-07T13:36:18Z</time>
      </trkpt>
      <trkpt lat="47.77998" lon="-3.61952">
        <ele>34.2</ele>
        <time>2020-06-07T13:36:19Z</time>
      </trkpt>
      <trkpt lat="47.78" lon="-3.61956">
        <ele>34.3</ele>
        <time>2020-06-07T13:36:20Z</time>
      </trkpt>
      <trkpt lat="47.78003" lon="-3.61961">
        <ele>34.4</ele>
        <time>2020-06-07T13:36:21Z</time>
      </trkpt>
      <trkpt lat="47.78005" lon="-3.61966">
        <ele>34.5</ele>
        <time>2020-06-07T13:36:22Z</time>
      </trkpt>
      <trkpt lat="47.78008" lon="-3.61971">
        <ele>34.5</ele>
        <time>2020-06-07T13:36:23Z</time>
      </trkpt>
      <trkpt lat="47.78011" lon="-3.61975">
        <ele>34.6</ele>
        <time>2020-06-07T13:36:24Z</time>
      </trkpt>
      <trkpt lat="47.78013" lon="-3.61979">
        <ele>34.7</ele>
        <time>2020-06-07T13:36:25Z</time>
      </trkpt>
      <trkpt lat="47.78017" lon="-3.61985">
        <ele>34.7</ele>
        <time>2020-06-07T13:36:26Z</time>
      </trkpt>
      <trkpt lat="47.7802" lon="-3.61989">
        <ele>34.8</ele>
        <time>2020-06-07T13:36:27Z</time>
      </trkpt>
      <trkpt lat="47.78023" lon="-3.61995">
        <ele>35</ele>
        <time>2020-06-07T13:36:28Z</time>
      </trkpt>
      <trkpt lat="47.78026" lon="-3.62">
        <ele>35</ele>
        <time>2020-06-07T13:36:29Z</time>
      </trkpt>
      <trkpt lat="47.78029" lon="-3.62005">
        <ele>35.1</ele>
        <time>2020-06-07T13:36:30Z</time>
      </trkpt>
      <trkpt lat="47.78033" lon="-3.62011">
        <ele>35.2</ele>
        <time>2020-06-07T13:36:31Z</time>
      </trkpt>
      <trkpt lat="47.78037" lon="-3.62017">
        <ele>35.3</ele>
        <time>2020-06-07T13:36:32Z</time>
      </trkpt>
      <trkpt lat="47.78039" lon="-3.62021">
        <ele>35.4</ele>
        <time>2020-06-07T13:36:33Z</time>
      </trkpt>
      <trkpt lat="47.78042" lon="-3.62026">
        <ele>35.4</ele>
        <time>2020-06-07T13:36:34Z</time>
      </trkpt>
      <trkpt lat="47.78045" lon="-3.62031">
        <ele>35.5</ele>
        <time>2020-06-07T13:36:35Z</time>
      </trkpt>
      <trkpt lat="47.78047" lon="-3.62034">
        <ele>35.6</ele>
        <time>2020-06-07T13:36:36Z</time>
      </trkpt>
      <trkpt lat="47.7805" lon="-3.62039">
        <ele>35.6</ele>
        <time>2020-06-07T13:36:37Z</time>
      </trkpt>
      <trkpt lat="47.78053" lon="-3.62043">
        <ele>35.7</ele>
        <time>2020-06-07T13:36:38Z</time>
      </trkpt>
      <trkpt lat="47.78055" lon="-3.62048">
        <ele>35.8</ele>
        <time>2020-06-07T13:36:39Z</time>
      </trkpt>
      <trkpt lat="47.78056" lon="-3.6205">
        <ele>35.8</ele>
        <time>2020-06-07T13:36:40Z</time>
      </trkpt>
      <trkpt lat="47.78058" lon="-3.62054">
        <ele>35.9</ele>
        <time>2020-06-07T13:36:41Z</time>
      </trkpt>
      <trkpt lat="47.78061" lon="-3.62059">
        <ele>35.9</ele>
        <time>2020-06-07T13:36:42Z</time>
      </trkpt>
      <trkpt lat="47.78063" lon="-3.62064">
        <ele>36</ele>
        <time>2020-06-07T13:36:43Z</time>
      </trkpt>
      <trkpt lat="47.78066" lon="-3.6207">
        <ele>36</ele>
        <time>2020-06-07T13:36:44Z</time>
      </trkpt>
      <trkpt lat="47.78067" lon="-3.62075">
        <ele>36</ele>
        <time>2020-06-07T13:36:45Z</time>
      </trkpt>
      <trkpt lat="47.78069" lon="-3.62082">
        <ele>36</ele>
        <time>2020-06-07T13:36:46Z</time>
      </trkpt>
      <trkpt lat="47.7807" lon="-3.62089">
        <ele>35.9</ele>
        <time>2020-06-07T13:36:47Z</time>
      </trkpt>
      <trkpt lat="47.78071" lon="-3.62097">
        <ele>35.9</ele>
        <time>2020-06-07T13:36:48Z</time>
      </trkpt>
      <trkpt lat="47.78072" lon="-3.62104">
        <ele>35.8</ele>
        <time>2020-06-07T13:36:49Z</time>
      </trkpt>
      <trkpt lat="47.78072" lon="-3.62111">
        <ele>35.8</ele>
        <time>2020-06-07T13:36:50Z</time>
      </trkpt>
      <trkpt lat="47.78073" lon="-3.62118">
        <ele>35.8</ele>
        <time>2020-06-07T13:36:51Z</time>
      </trkpt>
      <trkpt lat="47.78074" lon="-3.62126">
        <ele>35.8</ele>
        <time>2020-06-07T13:36:52Z</time>
      </trkpt>
      <trkpt lat="47.78074" lon="-3.62133">
        <ele>35.7</ele>
        <time>2020-06-07T13:36:53Z</time>
      </trkpt>
      <trkpt lat="47.78074" lon="-3.6214">
        <ele>35.7</ele>
        <time>2020-06-07T13:36:54Z</time>
      </trkpt>
      <trkpt lat="47.78074" lon="-3.62148">
        <ele>35.6</ele>
        <time>2020-06-07T13:36:55Z</time>
      </trkpt>
      <trkpt lat="47.78073" lon="-3.62157">
        <ele>35.5</ele>
        <time>2020-06-07T13:36:56Z</time>
      </trkpt>
      <trkpt lat="47.78073" lon="-3.62167">
        <ele>35.4</ele>
        <time>2020-06-07T13:36:57Z</time>
      </trkpt>
      <trkpt lat="47.78073" lon="-3.62175">
        <ele>35.2</ele>
        <time>2020-06-07T13:36:58Z</time>
      </trkpt>
      <trkpt lat="47.78074" lon="-3.62182">
        <ele>35.1</ele>
        <time>2020-06-07T13:36:59Z</time>
      </trkpt>
      <trkpt lat="47.78074" lon="-3.62189">
        <ele>34.9</ele>
        <time>2020-06-07T13:37:00Z</time>
      </trkpt>
      <trkpt lat="47.78075" lon="-3.62198">
        <ele>34.7</ele>
        <time>2020-06-07T13:37:01Z</time>
      </trkpt>
      <trkpt lat="47.78076" lon="-3.62206">
        <ele>34.5</ele>
        <time>2020-06-07T13:37:02Z</time>
      </trkpt>
      <trkpt lat="47.78076" lon="-3.62214">
        <ele>34.3</ele>
        <time>2020-06-07T13:37:03Z</time>
      </trkpt>
      <trkpt lat="47.78076" lon="-3.62222">
        <ele>34.1</ele>
        <time>2020-06-07T13:37:04Z</time>
      </trkpt>
      <trkpt lat="47.78077" lon="-3.6223">
        <ele>34</ele>
        <time>2020-06-07T13:37:05Z</time>
      </trkpt>
      <trkpt lat="47.78077" lon="-3.62238">
        <ele>33.8</ele>
        <time>2020-06-07T13:37:06Z</time>
      </trkpt>
      <trkpt lat="47.78077" lon="-3.62243">
        <ele>33.6</ele>
        <time>2020-06-07T13:37:07Z</time>
      </trkpt>
      <trkpt lat="47.78077" lon="-3.62249">
        <ele>33.5</ele>
        <time>2020-06-07T13:37:08Z</time>
      </trkpt>
      <trkpt lat="47.78077" lon="-3.62255">
        <ele>33.4</ele>
        <time>2020-06-07T13:37:09Z</time>
      </trkpt>
      <trkpt lat="47.78078" lon="-3.62262">
        <ele>33.2</ele>
        <time>2020-06-07T13:37:10Z</time>
      </trkpt>
      <trkpt lat="47.78078" lon="-3.62269">
        <ele>33</ele>
        <time>2020-06-07T13:37:11Z</time>
      </trkpt>
      <trkpt lat="47.78078" lon="-3.62278">
        <ele>32.7</ele>
        <time>2020-06-07T13:37:12Z</time>
      </trkpt>
      <trkpt lat="47.78078" lon="-3.6229">
        <ele>32.3</ele>
        <time>2020-06-07T13:37:13Z</time>
      </trkpt>
      <trkpt lat="47.78078" lon="-3.62299">
        <ele>32.1</ele>
        <time>2020-06-07T13:37:14Z</time>
      </trkpt>
      <trkpt lat="47.78078" lon="-3.62307">
        <ele>31.8</ele>
        <time>2020-06-07T13:37:15Z</time>
      </trkpt>
      <trkpt lat="47.78077" lon="-3.62314">
        <ele>31.6</ele>
        <time>2020-06-07T13:37:16Z</time>
      </trkpt>
      <trkpt lat="47.78077" lon="-3.62322">
        <ele>31.4</ele>
        <time>2020-06-07T13:37:17Z</time>
      </trkpt>
      <trkpt lat="47.78077" lon="-3.62331">
        <ele>31.2</ele>
        <time>2020-06-07T13:37:18Z</time>
      </trkpt>
      <trkpt lat="47.78076" lon="-3.62338">
        <ele>31</ele>
        <time>2020-06-07T13:37:19Z</time>
      </trkpt>
      <trkpt lat="47.78075" lon="-3.62347">
        <ele>30.7</ele>
        <time>2020-06-07T13:37:20Z</time>
      </trkpt>
      <trkpt lat="47.78074" lon="-3.62356">
        <ele>30.4</ele>
        <time>2020-06-07T13:37:21Z</time>
      </trkpt>
      <trkpt lat="47.78073" lon="-3.62365">
        <ele>30.1</ele>
        <time>2020-06-07T13:37:22Z</time>
      </trkpt>
      <trkpt lat="47.78072" lon="-3.62374">
        <ele>29.8</ele>
        <time>2020-06-07T13:37:23Z</time>
      </trkpt>
      <trkpt lat="47.78073" lon="-3.62384">
        <ele>29.5</ele>
        <time>2020-06-07T13:37:24Z</time>
      </trkpt>
      <trkpt lat="47.78072" lon="-3.62393">
        <ele>29.1</ele>
        <time>2020-06-07T13:37:25Z</time>
      </trkpt>
      <trkpt lat="47.78072" lon="-3.62402">
        <ele>28.8</ele>
        <time>2020-06-07T13:37:26Z</time>
      </trkpt>
      <trkpt lat="47.78072" lon="-3.62411">
        <ele>28.4</ele>
        <time>2020-06-07T13:37:27Z</time>
      </trkpt>
      <trkpt lat="47.78071" lon="-3.62419">
        <ele>28</ele>
        <time>2020-06-07T13:37:28Z</time>
      </trkpt>
      <trkpt lat="47.78071" lon="-3.62428">
        <ele>27.6</ele>
        <time>2020-06-07T13:37:29Z</time>
      </trkpt>
      <trkpt lat="47.7807" lon="-3.62438">
        <ele>27.2</ele>
        <time>2020-06-07T13:37:30Z</time>
      </trkpt>
      <trkpt lat="47.7807" lon="-3.62448">
        <ele>26.7</ele>
        <time>2020-06-07T13:37:31Z</time>
      </trkpt>
      <trkpt lat="47.78069" lon="-3.62459">
        <ele>26.1</ele>
        <time>2020-06-07T13:37:32Z</time>
      </trkpt>
      <trkpt lat="47.78068" lon="-3.62469">
        <ele>25.5</ele>
        <time>2020-06-07T13:37:33Z</time>
      </trkpt>
      <trkpt lat="47.78066" lon="-3.62478">
        <ele>24.9</ele>
        <time>2020-06-07T13:37:34Z</time>
      </trkpt>
      <trkpt lat="47.78064" lon="-3.62488">
        <ele>24.3</ele>
        <time>2020-06-07T13:37:35Z</time>
      </trkpt>
      <trkpt lat="47.78061" lon="-3.62499">
        <ele>23.6</ele>
        <time>2020-06-07T13:37:36Z</time>
      </trkpt>
      <trkpt lat="47.78057" lon="-3.62509">
        <ele>22.9</ele>
        <time>2020-06-07T13:37:37Z</time>
      </trkpt>
      <trkpt lat="47.78054" lon="-3.62519">
        <ele>22.2</ele>
        <time>2020-06-07T13:37:38Z</time>
      </trkpt>
      <trkpt lat="47.78051" lon="-3.62529">
        <ele>21.5</ele>
        <time>2020-06-07T13:37:39Z</time>
      </trkpt>
      <trkpt lat="47.78048" lon="-3.62537">
        <ele>20.7</ele>
        <time>2020-06-07T13:37:40Z</time>
      </trkpt>
      <trkpt lat="47.78045" lon="-3.62546">
        <ele>20.1</ele>
        <time>2020-06-07T13:37:41Z</time>
      </trkpt>
      <trkpt lat="47.78043" lon="-3.62553">
        <ele>19.5</ele>
        <time>2020-06-07T13:37:42Z</time>
      </trkpt>
      <trkpt lat="47.7804" lon="-3.62563">
        <ele>18.8</ele>
        <time>2020-06-07T13:37:43Z</time>
      </trkpt>
      <trkpt lat="47.78037" lon="-3.62573">
        <ele>18</ele>
        <time>2020-06-07T13:37:44Z</time>
      </trkpt>
      <trkpt lat="47.78034" lon="-3.62585">
        <ele>17.1</ele>
        <time>2020-06-07T13:37:45Z</time>
      </trkpt>
      <trkpt lat="47.78033" lon="-3.62596">
        <ele>16.4</ele>
        <time>2020-06-07T13:37:46Z</time>
      </trkpt>
      <trkpt lat="47.78031" lon="-3.62609">
        <ele>15.6</ele>
        <time>2020-06-07T13:37:47Z</time>
      </trkpt>
      <trkpt lat="47.78029" lon="-3.62622">
        <ele>14.9</ele>
        <time>2020-06-07T13:37:48Z</time>
      </trkpt>
      <trkpt lat="47.78029" lon="-3.62635">
        <ele>14.2</ele>
        <time>2020-06-07T13:37:49Z</time>
      </trkpt>
      <trkpt lat="47.78029" lon="-3.62649">
        <ele>13.5</ele>
        <time>2020-06-07T13:37:50Z</time>
      </trkpt>
      <trkpt lat="47.7803" lon="-3.62663">
        <ele>13.1</ele>
        <time>2020-06-07T13:37:51Z</time>
      </trkpt>
      <trkpt lat="47.78031" lon="-3.62677">
        <ele>12.8</ele>
        <time>2020-06-07T13:37:52Z</time>
      </trkpt>
      <trkpt lat="47.78034" lon="-3.6269">
        <ele>12.7</ele>
        <time>2020-06-07T13:37:53Z</time>
      </trkpt>
      <trkpt lat="47.78039" lon="-3.62703">
        <ele>12.9</ele>
        <time>2020-06-07T13:37:54Z</time>
      </trkpt>
      <trkpt lat="47.78043" lon="-3.62715">
        <ele>13.1</ele>
        <time>2020-06-07T13:37:55Z</time>
      </trkpt>
      <trkpt lat="47.78048" lon="-3.62727">
        <ele>13.3</ele>
        <time>2020-06-07T13:37:56Z</time>
      </trkpt>
      <trkpt lat="47.78053" lon="-3.62737">
        <ele>13.5</ele>
        <time>2020-06-07T13:37:57Z</time>
      </trkpt>
      <trkpt lat="47.78059" lon="-3.62744">
        <ele>13.8</ele>
        <time>2020-06-07T13:37:58Z</time>
      </trkpt>
      <trkpt lat="47.78064" lon="-3.62752">
        <ele>14.3</ele>
        <time>2020-06-07T13:37:59Z</time>
      </trkpt>
      <trkpt lat="47.78068" lon="-3.62758">
        <ele>14.9</ele>
        <time>2020-06-07T13:38:00Z</time>
      </trkpt>
      <trkpt lat="47.78072" lon="-3.62763">
        <ele>15.4</ele>
        <time>2020-06-07T13:38:01Z</time>
      </trkpt>
      <trkpt lat="47.78076" lon="-3.62767">
        <ele>15.9</ele>
        <time>2020-06-07T13:38:02Z</time>
      </trkpt>
      <trkpt lat="47.7808" lon="-3.62771">
        <ele>16.4</ele>
        <time>2020-06-07T13:38:03Z</time>
      </trkpt>
      <trkpt lat="47.78084" lon="-3.62774">
        <ele>16.9</ele>
        <time>2020-06-07T13:38:04Z</time>
      </trkpt>
      <trkpt lat="47.78088" lon="-3.62779">
        <ele>17.4</ele>
        <time>2020-06-07T13:38:05Z</time>
      </trkpt>
      <trkpt lat="47.78092" lon="-3.62783">
        <ele>17.9</ele>
        <time>2020-06-07T13:38:06Z</time>
      </trkpt>
      <trkpt lat="47.78096" lon="-3.62788">
        <ele>18.4</ele>
        <time>2020-06-07T13:38:07Z</time>
      </trkpt>
      <trkpt lat="47.78099" lon="-3.62792">
        <ele>18.9</ele>
        <time>2020-06-07T13:38:08Z</time>
      </trkpt>
      <trkpt lat="47.78102" lon="-3.62796">
        <ele>19.3</ele>
        <time>2020-06-07T13:38:09Z</time>
      </trkpt>
      <trkpt lat="47.78105" lon="-3.628">
        <ele>19.8</ele>
        <time>2020-06-07T13:38:10Z</time>
      </trkpt>
      <trkpt lat="47.78108" lon="-3.62802">
        <ele>20.1</ele>
        <time>2020-06-07T13:38:11Z</time>
      </trkpt>
      <trkpt lat="47.7811" lon="-3.62805">
        <ele>20.5</ele>
        <time>2020-06-07T13:38:12Z</time>
      </trkpt>
      <trkpt lat="47.78113" lon="-3.62808">
        <ele>20.9</ele>
        <time>2020-06-07T13:38:13Z</time>
      </trkpt>
      <trkpt lat="47.78115" lon="-3.62811">
        <ele>21.1</ele>
        <time>2020-06-07T13:38:14Z</time>
      </trkpt>
      <trkpt lat="47.78116" lon="-3.62815">
        <ele>21.3</ele>
        <time>2020-06-07T13:38:15Z</time>
      </trkpt>
      <trkpt lat="47.78117" lon="-3.6282">
        <ele>21.6</ele>
        <time>2020-06-07T13:38:16Z</time>
      </trkpt>
      <trkpt lat="47.78119" lon="-3.62823">
        <ele>21.8</ele>
        <time>2020-06-07T13:38:17Z</time>
      </trkpt>
      <trkpt lat="47.78121" lon="-3.62826">
        <ele>22</ele>
        <time>2020-06-07T13:38:18Z</time>
      </trkpt>
      <trkpt lat="47.78123" lon="-3.62831">
        <ele>22.3</ele>
        <time>2020-06-07T13:38:19Z</time>
      </trkpt>
      <trkpt lat="47.78124" lon="-3.62833">
        <ele>22.4</ele>
        <time>2020-06-07T13:38:20Z</time>
      </trkpt>
      <trkpt lat="47.78126" lon="-3.62835">
        <ele>22.8</ele>
        <time>2020-06-07T13:38:21Z</time>
      </trkpt>
      <trkpt lat="47.78129" lon="-3.62838">
        <ele>23.1</ele>
        <time>2020-06-07T13:38:22Z</time>
      </trkpt>
      <trkpt lat="47.7813" lon="-3.62839">
        <ele>23.2</ele>
        <time>2020-06-07T13:38:23Z</time>
      </trkpt>
      <trkpt lat="47.78133" lon="-3.62841">
        <ele>23.5</ele>
        <time>2020-06-07T13:38:24Z</time>
      </trkpt>
      <trkpt lat="47.78134" lon="-3.62842">
        <ele>23.7</ele>
        <time>2020-06-07T13:38:25Z</time>
      </trkpt>
      <trkpt lat="47.78138" lon="-3.62844">
        <ele>24</ele>
        <time>2020-06-07T13:38:26Z</time>
      </trkpt>
      <trkpt lat="47.78139" lon="-3.62846">
        <ele>24.1</ele>
        <time>2020-06-07T13:38:27Z</time>
      </trkpt>
      <trkpt lat="47.78142" lon="-3.62847">
        <ele>24.3</ele>
        <time>2020-06-07T13:38:28Z</time>
      </trkpt>
      <trkpt lat="47.78146" lon="-3.62847">
        <ele>24.6</ele>
        <time>2020-06-07T13:38:29Z</time>
      </trkpt>
      <trkpt lat="47.7815" lon="-3.62847">
        <ele>24.8</ele>
        <time>2020-06-07T13:38:30Z</time>
      </trkpt>
      <trkpt lat="47.78154" lon="-3.62848">
        <ele>25</ele>
        <time>2020-06-07T13:38:31Z</time>
      </trkpt>
      <trkpt lat="47.78157" lon="-3.62848">
        <ele>25.2</ele>
        <time>2020-06-07T13:38:32Z</time>
      </trkpt>
      <trkpt lat="47.78161" lon="-3.62848">
        <ele>25.4</ele>
        <time>2020-06-07T13:38:33Z</time>
      </trkpt>
      <trkpt lat="47.78164" lon="-3.62848">
        <ele>25.6</ele>
        <time>2020-06-07T13:38:34Z</time>
      </trkpt>
      <trkpt lat="47.78167" lon="-3.62846">
        <ele>25.8</ele>
        <time>2020-06-07T13:38:35Z</time>
      </trkpt>
      <trkpt lat="47.78171" lon="-3.62844">
        <ele>26</ele>
        <time>2020-06-07T13:38:36Z</time>
      </trkpt>
      <trkpt lat="47.78174" lon="-3.62844">
        <ele>26.2</ele>
        <time>2020-06-07T13:38:37Z</time>
      </trkpt>
      <trkpt lat="47.78176" lon="-3.62844">
        <ele>26.2</ele>
        <time>2020-06-07T13:38:38Z</time>
      </trkpt>
      <trkpt lat="47.78179" lon="-3.62843">
        <ele>26.4</ele>
        <time>2020-06-07T13:38:39Z</time>
      </trkpt>
      <trkpt lat="47.78181" lon="-3.62843">
        <ele>26.5</ele>
        <time>2020-06-07T13:38:40Z</time>
      </trkpt>
      <trkpt lat="47.78184" lon="-3.62841">
        <ele>26.7</ele>
        <time>2020-06-07T13:38:41Z</time>
      </trkpt>
      <trkpt lat="47.78188" lon="-3.62839">
        <ele>26.9</ele>
        <time>2020-06-07T13:38:42Z</time>
      </trkpt>
      <trkpt lat="47.78189" lon="-3.62838">
        <ele>26.9</ele>
        <time>2020-06-07T13:38:43Z</time>
      </trkpt>
      <trkpt lat="47.78192" lon="-3.62838">
        <ele>27.1</ele>
        <time>2020-06-07T13:38:44Z</time>
      </trkpt>
      <trkpt lat="47.78195" lon="-3.62837">
        <ele>27.2</ele>
        <time>2020-06-07T13:38:45Z</time>
      </trkpt>
      <trkpt lat="47.78199" lon="-3.62835">
        <ele>27.4</ele>
        <time>2020-06-07T13:38:46Z</time>
      </trkpt>
      <trkpt lat="47.78202" lon="-3.62833">
        <ele>27.6</ele>
        <time>2020-06-07T13:38:47Z</time>
      </trkpt>
      <trkpt lat="47.78204" lon="-3.62832">
        <ele>27.7</ele>
        <time>2020-06-07T13:38:48Z</time>
      </trkpt>
      <trkpt lat="47.78208" lon="-3.62831">
        <ele>27.9</ele>
        <time>2020-06-07T13:38:49Z</time>
      </trkpt>
      <trkpt lat="47.78211" lon="-3.62829">
        <ele>28</ele>
        <time>2020-06-07T13:38:50Z</time>
      </trkpt>
      <trkpt lat="47.78215" lon="-3.62826">
        <ele>28.2</ele>
        <time>2020-06-07T13:38:51Z</time>
      </trkpt>
      <trkpt lat="47.78217" lon="-3.62824">
        <ele>28.4</ele>
        <time>2020-06-07T13:38:52Z</time>
      </trkpt>
      <trkpt lat="47.78221" lon="-3.62823">
        <ele>28.6</ele>
        <time>2020-06-07T13:38:53Z</time>
      </trkpt>
      <trkpt lat="47.78223" lon="-3.62821">
        <ele>28.8</ele>
        <time>2020-06-07T13:38:54Z</time>
      </trkpt>
      <trkpt lat="47.78227" lon="-3.62819">
        <ele>29</ele>
        <time>2020-06-07T13:38:55Z</time>
      </trkpt>
      <trkpt lat="47.78228" lon="-3.62818">
        <ele>29.1</ele>
        <time>2020-06-07T13:38:56Z</time>
      </trkpt>
      <trkpt lat="47.7823" lon="-3.62816">
        <ele>29.2</ele>
        <time>2020-06-07T13:38:57Z</time>
      </trkpt>
      <trkpt lat="47.78232" lon="-3.62815">
        <ele>29.3</ele>
        <time>2020-06-07T13:38:58Z</time>
      </trkpt>
      <trkpt lat="47.78235" lon="-3.62814">
        <ele>29.4</ele>
        <time>2020-06-07T13:38:59Z</time>
      </trkpt>
      <trkpt lat="47.78237" lon="-3.62811">
        <ele>29.6</ele>
        <time>2020-06-07T13:39:00Z</time>
      </trkpt>
      <trkpt lat="47.7824" lon="-3.62808">
        <ele>29.8</ele>
        <time>2020-06-07T13:39:01Z</time>
      </trkpt>
      <trkpt lat="47.78243" lon="-3.62804">
        <ele>29.9</ele>
        <time>2020-06-07T13:39:02Z</time>
      </trkpt>
      <trkpt lat="47.78246" lon="-3.62801">
        <ele>30.1</ele>
        <time>2020-06-07T13:39:03Z</time>
      </trkpt>
      <trkpt lat="47.78249" lon="-3.62798">
        <ele>30.3</ele>
        <time>2020-06-07T13:39:04Z</time>
      </trkpt>
      <trkpt lat="47.78252" lon="-3.62794">
        <ele>30.5</ele>
        <time>2020-06-07T13:39:05Z</time>
      </trkpt>
      <trkpt lat="47.78252" lon="-3.62793">
        <ele>30.5</ele>
        <time>2020-06-07T13:39:06Z</time>
      </trkpt>
      <trkpt lat="47.78255" lon="-3.6279">
        <ele>30.7</ele>
        <time>2020-06-07T13:39:07Z</time>
      </trkpt>
      <trkpt lat="47.78258" lon="-3.62788">
        <ele>30.8</ele>
        <time>2020-06-07T13:39:08Z</time>
      </trkpt>
      <trkpt lat="47.78259" lon="-3.62787">
        <ele>30.9</ele>
        <time>2020-06-07T13:39:09Z</time>
      </trkpt>
      <trkpt lat="47.78262" lon="-3.62785">
        <ele>31.1</ele>
        <time>2020-06-07T13:39:10Z</time>
      </trkpt>
      <trkpt lat="47.78266" lon="-3.62783">
        <ele>31.3</ele>
        <time>2020-06-07T13:39:11Z</time>
      </trkpt>
      <trkpt lat="47.78269" lon="-3.62781">
        <ele>31.4</ele>
        <time>2020-06-07T13:39:12Z</time>
      </trkpt>
      <trkpt lat="47.78272" lon="-3.62779">
        <ele>31.6</ele>
        <time>2020-06-07T13:39:13Z</time>
      </trkpt>
      <trkpt lat="47.78275" lon="-3.62779">
        <ele>31.7</ele>
        <time>2020-06-07T13:39:14Z</time>
      </trkpt>
      <trkpt lat="47.78279" lon="-3.62777">
        <ele>31.9</ele>
        <time>2020-06-07T13:39:15Z</time>
      </trkpt>
      <trkpt lat="47.78284" lon="-3.62774">
        <ele>32.1</ele>
        <time>2020-06-07T13:39:16Z</time>
      </trkpt>
      <trkpt lat="47.78288" lon="-3.62772">
        <ele>32.3</ele>
        <time>2020-06-07T13:39:17Z</time>
      </trkpt>
      <trkpt lat="47.78292" lon="-3.62769">
        <ele>32.5</ele>
        <time>2020-06-07T13:39:18Z</time>
      </trkpt>
      <trkpt lat="47.78296" lon="-3.62767">
        <ele>32.7</ele>
        <time>2020-06-07T13:39:19Z</time>
      </trkpt>
      <trkpt lat="47.78299" lon="-3.62766">
        <ele>32.9</ele>
        <time>2020-06-07T13:39:20Z</time>
      </trkpt>
      <trkpt lat="47.783" lon="-3.62766">
        <ele>33</ele>
        <time>2020-06-07T13:39:21Z</time>
      </trkpt>
      <trkpt lat="47.78303" lon="-3.62765">
        <ele>33.1</ele>
        <time>2020-06-07T13:39:22Z</time>
      </trkpt>
      <trkpt lat="47.78306" lon="-3.62763">
        <ele>33.2</ele>
        <time>2020-06-07T13:39:23Z</time>
      </trkpt>
      <trkpt lat="47.7831" lon="-3.62761">
        <ele>33.4</ele>
        <time>2020-06-07T13:39:24Z</time>
      </trkpt>
      <trkpt lat="47.78314" lon="-3.6276">
        <ele>33.6</ele>
        <time>2020-06-07T13:39:25Z</time>
      </trkpt>
      <trkpt lat="47.78318" lon="-3.62759">
        <ele>33.8</ele>
        <time>2020-06-07T13:39:26Z</time>
      </trkpt>
      <trkpt lat="47.78321" lon="-3.62758">
        <ele>33.9</ele>
        <time>2020-06-07T13:39:27Z</time>
      </trkpt>
      <trkpt lat="47.78325" lon="-3.62756">
        <ele>34.1</ele>
        <time>2020-06-07T13:39:28Z</time>
      </trkpt>
      <trkpt lat="47.78326" lon="-3.62756">
        <ele>34.1</ele>
        <time>2020-06-07T13:39:29Z</time>
      </trkpt>
      <trkpt lat="47.7833" lon="-3.62755">
        <ele>34.3</ele>
        <time>2020-06-07T13:39:30Z</time>
      </trkpt>
      <trkpt lat="47.78333" lon="-3.62753">
        <ele>34.4</ele>
        <time>2020-06-07T13:39:31Z</time>
      </trkpt>
      <trkpt lat="47.78336" lon="-3.62751">
        <ele>34.5</ele>
        <time>2020-06-07T13:39:32Z</time>
      </trkpt>
      <trkpt lat="47.7834" lon="-3.6275">
        <ele>34.6</ele>
        <time>2020-06-07T13:39:33Z</time>
      </trkpt>
      <trkpt lat="47.78343" lon="-3.62748">
        <ele>34.7</ele>
        <time>2020-06-07T13:39:34Z</time>
      </trkpt>
      <trkpt lat="47.78346" lon="-3.62747">
        <ele>34.8</ele>
        <time>2020-06-07T13:39:35Z</time>
      </trkpt>
      <trkpt lat="47.78349" lon="-3.62746">
        <ele>34.9</ele>
        <time>2020-06-07T13:39:36Z</time>
      </trkpt>
      <trkpt lat="47.78352" lon="-3.62745">
        <ele>35</ele>
        <time>2020-06-07T13:39:37Z</time>
      </trkpt>
      <trkpt lat="47.78353" lon="-3.62745">
        <ele>35</ele>
        <time>2020-06-07T13:39:38Z</time>
      </trkpt>
      <trkpt lat="47.78356" lon="-3.62744">
        <ele>35.1</ele>
        <time>2020-06-07T13:39:39Z</time>
      </trkpt>
      <trkpt lat="47.78357" lon="-3.62743">
        <ele>35.1</ele>
        <time>2020-06-07T13:39:40Z</time>
      </trkpt>
      <trkpt lat="47.7836" lon="-3.62742">
        <ele>35.1</ele>
        <time>2020-06-07T13:39:41Z</time>
      </trkpt>
      <trkpt lat="47.7836" lon="-3.62741">
        <ele>35.1</ele>
        <time>2020-06-07T13:39:42Z</time>
      </trkpt>
      <trkpt lat="47.78364" lon="-3.62739">
        <ele>35.2</ele>
        <time>2020-06-07T13:39:43Z</time>
      </trkpt>
      <trkpt lat="47.78365" lon="-3.62738">
        <ele>35.2</ele>
        <time>2020-06-07T13:39:44Z</time>
      </trkpt>
      <trkpt lat="47.78366" lon="-3.62738">
        <ele>35.2</ele>
        <time>2020-06-07T13:39:45Z</time>
      </trkpt>
      <trkpt lat="47.78367" lon="-3.62737">
        <ele>35.2</ele>
        <time>2020-06-07T13:39:46Z</time>
      </trkpt>
      <trkpt lat="47.78367" lon="-3.62737">
        <ele>35.2</ele>
        <time>2020-06-07T13:39:47Z</time>
      </trkpt>
      <trkpt lat="47.78369" lon="-3.62737">
        <ele>35.2</ele>
        <time>2020-06-07T13:39:48Z</time>
      </trkpt>
      <trkpt lat="47.78369" lon="-3.62737">
        <ele>35.2</ele>
        <time>2020-06-07T13:39:49Z</time>
      </trkpt>
      <trkpt lat="47.7837" lon="-3.62737">
        <ele>35.2</ele>
        <time>2020-06-07T13:39:50Z</time>
      </trkpt>
      <trkpt lat="47.7837" lon="-3.62737">
        <ele>35.3</ele>
        <time>2020-06-07T13:39:51Z</time>
      </trkpt>
      <trkpt lat="47.78371" lon="-3.62737">
        <ele>35.3</ele>
        <time>2020-06-07T13:39:52Z</time>
      </trkpt>
      <trkpt lat="47.78372" lon="-3.62737">
        <ele>35.3</ele>
        <time>2020-06-07T13:39:53Z</time>
      </trkpt>
      <trkpt lat="47.78372" lon="-3.62737">
        <ele>35.3</ele>
        <time>2020-06-07T13:39:54Z</time>
      </trkpt>
      <trkpt lat="47.78373" lon="-3.62737">
        <ele>35.3</ele>
        <time>2020-06-07T13:39:55Z</time>
      </trkpt>
      <trkpt lat="47.78374" lon="-3.62737">
        <ele>35.3</ele>
        <time>2020-06-07T13:39:56Z</time>
      </trkpt>
      <trkpt lat="47.78374" lon="-3.62737">
        <ele>35.3</ele>
        <time>2020-06-07T13:40:21Z</time>
      </trkpt>
      <trkpt lat="47.78375" lon="-3.62737">
        <ele>35.3</ele>
        <time>2020-06-07T13:40:22Z</time>
      </trkpt>
      <trkpt lat="47.78376" lon="-3.62737">
        <ele>35.3</ele>
        <time>2020-06-07T13:40:23Z</time>
      </trkpt>
      <trkpt lat="47.78379" lon="-3.62736">
        <ele>35.3</ele>
        <time>2020-06-07T13:40:24Z</time>
      </trkpt>
      <trkpt lat="47.78382" lon="-3.62735">
        <ele>35.4</ele>
        <time>2020-06-07T13:40:25Z</time>
      </trkpt>
      <trkpt lat="47.78385" lon="-3.62733">
        <ele>35.4</ele>
        <time>2020-06-07T13:40:26Z</time>
      </trkpt>
      <trkpt lat="47.7839" lon="-3.62732">
        <ele>35.5</ele>
        <time>2020-06-07T13:40:27Z</time>
      </trkpt>
      <trkpt lat="47.78395" lon="-3.62731">
        <ele>35.5</ele>
        <time>2020-06-07T13:40:28Z</time>
      </trkpt>
      <trkpt lat="47.78398" lon="-3.62729">
        <ele>35.5</ele>
        <time>2020-06-07T13:40:29Z</time>
      </trkpt>
      <trkpt lat="47.78401" lon="-3.62727">
        <ele>35.6</ele>
        <time>2020-06-07T13:40:30Z</time>
      </trkpt>
      <trkpt lat="47.78404" lon="-3.62726">
        <ele>35.6</ele>
        <time>2020-06-07T13:40:31Z</time>
      </trkpt>
      <trkpt lat="47.78407" lon="-3.62724">
        <ele>35.6</ele>
        <time>2020-06-07T13:40:32Z</time>
      </trkpt>
      <trkpt lat="47.78411" lon="-3.62722">
        <ele>35.6</ele>
        <time>2020-06-07T13:40:33Z</time>
      </trkpt>
      <trkpt lat="47.78414" lon="-3.62722">
        <ele>35.7</ele>
        <time>2020-06-07T13:40:34Z</time>
      </trkpt>
      <trkpt lat="47.78417" lon="-3.6272">
        <ele>35.7</ele>
        <time>2020-06-07T13:40:35Z</time>
      </trkpt>
      <trkpt lat="47.78421" lon="-3.62718">
        <ele>35.7</ele>
        <time>2020-06-07T13:40:36Z</time>
      </trkpt>
      <trkpt lat="47.78425" lon="-3.62716">
        <ele>35.7</ele>
        <time>2020-06-07T13:40:37Z</time>
      </trkpt>
      <trkpt lat="47.7843" lon="-3.62714">
        <ele>35.7</ele>
        <time>2020-06-07T13:40:38Z</time>
      </trkpt>
      <trkpt lat="47.78433" lon="-3.62714">
        <ele>35.7</ele>
        <time>2020-06-07T13:40:39Z</time>
      </trkpt>
      <trkpt lat="47.78436" lon="-3.62712">
        <ele>35.7</ele>
        <time>2020-06-07T13:40:40Z</time>
      </trkpt>
      <trkpt lat="47.78436" lon="-3.62711">
        <ele>35.7</ele>
        <time>2020-06-07T13:40:41Z</time>
      </trkpt>
      <trkpt lat="47.78439" lon="-3.62708">
        <ele>35.7</ele>
        <time>2020-06-07T13:40:42Z</time>
      </trkpt>
      <trkpt lat="47.78442" lon="-3.62706">
        <ele>35.7</ele>
        <time>2020-06-07T13:40:43Z</time>
      </trkpt>
      <trkpt lat="47.78445" lon="-3.62703">
        <ele>35.7</ele>
        <time>2020-06-07T13:40:44Z</time>
      </trkpt>
      <trkpt lat="47.78448" lon="-3.62701">
        <ele>35.7</ele>
        <time>2020-06-07T13:40:45Z</time>
      </trkpt>
      <trkpt lat="47.78449" lon="-3.627">
        <ele>35.7</ele>
        <time>2020-06-07T13:40:46Z</time>
      </trkpt>
      <trkpt lat="47.78452" lon="-3.62698">
        <ele>35.7</ele>
        <time>2020-06-07T13:40:47Z</time>
      </trkpt>
      <trkpt lat="47.78455" lon="-3.62697">
        <ele>35.7</ele>
        <time>2020-06-07T13:40:48Z</time>
      </trkpt>
      <trkpt lat="47.78459" lon="-3.62696">
        <ele>35.7</ele>
        <time>2020-06-07T13:40:49Z</time>
      </trkpt>
      <trkpt lat="47.78462" lon="-3.62695">
        <ele>35.7</ele>
        <time>2020-06-07T13:40:50Z</time>
      </trkpt>
      <trkpt lat="47.78465" lon="-3.62693">
        <ele>35.7</ele>
        <time>2020-06-07T13:40:51Z</time>
      </trkpt>
      <trkpt lat="47.78468" lon="-3.62691">
        <ele>35.7</ele>
        <time>2020-06-07T13:40:52Z</time>
      </trkpt>
      <trkpt lat="47.78471" lon="-3.6269">
        <ele>35.7</ele>
        <time>2020-06-07T13:40:53Z</time>
      </trkpt>
      <trkpt lat="47.78475" lon="-3.62688">
        <ele>35.7</ele>
        <time>2020-06-07T13:40:54Z</time>
      </trkpt>
      <trkpt lat="47.78479" lon="-3.62687">
        <ele>35.7</ele>
        <time>2020-06-07T13:40:55Z</time>
      </trkpt>
      <trkpt lat="47.78482" lon="-3.62685">
        <ele>35.7</ele>
        <time>2020-06-07T13:40:56Z</time>
      </trkpt>
      <trkpt lat="47.78483" lon="-3.62685">
        <ele>35.7</ele>
        <time>2020-06-07T13:40:57Z</time>
      </trkpt>
      <trkpt lat="47.78486" lon="-3.62684">
        <ele>35.7</ele>
        <time>2020-06-07T13:40:58Z</time>
      </trkpt>
      <trkpt lat="47.78489" lon="-3.62681">
        <ele>35.8</ele>
        <time>2020-06-07T13:40:59Z</time>
      </trkpt>
      <trkpt lat="47.78491" lon="-3.6268">
        <ele>35.8</ele>
        <time>2020-06-07T13:41:00Z</time>
      </trkpt>
      <trkpt lat="47.78495" lon="-3.62677">
        <ele>35.8</ele>
        <time>2020-06-07T13:41:01Z</time>
      </trkpt>
      <trkpt lat="47.78497" lon="-3.62675">
        <ele>35.8</ele>
        <time>2020-06-07T13:41:02Z</time>
      </trkpt>
      <trkpt lat="47.78501" lon="-3.62673">
        <ele>35.8</ele>
        <time>2020-06-07T13:41:03Z</time>
      </trkpt>
      <trkpt lat="47.78504" lon="-3.6267">
        <ele>35.8</ele>
        <time>2020-06-07T13:41:04Z</time>
      </trkpt>
      <trkpt lat="47.78507" lon="-3.62668">
        <ele>35.8</ele>
        <time>2020-06-07T13:41:05Z</time>
      </trkpt>
      <trkpt lat="47.78511" lon="-3.62665">
        <ele>35.8</ele>
        <time>2020-06-07T13:41:06Z</time>
      </trkpt>
      <trkpt lat="47.78514" lon="-3.62662">
        <ele>35.8</ele>
        <time>2020-06-07T13:41:07Z</time>
      </trkpt>
      <trkpt lat="47.78517" lon="-3.62659">
        <ele>35.8</ele>
        <time>2020-06-07T13:41:08Z</time>
      </trkpt>
      <trkpt lat="47.78522" lon="-3.62656">
        <ele>35.8</ele>
        <time>2020-06-07T13:41:09Z</time>
      </trkpt>
      <trkpt lat="47.78526" lon="-3.62652">
        <ele>35.9</ele>
        <time>2020-06-07T13:41:10Z</time>
      </trkpt>
      <trkpt lat="47.78529" lon="-3.62649">
        <ele>35.9</ele>
        <time>2020-06-07T13:41:11Z</time>
      </trkpt>
      <trkpt lat="47.78534" lon="-3.62644">
        <ele>35.9</ele>
        <time>2020-06-07T13:41:12Z</time>
      </trkpt>
      <trkpt lat="47.78537" lon="-3.62642">
        <ele>35.9</ele>
        <time>2020-06-07T13:41:13Z</time>
      </trkpt>
      <trkpt lat="47.78542" lon="-3.6264">
        <ele>35.9</ele>
        <time>2020-06-07T13:41:14Z</time>
      </trkpt>
      <trkpt lat="47.78546" lon="-3.62637">
        <ele>36</ele>
        <time>2020-06-07T13:41:15Z</time>
      </trkpt>
      <trkpt lat="47.7855" lon="-3.62635">
        <ele>36</ele>
        <time>2020-06-07T13:41:16Z</time>
      </trkpt>
      <trkpt lat="47.78554" lon="-3.62632">
        <ele>36</ele>
        <time>2020-06-07T13:41:17Z</time>
      </trkpt>
      <trkpt lat="47.78558" lon="-3.62629">
        <ele>36</ele>
        <time>2020-06-07T13:41:18Z</time>
      </trkpt>
      <trkpt lat="47.7856" lon="-3.62627">
        <ele>36</ele>
        <time>2020-06-07T13:41:19Z</time>
      </trkpt>
      <trkpt lat="47.78564" lon="-3.62624">
        <ele>36.1</ele>
        <time>2020-06-07T13:41:20Z</time>
      </trkpt>
      <trkpt lat="47.78568" lon="-3.62622">
        <ele>36.1</ele>
        <time>2020-06-07T13:41:21Z</time>
      </trkpt>
      <trkpt lat="47.78573" lon="-3.62619">
        <ele>36.2</ele>
        <time>2020-06-07T13:41:22Z</time>
      </trkpt>
      <trkpt lat="47.78576" lon="-3.62616">
        <ele>36.2</ele>
        <time>2020-06-07T13:41:23Z</time>
      </trkpt>
      <trkpt lat="47.7858" lon="-3.62612">
        <ele>36.3</ele>
        <time>2020-06-07T13:41:24Z</time>
      </trkpt>
      <trkpt lat="47.78584" lon="-3.62607">
        <ele>36.3</ele>
        <time>2020-06-07T13:41:25Z</time>
      </trkpt>
      <trkpt lat="47.78587" lon="-3.62604">
        <ele>36.3</ele>
        <time>2020-06-07T13:41:26Z</time>
      </trkpt>
      <trkpt lat="47.7859" lon="-3.62601">
        <ele>36.3</ele>
        <time>2020-06-07T13:41:27Z</time>
      </trkpt>
      <trkpt lat="47.78593" lon="-3.62596">
        <ele>36.2</ele>
        <time>2020-06-07T13:41:28Z</time>
      </trkpt>
      <trkpt lat="47.78597" lon="-3.62591">
        <ele>36.2</ele>
        <time>2020-06-07T13:41:29Z</time>
      </trkpt>
      <trkpt lat="47.78601" lon="-3.62588">
        <ele>36.1</ele>
        <time>2020-06-07T13:41:30Z</time>
      </trkpt>
      <trkpt lat="47.78605" lon="-3.62584">
        <ele>36.1</ele>
        <time>2020-06-07T13:41:31Z</time>
      </trkpt>
      <trkpt lat="47.78609" lon="-3.6258">
        <ele>36</ele>
        <time>2020-06-07T13:41:32Z</time>
      </trkpt>
      <trkpt lat="47.78611" lon="-3.62576">
        <ele>35.9</ele>
        <time>2020-06-07T13:41:33Z</time>
      </trkpt>
      <trkpt lat="47.78614" lon="-3.62575">
        <ele>35.8</ele>
        <time>2020-06-07T13:41:34Z</time>
      </trkpt>
      <trkpt lat="47.78616" lon="-3.62571">
        <ele>35.8</ele>
        <time>2020-06-07T13:41:35Z</time>
      </trkpt>
      <trkpt lat="47.7862" lon="-3.62569">
        <ele>35.7</ele>
        <time>2020-06-07T13:41:36Z</time>
      </trkpt>
      <trkpt lat="47.78623" lon="-3.62566">
        <ele>35.6</ele>
        <time>2020-06-07T13:41:37Z</time>
      </trkpt>
      <trkpt lat="47.78626" lon="-3.62564">
        <ele>35.5</ele>
        <time>2020-06-07T13:41:38Z</time>
      </trkpt>
      <trkpt lat="47.78629" lon="-3.62561">
        <ele>35.4</ele>
        <time>2020-06-07T13:41:39Z</time>
      </trkpt>
      <trkpt lat="47.78633" lon="-3.6256">
        <ele>35.3</ele>
        <time>2020-06-07T13:41:40Z</time>
      </trkpt>
      <trkpt lat="47.78637" lon="-3.62559">
        <ele>35.2</ele>
        <time>2020-06-07T13:41:41Z</time>
      </trkpt>
      <trkpt lat="47.78641" lon="-3.62559">
        <ele>35.1</ele>
        <time>2020-06-07T13:41:42Z</time>
      </trkpt>
      <trkpt lat="47.78644" lon="-3.62558">
        <ele>35</ele>
        <time>2020-06-07T13:41:43Z</time>
      </trkpt>
      <trkpt lat="47.78646" lon="-3.62557">
        <ele>34.9</ele>
        <time>2020-06-07T13:41:44Z</time>
      </trkpt>
      <trkpt lat="47.7865" lon="-3.62556">
        <ele>34.7</ele>
        <time>2020-06-07T13:41:45Z</time>
      </trkpt>
      <trkpt lat="47.78654" lon="-3.62555">
        <ele>34.6</ele>
        <time>2020-06-07T13:41:46Z</time>
      </trkpt>
      <trkpt lat="47.78657" lon="-3.62555">
        <ele>34.5</ele>
        <time>2020-06-07T13:41:47Z</time>
      </trkpt>
      <trkpt lat="47.7866" lon="-3.62555">
        <ele>34.3</ele>
        <time>2020-06-07T13:41:48Z</time>
      </trkpt>
      <trkpt lat="47.78664" lon="-3.62554">
        <ele>34.2</ele>
        <time>2020-06-07T13:41:49Z</time>
      </trkpt>
      <trkpt lat="47.78665" lon="-3.62553">
        <ele>34.1</ele>
        <time>2020-06-07T13:41:50Z</time>
      </trkpt>
      <trkpt lat="47.78668" lon="-3.62553">
        <ele>34</ele>
        <time>2020-06-07T13:41:51Z</time>
      </trkpt>
      <trkpt lat="47.78671" lon="-3.62553">
        <ele>33.9</ele>
        <time>2020-06-07T13:41:52Z</time>
      </trkpt>
      <trkpt lat="47.78675" lon="-3.62554">
        <ele>33.7</ele>
        <time>2020-06-07T13:41:53Z</time>
      </trkpt>
      <trkpt lat="47.78677" lon="-3.62554">
        <ele>33.7</ele>
        <time>2020-06-07T13:41:54Z</time>
      </trkpt>
      <trkpt lat="47.7868" lon="-3.62554">
        <ele>33.5</ele>
        <time>2020-06-07T13:41:55Z</time>
      </trkpt>
      <trkpt lat="47.78683" lon="-3.62553">
        <ele>33.4</ele>
        <time>2020-06-07T13:41:56Z</time>
      </trkpt>
      <trkpt lat="47.78688" lon="-3.62552">
        <ele>33.2</ele>
        <time>2020-06-07T13:41:57Z</time>
      </trkpt>
      <trkpt lat="47.78693" lon="-3.6255">
        <ele>32.9</ele>
        <time>2020-06-07T13:41:58Z</time>
      </trkpt>
      <trkpt lat="47.78697" lon="-3.62549">
        <ele>32.7</ele>
        <time>2020-06-07T13:41:59Z</time>
      </trkpt>
      <trkpt lat="47.78704" lon="-3.62548">
        <ele>32.3</ele>
        <time>2020-06-07T13:42:00Z</time>
      </trkpt>
      <trkpt lat="47.7871" lon="-3.62547">
        <ele>32</ele>
        <time>2020-06-07T13:42:01Z</time>
      </trkpt>
      <trkpt lat="47.78716" lon="-3.62546">
        <ele>31.7</ele>
        <time>2020-06-07T13:42:02Z</time>
      </trkpt>
      <trkpt lat="47.78722" lon="-3.62544">
        <ele>31.3</ele>
        <time>2020-06-07T13:42:03Z</time>
      </trkpt>
      <trkpt lat="47.78729" lon="-3.62543">
        <ele>30.9</ele>
        <time>2020-06-07T13:42:04Z</time>
      </trkpt>
      <trkpt lat="47.78736" lon="-3.6254">
        <ele>30.5</ele>
        <time>2020-06-07T13:42:05Z</time>
      </trkpt>
      <trkpt lat="47.78743" lon="-3.6254">
        <ele>30.1</ele>
        <time>2020-06-07T13:42:06Z</time>
      </trkpt>
      <trkpt lat="47.7875" lon="-3.62536">
        <ele>29.8</ele>
        <time>2020-06-07T13:42:07Z</time>
      </trkpt>
      <trkpt lat="47.78758" lon="-3.62532">
        <ele>29.6</ele>
        <time>2020-06-07T13:42:08Z</time>
      </trkpt>
      <trkpt lat="47.78766" lon="-3.62529">
        <ele>29.3</ele>
        <time>2020-06-07T13:42:09Z</time>
      </trkpt>
      <trkpt lat="47.78775" lon="-3.62526">
        <ele>29.7</ele>
        <time>2020-06-07T13:42:10Z</time>
      </trkpt>
      <trkpt lat="47.78784" lon="-3.62523">
        <ele>30.1</ele>
        <time>2020-06-07T13:42:11Z</time>
      </trkpt>
      <trkpt lat="47.78791" lon="-3.62521">
        <ele>30.2</ele>
        <time>2020-06-07T13:42:12Z</time>
      </trkpt>
      <trkpt lat="47.78797" lon="-3.62519">
        <ele>30.3</ele>
        <time>2020-06-07T13:42:13Z</time>
      </trkpt>
      <trkpt lat="47.78804" lon="-3.62517">
        <ele>30.4</ele>
        <time>2020-06-07T13:42:14Z</time>
      </trkpt>
      <trkpt lat="47.78809" lon="-3.62517">
        <ele>30.6</ele>
        <time>2020-06-07T13:42:15Z</time>
      </trkpt>
      <trkpt lat="47.78815" lon="-3.62517">
        <ele>30.8</ele>
        <time>2020-06-07T13:42:16Z</time>
      </trkpt>
      <trkpt lat="47.7882" lon="-3.62516">
        <ele>31</ele>
        <time>2020-06-07T13:42:17Z</time>
      </trkpt>
      <trkpt lat="47.78824" lon="-3.62518">
        <ele>31.2</ele>
        <time>2020-06-07T13:42:18Z</time>
      </trkpt>
      <trkpt lat="47.78828" lon="-3.62518">
        <ele>31.4</ele>
        <time>2020-06-07T13:42:19Z</time>
      </trkpt>
      <trkpt lat="47.78831" lon="-3.62519">
        <ele>31.6</ele>
        <time>2020-06-07T13:42:20Z</time>
      </trkpt>
      <trkpt lat="47.78834" lon="-3.6252">
        <ele>31.8</ele>
        <time>2020-06-07T13:42:21Z</time>
      </trkpt>
      <trkpt lat="47.78838" lon="-3.6252">
        <ele>31.9</ele>
        <time>2020-06-07T13:42:22Z</time>
      </trkpt>
      <trkpt lat="47.78841" lon="-3.6252">
        <ele>32.1</ele>
        <time>2020-06-07T13:42:23Z</time>
      </trkpt>
      <trkpt lat="47.78844" lon="-3.6252">
        <ele>32.3</ele>
        <time>2020-06-07T13:42:24Z</time>
      </trkpt>
      <trkpt lat="47.78848" lon="-3.6252">
        <ele>32.4</ele>
        <time>2020-06-07T13:42:25Z</time>
      </trkpt>
      <trkpt lat="47.7885" lon="-3.62521">
        <ele>32.5</ele>
        <time>2020-06-07T13:42:26Z</time>
      </trkpt>
      <trkpt lat="47.78853" lon="-3.6252">
        <ele>32.7</ele>
        <time>2020-06-07T13:42:27Z</time>
      </trkpt>
      <trkpt lat="47.78856" lon="-3.62521">
        <ele>32.8</ele>
        <time>2020-06-07T13:42:28Z</time>
      </trkpt>
      <trkpt lat="47.7886" lon="-3.62522">
        <ele>32.9</ele>
        <time>2020-06-07T13:42:29Z</time>
      </trkpt>
      <trkpt lat="47.78863" lon="-3.62522">
        <ele>33.1</ele>
        <time>2020-06-07T13:42:30Z</time>
      </trkpt>
      <trkpt lat="47.78866" lon="-3.62522">
        <ele>33.2</ele>
        <time>2020-06-07T13:42:31Z</time>
      </trkpt>
      <trkpt lat="47.7887" lon="-3.62524">
        <ele>33.4</ele>
        <time>2020-06-07T13:42:32Z</time>
      </trkpt>
      <trkpt lat="47.78873" lon="-3.62525">
        <ele>33.5</ele>
        <time>2020-06-07T13:42:33Z</time>
      </trkpt>
      <trkpt lat="47.78876" lon="-3.62524">
        <ele>33.7</ele>
        <time>2020-06-07T13:42:34Z</time>
      </trkpt>
      <trkpt lat="47.78879" lon="-3.62524">
        <ele>33.8</ele>
        <time>2020-06-07T13:42:35Z</time>
      </trkpt>
      <trkpt lat="47.78882" lon="-3.62525">
        <ele>34</ele>
        <time>2020-06-07T13:42:36Z</time>
      </trkpt>
      <trkpt lat="47.78886" lon="-3.62525">
        <ele>34.1</ele>
        <time>2020-06-07T13:42:37Z</time>
      </trkpt>
      <trkpt lat="47.78889" lon="-3.62525">
        <ele>34.3</ele>
        <time>2020-06-07T13:42:38Z</time>
      </trkpt>
      <trkpt lat="47.78892" lon="-3.62525">
        <ele>34.4</ele>
        <time>2020-06-07T13:42:39Z</time>
      </trkpt>
      <trkpt lat="47.78896" lon="-3.62526">
        <ele>34.6</ele>
        <time>2020-06-07T13:42:40Z</time>
      </trkpt>
      <trkpt lat="47.789" lon="-3.62526">
        <ele>34.8</ele>
        <time>2020-06-07T13:42:41Z</time>
      </trkpt>
      <trkpt lat="47.78902" lon="-3.62525">
        <ele>34.9</ele>
        <time>2020-06-07T13:42:42Z</time>
      </trkpt>
      <trkpt lat="47.78906" lon="-3.62525">
        <ele>35.1</ele>
        <time>2020-06-07T13:42:43Z</time>
      </trkpt>
      <trkpt lat="47.7891" lon="-3.62524">
        <ele>35.2</ele>
        <time>2020-06-07T13:42:44Z</time>
      </trkpt>
      <trkpt lat="47.78913" lon="-3.62525">
        <ele>35.3</ele>
        <time>2020-06-07T13:42:45Z</time>
      </trkpt>
      <trkpt lat="47.78918" lon="-3.62525">
        <ele>35.5</ele>
        <time>2020-06-07T13:42:46Z</time>
      </trkpt>
      <trkpt lat="47.78921" lon="-3.62526">
        <ele>35.6</ele>
        <time>2020-06-07T13:42:47Z</time>
      </trkpt>
      <trkpt lat="47.78925" lon="-3.62526">
        <ele>35.7</ele>
        <time>2020-06-07T13:42:48Z</time>
      </trkpt>
      <trkpt lat="47.78928" lon="-3.62527">
        <ele>35.8</ele>
        <time>2020-06-07T13:42:49Z</time>
      </trkpt>
      <trkpt lat="47.78932" lon="-3.62527">
        <ele>35.9</ele>
        <time>2020-06-07T13:42:50Z</time>
      </trkpt>
      <trkpt lat="47.78936" lon="-3.62528">
        <ele>36</ele>
        <time>2020-06-07T13:42:51Z</time>
      </trkpt>
      <trkpt lat="47.78939" lon="-3.62528">
        <ele>36.1</ele>
        <time>2020-06-07T13:42:52Z</time>
      </trkpt>
      <trkpt lat="47.78942" lon="-3.62528">
        <ele>36.2</ele>
        <time>2020-06-07T13:42:53Z</time>
      </trkpt>
      <trkpt lat="47.78945" lon="-3.62529">
        <ele>36.3</ele>
        <time>2020-06-07T13:42:54Z</time>
      </trkpt>
      <trkpt lat="47.78949" lon="-3.6253">
        <ele>36.4</ele>
        <time>2020-06-07T13:42:55Z</time>
      </trkpt>
      <trkpt lat="47.78952" lon="-3.62531">
        <ele>36.5</ele>
        <time>2020-06-07T13:42:56Z</time>
      </trkpt>
      <trkpt lat="47.78955" lon="-3.62531">
        <ele>36.5</ele>
        <time>2020-06-07T13:42:57Z</time>
      </trkpt>
      <trkpt lat="47.78959" lon="-3.62532">
        <ele>36.6</ele>
        <time>2020-06-07T13:42:58Z</time>
      </trkpt>
      <trkpt lat="47.78962" lon="-3.62533">
        <ele>36.7</ele>
        <time>2020-06-07T13:42:59Z</time>
      </trkpt>
      <trkpt lat="47.78966" lon="-3.62533">
        <ele>36.7</ele>
        <time>2020-06-07T13:43:00Z</time>
      </trkpt>
      <trkpt lat="47.78969" lon="-3.62533">
        <ele>36.7</ele>
        <time>2020-06-07T13:43:01Z</time>
      </trkpt>
      <trkpt lat="47.78973" lon="-3.62535">
        <ele>36.8</ele>
        <time>2020-06-07T13:43:02Z</time>
      </trkpt>
      <trkpt lat="47.78977" lon="-3.62535">
        <ele>36.8</ele>
        <time>2020-06-07T13:43:03Z</time>
      </trkpt>
      <trkpt lat="47.7898" lon="-3.62536">
        <ele>36.8</ele>
        <time>2020-06-07T13:43:04Z</time>
      </trkpt>
      <trkpt lat="47.78983" lon="-3.62536">
        <ele>36.9</ele>
        <time>2020-06-07T13:43:05Z</time>
      </trkpt>
      <trkpt lat="47.78987" lon="-3.62537">
        <ele>36.9</ele>
        <time>2020-06-07T13:43:06Z</time>
      </trkpt>
      <trkpt lat="47.78991" lon="-3.62537">
        <ele>36.9</ele>
        <time>2020-06-07T13:43:07Z</time>
      </trkpt>
      <trkpt lat="47.78995" lon="-3.62537">
        <ele>36.9</ele>
        <time>2020-06-07T13:43:08Z</time>
      </trkpt>
      <trkpt lat="47.78998" lon="-3.62537">
        <ele>36.9</ele>
        <time>2020-06-07T13:43:09Z</time>
      </trkpt>
      <trkpt lat="47.79002" lon="-3.62538">
        <ele>36.9</ele>
        <time>2020-06-07T13:43:10Z</time>
      </trkpt>
      <trkpt lat="47.79005" lon="-3.62538">
        <ele>36.9</ele>
        <time>2020-06-07T13:43:11Z</time>
      </trkpt>
      <trkpt lat="47.7901" lon="-3.62539">
        <ele>36.9</ele>
        <time>2020-06-07T13:43:12Z</time>
      </trkpt>
      <trkpt lat="47.79015" lon="-3.6254">
        <ele>36.9</ele>
        <time>2020-06-07T13:43:13Z</time>
      </trkpt>
      <trkpt lat="47.7902" lon="-3.6254">
        <ele>36.9</ele>
        <time>2020-06-07T13:43:14Z</time>
      </trkpt>
      <trkpt lat="47.79025" lon="-3.62541">
        <ele>36.9</ele>
        <time>2020-06-07T13:43:15Z</time>
      </trkpt>
      <trkpt lat="47.7903" lon="-3.62541">
        <ele>37</ele>
        <time>2020-06-07T13:43:16Z</time>
      </trkpt>
      <trkpt lat="47.79035" lon="-3.62541">
        <ele>37</ele>
        <time>2020-06-07T13:43:17Z</time>
      </trkpt>
      <trkpt lat="47.7904" lon="-3.62541">
        <ele>37.1</ele>
        <time>2020-06-07T13:43:18Z</time>
      </trkpt>
      <trkpt lat="47.79045" lon="-3.62541">
        <ele>37.1</ele>
        <time>2020-06-07T13:43:19Z</time>
      </trkpt>
      <trkpt lat="47.79049" lon="-3.62541">
        <ele>37.1</ele>
        <time>2020-06-07T13:43:20Z</time>
      </trkpt>
      <trkpt lat="47.79054" lon="-3.6254">
        <ele>37.2</ele>
        <time>2020-06-07T13:43:21Z</time>
      </trkpt>
      <trkpt lat="47.79058" lon="-3.6254">
        <ele>37.2</ele>
        <time>2020-06-07T13:43:22Z</time>
      </trkpt>
      <trkpt lat="47.79062" lon="-3.62539">
        <ele>37.2</ele>
        <time>2020-06-07T13:43:23Z</time>
      </trkpt>
      <trkpt lat="47.79065" lon="-3.62537">
        <ele>37.3</ele>
        <time>2020-06-07T13:43:24Z</time>
      </trkpt>
      <trkpt lat="47.79068" lon="-3.62535">
        <ele>37.3</ele>
        <time>2020-06-07T13:43:25Z</time>
      </trkpt>
      <trkpt lat="47.79072" lon="-3.62533">
        <ele>37.4</ele>
        <time>2020-06-07T13:43:26Z</time>
      </trkpt>
      <trkpt lat="47.79073" lon="-3.62533">
        <ele>37.4</ele>
        <time>2020-06-07T13:43:27Z</time>
      </trkpt>
      <trkpt lat="47.79077" lon="-3.62531">
        <ele>37.4</ele>
        <time>2020-06-07T13:43:28Z</time>
      </trkpt>
      <trkpt lat="47.79081" lon="-3.6253">
        <ele>37.5</ele>
        <time>2020-06-07T13:43:29Z</time>
      </trkpt>
      <trkpt lat="47.79086" lon="-3.62527">
        <ele>37.5</ele>
        <time>2020-06-07T13:43:30Z</time>
      </trkpt>
      <trkpt lat="47.7909" lon="-3.62525">
        <ele>37.6</ele>
        <time>2020-06-07T13:43:31Z</time>
      </trkpt>
      <trkpt lat="47.79093" lon="-3.62523">
        <ele>37.7</ele>
        <time>2020-06-07T13:43:32Z</time>
      </trkpt>
      <trkpt lat="47.79097" lon="-3.6252">
        <ele>37.7</ele>
        <time>2020-06-07T13:43:33Z</time>
      </trkpt>
      <trkpt lat="47.79101" lon="-3.62518">
        <ele>37.8</ele>
        <time>2020-06-07T13:43:34Z</time>
      </trkpt>
      <trkpt lat="47.79106" lon="-3.62517">
        <ele>37.9</ele>
        <time>2020-06-07T13:43:35Z</time>
      </trkpt>
      <trkpt lat="47.7911" lon="-3.62514">
        <ele>37.9</ele>
        <time>2020-06-07T13:43:36Z</time>
      </trkpt>
      <trkpt lat="47.79114" lon="-3.62511">
        <ele>38</ele>
        <time>2020-06-07T13:43:37Z</time>
      </trkpt>
      <trkpt lat="47.79119" lon="-3.62508">
        <ele>38.1</ele>
        <time>2020-06-07T13:43:38Z</time>
      </trkpt>
      <trkpt lat="47.79124" lon="-3.62506">
        <ele>38.2</ele>
        <time>2020-06-07T13:43:39Z</time>
      </trkpt>
      <trkpt lat="47.7913" lon="-3.62504">
        <ele>38.3</ele>
        <time>2020-06-07T13:43:40Z</time>
      </trkpt>
      <trkpt lat="47.79132" lon="-3.62503">
        <ele>38.4</ele>
        <time>2020-06-07T13:43:41Z</time>
      </trkpt>
      <trkpt lat="47.79137" lon="-3.62503">
        <ele>38.5</ele>
        <time>2020-06-07T13:43:42Z</time>
      </trkpt>
      <trkpt lat="47.79141" lon="-3.62503">
        <ele>38.6</ele>
        <time>2020-06-07T13:43:43Z</time>
      </trkpt>
      <trkpt lat="47.79145" lon="-3.62502">
        <ele>38.8</ele>
        <time>2020-06-07T13:43:44Z</time>
      </trkpt>
      <trkpt lat="47.79148" lon="-3.62501">
        <ele>38.9</ele>
        <time>2020-06-07T13:43:45Z</time>
      </trkpt>
      <trkpt lat="47.79152" lon="-3.62501">
        <ele>39</ele>
        <time>2020-06-07T13:43:46Z</time>
      </trkpt>
      <trkpt lat="47.79156" lon="-3.625">
        <ele>39.1</ele>
        <time>2020-06-07T13:43:47Z</time>
      </trkpt>
      <trkpt lat="47.79159" lon="-3.625">
        <ele>39.2</ele>
        <time>2020-06-07T13:43:48Z</time>
      </trkpt>
      <trkpt lat="47.79162" lon="-3.62499">
        <ele>39.3</ele>
        <time>2020-06-07T13:43:49Z</time>
      </trkpt>
      <trkpt lat="47.79166" lon="-3.62498">
        <ele>39.4</ele>
        <time>2020-06-07T13:43:50Z</time>
      </trkpt>
      <trkpt lat="47.79169" lon="-3.62498">
        <ele>39.5</ele>
        <time>2020-06-07T13:43:51Z</time>
      </trkpt>
      <trkpt lat="47.79173" lon="-3.62496">
        <ele>39.7</ele>
        <time>2020-06-07T13:43:52Z</time>
      </trkpt>
      <trkpt lat="47.79178" lon="-3.62495">
        <ele>39.9</ele>
        <time>2020-06-07T13:43:53Z</time>
      </trkpt>
      <trkpt lat="47.79183" lon="-3.62495">
        <ele>40.1</ele>
        <time>2020-06-07T13:43:54Z</time>
      </trkpt>
      <trkpt lat="47.79188" lon="-3.62494">
        <ele>40.3</ele>
        <time>2020-06-07T13:43:55Z</time>
      </trkpt>
      <trkpt lat="47.79193" lon="-3.62492">
        <ele>40.5</ele>
        <time>2020-06-07T13:43:56Z</time>
      </trkpt>
      <trkpt lat="47.79197" lon="-3.62492">
        <ele>40.6</ele>
        <time>2020-06-07T13:43:57Z</time>
      </trkpt>
      <trkpt lat="47.792" lon="-3.62491">
        <ele>40.8</ele>
        <time>2020-06-07T13:43:58Z</time>
      </trkpt>
      <trkpt lat="47.79204" lon="-3.62489">
        <ele>40.9</ele>
        <time>2020-06-07T13:43:59Z</time>
      </trkpt>
      <trkpt lat="47.79208" lon="-3.62488">
        <ele>41.1</ele>
        <time>2020-06-07T13:44:00Z</time>
      </trkpt>
      <trkpt lat="47.79212" lon="-3.62487">
        <ele>41.3</ele>
        <time>2020-06-07T13:44:01Z</time>
      </trkpt>
      <trkpt lat="47.79217" lon="-3.62486">
        <ele>41.6</ele>
        <time>2020-06-07T13:44:02Z</time>
      </trkpt>
      <trkpt lat="47.7922" lon="-3.62486">
        <ele>41.7</ele>
        <time>2020-06-07T13:44:03Z</time>
      </trkpt>
      <trkpt lat="47.79223" lon="-3.62485">
        <ele>41.9</ele>
        <time>2020-06-07T13:44:04Z</time>
      </trkpt>
      <trkpt lat="47.79227" lon="-3.62484">
        <ele>42.1</ele>
        <time>2020-06-07T13:44:05Z</time>
      </trkpt>
      <trkpt lat="47.79231" lon="-3.62482">
        <ele>42.3</ele>
        <time>2020-06-07T13:44:06Z</time>
      </trkpt>
      <trkpt lat="47.79232" lon="-3.62482">
        <ele>42.4</ele>
        <time>2020-06-07T13:44:07Z</time>
      </trkpt>
      <trkpt lat="47.79236" lon="-3.62481">
        <ele>42.6</ele>
        <time>2020-06-07T13:44:08Z</time>
      </trkpt>
      <trkpt lat="47.7924" lon="-3.62479">
        <ele>42.9</ele>
        <time>2020-06-07T13:44:09Z</time>
      </trkpt>
      <trkpt lat="47.79244" lon="-3.62478">
        <ele>43.1</ele>
        <time>2020-06-07T13:44:10Z</time>
      </trkpt>
      <trkpt lat="47.79245" lon="-3.62478">
        <ele>43.2</ele>
        <time>2020-06-07T13:44:11Z</time>
      </trkpt>
      <trkpt lat="47.79251" lon="-3.62478">
        <ele>43.6</ele>
        <time>2020-06-07T13:44:12Z</time>
      </trkpt>
      <trkpt lat="47.79255" lon="-3.62477">
        <ele>43.9</ele>
        <time>2020-06-07T13:44:13Z</time>
      </trkpt>
      <trkpt lat="47.7926" lon="-3.62477">
        <ele>44.2</ele>
        <time>2020-06-07T13:44:14Z</time>
      </trkpt>
      <trkpt lat="47.79264" lon="-3.62476">
        <ele>44.5</ele>
        <time>2020-06-07T13:44:15Z</time>
      </trkpt>
      <trkpt lat="47.79265" lon="-3.62476">
        <ele>44.6</ele>
        <time>2020-06-07T13:44:16Z</time>
      </trkpt>
      <trkpt lat="47.79269" lon="-3.62476">
        <ele>44.9</ele>
        <time>2020-06-07T13:44:17Z</time>
      </trkpt>
      <trkpt lat="47.7927" lon="-3.62475">
        <ele>44.9</ele>
        <time>2020-06-07T13:44:18Z</time>
      </trkpt>
      <trkpt lat="47.79274" lon="-3.62474">
        <ele>45.2</ele>
        <time>2020-06-07T13:44:19Z</time>
      </trkpt>
      <trkpt lat="47.79277" lon="-3.62473">
        <ele>45.4</ele>
        <time>2020-06-07T13:44:20Z</time>
      </trkpt>
      <trkpt lat="47.79278" lon="-3.62473">
        <ele>45.4</ele>
        <time>2020-06-07T13:44:21Z</time>
      </trkpt>
      <trkpt lat="47.79282" lon="-3.62472">
        <ele>45.6</ele>
        <time>2020-06-07T13:44:22Z</time>
      </trkpt>
      <trkpt lat="47.79284" lon="-3.62472">
        <ele>45.7</ele>
        <time>2020-06-07T13:44:23Z</time>
      </trkpt>
      <trkpt lat="47.79287" lon="-3.62472">
        <ele>45.8</ele>
        <time>2020-06-07T13:44:24Z</time>
      </trkpt>
      <trkpt lat="47.79291" lon="-3.62473">
        <ele>46</ele>
        <time>2020-06-07T13:44:25Z</time>
      </trkpt>
      <trkpt lat="47.79295" lon="-3.62472">
        <ele>46.1</ele>
        <time>2020-06-07T13:44:26Z</time>
      </trkpt>
      <trkpt lat="47.79296" lon="-3.62472">
        <ele>46.2</ele>
        <time>2020-06-07T13:44:27Z</time>
      </trkpt>
      <trkpt lat="47.79303" lon="-3.6247">
        <ele>46.4</ele>
        <time>2020-06-07T13:44:28Z</time>
      </trkpt>
      <trkpt lat="47.7931" lon="-3.62464">
        <ele>46.6</ele>
        <time>2020-06-07T13:44:29Z</time>
      </trkpt>
      <trkpt lat="47.79314" lon="-3.62462">
        <ele>46.6</ele>
        <time>2020-06-07T13:44:30Z</time>
      </trkpt>
      <trkpt lat="47.79318" lon="-3.62461">
        <ele>46.7</ele>
        <time>2020-06-07T13:44:31Z</time>
      </trkpt>
      <trkpt lat="47.79322" lon="-3.6246">
        <ele>46.8</ele>
        <time>2020-06-07T13:44:32Z</time>
      </trkpt>
      <trkpt lat="47.79327" lon="-3.62458">
        <ele>46.8</ele>
        <time>2020-06-07T13:44:33Z</time>
      </trkpt>
      <trkpt lat="47.79331" lon="-3.62458">
        <ele>46.8</ele>
        <time>2020-06-07T13:44:34Z</time>
      </trkpt>
      <trkpt lat="47.79334" lon="-3.62458">
        <ele>46.8</ele>
        <time>2020-06-07T13:44:35Z</time>
      </trkpt>
      <trkpt lat="47.79338" lon="-3.62457">
        <ele>46.8</ele>
        <time>2020-06-07T13:44:36Z</time>
      </trkpt>
      <trkpt lat="47.79342" lon="-3.62457">
        <ele>46.8</ele>
        <time>2020-06-07T13:44:37Z</time>
      </trkpt>
      <trkpt lat="47.79345" lon="-3.62455">
        <ele>46.8</ele>
        <time>2020-06-07T13:44:38Z</time>
      </trkpt>
      <trkpt lat="47.79348" lon="-3.62455">
        <ele>46.8</ele>
        <time>2020-06-07T13:44:39Z</time>
      </trkpt>
      <trkpt lat="47.7935" lon="-3.62455">
        <ele>46.8</ele>
        <time>2020-06-07T13:44:40Z</time>
      </trkpt>
      <trkpt lat="47.79353" lon="-3.62454">
        <ele>46.8</ele>
        <time>2020-06-07T13:44:41Z</time>
      </trkpt>
      <trkpt lat="47.79354" lon="-3.62454">
        <ele>46.8</ele>
        <time>2020-06-07T13:44:42Z</time>
      </trkpt>
      <trkpt lat="47.79356" lon="-3.62453">
        <ele>46.8</ele>
        <time>2020-06-07T13:44:43Z</time>
      </trkpt>
      <trkpt lat="47.79357" lon="-3.62453">
        <ele>46.8</ele>
        <time>2020-06-07T13:44:44Z</time>
      </trkpt>
      <trkpt lat="47.79359" lon="-3.62453">
        <ele>46.8</ele>
        <time>2020-06-07T13:44:45Z</time>
      </trkpt>
      <trkpt lat="47.79361" lon="-3.62453">
        <ele>46.7</ele>
        <time>2020-06-07T13:44:46Z</time>
      </trkpt>
      <trkpt lat="47.79362" lon="-3.62452">
        <ele>46.7</ele>
        <time>2020-06-07T13:44:47Z</time>
      </trkpt>
      <trkpt lat="47.79364" lon="-3.62452">
        <ele>46.7</ele>
        <time>2020-06-07T13:44:48Z</time>
      </trkpt>
      <trkpt lat="47.79365" lon="-3.62452">
        <ele>46.7</ele>
        <time>2020-06-07T13:44:49Z</time>
      </trkpt>
      <trkpt lat="47.79367" lon="-3.62451">
        <ele>46.7</ele>
        <time>2020-06-07T13:44:50Z</time>
      </trkpt>
      <trkpt lat="47.7937" lon="-3.62452">
        <ele>46.7</ele>
        <time>2020-06-07T13:44:51Z</time>
      </trkpt>
      <trkpt lat="47.79371" lon="-3.62452">
        <ele>46.7</ele>
        <time>2020-06-07T13:44:52Z</time>
      </trkpt>
      <trkpt lat="47.79375" lon="-3.6245">
        <ele>46.6</ele>
        <time>2020-06-07T13:44:53Z</time>
      </trkpt>
      <trkpt lat="47.79376" lon="-3.6245">
        <ele>46.6</ele>
        <time>2020-06-07T13:44:54Z</time>
      </trkpt>
      <trkpt lat="47.79378" lon="-3.6245">
        <ele>46.6</ele>
        <time>2020-06-07T13:44:55Z</time>
      </trkpt>
      <trkpt lat="47.79381" lon="-3.6245">
        <ele>46.6</ele>
        <time>2020-06-07T13:44:56Z</time>
      </trkpt>
      <trkpt lat="47.79384" lon="-3.6245">
        <ele>46.5</ele>
        <time>2020-06-07T13:44:57Z</time>
      </trkpt>
      <trkpt lat="47.79387" lon="-3.62449">
        <ele>46.5</ele>
        <time>2020-06-07T13:44:58Z</time>
      </trkpt>
      <trkpt lat="47.79388" lon="-3.62449">
        <ele>46.5</ele>
        <time>2020-06-07T13:44:59Z</time>
      </trkpt>
      <trkpt lat="47.79391" lon="-3.62449">
        <ele>46.5</ele>
        <time>2020-06-07T13:45:00Z</time>
      </trkpt>
      <trkpt lat="47.79394" lon="-3.62449">
        <ele>46.4</ele>
        <time>2020-06-07T13:45:01Z</time>
      </trkpt>
      <trkpt lat="47.79395" lon="-3.62449">
        <ele>46.4</ele>
        <time>2020-06-07T13:45:02Z</time>
      </trkpt>
      <trkpt lat="47.79397" lon="-3.62448">
        <ele>46.4</ele>
        <time>2020-06-07T13:45:03Z</time>
      </trkpt>
      <trkpt lat="47.79399" lon="-3.62447">
        <ele>46.4</ele>
        <time>2020-06-07T13:45:04Z</time>
      </trkpt>
      <trkpt lat="47.794" lon="-3.62447">
        <ele>46.4</ele>
        <time>2020-06-07T13:45:05Z</time>
      </trkpt>
      <trkpt lat="47.79402" lon="-3.62447">
        <ele>46.4</ele>
        <time>2020-06-07T13:45:06Z</time>
      </trkpt>
      <trkpt lat="47.79405" lon="-3.62447">
        <ele>46.3</ele>
        <time>2020-06-07T13:45:07Z</time>
      </trkpt>
      <trkpt lat="47.79406" lon="-3.62447">
        <ele>46.3</ele>
        <time>2020-06-07T13:45:08Z</time>
      </trkpt>
      <trkpt lat="47.7941" lon="-3.62446">
        <ele>46.3</ele>
        <time>2020-06-07T13:45:09Z</time>
      </trkpt>
      <trkpt lat="47.79411" lon="-3.62446">
        <ele>46.3</ele>
        <time>2020-06-07T13:45:10Z</time>
      </trkpt>
      <trkpt lat="47.79414" lon="-3.62445">
        <ele>46.2</ele>
        <time>2020-06-07T13:45:11Z</time>
      </trkpt>
      <trkpt lat="47.79418" lon="-3.62445">
        <ele>46.2</ele>
        <time>2020-06-07T13:45:12Z</time>
      </trkpt>
      <trkpt lat="47.79419" lon="-3.62444">
        <ele>46.2</ele>
        <time>2020-06-07T13:45:13Z</time>
      </trkpt>
      <trkpt lat="47.79422" lon="-3.62444">
        <ele>46.2</ele>
        <time>2020-06-07T13:45:14Z</time>
      </trkpt>
      <trkpt lat="47.79426" lon="-3.62442">
        <ele>46.1</ele>
        <time>2020-06-07T13:45:15Z</time>
      </trkpt>
      <trkpt lat="47.79427" lon="-3.62441">
        <ele>46.1</ele>
        <time>2020-06-07T13:45:16Z</time>
      </trkpt>
      <trkpt lat="47.79431" lon="-3.6244">
        <ele>46.1</ele>
        <time>2020-06-07T13:45:17Z</time>
      </trkpt>
      <trkpt lat="47.79432" lon="-3.62439">
        <ele>46.1</ele>
        <time>2020-06-07T13:45:18Z</time>
      </trkpt>
      <trkpt lat="47.79436" lon="-3.62436">
        <ele>46</ele>
        <time>2020-06-07T13:45:19Z</time>
      </trkpt>
      <trkpt lat="47.79439" lon="-3.62435">
        <ele>46</ele>
        <time>2020-06-07T13:45:20Z</time>
      </trkpt>
      <trkpt lat="47.79443" lon="-3.62435">
        <ele>46</ele>
        <time>2020-06-07T13:45:21Z</time>
      </trkpt>
      <trkpt lat="47.79445" lon="-3.62435">
        <ele>45.9</ele>
        <time>2020-06-07T13:45:22Z</time>
      </trkpt>
      <trkpt lat="47.79448" lon="-3.62433">
        <ele>45.9</ele>
        <time>2020-06-07T13:45:23Z</time>
      </trkpt>
      <trkpt lat="47.7945" lon="-3.62433">
        <ele>45.9</ele>
        <time>2020-06-07T13:45:24Z</time>
      </trkpt>
      <trkpt lat="47.79454" lon="-3.62432">
        <ele>45.8</ele>
        <time>2020-06-07T13:45:25Z</time>
      </trkpt>
      <trkpt lat="47.79457" lon="-3.6243">
        <ele>45.8</ele>
        <time>2020-06-07T13:45:26Z</time>
      </trkpt>
      <trkpt lat="47.79458" lon="-3.62429">
        <ele>45.8</ele>
        <time>2020-06-07T13:45:27Z</time>
      </trkpt>
      <trkpt lat="47.79462" lon="-3.62427">
        <ele>45.7</ele>
        <time>2020-06-07T13:45:28Z</time>
      </trkpt>
      <trkpt lat="47.79465" lon="-3.62425">
        <ele>45.7</ele>
        <time>2020-06-07T13:45:29Z</time>
      </trkpt>
      <trkpt lat="47.79468" lon="-3.62424">
        <ele>45.7</ele>
        <time>2020-06-07T13:45:30Z</time>
      </trkpt>
      <trkpt lat="47.79471" lon="-3.62423">
        <ele>45.6</ele>
        <time>2020-06-07T13:45:31Z</time>
      </trkpt>
      <trkpt lat="47.79473" lon="-3.62422">
        <ele>45.6</ele>
        <time>2020-06-07T13:45:32Z</time>
      </trkpt>
      <trkpt lat="47.79477" lon="-3.62421">
        <ele>45.6</ele>
        <time>2020-06-07T13:45:33Z</time>
      </trkpt>
      <trkpt lat="47.79479" lon="-3.6242">
        <ele>45.6</ele>
        <time>2020-06-07T13:45:34Z</time>
      </trkpt>
      <trkpt lat="47.79482" lon="-3.62419">
        <ele>45.6</ele>
        <time>2020-06-07T13:45:35Z</time>
      </trkpt>
      <trkpt lat="47.79485" lon="-3.62417">
        <ele>45.6</ele>
        <time>2020-06-07T13:45:36Z</time>
      </trkpt>
      <trkpt lat="47.7949" lon="-3.62415">
        <ele>45.5</ele>
        <time>2020-06-07T13:45:37Z</time>
      </trkpt>
      <trkpt lat="47.79494" lon="-3.62414">
        <ele>45.5</ele>
        <time>2020-06-07T13:45:38Z</time>
      </trkpt>
      <trkpt lat="47.79497" lon="-3.62411">
        <ele>45.4</ele>
        <time>2020-06-07T13:45:39Z</time>
      </trkpt>
      <trkpt lat="47.79501" lon="-3.6241">
        <ele>45.4</ele>
        <time>2020-06-07T13:45:40Z</time>
      </trkpt>
      <trkpt lat="47.79503" lon="-3.62408">
        <ele>45.4</ele>
        <time>2020-06-07T13:45:41Z</time>
      </trkpt>
      <trkpt lat="47.79506" lon="-3.62406">
        <ele>45.3</ele>
        <time>2020-06-07T13:45:42Z</time>
      </trkpt>
      <trkpt lat="47.79507" lon="-3.62406">
        <ele>45.3</ele>
        <time>2020-06-07T13:45:43Z</time>
      </trkpt>
      <trkpt lat="47.7951" lon="-3.62404">
        <ele>45.3</ele>
        <time>2020-06-07T13:45:44Z</time>
      </trkpt>
      <trkpt lat="47.79514" lon="-3.62403">
        <ele>45.3</ele>
        <time>2020-06-07T13:45:45Z</time>
      </trkpt>
      <trkpt lat="47.79517" lon="-3.62401">
        <ele>45.3</ele>
        <time>2020-06-07T13:45:46Z</time>
      </trkpt>
      <trkpt lat="47.7952" lon="-3.62399">
        <ele>45.3</ele>
        <time>2020-06-07T13:45:47Z</time>
      </trkpt>
      <trkpt lat="47.79523" lon="-3.62397">
        <ele>45.3</ele>
        <time>2020-06-07T13:45:48Z</time>
      </trkpt>
      <trkpt lat="47.79527" lon="-3.62396">
        <ele>45.3</ele>
        <time>2020-06-07T13:45:49Z</time>
      </trkpt>
      <trkpt lat="47.7953" lon="-3.62394">
        <ele>45.3</ele>
        <time>2020-06-07T13:45:50Z</time>
      </trkpt>
      <trkpt lat="47.79533" lon="-3.62393">
        <ele>45.4</ele>
        <time>2020-06-07T13:45:51Z</time>
      </trkpt>
      <trkpt lat="47.79536" lon="-3.62392">
        <ele>45.4</ele>
        <time>2020-06-07T13:45:52Z</time>
      </trkpt>
      <trkpt lat="47.79539" lon="-3.62391">
        <ele>45.5</ele>
        <time>2020-06-07T13:45:53Z</time>
      </trkpt>
      <trkpt lat="47.79542" lon="-3.6239">
        <ele>45.5</ele>
        <time>2020-06-07T13:45:54Z</time>
      </trkpt>
      <trkpt lat="47.79546" lon="-3.62389">
        <ele>45.6</ele>
        <time>2020-06-07T13:45:55Z</time>
      </trkpt>
      <trkpt lat="47.79549" lon="-3.62387">
        <ele>45.6</ele>
        <time>2020-06-07T13:45:56Z</time>
      </trkpt>
      <trkpt lat="47.79552" lon="-3.62386">
        <ele>45.7</ele>
        <time>2020-06-07T13:45:57Z</time>
      </trkpt>
      <trkpt lat="47.79556" lon="-3.62385">
        <ele>45.8</ele>
        <time>2020-06-07T13:45:58Z</time>
      </trkpt>
      <trkpt lat="47.79559" lon="-3.62383">
        <ele>45.8</ele>
        <time>2020-06-07T13:45:59Z</time>
      </trkpt>
      <trkpt lat="47.79563" lon="-3.62382">
        <ele>45.9</ele>
        <time>2020-06-07T13:46:00Z</time>
      </trkpt>
      <trkpt lat="47.79566" lon="-3.62382">
        <ele>46</ele>
        <time>2020-06-07T13:46:01Z</time>
      </trkpt>
      <trkpt lat="47.7957" lon="-3.62381">
        <ele>46</ele>
        <time>2020-06-07T13:46:02Z</time>
      </trkpt>
      <trkpt lat="47.79573" lon="-3.62379">
        <ele>46.1</ele>
        <time>2020-06-07T13:46:03Z</time>
      </trkpt>
      <trkpt lat="47.79576" lon="-3.62377">
        <ele>46.1</ele>
        <time>2020-06-07T13:46:04Z</time>
      </trkpt>
      <trkpt lat="47.79579" lon="-3.62376">
        <ele>46.2</ele>
        <time>2020-06-07T13:46:05Z</time>
      </trkpt>
      <trkpt lat="47.79582" lon="-3.62374">
        <ele>46.2</ele>
        <time>2020-06-07T13:46:06Z</time>
      </trkpt>
      <trkpt lat="47.79585" lon="-3.62372">
        <ele>46.3</ele>
        <time>2020-06-07T13:46:07Z</time>
      </trkpt>
      <trkpt lat="47.79586" lon="-3.62371">
        <ele>46.3</ele>
        <time>2020-06-07T13:46:08Z</time>
      </trkpt>
      <trkpt lat="47.79589" lon="-3.62369">
        <ele>46.4</ele>
        <time>2020-06-07T13:46:09Z</time>
      </trkpt>
      <trkpt lat="47.79593" lon="-3.62368">
        <ele>46.5</ele>
        <time>2020-06-07T13:46:10Z</time>
      </trkpt>
      <trkpt lat="47.79596" lon="-3.62364">
        <ele>46.5</ele>
        <time>2020-06-07T13:46:11Z</time>
      </trkpt>
      <trkpt lat="47.79601" lon="-3.62363">
        <ele>46.6</ele>
        <time>2020-06-07T13:46:12Z</time>
      </trkpt>
      <trkpt lat="47.79603" lon="-3.62359">
        <ele>46.7</ele>
        <time>2020-06-07T13:46:13Z</time>
      </trkpt>
      <trkpt lat="47.79605" lon="-3.62357">
        <ele>46.7</ele>
        <time>2020-06-07T13:46:14Z</time>
      </trkpt>
      <trkpt lat="47.79607" lon="-3.62356">
        <ele>46.7</ele>
        <time>2020-06-07T13:46:15Z</time>
      </trkpt>
      <trkpt lat="47.7961" lon="-3.62355">
        <ele>46.8</ele>
        <time>2020-06-07T13:46:16Z</time>
      </trkpt>
      <trkpt lat="47.79612" lon="-3.62355">
        <ele>46.8</ele>
        <time>2020-06-07T13:46:17Z</time>
      </trkpt>
      <trkpt lat="47.79613" lon="-3.62355">
        <ele>46.8</ele>
        <time>2020-06-07T13:46:18Z</time>
      </trkpt>
      <trkpt lat="47.79617" lon="-3.62354">
        <ele>46.8</ele>
        <time>2020-06-07T13:46:19Z</time>
      </trkpt>
      <trkpt lat="47.79618" lon="-3.62353">
        <ele>46.9</ele>
        <time>2020-06-07T13:46:20Z</time>
      </trkpt>
      <trkpt lat="47.79621" lon="-3.62352">
        <ele>46.9</ele>
        <time>2020-06-07T13:46:21Z</time>
      </trkpt>
      <trkpt lat="47.79625" lon="-3.62351">
        <ele>46.9</ele>
        <time>2020-06-07T13:46:22Z</time>
      </trkpt>
      <trkpt lat="47.79628" lon="-3.62351">
        <ele>46.9</ele>
        <time>2020-06-07T13:46:23Z</time>
      </trkpt>
      <trkpt lat="47.79631" lon="-3.62349">
        <ele>46.9</ele>
        <time>2020-06-07T13:46:24Z</time>
      </trkpt>
      <trkpt lat="47.79634" lon="-3.62347">
        <ele>46.9</ele>
        <time>2020-06-07T13:46:25Z</time>
      </trkpt>
      <trkpt lat="47.79636" lon="-3.62346">
        <ele>46.8</ele>
        <time>2020-06-07T13:46:26Z</time>
      </trkpt>
      <trkpt lat="47.79639" lon="-3.62343">
        <ele>46.8</ele>
        <time>2020-06-07T13:46:27Z</time>
      </trkpt>
      <trkpt lat="47.7964" lon="-3.62343">
        <ele>46.8</ele>
        <time>2020-06-07T13:46:28Z</time>
      </trkpt>
      <trkpt lat="47.79641" lon="-3.62344">
        <ele>46.8</ele>
        <time>2020-06-07T13:46:29Z</time>
      </trkpt>
      <trkpt lat="47.79641" lon="-3.62345">
        <ele>46.8</ele>
        <time>2020-06-07T13:46:30Z</time>
      </trkpt>
      <trkpt lat="47.79642" lon="-3.62345">
        <ele>46.8</ele>
        <time>2020-06-07T13:46:31Z</time>
      </trkpt>
      <trkpt lat="47.79642" lon="-3.62345">
        <ele>46.8</ele>
        <time>2020-06-07T13:46:32Z</time>
      </trkpt>
      <trkpt lat="47.79643" lon="-3.62346">
        <ele>46.8</ele>
        <time>2020-06-07T13:46:33Z</time>
      </trkpt>
      <trkpt lat="47.79643" lon="-3.62346">
        <ele>46.8</ele>
        <time>2020-06-07T13:46:34Z</time>
      </trkpt>
      <trkpt lat="47.79644" lon="-3.62346">
        <ele>46.8</ele>
        <time>2020-06-07T13:46:35Z</time>
      </trkpt>
      <trkpt lat="47.79644" lon="-3.62347">
        <ele>46.7</ele>
        <time>2020-06-07T13:46:36Z</time>
      </trkpt>
      <trkpt lat="47.79644" lon="-3.62347">
        <ele>46.7</ele>
        <time>2020-06-07T13:46:37Z</time>
      </trkpt>
      <trkpt lat="47.79645" lon="-3.62347">
        <ele>46.7</ele>
        <time>2020-06-07T13:46:38Z</time>
      </trkpt>
      <trkpt lat="47.79645" lon="-3.62348">
        <ele>46.7</ele>
        <time>2020-06-07T13:46:39Z</time>
      </trkpt>
      <trkpt lat="47.79646" lon="-3.62348">
        <ele>46.7</ele>
        <time>2020-06-07T13:46:40Z</time>
      </trkpt>
      <trkpt lat="47.79646" lon="-3.62348">
        <ele>46.7</ele>
        <time>2020-06-07T13:46:52Z</time>
      </trkpt>
      <trkpt lat="47.79647" lon="-3.62349">
        <ele>46.7</ele>
        <time>2020-06-07T13:46:53Z</time>
      </trkpt>
      <trkpt lat="47.79651" lon="-3.62351">
        <ele>46.7</ele>
        <time>2020-06-07T13:46:54Z</time>
      </trkpt>
      <trkpt lat="47.79653" lon="-3.62351">
        <ele>46.6</ele>
        <time>2020-06-07T13:46:55Z</time>
      </trkpt>
      <trkpt lat="47.79656" lon="-3.62354">
        <ele>46.6</ele>
        <time>2020-06-07T13:46:56Z</time>
      </trkpt>
      <trkpt lat="47.79658" lon="-3.62355">
        <ele>46.5</ele>
        <time>2020-06-07T13:46:57Z</time>
      </trkpt>
      <trkpt lat="47.79661" lon="-3.62357">
        <ele>46.5</ele>
        <time>2020-06-07T13:46:58Z</time>
      </trkpt>
      <trkpt lat="47.79665" lon="-3.62359">
        <ele>46.5</ele>
        <time>2020-06-07T13:46:59Z</time>
      </trkpt>
      <trkpt lat="47.79668" lon="-3.62362">
        <ele>46.4</ele>
        <time>2020-06-07T13:47:00Z</time>
      </trkpt>
      <trkpt lat="47.79671" lon="-3.62363">
        <ele>46.4</ele>
        <time>2020-06-07T13:47:01Z</time>
      </trkpt>
      <trkpt lat="47.79675" lon="-3.62364">
        <ele>46.3</ele>
        <time>2020-06-07T13:47:02Z</time>
      </trkpt>
      <trkpt lat="47.79679" lon="-3.62366">
        <ele>46.3</ele>
        <time>2020-06-07T13:47:03Z</time>
      </trkpt>
      <trkpt lat="47.79682" lon="-3.62367">
        <ele>46.3</ele>
        <time>2020-06-07T13:47:04Z</time>
      </trkpt>
      <trkpt lat="47.79685" lon="-3.6237">
        <ele>46.2</ele>
        <time>2020-06-07T13:47:05Z</time>
      </trkpt>
      <trkpt lat="47.79687" lon="-3.62371">
        <ele>46.2</ele>
        <time>2020-06-07T13:47:06Z</time>
      </trkpt>
      <trkpt lat="47.79689" lon="-3.62373">
        <ele>46.1</ele>
        <time>2020-06-07T13:47:07Z</time>
      </trkpt>
      <trkpt lat="47.79692" lon="-3.62378">
        <ele>46.1</ele>
        <time>2020-06-07T13:47:08Z</time>
      </trkpt>
      <trkpt lat="47.79695" lon="-3.62381">
        <ele>46</ele>
        <time>2020-06-07T13:47:09Z</time>
      </trkpt>
      <trkpt lat="47.79697" lon="-3.62384">
        <ele>45.9</ele>
        <time>2020-06-07T13:47:10Z</time>
      </trkpt>
      <trkpt lat="47.79701" lon="-3.62386">
        <ele>45.8</ele>
        <time>2020-06-07T13:47:11Z</time>
      </trkpt>
      <trkpt lat="47.79704" lon="-3.62389">
        <ele>45.7</ele>
        <time>2020-06-07T13:47:12Z</time>
      </trkpt>
      <trkpt lat="47.79708" lon="-3.62391">
        <ele>45.6</ele>
        <time>2020-06-07T13:47:13Z</time>
      </trkpt>
      <trkpt lat="47.79711" lon="-3.62394">
        <ele>45.5</ele>
        <time>2020-06-07T13:47:14Z</time>
      </trkpt>
      <trkpt lat="47.79715" lon="-3.62396">
        <ele>45.4</ele>
        <time>2020-06-07T13:47:15Z</time>
      </trkpt>
      <trkpt lat="47.79719" lon="-3.624">
        <ele>45.3</ele>
        <time>2020-06-07T13:47:16Z</time>
      </trkpt>
      <trkpt lat="47.79723" lon="-3.62403">
        <ele>45.2</ele>
        <time>2020-06-07T13:47:17Z</time>
      </trkpt>
      <trkpt lat="47.79728" lon="-3.62406">
        <ele>45.1</ele>
        <time>2020-06-07T13:47:18Z</time>
      </trkpt>
      <trkpt lat="47.79731" lon="-3.62408">
        <ele>45</ele>
        <time>2020-06-07T13:47:19Z</time>
      </trkpt>
      <trkpt lat="47.79737" lon="-3.62411">
        <ele>44.8</ele>
        <time>2020-06-07T13:47:20Z</time>
      </trkpt>
      <trkpt lat="47.79741" lon="-3.62413">
        <ele>44.7</ele>
        <time>2020-06-07T13:47:21Z</time>
      </trkpt>
      <trkpt lat="47.79746" lon="-3.62418">
        <ele>44.5</ele>
        <time>2020-06-07T13:47:22Z</time>
      </trkpt>
      <trkpt lat="47.7975" lon="-3.62421">
        <ele>44.3</ele>
        <time>2020-06-07T13:47:23Z</time>
      </trkpt>
      <trkpt lat="47.79756" lon="-3.62424">
        <ele>44.1</ele>
        <time>2020-06-07T13:47:24Z</time>
      </trkpt>
      <trkpt lat="47.79761" lon="-3.62427">
        <ele>43.9</ele>
        <time>2020-06-07T13:47:25Z</time>
      </trkpt>
      <trkpt lat="47.79766" lon="-3.62431">
        <ele>43.7</ele>
        <time>2020-06-07T13:47:26Z</time>
      </trkpt>
      <trkpt lat="47.7977" lon="-3.62435">
        <ele>43.5</ele>
        <time>2020-06-07T13:47:27Z</time>
      </trkpt>
      <trkpt lat="47.79776" lon="-3.62439">
        <ele>43.3</ele>
        <time>2020-06-07T13:47:28Z</time>
      </trkpt>
      <trkpt lat="47.79781" lon="-3.62443">
        <ele>43.1</ele>
        <time>2020-06-07T13:47:29Z</time>
      </trkpt>
      <trkpt lat="47.79786" lon="-3.62446">
        <ele>43</ele>
        <time>2020-06-07T13:47:30Z</time>
      </trkpt>
      <trkpt lat="47.79791" lon="-3.6245">
        <ele>42.8</ele>
        <time>2020-06-07T13:47:31Z</time>
      </trkpt>
      <trkpt lat="47.79796" lon="-3.62455">
        <ele>42.7</ele>
        <time>2020-06-07T13:47:32Z</time>
      </trkpt>
      <trkpt lat="47.79802" lon="-3.62459">
        <ele>42.6</ele>
        <time>2020-06-07T13:47:33Z</time>
      </trkpt>
      <trkpt lat="47.79809" lon="-3.62463">
        <ele>42.5</ele>
        <time>2020-06-07T13:47:34Z</time>
      </trkpt>
      <trkpt lat="47.79816" lon="-3.62466">
        <ele>42.6</ele>
        <time>2020-06-07T13:47:35Z</time>
      </trkpt>
      <trkpt lat="47.79821" lon="-3.62467">
        <ele>42.6</ele>
        <time>2020-06-07T13:47:36Z</time>
      </trkpt>
      <trkpt lat="47.79826" lon="-3.62467">
        <ele>42.6</ele>
        <time>2020-06-07T13:47:37Z</time>
      </trkpt>
      <trkpt lat="47.79831" lon="-3.62468">
        <ele>42.6</ele>
        <time>2020-06-07T13:47:38Z</time>
      </trkpt>
      <trkpt lat="47.79836" lon="-3.62468">
        <ele>42.6</ele>
        <time>2020-06-07T13:47:39Z</time>
      </trkpt>
      <trkpt lat="47.7984" lon="-3.62468">
        <ele>42.7</ele>
        <time>2020-06-07T13:47:40Z</time>
      </trkpt>
      <trkpt lat="47.79843" lon="-3.62467">
        <ele>42.7</ele>
        <time>2020-06-07T13:47:41Z</time>
      </trkpt>
      <trkpt lat="47.79847" lon="-3.62466">
        <ele>42.7</ele>
        <time>2020-06-07T13:47:42Z</time>
      </trkpt>
      <trkpt lat="47.79851" lon="-3.62466">
        <ele>42.7</ele>
        <time>2020-06-07T13:47:43Z</time>
      </trkpt>
      <trkpt lat="47.79855" lon="-3.62466">
        <ele>42.7</ele>
        <time>2020-06-07T13:47:44Z</time>
      </trkpt>
      <trkpt lat="47.79861" lon="-3.62467">
        <ele>42.7</ele>
        <time>2020-06-07T13:47:45Z</time>
      </trkpt>
      <trkpt lat="47.79867" lon="-3.62467">
        <ele>42.7</ele>
        <time>2020-06-07T13:47:46Z</time>
      </trkpt>
      <trkpt lat="47.79871" lon="-3.62467">
        <ele>42.7</ele>
        <time>2020-06-07T13:47:47Z</time>
      </trkpt>
      <trkpt lat="47.79875" lon="-3.62468">
        <ele>42.7</ele>
        <time>2020-06-07T13:47:48Z</time>
      </trkpt>
      <trkpt lat="47.79881" lon="-3.62468">
        <ele>42.7</ele>
        <time>2020-06-07T13:47:49Z</time>
      </trkpt>
      <trkpt lat="47.79885" lon="-3.62468">
        <ele>42.7</ele>
        <time>2020-06-07T13:47:50Z</time>
      </trkpt>
      <trkpt lat="47.7989" lon="-3.62467">
        <ele>42.7</ele>
        <time>2020-06-07T13:47:51Z</time>
      </trkpt>
      <trkpt lat="47.79896" lon="-3.62468">
        <ele>42.8</ele>
        <time>2020-06-07T13:47:52Z</time>
      </trkpt>
      <trkpt lat="47.79901" lon="-3.62468">
        <ele>42.8</ele>
        <time>2020-06-07T13:47:53Z</time>
      </trkpt>
      <trkpt lat="47.79905" lon="-3.62469">
        <ele>42.9</ele>
        <time>2020-06-07T13:47:54Z</time>
      </trkpt>
      <trkpt lat="47.7991" lon="-3.62469">
        <ele>42.9</ele>
        <time>2020-06-07T13:47:55Z</time>
      </trkpt>
      <trkpt lat="47.79914" lon="-3.6247">
        <ele>42.9</ele>
        <time>2020-06-07T13:47:56Z</time>
      </trkpt>
      <trkpt lat="47.79919" lon="-3.62471">
        <ele>42.9</ele>
        <time>2020-06-07T13:47:57Z</time>
      </trkpt>
      <trkpt lat="47.79923" lon="-3.62471">
        <ele>43</ele>
        <time>2020-06-07T13:47:58Z</time>
      </trkpt>
      <trkpt lat="47.79928" lon="-3.6247">
        <ele>43</ele>
        <time>2020-06-07T13:47:59Z</time>
      </trkpt>
      <trkpt lat="47.79932" lon="-3.62471">
        <ele>43</ele>
        <time>2020-06-07T13:48:00Z</time>
      </trkpt>
      <trkpt lat="47.79937" lon="-3.62471">
        <ele>43</ele>
        <time>2020-06-07T13:48:01Z</time>
      </trkpt>
      <trkpt lat="47.79941" lon="-3.62471">
        <ele>43.1</ele>
        <time>2020-06-07T13:48:02Z</time>
      </trkpt>
      <trkpt lat="47.79945" lon="-3.62471">
        <ele>43.2</ele>
        <time>2020-06-07T13:48:03Z</time>
      </trkpt>
      <trkpt lat="47.7995" lon="-3.62471">
        <ele>43.3</ele>
        <time>2020-06-07T13:48:04Z</time>
      </trkpt>
      <trkpt lat="47.79953" lon="-3.62472">
        <ele>43.4</ele>
        <time>2020-06-07T13:48:05Z</time>
      </trkpt>
      <trkpt lat="47.79958" lon="-3.62473">
        <ele>43.5</ele>
        <time>2020-06-07T13:48:06Z</time>
      </trkpt>
      <trkpt lat="47.79962" lon="-3.62473">
        <ele>43.7</ele>
        <time>2020-06-07T13:48:07Z</time>
      </trkpt>
      <trkpt lat="47.79965" lon="-3.62473">
        <ele>43.8</ele>
        <time>2020-06-07T13:48:08Z</time>
      </trkpt>
      <trkpt lat="47.79969" lon="-3.62473">
        <ele>43.9</ele>
        <time>2020-06-07T13:48:09Z</time>
      </trkpt>
      <trkpt lat="47.79973" lon="-3.62474">
        <ele>44.1</ele>
        <time>2020-06-07T13:48:10Z</time>
      </trkpt>
      <trkpt lat="47.79977" lon="-3.62474">
        <ele>44.2</ele>
        <time>2020-06-07T13:48:11Z</time>
      </trkpt>
      <trkpt lat="47.79981" lon="-3.62474">
        <ele>44.4</ele>
        <time>2020-06-07T13:48:12Z</time>
      </trkpt>
      <trkpt lat="47.79984" lon="-3.62474">
        <ele>44.5</ele>
        <time>2020-06-07T13:48:13Z</time>
      </trkpt>
      <trkpt lat="47.79987" lon="-3.62475">
        <ele>44.6</ele>
        <time>2020-06-07T13:48:14Z</time>
      </trkpt>
      <trkpt lat="47.79991" lon="-3.62475">
        <ele>44.7</ele>
        <time>2020-06-07T13:48:15Z</time>
      </trkpt>
      <trkpt lat="47.79995" lon="-3.62476">
        <ele>44.9</ele>
        <time>2020-06-07T13:48:16Z</time>
      </trkpt>
      <trkpt lat="47.8" lon="-3.62476">
        <ele>45</ele>
        <time>2020-06-07T13:48:17Z</time>
      </trkpt>
      <trkpt lat="47.80004" lon="-3.62477">
        <ele>45.1</ele>
        <time>2020-06-07T13:48:18Z</time>
      </trkpt>
      <trkpt lat="47.80009" lon="-3.62477">
        <ele>45.3</ele>
        <time>2020-06-07T13:48:19Z</time>
      </trkpt>
      <trkpt lat="47.80011" lon="-3.62478">
        <ele>45.3</ele>
        <time>2020-06-07T13:48:20Z</time>
      </trkpt>
      <trkpt lat="47.80015" lon="-3.62478">
        <ele>45.4</ele>
        <time>2020-06-07T13:48:21Z</time>
      </trkpt>
      <trkpt lat="47.80018" lon="-3.62478">
        <ele>45.5</ele>
        <time>2020-06-07T13:48:22Z</time>
      </trkpt>
      <trkpt lat="47.80023" lon="-3.6248">
        <ele>45.6</ele>
        <time>2020-06-07T13:48:23Z</time>
      </trkpt>
      <trkpt lat="47.80027" lon="-3.62482">
        <ele>45.7</ele>
        <time>2020-06-07T13:48:24Z</time>
      </trkpt>
      <trkpt lat="47.8003" lon="-3.62483">
        <ele>45.7</ele>
        <time>2020-06-07T13:48:25Z</time>
      </trkpt>
      <trkpt lat="47.80034" lon="-3.62485">
        <ele>45.8</ele>
        <time>2020-06-07T13:48:26Z</time>
      </trkpt>
      <trkpt lat="47.80038" lon="-3.62486">
        <ele>45.9</ele>
        <time>2020-06-07T13:48:27Z</time>
      </trkpt>
      <trkpt lat="47.80042" lon="-3.62489">
        <ele>46.1</ele>
        <time>2020-06-07T13:48:28Z</time>
      </trkpt>
      <trkpt lat="47.80046" lon="-3.62491">
        <ele>46.2</ele>
        <time>2020-06-07T13:48:29Z</time>
      </trkpt>
      <trkpt lat="47.80049" lon="-3.62494">
        <ele>46.3</ele>
        <time>2020-06-07T13:48:30Z</time>
      </trkpt>
      <trkpt lat="47.80053" lon="-3.62496">
        <ele>46.4</ele>
        <time>2020-06-07T13:48:31Z</time>
      </trkpt>
      <trkpt lat="47.80057" lon="-3.62497">
        <ele>46.5</ele>
        <time>2020-06-07T13:48:32Z</time>
      </trkpt>
      <trkpt lat="47.80061" lon="-3.625">
        <ele>46.6</ele>
        <time>2020-06-07T13:48:33Z</time>
      </trkpt>
      <trkpt lat="47.80066" lon="-3.62502">
        <ele>46.8</ele>
        <time>2020-06-07T13:48:34Z</time>
      </trkpt>
      <trkpt lat="47.8007" lon="-3.62504">
        <ele>46.8</ele>
        <time>2020-06-07T13:48:35Z</time>
      </trkpt>
      <trkpt lat="47.80073" lon="-3.62506">
        <ele>46.9</ele>
        <time>2020-06-07T13:48:36Z</time>
      </trkpt>
      <trkpt lat="47.80076" lon="-3.62508">
        <ele>47</ele>
        <time>2020-06-07T13:48:37Z</time>
      </trkpt>
      <trkpt lat="47.80079" lon="-3.6251">
        <ele>47</ele>
        <time>2020-06-07T13:48:38Z</time>
      </trkpt>
      <trkpt lat="47.80082" lon="-3.62512">
        <ele>47.1</ele>
        <time>2020-06-07T13:48:39Z</time>
      </trkpt>
      <trkpt lat="47.80085" lon="-3.62514">
        <ele>47.1</ele>
        <time>2020-06-07T13:48:40Z</time>
      </trkpt>
      <trkpt lat="47.80088" lon="-3.62516">
        <ele>47.1</ele>
        <time>2020-06-07T13:48:41Z</time>
      </trkpt>
      <trkpt lat="47.80092" lon="-3.62519">
        <ele>47.2</ele>
        <time>2020-06-07T13:48:42Z</time>
      </trkpt>
      <trkpt lat="47.80096" lon="-3.62521">
        <ele>47.2</ele>
        <time>2020-06-07T13:48:43Z</time>
      </trkpt>
      <trkpt lat="47.801" lon="-3.62523">
        <ele>47.2</ele>
        <time>2020-06-07T13:48:44Z</time>
      </trkpt>
      <trkpt lat="47.80103" lon="-3.62525">
        <ele>47.2</ele>
        <time>2020-06-07T13:48:45Z</time>
      </trkpt>
      <trkpt lat="47.80106" lon="-3.62528">
        <ele>47.2</ele>
        <time>2020-06-07T13:48:46Z</time>
      </trkpt>
      <trkpt lat="47.80109" lon="-3.62529">
        <ele>47.1</ele>
        <time>2020-06-07T13:48:47Z</time>
      </trkpt>
      <trkpt lat="47.80113" lon="-3.62531">
        <ele>47.1</ele>
        <time>2020-06-07T13:48:48Z</time>
      </trkpt>
      <trkpt lat="47.80118" lon="-3.62533">
        <ele>47.1</ele>
        <time>2020-06-07T13:48:49Z</time>
      </trkpt>
      <trkpt lat="47.80122" lon="-3.62535">
        <ele>47.1</ele>
        <time>2020-06-07T13:48:50Z</time>
      </trkpt>
      <trkpt lat="47.80126" lon="-3.62538">
        <ele>47</ele>
        <time>2020-06-07T13:48:51Z</time>
      </trkpt>
      <trkpt lat="47.80131" lon="-3.6254">
        <ele>46.9</ele>
        <time>2020-06-07T13:48:52Z</time>
      </trkpt>
      <trkpt lat="47.80135" lon="-3.62544">
        <ele>46.9</ele>
        <time>2020-06-07T13:48:53Z</time>
      </trkpt>
      <trkpt lat="47.8014" lon="-3.62547">
        <ele>46.8</ele>
        <time>2020-06-07T13:48:54Z</time>
      </trkpt>
      <trkpt lat="47.80145" lon="-3.62549">
        <ele>46.7</ele>
        <time>2020-06-07T13:48:55Z</time>
      </trkpt>
      <trkpt lat="47.80151" lon="-3.62552">
        <ele>46.6</ele>
        <time>2020-06-07T13:48:56Z</time>
      </trkpt>
      <trkpt lat="47.80155" lon="-3.62554">
        <ele>46.5</ele>
        <time>2020-06-07T13:48:57Z</time>
      </trkpt>
      <trkpt lat="47.80161" lon="-3.62556">
        <ele>46.4</ele>
        <time>2020-06-07T13:48:58Z</time>
      </trkpt>
      <trkpt lat="47.80165" lon="-3.62559">
        <ele>46.4</ele>
        <time>2020-06-07T13:48:59Z</time>
      </trkpt>
      <trkpt lat="47.80169" lon="-3.62562">
        <ele>46.3</ele>
        <time>2020-06-07T13:49:00Z</time>
      </trkpt>
      <trkpt lat="47.80173" lon="-3.62565">
        <ele>46.3</ele>
        <time>2020-06-07T13:49:01Z</time>
      </trkpt>
      <trkpt lat="47.80177" lon="-3.62567">
        <ele>46.3</ele>
        <time>2020-06-07T13:49:02Z</time>
      </trkpt>
      <trkpt lat="47.8018" lon="-3.62569">
        <ele>46.3</ele>
        <time>2020-06-07T13:49:03Z</time>
      </trkpt>
      <trkpt lat="47.80184" lon="-3.62573">
        <ele>46.3</ele>
        <time>2020-06-07T13:49:04Z</time>
      </trkpt>
      <trkpt lat="47.80188" lon="-3.62576">
        <ele>46.3</ele>
        <time>2020-06-07T13:49:05Z</time>
      </trkpt>
      <trkpt lat="47.80193" lon="-3.6258">
        <ele>46.4</ele>
        <time>2020-06-07T13:49:06Z</time>
      </trkpt>
      <trkpt lat="47.80198" lon="-3.62584">
        <ele>46.5</ele>
        <time>2020-06-07T13:49:07Z</time>
      </trkpt>
      <trkpt lat="47.80203" lon="-3.62588">
        <ele>46.5</ele>
        <time>2020-06-07T13:49:08Z</time>
      </trkpt>
      <trkpt lat="47.80208" lon="-3.6259">
        <ele>46.6</ele>
        <time>2020-06-07T13:49:09Z</time>
      </trkpt>
      <trkpt lat="47.80213" lon="-3.62593">
        <ele>46.7</ele>
        <time>2020-06-07T13:49:10Z</time>
      </trkpt>
      <trkpt lat="47.80218" lon="-3.62595">
        <ele>46.8</ele>
        <time>2020-06-07T13:49:11Z</time>
      </trkpt>
      <trkpt lat="47.80223" lon="-3.62597">
        <ele>46.8</ele>
        <time>2020-06-07T13:49:12Z</time>
      </trkpt>
      <trkpt lat="47.80227" lon="-3.62601">
        <ele>47</ele>
        <time>2020-06-07T13:49:13Z</time>
      </trkpt>
      <trkpt lat="47.80232" lon="-3.62605">
        <ele>47.1</ele>
        <time>2020-06-07T13:49:14Z</time>
      </trkpt>
      <trkpt lat="47.80236" lon="-3.62608">
        <ele>47.2</ele>
        <time>2020-06-07T13:49:15Z</time>
      </trkpt>
      <trkpt lat="47.80239" lon="-3.6261">
        <ele>47.3</ele>
        <time>2020-06-07T13:49:16Z</time>
      </trkpt>
      <trkpt lat="47.80243" lon="-3.62612">
        <ele>47.5</ele>
        <time>2020-06-07T13:49:17Z</time>
      </trkpt>
      <trkpt lat="47.80246" lon="-3.62614">
        <ele>47.6</ele>
        <time>2020-06-07T13:49:18Z</time>
      </trkpt>
      <trkpt lat="47.8025" lon="-3.62617">
        <ele>47.7</ele>
        <time>2020-06-07T13:49:19Z</time>
      </trkpt>
      <trkpt lat="47.80253" lon="-3.62621">
        <ele>47.9</ele>
        <time>2020-06-07T13:49:20Z</time>
      </trkpt>
      <trkpt lat="47.80257" lon="-3.62625">
        <ele>48</ele>
        <time>2020-06-07T13:49:21Z</time>
      </trkpt>
      <trkpt lat="47.8026" lon="-3.62627">
        <ele>48.1</ele>
        <time>2020-06-07T13:49:22Z</time>
      </trkpt>
      <trkpt lat="47.80263" lon="-3.62629">
        <ele>48.3</ele>
        <time>2020-06-07T13:49:23Z</time>
      </trkpt>
      <trkpt lat="47.80266" lon="-3.62632">
        <ele>48.4</ele>
        <time>2020-06-07T13:49:24Z</time>
      </trkpt>
      <trkpt lat="47.80271" lon="-3.62635">
        <ele>48.6</ele>
        <time>2020-06-07T13:49:25Z</time>
      </trkpt>
      <trkpt lat="47.80275" lon="-3.62638">
        <ele>48.7</ele>
        <time>2020-06-07T13:49:26Z</time>
      </trkpt>
      <trkpt lat="47.80279" lon="-3.6264">
        <ele>48.9</ele>
        <time>2020-06-07T13:49:27Z</time>
      </trkpt>
      <trkpt lat="47.80284" lon="-3.62643">
        <ele>49.1</ele>
        <time>2020-06-07T13:49:28Z</time>
      </trkpt>
      <trkpt lat="47.80287" lon="-3.62645">
        <ele>49.3</ele>
        <time>2020-06-07T13:49:29Z</time>
      </trkpt>
      <trkpt lat="47.80291" lon="-3.62647">
        <ele>49.4</ele>
        <time>2020-06-07T13:49:30Z</time>
      </trkpt>
      <trkpt lat="47.80294" lon="-3.62648">
        <ele>49.6</ele>
        <time>2020-06-07T13:49:31Z</time>
      </trkpt>
      <trkpt lat="47.80298" lon="-3.62651">
        <ele>49.8</ele>
        <time>2020-06-07T13:49:32Z</time>
      </trkpt>
      <trkpt lat="47.80301" lon="-3.62652">
        <ele>50</ele>
        <time>2020-06-07T13:49:33Z</time>
      </trkpt>
      <trkpt lat="47.80305" lon="-3.62654">
        <ele>50.1</ele>
        <time>2020-06-07T13:49:34Z</time>
      </trkpt>
      <trkpt lat="47.80308" lon="-3.62657">
        <ele>50.3</ele>
        <time>2020-06-07T13:49:35Z</time>
      </trkpt>
      <trkpt lat="47.80312" lon="-3.62657">
        <ele>50.4</ele>
        <time>2020-06-07T13:49:36Z</time>
      </trkpt>
      <trkpt lat="47.80315" lon="-3.62659">
        <ele>50.6</ele>
        <time>2020-06-07T13:49:37Z</time>
      </trkpt>
      <trkpt lat="47.80318" lon="-3.62661">
        <ele>50.7</ele>
        <time>2020-06-07T13:49:38Z</time>
      </trkpt>
      <trkpt lat="47.80321" lon="-3.62663">
        <ele>50.8</ele>
        <time>2020-06-07T13:49:39Z</time>
      </trkpt>
      <trkpt lat="47.80325" lon="-3.62664">
        <ele>51</ele>
        <time>2020-06-07T13:49:40Z</time>
      </trkpt>
      <trkpt lat="47.80328" lon="-3.62666">
        <ele>51.1</ele>
        <time>2020-06-07T13:49:41Z</time>
      </trkpt>
      <trkpt lat="47.80332" lon="-3.62668">
        <ele>51.2</ele>
        <time>2020-06-07T13:49:42Z</time>
      </trkpt>
      <trkpt lat="47.80337" lon="-3.6267">
        <ele>51.4</ele>
        <time>2020-06-07T13:49:43Z</time>
      </trkpt>
      <trkpt lat="47.8034" lon="-3.62673">
        <ele>51.5</ele>
        <time>2020-06-07T13:49:44Z</time>
      </trkpt>
      <trkpt lat="47.80344" lon="-3.62674">
        <ele>51.6</ele>
        <time>2020-06-07T13:49:45Z</time>
      </trkpt>
      <trkpt lat="47.80346" lon="-3.62675">
        <ele>51.7</ele>
        <time>2020-06-07T13:49:46Z</time>
      </trkpt>
      <trkpt lat="47.80349" lon="-3.62677">
        <ele>51.8</ele>
        <time>2020-06-07T13:49:47Z</time>
      </trkpt>
      <trkpt lat="47.80353" lon="-3.62679">
        <ele>51.9</ele>
        <time>2020-06-07T13:49:48Z</time>
      </trkpt>
      <trkpt lat="47.80356" lon="-3.62682">
        <ele>52</ele>
        <time>2020-06-07T13:49:49Z</time>
      </trkpt>
      <trkpt lat="47.80361" lon="-3.62685">
        <ele>52.1</ele>
        <time>2020-06-07T13:49:50Z</time>
      </trkpt>
      <trkpt lat="47.80366" lon="-3.62691">
        <ele>52.2</ele>
        <time>2020-06-07T13:49:51Z</time>
      </trkpt>
      <trkpt lat="47.8037" lon="-3.62694">
        <ele>52.3</ele>
        <time>2020-06-07T13:49:52Z</time>
      </trkpt>
      <trkpt lat="47.80375" lon="-3.62696">
        <ele>52.5</ele>
        <time>2020-06-07T13:49:53Z</time>
      </trkpt>
      <trkpt lat="47.8038" lon="-3.62698">
        <ele>52.6</ele>
        <time>2020-06-07T13:49:54Z</time>
      </trkpt>
      <trkpt lat="47.80384" lon="-3.62699">
        <ele>52.7</ele>
        <time>2020-06-07T13:49:55Z</time>
      </trkpt>
      <trkpt lat="47.80388" lon="-3.62702">
        <ele>52.8</ele>
        <time>2020-06-07T13:49:56Z</time>
      </trkpt>
      <trkpt lat="47.80391" lon="-3.62704">
        <ele>52.8</ele>
        <time>2020-06-07T13:49:57Z</time>
      </trkpt>
      <trkpt lat="47.80395" lon="-3.62706">
        <ele>52.9</ele>
        <time>2020-06-07T13:49:58Z</time>
      </trkpt>
      <trkpt lat="47.80399" lon="-3.62708">
        <ele>53</ele>
        <time>2020-06-07T13:49:59Z</time>
      </trkpt>
      <trkpt lat="47.80403" lon="-3.62709">
        <ele>53.1</ele>
        <time>2020-06-07T13:50:00Z</time>
      </trkpt>
      <trkpt lat="47.80406" lon="-3.62711">
        <ele>53.2</ele>
        <time>2020-06-07T13:50:01Z</time>
      </trkpt>
      <trkpt lat="47.8041" lon="-3.62714">
        <ele>53.2</ele>
        <time>2020-06-07T13:50:02Z</time>
      </trkpt>
      <trkpt lat="47.80413" lon="-3.62715">
        <ele>53.3</ele>
        <time>2020-06-07T13:50:03Z</time>
      </trkpt>
      <trkpt lat="47.80416" lon="-3.62718">
        <ele>53.4</ele>
        <time>2020-06-07T13:50:04Z</time>
      </trkpt>
      <trkpt lat="47.8042" lon="-3.62721">
        <ele>53.5</ele>
        <time>2020-06-07T13:50:05Z</time>
      </trkpt>
      <trkpt lat="47.80424" lon="-3.62723">
        <ele>53.5</ele>
        <time>2020-06-07T13:50:06Z</time>
      </trkpt>
      <trkpt lat="47.80427" lon="-3.62725">
        <ele>53.6</ele>
        <time>2020-06-07T13:50:07Z</time>
      </trkpt>
      <trkpt lat="47.8043" lon="-3.62726">
        <ele>53.7</ele>
        <time>2020-06-07T13:50:08Z</time>
      </trkpt>
      <trkpt lat="47.80435" lon="-3.62728">
        <ele>53.7</ele>
        <time>2020-06-07T13:50:09Z</time>
      </trkpt>
      <trkpt lat="47.80438" lon="-3.62729">
        <ele>53.8</ele>
        <time>2020-06-07T13:50:10Z</time>
      </trkpt>
      <trkpt lat="47.80443" lon="-3.62731">
        <ele>53.9</ele>
        <time>2020-06-07T13:50:11Z</time>
      </trkpt>
      <trkpt lat="47.80447" lon="-3.62733">
        <ele>54</ele>
        <time>2020-06-07T13:50:12Z</time>
      </trkpt>
      <trkpt lat="47.80452" lon="-3.62735">
        <ele>54.1</ele>
        <time>2020-06-07T13:50:13Z</time>
      </trkpt>
      <trkpt lat="47.80456" lon="-3.62738">
        <ele>54.2</ele>
        <time>2020-06-07T13:50:14Z</time>
      </trkpt>
      <trkpt lat="47.8046" lon="-3.62741">
        <ele>54.3</ele>
        <time>2020-06-07T13:50:15Z</time>
      </trkpt>
      <trkpt lat="47.80464" lon="-3.62743">
        <ele>54.3</ele>
        <time>2020-06-07T13:50:16Z</time>
      </trkpt>
      <trkpt lat="47.80468" lon="-3.62745">
        <ele>54.4</ele>
        <time>2020-06-07T13:50:17Z</time>
      </trkpt>
      <trkpt lat="47.80472" lon="-3.62746">
        <ele>54.4</ele>
        <time>2020-06-07T13:50:18Z</time>
      </trkpt>
      <trkpt lat="47.80476" lon="-3.62747">
        <ele>54.5</ele>
        <time>2020-06-07T13:50:19Z</time>
      </trkpt>
      <trkpt lat="47.8048" lon="-3.62749">
        <ele>54.5</ele>
        <time>2020-06-07T13:50:20Z</time>
      </trkpt>
      <trkpt lat="47.80484" lon="-3.6275">
        <ele>54.6</ele>
        <time>2020-06-07T13:50:21Z</time>
      </trkpt>
      <trkpt lat="47.80487" lon="-3.62751">
        <ele>54.6</ele>
        <time>2020-06-07T13:50:22Z</time>
      </trkpt>
      <trkpt lat="47.80491" lon="-3.62754">
        <ele>54.7</ele>
        <time>2020-06-07T13:50:23Z</time>
      </trkpt>
      <trkpt lat="47.80495" lon="-3.62755">
        <ele>54.8</ele>
        <time>2020-06-07T13:50:24Z</time>
      </trkpt>
      <trkpt lat="47.80499" lon="-3.62755">
        <ele>54.8</ele>
        <time>2020-06-07T13:50:25Z</time>
      </trkpt>
      <trkpt lat="47.80502" lon="-3.62756">
        <ele>54.9</ele>
        <time>2020-06-07T13:50:26Z</time>
      </trkpt>
      <trkpt lat="47.80506" lon="-3.62759">
        <ele>55</ele>
        <time>2020-06-07T13:50:27Z</time>
      </trkpt>
      <trkpt lat="47.80511" lon="-3.62762">
        <ele>55.1</ele>
        <time>2020-06-07T13:50:28Z</time>
      </trkpt>
      <trkpt lat="47.80514" lon="-3.62764">
        <ele>55.1</ele>
        <time>2020-06-07T13:50:29Z</time>
      </trkpt>
      <trkpt lat="47.80518" lon="-3.62766">
        <ele>55.2</ele>
        <time>2020-06-07T13:50:30Z</time>
      </trkpt>
      <trkpt lat="47.80523" lon="-3.62768">
        <ele>55.3</ele>
        <time>2020-06-07T13:50:31Z</time>
      </trkpt>
      <trkpt lat="47.80527" lon="-3.62769">
        <ele>55.4</ele>
        <time>2020-06-07T13:50:32Z</time>
      </trkpt>
      <trkpt lat="47.80531" lon="-3.62767">
        <ele>55.4</ele>
        <time>2020-06-07T13:50:33Z</time>
      </trkpt>
      <trkpt lat="47.80534" lon="-3.62763">
        <ele>55.5</ele>
        <time>2020-06-07T13:50:34Z</time>
      </trkpt>
      <trkpt lat="47.80538" lon="-3.62758">
        <ele>55.6</ele>
        <time>2020-06-07T13:50:35Z</time>
      </trkpt>
      <trkpt lat="47.80541" lon="-3.62755">
        <ele>55.6</ele>
        <time>2020-06-07T13:50:36Z</time>
      </trkpt>
      <trkpt lat="47.80545" lon="-3.62753">
        <ele>55.6</ele>
        <time>2020-06-07T13:50:37Z</time>
      </trkpt>
      <trkpt lat="47.80549" lon="-3.62753">
        <ele>55.6</ele>
        <time>2020-06-07T13:50:38Z</time>
      </trkpt>
      <trkpt lat="47.80553" lon="-3.62757">
        <ele>55.6</ele>
        <time>2020-06-07T13:50:39Z</time>
      </trkpt>
      <trkpt lat="47.80554" lon="-3.62762">
        <ele>55.5</ele>
        <time>2020-06-07T13:50:40Z</time>
      </trkpt>
      <trkpt lat="47.80554" lon="-3.62767">
        <ele>55.5</ele>
        <time>2020-06-07T13:50:41Z</time>
      </trkpt>
      <trkpt lat="47.80553" lon="-3.62773">
        <ele>55.5</ele>
        <time>2020-06-07T13:50:42Z</time>
      </trkpt>
      <trkpt lat="47.80552" lon="-3.62775">
        <ele>55.5</ele>
        <time>2020-06-07T13:50:43Z</time>
      </trkpt>
      <trkpt lat="47.80551" lon="-3.62781">
        <ele>55.5</ele>
        <time>2020-06-07T13:50:44Z</time>
      </trkpt>
      <trkpt lat="47.8055" lon="-3.62786">
        <ele>55.5</ele>
        <time>2020-06-07T13:50:45Z</time>
      </trkpt>
      <trkpt lat="47.80548" lon="-3.62791">
        <ele>55.5</ele>
        <time>2020-06-07T13:50:46Z</time>
      </trkpt>
      <trkpt lat="47.80548" lon="-3.62799">
        <ele>55.4</ele>
        <time>2020-06-07T13:50:47Z</time>
      </trkpt>
      <trkpt lat="47.80549" lon="-3.62803">
        <ele>55.4</ele>
        <time>2020-06-07T13:50:48Z</time>
      </trkpt>
      <trkpt lat="47.80551" lon="-3.62807">
        <ele>55.4</ele>
        <time>2020-06-07T13:50:49Z</time>
      </trkpt>
      <trkpt lat="47.80554" lon="-3.62813">
        <ele>55.4</ele>
        <time>2020-06-07T13:50:50Z</time>
      </trkpt>
      <trkpt lat="47.80556" lon="-3.62816">
        <ele>55.4</ele>
        <time>2020-06-07T13:50:51Z</time>
      </trkpt>
      <trkpt lat="47.80558" lon="-3.62823">
        <ele>55.3</ele>
        <time>2020-06-07T13:50:52Z</time>
      </trkpt>
      <trkpt lat="47.80559" lon="-3.62828">
        <ele>55.3</ele>
        <time>2020-06-07T13:50:53Z</time>
      </trkpt>
      <trkpt lat="47.80561" lon="-3.62833">
        <ele>55.3</ele>
        <time>2020-06-07T13:50:54Z</time>
      </trkpt>
      <trkpt lat="47.80564" lon="-3.62838">
        <ele>55.3</ele>
        <time>2020-06-07T13:50:55Z</time>
      </trkpt>
      <trkpt lat="47.80566" lon="-3.62843">
        <ele>55.4</ele>
        <time>2020-06-07T13:50:56Z</time>
      </trkpt>
      <trkpt lat="47.80569" lon="-3.62849">
        <ele>55.4</ele>
        <time>2020-06-07T13:50:57Z</time>
      </trkpt>
      <trkpt lat="47.80572" lon="-3.62856">
        <ele>55.4</ele>
        <time>2020-06-07T13:50:58Z</time>
      </trkpt>
      <trkpt lat="47.80574" lon="-3.62861">
        <ele>55.4</ele>
        <time>2020-06-07T13:50:59Z</time>
      </trkpt>
      <trkpt lat="47.80576" lon="-3.62868">
        <ele>55.5</ele>
        <time>2020-06-07T13:51:00Z</time>
      </trkpt>
      <trkpt lat="47.80579" lon="-3.62874">
        <ele>55.5</ele>
        <time>2020-06-07T13:51:01Z</time>
      </trkpt>
      <trkpt lat="47.80581" lon="-3.62881">
        <ele>55.5</ele>
        <time>2020-06-07T13:51:02Z</time>
      </trkpt>
      <trkpt lat="47.80583" lon="-3.62886">
        <ele>55.6</ele>
        <time>2020-06-07T13:51:03Z</time>
      </trkpt>
      <trkpt lat="47.80585" lon="-3.62892">
        <ele>55.6</ele>
        <time>2020-06-07T13:51:04Z</time>
      </trkpt>
      <trkpt lat="47.80587" lon="-3.62897">
        <ele>55.6</ele>
        <time>2020-06-07T13:51:05Z</time>
      </trkpt>
      <trkpt lat="47.80588" lon="-3.62901">
        <ele>55.6</ele>
        <time>2020-06-07T13:51:06Z</time>
      </trkpt>
      <trkpt lat="47.8059" lon="-3.62908">
        <ele>55.6</ele>
        <time>2020-06-07T13:51:07Z</time>
      </trkpt>
      <trkpt lat="47.80591" lon="-3.62915">
        <ele>55.6</ele>
        <time>2020-06-07T13:51:08Z</time>
      </trkpt>
      <trkpt lat="47.80593" lon="-3.62922">
        <ele>55.7</ele>
        <time>2020-06-07T13:51:09Z</time>
      </trkpt>
      <trkpt lat="47.80595" lon="-3.62928">
        <ele>55.7</ele>
        <time>2020-06-07T13:51:10Z</time>
      </trkpt>
      <trkpt lat="47.80597" lon="-3.62934">
        <ele>55.7</ele>
        <time>2020-06-07T13:51:11Z</time>
      </trkpt>
      <trkpt lat="47.80599" lon="-3.6294">
        <ele>55.7</ele>
        <time>2020-06-07T13:51:12Z</time>
      </trkpt>
      <trkpt lat="47.80601" lon="-3.62948">
        <ele>55.7</ele>
        <time>2020-06-07T13:51:13Z</time>
      </trkpt>
      <trkpt lat="47.80604" lon="-3.62951">
        <ele>55.7</ele>
        <time>2020-06-07T13:51:14Z</time>
      </trkpt>
      <trkpt lat="47.80607" lon="-3.6296">
        <ele>55.7</ele>
        <time>2020-06-07T13:51:15Z</time>
      </trkpt>
      <trkpt lat="47.8061" lon="-3.62968">
        <ele>55.7</ele>
        <time>2020-06-07T13:51:16Z</time>
      </trkpt>
      <trkpt lat="47.80613" lon="-3.62976">
        <ele>55.7</ele>
        <time>2020-06-07T13:51:17Z</time>
      </trkpt>
      <trkpt lat="47.80616" lon="-3.62982">
        <ele>55.7</ele>
        <time>2020-06-07T13:51:18Z</time>
      </trkpt>
      <trkpt lat="47.80617" lon="-3.62987">
        <ele>55.7</ele>
        <time>2020-06-07T13:51:19Z</time>
      </trkpt>
      <trkpt lat="47.80618" lon="-3.62995">
        <ele>55.7</ele>
        <time>2020-06-07T13:51:20Z</time>
      </trkpt>
      <trkpt lat="47.8062" lon="-3.63002">
        <ele>55.7</ele>
        <time>2020-06-07T13:51:21Z</time>
      </trkpt>
      <trkpt lat="47.80622" lon="-3.63009">
        <ele>55.7</ele>
        <time>2020-06-07T13:51:22Z</time>
      </trkpt>
      <trkpt lat="47.80625" lon="-3.63016">
        <ele>55.7</ele>
        <time>2020-06-07T13:51:23Z</time>
      </trkpt>
      <trkpt lat="47.80627" lon="-3.63022">
        <ele>55.7</ele>
        <time>2020-06-07T13:51:24Z</time>
      </trkpt>
      <trkpt lat="47.80629" lon="-3.63028">
        <ele>55.7</ele>
        <time>2020-06-07T13:51:25Z</time>
      </trkpt>
      <trkpt lat="47.80631" lon="-3.63034">
        <ele>55.7</ele>
        <time>2020-06-07T13:51:26Z</time>
      </trkpt>
      <trkpt lat="47.80633" lon="-3.63041">
        <ele>55.7</ele>
        <time>2020-06-07T13:51:27Z</time>
      </trkpt>
      <trkpt lat="47.80636" lon="-3.63047">
        <ele>55.7</ele>
        <time>2020-06-07T13:51:28Z</time>
      </trkpt>
      <trkpt lat="47.80639" lon="-3.63054">
        <ele>55.7</ele>
        <time>2020-06-07T13:51:29Z</time>
      </trkpt>
      <trkpt lat="47.80641" lon="-3.6306">
        <ele>55.7</ele>
        <time>2020-06-07T13:51:30Z</time>
      </trkpt>
      <trkpt lat="47.80643" lon="-3.63066">
        <ele>55.7</ele>
        <time>2020-06-07T13:51:31Z</time>
      </trkpt>
      <trkpt lat="47.80646" lon="-3.63076">
        <ele>55.7</ele>
        <time>2020-06-07T13:51:32Z</time>
      </trkpt>
      <trkpt lat="47.80648" lon="-3.63083">
        <ele>55.7</ele>
        <time>2020-06-07T13:51:33Z</time>
      </trkpt>
      <trkpt lat="47.8065" lon="-3.6309">
        <ele>55.7</ele>
        <time>2020-06-07T13:51:34Z</time>
      </trkpt>
      <trkpt lat="47.80653" lon="-3.63096">
        <ele>55.7</ele>
        <time>2020-06-07T13:51:35Z</time>
      </trkpt>
      <trkpt lat="47.80654" lon="-3.63101">
        <ele>55.7</ele>
        <time>2020-06-07T13:51:36Z</time>
      </trkpt>
      <trkpt lat="47.80655" lon="-3.63108">
        <ele>55.7</ele>
        <time>2020-06-07T13:51:37Z</time>
      </trkpt>
      <trkpt lat="47.80657" lon="-3.63114">
        <ele>55.7</ele>
        <time>2020-06-07T13:51:38Z</time>
      </trkpt>
      <trkpt lat="47.80659" lon="-3.6312">
        <ele>55.8</ele>
        <time>2020-06-07T13:51:39Z</time>
      </trkpt>
      <trkpt lat="47.80661" lon="-3.63125">
        <ele>55.8</ele>
        <time>2020-06-07T13:51:40Z</time>
      </trkpt>
      <trkpt lat="47.80663" lon="-3.63129">
        <ele>55.8</ele>
        <time>2020-06-07T13:51:41Z</time>
      </trkpt>
      <trkpt lat="47.80665" lon="-3.63135">
        <ele>55.8</ele>
        <time>2020-06-07T13:51:42Z</time>
      </trkpt>
      <trkpt lat="47.80667" lon="-3.63141">
        <ele>55.8</ele>
        <time>2020-06-07T13:51:43Z</time>
      </trkpt>
      <trkpt lat="47.80668" lon="-3.63148">
        <ele>55.8</ele>
        <time>2020-06-07T13:51:44Z</time>
      </trkpt>
      <trkpt lat="47.80672" lon="-3.63157">
        <ele>55.8</ele>
        <time>2020-06-07T13:51:45Z</time>
      </trkpt>
      <trkpt lat="47.80675" lon="-3.63164">
        <ele>55.8</ele>
        <time>2020-06-07T13:51:46Z</time>
      </trkpt>
      <trkpt lat="47.80677" lon="-3.63172">
        <ele>55.9</ele>
        <time>2020-06-07T13:51:47Z</time>
      </trkpt>
      <trkpt lat="47.80679" lon="-3.63178">
        <ele>55.9</ele>
        <time>2020-06-07T13:51:48Z</time>
      </trkpt>
      <trkpt lat="47.8068" lon="-3.63183">
        <ele>56</ele>
        <time>2020-06-07T13:51:49Z</time>
      </trkpt>
      <trkpt lat="47.80682" lon="-3.63189">
        <ele>56</ele>
        <time>2020-06-07T13:51:50Z</time>
      </trkpt>
      <trkpt lat="47.80684" lon="-3.63195">
        <ele>56.1</ele>
        <time>2020-06-07T13:51:51Z</time>
      </trkpt>
      <trkpt lat="47.80685" lon="-3.63201">
        <ele>56.1</ele>
        <time>2020-06-07T13:51:52Z</time>
      </trkpt>
      <trkpt lat="47.80687" lon="-3.63208">
        <ele>56.1</ele>
        <time>2020-06-07T13:51:53Z</time>
      </trkpt>
      <trkpt lat="47.80689" lon="-3.63216">
        <ele>56.1</ele>
        <time>2020-06-07T13:51:54Z</time>
      </trkpt>
      <trkpt lat="47.80691" lon="-3.63222">
        <ele>56.1</ele>
        <time>2020-06-07T13:51:55Z</time>
      </trkpt>
      <trkpt lat="47.80693" lon="-3.63229">
        <ele>56.1</ele>
        <time>2020-06-07T13:51:56Z</time>
      </trkpt>
      <trkpt lat="47.80694" lon="-3.63236">
        <ele>56.1</ele>
        <time>2020-06-07T13:51:57Z</time>
      </trkpt>
      <trkpt lat="47.80695" lon="-3.63242">
        <ele>56.1</ele>
        <time>2020-06-07T13:51:58Z</time>
      </trkpt>
      <trkpt lat="47.80696" lon="-3.63249">
        <ele>56</ele>
        <time>2020-06-07T13:51:59Z</time>
      </trkpt>
      <trkpt lat="47.80697" lon="-3.63255">
        <ele>56</ele>
        <time>2020-06-07T13:52:00Z</time>
      </trkpt>
      <trkpt lat="47.80699" lon="-3.63261">
        <ele>55.9</ele>
        <time>2020-06-07T13:52:01Z</time>
      </trkpt>
      <trkpt lat="47.80701" lon="-3.63269">
        <ele>55.8</ele>
        <time>2020-06-07T13:52:02Z</time>
      </trkpt>
      <trkpt lat="47.80703" lon="-3.63279">
        <ele>55.6</ele>
        <time>2020-06-07T13:52:03Z</time>
      </trkpt>
      <trkpt lat="47.80705" lon="-3.63287">
        <ele>55.5</ele>
        <time>2020-06-07T13:52:04Z</time>
      </trkpt>
      <trkpt lat="47.80707" lon="-3.63297">
        <ele>55.3</ele>
        <time>2020-06-07T13:52:05Z</time>
      </trkpt>
      <trkpt lat="47.80709" lon="-3.63306">
        <ele>55.1</ele>
        <time>2020-06-07T13:52:06Z</time>
      </trkpt>
      <trkpt lat="47.80712" lon="-3.63316">
        <ele>54.8</ele>
        <time>2020-06-07T13:52:07Z</time>
      </trkpt>
      <trkpt lat="47.80715" lon="-3.63328">
        <ele>54.5</ele>
        <time>2020-06-07T13:52:08Z</time>
      </trkpt>
      <trkpt lat="47.80719" lon="-3.63339">
        <ele>54.1</ele>
        <time>2020-06-07T13:52:09Z</time>
      </trkpt>
      <trkpt lat="47.80723" lon="-3.63351">
        <ele>53.8</ele>
        <time>2020-06-07T13:52:10Z</time>
      </trkpt>
      <trkpt lat="47.80727" lon="-3.63365">
        <ele>53.4</ele>
        <time>2020-06-07T13:52:11Z</time>
      </trkpt>
      <trkpt lat="47.80732" lon="-3.6338">
        <ele>53</ele>
        <time>2020-06-07T13:52:12Z</time>
      </trkpt>
      <trkpt lat="47.80739" lon="-3.63397">
        <ele>52.6</ele>
        <time>2020-06-07T13:52:13Z</time>
      </trkpt>
      <trkpt lat="47.80744" lon="-3.63412">
        <ele>52.2</ele>
        <time>2020-06-07T13:52:14Z</time>
      </trkpt>
      <trkpt lat="47.80748" lon="-3.63427">
        <ele>51.7</ele>
        <time>2020-06-07T13:52:15Z</time>
      </trkpt>
      <trkpt lat="47.80753" lon="-3.63441">
        <ele>51.4</ele>
        <time>2020-06-07T13:52:16Z</time>
      </trkpt>
      <trkpt lat="47.80757" lon="-3.63453">
        <ele>51.2</ele>
        <time>2020-06-07T13:52:17Z</time>
      </trkpt>
      <trkpt lat="47.80761" lon="-3.63466">
        <ele>50.9</ele>
        <time>2020-06-07T13:52:18Z</time>
      </trkpt>
      <trkpt lat="47.80764" lon="-3.63478">
        <ele>50.7</ele>
        <time>2020-06-07T13:52:19Z</time>
      </trkpt>
      <trkpt lat="47.80768" lon="-3.63491">
        <ele>50.4</ele>
        <time>2020-06-07T13:52:20Z</time>
      </trkpt>
      <trkpt lat="47.80772" lon="-3.63502">
        <ele>50.1</ele>
        <time>2020-06-07T13:52:21Z</time>
      </trkpt>
      <trkpt lat="47.80775" lon="-3.63515">
        <ele>49.8</ele>
        <time>2020-06-07T13:52:22Z</time>
      </trkpt>
      <trkpt lat="47.80779" lon="-3.63526">
        <ele>49.5</ele>
        <time>2020-06-07T13:52:23Z</time>
      </trkpt>
      <trkpt lat="47.80782" lon="-3.63537">
        <ele>49.3</ele>
        <time>2020-06-07T13:52:24Z</time>
      </trkpt>
      <trkpt lat="47.80785" lon="-3.63549">
        <ele>49</ele>
        <time>2020-06-07T13:52:25Z</time>
      </trkpt>
      <trkpt lat="47.80787" lon="-3.6356">
        <ele>48.7</ele>
        <time>2020-06-07T13:52:26Z</time>
      </trkpt>
      <trkpt lat="47.8079" lon="-3.63572">
        <ele>48.4</ele>
        <time>2020-06-07T13:52:27Z</time>
      </trkpt>
      <trkpt lat="47.80793" lon="-3.63583">
        <ele>48</ele>
        <time>2020-06-07T13:52:28Z</time>
      </trkpt>
      <trkpt lat="47.80796" lon="-3.63594">
        <ele>47.5</ele>
        <time>2020-06-07T13:52:29Z</time>
      </trkpt>
      <trkpt lat="47.80799" lon="-3.63605">
        <ele>47</ele>
        <time>2020-06-07T13:52:30Z</time>
      </trkpt>
      <trkpt lat="47.80803" lon="-3.63616">
        <ele>46.5</ele>
        <time>2020-06-07T13:52:31Z</time>
      </trkpt>
      <trkpt lat="47.80806" lon="-3.63627">
        <ele>45.9</ele>
        <time>2020-06-07T13:52:32Z</time>
      </trkpt>
      <trkpt lat="47.80809" lon="-3.63639">
        <ele>45.4</ele>
        <time>2020-06-07T13:52:33Z</time>
      </trkpt>
      <trkpt lat="47.80812" lon="-3.63651">
        <ele>44.8</ele>
        <time>2020-06-07T13:52:34Z</time>
      </trkpt>
      <trkpt lat="47.80816" lon="-3.63663">
        <ele>44.2</ele>
        <time>2020-06-07T13:52:35Z</time>
      </trkpt>
      <trkpt lat="47.80819" lon="-3.63675">
        <ele>43.6</ele>
        <time>2020-06-07T13:52:36Z</time>
      </trkpt>
      <trkpt lat="47.80822" lon="-3.63687">
        <ele>43</ele>
        <time>2020-06-07T13:52:37Z</time>
      </trkpt>
      <trkpt lat="47.80825" lon="-3.637">
        <ele>42.4</ele>
        <time>2020-06-07T13:52:38Z</time>
      </trkpt>
      <trkpt lat="47.80829" lon="-3.63713">
        <ele>41.9</ele>
        <time>2020-06-07T13:52:39Z</time>
      </trkpt>
      <trkpt lat="47.80833" lon="-3.63725">
        <ele>41.5</ele>
        <time>2020-06-07T13:52:40Z</time>
      </trkpt>
      <trkpt lat="47.80838" lon="-3.63738">
        <ele>41.2</ele>
        <time>2020-06-07T13:52:41Z</time>
      </trkpt>
      <trkpt lat="47.80842" lon="-3.6375">
        <ele>41</ele>
        <time>2020-06-07T13:52:42Z</time>
      </trkpt>
      <trkpt lat="47.80846" lon="-3.63762">
        <ele>41.1</ele>
        <time>2020-06-07T13:52:43Z</time>
      </trkpt>
      <trkpt lat="47.80851" lon="-3.63772">
        <ele>41.3</ele>
        <time>2020-06-07T13:52:44Z</time>
      </trkpt>
      <trkpt lat="47.80855" lon="-3.63782">
        <ele>41.6</ele>
        <time>2020-06-07T13:52:45Z</time>
      </trkpt>
      <trkpt lat="47.80859" lon="-3.63791">
        <ele>41.9</ele>
        <time>2020-06-07T13:52:46Z</time>
      </trkpt>
      <trkpt lat="47.80863" lon="-3.638">
        <ele>42.3</ele>
        <time>2020-06-07T13:52:47Z</time>
      </trkpt>
      <trkpt lat="47.80867" lon="-3.63808">
        <ele>42.3</ele>
        <time>2020-06-07T13:52:48Z</time>
      </trkpt>
      <trkpt lat="47.80869" lon="-3.63816">
        <ele>42.7</ele>
        <time>2020-06-07T13:52:49Z</time>
      </trkpt>
      <trkpt lat="47.8087" lon="-3.63825">
        <ele>42.7</ele>
        <time>2020-06-07T13:52:50Z</time>
      </trkpt>
      <trkpt lat="47.80869" lon="-3.63832">
        <ele>42.7</ele>
        <time>2020-06-07T13:52:51Z</time>
      </trkpt>
      <trkpt lat="47.80868" lon="-3.6384">
        <ele>43.1</ele>
        <time>2020-06-07T13:52:52Z</time>
      </trkpt>
      <trkpt lat="47.80866" lon="-3.63846">
        <ele>43.2</ele>
        <time>2020-06-07T13:52:53Z</time>
      </trkpt>
      <trkpt lat="47.80864" lon="-3.63853">
        <ele>43.3</ele>
        <time>2020-06-07T13:52:54Z</time>
      </trkpt>
      <trkpt lat="47.80864" lon="-3.6386">
        <ele>43.4</ele>
        <time>2020-06-07T13:52:55Z</time>
      </trkpt>
      <trkpt lat="47.80863" lon="-3.63866">
        <ele>43.6</ele>
        <time>2020-06-07T13:52:56Z</time>
      </trkpt>
      <trkpt lat="47.80862" lon="-3.63872">
        <ele>43.7</ele>
        <time>2020-06-07T13:52:57Z</time>
      </trkpt>
      <trkpt lat="47.80861" lon="-3.63878">
        <ele>43.8</ele>
        <time>2020-06-07T13:52:58Z</time>
      </trkpt>
      <trkpt lat="47.80861" lon="-3.63883">
        <ele>43.9</ele>
        <time>2020-06-07T13:52:59Z</time>
      </trkpt>
      <trkpt lat="47.80861" lon="-3.63889">
        <ele>44</ele>
        <time>2020-06-07T13:53:00Z</time>
      </trkpt>
      <trkpt lat="47.8086" lon="-3.63895">
        <ele>44.1</ele>
        <time>2020-06-07T13:53:01Z</time>
      </trkpt>
      <trkpt lat="47.8086" lon="-3.63901">
        <ele>44.2</ele>
        <time>2020-06-07T13:53:02Z</time>
      </trkpt>
      <trkpt lat="47.80859" lon="-3.63908">
        <ele>44.3</ele>
        <time>2020-06-07T13:53:03Z</time>
      </trkpt>
      <trkpt lat="47.80859" lon="-3.63914">
        <ele>44.4</ele>
        <time>2020-06-07T13:53:04Z</time>
      </trkpt>
      <trkpt lat="47.80859" lon="-3.6392">
        <ele>44.5</ele>
        <time>2020-06-07T13:53:05Z</time>
      </trkpt>
      <trkpt lat="47.80859" lon="-3.63927">
        <ele>44.6</ele>
        <time>2020-06-07T13:53:06Z</time>
      </trkpt>
      <trkpt lat="47.80858" lon="-3.63933">
        <ele>44.7</ele>
        <time>2020-06-07T13:53:07Z</time>
      </trkpt>
      <trkpt lat="47.80858" lon="-3.63939">
        <ele>44.8</ele>
        <time>2020-06-07T13:53:08Z</time>
      </trkpt>
      <trkpt lat="47.80858" lon="-3.63945">
        <ele>44.9</ele>
        <time>2020-06-07T13:53:09Z</time>
      </trkpt>
      <trkpt lat="47.80858" lon="-3.63951">
        <ele>45</ele>
        <time>2020-06-07T13:53:10Z</time>
      </trkpt>
      <trkpt lat="47.80857" lon="-3.63957">
        <ele>45.1</ele>
        <time>2020-06-07T13:53:11Z</time>
      </trkpt>
      <trkpt lat="47.80857" lon="-3.63962">
        <ele>45.2</ele>
        <time>2020-06-07T13:53:12Z</time>
      </trkpt>
      <trkpt lat="47.80857" lon="-3.63968">
        <ele>45.2</ele>
        <time>2020-06-07T13:53:13Z</time>
      </trkpt>
      <trkpt lat="47.80855" lon="-3.63974">
        <ele>45.2</ele>
        <time>2020-06-07T13:53:14Z</time>
      </trkpt>
      <trkpt lat="47.80856" lon="-3.6398">
        <ele>45.3</ele>
        <time>2020-06-07T13:53:15Z</time>
      </trkpt>
      <trkpt lat="47.80857" lon="-3.63986">
        <ele>45.3</ele>
        <time>2020-06-07T13:53:16Z</time>
      </trkpt>
      <trkpt lat="47.80857" lon="-3.63993">
        <ele>45.3</ele>
        <time>2020-06-07T13:53:17Z</time>
      </trkpt>
      <trkpt lat="47.80857" lon="-3.64">
        <ele>45.3</ele>
        <time>2020-06-07T13:53:18Z</time>
      </trkpt>
      <trkpt lat="47.80857" lon="-3.64007">
        <ele>45.3</ele>
        <time>2020-06-07T13:53:19Z</time>
      </trkpt>
      <trkpt lat="47.80858" lon="-3.64014">
        <ele>45.3</ele>
        <time>2020-06-07T13:53:20Z</time>
      </trkpt>
      <trkpt lat="47.80857" lon="-3.64021">
        <ele>45.3</ele>
        <time>2020-06-07T13:53:21Z</time>
      </trkpt>
      <trkpt lat="47.80857" lon="-3.6403">
        <ele>45.3</ele>
        <time>2020-06-07T13:53:22Z</time>
      </trkpt>
      <trkpt lat="47.80857" lon="-3.64037">
        <ele>45.3</ele>
        <time>2020-06-07T13:53:23Z</time>
      </trkpt>
      <trkpt lat="47.80857" lon="-3.64045">
        <ele>45.3</ele>
        <time>2020-06-07T13:53:24Z</time>
      </trkpt>
      <trkpt lat="47.80857" lon="-3.64052">
        <ele>45.2</ele>
        <time>2020-06-07T13:53:25Z</time>
      </trkpt>
      <trkpt lat="47.80857" lon="-3.64059">
        <ele>45.2</ele>
        <time>2020-06-07T13:53:26Z</time>
      </trkpt>
      <trkpt lat="47.80857" lon="-3.64065">
        <ele>45.2</ele>
        <time>2020-06-07T13:53:27Z</time>
      </trkpt>
      <trkpt lat="47.80857" lon="-3.64071">
        <ele>45.2</ele>
        <time>2020-06-07T13:53:28Z</time>
      </trkpt>
      <trkpt lat="47.80857" lon="-3.64076">
        <ele>45.2</ele>
        <time>2020-06-07T13:53:29Z</time>
      </trkpt>
      <trkpt lat="47.80857" lon="-3.64084">
        <ele>45.2</ele>
        <time>2020-06-07T13:53:30Z</time>
      </trkpt>
      <trkpt lat="47.80857" lon="-3.64092">
        <ele>45.2</ele>
        <time>2020-06-07T13:53:31Z</time>
      </trkpt>
      <trkpt lat="47.80856" lon="-3.64098">
        <ele>45.2</ele>
        <time>2020-06-07T13:53:32Z</time>
      </trkpt>
      <trkpt lat="47.80856" lon="-3.64105">
        <ele>45.2</ele>
        <time>2020-06-07T13:53:33Z</time>
      </trkpt>
      <trkpt lat="47.80855" lon="-3.64112">
        <ele>45.2</ele>
        <time>2020-06-07T13:53:34Z</time>
      </trkpt>
      <trkpt lat="47.80855" lon="-3.64119">
        <ele>45.2</ele>
        <time>2020-06-07T13:53:35Z</time>
      </trkpt>
      <trkpt lat="47.80856" lon="-3.64125">
        <ele>45.2</ele>
        <time>2020-06-07T13:53:36Z</time>
      </trkpt>
      <trkpt lat="47.80856" lon="-3.64133">
        <ele>45.3</ele>
        <time>2020-06-07T13:53:37Z</time>
      </trkpt>
      <trkpt lat="47.80856" lon="-3.64138">
        <ele>45.3</ele>
        <time>2020-06-07T13:53:38Z</time>
      </trkpt>
      <trkpt lat="47.80856" lon="-3.64143">
        <ele>45.3</ele>
        <time>2020-06-07T13:53:39Z</time>
      </trkpt>
      <trkpt lat="47.80856" lon="-3.64145">
        <ele>45.3</ele>
        <time>2020-06-07T13:53:40Z</time>
      </trkpt>
      <trkpt lat="47.80856" lon="-3.64149">
        <ele>45.3</ele>
        <time>2020-06-07T13:53:41Z</time>
      </trkpt>
      <trkpt lat="47.80856" lon="-3.64151">
        <ele>45.3</ele>
        <time>2020-06-07T13:53:42Z</time>
      </trkpt>
      <trkpt lat="47.80856" lon="-3.64155">
        <ele>45.4</ele>
        <time>2020-06-07T13:53:43Z</time>
      </trkpt>
      <trkpt lat="47.80856" lon="-3.64157">
        <ele>45.4</ele>
        <time>2020-06-07T13:53:44Z</time>
      </trkpt>
      <trkpt lat="47.80857" lon="-3.64162">
        <ele>45.4</ele>
        <time>2020-06-07T13:53:45Z</time>
      </trkpt>
      <trkpt lat="47.80857" lon="-3.64164">
        <ele>45.4</ele>
        <time>2020-06-07T13:53:46Z</time>
      </trkpt>
      <trkpt lat="47.80856" lon="-3.64167">
        <ele>45.5</ele>
        <time>2020-06-07T13:53:47Z</time>
      </trkpt>
      <trkpt lat="47.80856" lon="-3.64169">
        <ele>45.5</ele>
        <time>2020-06-07T13:53:48Z</time>
      </trkpt>
      <trkpt lat="47.80856" lon="-3.64172">
        <ele>45.5</ele>
        <time>2020-06-07T13:53:49Z</time>
      </trkpt>
      <trkpt lat="47.80856" lon="-3.64177">
        <ele>45.6</ele>
        <time>2020-06-07T13:53:50Z</time>
      </trkpt>
      <trkpt lat="47.80856" lon="-3.64178">
        <ele>45.6</ele>
        <time>2020-06-07T13:53:51Z</time>
      </trkpt>
      <trkpt lat="47.80856" lon="-3.64182">
        <ele>45.6</ele>
        <time>2020-06-07T13:53:52Z</time>
      </trkpt>
      <trkpt lat="47.80856" lon="-3.64186">
        <ele>45.7</ele>
        <time>2020-06-07T13:53:53Z</time>
      </trkpt>
      <trkpt lat="47.80856" lon="-3.64192">
        <ele>45.7</ele>
        <time>2020-06-07T13:53:54Z</time>
      </trkpt>
      <trkpt lat="47.80856" lon="-3.64194">
        <ele>45.8</ele>
        <time>2020-06-07T13:53:55Z</time>
      </trkpt>
      <trkpt lat="47.80856" lon="-3.64199">
        <ele>45.8</ele>
        <time>2020-06-07T13:53:56Z</time>
      </trkpt>
      <trkpt lat="47.80856" lon="-3.64204">
        <ele>45.9</ele>
        <time>2020-06-07T13:53:57Z</time>
      </trkpt>
      <trkpt lat="47.80856" lon="-3.6421">
        <ele>45.9</ele>
        <time>2020-06-07T13:53:58Z</time>
      </trkpt>
      <trkpt lat="47.80857" lon="-3.64211">
        <ele>46</ele>
        <time>2020-06-07T13:53:59Z</time>
      </trkpt>
      <trkpt lat="47.80857" lon="-3.64216">
        <ele>46</ele>
        <time>2020-06-07T13:54:00Z</time>
      </trkpt>
      <trkpt lat="47.80857" lon="-3.6422">
        <ele>46.1</ele>
        <time>2020-06-07T13:54:01Z</time>
      </trkpt>
      <trkpt lat="47.80857" lon="-3.64226">
        <ele>46.1</ele>
        <time>2020-06-07T13:54:02Z</time>
      </trkpt>
      <trkpt lat="47.80857" lon="-3.64228">
        <ele>46.2</ele>
        <time>2020-06-07T13:54:03Z</time>
      </trkpt>
      <trkpt lat="47.80857" lon="-3.64232">
        <ele>46.2</ele>
        <time>2020-06-07T13:54:04Z</time>
      </trkpt>
      <trkpt lat="47.80857" lon="-3.64237">
        <ele>46.3</ele>
        <time>2020-06-07T13:54:05Z</time>
      </trkpt>
      <trkpt lat="47.80857" lon="-3.64242">
        <ele>46.4</ele>
        <time>2020-06-07T13:54:06Z</time>
      </trkpt>
      <trkpt lat="47.80858" lon="-3.64246">
        <ele>46.5</ele>
        <time>2020-06-07T13:54:07Z</time>
      </trkpt>
      <trkpt lat="47.80859" lon="-3.64249">
        <ele>46.5</ele>
        <time>2020-06-07T13:54:08Z</time>
      </trkpt>
      <trkpt lat="47.80859" lon="-3.64254">
        <ele>46.6</ele>
        <time>2020-06-07T13:54:09Z</time>
      </trkpt>
      <trkpt lat="47.80859" lon="-3.64259">
        <ele>46.7</ele>
        <time>2020-06-07T13:54:10Z</time>
      </trkpt>
      <trkpt lat="47.80859" lon="-3.64264">
        <ele>46.8</ele>
        <time>2020-06-07T13:54:11Z</time>
      </trkpt>
      <trkpt lat="47.8086" lon="-3.64269">
        <ele>46.9</ele>
        <time>2020-06-07T13:54:12Z</time>
      </trkpt>
      <trkpt lat="47.8086" lon="-3.64272">
        <ele>47</ele>
        <time>2020-06-07T13:54:13Z</time>
      </trkpt>
      <trkpt lat="47.80861" lon="-3.64274">
        <ele>47.1</ele>
        <time>2020-06-07T13:54:14Z</time>
      </trkpt>
      <trkpt lat="47.80861" lon="-3.6428">
        <ele>47.2</ele>
        <time>2020-06-07T13:54:15Z</time>
      </trkpt>
      <trkpt lat="47.80862" lon="-3.64284">
        <ele>47.3</ele>
        <time>2020-06-07T13:54:16Z</time>
      </trkpt>
      <trkpt lat="47.80863" lon="-3.64288">
        <ele>47.4</ele>
        <time>2020-06-07T13:54:17Z</time>
      </trkpt>
      <trkpt lat="47.80865" lon="-3.64292">
        <ele>48.2</ele>
        <time>2020-06-07T13:54:18Z</time>
      </trkpt>
      <trkpt lat="47.80867" lon="-3.64295">
        <ele>48.2</ele>
        <time>2020-06-07T13:54:19Z</time>
      </trkpt>
      <trkpt lat="47.8087" lon="-3.64297">
        <ele>48.2</ele>
        <time>2020-06-07T13:54:20Z</time>
      </trkpt>
      <trkpt lat="47.80873" lon="-3.64298">
        <ele>48.2</ele>
        <time>2020-06-07T13:54:21Z</time>
      </trkpt>
      <trkpt lat="47.80874" lon="-3.64298">
        <ele>48.2</ele>
        <time>2020-06-07T13:54:22Z</time>
      </trkpt>
      <trkpt lat="47.80876" lon="-3.64299">
        <ele>48.2</ele>
        <time>2020-06-07T13:54:23Z</time>
      </trkpt>
      <trkpt lat="47.80877" lon="-3.643">
        <ele>48.2</ele>
        <time>2020-06-07T13:54:24Z</time>
      </trkpt>
      <trkpt lat="47.8088" lon="-3.643">
        <ele>48.2</ele>
        <time>2020-06-07T13:54:25Z</time>
      </trkpt>
      <trkpt lat="47.80881" lon="-3.643">
        <ele>48.2</ele>
        <time>2020-06-07T13:54:26Z</time>
      </trkpt>
      <trkpt lat="47.80884" lon="-3.64299">
        <ele>48.2</ele>
        <time>2020-06-07T13:54:27Z</time>
      </trkpt>
      <trkpt lat="47.80885" lon="-3.64298">
        <ele>48.2</ele>
        <time>2020-06-07T13:54:28Z</time>
      </trkpt>
      <trkpt lat="47.80887" lon="-3.64295">
        <ele>48.2</ele>
        <time>2020-06-07T13:54:29Z</time>
      </trkpt>
      <trkpt lat="47.8089" lon="-3.64292">
        <ele>48.2</ele>
        <time>2020-06-07T13:54:30Z</time>
      </trkpt>
      <trkpt lat="47.80893" lon="-3.64291">
        <ele>48.2</ele>
        <time>2020-06-07T13:54:31Z</time>
      </trkpt>
      <trkpt lat="47.80896" lon="-3.6429">
        <ele>48.3</ele>
        <time>2020-06-07T13:54:32Z</time>
      </trkpt>
      <trkpt lat="47.80899" lon="-3.6429">
        <ele>48.3</ele>
        <time>2020-06-07T13:54:33Z</time>
      </trkpt>
      <trkpt lat="47.809" lon="-3.6429">
        <ele>48.3</ele>
        <time>2020-06-07T13:54:34Z</time>
      </trkpt>
      <trkpt lat="47.80903" lon="-3.64289">
        <ele>48.3</ele>
        <time>2020-06-07T13:54:35Z</time>
      </trkpt>
      <trkpt lat="47.80906" lon="-3.64288">
        <ele>48.3</ele>
        <time>2020-06-07T13:54:36Z</time>
      </trkpt>
      <trkpt lat="47.80909" lon="-3.64287">
        <ele>48.3</ele>
        <time>2020-06-07T13:54:37Z</time>
      </trkpt>
      <trkpt lat="47.80912" lon="-3.64285">
        <ele>48.3</ele>
        <time>2020-06-07T13:54:38Z</time>
      </trkpt>
      <trkpt lat="47.80916" lon="-3.64284">
        <ele>48.3</ele>
        <time>2020-06-07T13:54:39Z</time>
      </trkpt>
      <trkpt lat="47.80919" lon="-3.64283">
        <ele>48.4</ele>
        <time>2020-06-07T13:54:40Z</time>
      </trkpt>
      <trkpt lat="47.80923" lon="-3.64281">
        <ele>48.5</ele>
        <time>2020-06-07T13:54:41Z</time>
      </trkpt>
      <trkpt lat="47.80925" lon="-3.6428">
        <ele>48.6</ele>
        <time>2020-06-07T13:54:42Z</time>
      </trkpt>
      <trkpt lat="47.80928" lon="-3.64278">
        <ele>48.6</ele>
        <time>2020-06-07T13:54:43Z</time>
      </trkpt>
      <trkpt lat="47.80932" lon="-3.64275">
        <ele>48.7</ele>
        <time>2020-06-07T13:54:44Z</time>
      </trkpt>
      <trkpt lat="47.80935" lon="-3.64274">
        <ele>48.8</ele>
        <time>2020-06-07T13:54:45Z</time>
      </trkpt>
      <trkpt lat="47.80938" lon="-3.64273">
        <ele>48.8</ele>
        <time>2020-06-07T13:54:46Z</time>
      </trkpt>
      <trkpt lat="47.80942" lon="-3.64271">
        <ele>48.9</ele>
        <time>2020-06-07T13:54:47Z</time>
      </trkpt>
      <trkpt lat="47.80945" lon="-3.6427">
        <ele>49</ele>
        <time>2020-06-07T13:54:48Z</time>
      </trkpt>
      <trkpt lat="47.80948" lon="-3.64269">
        <ele>49</ele>
        <time>2020-06-07T13:54:49Z</time>
      </trkpt>
      <trkpt lat="47.80952" lon="-3.64269">
        <ele>49.1</ele>
        <time>2020-06-07T13:54:50Z</time>
      </trkpt>
      <trkpt lat="47.80953" lon="-3.64268">
        <ele>49.1</ele>
        <time>2020-06-07T13:54:51Z</time>
      </trkpt>
      <trkpt lat="47.80956" lon="-3.64267">
        <ele>49.2</ele>
        <time>2020-06-07T13:54:52Z</time>
      </trkpt>
      <trkpt lat="47.80959" lon="-3.64265">
        <ele>49.2</ele>
        <time>2020-06-07T13:54:53Z</time>
      </trkpt>
      <trkpt lat="47.80962" lon="-3.64264">
        <ele>49.3</ele>
        <time>2020-06-07T13:54:54Z</time>
      </trkpt>
      <trkpt lat="47.80966" lon="-3.64263">
        <ele>49.4</ele>
        <time>2020-06-07T13:54:55Z</time>
      </trkpt>
      <trkpt lat="47.8097" lon="-3.6426">
        <ele>49.4</ele>
        <time>2020-06-07T13:54:56Z</time>
      </trkpt>
      <trkpt lat="47.80972" lon="-3.64258">
        <ele>49.5</ele>
        <time>2020-06-07T13:54:57Z</time>
      </trkpt>
      <trkpt lat="47.80978" lon="-3.64258">
        <ele>49.6</ele>
        <time>2020-06-07T13:54:58Z</time>
      </trkpt>
      <trkpt lat="47.80981" lon="-3.64257">
        <ele>49.6</ele>
        <time>2020-06-07T13:54:59Z</time>
      </trkpt>
      <trkpt lat="47.80984" lon="-3.64257">
        <ele>49.7</ele>
        <time>2020-06-07T13:55:00Z</time>
      </trkpt>
      <trkpt lat="47.80988" lon="-3.64255">
        <ele>49.7</ele>
        <time>2020-06-07T13:55:01Z</time>
      </trkpt>
      <trkpt lat="47.80988" lon="-3.64254">
        <ele>49.8</ele>
        <time>2020-06-07T13:55:02Z</time>
      </trkpt>
      <trkpt lat="47.80992" lon="-3.64253">
        <ele>49.8</ele>
        <time>2020-06-07T13:55:03Z</time>
      </trkpt>
      <trkpt lat="47.80993" lon="-3.64252">
        <ele>49.8</ele>
        <time>2020-06-07T13:55:04Z</time>
      </trkpt>
      <trkpt lat="47.80996" lon="-3.6425">
        <ele>49.9</ele>
        <time>2020-06-07T13:55:05Z</time>
      </trkpt>
      <trkpt lat="47.80998" lon="-3.6425">
        <ele>49.9</ele>
        <time>2020-06-07T13:55:06Z</time>
      </trkpt>
      <trkpt lat="47.81002" lon="-3.64249">
        <ele>50</ele>
        <time>2020-06-07T13:55:07Z</time>
      </trkpt>
      <trkpt lat="47.81006" lon="-3.64247">
        <ele>50</ele>
        <time>2020-06-07T13:55:08Z</time>
      </trkpt>
      <trkpt lat="47.81007" lon="-3.64247">
        <ele>50.1</ele>
        <time>2020-06-07T13:55:09Z</time>
      </trkpt>
      <trkpt lat="47.81011" lon="-3.64245">
        <ele>50.1</ele>
        <time>2020-06-07T13:55:10Z</time>
      </trkpt>
      <trkpt lat="47.81016" lon="-3.64245">
        <ele>50.2</ele>
        <time>2020-06-07T13:55:11Z</time>
      </trkpt>
      <trkpt lat="47.8102" lon="-3.64244">
        <ele>50.2</ele>
        <time>2020-06-07T13:55:12Z</time>
      </trkpt>
      <trkpt lat="47.81021" lon="-3.64243">
        <ele>50.2</ele>
        <time>2020-06-07T13:55:13Z</time>
      </trkpt>
      <trkpt lat="47.81024" lon="-3.64243">
        <ele>50.2</ele>
        <time>2020-06-07T13:55:14Z</time>
      </trkpt>
      <trkpt lat="47.81028" lon="-3.64242">
        <ele>50.3</ele>
        <time>2020-06-07T13:55:15Z</time>
      </trkpt>
      <trkpt lat="47.8103" lon="-3.64241">
        <ele>50.3</ele>
        <time>2020-06-07T13:55:16Z</time>
      </trkpt>
      <trkpt lat="47.81033" lon="-3.6424">
        <ele>50.3</ele>
        <time>2020-06-07T13:55:17Z</time>
      </trkpt>
      <trkpt lat="47.81037" lon="-3.64239">
        <ele>50.4</ele>
        <time>2020-06-07T13:55:18Z</time>
      </trkpt>
      <trkpt lat="47.8104" lon="-3.6424">
        <ele>50.4</ele>
        <time>2020-06-07T13:55:19Z</time>
      </trkpt>
      <trkpt lat="47.81043" lon="-3.6424">
        <ele>50.5</ele>
        <time>2020-06-07T13:55:20Z</time>
      </trkpt>
      <trkpt lat="47.81046" lon="-3.64241">
        <ele>50.5</ele>
        <time>2020-06-07T13:55:21Z</time>
      </trkpt>
      <trkpt lat="47.8105" lon="-3.64242">
        <ele>50.5</ele>
        <time>2020-06-07T13:55:22Z</time>
      </trkpt>
      <trkpt lat="47.81052" lon="-3.64242">
        <ele>50.6</ele>
        <time>2020-06-07T13:55:23Z</time>
      </trkpt>
      <trkpt lat="47.81056" lon="-3.64243">
        <ele>50.6</ele>
        <time>2020-06-07T13:55:24Z</time>
      </trkpt>
      <trkpt lat="47.81059" lon="-3.64245">
        <ele>50.6</ele>
        <time>2020-06-07T13:55:25Z</time>
      </trkpt>
      <trkpt lat="47.81063" lon="-3.64246">
        <ele>50.6</ele>
        <time>2020-06-07T13:55:26Z</time>
      </trkpt>
      <trkpt lat="47.81067" lon="-3.64248">
        <ele>50.5</ele>
        <time>2020-06-07T13:55:27Z</time>
      </trkpt>
      <trkpt lat="47.81071" lon="-3.64249">
        <ele>50.5</ele>
        <time>2020-06-07T13:55:28Z</time>
      </trkpt>
      <trkpt lat="47.81075" lon="-3.64251">
        <ele>50.4</ele>
        <time>2020-06-07T13:55:29Z</time>
      </trkpt>
      <trkpt lat="47.81079" lon="-3.64252">
        <ele>50.4</ele>
        <time>2020-06-07T13:55:30Z</time>
      </trkpt>
      <trkpt lat="47.81083" lon="-3.64253">
        <ele>50.3</ele>
        <time>2020-06-07T13:55:31Z</time>
      </trkpt>
      <trkpt lat="47.81088" lon="-3.64255">
        <ele>50.3</ele>
        <time>2020-06-07T13:55:32Z</time>
      </trkpt>
      <trkpt lat="47.81092" lon="-3.64257">
        <ele>50.2</ele>
        <time>2020-06-07T13:55:33Z</time>
      </trkpt>
      <trkpt lat="47.81096" lon="-3.6426">
        <ele>50.1</ele>
        <time>2020-06-07T13:55:34Z</time>
      </trkpt>
      <trkpt lat="47.81098" lon="-3.64262">
        <ele>50.1</ele>
        <time>2020-06-07T13:55:35Z</time>
      </trkpt>
      <trkpt lat="47.81101" lon="-3.64265">
        <ele>50</ele>
        <time>2020-06-07T13:55:36Z</time>
      </trkpt>
      <trkpt lat="47.81105" lon="-3.64269">
        <ele>50</ele>
        <time>2020-06-07T13:55:37Z</time>
      </trkpt>
      <trkpt lat="47.81109" lon="-3.64273">
        <ele>49.9</ele>
        <time>2020-06-07T13:55:38Z</time>
      </trkpt>
      <trkpt lat="47.81113" lon="-3.64274">
        <ele>49.9</ele>
        <time>2020-06-07T13:55:39Z</time>
      </trkpt>
      <trkpt lat="47.81119" lon="-3.64279">
        <ele>49.8</ele>
        <time>2020-06-07T13:55:40Z</time>
      </trkpt>
      <trkpt lat="47.81124" lon="-3.64284">
        <ele>49.6</ele>
        <time>2020-06-07T13:55:41Z</time>
      </trkpt>
      <trkpt lat="47.81129" lon="-3.64288">
        <ele>49.5</ele>
        <time>2020-06-07T13:55:42Z</time>
      </trkpt>
      <trkpt lat="47.81134" lon="-3.6429">
        <ele>49.5</ele>
        <time>2020-06-07T13:55:43Z</time>
      </trkpt>
      <trkpt lat="47.81138" lon="-3.64294">
        <ele>49.4</ele>
        <time>2020-06-07T13:55:44Z</time>
      </trkpt>
      <trkpt lat="47.81142" lon="-3.64297">
        <ele>49.3</ele>
        <time>2020-06-07T13:55:45Z</time>
      </trkpt>
      <trkpt lat="47.81148" lon="-3.64301">
        <ele>49.2</ele>
        <time>2020-06-07T13:55:46Z</time>
      </trkpt>
      <trkpt lat="47.81152" lon="-3.64306">
        <ele>49.1</ele>
        <time>2020-06-07T13:55:47Z</time>
      </trkpt>
      <trkpt lat="47.81156" lon="-3.6431">
        <ele>49</ele>
        <time>2020-06-07T13:55:48Z</time>
      </trkpt>
      <trkpt lat="47.8116" lon="-3.64313">
        <ele>48.9</ele>
        <time>2020-06-07T13:55:49Z</time>
      </trkpt>
      <trkpt lat="47.81165" lon="-3.64317">
        <ele>48.8</ele>
        <time>2020-06-07T13:55:50Z</time>
      </trkpt>
      <trkpt lat="47.81169" lon="-3.64319">
        <ele>48.6</ele>
        <time>2020-06-07T13:55:51Z</time>
      </trkpt>
      <trkpt lat="47.81173" lon="-3.64322">
        <ele>48.5</ele>
        <time>2020-06-07T13:55:52Z</time>
      </trkpt>
      <trkpt lat="47.81178" lon="-3.64326">
        <ele>48.3</ele>
        <time>2020-06-07T13:55:53Z</time>
      </trkpt>
      <trkpt lat="47.81183" lon="-3.64329">
        <ele>48.1</ele>
        <time>2020-06-07T13:55:54Z</time>
      </trkpt>
      <trkpt lat="47.81188" lon="-3.64331">
        <ele>47.9</ele>
        <time>2020-06-07T13:55:55Z</time>
      </trkpt>
      <trkpt lat="47.81194" lon="-3.64333">
        <ele>47.7</ele>
        <time>2020-06-07T13:55:56Z</time>
      </trkpt>
      <trkpt lat="47.81199" lon="-3.64335">
        <ele>47.4</ele>
        <time>2020-06-07T13:55:57Z</time>
      </trkpt>
      <trkpt lat="47.81206" lon="-3.64337">
        <ele>47.1</ele>
        <time>2020-06-07T13:55:58Z</time>
      </trkpt>
      <trkpt lat="47.81212" lon="-3.64339">
        <ele>46.8</ele>
        <time>2020-06-07T13:55:59Z</time>
      </trkpt>
      <trkpt lat="47.81218" lon="-3.6434">
        <ele>46.4</ele>
        <time>2020-06-07T13:56:00Z</time>
      </trkpt>
      <trkpt lat="47.81224" lon="-3.6434">
        <ele>46.1</ele>
        <time>2020-06-07T13:56:01Z</time>
      </trkpt>
      <trkpt lat="47.81231" lon="-3.64341">
        <ele>45.7</ele>
        <time>2020-06-07T13:56:02Z</time>
      </trkpt>
      <trkpt lat="47.81238" lon="-3.64342">
        <ele>45.4</ele>
        <time>2020-06-07T13:56:03Z</time>
      </trkpt>
      <trkpt lat="47.81245" lon="-3.64344">
        <ele>45</ele>
        <time>2020-06-07T13:56:04Z</time>
      </trkpt>
      <trkpt lat="47.81253" lon="-3.64345">
        <ele>44.6</ele>
        <time>2020-06-07T13:56:05Z</time>
      </trkpt>
      <trkpt lat="47.81261" lon="-3.64345">
        <ele>44.2</ele>
        <time>2020-06-07T13:56:06Z</time>
      </trkpt>
      <trkpt lat="47.81269" lon="-3.64345">
        <ele>43.8</ele>
        <time>2020-06-07T13:56:07Z</time>
      </trkpt>
      <trkpt lat="47.81278" lon="-3.64346">
        <ele>43.3</ele>
        <time>2020-06-07T13:56:08Z</time>
      </trkpt>
      <trkpt lat="47.81286" lon="-3.64347">
        <ele>42.9</ele>
        <time>2020-06-07T13:56:09Z</time>
      </trkpt>
      <trkpt lat="47.81295" lon="-3.64348">
        <ele>42.5</ele>
        <time>2020-06-07T13:56:10Z</time>
      </trkpt>
      <trkpt lat="47.81304" lon="-3.64349">
        <ele>42.1</ele>
        <time>2020-06-07T13:56:11Z</time>
      </trkpt>
      <trkpt lat="47.81312" lon="-3.64351">
        <ele>41.7</ele>
        <time>2020-06-07T13:56:12Z</time>
      </trkpt>
      <trkpt lat="47.8132" lon="-3.64352">
        <ele>41.3</ele>
        <time>2020-06-07T13:56:13Z</time>
      </trkpt>
      <trkpt lat="47.81326" lon="-3.64353">
        <ele>41</ele>
        <time>2020-06-07T13:56:14Z</time>
      </trkpt>
      <trkpt lat="47.81333" lon="-3.64354">
        <ele>41.3</ele>
        <time>2020-06-07T13:56:15Z</time>
      </trkpt>
      <trkpt lat="47.81338" lon="-3.64353">
        <ele>41.5</ele>
        <time>2020-06-07T13:56:16Z</time>
      </trkpt>
      <trkpt lat="47.81343" lon="-3.64351">
        <ele>41.7</ele>
        <time>2020-06-07T13:56:17Z</time>
      </trkpt>
      <trkpt lat="47.81347" lon="-3.64348">
        <ele>41.8</ele>
        <time>2020-06-07T13:56:18Z</time>
      </trkpt>
      <trkpt lat="47.8135" lon="-3.64347">
        <ele>41.8</ele>
        <time>2020-06-07T13:56:19Z</time>
      </trkpt>
      <trkpt lat="47.81354" lon="-3.64347">
        <ele>41.9</ele>
        <time>2020-06-07T13:56:20Z</time>
      </trkpt>
      <trkpt lat="47.81359" lon="-3.64348">
        <ele>41.9</ele>
        <time>2020-06-07T13:56:21Z</time>
      </trkpt>
      <trkpt lat="47.81363" lon="-3.64351">
        <ele>42.1</ele>
        <time>2020-06-07T13:56:22Z</time>
      </trkpt>
      <trkpt lat="47.81368" lon="-3.64354">
        <ele>42.1</ele>
        <time>2020-06-07T13:56:23Z</time>
      </trkpt>
      <trkpt lat="47.81372" lon="-3.64359">
        <ele>41.8</ele>
        <time>2020-06-07T13:56:24Z</time>
      </trkpt>
      <trkpt lat="47.81375" lon="-3.64366">
        <ele>41.6</ele>
        <time>2020-06-07T13:56:25Z</time>
      </trkpt>
      <trkpt lat="47.81378" lon="-3.64373">
        <ele>41.4</ele>
        <time>2020-06-07T13:56:26Z</time>
      </trkpt>
      <trkpt lat="47.81381" lon="-3.64379">
        <ele>41.1</ele>
        <time>2020-06-07T13:56:27Z</time>
      </trkpt>
      <trkpt lat="47.81384" lon="-3.64386">
        <ele>40.9</ele>
        <time>2020-06-07T13:56:28Z</time>
      </trkpt>
      <trkpt lat="47.81388" lon="-3.64393">
        <ele>40.6</ele>
        <time>2020-06-07T13:56:29Z</time>
      </trkpt>
      <trkpt lat="47.81391" lon="-3.64399">
        <ele>40.4</ele>
        <time>2020-06-07T13:56:30Z</time>
      </trkpt>
      <trkpt lat="47.81394" lon="-3.64406">
        <ele>40.1</ele>
        <time>2020-06-07T13:56:31Z</time>
      </trkpt>
      <trkpt lat="47.81397" lon="-3.64414">
        <ele>39.9</ele>
        <time>2020-06-07T13:56:32Z</time>
      </trkpt>
      <trkpt lat="47.814" lon="-3.6442">
        <ele>39.6</ele>
        <time>2020-06-07T13:56:33Z</time>
      </trkpt>
      <trkpt lat="47.81403" lon="-3.64427">
        <ele>39.4</ele>
        <time>2020-06-07T13:56:34Z</time>
      </trkpt>
      <trkpt lat="47.81405" lon="-3.64435">
        <ele>39.1</ele>
        <time>2020-06-07T13:56:35Z</time>
      </trkpt>
      <trkpt lat="47.81407" lon="-3.64442">
        <ele>38.9</ele>
        <time>2020-06-07T13:56:36Z</time>
      </trkpt>
      <trkpt lat="47.8141" lon="-3.64449">
        <ele>38.7</ele>
        <time>2020-06-07T13:56:37Z</time>
      </trkpt>
      <trkpt lat="47.81414" lon="-3.64455">
        <ele>38.6</ele>
        <time>2020-06-07T13:56:38Z</time>
      </trkpt>
      <trkpt lat="47.81417" lon="-3.64462">
        <ele>38.4</ele>
        <time>2020-06-07T13:56:39Z</time>
      </trkpt>
      <trkpt lat="47.8142" lon="-3.64468">
        <ele>38.3</ele>
        <time>2020-06-07T13:56:40Z</time>
      </trkpt>
      <trkpt lat="47.81423" lon="-3.64475">
        <ele>38.2</ele>
        <time>2020-06-07T13:56:41Z</time>
      </trkpt>
      <trkpt lat="47.81426" lon="-3.64482">
        <ele>38.1</ele>
        <time>2020-06-07T13:56:42Z</time>
      </trkpt>
      <trkpt lat="47.8143" lon="-3.64489">
        <ele>38</ele>
        <time>2020-06-07T13:56:43Z</time>
      </trkpt>
      <trkpt lat="47.81433" lon="-3.64497">
        <ele>37.8</ele>
        <time>2020-06-07T13:56:44Z</time>
      </trkpt>
      <trkpt lat="47.81436" lon="-3.64505">
        <ele>37.7</ele>
        <time>2020-06-07T13:56:45Z</time>
      </trkpt>
      <trkpt lat="47.81439" lon="-3.64513">
        <ele>37.6</ele>
        <time>2020-06-07T13:56:46Z</time>
      </trkpt>
      <trkpt lat="47.81443" lon="-3.64521">
        <ele>37.5</ele>
        <time>2020-06-07T13:56:47Z</time>
      </trkpt>
      <trkpt lat="47.81446" lon="-3.64529">
        <ele>37.3</ele>
        <time>2020-06-07T13:56:48Z</time>
      </trkpt>
      <trkpt lat="47.8145" lon="-3.64537">
        <ele>37.2</ele>
        <time>2020-06-07T13:56:49Z</time>
      </trkpt>
      <trkpt lat="47.81454" lon="-3.64546">
        <ele>37.1</ele>
        <time>2020-06-07T13:56:50Z</time>
      </trkpt>
      <trkpt lat="47.81458" lon="-3.64555">
        <ele>36.9</ele>
        <time>2020-06-07T13:56:51Z</time>
      </trkpt>
      <trkpt lat="47.81462" lon="-3.64564">
        <ele>36.8</ele>
        <time>2020-06-07T13:56:52Z</time>
      </trkpt>
      <trkpt lat="47.81467" lon="-3.64572">
        <ele>36.7</ele>
        <time>2020-06-07T13:56:53Z</time>
      </trkpt>
      <trkpt lat="47.81471" lon="-3.64581">
        <ele>36.5</ele>
        <time>2020-06-07T13:56:54Z</time>
      </trkpt>
      <trkpt lat="47.81475" lon="-3.64591">
        <ele>36.2</ele>
        <time>2020-06-07T13:56:55Z</time>
      </trkpt>
      <trkpt lat="47.81479" lon="-3.646">
        <ele>36</ele>
        <time>2020-06-07T13:56:56Z</time>
      </trkpt>
      <trkpt lat="47.81483" lon="-3.6461">
        <ele>35.8</ele>
        <time>2020-06-07T13:56:57Z</time>
      </trkpt>
      <trkpt lat="47.81487" lon="-3.64619">
        <ele>35.7</ele>
        <time>2020-06-07T13:56:58Z</time>
      </trkpt>
      <trkpt lat="47.81492" lon="-3.64629">
        <ele>35.5</ele>
        <time>2020-06-07T13:56:59Z</time>
      </trkpt>
      <trkpt lat="47.81496" lon="-3.64639">
        <ele>35.4</ele>
        <time>2020-06-07T13:57:00Z</time>
      </trkpt>
      <trkpt lat="47.815" lon="-3.64649">
        <ele>35.2</ele>
        <time>2020-06-07T13:57:01Z</time>
      </trkpt>
      <trkpt lat="47.81505" lon="-3.64658">
        <ele>35</ele>
        <time>2020-06-07T13:57:02Z</time>
      </trkpt>
      <trkpt lat="47.81509" lon="-3.64668">
        <ele>34.9</ele>
        <time>2020-06-07T13:57:03Z</time>
      </trkpt>
      <trkpt lat="47.81512" lon="-3.64678">
        <ele>34.7</ele>
        <time>2020-06-07T13:57:04Z</time>
      </trkpt>
      <trkpt lat="47.81516" lon="-3.64687">
        <ele>34.5</ele>
        <time>2020-06-07T13:57:05Z</time>
      </trkpt>
      <trkpt lat="47.8152" lon="-3.64696">
        <ele>34.4</ele>
        <time>2020-06-07T13:57:06Z</time>
      </trkpt>
      <trkpt lat="47.81524" lon="-3.64705">
        <ele>34.2</ele>
        <time>2020-06-07T13:57:07Z</time>
      </trkpt>
      <trkpt lat="47.81528" lon="-3.64715">
        <ele>34</ele>
        <time>2020-06-07T13:57:08Z</time>
      </trkpt>
      <trkpt lat="47.81533" lon="-3.64723">
        <ele>33.8</ele>
        <time>2020-06-07T13:57:09Z</time>
      </trkpt>
      <trkpt lat="47.81538" lon="-3.64732">
        <ele>33.7</ele>
        <time>2020-06-07T13:57:10Z</time>
      </trkpt>
      <trkpt lat="47.81542" lon="-3.6474">
        <ele>33.5</ele>
        <time>2020-06-07T13:57:11Z</time>
      </trkpt>
      <trkpt lat="47.81546" lon="-3.64749">
        <ele>33.4</ele>
        <time>2020-06-07T13:57:12Z</time>
      </trkpt>
      <trkpt lat="47.81551" lon="-3.64758">
        <ele>33.2</ele>
        <time>2020-06-07T13:57:13Z</time>
      </trkpt>
      <trkpt lat="47.81555" lon="-3.64768">
        <ele>33.1</ele>
        <time>2020-06-07T13:57:14Z</time>
      </trkpt>
      <trkpt lat="47.81559" lon="-3.64776">
        <ele>32.9</ele>
        <time>2020-06-07T13:57:15Z</time>
      </trkpt>
      <trkpt lat="47.81563" lon="-3.64786">
        <ele>32.7</ele>
        <time>2020-06-07T13:57:16Z</time>
      </trkpt>
      <trkpt lat="47.81567" lon="-3.64795">
        <ele>32.5</ele>
        <time>2020-06-07T13:57:17Z</time>
      </trkpt>
      <trkpt lat="47.81572" lon="-3.64804">
        <ele>32.3</ele>
        <time>2020-06-07T13:57:18Z</time>
      </trkpt>
      <trkpt lat="47.81576" lon="-3.64812">
        <ele>32.1</ele>
        <time>2020-06-07T13:57:19Z</time>
      </trkpt>
      <trkpt lat="47.8158" lon="-3.64821">
        <ele>31.9</ele>
        <time>2020-06-07T13:57:20Z</time>
      </trkpt>
      <trkpt lat="47.81585" lon="-3.6483">
        <ele>31.8</ele>
        <time>2020-06-07T13:57:21Z</time>
      </trkpt>
      <trkpt lat="47.81589" lon="-3.64838">
        <ele>31.6</ele>
        <time>2020-06-07T13:57:22Z</time>
      </trkpt>
      <trkpt lat="47.81593" lon="-3.64847">
        <ele>31.5</ele>
        <time>2020-06-07T13:57:23Z</time>
      </trkpt>
      <trkpt lat="47.81597" lon="-3.64856">
        <ele>31.3</ele>
        <time>2020-06-07T13:57:24Z</time>
      </trkpt>
      <trkpt lat="47.81602" lon="-3.64865">
        <ele>31.2</ele>
        <time>2020-06-07T13:57:25Z</time>
      </trkpt>
      <trkpt lat="47.81605" lon="-3.64874">
        <ele>31.1</ele>
        <time>2020-06-07T13:57:26Z</time>
      </trkpt>
      <trkpt lat="47.81609" lon="-3.64883">
        <ele>31</ele>
        <time>2020-06-07T13:57:27Z</time>
      </trkpt>
      <trkpt lat="47.81613" lon="-3.64892">
        <ele>31</ele>
        <time>2020-06-07T13:57:28Z</time>
      </trkpt>
      <trkpt lat="47.81616" lon="-3.64901">
        <ele>30.9</ele>
        <time>2020-06-07T13:57:29Z</time>
      </trkpt>
      <trkpt lat="47.8162" lon="-3.6491">
        <ele>30.7</ele>
        <time>2020-06-07T13:57:30Z</time>
      </trkpt>
      <trkpt lat="47.81625" lon="-3.64918">
        <ele>30.5</ele>
        <time>2020-06-07T13:57:31Z</time>
      </trkpt>
      <trkpt lat="47.81629" lon="-3.64926">
        <ele>30.3</ele>
        <time>2020-06-07T13:57:32Z</time>
      </trkpt>
      <trkpt lat="47.81633" lon="-3.64934">
        <ele>30.1</ele>
        <time>2020-06-07T13:57:33Z</time>
      </trkpt>
      <trkpt lat="47.81637" lon="-3.64942">
        <ele>29.9</ele>
        <time>2020-06-07T13:57:34Z</time>
      </trkpt>
      <trkpt lat="47.81641" lon="-3.6495">
        <ele>29.8</ele>
        <time>2020-06-07T13:57:35Z</time>
      </trkpt>
      <trkpt lat="47.81646" lon="-3.64958">
        <ele>29.7</ele>
        <time>2020-06-07T13:57:36Z</time>
      </trkpt>
      <trkpt lat="47.8165" lon="-3.64966">
        <ele>29.5</ele>
        <time>2020-06-07T13:57:37Z</time>
      </trkpt>
      <trkpt lat="47.81654" lon="-3.64974">
        <ele>29.4</ele>
        <time>2020-06-07T13:57:38Z</time>
      </trkpt>
      <trkpt lat="47.81658" lon="-3.64982">
        <ele>29.3</ele>
        <time>2020-06-07T13:57:39Z</time>
      </trkpt>
      <trkpt lat="47.81662" lon="-3.64991">
        <ele>29.1</ele>
        <time>2020-06-07T13:57:40Z</time>
      </trkpt>
      <trkpt lat="47.81666" lon="-3.64999">
        <ele>29</ele>
        <time>2020-06-07T13:57:41Z</time>
      </trkpt>
      <trkpt lat="47.8167" lon="-3.65008">
        <ele>28.9</ele>
        <time>2020-06-07T13:57:42Z</time>
      </trkpt>
      <trkpt lat="47.81673" lon="-3.65017">
        <ele>28.7</ele>
        <time>2020-06-07T13:57:43Z</time>
      </trkpt>
      <trkpt lat="47.81677" lon="-3.65025">
        <ele>28.6</ele>
        <time>2020-06-07T13:57:44Z</time>
      </trkpt>
      <trkpt lat="47.81681" lon="-3.65033">
        <ele>28.4</ele>
        <time>2020-06-07T13:57:45Z</time>
      </trkpt>
      <trkpt lat="47.81685" lon="-3.65042">
        <ele>28.3</ele>
        <time>2020-06-07T13:57:46Z</time>
      </trkpt>
      <trkpt lat="47.81688" lon="-3.6505">
        <ele>28.2</ele>
        <time>2020-06-07T13:57:47Z</time>
      </trkpt>
      <trkpt lat="47.81691" lon="-3.65058">
        <ele>28.1</ele>
        <time>2020-06-07T13:57:48Z</time>
      </trkpt>
      <trkpt lat="47.81694" lon="-3.65066">
        <ele>28</ele>
        <time>2020-06-07T13:57:49Z</time>
      </trkpt>
      <trkpt lat="47.81697" lon="-3.65075">
        <ele>27.9</ele>
        <time>2020-06-07T13:57:50Z</time>
      </trkpt>
      <trkpt lat="47.81701" lon="-3.65083">
        <ele>27.8</ele>
        <time>2020-06-07T13:57:51Z</time>
      </trkpt>
      <trkpt lat="47.81704" lon="-3.65092">
        <ele>27.7</ele>
        <time>2020-06-07T13:57:52Z</time>
      </trkpt>
      <trkpt lat="47.81706" lon="-3.65101">
        <ele>27.6</ele>
        <time>2020-06-07T13:57:53Z</time>
      </trkpt>
      <trkpt lat="47.81709" lon="-3.65112">
        <ele>27.6</ele>
        <time>2020-06-07T13:57:54Z</time>
      </trkpt>
      <trkpt lat="47.81713" lon="-3.65121">
        <ele>27.5</ele>
        <time>2020-06-07T13:57:55Z</time>
      </trkpt>
      <trkpt lat="47.81716" lon="-3.65131">
        <ele>27.4</ele>
        <time>2020-06-07T13:57:56Z</time>
      </trkpt>
      <trkpt lat="47.8172" lon="-3.6514">
        <ele>27.3</ele>
        <time>2020-06-07T13:57:57Z</time>
      </trkpt>
      <trkpt lat="47.81724" lon="-3.6515">
        <ele>27.2</ele>
        <time>2020-06-07T13:57:58Z</time>
      </trkpt>
      <trkpt lat="47.81727" lon="-3.65159">
        <ele>27.1</ele>
        <time>2020-06-07T13:57:59Z</time>
      </trkpt>
      <trkpt lat="47.8173" lon="-3.65169">
        <ele>27</ele>
        <time>2020-06-07T13:58:00Z</time>
      </trkpt>
      <trkpt lat="47.81733" lon="-3.65178">
        <ele>26.8</ele>
        <time>2020-06-07T13:58:01Z</time>
      </trkpt>
      <trkpt lat="47.81737" lon="-3.65187">
        <ele>26.7</ele>
        <time>2020-06-07T13:58:02Z</time>
      </trkpt>
      <trkpt lat="47.81741" lon="-3.65197">
        <ele>26.6</ele>
        <time>2020-06-07T13:58:03Z</time>
      </trkpt>
      <trkpt lat="47.81745" lon="-3.65206">
        <ele>26.5</ele>
        <time>2020-06-07T13:58:04Z</time>
      </trkpt>
      <trkpt lat="47.81749" lon="-3.65215">
        <ele>26.4</ele>
        <time>2020-06-07T13:58:05Z</time>
      </trkpt>
      <trkpt lat="47.81753" lon="-3.65224">
        <ele>26.2</ele>
        <time>2020-06-07T13:58:06Z</time>
      </trkpt>
      <trkpt lat="47.81757" lon="-3.65233">
        <ele>26.1</ele>
        <time>2020-06-07T13:58:07Z</time>
      </trkpt>
      <trkpt lat="47.81762" lon="-3.65242">
        <ele>25.9</ele>
        <time>2020-06-07T13:58:08Z</time>
      </trkpt>
      <trkpt lat="47.81767" lon="-3.65251">
        <ele>25.8</ele>
        <time>2020-06-07T13:58:09Z</time>
      </trkpt>
      <trkpt lat="47.81772" lon="-3.65259">
        <ele>25.6</ele>
        <time>2020-06-07T13:58:10Z</time>
      </trkpt>
      <trkpt lat="47.81779" lon="-3.65266">
        <ele>25.2</ele>
        <time>2020-06-07T13:58:11Z</time>
      </trkpt>
      <trkpt lat="47.81785" lon="-3.65273">
        <ele>24.8</ele>
        <time>2020-06-07T13:58:12Z</time>
      </trkpt>
      <trkpt lat="47.81791" lon="-3.65279">
        <ele>24.4</ele>
        <time>2020-06-07T13:58:13Z</time>
      </trkpt>
      <trkpt lat="47.81797" lon="-3.65286">
        <ele>24</ele>
        <time>2020-06-07T13:58:14Z</time>
      </trkpt>
      <trkpt lat="47.81804" lon="-3.6529">
        <ele>23.6</ele>
        <time>2020-06-07T13:58:15Z</time>
      </trkpt>
      <trkpt lat="47.81812" lon="-3.65295">
        <ele>23.1</ele>
        <time>2020-06-07T13:58:16Z</time>
      </trkpt>
      <trkpt lat="47.8182" lon="-3.65298">
        <ele>22.6</ele>
        <time>2020-06-07T13:58:17Z</time>
      </trkpt>
      <trkpt lat="47.81827" lon="-3.653">
        <ele>22.2</ele>
        <time>2020-06-07T13:58:18Z</time>
      </trkpt>
      <trkpt lat="47.81835" lon="-3.65301">
        <ele>21.8</ele>
        <time>2020-06-07T13:58:19Z</time>
      </trkpt>
      <trkpt lat="47.81843" lon="-3.653">
        <ele>21.3</ele>
        <time>2020-06-07T13:58:20Z</time>
      </trkpt>
      <trkpt lat="47.81851" lon="-3.65297">
        <ele>20.8</ele>
        <time>2020-06-07T13:58:21Z</time>
      </trkpt>
      <trkpt lat="47.81859" lon="-3.65293">
        <ele>20.3</ele>
        <time>2020-06-07T13:58:22Z</time>
      </trkpt>
      <trkpt lat="47.81867" lon="-3.65288">
        <ele>19.8</ele>
        <time>2020-06-07T13:58:23Z</time>
      </trkpt>
      <trkpt lat="47.81875" lon="-3.65284">
        <ele>19.2</ele>
        <time>2020-06-07T13:58:24Z</time>
      </trkpt>
      <trkpt lat="47.81883" lon="-3.65278">
        <ele>18.5</ele>
        <time>2020-06-07T13:58:25Z</time>
      </trkpt>
      <trkpt lat="47.81891" lon="-3.65272">
        <ele>17.9</ele>
        <time>2020-06-07T13:58:26Z</time>
      </trkpt>
      <trkpt lat="47.81899" lon="-3.65265">
        <ele>17.3</ele>
        <time>2020-06-07T13:58:27Z</time>
      </trkpt>
      <trkpt lat="47.81908" lon="-3.65258">
        <ele>16.6</ele>
        <time>2020-06-07T13:58:28Z</time>
      </trkpt>
      <trkpt lat="47.81915" lon="-3.65247">
        <ele>16</ele>
        <time>2020-06-07T13:58:29Z</time>
      </trkpt>
      <trkpt lat="47.81922" lon="-3.65235">
        <ele>15.3</ele>
        <time>2020-06-07T13:58:30Z</time>
      </trkpt>
      <trkpt lat="47.8193" lon="-3.65222">
        <ele>14.6</ele>
        <time>2020-06-07T13:58:31Z</time>
      </trkpt>
      <trkpt lat="47.81937" lon="-3.65208">
        <ele>14</ele>
        <time>2020-06-07T13:58:32Z</time>
      </trkpt>
      <trkpt lat="47.81944" lon="-3.65195">
        <ele>13.3</ele>
        <time>2020-06-07T13:58:33Z</time>
      </trkpt>
      <trkpt lat="47.81951" lon="-3.65182">
        <ele>12.7</ele>
        <time>2020-06-07T13:58:34Z</time>
      </trkpt>
      <trkpt lat="47.81959" lon="-3.65169">
        <ele>12</ele>
        <time>2020-06-07T13:58:35Z</time>
      </trkpt>
      <trkpt lat="47.81966" lon="-3.65155">
        <ele>11.6</ele>
        <time>2020-06-07T13:58:36Z</time>
      </trkpt>
      <trkpt lat="47.81974" lon="-3.65142">
        <ele>11.2</ele>
        <time>2020-06-07T13:58:37Z</time>
      </trkpt>
      <trkpt lat="47.81982" lon="-3.65129">
        <ele>10.4</ele>
        <time>2020-06-07T13:58:38Z</time>
      </trkpt>
      <trkpt lat="47.81992" lon="-3.65119">
        <ele>9.7</ele>
        <time>2020-06-07T13:58:39Z</time>
      </trkpt>
      <trkpt lat="47.82001" lon="-3.65109">
        <ele>8.9</ele>
        <time>2020-06-07T13:58:40Z</time>
      </trkpt>
      <trkpt lat="47.82012" lon="-3.65101">
        <ele>8.1</ele>
        <time>2020-06-07T13:58:41Z</time>
      </trkpt>
      <trkpt lat="47.82024" lon="-3.65096">
        <ele>7.4</ele>
        <time>2020-06-07T13:58:42Z</time>
      </trkpt>
      <trkpt lat="47.82037" lon="-3.65092">
        <ele>6.8</ele>
        <time>2020-06-07T13:58:43Z</time>
      </trkpt>
      <trkpt lat="47.82048" lon="-3.65089">
        <ele>6.2</ele>
        <time>2020-06-07T13:58:44Z</time>
      </trkpt>
      <trkpt lat="47.8206" lon="-3.65088">
        <ele>5.6</ele>
        <time>2020-06-07T13:58:45Z</time>
      </trkpt>
      <trkpt lat="47.82072" lon="-3.6509">
        <ele>5.1</ele>
        <time>2020-06-07T13:58:46Z</time>
      </trkpt>
      <trkpt lat="47.82083" lon="-3.65093">
        <ele>4.7</ele>
        <time>2020-06-07T13:58:47Z</time>
      </trkpt>
      <trkpt lat="47.82095" lon="-3.65093">
        <ele>4.4</ele>
        <time>2020-06-07T13:58:48Z</time>
      </trkpt>
      <trkpt lat="47.82106" lon="-3.65096">
        <ele>4.2</ele>
        <time>2020-06-07T13:58:49Z</time>
      </trkpt>
      <trkpt lat="47.82118" lon="-3.65097">
        <ele>4.2</ele>
        <time>2020-06-07T13:58:50Z</time>
      </trkpt>
      <trkpt lat="47.82129" lon="-3.65098">
        <ele>4.2</ele>
        <time>2020-06-07T13:58:51Z</time>
      </trkpt>
      <trkpt lat="47.82139" lon="-3.651">
        <ele>4.4</ele>
        <time>2020-06-07T13:58:52Z</time>
      </trkpt>
      <trkpt lat="47.82149" lon="-3.65101">
        <ele>4.6</ele>
        <time>2020-06-07T13:58:53Z</time>
      </trkpt>
      <trkpt lat="47.82158" lon="-3.65104">
        <ele>4.8</ele>
        <time>2020-06-07T13:58:54Z</time>
      </trkpt>
      <trkpt lat="47.82166" lon="-3.65109">
        <ele>5.1</ele>
        <time>2020-06-07T13:58:55Z</time>
      </trkpt>
      <trkpt lat="47.82173" lon="-3.65114">
        <ele>5.3</ele>
        <time>2020-06-07T13:58:56Z</time>
      </trkpt>
      <trkpt lat="47.8218" lon="-3.65123">
        <ele>5.5</ele>
        <time>2020-06-07T13:58:57Z</time>
      </trkpt>
      <trkpt lat="47.82185" lon="-3.6513">
        <ele>5.3</ele>
        <time>2020-06-07T13:58:58Z</time>
      </trkpt>
      <trkpt lat="47.8219" lon="-3.65137">
        <ele>5.3</ele>
        <time>2020-06-07T13:58:59Z</time>
      </trkpt>
      <trkpt lat="47.82195" lon="-3.65145">
        <ele>5.2</ele>
        <time>2020-06-07T13:59:00Z</time>
      </trkpt>
      <trkpt lat="47.822" lon="-3.65152">
        <ele>5.1</ele>
        <time>2020-06-07T13:59:01Z</time>
      </trkpt>
      <trkpt lat="47.82204" lon="-3.65159">
        <ele>5.1</ele>
        <time>2020-06-07T13:59:02Z</time>
      </trkpt>
      <trkpt lat="47.82209" lon="-3.65166">
        <ele>5.1</ele>
        <time>2020-06-07T13:59:03Z</time>
      </trkpt>
      <trkpt lat="47.82213" lon="-3.65172">
        <ele>5.1</ele>
        <time>2020-06-07T13:59:04Z</time>
      </trkpt>
      <trkpt lat="47.82217" lon="-3.65179">
        <ele>5.2</ele>
        <time>2020-06-07T13:59:05Z</time>
      </trkpt>
      <trkpt lat="47.82221" lon="-3.65186">
        <ele>5.2</ele>
        <time>2020-06-07T13:59:06Z</time>
      </trkpt>
      <trkpt lat="47.82224" lon="-3.65193">
        <ele>5.2</ele>
        <time>2020-06-07T13:59:07Z</time>
      </trkpt>
      <trkpt lat="47.82227" lon="-3.652">
        <ele>5.2</ele>
        <time>2020-06-07T13:59:08Z</time>
      </trkpt>
      <trkpt lat="47.82231" lon="-3.65208">
        <ele>5.2</ele>
        <time>2020-06-07T13:59:09Z</time>
      </trkpt>
      <trkpt lat="47.82234" lon="-3.65214">
        <ele>5.2</ele>
        <time>2020-06-07T13:59:10Z</time>
      </trkpt>
      <trkpt lat="47.82238" lon="-3.6522">
        <ele>5.3</ele>
        <time>2020-06-07T13:59:11Z</time>
      </trkpt>
      <trkpt lat="47.82242" lon="-3.65227">
        <ele>5.3</ele>
        <time>2020-06-07T13:59:12Z</time>
      </trkpt>
      <trkpt lat="47.82245" lon="-3.65233">
        <ele>5.4</ele>
        <time>2020-06-07T13:59:13Z</time>
      </trkpt>
      <trkpt lat="47.82249" lon="-3.65239">
        <ele>5.5</ele>
        <time>2020-06-07T13:59:14Z</time>
      </trkpt>
      <trkpt lat="47.82252" lon="-3.65244">
        <ele>5.5</ele>
        <time>2020-06-07T13:59:15Z</time>
      </trkpt>
      <trkpt lat="47.82255" lon="-3.6525">
        <ele>5.6</ele>
        <time>2020-06-07T13:59:16Z</time>
      </trkpt>
      <trkpt lat="47.82258" lon="-3.65255">
        <ele>5.6</ele>
        <time>2020-06-07T13:59:17Z</time>
      </trkpt>
      <trkpt lat="47.82261" lon="-3.65259">
        <ele>5.7</ele>
        <time>2020-06-07T13:59:18Z</time>
      </trkpt>
      <trkpt lat="47.82264" lon="-3.65263">
        <ele>5.7</ele>
        <time>2020-06-07T13:59:19Z</time>
      </trkpt>
      <trkpt lat="47.82267" lon="-3.65267">
        <ele>5.7</ele>
        <time>2020-06-07T13:59:20Z</time>
      </trkpt>
      <trkpt lat="47.82269" lon="-3.65272">
        <ele>5.8</ele>
        <time>2020-06-07T13:59:21Z</time>
      </trkpt>
      <trkpt lat="47.82272" lon="-3.65277">
        <ele>5.9</ele>
        <time>2020-06-07T13:59:22Z</time>
      </trkpt>
      <trkpt lat="47.82274" lon="-3.65283">
        <ele>6</ele>
        <time>2020-06-07T13:59:23Z</time>
      </trkpt>
      <trkpt lat="47.82277" lon="-3.65289">
        <ele>6.1</ele>
        <time>2020-06-07T13:59:24Z</time>
      </trkpt>
      <trkpt lat="47.82279" lon="-3.65295">
        <ele>6.3</ele>
        <time>2020-06-07T13:59:25Z</time>
      </trkpt>
      <trkpt lat="47.82284" lon="-3.653">
        <ele>6.4</ele>
        <time>2020-06-07T13:59:26Z</time>
      </trkpt>
      <trkpt lat="47.82287" lon="-3.65306">
        <ele>6.6</ele>
        <time>2020-06-07T13:59:27Z</time>
      </trkpt>
      <trkpt lat="47.82291" lon="-3.65312">
        <ele>6.7</ele>
        <time>2020-06-07T13:59:28Z</time>
      </trkpt>
      <trkpt lat="47.82294" lon="-3.65318">
        <ele>6.9</ele>
        <time>2020-06-07T13:59:29Z</time>
      </trkpt>
      <trkpt lat="47.82297" lon="-3.65325">
        <ele>7</ele>
        <time>2020-06-07T13:59:30Z</time>
      </trkpt>
      <trkpt lat="47.82301" lon="-3.65331">
        <ele>7.2</ele>
        <time>2020-06-07T13:59:31Z</time>
      </trkpt>
      <trkpt lat="47.82303" lon="-3.65337">
        <ele>7.4</ele>
        <time>2020-06-07T13:59:32Z</time>
      </trkpt>
      <trkpt lat="47.82306" lon="-3.65342">
        <ele>7.5</ele>
        <time>2020-06-07T13:59:33Z</time>
      </trkpt>
      <trkpt lat="47.82309" lon="-3.65347">
        <ele>7.6</ele>
        <time>2020-06-07T13:59:34Z</time>
      </trkpt>
      <trkpt lat="47.82312" lon="-3.65352">
        <ele>7.8</ele>
        <time>2020-06-07T13:59:35Z</time>
      </trkpt>
      <trkpt lat="47.82315" lon="-3.65356">
        <ele>7.9</ele>
        <time>2020-06-07T13:59:36Z</time>
      </trkpt>
      <trkpt lat="47.82317" lon="-3.65362">
        <ele>8.1</ele>
        <time>2020-06-07T13:59:37Z</time>
      </trkpt>
      <trkpt lat="47.8232" lon="-3.65367">
        <ele>8.2</ele>
        <time>2020-06-07T13:59:38Z</time>
      </trkpt>
      <trkpt lat="47.82323" lon="-3.65372">
        <ele>8.4</ele>
        <time>2020-06-07T13:59:39Z</time>
      </trkpt>
      <trkpt lat="47.82326" lon="-3.65376">
        <ele>8.6</ele>
        <time>2020-06-07T13:59:40Z</time>
      </trkpt>
      <trkpt lat="47.82328" lon="-3.65382">
        <ele>8.7</ele>
        <time>2020-06-07T13:59:41Z</time>
      </trkpt>
      <trkpt lat="47.8233" lon="-3.65387">
        <ele>8.8</ele>
        <time>2020-06-07T13:59:42Z</time>
      </trkpt>
      <trkpt lat="47.82333" lon="-3.65393">
        <ele>9</ele>
        <time>2020-06-07T13:59:43Z</time>
      </trkpt>
      <trkpt lat="47.82335" lon="-3.65398">
        <ele>9.1</ele>
        <time>2020-06-07T13:59:44Z</time>
      </trkpt>
      <trkpt lat="47.82338" lon="-3.65402">
        <ele>9.2</ele>
        <time>2020-06-07T13:59:45Z</time>
      </trkpt>
      <trkpt lat="47.8234" lon="-3.65407">
        <ele>9.3</ele>
        <time>2020-06-07T13:59:46Z</time>
      </trkpt>
      <trkpt lat="47.82343" lon="-3.65413">
        <ele>9.4</ele>
        <time>2020-06-07T13:59:47Z</time>
      </trkpt>
      <trkpt lat="47.82346" lon="-3.65418">
        <ele>9.6</ele>
        <time>2020-06-07T13:59:48Z</time>
      </trkpt>
      <trkpt lat="47.82348" lon="-3.65422">
        <ele>9.7</ele>
        <time>2020-06-07T13:59:49Z</time>
      </trkpt>
      <trkpt lat="47.82352" lon="-3.65427">
        <ele>9.8</ele>
        <time>2020-06-07T13:59:50Z</time>
      </trkpt>
      <trkpt lat="47.82355" lon="-3.65432">
        <ele>9.9</ele>
        <time>2020-06-07T13:59:51Z</time>
      </trkpt>
      <trkpt lat="47.82359" lon="-3.65436">
        <ele>10</ele>
        <time>2020-06-07T13:59:52Z</time>
      </trkpt>
      <trkpt lat="47.82362" lon="-3.65441">
        <ele>10.1</ele>
        <time>2020-06-07T13:59:53Z</time>
      </trkpt>
      <trkpt lat="47.82364" lon="-3.65447">
        <ele>10.2</ele>
        <time>2020-06-07T13:59:54Z</time>
      </trkpt>
      <trkpt lat="47.82367" lon="-3.65454">
        <ele>10.3</ele>
        <time>2020-06-07T13:59:55Z</time>
      </trkpt>
      <trkpt lat="47.82369" lon="-3.65461">
        <ele>10.3</ele>
        <time>2020-06-07T13:59:56Z</time>
      </trkpt>
      <trkpt lat="47.82372" lon="-3.65467">
        <ele>10.4</ele>
        <time>2020-06-07T13:59:57Z</time>
      </trkpt>
      <trkpt lat="47.82374" lon="-3.65472">
        <ele>10.5</ele>
        <time>2020-06-07T13:59:58Z</time>
      </trkpt>
      <trkpt lat="47.82377" lon="-3.65478">
        <ele>10.5</ele>
        <time>2020-06-07T13:59:59Z</time>
      </trkpt>
      <trkpt lat="47.8238" lon="-3.65485">
        <ele>10.6</ele>
        <time>2020-06-07T14:00:00Z</time>
      </trkpt>
      <trkpt lat="47.82382" lon="-3.6549">
        <ele>10.6</ele>
        <time>2020-06-07T14:00:01Z</time>
      </trkpt>
      <trkpt lat="47.82384" lon="-3.65496">
        <ele>10.6</ele>
        <time>2020-06-07T14:00:02Z</time>
      </trkpt>
      <trkpt lat="47.82386" lon="-3.65501">
        <ele>10.7</ele>
        <time>2020-06-07T14:00:03Z</time>
      </trkpt>
      <trkpt lat="47.82389" lon="-3.65507">
        <ele>10.7</ele>
        <time>2020-06-07T14:00:04Z</time>
      </trkpt>
      <trkpt lat="47.82391" lon="-3.65513">
        <ele>10.7</ele>
        <time>2020-06-07T14:00:05Z</time>
      </trkpt>
      <trkpt lat="47.82394" lon="-3.65521">
        <ele>10.7</ele>
        <time>2020-06-07T14:00:06Z</time>
      </trkpt>
      <trkpt lat="47.82398" lon="-3.65529">
        <ele>10.7</ele>
        <time>2020-06-07T14:00:07Z</time>
      </trkpt>
      <trkpt lat="47.82399" lon="-3.65535">
        <ele>10.7</ele>
        <time>2020-06-07T14:00:08Z</time>
      </trkpt>
      <trkpt lat="47.82402" lon="-3.65542">
        <ele>10.7</ele>
        <time>2020-06-07T14:00:09Z</time>
      </trkpt>
      <trkpt lat="47.82405" lon="-3.6555">
        <ele>10.7</ele>
        <time>2020-06-07T14:00:10Z</time>
      </trkpt>
      <trkpt lat="47.82407" lon="-3.65557">
        <ele>10.7</ele>
        <time>2020-06-07T14:00:11Z</time>
      </trkpt>
      <trkpt lat="47.82408" lon="-3.65562">
        <ele>10.7</ele>
        <time>2020-06-07T14:00:12Z</time>
      </trkpt>
      <trkpt lat="47.82409" lon="-3.6557">
        <ele>10.7</ele>
        <time>2020-06-07T14:00:13Z</time>
      </trkpt>
      <trkpt lat="47.82411" lon="-3.65576">
        <ele>10.7</ele>
        <time>2020-06-07T14:00:14Z</time>
      </trkpt>
      <trkpt lat="47.82413" lon="-3.65584">
        <ele>10.7</ele>
        <time>2020-06-07T14:00:15Z</time>
      </trkpt>
      <trkpt lat="47.82415" lon="-3.65592">
        <ele>10.7</ele>
        <time>2020-06-07T14:00:16Z</time>
      </trkpt>
      <trkpt lat="47.82416" lon="-3.656">
        <ele>10.7</ele>
        <time>2020-06-07T14:00:17Z</time>
      </trkpt>
      <trkpt lat="47.82419" lon="-3.65607">
        <ele>10.8</ele>
        <time>2020-06-07T14:00:18Z</time>
      </trkpt>
      <trkpt lat="47.8242" lon="-3.65614">
        <ele>10.7</ele>
        <time>2020-06-07T14:00:19Z</time>
      </trkpt>
      <trkpt lat="47.82422" lon="-3.6562">
        <ele>10.7</ele>
        <time>2020-06-07T14:00:20Z</time>
      </trkpt>
      <trkpt lat="47.82423" lon="-3.65628">
        <ele>10.7</ele>
        <time>2020-06-07T14:00:21Z</time>
      </trkpt>
      <trkpt lat="47.82425" lon="-3.65636">
        <ele>10.7</ele>
        <time>2020-06-07T14:00:22Z</time>
      </trkpt>
      <trkpt lat="47.82427" lon="-3.65646">
        <ele>10.6</ele>
        <time>2020-06-07T14:00:23Z</time>
      </trkpt>
      <trkpt lat="47.82429" lon="-3.65655">
        <ele>10.6</ele>
        <time>2020-06-07T14:00:24Z</time>
      </trkpt>
      <trkpt lat="47.8243" lon="-3.65662">
        <ele>10.6</ele>
        <time>2020-06-07T14:00:25Z</time>
      </trkpt>
      <trkpt lat="47.82431" lon="-3.6567">
        <ele>10.6</ele>
        <time>2020-06-07T14:00:26Z</time>
      </trkpt>
      <trkpt lat="47.82433" lon="-3.65678">
        <ele>10.5</ele>
        <time>2020-06-07T14:00:27Z</time>
      </trkpt>
      <trkpt lat="47.82435" lon="-3.65686">
        <ele>10.5</ele>
        <time>2020-06-07T14:00:28Z</time>
      </trkpt>
      <trkpt lat="47.82437" lon="-3.65694">
        <ele>10.5</ele>
        <time>2020-06-07T14:00:29Z</time>
      </trkpt>
      <trkpt lat="47.82439" lon="-3.65701">
        <ele>10.5</ele>
        <time>2020-06-07T14:00:30Z</time>
      </trkpt>
      <trkpt lat="47.82441" lon="-3.65708">
        <ele>10.5</ele>
        <time>2020-06-07T14:00:31Z</time>
      </trkpt>
      <trkpt lat="47.82443" lon="-3.65714">
        <ele>10.5</ele>
        <time>2020-06-07T14:00:32Z</time>
      </trkpt>
      <trkpt lat="47.82445" lon="-3.65723">
        <ele>10.5</ele>
        <time>2020-06-07T14:00:33Z</time>
      </trkpt>
      <trkpt lat="47.82447" lon="-3.65731">
        <ele>10.4</ele>
        <time>2020-06-07T14:00:34Z</time>
      </trkpt>
      <trkpt lat="47.82448" lon="-3.65738">
        <ele>10.4</ele>
        <time>2020-06-07T14:00:35Z</time>
      </trkpt>
      <trkpt lat="47.82451" lon="-3.65746">
        <ele>10.4</ele>
        <time>2020-06-07T14:00:36Z</time>
      </trkpt>
      <trkpt lat="47.82453" lon="-3.65754">
        <ele>10.4</ele>
        <time>2020-06-07T14:00:37Z</time>
      </trkpt>
      <trkpt lat="47.82455" lon="-3.65763">
        <ele>10.4</ele>
        <time>2020-06-07T14:00:38Z</time>
      </trkpt>
      <trkpt lat="47.82456" lon="-3.65772">
        <ele>10.4</ele>
        <time>2020-06-07T14:00:39Z</time>
      </trkpt>
      <trkpt lat="47.82458" lon="-3.6578">
        <ele>10.3</ele>
        <time>2020-06-07T14:00:40Z</time>
      </trkpt>
      <trkpt lat="47.82461" lon="-3.65789">
        <ele>10.3</ele>
        <time>2020-06-07T14:00:41Z</time>
      </trkpt>
      <trkpt lat="47.82463" lon="-3.65797">
        <ele>10.2</ele>
        <time>2020-06-07T14:00:42Z</time>
      </trkpt>
      <trkpt lat="47.82464" lon="-3.65803">
        <ele>10.2</ele>
        <time>2020-06-07T14:00:43Z</time>
      </trkpt>
      <trkpt lat="47.82466" lon="-3.65809">
        <ele>10.1</ele>
        <time>2020-06-07T14:00:44Z</time>
      </trkpt>
      <trkpt lat="47.82468" lon="-3.65817">
        <ele>10.1</ele>
        <time>2020-06-07T14:00:45Z</time>
      </trkpt>
      <trkpt lat="47.8247" lon="-3.65824">
        <ele>10.1</ele>
        <time>2020-06-07T14:00:46Z</time>
      </trkpt>
      <trkpt lat="47.82472" lon="-3.65831">
        <ele>10</ele>
        <time>2020-06-07T14:00:47Z</time>
      </trkpt>
      <trkpt lat="47.82474" lon="-3.6584">
        <ele>10</ele>
        <time>2020-06-07T14:00:48Z</time>
      </trkpt>
      <trkpt lat="47.82476" lon="-3.65847">
        <ele>9.9</ele>
        <time>2020-06-07T14:00:49Z</time>
      </trkpt>
      <trkpt lat="47.82478" lon="-3.65855">
        <ele>9.9</ele>
        <time>2020-06-07T14:00:50Z</time>
      </trkpt>
      <trkpt lat="47.8248" lon="-3.65864">
        <ele>10.1</ele>
        <time>2020-06-07T14:00:51Z</time>
      </trkpt>
      <trkpt lat="47.82481" lon="-3.65874">
        <ele>10.2</ele>
        <time>2020-06-07T14:00:52Z</time>
      </trkpt>
      <trkpt lat="47.82482" lon="-3.65883">
        <ele>10.3</ele>
        <time>2020-06-07T14:00:53Z</time>
      </trkpt>
      <trkpt lat="47.82483" lon="-3.6589">
        <ele>10.4</ele>
        <time>2020-06-07T14:00:54Z</time>
      </trkpt>
      <trkpt lat="47.82484" lon="-3.65897">
        <ele>10.5</ele>
        <time>2020-06-07T14:00:55Z</time>
      </trkpt>
      <trkpt lat="47.82485" lon="-3.65906">
        <ele>10.6</ele>
        <time>2020-06-07T14:00:56Z</time>
      </trkpt>
      <trkpt lat="47.82486" lon="-3.65914">
        <ele>10.7</ele>
        <time>2020-06-07T14:00:57Z</time>
      </trkpt>
      <trkpt lat="47.82487" lon="-3.65922">
        <ele>10.8</ele>
        <time>2020-06-07T14:00:58Z</time>
      </trkpt>
      <trkpt lat="47.82487" lon="-3.6593">
        <ele>10.9</ele>
        <time>2020-06-07T14:00:59Z</time>
      </trkpt>
      <trkpt lat="47.82488" lon="-3.65939">
        <ele>11.1</ele>
        <time>2020-06-07T14:01:00Z</time>
      </trkpt>
      <trkpt lat="47.82489" lon="-3.65947">
        <ele>11.2</ele>
        <time>2020-06-07T14:01:01Z</time>
      </trkpt>
      <trkpt lat="47.82489" lon="-3.65955">
        <ele>11.4</ele>
        <time>2020-06-07T14:01:02Z</time>
      </trkpt>
      <trkpt lat="47.8249" lon="-3.65961">
        <ele>11.5</ele>
        <time>2020-06-07T14:01:03Z</time>
      </trkpt>
      <trkpt lat="47.8249" lon="-3.65969">
        <ele>11.7</ele>
        <time>2020-06-07T14:01:04Z</time>
      </trkpt>
      <trkpt lat="47.82491" lon="-3.65976">
        <ele>11.9</ele>
        <time>2020-06-07T14:01:05Z</time>
      </trkpt>
      <trkpt lat="47.82491" lon="-3.65982">
        <ele>12</ele>
        <time>2020-06-07T14:01:06Z</time>
      </trkpt>
      <trkpt lat="47.82492" lon="-3.65988">
        <ele>12.2</ele>
        <time>2020-06-07T14:01:07Z</time>
      </trkpt>
      <trkpt lat="47.82493" lon="-3.65996">
        <ele>12.4</ele>
        <time>2020-06-07T14:01:08Z</time>
      </trkpt>
      <trkpt lat="47.82494" lon="-3.66002">
        <ele>12.5</ele>
        <time>2020-06-07T14:01:09Z</time>
      </trkpt>
      <trkpt lat="47.82496" lon="-3.66009">
        <ele>12.7</ele>
        <time>2020-06-07T14:01:10Z</time>
      </trkpt>
      <trkpt lat="47.82497" lon="-3.66017">
        <ele>12.9</ele>
        <time>2020-06-07T14:01:11Z</time>
      </trkpt>
      <trkpt lat="47.82498" lon="-3.66023">
        <ele>13.1</ele>
        <time>2020-06-07T14:01:12Z</time>
      </trkpt>
      <trkpt lat="47.82499" lon="-3.66029">
        <ele>13.3</ele>
        <time>2020-06-07T14:01:13Z</time>
      </trkpt>
      <trkpt lat="47.825" lon="-3.66037">
        <ele>13.5</ele>
        <time>2020-06-07T14:01:14Z</time>
      </trkpt>
      <trkpt lat="47.825" lon="-3.66044">
        <ele>13.7</ele>
        <time>2020-06-07T14:01:15Z</time>
      </trkpt>
      <trkpt lat="47.82501" lon="-3.66052">
        <ele>13.8</ele>
        <time>2020-06-07T14:01:16Z</time>
      </trkpt>
      <trkpt lat="47.82502" lon="-3.66059">
        <ele>14</ele>
        <time>2020-06-07T14:01:17Z</time>
      </trkpt>
      <trkpt lat="47.82503" lon="-3.66066">
        <ele>14.2</ele>
        <time>2020-06-07T14:01:18Z</time>
      </trkpt>
      <trkpt lat="47.82504" lon="-3.66072">
        <ele>14.3</ele>
        <time>2020-06-07T14:01:19Z</time>
      </trkpt>
      <trkpt lat="47.82505" lon="-3.66077">
        <ele>14.4</ele>
        <time>2020-06-07T14:01:20Z</time>
      </trkpt>
      <trkpt lat="47.82506" lon="-3.66083">
        <ele>14.5</ele>
        <time>2020-06-07T14:01:21Z</time>
      </trkpt>
      <trkpt lat="47.82507" lon="-3.66092">
        <ele>14.6</ele>
        <time>2020-06-07T14:01:22Z</time>
      </trkpt>
      <trkpt lat="47.82508" lon="-3.66099">
        <ele>14.7</ele>
        <time>2020-06-07T14:01:23Z</time>
      </trkpt>
      <trkpt lat="47.82509" lon="-3.66104">
        <ele>14.8</ele>
        <time>2020-06-07T14:01:24Z</time>
      </trkpt>
      <trkpt lat="47.8251" lon="-3.66112">
        <ele>14.9</ele>
        <time>2020-06-07T14:01:25Z</time>
      </trkpt>
      <trkpt lat="47.82511" lon="-3.6612">
        <ele>14.9</ele>
        <time>2020-06-07T14:01:26Z</time>
      </trkpt>
      <trkpt lat="47.82511" lon="-3.66128">
        <ele>14.9</ele>
        <time>2020-06-07T14:01:27Z</time>
      </trkpt>
      <trkpt lat="47.82511" lon="-3.66136">
        <ele>14.9</ele>
        <time>2020-06-07T14:01:28Z</time>
      </trkpt>
      <trkpt lat="47.82511" lon="-3.66142">
        <ele>14.9</ele>
        <time>2020-06-07T14:01:29Z</time>
      </trkpt>
      <trkpt lat="47.8251" lon="-3.66149">
        <ele>14.9</ele>
        <time>2020-06-07T14:01:30Z</time>
      </trkpt>
      <trkpt lat="47.8251" lon="-3.66156">
        <ele>14.8</ele>
        <time>2020-06-07T14:01:31Z</time>
      </trkpt>
      <trkpt lat="47.82511" lon="-3.66163">
        <ele>14.8</ele>
        <time>2020-06-07T14:01:32Z</time>
      </trkpt>
      <trkpt lat="47.82511" lon="-3.66172">
        <ele>14.7</ele>
        <time>2020-06-07T14:01:33Z</time>
      </trkpt>
      <trkpt lat="47.82512" lon="-3.6618">
        <ele>14.7</ele>
        <time>2020-06-07T14:01:34Z</time>
      </trkpt>
      <trkpt lat="47.82513" lon="-3.66189">
        <ele>14.5</ele>
        <time>2020-06-07T14:01:35Z</time>
      </trkpt>
      <trkpt lat="47.82515" lon="-3.66196">
        <ele>14.4</ele>
        <time>2020-06-07T14:01:36Z</time>
      </trkpt>
      <trkpt lat="47.82515" lon="-3.66204">
        <ele>14.3</ele>
        <time>2020-06-07T14:01:37Z</time>
      </trkpt>
      <trkpt lat="47.82515" lon="-3.66211">
        <ele>14.2</ele>
        <time>2020-06-07T14:01:38Z</time>
      </trkpt>
      <trkpt lat="47.82515" lon="-3.66217">
        <ele>14.1</ele>
        <time>2020-06-07T14:01:39Z</time>
      </trkpt>
      <trkpt lat="47.82516" lon="-3.66225">
        <ele>13.9</ele>
        <time>2020-06-07T14:01:40Z</time>
      </trkpt>
      <trkpt lat="47.82517" lon="-3.66232">
        <ele>13.7</ele>
        <time>2020-06-07T14:01:41Z</time>
      </trkpt>
      <trkpt lat="47.82517" lon="-3.6624">
        <ele>13.5</ele>
        <time>2020-06-07T14:01:42Z</time>
      </trkpt>
      <trkpt lat="47.82518" lon="-3.66249">
        <ele>13.3</ele>
        <time>2020-06-07T14:01:43Z</time>
      </trkpt>
      <trkpt lat="47.82518" lon="-3.66258">
        <ele>13</ele>
        <time>2020-06-07T14:01:44Z</time>
      </trkpt>
      <trkpt lat="47.82519" lon="-3.66269">
        <ele>12.7</ele>
        <time>2020-06-07T14:01:45Z</time>
      </trkpt>
      <trkpt lat="47.82519" lon="-3.66279">
        <ele>12.3</ele>
        <time>2020-06-07T14:01:46Z</time>
      </trkpt>
      <trkpt lat="47.82519" lon="-3.66291">
        <ele>11.9</ele>
        <time>2020-06-07T14:01:47Z</time>
      </trkpt>
      <trkpt lat="47.8252" lon="-3.66302">
        <ele>11.5</ele>
        <time>2020-06-07T14:01:48Z</time>
      </trkpt>
      <trkpt lat="47.82521" lon="-3.66311">
        <ele>11.1</ele>
        <time>2020-06-07T14:01:49Z</time>
      </trkpt>
      <trkpt lat="47.82522" lon="-3.6632">
        <ele>10.7</ele>
        <time>2020-06-07T14:01:50Z</time>
      </trkpt>
      <trkpt lat="47.82523" lon="-3.66331">
        <ele>10.2</ele>
        <time>2020-06-07T14:01:51Z</time>
      </trkpt>
      <trkpt lat="47.82524" lon="-3.66342">
        <ele>9.7</ele>
        <time>2020-06-07T14:01:52Z</time>
      </trkpt>
      <trkpt lat="47.82525" lon="-3.66354">
        <ele>9.1</ele>
        <time>2020-06-07T14:01:53Z</time>
      </trkpt>
      <trkpt lat="47.82526" lon="-3.66368">
        <ele>8.4</ele>
        <time>2020-06-07T14:01:54Z</time>
      </trkpt>
      <trkpt lat="47.82527" lon="-3.66381">
        <ele>7.9</ele>
        <time>2020-06-07T14:01:55Z</time>
      </trkpt>
      <trkpt lat="47.82528" lon="-3.66393">
        <ele>7.4</ele>
        <time>2020-06-07T14:01:56Z</time>
      </trkpt>
      <trkpt lat="47.8253" lon="-3.66406">
        <ele>6.8</ele>
        <time>2020-06-07T14:01:57Z</time>
      </trkpt>
      <trkpt lat="47.82531" lon="-3.66419">
        <ele>6.3</ele>
        <time>2020-06-07T14:01:58Z</time>
      </trkpt>
      <trkpt lat="47.82532" lon="-3.66433">
        <ele>5.8</ele>
        <time>2020-06-07T14:01:59Z</time>
      </trkpt>
      <trkpt lat="47.82533" lon="-3.66446">
        <ele>5.3</ele>
        <time>2020-06-07T14:02:00Z</time>
      </trkpt>
      <trkpt lat="47.82534" lon="-3.66459">
        <ele>4.9</ele>
        <time>2020-06-07T14:02:01Z</time>
      </trkpt>
      <trkpt lat="47.82534" lon="-3.66473">
        <ele>4.6</ele>
        <time>2020-06-07T14:02:02Z</time>
      </trkpt>
      <trkpt lat="47.82536" lon="-3.66486">
        <ele>4.3</ele>
        <time>2020-06-07T14:02:03Z</time>
      </trkpt>
      <trkpt lat="47.82537" lon="-3.66499">
        <ele>4.1</ele>
        <time>2020-06-07T14:02:04Z</time>
      </trkpt>
      <trkpt lat="47.82538" lon="-3.66512">
        <ele>4</ele>
        <time>2020-06-07T14:02:05Z</time>
      </trkpt>
      <trkpt lat="47.82538" lon="-3.66525">
        <ele>3.8</ele>
        <time>2020-06-07T14:02:06Z</time>
      </trkpt>
      <trkpt lat="47.8254" lon="-3.66536">
        <ele>3.7</ele>
        <time>2020-06-07T14:02:07Z</time>
      </trkpt>
      <trkpt lat="47.82542" lon="-3.66549">
        <ele>3.5</ele>
        <time>2020-06-07T14:02:08Z</time>
      </trkpt>
      <trkpt lat="47.82544" lon="-3.66561">
        <ele>3.4</ele>
        <time>2020-06-07T14:02:09Z</time>
      </trkpt>
      <trkpt lat="47.82545" lon="-3.66574">
        <ele>3.3</ele>
        <time>2020-06-07T14:02:10Z</time>
      </trkpt>
      <trkpt lat="47.82546" lon="-3.66586">
        <ele>3.3</ele>
        <time>2020-06-07T14:02:11Z</time>
      </trkpt>
      <trkpt lat="47.82547" lon="-3.66598">
        <ele>3.2</ele>
        <time>2020-06-07T14:02:12Z</time>
      </trkpt>
      <trkpt lat="47.82548" lon="-3.6661">
        <ele>3.1</ele>
        <time>2020-06-07T14:02:13Z</time>
      </trkpt>
      <trkpt lat="47.82549" lon="-3.66622">
        <ele>3</ele>
        <time>2020-06-07T14:02:14Z</time>
      </trkpt>
      <trkpt lat="47.8255" lon="-3.66633">
        <ele>3</ele>
        <time>2020-06-07T14:02:15Z</time>
      </trkpt>
      <trkpt lat="47.82551" lon="-3.66645">
        <ele>3</ele>
        <time>2020-06-07T14:02:16Z</time>
      </trkpt>
      <trkpt lat="47.82552" lon="-3.66656">
        <ele>3</ele>
        <time>2020-06-07T14:02:17Z</time>
      </trkpt>
      <trkpt lat="47.82553" lon="-3.66667">
        <ele>3</ele>
        <time>2020-06-07T14:02:18Z</time>
      </trkpt>
      <trkpt lat="47.82554" lon="-3.66678">
        <ele>3.1</ele>
        <time>2020-06-07T14:02:19Z</time>
      </trkpt>
      <trkpt lat="47.82555" lon="-3.66689">
        <ele>3.1</ele>
        <time>2020-06-07T14:02:20Z</time>
      </trkpt>
      <trkpt lat="47.82555" lon="-3.66699">
        <ele>3.1</ele>
        <time>2020-06-07T14:02:21Z</time>
      </trkpt>
      <trkpt lat="47.82556" lon="-3.66708">
        <ele>3.2</ele>
        <time>2020-06-07T14:02:22Z</time>
      </trkpt>
      <trkpt lat="47.82557" lon="-3.66718">
        <ele>3.2</ele>
        <time>2020-06-07T14:02:23Z</time>
      </trkpt>
      <trkpt lat="47.82558" lon="-3.66727">
        <ele>3.4</ele>
        <time>2020-06-07T14:02:24Z</time>
      </trkpt>
      <trkpt lat="47.82559" lon="-3.66735">
        <ele>3.5</ele>
        <time>2020-06-07T14:02:25Z</time>
      </trkpt>
      <trkpt lat="47.82559" lon="-3.66743">
        <ele>3.7</ele>
        <time>2020-06-07T14:02:26Z</time>
      </trkpt>
      <trkpt lat="47.8256" lon="-3.6675">
        <ele>3.9</ele>
        <time>2020-06-07T14:02:27Z</time>
      </trkpt>
      <trkpt lat="47.82561" lon="-3.66758">
        <ele>4.1</ele>
        <time>2020-06-07T14:02:28Z</time>
      </trkpt>
      <trkpt lat="47.82562" lon="-3.66765">
        <ele>4.3</ele>
        <time>2020-06-07T14:02:29Z</time>
      </trkpt>
      <trkpt lat="47.82563" lon="-3.66771">
        <ele>4.5</ele>
        <time>2020-06-07T14:02:30Z</time>
      </trkpt>
      <trkpt lat="47.82565" lon="-3.66777">
        <ele>4.6</ele>
        <time>2020-06-07T14:02:31Z</time>
      </trkpt>
      <trkpt lat="47.82565" lon="-3.66782">
        <ele>4.6</ele>
        <time>2020-06-07T14:02:32Z</time>
      </trkpt>
      <trkpt lat="47.82566" lon="-3.66787">
        <ele>4.6</ele>
        <time>2020-06-07T14:02:33Z</time>
      </trkpt>
      <trkpt lat="47.82567" lon="-3.66792">
        <ele>4.6</ele>
        <time>2020-06-07T14:02:34Z</time>
      </trkpt>
      <trkpt lat="47.82567" lon="-3.66795">
        <ele>4.7</ele>
        <time>2020-06-07T14:02:35Z</time>
      </trkpt>
      <trkpt lat="47.82567" lon="-3.66797">
        <ele>4.7</ele>
        <time>2020-06-07T14:02:36Z</time>
      </trkpt>
      <trkpt lat="47.82568" lon="-3.66798">
        <ele>4.7</ele>
        <time>2020-06-07T14:02:37Z</time>
      </trkpt>
      <trkpt lat="47.82567" lon="-3.66798">
        <ele>4.7</ele>
        <time>2020-06-07T14:02:38Z</time>
      </trkpt>
      <trkpt lat="47.82567" lon="-3.66799">
        <ele>4.7</ele>
        <time>2020-06-07T14:02:39Z</time>
      </trkpt>
      <trkpt lat="47.82567" lon="-3.668">
        <ele>4.7</ele>
        <time>2020-06-07T14:02:40Z</time>
      </trkpt>
      <trkpt lat="47.82567" lon="-3.668">
        <ele>4.7</ele>
        <time>2020-06-07T14:02:41Z</time>
      </trkpt>
      <trkpt lat="47.82567" lon="-3.66801">
        <ele>4.7</ele>
        <time>2020-06-07T14:02:42Z</time>
      </trkpt>
      <trkpt lat="47.82567" lon="-3.66802">
        <ele>4.7</ele>
        <time>2020-06-07T14:02:43Z</time>
      </trkpt>
      <trkpt lat="47.82566" lon="-3.66802">
        <ele>4.7</ele>
        <time>2020-06-07T14:02:44Z</time>
      </trkpt>
      <trkpt lat="47.82566" lon="-3.66803">
        <ele>4.7</ele>
        <time>2020-06-07T14:02:45Z</time>
      </trkpt>
      <trkpt lat="47.82566" lon="-3.66804">
        <ele>4.7</ele>
        <time>2020-06-07T14:02:46Z</time>
      </trkpt>
      <trkpt lat="47.82566" lon="-3.66804">
        <ele>4.7</ele>
        <time>2020-06-07T14:02:47Z</time>
      </trkpt>
      <trkpt lat="47.82566" lon="-3.66805">
        <ele>4.7</ele>
        <time>2020-06-07T14:02:48Z</time>
      </trkpt>
      <trkpt lat="47.82566" lon="-3.66806">
        <ele>4.7</ele>
        <time>2020-06-07T14:02:49Z</time>
      </trkpt>
      <trkpt lat="47.82565" lon="-3.66806">
        <ele>4.7</ele>
        <time>2020-06-07T14:02:50Z</time>
      </trkpt>
      <trkpt lat="47.82565" lon="-3.66807">
        <ele>4.7</ele>
        <time>2020-06-07T14:02:51Z</time>
      </trkpt>
      <trkpt lat="47.82565" lon="-3.66808">
        <ele>4.7</ele>
        <time>2020-06-07T14:02:52Z</time>
      </trkpt>
      <trkpt lat="47.82565" lon="-3.66808">
        <ele>4.7</ele>
        <time>2020-06-07T14:03:15Z</time>
      </trkpt>
      <trkpt lat="47.82565" lon="-3.66809">
        <ele>4.7</ele>
        <time>2020-06-07T14:03:16Z</time>
      </trkpt>
      <trkpt lat="47.82565" lon="-3.66813">
        <ele>4.8</ele>
        <time>2020-06-07T14:03:17Z</time>
      </trkpt>
      <trkpt lat="47.82565" lon="-3.66818">
        <ele>4.8</ele>
        <time>2020-06-07T14:03:18Z</time>
      </trkpt>
      <trkpt lat="47.82565" lon="-3.66823">
        <ele>4.8</ele>
        <time>2020-06-07T14:03:19Z</time>
      </trkpt>
      <trkpt lat="47.82566" lon="-3.66828">
        <ele>4.8</ele>
        <time>2020-06-07T14:03:20Z</time>
      </trkpt>
      <trkpt lat="47.82566" lon="-3.66834">
        <ele>4.9</ele>
        <time>2020-06-07T14:03:21Z</time>
      </trkpt>
      <trkpt lat="47.82567" lon="-3.6684">
        <ele>4.9</ele>
        <time>2020-06-07T14:03:22Z</time>
      </trkpt>
      <trkpt lat="47.82568" lon="-3.66847">
        <ele>5</ele>
        <time>2020-06-07T14:03:23Z</time>
      </trkpt>
      <trkpt lat="47.82568" lon="-3.66854">
        <ele>5.1</ele>
        <time>2020-06-07T14:03:24Z</time>
      </trkpt>
      <trkpt lat="47.82569" lon="-3.66862">
        <ele>5.1</ele>
        <time>2020-06-07T14:03:25Z</time>
      </trkpt>
      <trkpt lat="47.8257" lon="-3.6687">
        <ele>5.2</ele>
        <time>2020-06-07T14:03:26Z</time>
      </trkpt>
      <trkpt lat="47.82571" lon="-3.66877">
        <ele>5.3</ele>
        <time>2020-06-07T14:03:27Z</time>
      </trkpt>
      <trkpt lat="47.82572" lon="-3.66885">
        <ele>5.3</ele>
        <time>2020-06-07T14:03:28Z</time>
      </trkpt>
      <trkpt lat="47.82573" lon="-3.66893">
        <ele>5.4</ele>
        <time>2020-06-07T14:03:29Z</time>
      </trkpt>
      <trkpt lat="47.82574" lon="-3.66901">
        <ele>5.5</ele>
        <time>2020-06-07T14:03:30Z</time>
      </trkpt>
      <trkpt lat="47.82576" lon="-3.66909">
        <ele>5.6</ele>
        <time>2020-06-07T14:03:31Z</time>
      </trkpt>
      <trkpt lat="47.82577" lon="-3.66917">
        <ele>5.7</ele>
        <time>2020-06-07T14:03:32Z</time>
      </trkpt>
      <trkpt lat="47.82577" lon="-3.66925">
        <ele>5.7</ele>
        <time>2020-06-07T14:03:33Z</time>
      </trkpt>
      <trkpt lat="47.82578" lon="-3.66932">
        <ele>5.8</ele>
        <time>2020-06-07T14:03:34Z</time>
      </trkpt>
      <trkpt lat="47.8258" lon="-3.66941">
        <ele>5.8</ele>
        <time>2020-06-07T14:03:35Z</time>
      </trkpt>
      <trkpt lat="47.82581" lon="-3.66949">
        <ele>5.9</ele>
        <time>2020-06-07T14:03:36Z</time>
      </trkpt>
      <trkpt lat="47.82582" lon="-3.66956">
        <ele>5.9</ele>
        <time>2020-06-07T14:03:37Z</time>
      </trkpt>
      <trkpt lat="47.82584" lon="-3.66965">
        <ele>5.9</ele>
        <time>2020-06-07T14:03:38Z</time>
      </trkpt>
      <trkpt lat="47.82585" lon="-3.66971">
        <ele>5.9</ele>
        <time>2020-06-07T14:03:39Z</time>
      </trkpt>
      <trkpt lat="47.82587" lon="-3.66977">
        <ele>6</ele>
        <time>2020-06-07T14:03:40Z</time>
      </trkpt>
      <trkpt lat="47.8259" lon="-3.66982">
        <ele>6</ele>
        <time>2020-06-07T14:03:41Z</time>
      </trkpt>
      <trkpt lat="47.82593" lon="-3.66992">
        <ele>6.1</ele>
        <time>2020-06-07T14:03:42Z</time>
      </trkpt>
      <trkpt lat="47.82594" lon="-3.66998">
        <ele>6.2</ele>
        <time>2020-06-07T14:03:43Z</time>
      </trkpt>
      <trkpt lat="47.82597" lon="-3.67006">
        <ele>6.3</ele>
        <time>2020-06-07T14:03:44Z</time>
      </trkpt>
      <trkpt lat="47.82598" lon="-3.67013">
        <ele>6.4</ele>
        <time>2020-06-07T14:03:45Z</time>
      </trkpt>
      <trkpt lat="47.82601" lon="-3.67021">
        <ele>6.4</ele>
        <time>2020-06-07T14:03:46Z</time>
      </trkpt>
      <trkpt lat="47.82603" lon="-3.67029">
        <ele>6.5</ele>
        <time>2020-06-07T14:03:47Z</time>
      </trkpt>
      <trkpt lat="47.82605" lon="-3.67036">
        <ele>6.6</ele>
        <time>2020-06-07T14:03:48Z</time>
      </trkpt>
      <trkpt lat="47.82607" lon="-3.67044">
        <ele>6.6</ele>
        <time>2020-06-07T14:03:49Z</time>
      </trkpt>
      <trkpt lat="47.82611" lon="-3.67054">
        <ele>6.6</ele>
        <time>2020-06-07T14:03:50Z</time>
      </trkpt>
      <trkpt lat="47.82614" lon="-3.67062">
        <ele>6.6</ele>
        <time>2020-06-07T14:03:51Z</time>
      </trkpt>
      <trkpt lat="47.82616" lon="-3.67068">
        <ele>6.7</ele>
        <time>2020-06-07T14:03:52Z</time>
      </trkpt>
      <trkpt lat="47.82619" lon="-3.67075">
        <ele>6.7</ele>
        <time>2020-06-07T14:03:53Z</time>
      </trkpt>
      <trkpt lat="47.82623" lon="-3.67082">
        <ele>6.7</ele>
        <time>2020-06-07T14:03:54Z</time>
      </trkpt>
      <trkpt lat="47.82626" lon="-3.67089">
        <ele>6.7</ele>
        <time>2020-06-07T14:03:55Z</time>
      </trkpt>
      <trkpt lat="47.8263" lon="-3.67093">
        <ele>6.8</ele>
        <time>2020-06-07T14:03:56Z</time>
      </trkpt>
      <trkpt lat="47.82633" lon="-3.67101">
        <ele>6.8</ele>
        <time>2020-06-07T14:03:57Z</time>
      </trkpt>
      <trkpt lat="47.82637" lon="-3.67109">
        <ele>6.8</ele>
        <time>2020-06-07T14:03:58Z</time>
      </trkpt>
      <trkpt lat="47.8264" lon="-3.67116">
        <ele>6.9</ele>
        <time>2020-06-07T14:03:59Z</time>
      </trkpt>
      <trkpt lat="47.82644" lon="-3.67123">
        <ele>6.9</ele>
        <time>2020-06-07T14:04:00Z</time>
      </trkpt>
      <trkpt lat="47.82648" lon="-3.6713">
        <ele>6.9</ele>
        <time>2020-06-07T14:04:01Z</time>
      </trkpt>
      <trkpt lat="47.82652" lon="-3.67137">
        <ele>7</ele>
        <time>2020-06-07T14:04:02Z</time>
      </trkpt>
      <trkpt lat="47.82655" lon="-3.67143">
        <ele>7</ele>
        <time>2020-06-07T14:04:03Z</time>
      </trkpt>
      <trkpt lat="47.8266" lon="-3.6715">
        <ele>7</ele>
        <time>2020-06-07T14:04:04Z</time>
      </trkpt>
      <trkpt lat="47.82665" lon="-3.67156">
        <ele>7.1</ele>
        <time>2020-06-07T14:04:05Z</time>
      </trkpt>
      <trkpt lat="47.82669" lon="-3.67163">
        <ele>7.1</ele>
        <time>2020-06-07T14:04:06Z</time>
      </trkpt>
      <trkpt lat="47.82672" lon="-3.67167">
        <ele>7.2</ele>
        <time>2020-06-07T14:04:07Z</time>
      </trkpt>
      <trkpt lat="47.82678" lon="-3.67173">
        <ele>7.1</ele>
        <time>2020-06-07T14:04:08Z</time>
      </trkpt>
      <trkpt lat="47.82683" lon="-3.6718">
        <ele>7.1</ele>
        <time>2020-06-07T14:04:09Z</time>
      </trkpt>
      <trkpt lat="47.82687" lon="-3.67185">
        <ele>7.1</ele>
        <time>2020-06-07T14:04:10Z</time>
      </trkpt>
      <trkpt lat="47.82692" lon="-3.6719">
        <ele>7.1</ele>
        <time>2020-06-07T14:04:11Z</time>
      </trkpt>
      <trkpt lat="47.82695" lon="-3.67194">
        <ele>7.2</ele>
        <time>2020-06-07T14:04:12Z</time>
      </trkpt>
      <trkpt lat="47.82699" lon="-3.672">
        <ele>7.2</ele>
        <time>2020-06-07T14:04:13Z</time>
      </trkpt>
      <trkpt lat="47.82704" lon="-3.67205">
        <ele>7.2</ele>
        <time>2020-06-07T14:04:14Z</time>
      </trkpt>
      <trkpt lat="47.82708" lon="-3.6721">
        <ele>7.3</ele>
        <time>2020-06-07T14:04:15Z</time>
      </trkpt>
      <trkpt lat="47.82713" lon="-3.67214">
        <ele>7.3</ele>
        <time>2020-06-07T14:04:16Z</time>
      </trkpt>
      <trkpt lat="47.82718" lon="-3.67219">
        <ele>7.3</ele>
        <time>2020-06-07T14:04:17Z</time>
      </trkpt>
      <trkpt lat="47.82724" lon="-3.67224">
        <ele>7.4</ele>
        <time>2020-06-07T14:04:18Z</time>
      </trkpt>
      <trkpt lat="47.8273" lon="-3.6723">
        <ele>7.4</ele>
        <time>2020-06-07T14:04:19Z</time>
      </trkpt>
      <trkpt lat="47.82735" lon="-3.67235">
        <ele>7.5</ele>
        <time>2020-06-07T14:04:20Z</time>
      </trkpt>
      <trkpt lat="47.8274" lon="-3.67239">
        <ele>7.5</ele>
        <time>2020-06-07T14:04:21Z</time>
      </trkpt>
      <trkpt lat="47.82745" lon="-3.67242">
        <ele>7.5</ele>
        <time>2020-06-07T14:04:22Z</time>
      </trkpt>
      <trkpt lat="47.82749" lon="-3.67246">
        <ele>7.5</ele>
        <time>2020-06-07T14:04:23Z</time>
      </trkpt>
      <trkpt lat="47.82754" lon="-3.6725">
        <ele>7.5</ele>
        <time>2020-06-07T14:04:24Z</time>
      </trkpt>
      <trkpt lat="47.82761" lon="-3.67254">
        <ele>7.5</ele>
        <time>2020-06-07T14:04:25Z</time>
      </trkpt>
      <trkpt lat="47.82764" lon="-3.67256">
        <ele>7.6</ele>
        <time>2020-06-07T14:04:26Z</time>
      </trkpt>
      <trkpt lat="47.82768" lon="-3.67258">
        <ele>7.6</ele>
        <time>2020-06-07T14:04:27Z</time>
      </trkpt>
      <trkpt lat="47.82773" lon="-3.67262">
        <ele>7.6</ele>
        <time>2020-06-07T14:04:28Z</time>
      </trkpt>
      <trkpt lat="47.82778" lon="-3.67264">
        <ele>7.6</ele>
        <time>2020-06-07T14:04:29Z</time>
      </trkpt>
      <trkpt lat="47.82783" lon="-3.67268">
        <ele>7.7</ele>
        <time>2020-06-07T14:04:30Z</time>
      </trkpt>
      <trkpt lat="47.82789" lon="-3.67271">
        <ele>7.8</ele>
        <time>2020-06-07T14:04:31Z</time>
      </trkpt>
      <trkpt lat="47.82795" lon="-3.67273">
        <ele>7.8</ele>
        <time>2020-06-07T14:04:32Z</time>
      </trkpt>
      <trkpt lat="47.828" lon="-3.67275">
        <ele>7.9</ele>
        <time>2020-06-07T14:04:33Z</time>
      </trkpt>
      <trkpt lat="47.82803" lon="-3.67277">
        <ele>8</ele>
        <time>2020-06-07T14:04:34Z</time>
      </trkpt>
      <trkpt lat="47.82808" lon="-3.67279">
        <ele>8</ele>
        <time>2020-06-07T14:04:35Z</time>
      </trkpt>
      <trkpt lat="47.82813" lon="-3.67282">
        <ele>8</ele>
        <time>2020-06-07T14:04:36Z</time>
      </trkpt>
      <trkpt lat="47.82818" lon="-3.67285">
        <ele>8.1</ele>
        <time>2020-06-07T14:04:37Z</time>
      </trkpt>
      <trkpt lat="47.82823" lon="-3.67287">
        <ele>8.1</ele>
        <time>2020-06-07T14:04:38Z</time>
      </trkpt>
      <trkpt lat="47.82829" lon="-3.67291">
        <ele>8.1</ele>
        <time>2020-06-07T14:04:39Z</time>
      </trkpt>
      <trkpt lat="47.82835" lon="-3.67294">
        <ele>8.1</ele>
        <time>2020-06-07T14:04:40Z</time>
      </trkpt>
      <trkpt lat="47.82841" lon="-3.67296">
        <ele>8.1</ele>
        <time>2020-06-07T14:04:41Z</time>
      </trkpt>
      <trkpt lat="47.82846" lon="-3.67298">
        <ele>8.1</ele>
        <time>2020-06-07T14:04:42Z</time>
      </trkpt>
      <trkpt lat="47.82852" lon="-3.673">
        <ele>8.1</ele>
        <time>2020-06-07T14:04:43Z</time>
      </trkpt>
      <trkpt lat="47.82858" lon="-3.67302">
        <ele>8.1</ele>
        <time>2020-06-07T14:04:44Z</time>
      </trkpt>
      <trkpt lat="47.82863" lon="-3.67304">
        <ele>8.1</ele>
        <time>2020-06-07T14:04:45Z</time>
      </trkpt>
      <trkpt lat="47.82868" lon="-3.67306">
        <ele>8.1</ele>
        <time>2020-06-07T14:04:46Z</time>
      </trkpt>
      <trkpt lat="47.82874" lon="-3.67308">
        <ele>8.1</ele>
        <time>2020-06-07T14:04:47Z</time>
      </trkpt>
      <trkpt lat="47.8288" lon="-3.67311">
        <ele>8.1</ele>
        <time>2020-06-07T14:04:48Z</time>
      </trkpt>
      <trkpt lat="47.82885" lon="-3.67315">
        <ele>8.2</ele>
        <time>2020-06-07T14:04:49Z</time>
      </trkpt>
      <trkpt lat="47.82891" lon="-3.67318">
        <ele>8.2</ele>
        <time>2020-06-07T14:04:50Z</time>
      </trkpt>
      <trkpt lat="47.82896" lon="-3.67321">
        <ele>8.2</ele>
        <time>2020-06-07T14:04:51Z</time>
      </trkpt>
      <trkpt lat="47.82901" lon="-3.67324">
        <ele>8.3</ele>
        <time>2020-06-07T14:04:52Z</time>
      </trkpt>
      <trkpt lat="47.82907" lon="-3.67327">
        <ele>8.3</ele>
        <time>2020-06-07T14:04:53Z</time>
      </trkpt>
      <trkpt lat="47.82912" lon="-3.67331">
        <ele>8.3</ele>
        <time>2020-06-07T14:04:54Z</time>
      </trkpt>
      <trkpt lat="47.82917" lon="-3.67333">
        <ele>8.4</ele>
        <time>2020-06-07T14:04:55Z</time>
      </trkpt>
      <trkpt lat="47.82922" lon="-3.67337">
        <ele>8.4</ele>
        <time>2020-06-07T14:04:56Z</time>
      </trkpt>
      <trkpt lat="47.82927" lon="-3.6734">
        <ele>8.4</ele>
        <time>2020-06-07T14:04:57Z</time>
      </trkpt>
      <trkpt lat="47.82933" lon="-3.67341">
        <ele>8.4</ele>
        <time>2020-06-07T14:04:58Z</time>
      </trkpt>
      <trkpt lat="47.82938" lon="-3.67343">
        <ele>8.5</ele>
        <time>2020-06-07T14:04:59Z</time>
      </trkpt>
      <trkpt lat="47.82944" lon="-3.67345">
        <ele>8.5</ele>
        <time>2020-06-07T14:05:00Z</time>
      </trkpt>
      <trkpt lat="47.82949" lon="-3.67348">
        <ele>8.5</ele>
        <time>2020-06-07T14:05:01Z</time>
      </trkpt>
      <trkpt lat="47.82954" lon="-3.67351">
        <ele>8.6</ele>
        <time>2020-06-07T14:05:02Z</time>
      </trkpt>
      <trkpt lat="47.82959" lon="-3.67353">
        <ele>8.6</ele>
        <time>2020-06-07T14:05:03Z</time>
      </trkpt>
      <trkpt lat="47.82965" lon="-3.67356">
        <ele>8.6</ele>
        <time>2020-06-07T14:05:04Z</time>
      </trkpt>
      <trkpt lat="47.82971" lon="-3.67359">
        <ele>8.7</ele>
        <time>2020-06-07T14:05:05Z</time>
      </trkpt>
      <trkpt lat="47.82976" lon="-3.67362">
        <ele>8.7</ele>
        <time>2020-06-07T14:05:06Z</time>
      </trkpt>
      <trkpt lat="47.82981" lon="-3.67365">
        <ele>8.8</ele>
        <time>2020-06-07T14:05:07Z</time>
      </trkpt>
      <trkpt lat="47.82986" lon="-3.67368">
        <ele>8.8</ele>
        <time>2020-06-07T14:05:08Z</time>
      </trkpt>
      <trkpt lat="47.82991" lon="-3.67371">
        <ele>8.8</ele>
        <time>2020-06-07T14:05:09Z</time>
      </trkpt>
      <trkpt lat="47.82996" lon="-3.67373">
        <ele>8.8</ele>
        <time>2020-06-07T14:05:10Z</time>
      </trkpt>
      <trkpt lat="47.83" lon="-3.67377">
        <ele>8.9</ele>
        <time>2020-06-07T14:05:11Z</time>
      </trkpt>
      <trkpt lat="47.83005" lon="-3.6738">
        <ele>8.9</ele>
        <time>2020-06-07T14:05:12Z</time>
      </trkpt>
      <trkpt lat="47.83011" lon="-3.67384">
        <ele>8.9</ele>
        <time>2020-06-07T14:05:13Z</time>
      </trkpt>
      <trkpt lat="47.83016" lon="-3.67387">
        <ele>8.9</ele>
        <time>2020-06-07T14:05:14Z</time>
      </trkpt>
      <trkpt lat="47.83021" lon="-3.6739">
        <ele>8.9</ele>
        <time>2020-06-07T14:05:15Z</time>
      </trkpt>
      <trkpt lat="47.83026" lon="-3.67394">
        <ele>8.9</ele>
        <time>2020-06-07T14:05:16Z</time>
      </trkpt>
      <trkpt lat="47.83031" lon="-3.67397">
        <ele>8.9</ele>
        <time>2020-06-07T14:05:17Z</time>
      </trkpt>
      <trkpt lat="47.83036" lon="-3.674">
        <ele>8.8</ele>
        <time>2020-06-07T14:05:18Z</time>
      </trkpt>
      <trkpt lat="47.8304" lon="-3.67403">
        <ele>8.8</ele>
        <time>2020-06-07T14:05:19Z</time>
      </trkpt>
      <trkpt lat="47.83044" lon="-3.67405">
        <ele>8.8</ele>
        <time>2020-06-07T14:05:20Z</time>
      </trkpt>
      <trkpt lat="47.83049" lon="-3.6741">
        <ele>8.8</ele>
        <time>2020-06-07T14:05:21Z</time>
      </trkpt>
      <trkpt lat="47.83052" lon="-3.67412">
        <ele>8.8</ele>
        <time>2020-06-07T14:05:22Z</time>
      </trkpt>
      <trkpt lat="47.83057" lon="-3.67416">
        <ele>8.8</ele>
        <time>2020-06-07T14:05:23Z</time>
      </trkpt>
      <trkpt lat="47.83061" lon="-3.67421">
        <ele>8.8</ele>
        <time>2020-06-07T14:05:24Z</time>
      </trkpt>
      <trkpt lat="47.83065" lon="-3.67425">
        <ele>8.8</ele>
        <time>2020-06-07T14:05:25Z</time>
      </trkpt>
      <trkpt lat="47.8307" lon="-3.67429">
        <ele>8.8</ele>
        <time>2020-06-07T14:05:26Z</time>
      </trkpt>
      <trkpt lat="47.83074" lon="-3.67434">
        <ele>8.8</ele>
        <time>2020-06-07T14:05:27Z</time>
      </trkpt>
      <trkpt lat="47.83079" lon="-3.67439">
        <ele>8.8</ele>
        <time>2020-06-07T14:05:28Z</time>
      </trkpt>
      <trkpt lat="47.83082" lon="-3.67442">
        <ele>8.7</ele>
        <time>2020-06-07T14:05:29Z</time>
      </trkpt>
      <trkpt lat="47.83085" lon="-3.67446">
        <ele>8.7</ele>
        <time>2020-06-07T14:05:30Z</time>
      </trkpt>
      <trkpt lat="47.83088" lon="-3.6745">
        <ele>8.7</ele>
        <time>2020-06-07T14:05:31Z</time>
      </trkpt>
      <trkpt lat="47.83092" lon="-3.67455">
        <ele>8.7</ele>
        <time>2020-06-07T14:05:32Z</time>
      </trkpt>
      <trkpt lat="47.83095" lon="-3.67459">
        <ele>8.7</ele>
        <time>2020-06-07T14:05:33Z</time>
      </trkpt>
      <trkpt lat="47.83098" lon="-3.67461">
        <ele>8.7</ele>
        <time>2020-06-07T14:05:34Z</time>
      </trkpt>
      <trkpt lat="47.83102" lon="-3.67467">
        <ele>8.7</ele>
        <time>2020-06-07T14:05:35Z</time>
      </trkpt>
      <trkpt lat="47.83106" lon="-3.67473">
        <ele>8.7</ele>
        <time>2020-06-07T14:05:36Z</time>
      </trkpt>
      <trkpt lat="47.83109" lon="-3.67479">
        <ele>8.7</ele>
        <time>2020-06-07T14:05:37Z</time>
      </trkpt>
      <trkpt lat="47.83113" lon="-3.67485">
        <ele>8.7</ele>
        <time>2020-06-07T14:05:38Z</time>
      </trkpt>
      <trkpt lat="47.83117" lon="-3.6749">
        <ele>8.7</ele>
        <time>2020-06-07T14:05:39Z</time>
      </trkpt>
      <trkpt lat="47.8312" lon="-3.67495">
        <ele>8.7</ele>
        <time>2020-06-07T14:05:40Z</time>
      </trkpt>
      <trkpt lat="47.83124" lon="-3.67502">
        <ele>8.7</ele>
        <time>2020-06-07T14:05:41Z</time>
      </trkpt>
      <trkpt lat="47.83127" lon="-3.67508">
        <ele>8.7</ele>
        <time>2020-06-07T14:05:42Z</time>
      </trkpt>
      <trkpt lat="47.8313" lon="-3.67516">
        <ele>8.8</ele>
        <time>2020-06-07T14:05:43Z</time>
      </trkpt>
      <trkpt lat="47.83133" lon="-3.67523">
        <ele>8.8</ele>
        <time>2020-06-07T14:05:44Z</time>
      </trkpt>
      <trkpt lat="47.83136" lon="-3.67529">
        <ele>8.8</ele>
        <time>2020-06-07T14:05:45Z</time>
      </trkpt>
      <trkpt lat="47.83137" lon="-3.67532">
        <ele>8.9</ele>
        <time>2020-06-07T14:05:46Z</time>
      </trkpt>
      <trkpt lat="47.8314" lon="-3.67538">
        <ele>8.9</ele>
        <time>2020-06-07T14:05:47Z</time>
      </trkpt>
      <trkpt lat="47.83143" lon="-3.67544">
        <ele>9</ele>
        <time>2020-06-07T14:05:48Z</time>
      </trkpt>
      <trkpt lat="47.83146" lon="-3.67549">
        <ele>9</ele>
        <time>2020-06-07T14:05:49Z</time>
      </trkpt>
      <trkpt lat="47.83149" lon="-3.67554">
        <ele>9.1</ele>
        <time>2020-06-07T14:05:50Z</time>
      </trkpt>
      <trkpt lat="47.83152" lon="-3.67558">
        <ele>9.1</ele>
        <time>2020-06-07T14:05:51Z</time>
      </trkpt>
      <trkpt lat="47.83155" lon="-3.67564">
        <ele>9.2</ele>
        <time>2020-06-07T14:05:52Z</time>
      </trkpt>
      <trkpt lat="47.83158" lon="-3.6757">
        <ele>9.2</ele>
        <time>2020-06-07T14:05:53Z</time>
      </trkpt>
      <trkpt lat="47.83161" lon="-3.67577">
        <ele>9.3</ele>
        <time>2020-06-07T14:05:54Z</time>
      </trkpt>
      <trkpt lat="47.83163" lon="-3.67581">
        <ele>9.3</ele>
        <time>2020-06-07T14:05:55Z</time>
      </trkpt>
      <trkpt lat="47.83166" lon="-3.67587">
        <ele>9.4</ele>
        <time>2020-06-07T14:05:56Z</time>
      </trkpt>
      <trkpt lat="47.83169" lon="-3.67593">
        <ele>9.5</ele>
        <time>2020-06-07T14:05:57Z</time>
      </trkpt>
      <trkpt lat="47.83172" lon="-3.67599">
        <ele>9.5</ele>
        <time>2020-06-07T14:05:58Z</time>
      </trkpt>
      <trkpt lat="47.83176" lon="-3.67605">
        <ele>9.6</ele>
        <time>2020-06-07T14:05:59Z</time>
      </trkpt>
      <trkpt lat="47.83178" lon="-3.6761">
        <ele>9.6</ele>
        <time>2020-06-07T14:06:00Z</time>
      </trkpt>
      <trkpt lat="47.8318" lon="-3.67614">
        <ele>9.7</ele>
        <time>2020-06-07T14:06:01Z</time>
      </trkpt>
      <trkpt lat="47.83183" lon="-3.67618">
        <ele>9.7</ele>
        <time>2020-06-07T14:06:02Z</time>
      </trkpt>
      <trkpt lat="47.83185" lon="-3.67624">
        <ele>9.8</ele>
        <time>2020-06-07T14:06:03Z</time>
      </trkpt>
      <trkpt lat="47.83188" lon="-3.67631">
        <ele>9.8</ele>
        <time>2020-06-07T14:06:04Z</time>
      </trkpt>
      <trkpt lat="47.8319" lon="-3.67637">
        <ele>9.9</ele>
        <time>2020-06-07T14:06:05Z</time>
      </trkpt>
      <trkpt lat="47.83192" lon="-3.67642">
        <ele>10</ele>
        <time>2020-06-07T14:06:06Z</time>
      </trkpt>
      <trkpt lat="47.83195" lon="-3.67646">
        <ele>10</ele>
        <time>2020-06-07T14:06:07Z</time>
      </trkpt>
      <trkpt lat="47.83197" lon="-3.67652">
        <ele>10.1</ele>
        <time>2020-06-07T14:06:08Z</time>
      </trkpt>
      <trkpt lat="47.832" lon="-3.67657">
        <ele>10.2</ele>
        <time>2020-06-07T14:06:09Z</time>
      </trkpt>
      <trkpt lat="47.83202" lon="-3.67661">
        <ele>10.2</ele>
        <time>2020-06-07T14:06:10Z</time>
      </trkpt>
      <trkpt lat="47.83206" lon="-3.67669">
        <ele>10.4</ele>
        <time>2020-06-07T14:06:11Z</time>
      </trkpt>
      <trkpt lat="47.83208" lon="-3.67674">
        <ele>10.5</ele>
        <time>2020-06-07T14:06:12Z</time>
      </trkpt>
      <trkpt lat="47.8321" lon="-3.67678">
        <ele>10.6</ele>
        <time>2020-06-07T14:06:13Z</time>
      </trkpt>
      <trkpt lat="47.83213" lon="-3.67683">
        <ele>10.7</ele>
        <time>2020-06-07T14:06:14Z</time>
      </trkpt>
      <trkpt lat="47.83215" lon="-3.67687">
        <ele>10.8</ele>
        <time>2020-06-07T14:06:15Z</time>
      </trkpt>
      <trkpt lat="47.83218" lon="-3.67691">
        <ele>10.9</ele>
        <time>2020-06-07T14:06:16Z</time>
      </trkpt>
      <trkpt lat="47.8322" lon="-3.67695">
        <ele>11</ele>
        <time>2020-06-07T14:06:17Z</time>
      </trkpt>
      <trkpt lat="47.83223" lon="-3.67699">
        <ele>11.1</ele>
        <time>2020-06-07T14:06:18Z</time>
      </trkpt>
      <trkpt lat="47.83225" lon="-3.67704">
        <ele>11.2</ele>
        <time>2020-06-07T14:06:19Z</time>
      </trkpt>
      <trkpt lat="47.83228" lon="-3.6771">
        <ele>11.3</ele>
        <time>2020-06-07T14:06:20Z</time>
      </trkpt>
      <trkpt lat="47.83231" lon="-3.67716">
        <ele>11.5</ele>
        <time>2020-06-07T14:06:21Z</time>
      </trkpt>
      <trkpt lat="47.83233" lon="-3.67721">
        <ele>11.6</ele>
        <time>2020-06-07T14:06:22Z</time>
      </trkpt>
      <trkpt lat="47.83235" lon="-3.67725">
        <ele>11.7</ele>
        <time>2020-06-07T14:06:23Z</time>
      </trkpt>
      <trkpt lat="47.83237" lon="-3.67728">
        <ele>11.8</ele>
        <time>2020-06-07T14:06:24Z</time>
      </trkpt>
      <trkpt lat="47.83238" lon="-3.67732">
        <ele>11.9</ele>
        <time>2020-06-07T14:06:25Z</time>
      </trkpt>
      <trkpt lat="47.8324" lon="-3.67737">
        <ele>12.1</ele>
        <time>2020-06-07T14:06:26Z</time>
      </trkpt>
      <trkpt lat="47.83244" lon="-3.67743">
        <ele>12.2</ele>
        <time>2020-06-07T14:06:27Z</time>
      </trkpt>
      <trkpt lat="47.83247" lon="-3.67748">
        <ele>12.4</ele>
        <time>2020-06-07T14:06:28Z</time>
      </trkpt>
      <trkpt lat="47.83249" lon="-3.67754">
        <ele>12.6</ele>
        <time>2020-06-07T14:06:29Z</time>
      </trkpt>
      <trkpt lat="47.8325" lon="-3.6776">
        <ele>12.7</ele>
        <time>2020-06-07T14:06:30Z</time>
      </trkpt>
      <trkpt lat="47.83253" lon="-3.67764">
        <ele>12.8</ele>
        <time>2020-06-07T14:06:31Z</time>
      </trkpt>
      <trkpt lat="47.83256" lon="-3.67768">
        <ele>13</ele>
        <time>2020-06-07T14:06:32Z</time>
      </trkpt>
      <trkpt lat="47.83258" lon="-3.67772">
        <ele>13.1</ele>
        <time>2020-06-07T14:06:33Z</time>
      </trkpt>
      <trkpt lat="47.8326" lon="-3.67776">
        <ele>13.3</ele>
        <time>2020-06-07T14:06:34Z</time>
      </trkpt>
      <trkpt lat="47.83263" lon="-3.6778">
        <ele>13.4</ele>
        <time>2020-06-07T14:06:35Z</time>
      </trkpt>
      <trkpt lat="47.83266" lon="-3.67786">
        <ele>13.6</ele>
        <time>2020-06-07T14:06:36Z</time>
      </trkpt>
      <trkpt lat="47.83267" lon="-3.6779">
        <ele>13.6</ele>
        <time>2020-06-07T14:06:37Z</time>
      </trkpt>
      <trkpt lat="47.83269" lon="-3.67796">
        <ele>13.7</ele>
        <time>2020-06-07T14:06:38Z</time>
      </trkpt>
      <trkpt lat="47.8327" lon="-3.678">
        <ele>13.8</ele>
        <time>2020-06-07T14:06:39Z</time>
      </trkpt>
      <trkpt lat="47.83273" lon="-3.67806">
        <ele>13.9</ele>
        <time>2020-06-07T14:06:40Z</time>
      </trkpt>
      <trkpt lat="47.83276" lon="-3.67811">
        <ele>14</ele>
        <time>2020-06-07T14:06:41Z</time>
      </trkpt>
      <trkpt lat="47.83279" lon="-3.67818">
        <ele>14.1</ele>
        <time>2020-06-07T14:06:42Z</time>
      </trkpt>
      <trkpt lat="47.83281" lon="-3.67824">
        <ele>14.2</ele>
        <time>2020-06-07T14:06:43Z</time>
      </trkpt>
      <trkpt lat="47.83283" lon="-3.67828">
        <ele>14.3</ele>
        <time>2020-06-07T14:06:44Z</time>
      </trkpt>
      <trkpt lat="47.83284" lon="-3.67833">
        <ele>14.4</ele>
        <time>2020-06-07T14:06:45Z</time>
      </trkpt>
      <trkpt lat="47.83287" lon="-3.6784">
        <ele>14.6</ele>
        <time>2020-06-07T14:06:46Z</time>
      </trkpt>
      <trkpt lat="47.83289" lon="-3.67846">
        <ele>14.7</ele>
        <time>2020-06-07T14:06:47Z</time>
      </trkpt>
      <trkpt lat="47.83291" lon="-3.67851">
        <ele>14.9</ele>
        <time>2020-06-07T14:06:48Z</time>
      </trkpt>
      <trkpt lat="47.83293" lon="-3.67856">
        <ele>15</ele>
        <time>2020-06-07T14:06:49Z</time>
      </trkpt>
      <trkpt lat="47.83296" lon="-3.6786">
        <ele>15.1</ele>
        <time>2020-06-07T14:06:50Z</time>
      </trkpt>
      <trkpt lat="47.83298" lon="-3.67865">
        <ele>15.2</ele>
        <time>2020-06-07T14:06:51Z</time>
      </trkpt>
      <trkpt lat="47.83299" lon="-3.67869">
        <ele>15.3</ele>
        <time>2020-06-07T14:06:52Z</time>
      </trkpt>
      <trkpt lat="47.83301" lon="-3.67873">
        <ele>15.4</ele>
        <time>2020-06-07T14:06:53Z</time>
      </trkpt>
      <trkpt lat="47.83302" lon="-3.67878">
        <ele>15.5</ele>
        <time>2020-06-07T14:06:54Z</time>
      </trkpt>
      <trkpt lat="47.83304" lon="-3.67886">
        <ele>15.7</ele>
        <time>2020-06-07T14:06:55Z</time>
      </trkpt>
      <trkpt lat="47.83306" lon="-3.6789">
        <ele>15.9</ele>
        <time>2020-06-07T14:06:56Z</time>
      </trkpt>
      <trkpt lat="47.83307" lon="-3.67896">
        <ele>16</ele>
        <time>2020-06-07T14:06:57Z</time>
      </trkpt>
      <trkpt lat="47.83309" lon="-3.67901">
        <ele>16.2</ele>
        <time>2020-06-07T14:06:58Z</time>
      </trkpt>
      <trkpt lat="47.8331" lon="-3.67906">
        <ele>16.3</ele>
        <time>2020-06-07T14:06:59Z</time>
      </trkpt>
      <trkpt lat="47.83311" lon="-3.67912">
        <ele>16.6</ele>
        <time>2020-06-07T14:07:00Z</time>
      </trkpt>
      <trkpt lat="47.83312" lon="-3.67917">
        <ele>16.7</ele>
        <time>2020-06-07T14:07:01Z</time>
      </trkpt>
      <trkpt lat="47.83314" lon="-3.67923">
        <ele>16.9</ele>
        <time>2020-06-07T14:07:02Z</time>
      </trkpt>
      <trkpt lat="47.83315" lon="-3.67929">
        <ele>17.1</ele>
        <time>2020-06-07T14:07:03Z</time>
      </trkpt>
      <trkpt lat="47.83317" lon="-3.67934">
        <ele>17.4</ele>
        <time>2020-06-07T14:07:04Z</time>
      </trkpt>
      <trkpt lat="47.83318" lon="-3.67937">
        <ele>17.5</ele>
        <time>2020-06-07T14:07:05Z</time>
      </trkpt>
      <trkpt lat="47.83319" lon="-3.67941">
        <ele>17.7</ele>
        <time>2020-06-07T14:07:06Z</time>
      </trkpt>
      <trkpt lat="47.83321" lon="-3.67945">
        <ele>17.9</ele>
        <time>2020-06-07T14:07:07Z</time>
      </trkpt>
      <trkpt lat="47.83322" lon="-3.67949">
        <ele>18.1</ele>
        <time>2020-06-07T14:07:08Z</time>
      </trkpt>
      <trkpt lat="47.83323" lon="-3.67954">
        <ele>18.3</ele>
        <time>2020-06-07T14:07:09Z</time>
      </trkpt>
      <trkpt lat="47.83322" lon="-3.67959">
        <ele>18.7</ele>
        <time>2020-06-07T14:07:10Z</time>
      </trkpt>
      <trkpt lat="47.83323" lon="-3.67966">
        <ele>18.9</ele>
        <time>2020-06-07T14:07:11Z</time>
      </trkpt>
      <trkpt lat="47.83324" lon="-3.6797">
        <ele>19.1</ele>
        <time>2020-06-07T14:07:12Z</time>
      </trkpt>
      <trkpt lat="47.83325" lon="-3.67975">
        <ele>19.2</ele>
        <time>2020-06-07T14:07:13Z</time>
      </trkpt>
      <trkpt lat="47.83325" lon="-3.67981">
        <ele>19.4</ele>
        <time>2020-06-07T14:07:14Z</time>
      </trkpt>
      <trkpt lat="47.83326" lon="-3.67987">
        <ele>19.5</ele>
        <time>2020-06-07T14:07:15Z</time>
      </trkpt>
      <trkpt lat="47.83327" lon="-3.67992">
        <ele>19.6</ele>
        <time>2020-06-07T14:07:16Z</time>
      </trkpt>
      <trkpt lat="47.83327" lon="-3.67997">
        <ele>19.8</ele>
        <time>2020-06-07T14:07:17Z</time>
      </trkpt>
      <trkpt lat="47.83328" lon="-3.68002">
        <ele>19.9</ele>
        <time>2020-06-07T14:07:18Z</time>
      </trkpt>
      <trkpt lat="47.83327" lon="-3.68008">
        <ele>20.1</ele>
        <time>2020-06-07T14:07:19Z</time>
      </trkpt>
      <trkpt lat="47.83327" lon="-3.68013">
        <ele>20.2</ele>
        <time>2020-06-07T14:07:20Z</time>
      </trkpt>
      <trkpt lat="47.83327" lon="-3.68018">
        <ele>20.3</ele>
        <time>2020-06-07T14:07:21Z</time>
      </trkpt>
      <trkpt lat="47.83327" lon="-3.6802">
        <ele>20.4</ele>
        <time>2020-06-07T14:07:22Z</time>
      </trkpt>
      <trkpt lat="47.83326" lon="-3.68025">
        <ele>20.5</ele>
        <time>2020-06-07T14:07:23Z</time>
      </trkpt>
      <trkpt lat="47.83326" lon="-3.6803">
        <ele>20.6</ele>
        <time>2020-06-07T14:07:24Z</time>
      </trkpt>
      <trkpt lat="47.83325" lon="-3.68036">
        <ele>20.8</ele>
        <time>2020-06-07T14:07:25Z</time>
      </trkpt>
      <trkpt lat="47.83325" lon="-3.68038">
        <ele>20.8</ele>
        <time>2020-06-07T14:07:26Z</time>
      </trkpt>
      <trkpt lat="47.83325" lon="-3.68042">
        <ele>20.9</ele>
        <time>2020-06-07T14:07:27Z</time>
      </trkpt>
      <trkpt lat="47.83324" lon="-3.68049">
        <ele>21.1</ele>
        <time>2020-06-07T14:07:28Z</time>
      </trkpt>
      <trkpt lat="47.83324" lon="-3.68053">
        <ele>21.2</ele>
        <time>2020-06-07T14:07:29Z</time>
      </trkpt>
      <trkpt lat="47.83323" lon="-3.68057">
        <ele>21.3</ele>
        <time>2020-06-07T14:07:30Z</time>
      </trkpt>
      <trkpt lat="47.83323" lon="-3.68062">
        <ele>21.5</ele>
        <time>2020-06-07T14:07:31Z</time>
      </trkpt>
      <trkpt lat="47.83323" lon="-3.68067">
        <ele>21.6</ele>
        <time>2020-06-07T14:07:32Z</time>
      </trkpt>
      <trkpt lat="47.83322" lon="-3.68071">
        <ele>21.7</ele>
        <time>2020-06-07T14:07:33Z</time>
      </trkpt>
      <trkpt lat="47.83322" lon="-3.68076">
        <ele>21.8</ele>
        <time>2020-06-07T14:07:34Z</time>
      </trkpt>
      <trkpt lat="47.83321" lon="-3.68082">
        <ele>21.9</ele>
        <time>2020-06-07T14:07:35Z</time>
      </trkpt>
      <trkpt lat="47.83321" lon="-3.68084">
        <ele>22</ele>
        <time>2020-06-07T14:07:36Z</time>
      </trkpt>
      <trkpt lat="47.83321" lon="-3.68091">
        <ele>22.1</ele>
        <time>2020-06-07T14:07:37Z</time>
      </trkpt>
      <trkpt lat="47.8332" lon="-3.68096">
        <ele>22.3</ele>
        <time>2020-06-07T14:07:38Z</time>
      </trkpt>
      <trkpt lat="47.8332" lon="-3.68103">
        <ele>22.4</ele>
        <time>2020-06-07T14:07:39Z</time>
      </trkpt>
      <trkpt lat="47.8332" lon="-3.68108">
        <ele>22.6</ele>
        <time>2020-06-07T14:07:40Z</time>
      </trkpt>
      <trkpt lat="47.8332" lon="-3.68113">
        <ele>22.7</ele>
        <time>2020-06-07T14:07:41Z</time>
      </trkpt>
      <trkpt lat="47.8332" lon="-3.68115">
        <ele>22.7</ele>
        <time>2020-06-07T14:07:42Z</time>
      </trkpt>
      <trkpt lat="47.83319" lon="-3.68119">
        <ele>22.8</ele>
        <time>2020-06-07T14:07:43Z</time>
      </trkpt>
      <trkpt lat="47.83319" lon="-3.68124">
        <ele>23</ele>
        <time>2020-06-07T14:07:44Z</time>
      </trkpt>
      <trkpt lat="47.83318" lon="-3.6813">
        <ele>23.1</ele>
        <time>2020-06-07T14:07:45Z</time>
      </trkpt>
      <trkpt lat="47.83317" lon="-3.68136">
        <ele>23.3</ele>
        <time>2020-06-07T14:07:46Z</time>
      </trkpt>
      <trkpt lat="47.83316" lon="-3.68143">
        <ele>23.5</ele>
        <time>2020-06-07T14:07:47Z</time>
      </trkpt>
      <trkpt lat="47.83315" lon="-3.68149">
        <ele>23.7</ele>
        <time>2020-06-07T14:07:48Z</time>
      </trkpt>
      <trkpt lat="47.83314" lon="-3.68155">
        <ele>23.9</ele>
        <time>2020-06-07T14:07:49Z</time>
      </trkpt>
      <trkpt lat="47.83314" lon="-3.68162">
        <ele>24.1</ele>
        <time>2020-06-07T14:07:50Z</time>
      </trkpt>
      <trkpt lat="47.83313" lon="-3.68167">
        <ele>24.3</ele>
        <time>2020-06-07T14:07:51Z</time>
      </trkpt>
      <trkpt lat="47.83312" lon="-3.68174">
        <ele>24.5</ele>
        <time>2020-06-07T14:07:52Z</time>
      </trkpt>
      <trkpt lat="47.83311" lon="-3.68181">
        <ele>24.7</ele>
        <time>2020-06-07T14:07:53Z</time>
      </trkpt>
      <trkpt lat="47.8331" lon="-3.68186">
        <ele>24.9</ele>
        <time>2020-06-07T14:07:54Z</time>
      </trkpt>
      <trkpt lat="47.8331" lon="-3.68191">
        <ele>25</ele>
        <time>2020-06-07T14:07:55Z</time>
      </trkpt>
      <trkpt lat="47.83309" lon="-3.682">
        <ele>25.3</ele>
        <time>2020-06-07T14:07:56Z</time>
      </trkpt>
      <trkpt lat="47.83308" lon="-3.68207">
        <ele>25.5</ele>
        <time>2020-06-07T14:07:57Z</time>
      </trkpt>
      <trkpt lat="47.83308" lon="-3.68214">
        <ele>25.7</ele>
        <time>2020-06-07T14:07:58Z</time>
      </trkpt>
      <trkpt lat="47.83307" lon="-3.6822">
        <ele>26</ele>
        <time>2020-06-07T14:07:59Z</time>
      </trkpt>
      <trkpt lat="47.83306" lon="-3.68226">
        <ele>26.2</ele>
        <time>2020-06-07T14:08:00Z</time>
      </trkpt>
      <trkpt lat="47.83305" lon="-3.68232">
        <ele>26.4</ele>
        <time>2020-06-07T14:08:01Z</time>
      </trkpt>
      <trkpt lat="47.83305" lon="-3.68237">
        <ele>26.5</ele>
        <time>2020-06-07T14:08:02Z</time>
      </trkpt>
      <trkpt lat="47.83304" lon="-3.68239">
        <ele>26.6</ele>
        <time>2020-06-07T14:08:03Z</time>
      </trkpt>
      <trkpt lat="47.83304" lon="-3.68243">
        <ele>26.7</ele>
        <time>2020-06-07T14:08:04Z</time>
      </trkpt>
      <trkpt lat="47.83305" lon="-3.68247">
        <ele>26.8</ele>
        <time>2020-06-07T14:08:05Z</time>
      </trkpt>
      <trkpt lat="47.83305" lon="-3.68254">
        <ele>27</ele>
        <time>2020-06-07T14:08:06Z</time>
      </trkpt>
      <trkpt lat="47.83305" lon="-3.68259">
        <ele>27.1</ele>
        <time>2020-06-07T14:08:07Z</time>
      </trkpt>
      <trkpt lat="47.83305" lon="-3.68265">
        <ele>27.3</ele>
        <time>2020-06-07T14:08:08Z</time>
      </trkpt>
      <trkpt lat="47.83305" lon="-3.68271">
        <ele>27.4</ele>
        <time>2020-06-07T14:08:09Z</time>
      </trkpt>
      <trkpt lat="47.83305" lon="-3.68277">
        <ele>27.5</ele>
        <time>2020-06-07T14:08:10Z</time>
      </trkpt>
      <trkpt lat="47.83306" lon="-3.68282">
        <ele>27.7</ele>
        <time>2020-06-07T14:08:11Z</time>
      </trkpt>
      <trkpt lat="47.83306" lon="-3.68287">
        <ele>27.8</ele>
        <time>2020-06-07T14:08:12Z</time>
      </trkpt>
      <trkpt lat="47.83307" lon="-3.68292">
        <ele>27.9</ele>
        <time>2020-06-07T14:08:13Z</time>
      </trkpt>
      <trkpt lat="47.83307" lon="-3.68296">
        <ele>28</ele>
        <time>2020-06-07T14:08:14Z</time>
      </trkpt>
      <trkpt lat="47.83307" lon="-3.68302">
        <ele>28.1</ele>
        <time>2020-06-07T14:08:15Z</time>
      </trkpt>
      <trkpt lat="47.83307" lon="-3.68308">
        <ele>28.3</ele>
        <time>2020-06-07T14:08:16Z</time>
      </trkpt>
      <trkpt lat="47.83307" lon="-3.68314">
        <ele>28.4</ele>
        <time>2020-06-07T14:08:17Z</time>
      </trkpt>
      <trkpt lat="47.83308" lon="-3.68319">
        <ele>28.5</ele>
        <time>2020-06-07T14:08:18Z</time>
      </trkpt>
      <trkpt lat="47.83309" lon="-3.68325">
        <ele>28.6</ele>
        <time>2020-06-07T14:08:19Z</time>
      </trkpt>
      <trkpt lat="47.83309" lon="-3.6833">
        <ele>28.6</ele>
        <time>2020-06-07T14:08:20Z</time>
      </trkpt>
      <trkpt lat="47.83309" lon="-3.68335">
        <ele>28.7</ele>
        <time>2020-06-07T14:08:21Z</time>
      </trkpt>
      <trkpt lat="47.8331" lon="-3.68339">
        <ele>28.8</ele>
        <time>2020-06-07T14:08:22Z</time>
      </trkpt>
      <trkpt lat="47.83311" lon="-3.68343">
        <ele>28.8</ele>
        <time>2020-06-07T14:08:23Z</time>
      </trkpt>
      <trkpt lat="47.83312" lon="-3.6835">
        <ele>28.9</ele>
        <time>2020-06-07T14:08:24Z</time>
      </trkpt>
      <trkpt lat="47.83313" lon="-3.68356">
        <ele>29</ele>
        <time>2020-06-07T14:08:25Z</time>
      </trkpt>
      <trkpt lat="47.83314" lon="-3.6836">
        <ele>29.1</ele>
        <time>2020-06-07T14:08:26Z</time>
      </trkpt>
      <trkpt lat="47.83315" lon="-3.68367">
        <ele>29.2</ele>
        <time>2020-06-07T14:08:27Z</time>
      </trkpt>
      <trkpt lat="47.83316" lon="-3.6837">
        <ele>29.2</ele>
        <time>2020-06-07T14:08:28Z</time>
      </trkpt>
      <trkpt lat="47.83317" lon="-3.68375">
        <ele>29.2</ele>
        <time>2020-06-07T14:08:29Z</time>
      </trkpt>
      <trkpt lat="47.83319" lon="-3.68381">
        <ele>29.2</ele>
        <time>2020-06-07T14:08:30Z</time>
      </trkpt>
      <trkpt lat="47.83321" lon="-3.68384">
        <ele>29.3</ele>
        <time>2020-06-07T14:08:31Z</time>
      </trkpt>
      <trkpt lat="47.83323" lon="-3.68388">
        <ele>29.3</ele>
        <time>2020-06-07T14:08:32Z</time>
      </trkpt>
      <trkpt lat="47.83324" lon="-3.68393">
        <ele>29.4</ele>
        <time>2020-06-07T14:08:33Z</time>
      </trkpt>
      <trkpt lat="47.83324" lon="-3.68398">
        <ele>29.4</ele>
        <time>2020-06-07T14:08:34Z</time>
      </trkpt>
      <trkpt lat="47.83326" lon="-3.68405">
        <ele>29.5</ele>
        <time>2020-06-07T14:08:35Z</time>
      </trkpt>
      <trkpt lat="47.83327" lon="-3.68408">
        <ele>29.5</ele>
        <time>2020-06-07T14:08:36Z</time>
      </trkpt>
      <trkpt lat="47.83329" lon="-3.68411">
        <ele>29.6</ele>
        <time>2020-06-07T14:08:37Z</time>
      </trkpt>
      <trkpt lat="47.83331" lon="-3.68417">
        <ele>29.7</ele>
        <time>2020-06-07T14:08:38Z</time>
      </trkpt>
      <trkpt lat="47.83333" lon="-3.68423">
        <ele>29.8</ele>
        <time>2020-06-07T14:08:39Z</time>
      </trkpt>
      <trkpt lat="47.83335" lon="-3.68428">
        <ele>29.8</ele>
        <time>2020-06-07T14:08:40Z</time>
      </trkpt>
      <trkpt lat="47.83337" lon="-3.68432">
        <ele>29.9</ele>
        <time>2020-06-07T14:08:41Z</time>
      </trkpt>
      <trkpt lat="47.83338" lon="-3.68437">
        <ele>30</ele>
        <time>2020-06-07T14:08:42Z</time>
      </trkpt>
      <trkpt lat="47.8334" lon="-3.68442">
        <ele>30</ele>
        <time>2020-06-07T14:08:43Z</time>
      </trkpt>
      <trkpt lat="47.83342" lon="-3.68448">
        <ele>30.1</ele>
        <time>2020-06-07T14:08:44Z</time>
      </trkpt>
      <trkpt lat="47.83343" lon="-3.68453">
        <ele>30.2</ele>
        <time>2020-06-07T14:08:45Z</time>
      </trkpt>
      <trkpt lat="47.83345" lon="-3.68459">
        <ele>30.3</ele>
        <time>2020-06-07T14:08:46Z</time>
      </trkpt>
      <trkpt lat="47.83347" lon="-3.68465">
        <ele>30.4</ele>
        <time>2020-06-07T14:08:47Z</time>
      </trkpt>
      <trkpt lat="47.83349" lon="-3.68471">
        <ele>30.4</ele>
        <time>2020-06-07T14:08:48Z</time>
      </trkpt>
      <trkpt lat="47.83351" lon="-3.68476">
        <ele>30.5</ele>
        <time>2020-06-07T14:08:49Z</time>
      </trkpt>
      <trkpt lat="47.83354" lon="-3.68481">
        <ele>30.7</ele>
        <time>2020-06-07T14:08:50Z</time>
      </trkpt>
      <trkpt lat="47.83356" lon="-3.68485">
        <ele>30.8</ele>
        <time>2020-06-07T14:08:51Z</time>
      </trkpt>
      <trkpt lat="47.8336" lon="-3.68489">
        <ele>30.9</ele>
        <time>2020-06-07T14:08:52Z</time>
      </trkpt>
      <trkpt lat="47.83363" lon="-3.68494">
        <ele>31.1</ele>
        <time>2020-06-07T14:08:53Z</time>
      </trkpt>
      <trkpt lat="47.83366" lon="-3.68499">
        <ele>31.2</ele>
        <time>2020-06-07T14:08:54Z</time>
      </trkpt>
      <trkpt lat="47.83368" lon="-3.68503">
        <ele>31.4</ele>
        <time>2020-06-07T14:08:55Z</time>
      </trkpt>
      <trkpt lat="47.8337" lon="-3.68507">
        <ele>31.5</ele>
        <time>2020-06-07T14:08:56Z</time>
      </trkpt>
      <trkpt lat="47.83373" lon="-3.68511">
        <ele>31.6</ele>
        <time>2020-06-07T14:08:57Z</time>
      </trkpt>
      <trkpt lat="47.83375" lon="-3.68515">
        <ele>31.8</ele>
        <time>2020-06-07T14:08:58Z</time>
      </trkpt>
      <trkpt lat="47.83378" lon="-3.68519">
        <ele>31.9</ele>
        <time>2020-06-07T14:08:59Z</time>
      </trkpt>
      <trkpt lat="47.83381" lon="-3.68522">
        <ele>32</ele>
        <time>2020-06-07T14:09:00Z</time>
      </trkpt>
      <trkpt lat="47.83383" lon="-3.68525">
        <ele>32.1</ele>
        <time>2020-06-07T14:09:01Z</time>
      </trkpt>
      <trkpt lat="47.83386" lon="-3.68529">
        <ele>32.3</ele>
        <time>2020-06-07T14:09:02Z</time>
      </trkpt>
      <trkpt lat="47.83389" lon="-3.68532">
        <ele>32.4</ele>
        <time>2020-06-07T14:09:03Z</time>
      </trkpt>
      <trkpt lat="47.83391" lon="-3.68535">
        <ele>32.5</ele>
        <time>2020-06-07T14:09:04Z</time>
      </trkpt>
      <trkpt lat="47.83393" lon="-3.68538">
        <ele>32.6</ele>
        <time>2020-06-07T14:09:05Z</time>
      </trkpt>
      <trkpt lat="47.83396" lon="-3.68541">
        <ele>32.7</ele>
        <time>2020-06-07T14:09:06Z</time>
      </trkpt>
      <trkpt lat="47.834" lon="-3.68545">
        <ele>32.8</ele>
        <time>2020-06-07T14:09:07Z</time>
      </trkpt>
      <trkpt lat="47.83403" lon="-3.68548">
        <ele>33</ele>
        <time>2020-06-07T14:09:08Z</time>
      </trkpt>
      <trkpt lat="47.83408" lon="-3.6855">
        <ele>33.2</ele>
        <time>2020-06-07T14:09:09Z</time>
      </trkpt>
      <trkpt lat="47.83411" lon="-3.68554">
        <ele>33.3</ele>
        <time>2020-06-07T14:09:10Z</time>
      </trkpt>
      <trkpt lat="47.83415" lon="-3.68558">
        <ele>33.5</ele>
        <time>2020-06-07T14:09:11Z</time>
      </trkpt>
      <trkpt lat="47.83418" lon="-3.68562">
        <ele>33.7</ele>
        <time>2020-06-07T14:09:12Z</time>
      </trkpt>
      <trkpt lat="47.83422" lon="-3.68566">
        <ele>33.8</ele>
        <time>2020-06-07T14:09:13Z</time>
      </trkpt>
      <trkpt lat="47.83425" lon="-3.68569">
        <ele>34</ele>
        <time>2020-06-07T14:09:14Z</time>
      </trkpt>
      <trkpt lat="47.83428" lon="-3.68574">
        <ele>34.1</ele>
        <time>2020-06-07T14:09:15Z</time>
      </trkpt>
      <trkpt lat="47.83432" lon="-3.68578">
        <ele>34.3</ele>
        <time>2020-06-07T14:09:16Z</time>
      </trkpt>
      <trkpt lat="47.83436" lon="-3.68581">
        <ele>34.6</ele>
        <time>2020-06-07T14:09:17Z</time>
      </trkpt>
      <trkpt lat="47.8344" lon="-3.68584">
        <ele>34.7</ele>
        <time>2020-06-07T14:09:18Z</time>
      </trkpt>
      <trkpt lat="47.83443" lon="-3.68586">
        <ele>34.9</ele>
        <time>2020-06-07T14:09:19Z</time>
      </trkpt>
      <trkpt lat="47.83446" lon="-3.68589">
        <ele>35.1</ele>
        <time>2020-06-07T14:09:20Z</time>
      </trkpt>
      <trkpt lat="47.8345" lon="-3.68592">
        <ele>35.3</ele>
        <time>2020-06-07T14:09:21Z</time>
      </trkpt>
      <trkpt lat="47.83454" lon="-3.68595">
        <ele>35.5</ele>
        <time>2020-06-07T14:09:22Z</time>
      </trkpt>
      <trkpt lat="47.83458" lon="-3.68598">
        <ele>35.7</ele>
        <time>2020-06-07T14:09:23Z</time>
      </trkpt>
      <trkpt lat="47.83461" lon="-3.68601">
        <ele>35.9</ele>
        <time>2020-06-07T14:09:24Z</time>
      </trkpt>
      <trkpt lat="47.83465" lon="-3.68602">
        <ele>36.1</ele>
        <time>2020-06-07T14:09:25Z</time>
      </trkpt>
      <trkpt lat="47.83469" lon="-3.68606">
        <ele>36.3</ele>
        <time>2020-06-07T14:09:26Z</time>
      </trkpt>
      <trkpt lat="47.83472" lon="-3.68609">
        <ele>36.4</ele>
        <time>2020-06-07T14:09:27Z</time>
      </trkpt>
      <trkpt lat="47.83475" lon="-3.68611">
        <ele>36.6</ele>
        <time>2020-06-07T14:09:28Z</time>
      </trkpt>
      <trkpt lat="47.83478" lon="-3.68614">
        <ele>36.8</ele>
        <time>2020-06-07T14:09:29Z</time>
      </trkpt>
      <trkpt lat="47.83482" lon="-3.68617">
        <ele>37</ele>
        <time>2020-06-07T14:09:30Z</time>
      </trkpt>
      <trkpt lat="47.83485" lon="-3.6862">
        <ele>37.2</ele>
        <time>2020-06-07T14:09:31Z</time>
      </trkpt>
      <trkpt lat="47.8349" lon="-3.68623">
        <ele>37.4</ele>
        <time>2020-06-07T14:09:32Z</time>
      </trkpt>
      <trkpt lat="47.83491" lon="-3.68625">
        <ele>37.5</ele>
        <time>2020-06-07T14:09:33Z</time>
      </trkpt>
      <trkpt lat="47.83495" lon="-3.68627">
        <ele>37.7</ele>
        <time>2020-06-07T14:09:34Z</time>
      </trkpt>
      <trkpt lat="47.83498" lon="-3.6863">
        <ele>37.9</ele>
        <time>2020-06-07T14:09:35Z</time>
      </trkpt>
      <trkpt lat="47.83502" lon="-3.68632">
        <ele>38.1</ele>
        <time>2020-06-07T14:09:36Z</time>
      </trkpt>
      <trkpt lat="47.83505" lon="-3.68634">
        <ele>38.3</ele>
        <time>2020-06-07T14:09:37Z</time>
      </trkpt>
      <trkpt lat="47.83508" lon="-3.68636">
        <ele>38.4</ele>
        <time>2020-06-07T14:09:38Z</time>
      </trkpt>
      <trkpt lat="47.8351" lon="-3.68638">
        <ele>38.6</ele>
        <time>2020-06-07T14:09:39Z</time>
      </trkpt>
      <trkpt lat="47.83514" lon="-3.68641">
        <ele>38.8</ele>
        <time>2020-06-07T14:09:40Z</time>
      </trkpt>
      <trkpt lat="47.83515" lon="-3.68641">
        <ele>38.9</ele>
        <time>2020-06-07T14:09:41Z</time>
      </trkpt>
      <trkpt lat="47.83519" lon="-3.68643">
        <ele>39.1</ele>
        <time>2020-06-07T14:09:42Z</time>
      </trkpt>
      <trkpt lat="47.8352" lon="-3.68644">
        <ele>39.2</ele>
        <time>2020-06-07T14:09:43Z</time>
      </trkpt>
      <trkpt lat="47.83525" lon="-3.68645">
        <ele>39.4</ele>
        <time>2020-06-07T14:09:44Z</time>
      </trkpt>
      <trkpt lat="47.83528" lon="-3.68649">
        <ele>39.6</ele>
        <time>2020-06-07T14:09:45Z</time>
      </trkpt>
      <trkpt lat="47.83529" lon="-3.68651">
        <ele>39.7</ele>
        <time>2020-06-07T14:09:46Z</time>
      </trkpt>
      <trkpt lat="47.83531" lon="-3.68654">
        <ele>39.8</ele>
        <time>2020-06-07T14:09:47Z</time>
      </trkpt>
      <trkpt lat="47.83533" lon="-3.68657">
        <ele>39.9</ele>
        <time>2020-06-07T14:09:48Z</time>
      </trkpt>
      <trkpt lat="47.83536" lon="-3.68659">
        <ele>40.1</ele>
        <time>2020-06-07T14:09:49Z</time>
      </trkpt>
      <trkpt lat="47.83537" lon="-3.6866">
        <ele>40.1</ele>
        <time>2020-06-07T14:09:50Z</time>
      </trkpt>
      <trkpt lat="47.83541" lon="-3.68662">
        <ele>40.2</ele>
        <time>2020-06-07T14:09:51Z</time>
      </trkpt>
      <trkpt lat="47.83542" lon="-3.68663">
        <ele>40.3</ele>
        <time>2020-06-07T14:09:52Z</time>
      </trkpt>
      <trkpt lat="47.83544" lon="-3.68666">
        <ele>40.5</ele>
        <time>2020-06-07T14:09:53Z</time>
      </trkpt>
      <trkpt lat="47.83546" lon="-3.68668">
        <ele>40.6</ele>
        <time>2020-06-07T14:09:54Z</time>
      </trkpt>
      <trkpt lat="47.83548" lon="-3.68672">
        <ele>40.8</ele>
        <time>2020-06-07T14:09:55Z</time>
      </trkpt>
      <trkpt lat="47.83549" lon="-3.68676">
        <ele>40.9</ele>
        <time>2020-06-07T14:09:56Z</time>
      </trkpt>
      <trkpt lat="47.8355" lon="-3.6868">
        <ele>41</ele>
        <time>2020-06-07T14:09:57Z</time>
      </trkpt>
      <trkpt lat="47.83551" lon="-3.68684">
        <ele>41.2</ele>
        <time>2020-06-07T14:09:58Z</time>
      </trkpt>
      <trkpt lat="47.83552" lon="-3.68688">
        <ele>41.3</ele>
        <time>2020-06-07T14:09:59Z</time>
      </trkpt>
      <trkpt lat="47.83554" lon="-3.68693">
        <ele>41.5</ele>
        <time>2020-06-07T14:10:00Z</time>
      </trkpt>
      <trkpt lat="47.83554" lon="-3.68698">
        <ele>41.7</ele>
        <time>2020-06-07T14:10:01Z</time>
      </trkpt>
      <trkpt lat="47.83554" lon="-3.687">
        <ele>41.7</ele>
        <time>2020-06-07T14:10:02Z</time>
      </trkpt>
      <trkpt lat="47.83554" lon="-3.68702">
        <ele>41.8</ele>
        <time>2020-06-07T14:10:03Z</time>
      </trkpt>
      <trkpt lat="47.83554" lon="-3.68704">
        <ele>41.9</ele>
        <time>2020-06-07T14:10:04Z</time>
      </trkpt>
      <trkpt lat="47.83554" lon="-3.68705">
        <ele>41.9</ele>
        <time>2020-06-07T14:10:05Z</time>
      </trkpt>
      <trkpt lat="47.83555" lon="-3.68706">
        <ele>41.9</ele>
        <time>2020-06-07T14:10:06Z</time>
      </trkpt>
      <trkpt lat="47.83555" lon="-3.68708">
        <ele>42</ele>
        <time>2020-06-07T14:10:07Z</time>
      </trkpt>
      <trkpt lat="47.83555" lon="-3.68712">
        <ele>42.1</ele>
        <time>2020-06-07T14:10:08Z</time>
      </trkpt>
      <trkpt lat="47.83555" lon="-3.68714">
        <ele>42.2</ele>
        <time>2020-06-07T14:10:09Z</time>
      </trkpt>
      <trkpt lat="47.83556" lon="-3.68718">
        <ele>42.3</ele>
        <time>2020-06-07T14:10:10Z</time>
      </trkpt>
      <trkpt lat="47.83556" lon="-3.68719">
        <ele>42.3</ele>
        <time>2020-06-07T14:10:11Z</time>
      </trkpt>
      <trkpt lat="47.83557" lon="-3.68722">
        <ele>42.4</ele>
        <time>2020-06-07T14:10:12Z</time>
      </trkpt>
      <trkpt lat="47.83557" lon="-3.68723">
        <ele>42.4</ele>
        <time>2020-06-07T14:10:13Z</time>
      </trkpt>
      <trkpt lat="47.83557" lon="-3.68723">
        <ele>42.4</ele>
        <time>2020-06-07T14:10:14Z</time>
      </trkpt>
      <trkpt lat="47.83558" lon="-3.68724">
        <ele>42.5</ele>
        <time>2020-06-07T14:10:15Z</time>
      </trkpt>
      <trkpt lat="47.83558" lon="-3.68725">
        <ele>42.5</ele>
        <time>2020-06-07T14:10:16Z</time>
      </trkpt>
      <trkpt lat="47.83558" lon="-3.68726">
        <ele>42.5</ele>
        <time>2020-06-07T14:10:17Z</time>
      </trkpt>
      <trkpt lat="47.83559" lon="-3.68726">
        <ele>42.5</ele>
        <time>2020-06-07T14:10:18Z</time>
      </trkpt>
      <trkpt lat="47.83559" lon="-3.68727">
        <ele>42.6</ele>
        <time>2020-06-07T14:10:19Z</time>
      </trkpt>
      <trkpt lat="47.83559" lon="-3.68728">
        <ele>42.6</ele>
        <time>2020-06-07T14:10:20Z</time>
      </trkpt>
      <trkpt lat="47.8356" lon="-3.68729">
        <ele>42.6</ele>
        <time>2020-06-07T14:10:21Z</time>
      </trkpt>
      <trkpt lat="47.8356" lon="-3.68729">
        <ele>42.6</ele>
        <time>2020-06-07T14:10:22Z</time>
      </trkpt>
      <trkpt lat="47.8356" lon="-3.6873">
        <ele>42.6</ele>
        <time>2020-06-07T14:10:23Z</time>
      </trkpt>
      <trkpt lat="47.83561" lon="-3.68731">
        <ele>42.7</ele>
        <time>2020-06-07T14:11:41Z</time>
      </trkpt>
      <trkpt lat="47.83561" lon="-3.68732">
        <ele>42.7</ele>
        <time>2020-06-07T14:11:42Z</time>
      </trkpt>
      <trkpt lat="47.83563" lon="-3.68737">
        <ele>42.8</ele>
        <time>2020-06-07T14:11:43Z</time>
      </trkpt>
      <trkpt lat="47.83565" lon="-3.68741">
        <ele>43</ele>
        <time>2020-06-07T14:11:44Z</time>
      </trkpt>
      <trkpt lat="47.83566" lon="-3.68746">
        <ele>43.1</ele>
        <time>2020-06-07T14:11:45Z</time>
      </trkpt>
      <trkpt lat="47.83568" lon="-3.68751">
        <ele>43.2</ele>
        <time>2020-06-07T14:11:46Z</time>
      </trkpt>
      <trkpt lat="47.8357" lon="-3.68756">
        <ele>43.4</ele>
        <time>2020-06-07T14:11:47Z</time>
      </trkpt>
      <trkpt lat="47.83571" lon="-3.6876">
        <ele>43.6</ele>
        <time>2020-06-07T14:11:48Z</time>
      </trkpt>
      <trkpt lat="47.83572" lon="-3.68764">
        <ele>43.6</ele>
        <time>2020-06-07T14:11:49Z</time>
      </trkpt>
      <trkpt lat="47.83574" lon="-3.68769">
        <ele>43.7</ele>
        <time>2020-06-07T14:11:50Z</time>
      </trkpt>
      <trkpt lat="47.83575" lon="-3.68772">
        <ele>43.8</ele>
        <time>2020-06-07T14:11:51Z</time>
      </trkpt>
      <trkpt lat="47.83578" lon="-3.68775">
        <ele>43.9</ele>
        <time>2020-06-07T14:11:52Z</time>
      </trkpt>
      <trkpt lat="47.83579" lon="-3.6878">
        <ele>44</ele>
        <time>2020-06-07T14:11:53Z</time>
      </trkpt>
      <trkpt lat="47.83581" lon="-3.68784">
        <ele>44</ele>
        <time>2020-06-07T14:11:54Z</time>
      </trkpt>
      <trkpt lat="47.83582" lon="-3.68789">
        <ele>44.1</ele>
        <time>2020-06-07T14:11:55Z</time>
      </trkpt>
      <trkpt lat="47.83584" lon="-3.68794">
        <ele>44.2</ele>
        <time>2020-06-07T14:11:56Z</time>
      </trkpt>
      <trkpt lat="47.83586" lon="-3.688">
        <ele>44.3</ele>
        <time>2020-06-07T14:11:57Z</time>
      </trkpt>
      <trkpt lat="47.83588" lon="-3.68804">
        <ele>44.4</ele>
        <time>2020-06-07T14:11:58Z</time>
      </trkpt>
      <trkpt lat="47.83589" lon="-3.6881">
        <ele>44.5</ele>
        <time>2020-06-07T14:11:59Z</time>
      </trkpt>
      <trkpt lat="47.83591" lon="-3.68814">
        <ele>44.6</ele>
        <time>2020-06-07T14:12:00Z</time>
      </trkpt>
      <trkpt lat="47.83593" lon="-3.68817">
        <ele>44.6</ele>
        <time>2020-06-07T14:12:01Z</time>
      </trkpt>
      <trkpt lat="47.83595" lon="-3.68821">
        <ele>44.7</ele>
        <time>2020-06-07T14:12:02Z</time>
      </trkpt>
      <trkpt lat="47.83597" lon="-3.68823">
        <ele>44.8</ele>
        <time>2020-06-07T14:12:03Z</time>
      </trkpt>
      <trkpt lat="47.836" lon="-3.68827">
        <ele>44.9</ele>
        <time>2020-06-07T14:12:04Z</time>
      </trkpt>
      <trkpt lat="47.83603" lon="-3.6883">
        <ele>44.9</ele>
        <time>2020-06-07T14:12:05Z</time>
      </trkpt>
      <trkpt lat="47.83605" lon="-3.68833">
        <ele>45</ele>
        <time>2020-06-07T14:12:06Z</time>
      </trkpt>
      <trkpt lat="47.83608" lon="-3.68836">
        <ele>45.1</ele>
        <time>2020-06-07T14:12:07Z</time>
      </trkpt>
      <trkpt lat="47.83611" lon="-3.68839">
        <ele>45.1</ele>
        <time>2020-06-07T14:12:08Z</time>
      </trkpt>
      <trkpt lat="47.83614" lon="-3.6884">
        <ele>45.2</ele>
        <time>2020-06-07T14:12:09Z</time>
      </trkpt>
      <trkpt lat="47.83617" lon="-3.68843">
        <ele>45.3</ele>
        <time>2020-06-07T14:12:10Z</time>
      </trkpt>
      <trkpt lat="47.83619" lon="-3.68844">
        <ele>45.4</ele>
        <time>2020-06-07T14:12:11Z</time>
      </trkpt>
      <trkpt lat="47.83622" lon="-3.68846">
        <ele>45.5</ele>
        <time>2020-06-07T14:12:12Z</time>
      </trkpt>
      <trkpt lat="47.83624" lon="-3.68847">
        <ele>45.5</ele>
        <time>2020-06-07T14:12:13Z</time>
      </trkpt>
      <trkpt lat="47.83627" lon="-3.68848">
        <ele>45.6</ele>
        <time>2020-06-07T14:12:14Z</time>
      </trkpt>
      <trkpt lat="47.83629" lon="-3.68849">
        <ele>45.6</ele>
        <time>2020-06-07T14:12:15Z</time>
      </trkpt>
      <trkpt lat="47.83633" lon="-3.6885">
        <ele>45.7</ele>
        <time>2020-06-07T14:12:16Z</time>
      </trkpt>
      <trkpt lat="47.83636" lon="-3.68852">
        <ele>45.8</ele>
        <time>2020-06-07T14:12:17Z</time>
      </trkpt>
      <trkpt lat="47.83639" lon="-3.68855">
        <ele>45.8</ele>
        <time>2020-06-07T14:12:18Z</time>
      </trkpt>
      <trkpt lat="47.83642" lon="-3.68856">
        <ele>45.9</ele>
        <time>2020-06-07T14:12:19Z</time>
      </trkpt>
      <trkpt lat="47.83645" lon="-3.68857">
        <ele>45.9</ele>
        <time>2020-06-07T14:12:20Z</time>
      </trkpt>
      <trkpt lat="47.83648" lon="-3.68858">
        <ele>46</ele>
        <time>2020-06-07T14:12:21Z</time>
      </trkpt>
      <trkpt lat="47.83652" lon="-3.6886">
        <ele>46</ele>
        <time>2020-06-07T14:12:22Z</time>
      </trkpt>
      <trkpt lat="47.83653" lon="-3.6886">
        <ele>46.1</ele>
        <time>2020-06-07T14:12:23Z</time>
      </trkpt>
      <trkpt lat="47.83656" lon="-3.6886">
        <ele>46.1</ele>
        <time>2020-06-07T14:12:24Z</time>
      </trkpt>
      <trkpt lat="47.83659" lon="-3.68862">
        <ele>46.2</ele>
        <time>2020-06-07T14:12:25Z</time>
      </trkpt>
      <trkpt lat="47.83662" lon="-3.68863">
        <ele>46.3</ele>
        <time>2020-06-07T14:12:26Z</time>
      </trkpt>
      <trkpt lat="47.83666" lon="-3.68864">
        <ele>46.4</ele>
        <time>2020-06-07T14:12:27Z</time>
      </trkpt>
      <trkpt lat="47.83669" lon="-3.68865">
        <ele>46.4</ele>
        <time>2020-06-07T14:12:28Z</time>
      </trkpt>
      <trkpt lat="47.83672" lon="-3.68865">
        <ele>46.5</ele>
        <time>2020-06-07T14:12:29Z</time>
      </trkpt>
      <trkpt lat="47.83676" lon="-3.68866">
        <ele>46.6</ele>
        <time>2020-06-07T14:12:30Z</time>
      </trkpt>
      <trkpt lat="47.83679" lon="-3.68868">
        <ele>46.7</ele>
        <time>2020-06-07T14:12:31Z</time>
      </trkpt>
      <trkpt lat="47.83683" lon="-3.68871">
        <ele>46.7</ele>
        <time>2020-06-07T14:12:32Z</time>
      </trkpt>
      <trkpt lat="47.83687" lon="-3.68873">
        <ele>46.8</ele>
        <time>2020-06-07T14:12:33Z</time>
      </trkpt>
      <trkpt lat="47.8369" lon="-3.68875">
        <ele>46.9</ele>
        <time>2020-06-07T14:12:34Z</time>
      </trkpt>
      <trkpt lat="47.83694" lon="-3.68876">
        <ele>46.9</ele>
        <time>2020-06-07T14:12:35Z</time>
      </trkpt>
      <trkpt lat="47.83697" lon="-3.68879">
        <ele>46.9</ele>
        <time>2020-06-07T14:12:36Z</time>
      </trkpt>
      <trkpt lat="47.83701" lon="-3.6888">
        <ele>46.9</ele>
        <time>2020-06-07T14:12:37Z</time>
      </trkpt>
      <trkpt lat="47.83705" lon="-3.68881">
        <ele>47</ele>
        <time>2020-06-07T14:12:38Z</time>
      </trkpt>
      <trkpt lat="47.83709" lon="-3.68882">
        <ele>47</ele>
        <time>2020-06-07T14:12:39Z</time>
      </trkpt>
      <trkpt lat="47.83713" lon="-3.68883">
        <ele>47.1</ele>
        <time>2020-06-07T14:12:40Z</time>
      </trkpt>
      <trkpt lat="47.83717" lon="-3.68884">
        <ele>47.2</ele>
        <time>2020-06-07T14:12:41Z</time>
      </trkpt>
      <trkpt lat="47.83721" lon="-3.68885">
        <ele>47.2</ele>
        <time>2020-06-07T14:12:42Z</time>
      </trkpt>
      <trkpt lat="47.83724" lon="-3.68887">
        <ele>47.3</ele>
        <time>2020-06-07T14:12:43Z</time>
      </trkpt>
      <trkpt lat="47.83728" lon="-3.68891">
        <ele>47.4</ele>
        <time>2020-06-07T14:12:44Z</time>
      </trkpt>
      <trkpt lat="47.83731" lon="-3.68892">
        <ele>47.4</ele>
        <time>2020-06-07T14:12:45Z</time>
      </trkpt>
      <trkpt lat="47.83735" lon="-3.68894">
        <ele>47.5</ele>
        <time>2020-06-07T14:12:46Z</time>
      </trkpt>
      <trkpt lat="47.83738" lon="-3.68894">
        <ele>47.6</ele>
        <time>2020-06-07T14:12:47Z</time>
      </trkpt>
      <trkpt lat="47.83741" lon="-3.68896">
        <ele>47.6</ele>
        <time>2020-06-07T14:12:48Z</time>
      </trkpt>
      <trkpt lat="47.83745" lon="-3.68898">
        <ele>47.7</ele>
        <time>2020-06-07T14:12:49Z</time>
      </trkpt>
      <trkpt lat="47.8375" lon="-3.68899">
        <ele>47.8</ele>
        <time>2020-06-07T14:12:50Z</time>
      </trkpt>
      <trkpt lat="47.83754" lon="-3.68901">
        <ele>47.9</ele>
        <time>2020-06-07T14:12:51Z</time>
      </trkpt>
      <trkpt lat="47.83758" lon="-3.68902">
        <ele>47.9</ele>
        <time>2020-06-07T14:12:52Z</time>
      </trkpt>
      <trkpt lat="47.83761" lon="-3.68905">
        <ele>48</ele>
        <time>2020-06-07T14:12:53Z</time>
      </trkpt>
      <trkpt lat="47.83764" lon="-3.68906">
        <ele>48.1</ele>
        <time>2020-06-07T14:12:54Z</time>
      </trkpt>
      <trkpt lat="47.83767" lon="-3.68908">
        <ele>48.1</ele>
        <time>2020-06-07T14:12:55Z</time>
      </trkpt>
      <trkpt lat="47.8377" lon="-3.6891">
        <ele>48.2</ele>
        <time>2020-06-07T14:12:56Z</time>
      </trkpt>
      <trkpt lat="47.83773" lon="-3.68911">
        <ele>48.3</ele>
        <time>2020-06-07T14:12:57Z</time>
      </trkpt>
      <trkpt lat="47.83776" lon="-3.68913">
        <ele>48.3</ele>
        <time>2020-06-07T14:12:58Z</time>
      </trkpt>
      <trkpt lat="47.83779" lon="-3.68915">
        <ele>48.3</ele>
        <time>2020-06-07T14:12:59Z</time>
      </trkpt>
      <trkpt lat="47.83782" lon="-3.68919">
        <ele>48.4</ele>
        <time>2020-06-07T14:13:00Z</time>
      </trkpt>
      <trkpt lat="47.83785" lon="-3.68922">
        <ele>48.4</ele>
        <time>2020-06-07T14:13:01Z</time>
      </trkpt>
      <trkpt lat="47.83788" lon="-3.68925">
        <ele>48.5</ele>
        <time>2020-06-07T14:13:02Z</time>
      </trkpt>
      <trkpt lat="47.83792" lon="-3.68928">
        <ele>48.5</ele>
        <time>2020-06-07T14:13:03Z</time>
      </trkpt>
      <trkpt lat="47.83795" lon="-3.68932">
        <ele>48.5</ele>
        <time>2020-06-07T14:13:04Z</time>
      </trkpt>
      <trkpt lat="47.83798" lon="-3.68934">
        <ele>48.5</ele>
        <time>2020-06-07T14:13:05Z</time>
      </trkpt>
      <trkpt lat="47.83802" lon="-3.68938">
        <ele>48.6</ele>
        <time>2020-06-07T14:13:06Z</time>
      </trkpt>
      <trkpt lat="47.83805" lon="-3.68942">
        <ele>48.6</ele>
        <time>2020-06-07T14:13:07Z</time>
      </trkpt>
      <trkpt lat="47.83808" lon="-3.68946">
        <ele>48.6</ele>
        <time>2020-06-07T14:13:08Z</time>
      </trkpt>
      <trkpt lat="47.8381" lon="-3.68949">
        <ele>48.6</ele>
        <time>2020-06-07T14:13:09Z</time>
      </trkpt>
      <trkpt lat="47.83812" lon="-3.68953">
        <ele>48.7</ele>
        <time>2020-06-07T14:13:10Z</time>
      </trkpt>
      <trkpt lat="47.83815" lon="-3.68957">
        <ele>48.7</ele>
        <time>2020-06-07T14:13:11Z</time>
      </trkpt>
      <trkpt lat="47.83818" lon="-3.68961">
        <ele>48.7</ele>
        <time>2020-06-07T14:13:12Z</time>
      </trkpt>
      <trkpt lat="47.8382" lon="-3.68965">
        <ele>48.8</ele>
        <time>2020-06-07T14:13:13Z</time>
      </trkpt>
      <trkpt lat="47.83823" lon="-3.68969">
        <ele>48.8</ele>
        <time>2020-06-07T14:13:14Z</time>
      </trkpt>
      <trkpt lat="47.83827" lon="-3.68974">
        <ele>48.9</ele>
        <time>2020-06-07T14:13:15Z</time>
      </trkpt>
      <trkpt lat="47.83829" lon="-3.68978">
        <ele>48.9</ele>
        <time>2020-06-07T14:13:16Z</time>
      </trkpt>
      <trkpt lat="47.83832" lon="-3.68981">
        <ele>49</ele>
        <time>2020-06-07T14:13:17Z</time>
      </trkpt>
      <trkpt lat="47.83835" lon="-3.68985">
        <ele>49.1</ele>
        <time>2020-06-07T14:13:18Z</time>
      </trkpt>
      <trkpt lat="47.83837" lon="-3.68989">
        <ele>49.2</ele>
        <time>2020-06-07T14:13:19Z</time>
      </trkpt>
      <trkpt lat="47.83839" lon="-3.68994">
        <ele>49.2</ele>
        <time>2020-06-07T14:13:20Z</time>
      </trkpt>
      <trkpt lat="47.83842" lon="-3.68999">
        <ele>49.3</ele>
        <time>2020-06-07T14:13:21Z</time>
      </trkpt>
      <trkpt lat="47.83844" lon="-3.69002">
        <ele>49.4</ele>
        <time>2020-06-07T14:13:22Z</time>
      </trkpt>
      <trkpt lat="47.83845" lon="-3.69006">
        <ele>49.5</ele>
        <time>2020-06-07T14:13:23Z</time>
      </trkpt>
      <trkpt lat="47.83848" lon="-3.69011">
        <ele>49.6</ele>
        <time>2020-06-07T14:13:24Z</time>
      </trkpt>
      <trkpt lat="47.8385" lon="-3.69014">
        <ele>49.7</ele>
        <time>2020-06-07T14:13:25Z</time>
      </trkpt>
      <trkpt lat="47.83852" lon="-3.69018">
        <ele>49.8</ele>
        <time>2020-06-07T14:13:26Z</time>
      </trkpt>
      <trkpt lat="47.83852" lon="-3.69019">
        <ele>49.9</ele>
        <time>2020-06-07T14:13:27Z</time>
      </trkpt>
      <trkpt lat="47.83854" lon="-3.69024">
        <ele>50</ele>
        <time>2020-06-07T14:13:28Z</time>
      </trkpt>
      <trkpt lat="47.83855" lon="-3.69025">
        <ele>50</ele>
        <time>2020-06-07T14:13:29Z</time>
      </trkpt>
      <trkpt lat="47.83858" lon="-3.69029">
        <ele>50.2</ele>
        <time>2020-06-07T14:13:30Z</time>
      </trkpt>
      <trkpt lat="47.83859" lon="-3.6903">
        <ele>50.3</ele>
        <time>2020-06-07T14:13:31Z</time>
      </trkpt>
      <trkpt lat="47.83862" lon="-3.69031">
        <ele>50.4</ele>
        <time>2020-06-07T14:13:32Z</time>
      </trkpt>
      <trkpt lat="47.83864" lon="-3.69034">
        <ele>50.5</ele>
        <time>2020-06-07T14:13:33Z</time>
      </trkpt>
      <trkpt lat="47.83866" lon="-3.69037">
        <ele>50.7</ele>
        <time>2020-06-07T14:13:34Z</time>
      </trkpt>
      <trkpt lat="47.83869" lon="-3.6904">
        <ele>50.9</ele>
        <time>2020-06-07T14:13:35Z</time>
      </trkpt>
      <trkpt lat="47.8387" lon="-3.69042">
        <ele>51</ele>
        <time>2020-06-07T14:13:36Z</time>
      </trkpt>
      <trkpt lat="47.83872" lon="-3.69046">
        <ele>51.2</ele>
        <time>2020-06-07T14:13:37Z</time>
      </trkpt>
      <trkpt lat="47.83874" lon="-3.69049">
        <ele>51.4</ele>
        <time>2020-06-07T14:13:38Z</time>
      </trkpt>
      <trkpt lat="47.83877" lon="-3.69052">
        <ele>51.7</ele>
        <time>2020-06-07T14:13:39Z</time>
      </trkpt>
      <trkpt lat="47.8388" lon="-3.69054">
        <ele>51.9</ele>
        <time>2020-06-07T14:13:40Z</time>
      </trkpt>
      <trkpt lat="47.83882" lon="-3.69057">
        <ele>52.1</ele>
        <time>2020-06-07T14:13:41Z</time>
      </trkpt>
      <trkpt lat="47.83885" lon="-3.6906">
        <ele>52.4</ele>
        <time>2020-06-07T14:13:42Z</time>
      </trkpt>
      <trkpt lat="47.83887" lon="-3.6906">
        <ele>52.5</ele>
        <time>2020-06-07T14:13:43Z</time>
      </trkpt>
      <trkpt lat="47.83889" lon="-3.69063">
        <ele>52.7</ele>
        <time>2020-06-07T14:13:44Z</time>
      </trkpt>
      <trkpt lat="47.83892" lon="-3.69066">
        <ele>53</ele>
        <time>2020-06-07T14:13:45Z</time>
      </trkpt>
      <trkpt lat="47.83895" lon="-3.69068">
        <ele>53.2</ele>
        <time>2020-06-07T14:13:46Z</time>
      </trkpt>
      <trkpt lat="47.83896" lon="-3.69069">
        <ele>53.3</ele>
        <time>2020-06-07T14:13:47Z</time>
      </trkpt>
      <trkpt lat="47.839" lon="-3.69071">
        <ele>53.6</ele>
        <time>2020-06-07T14:13:48Z</time>
      </trkpt>
      <trkpt lat="47.83901" lon="-3.69072">
        <ele>53.7</ele>
        <time>2020-06-07T14:13:49Z</time>
      </trkpt>
      <trkpt lat="47.83903" lon="-3.69073">
        <ele>53.9</ele>
        <time>2020-06-07T14:13:50Z</time>
      </trkpt>
      <trkpt lat="47.83906" lon="-3.69075">
        <ele>54.1</ele>
        <time>2020-06-07T14:13:51Z</time>
      </trkpt>
      <trkpt lat="47.8391" lon="-3.69078">
        <ele>54.4</ele>
        <time>2020-06-07T14:13:52Z</time>
      </trkpt>
      <trkpt lat="47.83913" lon="-3.6908">
        <ele>54.7</ele>
        <time>2020-06-07T14:13:53Z</time>
      </trkpt>
      <trkpt lat="47.83916" lon="-3.69082">
        <ele>54.9</ele>
        <time>2020-06-07T14:13:54Z</time>
      </trkpt>
      <trkpt lat="47.8392" lon="-3.69084">
        <ele>55.1</ele>
        <time>2020-06-07T14:13:55Z</time>
      </trkpt>
      <trkpt lat="47.83921" lon="-3.69085">
        <ele>55.2</ele>
        <time>2020-06-07T14:13:56Z</time>
      </trkpt>
      <trkpt lat="47.83924" lon="-3.69088">
        <ele>55.4</ele>
        <time>2020-06-07T14:13:57Z</time>
      </trkpt>
      <trkpt lat="47.83925" lon="-3.69088">
        <ele>55.5</ele>
        <time>2020-06-07T14:13:58Z</time>
      </trkpt>
      <trkpt lat="47.83928" lon="-3.69089">
        <ele>55.6</ele>
        <time>2020-06-07T14:13:59Z</time>
      </trkpt>
      <trkpt lat="47.83929" lon="-3.69091">
        <ele>55.7</ele>
        <time>2020-06-07T14:14:00Z</time>
      </trkpt>
      <trkpt lat="47.83932" lon="-3.69093">
        <ele>55.9</ele>
        <time>2020-06-07T14:14:01Z</time>
      </trkpt>
      <trkpt lat="47.83933" lon="-3.69094">
        <ele>55.9</ele>
        <time>2020-06-07T14:14:02Z</time>
      </trkpt>
      <trkpt lat="47.83936" lon="-3.69098">
        <ele>56.1</ele>
        <time>2020-06-07T14:14:03Z</time>
      </trkpt>
      <trkpt lat="47.83937" lon="-3.691">
        <ele>56.2</ele>
        <time>2020-06-07T14:14:04Z</time>
      </trkpt>
      <trkpt lat="47.83939" lon="-3.69102">
        <ele>56.3</ele>
        <time>2020-06-07T14:14:05Z</time>
      </trkpt>
      <trkpt lat="47.83942" lon="-3.69103">
        <ele>56.4</ele>
        <time>2020-06-07T14:14:06Z</time>
      </trkpt>
      <trkpt lat="47.83945" lon="-3.69104">
        <ele>56.5</ele>
        <time>2020-06-07T14:14:07Z</time>
      </trkpt>
      <trkpt lat="47.83946" lon="-3.69105">
        <ele>56.6</ele>
        <time>2020-06-07T14:14:08Z</time>
      </trkpt>
      <trkpt lat="47.83949" lon="-3.69108">
        <ele>56.6</ele>
        <time>2020-06-07T14:14:09Z</time>
      </trkpt>
      <trkpt lat="47.83949" lon="-3.69109">
        <ele>56.7</ele>
        <time>2020-06-07T14:14:10Z</time>
      </trkpt>
      <trkpt lat="47.83952" lon="-3.69112">
        <ele>56.8</ele>
        <time>2020-06-07T14:14:11Z</time>
      </trkpt>
      <trkpt lat="47.83953" lon="-3.69113">
        <ele>56.8</ele>
        <time>2020-06-07T14:14:12Z</time>
      </trkpt>
      <trkpt lat="47.83957" lon="-3.69116">
        <ele>56.9</ele>
        <time>2020-06-07T14:14:13Z</time>
      </trkpt>
      <trkpt lat="47.83958" lon="-3.69117">
        <ele>57</ele>
        <time>2020-06-07T14:14:14Z</time>
      </trkpt>
      <trkpt lat="47.83961" lon="-3.6912">
        <ele>57</ele>
        <time>2020-06-07T14:14:15Z</time>
      </trkpt>
      <trkpt lat="47.83962" lon="-3.6912">
        <ele>57</ele>
        <time>2020-06-07T14:14:16Z</time>
      </trkpt>
      <trkpt lat="47.83966" lon="-3.69123">
        <ele>57.1</ele>
        <time>2020-06-07T14:14:17Z</time>
      </trkpt>
      <trkpt lat="47.83967" lon="-3.69123">
        <ele>57.1</ele>
        <time>2020-06-07T14:14:18Z</time>
      </trkpt>
      <trkpt lat="47.8397" lon="-3.69127">
        <ele>57.2</ele>
        <time>2020-06-07T14:14:19Z</time>
      </trkpt>
      <trkpt lat="47.83971" lon="-3.69128">
        <ele>57.2</ele>
        <time>2020-06-07T14:14:20Z</time>
      </trkpt>
      <trkpt lat="47.83974" lon="-3.69131">
        <ele>57.3</ele>
        <time>2020-06-07T14:14:21Z</time>
      </trkpt>
      <trkpt lat="47.83978" lon="-3.69134">
        <ele>57.3</ele>
        <time>2020-06-07T14:14:22Z</time>
      </trkpt>
      <trkpt lat="47.83979" lon="-3.69135">
        <ele>57.3</ele>
        <time>2020-06-07T14:14:23Z</time>
      </trkpt>
      <trkpt lat="47.83982" lon="-3.69137">
        <ele>57.4</ele>
        <time>2020-06-07T14:14:24Z</time>
      </trkpt>
      <trkpt lat="47.83984" lon="-3.69139">
        <ele>57.4</ele>
        <time>2020-06-07T14:14:25Z</time>
      </trkpt>
      <trkpt lat="47.83987" lon="-3.6914">
        <ele>57.4</ele>
        <time>2020-06-07T14:14:26Z</time>
      </trkpt>
      <trkpt lat="47.83991" lon="-3.69142">
        <ele>57.5</ele>
        <time>2020-06-07T14:14:27Z</time>
      </trkpt>
      <trkpt lat="47.83993" lon="-3.69144">
        <ele>57.5</ele>
        <time>2020-06-07T14:14:28Z</time>
      </trkpt>
      <trkpt lat="47.83997" lon="-3.69146">
        <ele>57.6</ele>
        <time>2020-06-07T14:14:29Z</time>
      </trkpt>
      <trkpt lat="47.84" lon="-3.69147">
        <ele>57.6</ele>
        <time>2020-06-07T14:14:30Z</time>
      </trkpt>
      <trkpt lat="47.84004" lon="-3.69148">
        <ele>57.7</ele>
        <time>2020-06-07T14:14:31Z</time>
      </trkpt>
      <trkpt lat="47.84006" lon="-3.6915">
        <ele>57.7</ele>
        <time>2020-06-07T14:14:32Z</time>
      </trkpt>
      <trkpt lat="47.84009" lon="-3.69151">
        <ele>57.8</ele>
        <time>2020-06-07T14:14:33Z</time>
      </trkpt>
      <trkpt lat="47.84012" lon="-3.69153">
        <ele>57.8</ele>
        <time>2020-06-07T14:14:34Z</time>
      </trkpt>
      <trkpt lat="47.84015" lon="-3.69155">
        <ele>57.9</ele>
        <time>2020-06-07T14:14:35Z</time>
      </trkpt>
      <trkpt lat="47.84018" lon="-3.69157">
        <ele>58</ele>
        <time>2020-06-07T14:14:36Z</time>
      </trkpt>
      <trkpt lat="47.84021" lon="-3.69159">
        <ele>58.1</ele>
        <time>2020-06-07T14:14:37Z</time>
      </trkpt>
      <trkpt lat="47.84024" lon="-3.69161">
        <ele>58.1</ele>
        <time>2020-06-07T14:14:38Z</time>
      </trkpt>
      <trkpt lat="47.84027" lon="-3.69163">
        <ele>58.2</ele>
        <time>2020-06-07T14:14:39Z</time>
      </trkpt>
      <trkpt lat="47.84029" lon="-3.69166">
        <ele>58.2</ele>
        <time>2020-06-07T14:14:40Z</time>
      </trkpt>
      <trkpt lat="47.84033" lon="-3.69169">
        <ele>58.3</ele>
        <time>2020-06-07T14:14:41Z</time>
      </trkpt>
      <trkpt lat="47.84036" lon="-3.69171">
        <ele>58.3</ele>
        <time>2020-06-07T14:14:42Z</time>
      </trkpt>
      <trkpt lat="47.84039" lon="-3.69174">
        <ele>58.4</ele>
        <time>2020-06-07T14:14:43Z</time>
      </trkpt>
      <trkpt lat="47.84042" lon="-3.69176">
        <ele>58.4</ele>
        <time>2020-06-07T14:14:44Z</time>
      </trkpt>
      <trkpt lat="47.84045" lon="-3.69179">
        <ele>58.5</ele>
        <time>2020-06-07T14:14:45Z</time>
      </trkpt>
      <trkpt lat="47.84048" lon="-3.69182">
        <ele>58.6</ele>
        <time>2020-06-07T14:14:46Z</time>
      </trkpt>
      <trkpt lat="47.8405" lon="-3.69185">
        <ele>58.7</ele>
        <time>2020-06-07T14:14:47Z</time>
      </trkpt>
      <trkpt lat="47.84053" lon="-3.69187">
        <ele>58.8</ele>
        <time>2020-06-07T14:14:48Z</time>
      </trkpt>
      <trkpt lat="47.84055" lon="-3.69189">
        <ele>58.9</ele>
        <time>2020-06-07T14:14:49Z</time>
      </trkpt>
      <trkpt lat="47.84058" lon="-3.69191">
        <ele>59</ele>
        <time>2020-06-07T14:14:50Z</time>
      </trkpt>
      <trkpt lat="47.8406" lon="-3.69193">
        <ele>59.1</ele>
        <time>2020-06-07T14:14:51Z</time>
      </trkpt>
      <trkpt lat="47.84063" lon="-3.69195">
        <ele>59.2</ele>
        <time>2020-06-07T14:14:52Z</time>
      </trkpt>
      <trkpt lat="47.84066" lon="-3.69197">
        <ele>59.3</ele>
        <time>2020-06-07T14:14:53Z</time>
      </trkpt>
      <trkpt lat="47.84069" lon="-3.69198">
        <ele>59.4</ele>
        <time>2020-06-07T14:14:54Z</time>
      </trkpt>
      <trkpt lat="47.84071" lon="-3.692">
        <ele>59.5</ele>
        <time>2020-06-07T14:14:55Z</time>
      </trkpt>
      <trkpt lat="47.84075" lon="-3.69203">
        <ele>59.6</ele>
        <time>2020-06-07T14:14:56Z</time>
      </trkpt>
      <trkpt lat="47.84076" lon="-3.69205">
        <ele>59.6</ele>
        <time>2020-06-07T14:14:57Z</time>
      </trkpt>
      <trkpt lat="47.84079" lon="-3.69207">
        <ele>59.7</ele>
        <time>2020-06-07T14:14:58Z</time>
      </trkpt>
      <trkpt lat="47.84082" lon="-3.6921">
        <ele>59.8</ele>
        <time>2020-06-07T14:14:59Z</time>
      </trkpt>
      <trkpt lat="47.84085" lon="-3.69213">
        <ele>59.9</ele>
        <time>2020-06-07T14:15:00Z</time>
      </trkpt>
      <trkpt lat="47.84089" lon="-3.69215">
        <ele>60</ele>
        <time>2020-06-07T14:15:01Z</time>
      </trkpt>
      <trkpt lat="47.84092" lon="-3.69218">
        <ele>60.2</ele>
        <time>2020-06-07T14:15:02Z</time>
      </trkpt>
      <trkpt lat="47.84096" lon="-3.6922">
        <ele>60.3</ele>
        <time>2020-06-07T14:15:03Z</time>
      </trkpt>
      <trkpt lat="47.84099" lon="-3.69222">
        <ele>60.4</ele>
        <time>2020-06-07T14:15:04Z</time>
      </trkpt>
      <trkpt lat="47.84102" lon="-3.69225">
        <ele>60.5</ele>
        <time>2020-06-07T14:15:05Z</time>
      </trkpt>
      <trkpt lat="47.84105" lon="-3.69227">
        <ele>60.6</ele>
        <time>2020-06-07T14:15:06Z</time>
      </trkpt>
      <trkpt lat="47.84108" lon="-3.69229">
        <ele>60.7</ele>
        <time>2020-06-07T14:15:07Z</time>
      </trkpt>
      <trkpt lat="47.84112" lon="-3.69232">
        <ele>60.9</ele>
        <time>2020-06-07T14:15:08Z</time>
      </trkpt>
      <trkpt lat="47.84115" lon="-3.69234">
        <ele>61</ele>
        <time>2020-06-07T14:15:09Z</time>
      </trkpt>
      <trkpt lat="47.84117" lon="-3.69237">
        <ele>61.1</ele>
        <time>2020-06-07T14:15:10Z</time>
      </trkpt>
      <trkpt lat="47.84121" lon="-3.69238">
        <ele>61.3</ele>
        <time>2020-06-07T14:15:11Z</time>
      </trkpt>
      <trkpt lat="47.84124" lon="-3.69241">
        <ele>61.4</ele>
        <time>2020-06-07T14:15:12Z</time>
      </trkpt>
      <trkpt lat="47.84125" lon="-3.69241">
        <ele>61.4</ele>
        <time>2020-06-07T14:15:13Z</time>
      </trkpt>
      <trkpt lat="47.84128" lon="-3.69244">
        <ele>61.6</ele>
        <time>2020-06-07T14:15:14Z</time>
      </trkpt>
      <trkpt lat="47.84129" lon="-3.69244">
        <ele>61.6</ele>
        <time>2020-06-07T14:15:15Z</time>
      </trkpt>
      <trkpt lat="47.84132" lon="-3.69246">
        <ele>61.7</ele>
        <time>2020-06-07T14:15:16Z</time>
      </trkpt>
      <trkpt lat="47.84135" lon="-3.69248">
        <ele>61.8</ele>
        <time>2020-06-07T14:15:17Z</time>
      </trkpt>
      <trkpt lat="47.84138" lon="-3.6925">
        <ele>61.9</ele>
        <time>2020-06-07T14:15:18Z</time>
      </trkpt>
      <trkpt lat="47.8414" lon="-3.69253">
        <ele>62</ele>
        <time>2020-06-07T14:15:19Z</time>
      </trkpt>
      <trkpt lat="47.84143" lon="-3.69256">
        <ele>62.2</ele>
        <time>2020-06-07T14:15:20Z</time>
      </trkpt>
      <trkpt lat="47.84146" lon="-3.69259">
        <ele>62.3</ele>
        <time>2020-06-07T14:15:21Z</time>
      </trkpt>
      <trkpt lat="47.84147" lon="-3.6926">
        <ele>62.3</ele>
        <time>2020-06-07T14:15:22Z</time>
      </trkpt>
      <trkpt lat="47.84149" lon="-3.69262">
        <ele>62.4</ele>
        <time>2020-06-07T14:15:23Z</time>
      </trkpt>
      <trkpt lat="47.84152" lon="-3.69265">
        <ele>62.5</ele>
        <time>2020-06-07T14:15:24Z</time>
      </trkpt>
      <trkpt lat="47.84155" lon="-3.69267">
        <ele>62.7</ele>
        <time>2020-06-07T14:15:25Z</time>
      </trkpt>
      <trkpt lat="47.84157" lon="-3.6927">
        <ele>62.8</ele>
        <time>2020-06-07T14:15:26Z</time>
      </trkpt>
      <trkpt lat="47.8416" lon="-3.69273">
        <ele>62.9</ele>
        <time>2020-06-07T14:15:27Z</time>
      </trkpt>
      <trkpt lat="47.84162" lon="-3.69275">
        <ele>63</ele>
        <time>2020-06-07T14:15:28Z</time>
      </trkpt>
      <trkpt lat="47.84166" lon="-3.69278">
        <ele>63.1</ele>
        <time>2020-06-07T14:15:29Z</time>
      </trkpt>
      <trkpt lat="47.84167" lon="-3.69279">
        <ele>63.2</ele>
        <time>2020-06-07T14:15:30Z</time>
      </trkpt>
      <trkpt lat="47.84171" lon="-3.69282">
        <ele>63.3</ele>
        <time>2020-06-07T14:15:31Z</time>
      </trkpt>
      <trkpt lat="47.84172" lon="-3.69284">
        <ele>63.4</ele>
        <time>2020-06-07T14:15:32Z</time>
      </trkpt>
      <trkpt lat="47.84175" lon="-3.69287">
        <ele>63.5</ele>
        <time>2020-06-07T14:15:33Z</time>
      </trkpt>
      <trkpt lat="47.84177" lon="-3.6929">
        <ele>63.6</ele>
        <time>2020-06-07T14:15:34Z</time>
      </trkpt>
      <trkpt lat="47.84179" lon="-3.69294">
        <ele>63.7</ele>
        <time>2020-06-07T14:15:35Z</time>
      </trkpt>
      <trkpt lat="47.84182" lon="-3.69296">
        <ele>63.8</ele>
        <time>2020-06-07T14:15:36Z</time>
      </trkpt>
      <trkpt lat="47.84185" lon="-3.69299">
        <ele>64</ele>
        <time>2020-06-07T14:15:37Z</time>
      </trkpt>
      <trkpt lat="47.84187" lon="-3.69302">
        <ele>64</ele>
        <time>2020-06-07T14:15:38Z</time>
      </trkpt>
      <trkpt lat="47.8419" lon="-3.69305">
        <ele>64.1</ele>
        <time>2020-06-07T14:15:39Z</time>
      </trkpt>
      <trkpt lat="47.84193" lon="-3.69309">
        <ele>64.2</ele>
        <time>2020-06-07T14:15:40Z</time>
      </trkpt>
      <trkpt lat="47.84196" lon="-3.69312">
        <ele>64.3</ele>
        <time>2020-06-07T14:15:41Z</time>
      </trkpt>
      <trkpt lat="47.84199" lon="-3.69315">
        <ele>64.3</ele>
        <time>2020-06-07T14:15:42Z</time>
      </trkpt>
      <trkpt lat="47.84201" lon="-3.69318">
        <ele>64.4</ele>
        <time>2020-06-07T14:15:43Z</time>
      </trkpt>
      <trkpt lat="47.84205" lon="-3.69321">
        <ele>64.5</ele>
        <time>2020-06-07T14:15:44Z</time>
      </trkpt>
      <trkpt lat="47.84206" lon="-3.69322">
        <ele>64.6</ele>
        <time>2020-06-07T14:15:45Z</time>
      </trkpt>
      <trkpt lat="47.84209" lon="-3.69324">
        <ele>64.6</ele>
        <time>2020-06-07T14:15:46Z</time>
      </trkpt>
      <trkpt lat="47.8421" lon="-3.69325">
        <ele>64.7</ele>
        <time>2020-06-07T14:15:47Z</time>
      </trkpt>
      <trkpt lat="47.84213" lon="-3.69327">
        <ele>64.7</ele>
        <time>2020-06-07T14:15:48Z</time>
      </trkpt>
      <trkpt lat="47.84214" lon="-3.69327">
        <ele>64.8</ele>
        <time>2020-06-07T14:15:49Z</time>
      </trkpt>
      <trkpt lat="47.84217" lon="-3.6933">
        <ele>64.9</ele>
        <time>2020-06-07T14:15:50Z</time>
      </trkpt>
      <trkpt lat="47.8422" lon="-3.69333">
        <ele>65.1</ele>
        <time>2020-06-07T14:15:51Z</time>
      </trkpt>
      <trkpt lat="47.84222" lon="-3.69336">
        <ele>65.2</ele>
        <time>2020-06-07T14:15:52Z</time>
      </trkpt>
      <trkpt lat="47.84224" lon="-3.69339">
        <ele>65.3</ele>
        <time>2020-06-07T14:15:53Z</time>
      </trkpt>
      <trkpt lat="47.84227" lon="-3.69342">
        <ele>65.4</ele>
        <time>2020-06-07T14:15:54Z</time>
      </trkpt>
      <trkpt lat="47.8423" lon="-3.69345">
        <ele>65.6</ele>
        <time>2020-06-07T14:15:55Z</time>
      </trkpt>
      <trkpt lat="47.84233" lon="-3.69348">
        <ele>65.7</ele>
        <time>2020-06-07T14:15:56Z</time>
      </trkpt>
      <trkpt lat="47.84236" lon="-3.69352">
        <ele>65.8</ele>
        <time>2020-06-07T14:15:57Z</time>
      </trkpt>
      <trkpt lat="47.84239" lon="-3.69354">
        <ele>65.9</ele>
        <time>2020-06-07T14:15:58Z</time>
      </trkpt>
      <trkpt lat="47.84242" lon="-3.69356">
        <ele>66</ele>
        <time>2020-06-07T14:15:59Z</time>
      </trkpt>
      <trkpt lat="47.84245" lon="-3.69358">
        <ele>66.1</ele>
        <time>2020-06-07T14:16:00Z</time>
      </trkpt>
      <trkpt lat="47.84247" lon="-3.69361">
        <ele>66.2</ele>
        <time>2020-06-07T14:16:01Z</time>
      </trkpt>
      <trkpt lat="47.8425" lon="-3.69364">
        <ele>66.3</ele>
        <time>2020-06-07T14:16:02Z</time>
      </trkpt>
      <trkpt lat="47.84253" lon="-3.69366">
        <ele>66.4</ele>
        <time>2020-06-07T14:16:03Z</time>
      </trkpt>
      <trkpt lat="47.84255" lon="-3.69369">
        <ele>66.5</ele>
        <time>2020-06-07T14:16:04Z</time>
      </trkpt>
      <trkpt lat="47.84258" lon="-3.69372">
        <ele>66.6</ele>
        <time>2020-06-07T14:16:05Z</time>
      </trkpt>
      <trkpt lat="47.84261" lon="-3.69375">
        <ele>66.7</ele>
        <time>2020-06-07T14:16:06Z</time>
      </trkpt>
      <trkpt lat="47.84263" lon="-3.69378">
        <ele>66.9</ele>
        <time>2020-06-07T14:16:07Z</time>
      </trkpt>
      <trkpt lat="47.84266" lon="-3.6938">
        <ele>67</ele>
        <time>2020-06-07T14:16:08Z</time>
      </trkpt>
      <trkpt lat="47.8427" lon="-3.69382">
        <ele>67.1</ele>
        <time>2020-06-07T14:16:09Z</time>
      </trkpt>
      <trkpt lat="47.84271" lon="-3.69383">
        <ele>67.2</ele>
        <time>2020-06-07T14:16:10Z</time>
      </trkpt>
      <trkpt lat="47.84274" lon="-3.69385">
        <ele>67.3</ele>
        <time>2020-06-07T14:16:11Z</time>
      </trkpt>
      <trkpt lat="47.84275" lon="-3.69386">
        <ele>67.3</ele>
        <time>2020-06-07T14:16:12Z</time>
      </trkpt>
      <trkpt lat="47.84278" lon="-3.69388">
        <ele>67.4</ele>
        <time>2020-06-07T14:16:13Z</time>
      </trkpt>
      <trkpt lat="47.84279" lon="-3.69388">
        <ele>67.5</ele>
        <time>2020-06-07T14:16:14Z</time>
      </trkpt>
      <trkpt lat="47.84283" lon="-3.6939">
        <ele>67.6</ele>
        <time>2020-06-07T14:16:15Z</time>
      </trkpt>
      <trkpt lat="47.84284" lon="-3.6939">
        <ele>67.6</ele>
        <time>2020-06-07T14:16:16Z</time>
      </trkpt>
      <trkpt lat="47.84288" lon="-3.69391">
        <ele>67.8</ele>
        <time>2020-06-07T14:16:17Z</time>
      </trkpt>
      <trkpt lat="47.84289" lon="-3.69391">
        <ele>67.8</ele>
        <time>2020-06-07T14:16:18Z</time>
      </trkpt>
      <trkpt lat="47.84292" lon="-3.69391">
        <ele>67.8</ele>
        <time>2020-06-07T14:16:19Z</time>
      </trkpt>
      <trkpt lat="47.84294" lon="-3.69389">
        <ele>67.8</ele>
        <time>2020-06-07T14:16:20Z</time>
      </trkpt>
      <trkpt lat="47.84296" lon="-3.6939">
        <ele>67.8</ele>
        <time>2020-06-07T14:16:21Z</time>
      </trkpt>
      <trkpt lat="47.84299" lon="-3.6939">
        <ele>67.9</ele>
        <time>2020-06-07T14:16:22Z</time>
      </trkpt>
      <trkpt lat="47.84302" lon="-3.6939">
        <ele>67.9</ele>
        <time>2020-06-07T14:16:23Z</time>
      </trkpt>
      <trkpt lat="47.84304" lon="-3.69391">
        <ele>67.9</ele>
        <time>2020-06-07T14:16:24Z</time>
      </trkpt>
      <trkpt lat="47.84307" lon="-3.69392">
        <ele>67.9</ele>
        <time>2020-06-07T14:16:25Z</time>
      </trkpt>
      <trkpt lat="47.84308" lon="-3.69393">
        <ele>67.9</ele>
        <time>2020-06-07T14:16:26Z</time>
      </trkpt>
      <trkpt lat="47.84311" lon="-3.69395">
        <ele>67.9</ele>
        <time>2020-06-07T14:16:27Z</time>
      </trkpt>
      <trkpt lat="47.84314" lon="-3.69396">
        <ele>68</ele>
        <time>2020-06-07T14:16:28Z</time>
      </trkpt>
      <trkpt lat="47.84315" lon="-3.69397">
        <ele>68</ele>
        <time>2020-06-07T14:16:29Z</time>
      </trkpt>
      <trkpt lat="47.84317" lon="-3.69402">
        <ele>68</ele>
        <time>2020-06-07T14:16:30Z</time>
      </trkpt>
      <trkpt lat="47.84317" lon="-3.69403">
        <ele>68</ele>
        <time>2020-06-07T14:16:31Z</time>
      </trkpt>
      <trkpt lat="47.84317" lon="-3.69408">
        <ele>68</ele>
        <time>2020-06-07T14:16:32Z</time>
      </trkpt>
      <trkpt lat="47.84318" lon="-3.69413">
        <ele>68.1</ele>
        <time>2020-06-07T14:16:33Z</time>
      </trkpt>
      <trkpt lat="47.84319" lon="-3.69418">
        <ele>68.1</ele>
        <time>2020-06-07T14:16:34Z</time>
      </trkpt>
      <trkpt lat="47.8432" lon="-3.69422">
        <ele>68.1</ele>
        <time>2020-06-07T14:16:35Z</time>
      </trkpt>
      <trkpt lat="47.8432" lon="-3.69428">
        <ele>68.2</ele>
        <time>2020-06-07T14:16:36Z</time>
      </trkpt>
      <trkpt lat="47.8432" lon="-3.6943">
        <ele>68.2</ele>
        <time>2020-06-07T14:16:37Z</time>
      </trkpt>
      <trkpt lat="47.84321" lon="-3.69435">
        <ele>68.2</ele>
        <time>2020-06-07T14:16:38Z</time>
      </trkpt>
      <trkpt lat="47.84321" lon="-3.69436">
        <ele>68.3</ele>
        <time>2020-06-07T14:16:39Z</time>
      </trkpt>
      <trkpt lat="47.84323" lon="-3.69438">
        <ele>68.3</ele>
        <time>2020-06-07T14:16:40Z</time>
      </trkpt>
      <trkpt lat="47.84324" lon="-3.69439">
        <ele>68.2</ele>
        <time>2020-06-07T14:16:41Z</time>
      </trkpt>
      <trkpt lat="47.84327" lon="-3.6944">
        <ele>68.1</ele>
        <time>2020-06-07T14:16:42Z</time>
      </trkpt>
      <trkpt lat="47.84331" lon="-3.69441">
        <ele>68.1</ele>
        <time>2020-06-07T14:16:43Z</time>
      </trkpt>
      <trkpt lat="47.84333" lon="-3.69443">
        <ele>68</ele>
        <time>2020-06-07T14:16:44Z</time>
      </trkpt>
      <trkpt lat="47.84336" lon="-3.69444">
        <ele>67.9</ele>
        <time>2020-06-07T14:16:45Z</time>
      </trkpt>
      <trkpt lat="47.8434" lon="-3.69443">
        <ele>67.8</ele>
        <time>2020-06-07T14:16:46Z</time>
      </trkpt>
      <trkpt lat="47.84341" lon="-3.69443">
        <ele>67.8</ele>
        <time>2020-06-07T14:16:47Z</time>
      </trkpt>
      <trkpt lat="47.84345" lon="-3.69443">
        <ele>67.7</ele>
        <time>2020-06-07T14:16:48Z</time>
      </trkpt>
      <trkpt lat="47.84348" lon="-3.69443">
        <ele>67.7</ele>
        <time>2020-06-07T14:16:49Z</time>
      </trkpt>
      <trkpt lat="47.84351" lon="-3.69442">
        <ele>67.6</ele>
        <time>2020-06-07T14:16:50Z</time>
      </trkpt>
      <trkpt lat="47.84353" lon="-3.69444">
        <ele>67.6</ele>
        <time>2020-06-07T14:16:51Z</time>
      </trkpt>
      <trkpt lat="47.84356" lon="-3.69445">
        <ele>67.6</ele>
        <time>2020-06-07T14:16:52Z</time>
      </trkpt>
      <trkpt lat="47.84359" lon="-3.69447">
        <ele>67.5</ele>
        <time>2020-06-07T14:16:53Z</time>
      </trkpt>
      <trkpt lat="47.84363" lon="-3.69449">
        <ele>67.5</ele>
        <time>2020-06-07T14:16:54Z</time>
      </trkpt>
      <trkpt lat="47.84366" lon="-3.6945">
        <ele>67.4</ele>
        <time>2020-06-07T14:16:55Z</time>
      </trkpt>
      <trkpt lat="47.8437" lon="-3.69452">
        <ele>67.4</ele>
        <time>2020-06-07T14:16:56Z</time>
      </trkpt>
      <trkpt lat="47.84374" lon="-3.69452">
        <ele>67.3</ele>
        <time>2020-06-07T14:16:57Z</time>
      </trkpt>
      <trkpt lat="47.84378" lon="-3.69453">
        <ele>67.2</ele>
        <time>2020-06-07T14:16:58Z</time>
      </trkpt>
      <trkpt lat="47.84382" lon="-3.69453">
        <ele>67.1</ele>
        <time>2020-06-07T14:16:59Z</time>
      </trkpt>
      <trkpt lat="47.84387" lon="-3.69454">
        <ele>67.1</ele>
        <time>2020-06-07T14:17:00Z</time>
      </trkpt>
      <trkpt lat="47.84392" lon="-3.69455">
        <ele>67</ele>
        <time>2020-06-07T14:17:01Z</time>
      </trkpt>
      <trkpt lat="47.84397" lon="-3.69456">
        <ele>66.8</ele>
        <time>2020-06-07T14:17:02Z</time>
      </trkpt>
      <trkpt lat="47.84401" lon="-3.69458">
        <ele>66.8</ele>
        <time>2020-06-07T14:17:03Z</time>
      </trkpt>
      <trkpt lat="47.84406" lon="-3.6946">
        <ele>66.7</ele>
        <time>2020-06-07T14:17:04Z</time>
      </trkpt>
      <trkpt lat="47.8441" lon="-3.69461">
        <ele>66.7</ele>
        <time>2020-06-07T14:17:05Z</time>
      </trkpt>
      <trkpt lat="47.84414" lon="-3.6946">
        <ele>66.6</ele>
        <time>2020-06-07T14:17:06Z</time>
      </trkpt>
      <trkpt lat="47.84418" lon="-3.69461">
        <ele>66.5</ele>
        <time>2020-06-07T14:17:07Z</time>
      </trkpt>
      <trkpt lat="47.84423" lon="-3.6946">
        <ele>66.5</ele>
        <time>2020-06-07T14:17:08Z</time>
      </trkpt>
      <trkpt lat="47.84427" lon="-3.69461">
        <ele>66.5</ele>
        <time>2020-06-07T14:17:09Z</time>
      </trkpt>
      <trkpt lat="47.84431" lon="-3.69462">
        <ele>66.4</ele>
        <time>2020-06-07T14:17:10Z</time>
      </trkpt>
      <trkpt lat="47.84435" lon="-3.69462">
        <ele>66.4</ele>
        <time>2020-06-07T14:17:11Z</time>
      </trkpt>
      <trkpt lat="47.84439" lon="-3.69463">
        <ele>66.4</ele>
        <time>2020-06-07T14:17:12Z</time>
      </trkpt>
      <trkpt lat="47.84443" lon="-3.69464">
        <ele>66.4</ele>
        <time>2020-06-07T14:17:13Z</time>
      </trkpt>
      <trkpt lat="47.84448" lon="-3.69466">
        <ele>66.4</ele>
        <time>2020-06-07T14:17:14Z</time>
      </trkpt>
      <trkpt lat="47.84452" lon="-3.69467">
        <ele>66.5</ele>
        <time>2020-06-07T14:17:15Z</time>
      </trkpt>
      <trkpt lat="47.84457" lon="-3.69468">
        <ele>66.5</ele>
        <time>2020-06-07T14:17:16Z</time>
      </trkpt>
      <trkpt lat="47.8446" lon="-3.69468">
        <ele>66.5</ele>
        <time>2020-06-07T14:17:17Z</time>
      </trkpt>
      <trkpt lat="47.84463" lon="-3.69468">
        <ele>66.5</ele>
        <time>2020-06-07T14:17:18Z</time>
      </trkpt>
      <trkpt lat="47.84467" lon="-3.69464">
        <ele>66.2</ele>
        <time>2020-06-07T14:17:19Z</time>
      </trkpt>
      <trkpt lat="47.84469" lon="-3.6946">
        <ele>66.2</ele>
        <time>2020-06-07T14:17:20Z</time>
      </trkpt>
      <trkpt lat="47.84469" lon="-3.69456">
        <ele>66.2</ele>
        <time>2020-06-07T14:17:21Z</time>
      </trkpt>
      <trkpt lat="47.84469" lon="-3.6945">
        <ele>66.2</ele>
        <time>2020-06-07T14:17:22Z</time>
      </trkpt>
      <trkpt lat="47.84469" lon="-3.69449">
        <ele>66.2</ele>
        <time>2020-06-07T14:17:23Z</time>
      </trkpt>
      <trkpt lat="47.84469" lon="-3.69444">
        <ele>66.3</ele>
        <time>2020-06-07T14:17:24Z</time>
      </trkpt>
      <trkpt lat="47.84467" lon="-3.6944">
        <ele>66.3</ele>
        <time>2020-06-07T14:17:25Z</time>
      </trkpt>
      <trkpt lat="47.84466" lon="-3.69435">
        <ele>66.3</ele>
        <time>2020-06-07T14:17:26Z</time>
      </trkpt>
      <trkpt lat="47.84466" lon="-3.69431">
        <ele>66.4</ele>
        <time>2020-06-07T14:17:27Z</time>
      </trkpt>
      <trkpt lat="47.84466" lon="-3.69426">
        <ele>66.3</ele>
        <time>2020-06-07T14:17:28Z</time>
      </trkpt>
      <trkpt lat="47.84466" lon="-3.69425">
        <ele>66.3</ele>
        <time>2020-06-07T14:17:29Z</time>
      </trkpt>
      <trkpt lat="47.84469" lon="-3.69424">
        <ele>66.3</ele>
        <time>2020-06-07T14:17:30Z</time>
      </trkpt>
      <trkpt lat="47.8447" lon="-3.69423">
        <ele>66.3</ele>
        <time>2020-06-07T14:17:31Z</time>
      </trkpt>
      <trkpt lat="47.84473" lon="-3.69424">
        <ele>66.2</ele>
        <time>2020-06-07T14:17:32Z</time>
      </trkpt>
      <trkpt lat="47.84476" lon="-3.69424">
        <ele>66.2</ele>
        <time>2020-06-07T14:17:33Z</time>
      </trkpt>
      <trkpt lat="47.8448" lon="-3.69424">
        <ele>66.1</ele>
        <time>2020-06-07T14:17:34Z</time>
      </trkpt>
      <trkpt lat="47.84485" lon="-3.69424">
        <ele>66.1</ele>
        <time>2020-06-07T14:17:35Z</time>
      </trkpt>
      <trkpt lat="47.84488" lon="-3.69425">
        <ele>66</ele>
        <time>2020-06-07T14:17:36Z</time>
      </trkpt>
      <trkpt lat="47.84492" lon="-3.69425">
        <ele>66</ele>
        <time>2020-06-07T14:17:37Z</time>
      </trkpt>
      <trkpt lat="47.84496" lon="-3.69424">
        <ele>65.9</ele>
        <time>2020-06-07T14:17:38Z</time>
      </trkpt>
      <trkpt lat="47.845" lon="-3.69423">
        <ele>65.9</ele>
        <time>2020-06-07T14:17:39Z</time>
      </trkpt>
      <trkpt lat="47.84504" lon="-3.69419">
        <ele>65.8</ele>
        <time>2020-06-07T14:17:40Z</time>
      </trkpt>
      <trkpt lat="47.84508" lon="-3.69418">
        <ele>65.7</ele>
        <time>2020-06-07T14:17:41Z</time>
      </trkpt>
      <trkpt lat="47.84511" lon="-3.69418">
        <ele>65.7</ele>
        <time>2020-06-07T14:17:42Z</time>
      </trkpt>
      <trkpt lat="47.84515" lon="-3.69418">
        <ele>65.7</ele>
        <time>2020-06-07T14:17:43Z</time>
      </trkpt>
      <trkpt lat="47.84518" lon="-3.69418">
        <ele>65.6</ele>
        <time>2020-06-07T14:17:44Z</time>
      </trkpt>
      <trkpt lat="47.84522" lon="-3.6942">
        <ele>65.6</ele>
        <time>2020-06-07T14:17:45Z</time>
      </trkpt>
      <trkpt lat="47.84526" lon="-3.6942">
        <ele>65.6</ele>
        <time>2020-06-07T14:17:46Z</time>
      </trkpt>
      <trkpt lat="47.8453" lon="-3.69421">
        <ele>65.6</ele>
        <time>2020-06-07T14:17:47Z</time>
      </trkpt>
      <trkpt lat="47.84534" lon="-3.69421">
        <ele>65.6</ele>
        <time>2020-06-07T14:17:48Z</time>
      </trkpt>
      <trkpt lat="47.84538" lon="-3.6942">
        <ele>65.6</ele>
        <time>2020-06-07T14:17:49Z</time>
      </trkpt>
      <trkpt lat="47.84542" lon="-3.69419">
        <ele>65.5</ele>
        <time>2020-06-07T14:17:50Z</time>
      </trkpt>
      <trkpt lat="47.84547" lon="-3.69418">
        <ele>65.5</ele>
        <time>2020-06-07T14:17:51Z</time>
      </trkpt>
      <trkpt lat="47.84551" lon="-3.69417">
        <ele>65.5</ele>
        <time>2020-06-07T14:17:52Z</time>
      </trkpt>
      <trkpt lat="47.84556" lon="-3.69416">
        <ele>65.5</ele>
        <time>2020-06-07T14:17:53Z</time>
      </trkpt>
      <trkpt lat="47.84561" lon="-3.69414">
        <ele>65.4</ele>
        <time>2020-06-07T14:17:54Z</time>
      </trkpt>
      <trkpt lat="47.84565" lon="-3.69412">
        <ele>65.3</ele>
        <time>2020-06-07T14:17:55Z</time>
      </trkpt>
      <trkpt lat="47.8457" lon="-3.69412">
        <ele>65.3</ele>
        <time>2020-06-07T14:17:56Z</time>
      </trkpt>
      <trkpt lat="47.84574" lon="-3.69411">
        <ele>65.2</ele>
        <time>2020-06-07T14:17:57Z</time>
      </trkpt>
      <trkpt lat="47.84579" lon="-3.69409">
        <ele>65.1</ele>
        <time>2020-06-07T14:17:58Z</time>
      </trkpt>
      <trkpt lat="47.84584" lon="-3.69407">
        <ele>65</ele>
        <time>2020-06-07T14:17:59Z</time>
      </trkpt>
      <trkpt lat="47.84589" lon="-3.69406">
        <ele>64.9</ele>
        <time>2020-06-07T14:18:00Z</time>
      </trkpt>
      <trkpt lat="47.84594" lon="-3.69406">
        <ele>64.8</ele>
        <time>2020-06-07T14:18:01Z</time>
      </trkpt>
      <trkpt lat="47.84599" lon="-3.69404">
        <ele>64.7</ele>
        <time>2020-06-07T14:18:02Z</time>
      </trkpt>
      <trkpt lat="47.84603" lon="-3.69403">
        <ele>64.6</ele>
        <time>2020-06-07T14:18:03Z</time>
      </trkpt>
      <trkpt lat="47.84608" lon="-3.694">
        <ele>64.5</ele>
        <time>2020-06-07T14:18:04Z</time>
      </trkpt>
      <trkpt lat="47.84613" lon="-3.69399">
        <ele>64.3</ele>
        <time>2020-06-07T14:18:05Z</time>
      </trkpt>
      <trkpt lat="47.84618" lon="-3.69397">
        <ele>64.2</ele>
        <time>2020-06-07T14:18:06Z</time>
      </trkpt>
      <trkpt lat="47.84623" lon="-3.69396">
        <ele>64</ele>
        <time>2020-06-07T14:18:07Z</time>
      </trkpt>
      <trkpt lat="47.84628" lon="-3.69395">
        <ele>63.9</ele>
        <time>2020-06-07T14:18:08Z</time>
      </trkpt>
      <trkpt lat="47.84633" lon="-3.69393">
        <ele>63.7</ele>
        <time>2020-06-07T14:18:09Z</time>
      </trkpt>
      <trkpt lat="47.84639" lon="-3.69391">
        <ele>63.5</ele>
        <time>2020-06-07T14:18:10Z</time>
      </trkpt>
      <trkpt lat="47.84645" lon="-3.69389">
        <ele>63.4</ele>
        <time>2020-06-07T14:18:11Z</time>
      </trkpt>
      <trkpt lat="47.84651" lon="-3.69387">
        <ele>63.1</ele>
        <time>2020-06-07T14:18:12Z</time>
      </trkpt>
      <trkpt lat="47.84657" lon="-3.69385">
        <ele>62.9</ele>
        <time>2020-06-07T14:18:13Z</time>
      </trkpt>
      <trkpt lat="47.84662" lon="-3.69384">
        <ele>62.7</ele>
        <time>2020-06-07T14:18:14Z</time>
      </trkpt>
      <trkpt lat="47.84668" lon="-3.69383">
        <ele>62.5</ele>
        <time>2020-06-07T14:18:15Z</time>
      </trkpt>
      <trkpt lat="47.84674" lon="-3.6938">
        <ele>62.3</ele>
        <time>2020-06-07T14:18:16Z</time>
      </trkpt>
      <trkpt lat="47.8468" lon="-3.6938">
        <ele>62.1</ele>
        <time>2020-06-07T14:18:17Z</time>
      </trkpt>
      <trkpt lat="47.84685" lon="-3.69379">
        <ele>62</ele>
        <time>2020-06-07T14:18:18Z</time>
      </trkpt>
      <trkpt lat="47.84691" lon="-3.69379">
        <ele>61.8</ele>
        <time>2020-06-07T14:18:19Z</time>
      </trkpt>
      <trkpt lat="47.84696" lon="-3.69377">
        <ele>61.6</ele>
        <time>2020-06-07T14:18:20Z</time>
      </trkpt>
      <trkpt lat="47.84702" lon="-3.69377">
        <ele>61.4</ele>
        <time>2020-06-07T14:18:21Z</time>
      </trkpt>
      <trkpt lat="47.84708" lon="-3.69377">
        <ele>61.2</ele>
        <time>2020-06-07T14:18:22Z</time>
      </trkpt>
      <trkpt lat="47.84714" lon="-3.69378">
        <ele>60.9</ele>
        <time>2020-06-07T14:18:23Z</time>
      </trkpt>
      <trkpt lat="47.8472" lon="-3.69378">
        <ele>60.7</ele>
        <time>2020-06-07T14:18:24Z</time>
      </trkpt>
      <trkpt lat="47.84727" lon="-3.69379">
        <ele>60.6</ele>
        <time>2020-06-07T14:18:25Z</time>
      </trkpt>
      <trkpt lat="47.84733" lon="-3.6938">
        <ele>60.7</ele>
        <time>2020-06-07T14:18:26Z</time>
      </trkpt>
      <trkpt lat="47.8474" lon="-3.69383">
        <ele>60.6</ele>
        <time>2020-06-07T14:18:27Z</time>
      </trkpt>
      <trkpt lat="47.84746" lon="-3.69386">
        <ele>60.4</ele>
        <time>2020-06-07T14:18:28Z</time>
      </trkpt>
      <trkpt lat="47.84753" lon="-3.69389">
        <ele>60.1</ele>
        <time>2020-06-07T14:18:29Z</time>
      </trkpt>
      <trkpt lat="47.8476" lon="-3.69393">
        <ele>59.9</ele>
        <time>2020-06-07T14:18:30Z</time>
      </trkpt>
      <trkpt lat="47.84766" lon="-3.69396">
        <ele>59.7</ele>
        <time>2020-06-07T14:18:31Z</time>
      </trkpt>
      <trkpt lat="47.84773" lon="-3.69399">
        <ele>59.5</ele>
        <time>2020-06-07T14:18:32Z</time>
      </trkpt>
      <trkpt lat="47.84779" lon="-3.69402">
        <ele>59.3</ele>
        <time>2020-06-07T14:18:33Z</time>
      </trkpt>
      <trkpt lat="47.84786" lon="-3.69406">
        <ele>59</ele>
        <time>2020-06-07T14:18:34Z</time>
      </trkpt>
      <trkpt lat="47.84792" lon="-3.69409">
        <ele>58.8</ele>
        <time>2020-06-07T14:18:35Z</time>
      </trkpt>
      <trkpt lat="47.84799" lon="-3.69413">
        <ele>58.6</ele>
        <time>2020-06-07T14:18:36Z</time>
      </trkpt>
      <trkpt lat="47.84805" lon="-3.69417">
        <ele>58.3</ele>
        <time>2020-06-07T14:18:37Z</time>
      </trkpt>
      <trkpt lat="47.84813" lon="-3.6942">
        <ele>58.1</ele>
        <time>2020-06-07T14:18:38Z</time>
      </trkpt>
      <trkpt lat="47.8482" lon="-3.69424">
        <ele>57.8</ele>
        <time>2020-06-07T14:18:39Z</time>
      </trkpt>
      <trkpt lat="47.84827" lon="-3.69427">
        <ele>57.6</ele>
        <time>2020-06-07T14:18:40Z</time>
      </trkpt>
      <trkpt lat="47.84834" lon="-3.6943">
        <ele>57.4</ele>
        <time>2020-06-07T14:18:41Z</time>
      </trkpt>
      <trkpt lat="47.84841" lon="-3.69435">
        <ele>57.2</ele>
        <time>2020-06-07T14:18:42Z</time>
      </trkpt>
      <trkpt lat="47.84849" lon="-3.69438">
        <ele>57.1</ele>
        <time>2020-06-07T14:18:43Z</time>
      </trkpt>
      <trkpt lat="47.84856" lon="-3.69442">
        <ele>56.9</ele>
        <time>2020-06-07T14:18:44Z</time>
      </trkpt>
      <trkpt lat="47.84863" lon="-3.69447">
        <ele>56.7</ele>
        <time>2020-06-07T14:18:45Z</time>
      </trkpt>
      <trkpt lat="47.84871" lon="-3.69451">
        <ele>56.6</ele>
        <time>2020-06-07T14:18:46Z</time>
      </trkpt>
      <trkpt lat="47.84878" lon="-3.69455">
        <ele>56.4</ele>
        <time>2020-06-07T14:18:47Z</time>
      </trkpt>
      <trkpt lat="47.84885" lon="-3.69459">
        <ele>56.2</ele>
        <time>2020-06-07T14:18:48Z</time>
      </trkpt>
      <trkpt lat="47.84893" lon="-3.69463">
        <ele>56</ele>
        <time>2020-06-07T14:18:49Z</time>
      </trkpt>
      <trkpt lat="47.849" lon="-3.69467">
        <ele>55.8</ele>
        <time>2020-06-07T14:18:50Z</time>
      </trkpt>
      <trkpt lat="47.84907" lon="-3.6947">
        <ele>55.6</ele>
        <time>2020-06-07T14:18:51Z</time>
      </trkpt>
      <trkpt lat="47.84915" lon="-3.69474">
        <ele>55.4</ele>
        <time>2020-06-07T14:18:52Z</time>
      </trkpt>
      <trkpt lat="47.84922" lon="-3.69478">
        <ele>55.2</ele>
        <time>2020-06-07T14:18:53Z</time>
      </trkpt>
      <trkpt lat="47.84929" lon="-3.69482">
        <ele>55</ele>
        <time>2020-06-07T14:18:54Z</time>
      </trkpt>
      <trkpt lat="47.84936" lon="-3.69486">
        <ele>54.8</ele>
        <time>2020-06-07T14:18:55Z</time>
      </trkpt>
      <trkpt lat="47.84943" lon="-3.6949">
        <ele>54.5</ele>
        <time>2020-06-07T14:18:56Z</time>
      </trkpt>
      <trkpt lat="47.84951" lon="-3.69494">
        <ele>54.3</ele>
        <time>2020-06-07T14:18:57Z</time>
      </trkpt>
      <trkpt lat="47.84958" lon="-3.69497">
        <ele>54</ele>
        <time>2020-06-07T14:18:58Z</time>
      </trkpt>
      <trkpt lat="47.84966" lon="-3.69501">
        <ele>53.7</ele>
        <time>2020-06-07T14:18:59Z</time>
      </trkpt>
      <trkpt lat="47.84973" lon="-3.69505">
        <ele>53.4</ele>
        <time>2020-06-07T14:19:00Z</time>
      </trkpt>
      <trkpt lat="47.8498" lon="-3.69509">
        <ele>53.2</ele>
        <time>2020-06-07T14:19:01Z</time>
      </trkpt>
      <trkpt lat="47.84988" lon="-3.69513">
        <ele>53</ele>
        <time>2020-06-07T14:19:02Z</time>
      </trkpt>
      <trkpt lat="47.84995" lon="-3.69517">
        <ele>52.8</ele>
        <time>2020-06-07T14:19:03Z</time>
      </trkpt>
      <trkpt lat="47.85002" lon="-3.69521">
        <ele>52.6</ele>
        <time>2020-06-07T14:19:04Z</time>
      </trkpt>
      <trkpt lat="47.85009" lon="-3.69524">
        <ele>52.4</ele>
        <time>2020-06-07T14:19:05Z</time>
      </trkpt>
      <trkpt lat="47.85017" lon="-3.69528">
        <ele>52.2</ele>
        <time>2020-06-07T14:19:06Z</time>
      </trkpt>
      <trkpt lat="47.85024" lon="-3.69532">
        <ele>51.9</ele>
        <time>2020-06-07T14:19:07Z</time>
      </trkpt>
      <trkpt lat="47.85031" lon="-3.69537">
        <ele>51.7</ele>
        <time>2020-06-07T14:19:08Z</time>
      </trkpt>
      <trkpt lat="47.85037" lon="-3.69542">
        <ele>51.4</ele>
        <time>2020-06-07T14:19:09Z</time>
      </trkpt>
      <trkpt lat="47.85044" lon="-3.69546">
        <ele>51.2</ele>
        <time>2020-06-07T14:19:10Z</time>
      </trkpt>
      <trkpt lat="47.85051" lon="-3.6955">
        <ele>50.9</ele>
        <time>2020-06-07T14:19:11Z</time>
      </trkpt>
      <trkpt lat="47.85059" lon="-3.69554">
        <ele>50.6</ele>
        <time>2020-06-07T14:19:12Z</time>
      </trkpt>
      <trkpt lat="47.85066" lon="-3.69559">
        <ele>50.4</ele>
        <time>2020-06-07T14:19:13Z</time>
      </trkpt>
      <trkpt lat="47.85072" lon="-3.69563">
        <ele>50.2</ele>
        <time>2020-06-07T14:19:14Z</time>
      </trkpt>
      <trkpt lat="47.85079" lon="-3.69567">
        <ele>49.9</ele>
        <time>2020-06-07T14:19:15Z</time>
      </trkpt>
      <trkpt lat="47.85086" lon="-3.69571">
        <ele>49.6</ele>
        <time>2020-06-07T14:19:16Z</time>
      </trkpt>
      <trkpt lat="47.85094" lon="-3.69575">
        <ele>49.3</ele>
        <time>2020-06-07T14:19:17Z</time>
      </trkpt>
      <trkpt lat="47.85101" lon="-3.69578">
        <ele>48.9</ele>
        <time>2020-06-07T14:19:18Z</time>
      </trkpt>
      <trkpt lat="47.85109" lon="-3.69582">
        <ele>48.5</ele>
        <time>2020-06-07T14:19:19Z</time>
      </trkpt>
      <trkpt lat="47.85117" lon="-3.69585">
        <ele>48</ele>
        <time>2020-06-07T14:19:20Z</time>
      </trkpt>
      <trkpt lat="47.85125" lon="-3.69587">
        <ele>47.3</ele>
        <time>2020-06-07T14:19:21Z</time>
      </trkpt>
      <trkpt lat="47.85134" lon="-3.69588">
        <ele>46.5</ele>
        <time>2020-06-07T14:19:22Z</time>
      </trkpt>
      <trkpt lat="47.85143" lon="-3.69589">
        <ele>45.8</ele>
        <time>2020-06-07T14:19:23Z</time>
      </trkpt>
      <trkpt lat="47.85152" lon="-3.69589">
        <ele>45</ele>
        <time>2020-06-07T14:19:24Z</time>
      </trkpt>
      <trkpt lat="47.85162" lon="-3.69589">
        <ele>44.2</ele>
        <time>2020-06-07T14:19:25Z</time>
      </trkpt>
      <trkpt lat="47.85172" lon="-3.69589">
        <ele>43.3</ele>
        <time>2020-06-07T14:19:26Z</time>
      </trkpt>
      <trkpt lat="47.85182" lon="-3.69589">
        <ele>42.9</ele>
        <time>2020-06-07T14:19:27Z</time>
      </trkpt>
      <trkpt lat="47.85192" lon="-3.6959">
        <ele>42.5</ele>
        <time>2020-06-07T14:19:28Z</time>
      </trkpt>
      <trkpt lat="47.85203" lon="-3.69591">
        <ele>42</ele>
        <time>2020-06-07T14:19:29Z</time>
      </trkpt>
      <trkpt lat="47.85213" lon="-3.69591">
        <ele>41.6</ele>
        <time>2020-06-07T14:19:30Z</time>
      </trkpt>
      <trkpt lat="47.85224" lon="-3.69592">
        <ele>41.3</ele>
        <time>2020-06-07T14:19:31Z</time>
      </trkpt>
      <trkpt lat="47.85234" lon="-3.69594">
        <ele>40.8</ele>
        <time>2020-06-07T14:19:32Z</time>
      </trkpt>
      <trkpt lat="47.85244" lon="-3.69595">
        <ele>40.1</ele>
        <time>2020-06-07T14:19:33Z</time>
      </trkpt>
      <trkpt lat="47.85254" lon="-3.69596">
        <ele>39.4</ele>
        <time>2020-06-07T14:19:34Z</time>
      </trkpt>
      <trkpt lat="47.85264" lon="-3.69598">
        <ele>38.7</ele>
        <time>2020-06-07T14:19:35Z</time>
      </trkpt>
      <trkpt lat="47.85273" lon="-3.69599">
        <ele>38.1</ele>
        <time>2020-06-07T14:19:36Z</time>
      </trkpt>
      <trkpt lat="47.85283" lon="-3.696">
        <ele>37.5</ele>
        <time>2020-06-07T14:19:37Z</time>
      </trkpt>
      <trkpt lat="47.85293" lon="-3.69603">
        <ele>36.9</ele>
        <time>2020-06-07T14:19:38Z</time>
      </trkpt>
      <trkpt lat="47.85302" lon="-3.69606">
        <ele>36.4</ele>
        <time>2020-06-07T14:19:39Z</time>
      </trkpt>
      <trkpt lat="47.85311" lon="-3.69609">
        <ele>35.8</ele>
        <time>2020-06-07T14:19:40Z</time>
      </trkpt>
      <trkpt lat="47.8532" lon="-3.69613">
        <ele>35.5</ele>
        <time>2020-06-07T14:19:41Z</time>
      </trkpt>
      <trkpt lat="47.85329" lon="-3.69617">
        <ele>35.3</ele>
        <time>2020-06-07T14:19:42Z</time>
      </trkpt>
      <trkpt lat="47.85337" lon="-3.69621">
        <ele>35.1</ele>
        <time>2020-06-07T14:19:43Z</time>
      </trkpt>
      <trkpt lat="47.85346" lon="-3.69626">
        <ele>34.9</ele>
        <time>2020-06-07T14:19:44Z</time>
      </trkpt>
      <trkpt lat="47.85354" lon="-3.69629">
        <ele>34.7</ele>
        <time>2020-06-07T14:19:45Z</time>
      </trkpt>
      <trkpt lat="47.85363" lon="-3.69634">
        <ele>34.6</ele>
        <time>2020-06-07T14:19:46Z</time>
      </trkpt>
      <trkpt lat="47.85371" lon="-3.69638">
        <ele>34.5</ele>
        <time>2020-06-07T14:19:47Z</time>
      </trkpt>
      <trkpt lat="47.85379" lon="-3.69642">
        <ele>34.3</ele>
        <time>2020-06-07T14:19:48Z</time>
      </trkpt>
      <trkpt lat="47.85387" lon="-3.69647">
        <ele>34.2</ele>
        <time>2020-06-07T14:19:49Z</time>
      </trkpt>
      <trkpt lat="47.85396" lon="-3.69651">
        <ele>34</ele>
        <time>2020-06-07T14:19:50Z</time>
      </trkpt>
      <trkpt lat="47.85404" lon="-3.69655">
        <ele>33.9</ele>
        <time>2020-06-07T14:19:51Z</time>
      </trkpt>
      <trkpt lat="47.85412" lon="-3.69659">
        <ele>33.8</ele>
        <time>2020-06-07T14:19:52Z</time>
      </trkpt>
      <trkpt lat="47.8542" lon="-3.69663">
        <ele>33.8</ele>
        <time>2020-06-07T14:19:53Z</time>
      </trkpt>
      <trkpt lat="47.85428" lon="-3.69666">
        <ele>33.8</ele>
        <time>2020-06-07T14:19:54Z</time>
      </trkpt>
      <trkpt lat="47.85436" lon="-3.69669">
        <ele>33.8</ele>
        <time>2020-06-07T14:19:55Z</time>
      </trkpt>
      <trkpt lat="47.85444" lon="-3.69672">
        <ele>33.9</ele>
        <time>2020-06-07T14:19:56Z</time>
      </trkpt>
      <trkpt lat="47.85452" lon="-3.69673">
        <ele>33.9</ele>
        <time>2020-06-07T14:19:57Z</time>
      </trkpt>
      <trkpt lat="47.8546" lon="-3.69675">
        <ele>33.8</ele>
        <time>2020-06-07T14:19:58Z</time>
      </trkpt>
      <trkpt lat="47.85468" lon="-3.69676">
        <ele>33.7</ele>
        <time>2020-06-07T14:19:59Z</time>
      </trkpt>
      <trkpt lat="47.85476" lon="-3.69677">
        <ele>33.6</ele>
        <time>2020-06-07T14:20:00Z</time>
      </trkpt>
      <trkpt lat="47.85483" lon="-3.69678">
        <ele>33.5</ele>
        <time>2020-06-07T14:20:01Z</time>
      </trkpt>
      <trkpt lat="47.8549" lon="-3.69678">
        <ele>33.4</ele>
        <time>2020-06-07T14:20:02Z</time>
      </trkpt>
      <trkpt lat="47.85497" lon="-3.69679">
        <ele>33.4</ele>
        <time>2020-06-07T14:20:03Z</time>
      </trkpt>
      <trkpt lat="47.85504" lon="-3.69679">
        <ele>33.4</ele>
        <time>2020-06-07T14:20:04Z</time>
      </trkpt>
      <trkpt lat="47.85512" lon="-3.69679">
        <ele>33.4</ele>
        <time>2020-06-07T14:20:05Z</time>
      </trkpt>
      <trkpt lat="47.85519" lon="-3.69679">
        <ele>33.3</ele>
        <time>2020-06-07T14:20:06Z</time>
      </trkpt>
      <trkpt lat="47.85525" lon="-3.69678">
        <ele>33.3</ele>
        <time>2020-06-07T14:20:07Z</time>
      </trkpt>
      <trkpt lat="47.85533" lon="-3.69678">
        <ele>33.3</ele>
        <time>2020-06-07T14:20:08Z</time>
      </trkpt>
      <trkpt lat="47.8554" lon="-3.69678">
        <ele>33.2</ele>
        <time>2020-06-07T14:20:09Z</time>
      </trkpt>
      <trkpt lat="47.85546" lon="-3.69678">
        <ele>33.2</ele>
        <time>2020-06-07T14:20:10Z</time>
      </trkpt>
      <trkpt lat="47.85553" lon="-3.69678">
        <ele>33.1</ele>
        <time>2020-06-07T14:20:11Z</time>
      </trkpt>
      <trkpt lat="47.8556" lon="-3.69679">
        <ele>33.1</ele>
        <time>2020-06-07T14:20:12Z</time>
      </trkpt>
      <trkpt lat="47.85566" lon="-3.6968">
        <ele>33.1</ele>
        <time>2020-06-07T14:20:13Z</time>
      </trkpt>
      <trkpt lat="47.85573" lon="-3.69681">
        <ele>33</ele>
        <time>2020-06-07T14:20:14Z</time>
      </trkpt>
      <trkpt lat="47.8558" lon="-3.69683">
        <ele>33</ele>
        <time>2020-06-07T14:20:15Z</time>
      </trkpt>
      <trkpt lat="47.85586" lon="-3.69684">
        <ele>33</ele>
        <time>2020-06-07T14:20:16Z</time>
      </trkpt>
      <trkpt lat="47.85592" lon="-3.69686">
        <ele>33</ele>
        <time>2020-06-07T14:20:17Z</time>
      </trkpt>
      <trkpt lat="47.85599" lon="-3.69688">
        <ele>33.1</ele>
        <time>2020-06-07T14:20:18Z</time>
      </trkpt>
      <trkpt lat="47.85605" lon="-3.69689">
        <ele>33.1</ele>
        <time>2020-06-07T14:20:19Z</time>
      </trkpt>
      <trkpt lat="47.85611" lon="-3.69692">
        <ele>33.1</ele>
        <time>2020-06-07T14:20:20Z</time>
      </trkpt>
      <trkpt lat="47.85617" lon="-3.69695">
        <ele>33.1</ele>
        <time>2020-06-07T14:20:21Z</time>
      </trkpt>
      <trkpt lat="47.85624" lon="-3.69697">
        <ele>33.1</ele>
        <time>2020-06-07T14:20:22Z</time>
      </trkpt>
      <trkpt lat="47.8563" lon="-3.697">
        <ele>33.1</ele>
        <time>2020-06-07T14:20:23Z</time>
      </trkpt>
      <trkpt lat="47.85636" lon="-3.69703">
        <ele>33.2</ele>
        <time>2020-06-07T14:20:24Z</time>
      </trkpt>
      <trkpt lat="47.85642" lon="-3.69706">
        <ele>33.3</ele>
        <time>2020-06-07T14:20:25Z</time>
      </trkpt>
      <trkpt lat="47.85648" lon="-3.69709">
        <ele>33.5</ele>
        <time>2020-06-07T14:20:26Z</time>
      </trkpt>
      <trkpt lat="47.85653" lon="-3.69712">
        <ele>33.6</ele>
        <time>2020-06-07T14:20:27Z</time>
      </trkpt>
      <trkpt lat="47.85659" lon="-3.69715">
        <ele>33.8</ele>
        <time>2020-06-07T14:20:28Z</time>
      </trkpt>
      <trkpt lat="47.85664" lon="-3.69719">
        <ele>34</ele>
        <time>2020-06-07T14:20:29Z</time>
      </trkpt>
      <trkpt lat="47.85669" lon="-3.69722">
        <ele>34.2</ele>
        <time>2020-06-07T14:20:30Z</time>
      </trkpt>
      <trkpt lat="47.85675" lon="-3.69725">
        <ele>34.5</ele>
        <time>2020-06-07T14:20:31Z</time>
      </trkpt>
      <trkpt lat="47.8568" lon="-3.69728">
        <ele>34.7</ele>
        <time>2020-06-07T14:20:32Z</time>
      </trkpt>
      <trkpt lat="47.85685" lon="-3.69732">
        <ele>35</ele>
        <time>2020-06-07T14:20:33Z</time>
      </trkpt>
      <trkpt lat="47.85689" lon="-3.69735">
        <ele>35.3</ele>
        <time>2020-06-07T14:20:34Z</time>
      </trkpt>
      <trkpt lat="47.85693" lon="-3.69739">
        <ele>35.6</ele>
        <time>2020-06-07T14:20:35Z</time>
      </trkpt>
      <trkpt lat="47.85696" lon="-3.69742">
        <ele>35.8</ele>
        <time>2020-06-07T14:20:36Z</time>
      </trkpt>
      <trkpt lat="47.857" lon="-3.69744">
        <ele>36.1</ele>
        <time>2020-06-07T14:20:37Z</time>
      </trkpt>
      <trkpt lat="47.85704" lon="-3.69746">
        <ele>36.4</ele>
        <time>2020-06-07T14:20:38Z</time>
      </trkpt>
      <trkpt lat="47.85707" lon="-3.69749">
        <ele>36.7</ele>
        <time>2020-06-07T14:20:39Z</time>
      </trkpt>
      <trkpt lat="47.85711" lon="-3.6975">
        <ele>37</ele>
        <time>2020-06-07T14:20:40Z</time>
      </trkpt>
      <trkpt lat="47.85715" lon="-3.69752">
        <ele>37.2</ele>
        <time>2020-06-07T14:20:41Z</time>
      </trkpt>
      <trkpt lat="47.85719" lon="-3.69755">
        <ele>37.5</ele>
        <time>2020-06-07T14:20:42Z</time>
      </trkpt>
      <trkpt lat="47.85722" lon="-3.69757">
        <ele>37.7</ele>
        <time>2020-06-07T14:20:43Z</time>
      </trkpt>
      <trkpt lat="47.85726" lon="-3.69759">
        <ele>37.9</ele>
        <time>2020-06-07T14:20:44Z</time>
      </trkpt>
      <trkpt lat="47.8573" lon="-3.69763">
        <ele>38.2</ele>
        <time>2020-06-07T14:20:45Z</time>
      </trkpt>
      <trkpt lat="47.85733" lon="-3.69765">
        <ele>38.4</ele>
        <time>2020-06-07T14:20:46Z</time>
      </trkpt>
      <trkpt lat="47.85737" lon="-3.69767">
        <ele>38.7</ele>
        <time>2020-06-07T14:20:47Z</time>
      </trkpt>
      <trkpt lat="47.85741" lon="-3.69769">
        <ele>39</ele>
        <time>2020-06-07T14:20:48Z</time>
      </trkpt>
      <trkpt lat="47.85744" lon="-3.69773">
        <ele>39.3</ele>
        <time>2020-06-07T14:20:49Z</time>
      </trkpt>
      <trkpt lat="47.85748" lon="-3.69776">
        <ele>39.6</ele>
        <time>2020-06-07T14:20:50Z</time>
      </trkpt>
      <trkpt lat="47.85751" lon="-3.69778">
        <ele>39.8</ele>
        <time>2020-06-07T14:20:51Z</time>
      </trkpt>
      <trkpt lat="47.85754" lon="-3.69781">
        <ele>40.1</ele>
        <time>2020-06-07T14:20:52Z</time>
      </trkpt>
      <trkpt lat="47.85758" lon="-3.69783">
        <ele>40.4</ele>
        <time>2020-06-07T14:20:53Z</time>
      </trkpt>
      <trkpt lat="47.85762" lon="-3.69784">
        <ele>40.7</ele>
        <time>2020-06-07T14:20:54Z</time>
      </trkpt>
      <trkpt lat="47.85765" lon="-3.69787">
        <ele>41</ele>
        <time>2020-06-07T14:20:55Z</time>
      </trkpt>
      <trkpt lat="47.85768" lon="-3.69789">
        <ele>41.2</ele>
        <time>2020-06-07T14:20:56Z</time>
      </trkpt>
      <trkpt lat="47.85772" lon="-3.69792">
        <ele>41.5</ele>
        <time>2020-06-07T14:20:57Z</time>
      </trkpt>
      <trkpt lat="47.85775" lon="-3.69794">
        <ele>41.8</ele>
        <time>2020-06-07T14:20:58Z</time>
      </trkpt>
      <trkpt lat="47.85778" lon="-3.69797">
        <ele>42</ele>
        <time>2020-06-07T14:20:59Z</time>
      </trkpt>
      <trkpt lat="47.85781" lon="-3.698">
        <ele>42.3</ele>
        <time>2020-06-07T14:21:00Z</time>
      </trkpt>
      <trkpt lat="47.85784" lon="-3.69803">
        <ele>42.6</ele>
        <time>2020-06-07T14:21:01Z</time>
      </trkpt>
      <trkpt lat="47.85788" lon="-3.69805">
        <ele>42.8</ele>
        <time>2020-06-07T14:21:02Z</time>
      </trkpt>
      <trkpt lat="47.85791" lon="-3.69809">
        <ele>43.1</ele>
        <time>2020-06-07T14:21:03Z</time>
      </trkpt>
      <trkpt lat="47.85794" lon="-3.69812">
        <ele>43.3</ele>
        <time>2020-06-07T14:21:04Z</time>
      </trkpt>
      <trkpt lat="47.85798" lon="-3.69815">
        <ele>43.6</ele>
        <time>2020-06-07T14:21:05Z</time>
      </trkpt>
      <trkpt lat="47.85801" lon="-3.69817">
        <ele>43.8</ele>
        <time>2020-06-07T14:21:06Z</time>
      </trkpt>
      <trkpt lat="47.85804" lon="-3.69819">
        <ele>44</ele>
        <time>2020-06-07T14:21:07Z</time>
      </trkpt>
      <trkpt lat="47.85808" lon="-3.69822">
        <ele>44.2</ele>
        <time>2020-06-07T14:21:08Z</time>
      </trkpt>
      <trkpt lat="47.85809" lon="-3.69823">
        <ele>44.4</ele>
        <time>2020-06-07T14:21:09Z</time>
      </trkpt>
      <trkpt lat="47.85812" lon="-3.69825">
        <ele>44.5</ele>
        <time>2020-06-07T14:21:10Z</time>
      </trkpt>
      <trkpt lat="47.85815" lon="-3.69827">
        <ele>44.7</ele>
        <time>2020-06-07T14:21:11Z</time>
      </trkpt>
      <trkpt lat="47.85818" lon="-3.69829">
        <ele>44.9</ele>
        <time>2020-06-07T14:21:12Z</time>
      </trkpt>
      <trkpt lat="47.85821" lon="-3.69832">
        <ele>45.1</ele>
        <time>2020-06-07T14:21:13Z</time>
      </trkpt>
      <trkpt lat="47.85824" lon="-3.69834">
        <ele>45.3</ele>
        <time>2020-06-07T14:21:14Z</time>
      </trkpt>
      <trkpt lat="47.85828" lon="-3.69836">
        <ele>45.5</ele>
        <time>2020-06-07T14:21:15Z</time>
      </trkpt>
      <trkpt lat="47.85831" lon="-3.69839">
        <ele>45.8</ele>
        <time>2020-06-07T14:21:16Z</time>
      </trkpt>
      <trkpt lat="47.85834" lon="-3.69841">
        <ele>46</ele>
        <time>2020-06-07T14:21:17Z</time>
      </trkpt>
      <trkpt lat="47.85838" lon="-3.69844">
        <ele>46.2</ele>
        <time>2020-06-07T14:21:18Z</time>
      </trkpt>
      <trkpt lat="47.85841" lon="-3.69847">
        <ele>46.4</ele>
        <time>2020-06-07T14:21:19Z</time>
      </trkpt>
      <trkpt lat="47.85844" lon="-3.69849">
        <ele>46.6</ele>
        <time>2020-06-07T14:21:20Z</time>
      </trkpt>
      <trkpt lat="47.85847" lon="-3.69851">
        <ele>46.9</ele>
        <time>2020-06-07T14:21:21Z</time>
      </trkpt>
      <trkpt lat="47.85851" lon="-3.69854">
        <ele>47.1</ele>
        <time>2020-06-07T14:21:22Z</time>
      </trkpt>
      <trkpt lat="47.85854" lon="-3.69855">
        <ele>47.3</ele>
        <time>2020-06-07T14:21:23Z</time>
      </trkpt>
      <trkpt lat="47.85857" lon="-3.69858">
        <ele>47.5</ele>
        <time>2020-06-07T14:21:24Z</time>
      </trkpt>
      <trkpt lat="47.85861" lon="-3.69862">
        <ele>47.7</ele>
        <time>2020-06-07T14:21:25Z</time>
      </trkpt>
      <trkpt lat="47.85865" lon="-3.69865">
        <ele>47.9</ele>
        <time>2020-06-07T14:21:26Z</time>
      </trkpt>
      <trkpt lat="47.85868" lon="-3.69867">
        <ele>48.1</ele>
        <time>2020-06-07T14:21:27Z</time>
      </trkpt>
      <trkpt lat="47.85871" lon="-3.6987">
        <ele>48.3</ele>
        <time>2020-06-07T14:21:28Z</time>
      </trkpt>
      <trkpt lat="47.85874" lon="-3.69873">
        <ele>48.5</ele>
        <time>2020-06-07T14:21:29Z</time>
      </trkpt>
      <trkpt lat="47.85877" lon="-3.69875">
        <ele>48.7</ele>
        <time>2020-06-07T14:21:30Z</time>
      </trkpt>
      <trkpt lat="47.85881" lon="-3.69879">
        <ele>48.9</ele>
        <time>2020-06-07T14:21:31Z</time>
      </trkpt>
      <trkpt lat="47.85884" lon="-3.6988">
        <ele>49.1</ele>
        <time>2020-06-07T14:21:32Z</time>
      </trkpt>
      <trkpt lat="47.85887" lon="-3.69881">
        <ele>49.3</ele>
        <time>2020-06-07T14:21:33Z</time>
      </trkpt>
      <trkpt lat="47.8589" lon="-3.69885">
        <ele>49.5</ele>
        <time>2020-06-07T14:21:34Z</time>
      </trkpt>
      <trkpt lat="47.85893" lon="-3.69887">
        <ele>49.7</ele>
        <time>2020-06-07T14:21:35Z</time>
      </trkpt>
      <trkpt lat="47.85894" lon="-3.69888">
        <ele>49.8</ele>
        <time>2020-06-07T14:21:36Z</time>
      </trkpt>
      <trkpt lat="47.85897" lon="-3.69891">
        <ele>50</ele>
        <time>2020-06-07T14:21:37Z</time>
      </trkpt>
      <trkpt lat="47.85901" lon="-3.69895">
        <ele>50.2</ele>
        <time>2020-06-07T14:21:38Z</time>
      </trkpt>
      <trkpt lat="47.85904" lon="-3.69898">
        <ele>50.5</ele>
        <time>2020-06-07T14:21:39Z</time>
      </trkpt>
      <trkpt lat="47.85906" lon="-3.69901">
        <ele>50.6</ele>
        <time>2020-06-07T14:21:40Z</time>
      </trkpt>
      <trkpt lat="47.85909" lon="-3.69904">
        <ele>50.8</ele>
        <time>2020-06-07T14:21:41Z</time>
      </trkpt>
      <trkpt lat="47.85911" lon="-3.69907">
        <ele>51</ele>
        <time>2020-06-07T14:21:42Z</time>
      </trkpt>
      <trkpt lat="47.85914" lon="-3.69911">
        <ele>51.3</ele>
        <time>2020-06-07T14:21:43Z</time>
      </trkpt>
      <trkpt lat="47.85917" lon="-3.69915">
        <ele>51.5</ele>
        <time>2020-06-07T14:21:44Z</time>
      </trkpt>
      <trkpt lat="47.85919" lon="-3.69917">
        <ele>51.7</ele>
        <time>2020-06-07T14:21:45Z</time>
      </trkpt>
      <trkpt lat="47.85921" lon="-3.69921">
        <ele>51.9</ele>
        <time>2020-06-07T14:21:46Z</time>
      </trkpt>
      <trkpt lat="47.85923" lon="-3.69924">
        <ele>52</ele>
        <time>2020-06-07T14:21:47Z</time>
      </trkpt>
      <trkpt lat="47.85926" lon="-3.69928">
        <ele>52.3</ele>
        <time>2020-06-07T14:21:48Z</time>
      </trkpt>
      <trkpt lat="47.85929" lon="-3.69931">
        <ele>52.5</ele>
        <time>2020-06-07T14:21:49Z</time>
      </trkpt>
      <trkpt lat="47.85931" lon="-3.69935">
        <ele>52.6</ele>
        <time>2020-06-07T14:21:50Z</time>
      </trkpt>
      <trkpt lat="47.85934" lon="-3.69938">
        <ele>52.8</ele>
        <time>2020-06-07T14:21:51Z</time>
      </trkpt>
      <trkpt lat="47.85937" lon="-3.69942">
        <ele>53.1</ele>
        <time>2020-06-07T14:21:52Z</time>
      </trkpt>
      <trkpt lat="47.8594" lon="-3.69946">
        <ele>53.4</ele>
        <time>2020-06-07T14:21:53Z</time>
      </trkpt>
      <trkpt lat="47.85943" lon="-3.6995">
        <ele>53.6</ele>
        <time>2020-06-07T14:21:54Z</time>
      </trkpt>
      <trkpt lat="47.85946" lon="-3.69955">
        <ele>53.9</ele>
        <time>2020-06-07T14:21:55Z</time>
      </trkpt>
      <trkpt lat="47.85949" lon="-3.69958">
        <ele>54.1</ele>
        <time>2020-06-07T14:21:56Z</time>
      </trkpt>
      <trkpt lat="47.85952" lon="-3.69962">
        <ele>54.4</ele>
        <time>2020-06-07T14:21:57Z</time>
      </trkpt>
      <trkpt lat="47.85954" lon="-3.69965">
        <ele>54.6</ele>
        <time>2020-06-07T14:21:58Z</time>
      </trkpt>
      <trkpt lat="47.85956" lon="-3.69968">
        <ele>54.8</ele>
        <time>2020-06-07T14:21:59Z</time>
      </trkpt>
      <trkpt lat="47.85958" lon="-3.69971">
        <ele>55</ele>
        <time>2020-06-07T14:22:00Z</time>
      </trkpt>
      <trkpt lat="47.85961" lon="-3.69976">
        <ele>55.2</ele>
        <time>2020-06-07T14:22:01Z</time>
      </trkpt>
      <trkpt lat="47.85963" lon="-3.69979">
        <ele>55.4</ele>
        <time>2020-06-07T14:22:02Z</time>
      </trkpt>
      <trkpt lat="47.85966" lon="-3.69983">
        <ele>55.7</ele>
        <time>2020-06-07T14:22:03Z</time>
      </trkpt>
      <trkpt lat="47.85969" lon="-3.69987">
        <ele>55.9</ele>
        <time>2020-06-07T14:22:04Z</time>
      </trkpt>
      <trkpt lat="47.85973" lon="-3.69992">
        <ele>56.2</ele>
        <time>2020-06-07T14:22:05Z</time>
      </trkpt>
      <trkpt lat="47.85975" lon="-3.69996">
        <ele>56.4</ele>
        <time>2020-06-07T14:22:06Z</time>
      </trkpt>
      <trkpt lat="47.85979" lon="-3.70001">
        <ele>56.8</ele>
        <time>2020-06-07T14:22:07Z</time>
      </trkpt>
      <trkpt lat="47.8598" lon="-3.70003">
        <ele>56.9</ele>
        <time>2020-06-07T14:22:08Z</time>
      </trkpt>
      <trkpt lat="47.85983" lon="-3.70008">
        <ele>57.2</ele>
        <time>2020-06-07T14:22:09Z</time>
      </trkpt>
      <trkpt lat="47.85986" lon="-3.70012">
        <ele>57.5</ele>
        <time>2020-06-07T14:22:10Z</time>
      </trkpt>
      <trkpt lat="47.85989" lon="-3.70015">
        <ele>57.7</ele>
        <time>2020-06-07T14:22:11Z</time>
      </trkpt>
      <trkpt lat="47.85991" lon="-3.70018">
        <ele>57.9</ele>
        <time>2020-06-07T14:22:12Z</time>
      </trkpt>
      <trkpt lat="47.85994" lon="-3.7002">
        <ele>58.1</ele>
        <time>2020-06-07T14:22:13Z</time>
      </trkpt>
      <trkpt lat="47.85998" lon="-3.70023">
        <ele>58.4</ele>
        <time>2020-06-07T14:22:14Z</time>
      </trkpt>
      <trkpt lat="47.86001" lon="-3.70024">
        <ele>58.6</ele>
        <time>2020-06-07T14:22:15Z</time>
      </trkpt>
      <trkpt lat="47.86005" lon="-3.70026">
        <ele>58.9</ele>
        <time>2020-06-07T14:22:16Z</time>
      </trkpt>
      <trkpt lat="47.86009" lon="-3.70029">
        <ele>59.2</ele>
        <time>2020-06-07T14:22:17Z</time>
      </trkpt>
      <trkpt lat="47.86011" lon="-3.7003">
        <ele>59.5</ele>
        <time>2020-06-07T14:22:18Z</time>
      </trkpt>
      <trkpt lat="47.86014" lon="-3.7003">
        <ele>59.7</ele>
        <time>2020-06-07T14:22:19Z</time>
      </trkpt>
      <trkpt lat="47.86018" lon="-3.70032">
        <ele>59.9</ele>
        <time>2020-06-07T14:22:20Z</time>
      </trkpt>
      <trkpt lat="47.86022" lon="-3.70034">
        <ele>60.1</ele>
        <time>2020-06-07T14:22:21Z</time>
      </trkpt>
      <trkpt lat="47.86025" lon="-3.70035">
        <ele>60.3</ele>
        <time>2020-06-07T14:22:22Z</time>
      </trkpt>
      <trkpt lat="47.86029" lon="-3.70037">
        <ele>60.5</ele>
        <time>2020-06-07T14:22:23Z</time>
      </trkpt>
      <trkpt lat="47.86032" lon="-3.70038">
        <ele>60.6</ele>
        <time>2020-06-07T14:22:24Z</time>
      </trkpt>
      <trkpt lat="47.86035" lon="-3.70039">
        <ele>60.7</ele>
        <time>2020-06-07T14:22:25Z</time>
      </trkpt>
      <trkpt lat="47.86039" lon="-3.70041">
        <ele>60.9</ele>
        <time>2020-06-07T14:22:26Z</time>
      </trkpt>
      <trkpt lat="47.86042" lon="-3.70041">
        <ele>61</ele>
        <time>2020-06-07T14:22:27Z</time>
      </trkpt>
      <trkpt lat="47.86046" lon="-3.70042">
        <ele>61.1</ele>
        <time>2020-06-07T14:22:28Z</time>
      </trkpt>
      <trkpt lat="47.8605" lon="-3.70043">
        <ele>61.3</ele>
        <time>2020-06-07T14:22:29Z</time>
      </trkpt>
      <trkpt lat="47.86054" lon="-3.70045">
        <ele>61.5</ele>
        <time>2020-06-07T14:22:30Z</time>
      </trkpt>
      <trkpt lat="47.86057" lon="-3.70045">
        <ele>61.6</ele>
        <time>2020-06-07T14:22:31Z</time>
      </trkpt>
      <trkpt lat="47.86063" lon="-3.70045">
        <ele>61.8</ele>
        <time>2020-06-07T14:22:32Z</time>
      </trkpt>
      <trkpt lat="47.86068" lon="-3.70046">
        <ele>62</ele>
        <time>2020-06-07T14:22:33Z</time>
      </trkpt>
      <trkpt lat="47.86071" lon="-3.70045">
        <ele>62.1</ele>
        <time>2020-06-07T14:22:34Z</time>
      </trkpt>
      <trkpt lat="47.86074" lon="-3.70046">
        <ele>62.2</ele>
        <time>2020-06-07T14:22:35Z</time>
      </trkpt>
      <trkpt lat="47.86078" lon="-3.70047">
        <ele>62.3</ele>
        <time>2020-06-07T14:22:36Z</time>
      </trkpt>
      <trkpt lat="47.86081" lon="-3.70047">
        <ele>62.4</ele>
        <time>2020-06-07T14:22:37Z</time>
      </trkpt>
      <trkpt lat="47.86085" lon="-3.70048">
        <ele>62.6</ele>
        <time>2020-06-07T14:22:38Z</time>
      </trkpt>
      <trkpt lat="47.86088" lon="-3.70049">
        <ele>62.7</ele>
        <time>2020-06-07T14:22:39Z</time>
      </trkpt>
      <trkpt lat="47.86091" lon="-3.7005">
        <ele>62.8</ele>
        <time>2020-06-07T14:22:40Z</time>
      </trkpt>
      <trkpt lat="47.86095" lon="-3.7005">
        <ele>62.9</ele>
        <time>2020-06-07T14:22:41Z</time>
      </trkpt>
      <trkpt lat="47.86099" lon="-3.70052">
        <ele>63.1</ele>
        <time>2020-06-07T14:22:42Z</time>
      </trkpt>
      <trkpt lat="47.86103" lon="-3.70053">
        <ele>63.2</ele>
        <time>2020-06-07T14:22:43Z</time>
      </trkpt>
      <trkpt lat="47.86106" lon="-3.70054">
        <ele>63.3</ele>
        <time>2020-06-07T14:22:44Z</time>
      </trkpt>
      <trkpt lat="47.86111" lon="-3.70055">
        <ele>63.4</ele>
        <time>2020-06-07T14:22:45Z</time>
      </trkpt>
      <trkpt lat="47.86114" lon="-3.70056">
        <ele>63.5</ele>
        <time>2020-06-07T14:22:46Z</time>
      </trkpt>
      <trkpt lat="47.86118" lon="-3.70056">
        <ele>63.7</ele>
        <time>2020-06-07T14:22:47Z</time>
      </trkpt>
      <trkpt lat="47.86121" lon="-3.70057">
        <ele>63.8</ele>
        <time>2020-06-07T14:22:48Z</time>
      </trkpt>
      <trkpt lat="47.86124" lon="-3.70058">
        <ele>63.9</ele>
        <time>2020-06-07T14:22:49Z</time>
      </trkpt>
      <trkpt lat="47.86127" lon="-3.70059">
        <ele>64</ele>
        <time>2020-06-07T14:22:50Z</time>
      </trkpt>
      <trkpt lat="47.86128" lon="-3.70058">
        <ele>64.1</ele>
        <time>2020-06-07T14:22:51Z</time>
      </trkpt>
      <trkpt lat="47.8613" lon="-3.70058">
        <ele>64.2</ele>
        <time>2020-06-07T14:22:52Z</time>
      </trkpt>
      <trkpt lat="47.86132" lon="-3.70056">
        <ele>64.3</ele>
        <time>2020-06-07T14:22:53Z</time>
      </trkpt>
      <trkpt lat="47.86132" lon="-3.70055">
        <ele>64.3</ele>
        <time>2020-06-07T14:22:54Z</time>
      </trkpt>
      <trkpt lat="47.86131" lon="-3.70056">
        <ele>64.3</ele>
        <time>2020-06-07T14:22:55Z</time>
      </trkpt>
      <trkpt lat="47.8613" lon="-3.70056">
        <ele>64.4</ele>
        <time>2020-06-07T14:22:56Z</time>
      </trkpt>
      <trkpt lat="47.86131" lon="-3.70055">
        <ele>64.4</ele>
        <time>2020-06-07T14:22:57Z</time>
      </trkpt>
      <trkpt lat="47.8613" lon="-3.70055">
        <ele>64.4</ele>
        <time>2020-06-07T14:22:58Z</time>
      </trkpt>
      <trkpt lat="47.8613" lon="-3.70055">
        <ele>64.4</ele>
        <time>2020-06-07T14:22:59Z</time>
      </trkpt>
      <trkpt lat="47.8613" lon="-3.70055">
        <ele>64.4</ele>
        <time>2020-06-07T14:23:00Z</time>
      </trkpt>
      <trkpt lat="47.8613" lon="-3.70054">
        <ele>64.5</ele>
        <time>2020-06-07T14:23:01Z</time>
      </trkpt>
      <trkpt lat="47.8613" lon="-3.70054">
        <ele>64.5</ele>
        <time>2020-06-07T14:23:02Z</time>
      </trkpt>
      <trkpt lat="47.8613" lon="-3.70054">
        <ele>64.5</ele>
        <time>2020-06-07T14:23:03Z</time>
      </trkpt>
      <trkpt lat="47.8613" lon="-3.70054">
        <ele>64.5</ele>
        <time>2020-06-07T14:23:04Z</time>
      </trkpt>
      <trkpt lat="47.8613" lon="-3.70054">
        <ele>64.5</ele>
        <time>2020-06-07T14:23:05Z</time>
      </trkpt>
      <trkpt lat="47.86134" lon="-3.70058">
        <ele>64.7</ele>
        <time>2020-06-07T14:25:23Z</time>
      </trkpt>
      <trkpt lat="47.86135" lon="-3.7006">
        <ele>64.8</ele>
        <time>2020-06-07T14:25:24Z</time>
      </trkpt>
      <trkpt lat="47.86136" lon="-3.70063">
        <ele>64.9</ele>
        <time>2020-06-07T14:25:25Z</time>
      </trkpt>
      <trkpt lat="47.86137" lon="-3.70064">
        <ele>64.9</ele>
        <time>2020-06-07T14:25:26Z</time>
      </trkpt>
      <trkpt lat="47.86137" lon="-3.70064">
        <ele>64.9</ele>
        <time>2020-06-07T14:25:27Z</time>
      </trkpt>
      <trkpt lat="47.86142" lon="-3.70067">
        <ele>65.1</ele>
        <time>2020-06-07T14:25:28Z</time>
      </trkpt>
      <trkpt lat="47.86144" lon="-3.70068">
        <ele>65.2</ele>
        <time>2020-06-07T14:25:29Z</time>
      </trkpt>
      <trkpt lat="47.86148" lon="-3.7007">
        <ele>65.4</ele>
        <time>2020-06-07T14:25:30Z</time>
      </trkpt>
      <trkpt lat="47.86152" lon="-3.70073">
        <ele>65.6</ele>
        <time>2020-06-07T14:25:31Z</time>
      </trkpt>
      <trkpt lat="47.86156" lon="-3.70075">
        <ele>65.7</ele>
        <time>2020-06-07T14:25:32Z</time>
      </trkpt>
      <trkpt lat="47.86159" lon="-3.70078">
        <ele>65.9</ele>
        <time>2020-06-07T14:25:33Z</time>
      </trkpt>
      <trkpt lat="47.86163" lon="-3.7008">
        <ele>66.1</ele>
        <time>2020-06-07T14:25:34Z</time>
      </trkpt>
      <trkpt lat="47.86166" lon="-3.70083">
        <ele>66.2</ele>
        <time>2020-06-07T14:25:35Z</time>
      </trkpt>
      <trkpt lat="47.8617" lon="-3.70086">
        <ele>66.4</ele>
        <time>2020-06-07T14:25:36Z</time>
      </trkpt>
      <trkpt lat="47.86173" lon="-3.7009">
        <ele>66.6</ele>
        <time>2020-06-07T14:25:37Z</time>
      </trkpt>
      <trkpt lat="47.86177" lon="-3.70093">
        <ele>66.7</ele>
        <time>2020-06-07T14:25:38Z</time>
      </trkpt>
      <trkpt lat="47.8618" lon="-3.70096">
        <ele>66.9</ele>
        <time>2020-06-07T14:25:39Z</time>
      </trkpt>
      <trkpt lat="47.86184" lon="-3.70099">
        <ele>67.1</ele>
        <time>2020-06-07T14:25:40Z</time>
      </trkpt>
      <trkpt lat="47.86188" lon="-3.70103">
        <ele>67.2</ele>
        <time>2020-06-07T14:25:41Z</time>
      </trkpt>
      <trkpt lat="47.86192" lon="-3.70105">
        <ele>67.4</ele>
        <time>2020-06-07T14:25:42Z</time>
      </trkpt>
      <trkpt lat="47.86195" lon="-3.70107">
        <ele>67.6</ele>
        <time>2020-06-07T14:25:43Z</time>
      </trkpt>
      <trkpt lat="47.86197" lon="-3.70111">
        <ele>67.7</ele>
        <time>2020-06-07T14:25:44Z</time>
      </trkpt>
      <trkpt lat="47.86201" lon="-3.70114">
        <ele>67.9</ele>
        <time>2020-06-07T14:25:45Z</time>
      </trkpt>
      <trkpt lat="47.86205" lon="-3.70118">
        <ele>68.1</ele>
        <time>2020-06-07T14:25:46Z</time>
      </trkpt>
      <trkpt lat="47.86209" lon="-3.70121">
        <ele>68.3</ele>
        <time>2020-06-07T14:25:47Z</time>
      </trkpt>
      <trkpt lat="47.86213" lon="-3.70124">
        <ele>68.5</ele>
        <time>2020-06-07T14:25:48Z</time>
      </trkpt>
      <trkpt lat="47.86217" lon="-3.70127">
        <ele>68.6</ele>
        <time>2020-06-07T14:25:49Z</time>
      </trkpt>
      <trkpt lat="47.86221" lon="-3.70129">
        <ele>68.8</ele>
        <time>2020-06-07T14:25:50Z</time>
      </trkpt>
      <trkpt lat="47.86225" lon="-3.70132">
        <ele>68.9</ele>
        <time>2020-06-07T14:25:51Z</time>
      </trkpt>
      <trkpt lat="47.86228" lon="-3.70136">
        <ele>69.1</ele>
        <time>2020-06-07T14:25:52Z</time>
      </trkpt>
      <trkpt lat="47.86232" lon="-3.70139">
        <ele>69.2</ele>
        <time>2020-06-07T14:25:53Z</time>
      </trkpt>
      <trkpt lat="47.86236" lon="-3.70141">
        <ele>69.4</ele>
        <time>2020-06-07T14:25:54Z</time>
      </trkpt>
      <trkpt lat="47.8624" lon="-3.70143">
        <ele>69.6</ele>
        <time>2020-06-07T14:25:55Z</time>
      </trkpt>
      <trkpt lat="47.86244" lon="-3.70146">
        <ele>69.7</ele>
        <time>2020-06-07T14:25:56Z</time>
      </trkpt>
      <trkpt lat="47.86248" lon="-3.70147">
        <ele>69.9</ele>
        <time>2020-06-07T14:25:57Z</time>
      </trkpt>
      <trkpt lat="47.86253" lon="-3.70149">
        <ele>70.1</ele>
        <time>2020-06-07T14:25:58Z</time>
      </trkpt>
      <trkpt lat="47.86255" lon="-3.70151">
        <ele>70.2</ele>
        <time>2020-06-07T14:25:59Z</time>
      </trkpt>
      <trkpt lat="47.86259" lon="-3.70154">
        <ele>70.4</ele>
        <time>2020-06-07T14:26:00Z</time>
      </trkpt>
      <trkpt lat="47.86263" lon="-3.70156">
        <ele>70.6</ele>
        <time>2020-06-07T14:26:01Z</time>
      </trkpt>
      <trkpt lat="47.86266" lon="-3.70158">
        <ele>70.7</ele>
        <time>2020-06-07T14:26:02Z</time>
      </trkpt>
      <trkpt lat="47.8627" lon="-3.70161">
        <ele>70.9</ele>
        <time>2020-06-07T14:26:03Z</time>
      </trkpt>
      <trkpt lat="47.86274" lon="-3.70162">
        <ele>71</ele>
        <time>2020-06-07T14:26:04Z</time>
      </trkpt>
      <trkpt lat="47.86278" lon="-3.70165">
        <ele>71.2</ele>
        <time>2020-06-07T14:26:05Z</time>
      </trkpt>
      <trkpt lat="47.86283" lon="-3.70166">
        <ele>71.4</ele>
        <time>2020-06-07T14:26:06Z</time>
      </trkpt>
      <trkpt lat="47.86288" lon="-3.70168">
        <ele>71.6</ele>
        <time>2020-06-07T14:26:07Z</time>
      </trkpt>
      <trkpt lat="47.86292" lon="-3.70171">
        <ele>71.8</ele>
        <time>2020-06-07T14:26:08Z</time>
      </trkpt>
      <trkpt lat="47.86296" lon="-3.70174">
        <ele>72</ele>
        <time>2020-06-07T14:26:09Z</time>
      </trkpt>
      <trkpt lat="47.863" lon="-3.70176">
        <ele>72.2</ele>
        <time>2020-06-07T14:26:10Z</time>
      </trkpt>
      <trkpt lat="47.86304" lon="-3.70179">
        <ele>72.4</ele>
        <time>2020-06-07T14:26:11Z</time>
      </trkpt>
      <trkpt lat="47.86308" lon="-3.7018">
        <ele>72.5</ele>
        <time>2020-06-07T14:26:12Z</time>
      </trkpt>
      <trkpt lat="47.86312" lon="-3.70183">
        <ele>72.7</ele>
        <time>2020-06-07T14:26:13Z</time>
      </trkpt>
      <trkpt lat="47.86316" lon="-3.70185">
        <ele>72.9</ele>
        <time>2020-06-07T14:26:14Z</time>
      </trkpt>
      <trkpt lat="47.8632" lon="-3.70187">
        <ele>73.1</ele>
        <time>2020-06-07T14:26:15Z</time>
      </trkpt>
      <trkpt lat="47.86325" lon="-3.70189">
        <ele>73.3</ele>
        <time>2020-06-07T14:26:16Z</time>
      </trkpt>
      <trkpt lat="47.86328" lon="-3.7019">
        <ele>73.4</ele>
        <time>2020-06-07T14:26:17Z</time>
      </trkpt>
      <trkpt lat="47.86331" lon="-3.70192">
        <ele>73.5</ele>
        <time>2020-06-07T14:26:18Z</time>
      </trkpt>
      <trkpt lat="47.86335" lon="-3.70194">
        <ele>73.7</ele>
        <time>2020-06-07T14:26:19Z</time>
      </trkpt>
      <trkpt lat="47.86339" lon="-3.70195">
        <ele>73.8</ele>
        <time>2020-06-07T14:26:20Z</time>
      </trkpt>
      <trkpt lat="47.86343" lon="-3.70197">
        <ele>74</ele>
        <time>2020-06-07T14:26:21Z</time>
      </trkpt>
      <trkpt lat="47.86347" lon="-3.70199">
        <ele>74.2</ele>
        <time>2020-06-07T14:26:22Z</time>
      </trkpt>
      <trkpt lat="47.86351" lon="-3.702">
        <ele>74.3</ele>
        <time>2020-06-07T14:26:23Z</time>
      </trkpt>
      <trkpt lat="47.86356" lon="-3.70201">
        <ele>74.5</ele>
        <time>2020-06-07T14:26:24Z</time>
      </trkpt>
      <trkpt lat="47.86359" lon="-3.70203">
        <ele>74.7</ele>
        <time>2020-06-07T14:26:25Z</time>
      </trkpt>
      <trkpt lat="47.86363" lon="-3.70205">
        <ele>74.8</ele>
        <time>2020-06-07T14:26:26Z</time>
      </trkpt>
      <trkpt lat="47.86367" lon="-3.70207">
        <ele>75</ele>
        <time>2020-06-07T14:26:27Z</time>
      </trkpt>
      <trkpt lat="47.86371" lon="-3.70209">
        <ele>75.1</ele>
        <time>2020-06-07T14:26:28Z</time>
      </trkpt>
      <trkpt lat="47.86375" lon="-3.70211">
        <ele>75.2</ele>
        <time>2020-06-07T14:26:29Z</time>
      </trkpt>
      <trkpt lat="47.86378" lon="-3.70213">
        <ele>75.4</ele>
        <time>2020-06-07T14:26:30Z</time>
      </trkpt>
      <trkpt lat="47.86382" lon="-3.70214">
        <ele>75.5</ele>
        <time>2020-06-07T14:26:31Z</time>
      </trkpt>
      <trkpt lat="47.86385" lon="-3.70215">
        <ele>75.6</ele>
        <time>2020-06-07T14:26:32Z</time>
      </trkpt>
      <trkpt lat="47.86389" lon="-3.70217">
        <ele>75.8</ele>
        <time>2020-06-07T14:26:33Z</time>
      </trkpt>
      <trkpt lat="47.86393" lon="-3.70219">
        <ele>75.9</ele>
        <time>2020-06-07T14:26:34Z</time>
      </trkpt>
      <trkpt lat="47.86396" lon="-3.70221">
        <ele>76</ele>
        <time>2020-06-07T14:26:35Z</time>
      </trkpt>
      <trkpt lat="47.864" lon="-3.70223">
        <ele>76.2</ele>
        <time>2020-06-07T14:26:36Z</time>
      </trkpt>
      <trkpt lat="47.86404" lon="-3.70226">
        <ele>76.3</ele>
        <time>2020-06-07T14:26:37Z</time>
      </trkpt>
      <trkpt lat="47.86408" lon="-3.70228">
        <ele>76.5</ele>
        <time>2020-06-07T14:26:38Z</time>
      </trkpt>
      <trkpt lat="47.86411" lon="-3.7023">
        <ele>76.6</ele>
        <time>2020-06-07T14:26:39Z</time>
      </trkpt>
      <trkpt lat="47.86415" lon="-3.70231">
        <ele>76.7</ele>
        <time>2020-06-07T14:26:40Z</time>
      </trkpt>
      <trkpt lat="47.86418" lon="-3.70232">
        <ele>76.8</ele>
        <time>2020-06-07T14:26:41Z</time>
      </trkpt>
      <trkpt lat="47.86421" lon="-3.70234">
        <ele>76.9</ele>
        <time>2020-06-07T14:26:42Z</time>
      </trkpt>
      <trkpt lat="47.86425" lon="-3.70236">
        <ele>77</ele>
        <time>2020-06-07T14:26:43Z</time>
      </trkpt>
      <trkpt lat="47.86428" lon="-3.70237">
        <ele>77.1</ele>
        <time>2020-06-07T14:26:44Z</time>
      </trkpt>
      <trkpt lat="47.86431" lon="-3.70239">
        <ele>77.2</ele>
        <time>2020-06-07T14:26:45Z</time>
      </trkpt>
      <trkpt lat="47.86434" lon="-3.7024">
        <ele>77.3</ele>
        <time>2020-06-07T14:26:46Z</time>
      </trkpt>
      <trkpt lat="47.86437" lon="-3.70242">
        <ele>77.4</ele>
        <time>2020-06-07T14:26:47Z</time>
      </trkpt>
      <trkpt lat="47.8644" lon="-3.70244">
        <ele>77.5</ele>
        <time>2020-06-07T14:26:48Z</time>
      </trkpt>
      <trkpt lat="47.86443" lon="-3.70246">
        <ele>77.5</ele>
        <time>2020-06-07T14:26:49Z</time>
      </trkpt>
      <trkpt lat="47.86446" lon="-3.70248">
        <ele>77.6</ele>
        <time>2020-06-07T14:26:50Z</time>
      </trkpt>
      <trkpt lat="47.86449" lon="-3.7025">
        <ele>77.6</ele>
        <time>2020-06-07T14:26:51Z</time>
      </trkpt>
      <trkpt lat="47.86452" lon="-3.70251">
        <ele>77.7</ele>
        <time>2020-06-07T14:26:52Z</time>
      </trkpt>
      <trkpt lat="47.86456" lon="-3.70253">
        <ele>77.7</ele>
        <time>2020-06-07T14:26:53Z</time>
      </trkpt>
      <trkpt lat="47.8646" lon="-3.70254">
        <ele>77.8</ele>
        <time>2020-06-07T14:26:54Z</time>
      </trkpt>
      <trkpt lat="47.86464" lon="-3.70256">
        <ele>77.8</ele>
        <time>2020-06-07T14:26:55Z</time>
      </trkpt>
      <trkpt lat="47.86468" lon="-3.70258">
        <ele>77.8</ele>
        <time>2020-06-07T14:26:56Z</time>
      </trkpt>
      <trkpt lat="47.86472" lon="-3.70259">
        <ele>77.9</ele>
        <time>2020-06-07T14:26:57Z</time>
      </trkpt>
      <trkpt lat="47.86476" lon="-3.70261">
        <ele>77.9</ele>
        <time>2020-06-07T14:26:58Z</time>
      </trkpt>
      <trkpt lat="47.86481" lon="-3.70262">
        <ele>78</ele>
        <time>2020-06-07T14:26:59Z</time>
      </trkpt>
      <trkpt lat="47.86485" lon="-3.70265">
        <ele>78.1</ele>
        <time>2020-06-07T14:27:00Z</time>
      </trkpt>
      <trkpt lat="47.8649" lon="-3.70267">
        <ele>78.1</ele>
        <time>2020-06-07T14:27:01Z</time>
      </trkpt>
      <trkpt lat="47.86494" lon="-3.7027">
        <ele>78.1</ele>
        <time>2020-06-07T14:27:02Z</time>
      </trkpt>
      <trkpt lat="47.86498" lon="-3.70271">
        <ele>78.2</ele>
        <time>2020-06-07T14:27:03Z</time>
      </trkpt>
      <trkpt lat="47.86502" lon="-3.70273">
        <ele>78.2</ele>
        <time>2020-06-07T14:27:04Z</time>
      </trkpt>
      <trkpt lat="47.86506" lon="-3.70276">
        <ele>78.2</ele>
        <time>2020-06-07T14:27:05Z</time>
      </trkpt>
      <trkpt lat="47.8651" lon="-3.70279">
        <ele>78.2</ele>
        <time>2020-06-07T14:27:06Z</time>
      </trkpt>
      <trkpt lat="47.86515" lon="-3.70282">
        <ele>78.3</ele>
        <time>2020-06-07T14:27:07Z</time>
      </trkpt>
      <trkpt lat="47.8652" lon="-3.70284">
        <ele>78.3</ele>
        <time>2020-06-07T14:27:08Z</time>
      </trkpt>
      <trkpt lat="47.86525" lon="-3.70287">
        <ele>78.3</ele>
        <time>2020-06-07T14:27:09Z</time>
      </trkpt>
      <trkpt lat="47.8653" lon="-3.70288">
        <ele>78.3</ele>
        <time>2020-06-07T14:27:10Z</time>
      </trkpt>
      <trkpt lat="47.86534" lon="-3.70291">
        <ele>78.3</ele>
        <time>2020-06-07T14:27:11Z</time>
      </trkpt>
      <trkpt lat="47.8654" lon="-3.70292">
        <ele>78.3</ele>
        <time>2020-06-07T14:27:12Z</time>
      </trkpt>
      <trkpt lat="47.86546" lon="-3.70295">
        <ele>78.3</ele>
        <time>2020-06-07T14:27:13Z</time>
      </trkpt>
      <trkpt lat="47.8655" lon="-3.70297">
        <ele>78.3</ele>
        <time>2020-06-07T14:27:14Z</time>
      </trkpt>
      <trkpt lat="47.86555" lon="-3.70299">
        <ele>78.3</ele>
        <time>2020-06-07T14:27:15Z</time>
      </trkpt>
      <trkpt lat="47.8656" lon="-3.70301">
        <ele>78.3</ele>
        <time>2020-06-07T14:27:16Z</time>
      </trkpt>
      <trkpt lat="47.86565" lon="-3.70302">
        <ele>78.3</ele>
        <time>2020-06-07T14:27:17Z</time>
      </trkpt>
      <trkpt lat="47.8657" lon="-3.70305">
        <ele>78.3</ele>
        <time>2020-06-07T14:27:18Z</time>
      </trkpt>
      <trkpt lat="47.86575" lon="-3.70306">
        <ele>78.3</ele>
        <time>2020-06-07T14:27:19Z</time>
      </trkpt>
      <trkpt lat="47.8658" lon="-3.70309">
        <ele>78.3</ele>
        <time>2020-06-07T14:27:20Z</time>
      </trkpt>
      <trkpt lat="47.86585" lon="-3.70311">
        <ele>78.3</ele>
        <time>2020-06-07T14:27:21Z</time>
      </trkpt>
      <trkpt lat="47.8659" lon="-3.70313">
        <ele>78.3</ele>
        <time>2020-06-07T14:27:22Z</time>
      </trkpt>
      <trkpt lat="47.86596" lon="-3.70316">
        <ele>78.3</ele>
        <time>2020-06-07T14:27:23Z</time>
      </trkpt>
      <trkpt lat="47.86601" lon="-3.70318">
        <ele>78.3</ele>
        <time>2020-06-07T14:27:24Z</time>
      </trkpt>
      <trkpt lat="47.86606" lon="-3.7032">
        <ele>78.2</ele>
        <time>2020-06-07T14:27:25Z</time>
      </trkpt>
      <trkpt lat="47.86612" lon="-3.70322">
        <ele>78.2</ele>
        <time>2020-06-07T14:27:26Z</time>
      </trkpt>
      <trkpt lat="47.86617" lon="-3.70324">
        <ele>78.2</ele>
        <time>2020-06-07T14:27:27Z</time>
      </trkpt>
      <trkpt lat="47.86622" lon="-3.70326">
        <ele>78.1</ele>
        <time>2020-06-07T14:27:28Z</time>
      </trkpt>
      <trkpt lat="47.86628" lon="-3.70327">
        <ele>78.1</ele>
        <time>2020-06-07T14:27:29Z</time>
      </trkpt>
      <trkpt lat="47.86634" lon="-3.70329">
        <ele>78</ele>
        <time>2020-06-07T14:27:30Z</time>
      </trkpt>
      <trkpt lat="47.86639" lon="-3.7033">
        <ele>77.9</ele>
        <time>2020-06-07T14:27:31Z</time>
      </trkpt>
      <trkpt lat="47.86645" lon="-3.70333">
        <ele>77.8</ele>
        <time>2020-06-07T14:27:32Z</time>
      </trkpt>
      <trkpt lat="47.8665" lon="-3.70335">
        <ele>77.8</ele>
        <time>2020-06-07T14:27:33Z</time>
      </trkpt>
      <trkpt lat="47.86656" lon="-3.70337">
        <ele>77.7</ele>
        <time>2020-06-07T14:27:34Z</time>
      </trkpt>
      <trkpt lat="47.86662" lon="-3.70339">
        <ele>77.7</ele>
        <time>2020-06-07T14:27:35Z</time>
      </trkpt>
      <trkpt lat="47.86668" lon="-3.70342">
        <ele>77.6</ele>
        <time>2020-06-07T14:27:36Z</time>
      </trkpt>
      <trkpt lat="47.86674" lon="-3.70344">
        <ele>77.6</ele>
        <time>2020-06-07T14:27:37Z</time>
      </trkpt>
      <trkpt lat="47.8668" lon="-3.70347">
        <ele>77.5</ele>
        <time>2020-06-07T14:27:38Z</time>
      </trkpt>
      <trkpt lat="47.86685" lon="-3.70348">
        <ele>77.5</ele>
        <time>2020-06-07T14:27:39Z</time>
      </trkpt>
      <trkpt lat="47.86691" lon="-3.70351">
        <ele>77.4</ele>
        <time>2020-06-07T14:27:40Z</time>
      </trkpt>
      <trkpt lat="47.86697" lon="-3.70353">
        <ele>77.3</ele>
        <time>2020-06-07T14:27:41Z</time>
      </trkpt>
      <trkpt lat="47.86702" lon="-3.70356">
        <ele>77.3</ele>
        <time>2020-06-07T14:27:42Z</time>
      </trkpt>
      <trkpt lat="47.86708" lon="-3.7036">
        <ele>77.2</ele>
        <time>2020-06-07T14:27:43Z</time>
      </trkpt>
      <trkpt lat="47.86713" lon="-3.70364">
        <ele>77.1</ele>
        <time>2020-06-07T14:27:44Z</time>
      </trkpt>
      <trkpt lat="47.86719" lon="-3.70367">
        <ele>77.1</ele>
        <time>2020-06-07T14:27:45Z</time>
      </trkpt>
      <trkpt lat="47.86724" lon="-3.70371">
        <ele>77</ele>
        <time>2020-06-07T14:27:46Z</time>
      </trkpt>
      <trkpt lat="47.86729" lon="-3.70374">
        <ele>76.9</ele>
        <time>2020-06-07T14:27:47Z</time>
      </trkpt>
      <trkpt lat="47.86735" lon="-3.70377">
        <ele>76.8</ele>
        <time>2020-06-07T14:27:48Z</time>
      </trkpt>
      <trkpt lat="47.8674" lon="-3.70381">
        <ele>76.8</ele>
        <time>2020-06-07T14:27:49Z</time>
      </trkpt>
      <trkpt lat="47.86744" lon="-3.70386">
        <ele>76.7</ele>
        <time>2020-06-07T14:27:50Z</time>
      </trkpt>
      <trkpt lat="47.86749" lon="-3.7039">
        <ele>76.7</ele>
        <time>2020-06-07T14:27:51Z</time>
      </trkpt>
      <trkpt lat="47.86755" lon="-3.70394">
        <ele>76.6</ele>
        <time>2020-06-07T14:27:52Z</time>
      </trkpt>
      <trkpt lat="47.8676" lon="-3.70397">
        <ele>76.6</ele>
        <time>2020-06-07T14:27:53Z</time>
      </trkpt>
      <trkpt lat="47.86764" lon="-3.70399">
        <ele>76.6</ele>
        <time>2020-06-07T14:27:54Z</time>
      </trkpt>
      <trkpt lat="47.86768" lon="-3.70398">
        <ele>76.5</ele>
        <time>2020-06-07T14:27:55Z</time>
      </trkpt>
      <trkpt lat="47.86771" lon="-3.70393">
        <ele>76.5</ele>
        <time>2020-06-07T14:27:56Z</time>
      </trkpt>
      <trkpt lat="47.86772" lon="-3.70388">
        <ele>76.5</ele>
        <time>2020-06-07T14:27:57Z</time>
      </trkpt>
      <trkpt lat="47.86773" lon="-3.70384">
        <ele>76.5</ele>
        <time>2020-06-07T14:27:58Z</time>
      </trkpt>
      <trkpt lat="47.86775" lon="-3.70379">
        <ele>76.5</ele>
        <time>2020-06-07T14:27:59Z</time>
      </trkpt>
      <trkpt lat="47.86777" lon="-3.70376">
        <ele>76.5</ele>
        <time>2020-06-07T14:28:00Z</time>
      </trkpt>
      <trkpt lat="47.86778" lon="-3.70378">
        <ele>76.5</ele>
        <time>2020-06-07T14:28:01Z</time>
      </trkpt>
      <trkpt lat="47.86778" lon="-3.7038">
        <ele>76.4</ele>
        <time>2020-06-07T14:28:02Z</time>
      </trkpt>
      <trkpt lat="47.86778" lon="-3.70382">
        <ele>76.4</ele>
        <time>2020-06-07T14:28:03Z</time>
      </trkpt>
      <trkpt lat="47.86779" lon="-3.70386">
        <ele>76.4</ele>
        <time>2020-06-07T14:28:04Z</time>
      </trkpt>
      <trkpt lat="47.8678" lon="-3.70387">
        <ele>76.4</ele>
        <time>2020-06-07T14:28:05Z</time>
      </trkpt>
      <trkpt lat="47.8678" lon="-3.70388">
        <ele>76.3</ele>
        <time>2020-06-07T14:28:06Z</time>
      </trkpt>
      <trkpt lat="47.86783" lon="-3.7039">
        <ele>76.3</ele>
        <time>2020-06-07T14:28:07Z</time>
      </trkpt>
      <trkpt lat="47.86783" lon="-3.7039">
        <ele>76.3</ele>
        <time>2020-06-07T14:28:08Z</time>
      </trkpt>
      <trkpt lat="47.86784" lon="-3.70392">
        <ele>76.2</ele>
        <time>2020-06-07T14:28:09Z</time>
      </trkpt>
      <trkpt lat="47.86786" lon="-3.70393">
        <ele>76.2</ele>
        <time>2020-06-07T14:28:10Z</time>
      </trkpt>
      <trkpt lat="47.86789" lon="-3.70393">
        <ele>76.2</ele>
        <time>2020-06-07T14:28:11Z</time>
      </trkpt>
      <trkpt lat="47.8679" lon="-3.70393">
        <ele>76.2</ele>
        <time>2020-06-07T14:28:12Z</time>
      </trkpt>
      <trkpt lat="47.86795" lon="-3.70391">
        <ele>76.1</ele>
        <time>2020-06-07T14:28:13Z</time>
      </trkpt>
      <trkpt lat="47.86801" lon="-3.70389">
        <ele>76.1</ele>
        <time>2020-06-07T14:28:14Z</time>
      </trkpt>
      <trkpt lat="47.86806" lon="-3.70388">
        <ele>76.1</ele>
        <time>2020-06-07T14:28:15Z</time>
      </trkpt>
      <trkpt lat="47.86811" lon="-3.70387">
        <ele>76.1</ele>
        <time>2020-06-07T14:28:16Z</time>
      </trkpt>
      <trkpt lat="47.86816" lon="-3.70386">
        <ele>76.1</ele>
        <time>2020-06-07T14:28:17Z</time>
      </trkpt>
      <trkpt lat="47.86821" lon="-3.70384">
        <ele>76.1</ele>
        <time>2020-06-07T14:28:18Z</time>
      </trkpt>
      <trkpt lat="47.86825" lon="-3.70381">
        <ele>76.1</ele>
        <time>2020-06-07T14:28:19Z</time>
      </trkpt>
      <trkpt lat="47.86829" lon="-3.70377">
        <ele>76.1</ele>
        <time>2020-06-07T14:28:20Z</time>
      </trkpt>
      <trkpt lat="47.86834" lon="-3.70374">
        <ele>76.1</ele>
        <time>2020-06-07T14:28:21Z</time>
      </trkpt>
      <trkpt lat="47.86838" lon="-3.70371">
        <ele>76.2</ele>
        <time>2020-06-07T14:28:22Z</time>
      </trkpt>
      <trkpt lat="47.86842" lon="-3.70367">
        <ele>76.2</ele>
        <time>2020-06-07T14:28:23Z</time>
      </trkpt>
      <trkpt lat="47.86846" lon="-3.70362">
        <ele>76.2</ele>
        <time>2020-06-07T14:28:24Z</time>
      </trkpt>
      <trkpt lat="47.86849" lon="-3.70358">
        <ele>76.3</ele>
        <time>2020-06-07T14:28:25Z</time>
      </trkpt>
      <trkpt lat="47.86854" lon="-3.70353">
        <ele>76.4</ele>
        <time>2020-06-07T14:28:26Z</time>
      </trkpt>
      <trkpt lat="47.86858" lon="-3.70349">
        <ele>76.4</ele>
        <time>2020-06-07T14:28:27Z</time>
      </trkpt>
      <trkpt lat="47.86862" lon="-3.70344">
        <ele>76.5</ele>
        <time>2020-06-07T14:28:28Z</time>
      </trkpt>
      <trkpt lat="47.86867" lon="-3.7034">
        <ele>76.5</ele>
        <time>2020-06-07T14:28:29Z</time>
      </trkpt>
      <trkpt lat="47.86871" lon="-3.70335">
        <ele>76.5</ele>
        <time>2020-06-07T14:28:30Z</time>
      </trkpt>
      <trkpt lat="47.86876" lon="-3.7033">
        <ele>76.6</ele>
        <time>2020-06-07T14:28:31Z</time>
      </trkpt>
      <trkpt lat="47.86881" lon="-3.70327">
        <ele>76.6</ele>
        <time>2020-06-07T14:28:32Z</time>
      </trkpt>
      <trkpt lat="47.86886" lon="-3.70323">
        <ele>76.7</ele>
        <time>2020-06-07T14:28:33Z</time>
      </trkpt>
      <trkpt lat="47.86891" lon="-3.70319">
        <ele>76.7</ele>
        <time>2020-06-07T14:28:34Z</time>
      </trkpt>
      <trkpt lat="47.86897" lon="-3.70315">
        <ele>76.7</ele>
        <time>2020-06-07T14:28:35Z</time>
      </trkpt>
      <trkpt lat="47.86903" lon="-3.7031">
        <ele>76.8</ele>
        <time>2020-06-07T14:28:36Z</time>
      </trkpt>
      <trkpt lat="47.86907" lon="-3.70306">
        <ele>76.8</ele>
        <time>2020-06-07T14:28:37Z</time>
      </trkpt>
      <trkpt lat="47.86913" lon="-3.70302">
        <ele>76.9</ele>
        <time>2020-06-07T14:28:38Z</time>
      </trkpt>
      <trkpt lat="47.86919" lon="-3.70297">
        <ele>76.9</ele>
        <time>2020-06-07T14:28:39Z</time>
      </trkpt>
      <trkpt lat="47.86924" lon="-3.70292">
        <ele>76.9</ele>
        <time>2020-06-07T14:28:40Z</time>
      </trkpt>
      <trkpt lat="47.86928" lon="-3.70288">
        <ele>77</ele>
        <time>2020-06-07T14:28:41Z</time>
      </trkpt>
      <trkpt lat="47.86933" lon="-3.70284">
        <ele>77</ele>
        <time>2020-06-07T14:28:42Z</time>
      </trkpt>
      <trkpt lat="47.86937" lon="-3.70277">
        <ele>77</ele>
        <time>2020-06-07T14:28:43Z</time>
      </trkpt>
      <trkpt lat="47.86942" lon="-3.70272">
        <ele>77</ele>
        <time>2020-06-07T14:28:44Z</time>
      </trkpt>
      <trkpt lat="47.86948" lon="-3.70267">
        <ele>77</ele>
        <time>2020-06-07T14:28:45Z</time>
      </trkpt>
      <trkpt lat="47.86953" lon="-3.70263">
        <ele>77</ele>
        <time>2020-06-07T14:28:46Z</time>
      </trkpt>
      <trkpt lat="47.86958" lon="-3.70258">
        <ele>77</ele>
        <time>2020-06-07T14:28:47Z</time>
      </trkpt>
      <trkpt lat="47.86962" lon="-3.70254">
        <ele>77</ele>
        <time>2020-06-07T14:28:48Z</time>
      </trkpt>
      <trkpt lat="47.86967" lon="-3.7025">
        <ele>76.9</ele>
        <time>2020-06-07T14:28:49Z</time>
      </trkpt>
      <trkpt lat="47.86972" lon="-3.70245">
        <ele>76.9</ele>
        <time>2020-06-07T14:28:50Z</time>
      </trkpt>
      <trkpt lat="47.86977" lon="-3.7024">
        <ele>76.8</ele>
        <time>2020-06-07T14:28:51Z</time>
      </trkpt>
      <trkpt lat="47.86984" lon="-3.70234">
        <ele>76.8</ele>
        <time>2020-06-07T14:28:52Z</time>
      </trkpt>
      <trkpt lat="47.8699" lon="-3.70229">
        <ele>76.7</ele>
        <time>2020-06-07T14:28:53Z</time>
      </trkpt>
      <trkpt lat="47.86996" lon="-3.70224">
        <ele>76.7</ele>
        <time>2020-06-07T14:28:54Z</time>
      </trkpt>
      <trkpt lat="47.87002" lon="-3.70219">
        <ele>76.6</ele>
        <time>2020-06-07T14:28:55Z</time>
      </trkpt>
      <trkpt lat="47.87009" lon="-3.70214">
        <ele>76.5</ele>
        <time>2020-06-07T14:28:56Z</time>
      </trkpt>
      <trkpt lat="47.87015" lon="-3.70208">
        <ele>76.4</ele>
        <time>2020-06-07T14:28:57Z</time>
      </trkpt>
      <trkpt lat="47.87022" lon="-3.70202">
        <ele>76.3</ele>
        <time>2020-06-07T14:28:58Z</time>
      </trkpt>
      <trkpt lat="47.87028" lon="-3.70195">
        <ele>76.2</ele>
        <time>2020-06-07T14:28:59Z</time>
      </trkpt>
      <trkpt lat="47.87034" lon="-3.70189">
        <ele>76.2</ele>
        <time>2020-06-07T14:29:00Z</time>
      </trkpt>
      <trkpt lat="47.8704" lon="-3.70182">
        <ele>76.1</ele>
        <time>2020-06-07T14:29:01Z</time>
      </trkpt>
      <trkpt lat="47.87047" lon="-3.70175">
        <ele>76</ele>
        <time>2020-06-07T14:29:02Z</time>
      </trkpt>
      <trkpt lat="47.87052" lon="-3.70167">
        <ele>75.9</ele>
        <time>2020-06-07T14:29:03Z</time>
      </trkpt>
      <trkpt lat="47.87058" lon="-3.70159">
        <ele>75.9</ele>
        <time>2020-06-07T14:29:04Z</time>
      </trkpt>
      <trkpt lat="47.87063" lon="-3.70152">
        <ele>75.8</ele>
        <time>2020-06-07T14:29:05Z</time>
      </trkpt>
      <trkpt lat="47.87069" lon="-3.70143">
        <ele>75.8</ele>
        <time>2020-06-07T14:29:06Z</time>
      </trkpt>
      <trkpt lat="47.87074" lon="-3.70136">
        <ele>75.7</ele>
        <time>2020-06-07T14:29:07Z</time>
      </trkpt>
      <trkpt lat="47.87079" lon="-3.70127">
        <ele>75.6</ele>
        <time>2020-06-07T14:29:08Z</time>
      </trkpt>
      <trkpt lat="47.87085" lon="-3.70119">
        <ele>75.6</ele>
        <time>2020-06-07T14:29:09Z</time>
      </trkpt>
      <trkpt lat="47.8709" lon="-3.70111">
        <ele>75.6</ele>
        <time>2020-06-07T14:29:10Z</time>
      </trkpt>
      <trkpt lat="47.87094" lon="-3.70103">
        <ele>75.6</ele>
        <time>2020-06-07T14:29:11Z</time>
      </trkpt>
      <trkpt lat="47.871" lon="-3.70095">
        <ele>75.6</ele>
        <time>2020-06-07T14:29:12Z</time>
      </trkpt>
      <trkpt lat="47.87105" lon="-3.70087">
        <ele>75.6</ele>
        <time>2020-06-07T14:29:13Z</time>
      </trkpt>
      <trkpt lat="47.8711" lon="-3.70079">
        <ele>75.6</ele>
        <time>2020-06-07T14:29:14Z</time>
      </trkpt>
      <trkpt lat="47.87115" lon="-3.70071">
        <ele>75.6</ele>
        <time>2020-06-07T14:29:15Z</time>
      </trkpt>
      <trkpt lat="47.8712" lon="-3.70063">
        <ele>75.7</ele>
        <time>2020-06-07T14:29:16Z</time>
      </trkpt>
      <trkpt lat="47.87124" lon="-3.70056">
        <ele>75.7</ele>
        <time>2020-06-07T14:29:17Z</time>
      </trkpt>
      <trkpt lat="47.87128" lon="-3.70048">
        <ele>75.7</ele>
        <time>2020-06-07T14:29:18Z</time>
      </trkpt>
      <trkpt lat="47.87133" lon="-3.70042">
        <ele>75.7</ele>
        <time>2020-06-07T14:29:19Z</time>
      </trkpt>
      <trkpt lat="47.87138" lon="-3.70036">
        <ele>75.7</ele>
        <time>2020-06-07T14:29:20Z</time>
      </trkpt>
      <trkpt lat="47.87142" lon="-3.7003">
        <ele>75.8</ele>
        <time>2020-06-07T14:29:21Z</time>
      </trkpt>
      <trkpt lat="47.87148" lon="-3.70025">
        <ele>75.8</ele>
        <time>2020-06-07T14:29:22Z</time>
      </trkpt>
      <trkpt lat="47.87153" lon="-3.7002">
        <ele>75.9</ele>
        <time>2020-06-07T14:29:23Z</time>
      </trkpt>
      <trkpt lat="47.87158" lon="-3.70014">
        <ele>76</ele>
        <time>2020-06-07T14:29:24Z</time>
      </trkpt>
      <trkpt lat="47.87164" lon="-3.70008">
        <ele>76</ele>
        <time>2020-06-07T14:29:25Z</time>
      </trkpt>
      <trkpt lat="47.8717" lon="-3.70003">
        <ele>76</ele>
        <time>2020-06-07T14:29:26Z</time>
      </trkpt>
      <trkpt lat="47.87176" lon="-3.69998">
        <ele>76.1</ele>
        <time>2020-06-07T14:29:27Z</time>
      </trkpt>
      <trkpt lat="47.87183" lon="-3.69994">
        <ele>76.1</ele>
        <time>2020-06-07T14:29:28Z</time>
      </trkpt>
      <trkpt lat="47.87189" lon="-3.6999">
        <ele>76.1</ele>
        <time>2020-06-07T14:29:29Z</time>
      </trkpt>
      <trkpt lat="47.87195" lon="-3.69987">
        <ele>76.2</ele>
        <time>2020-06-07T14:29:30Z</time>
      </trkpt>
      <trkpt lat="47.87201" lon="-3.69983">
        <ele>76.3</ele>
        <time>2020-06-07T14:29:31Z</time>
      </trkpt>
      <trkpt lat="47.87208" lon="-3.6998">
        <ele>76.3</ele>
        <time>2020-06-07T14:29:32Z</time>
      </trkpt>
      <trkpt lat="47.87214" lon="-3.69977">
        <ele>76.4</ele>
        <time>2020-06-07T14:29:33Z</time>
      </trkpt>
      <trkpt lat="47.8722" lon="-3.69974">
        <ele>76.4</ele>
        <time>2020-06-07T14:29:34Z</time>
      </trkpt>
      <trkpt lat="47.87226" lon="-3.69972">
        <ele>76.5</ele>
        <time>2020-06-07T14:29:35Z</time>
      </trkpt>
      <trkpt lat="47.87232" lon="-3.69969">
        <ele>76.6</ele>
        <time>2020-06-07T14:29:36Z</time>
      </trkpt>
      <trkpt lat="47.87238" lon="-3.69967">
        <ele>76.6</ele>
        <time>2020-06-07T14:29:37Z</time>
      </trkpt>
      <trkpt lat="47.87244" lon="-3.69965">
        <ele>76.7</ele>
        <time>2020-06-07T14:29:38Z</time>
      </trkpt>
      <trkpt lat="47.8725" lon="-3.69963">
        <ele>76.7</ele>
        <time>2020-06-07T14:29:39Z</time>
      </trkpt>
      <trkpt lat="47.87256" lon="-3.69961">
        <ele>76.8</ele>
        <time>2020-06-07T14:29:40Z</time>
      </trkpt>
      <trkpt lat="47.87262" lon="-3.69962">
        <ele>76.8</ele>
        <time>2020-06-07T14:29:41Z</time>
      </trkpt>
      <trkpt lat="47.87268" lon="-3.69962">
        <ele>76.9</ele>
        <time>2020-06-07T14:29:42Z</time>
      </trkpt>
      <trkpt lat="47.87274" lon="-3.69961">
        <ele>76.9</ele>
        <time>2020-06-07T14:29:43Z</time>
      </trkpt>
      <trkpt lat="47.8728" lon="-3.69958">
        <ele>77</ele>
        <time>2020-06-07T14:29:44Z</time>
      </trkpt>
      <trkpt lat="47.87286" lon="-3.69956">
        <ele>77.1</ele>
        <time>2020-06-07T14:29:45Z</time>
      </trkpt>
      <trkpt lat="47.87292" lon="-3.69954">
        <ele>77.1</ele>
        <time>2020-06-07T14:29:46Z</time>
      </trkpt>
      <trkpt lat="47.87299" lon="-3.69953">
        <ele>77.2</ele>
        <time>2020-06-07T14:29:47Z</time>
      </trkpt>
      <trkpt lat="47.87306" lon="-3.69952">
        <ele>77.2</ele>
        <time>2020-06-07T14:29:48Z</time>
      </trkpt>
      <trkpt lat="47.87312" lon="-3.69951">
        <ele>77.3</ele>
        <time>2020-06-07T14:29:49Z</time>
      </trkpt>
      <trkpt lat="47.87318" lon="-3.6995">
        <ele>77.3</ele>
        <time>2020-06-07T14:29:50Z</time>
      </trkpt>
      <trkpt lat="47.87325" lon="-3.69949">
        <ele>77.3</ele>
        <time>2020-06-07T14:29:51Z</time>
      </trkpt>
      <trkpt lat="47.87331" lon="-3.69948">
        <ele>77.3</ele>
        <time>2020-06-07T14:29:52Z</time>
      </trkpt>
      <trkpt lat="47.87337" lon="-3.69947">
        <ele>77.3</ele>
        <time>2020-06-07T14:29:53Z</time>
      </trkpt>
      <trkpt lat="47.87344" lon="-3.69945">
        <ele>77.3</ele>
        <time>2020-06-07T14:29:54Z</time>
      </trkpt>
      <trkpt lat="47.8735" lon="-3.69944">
        <ele>77.3</ele>
        <time>2020-06-07T14:29:55Z</time>
      </trkpt>
      <trkpt lat="47.87356" lon="-3.69942">
        <ele>77.3</ele>
        <time>2020-06-07T14:29:56Z</time>
      </trkpt>
      <trkpt lat="47.87361" lon="-3.69941">
        <ele>77.3</ele>
        <time>2020-06-07T14:29:57Z</time>
      </trkpt>
      <trkpt lat="47.87368" lon="-3.69939">
        <ele>77.2</ele>
        <time>2020-06-07T14:29:58Z</time>
      </trkpt>
      <trkpt lat="47.87376" lon="-3.69937">
        <ele>77.2</ele>
        <time>2020-06-07T14:29:59Z</time>
      </trkpt>
      <trkpt lat="47.87384" lon="-3.69935">
        <ele>77.2</ele>
        <time>2020-06-07T14:30:00Z</time>
      </trkpt>
      <trkpt lat="47.8739" lon="-3.69934">
        <ele>77.2</ele>
        <time>2020-06-07T14:30:01Z</time>
      </trkpt>
      <trkpt lat="47.87396" lon="-3.69933">
        <ele>77.2</ele>
        <time>2020-06-07T14:30:02Z</time>
      </trkpt>
      <trkpt lat="47.87402" lon="-3.69932">
        <ele>77.3</ele>
        <time>2020-06-07T14:30:03Z</time>
      </trkpt>
      <trkpt lat="47.87408" lon="-3.69931">
        <ele>77.3</ele>
        <time>2020-06-07T14:30:04Z</time>
      </trkpt>
      <trkpt lat="47.87413" lon="-3.6993">
        <ele>77.4</ele>
        <time>2020-06-07T14:30:05Z</time>
      </trkpt>
      <trkpt lat="47.87418" lon="-3.69929">
        <ele>77.4</ele>
        <time>2020-06-07T14:30:06Z</time>
      </trkpt>
      <trkpt lat="47.87423" lon="-3.69927">
        <ele>77.5</ele>
        <time>2020-06-07T14:30:07Z</time>
      </trkpt>
      <trkpt lat="47.8743" lon="-3.69926">
        <ele>77.5</ele>
        <time>2020-06-07T14:30:08Z</time>
      </trkpt>
      <trkpt lat="47.87435" lon="-3.69925">
        <ele>77.5</ele>
        <time>2020-06-07T14:30:09Z</time>
      </trkpt>
      <trkpt lat="47.8744" lon="-3.69923">
        <ele>77.5</ele>
        <time>2020-06-07T14:30:10Z</time>
      </trkpt>
      <trkpt lat="47.87447" lon="-3.69922">
        <ele>77.4</ele>
        <time>2020-06-07T14:30:11Z</time>
      </trkpt>
      <trkpt lat="47.87454" lon="-3.69921">
        <ele>77.4</ele>
        <time>2020-06-07T14:30:12Z</time>
      </trkpt>
      <trkpt lat="47.87462" lon="-3.6992">
        <ele>77.4</ele>
        <time>2020-06-07T14:30:13Z</time>
      </trkpt>
      <trkpt lat="47.87468" lon="-3.69918">
        <ele>77.4</ele>
        <time>2020-06-07T14:30:14Z</time>
      </trkpt>
      <trkpt lat="47.87474" lon="-3.69917">
        <ele>77.4</ele>
        <time>2020-06-07T14:30:15Z</time>
      </trkpt>
      <trkpt lat="47.8748" lon="-3.69915">
        <ele>77.4</ele>
        <time>2020-06-07T14:30:16Z</time>
      </trkpt>
      <trkpt lat="47.87487" lon="-3.69914">
        <ele>77.4</ele>
        <time>2020-06-07T14:30:17Z</time>
      </trkpt>
      <trkpt lat="47.87493" lon="-3.69912">
        <ele>77.4</ele>
        <time>2020-06-07T14:30:18Z</time>
      </trkpt>
      <trkpt lat="47.87499" lon="-3.69911">
        <ele>77.3</ele>
        <time>2020-06-07T14:30:19Z</time>
      </trkpt>
      <trkpt lat="47.87504" lon="-3.6991">
        <ele>77.3</ele>
        <time>2020-06-07T14:30:20Z</time>
      </trkpt>
      <trkpt lat="47.8751" lon="-3.6991">
        <ele>77.3</ele>
        <time>2020-06-07T14:30:21Z</time>
      </trkpt>
      <trkpt lat="47.87516" lon="-3.69909">
        <ele>77.2</ele>
        <time>2020-06-07T14:30:22Z</time>
      </trkpt>
      <trkpt lat="47.87522" lon="-3.69909">
        <ele>77.2</ele>
        <time>2020-06-07T14:30:23Z</time>
      </trkpt>
      <trkpt lat="47.87529" lon="-3.69908">
        <ele>77.1</ele>
        <time>2020-06-07T14:30:24Z</time>
      </trkpt>
      <trkpt lat="47.87536" lon="-3.69906">
        <ele>77.1</ele>
        <time>2020-06-07T14:30:25Z</time>
      </trkpt>
      <trkpt lat="47.87542" lon="-3.69903">
        <ele>77</ele>
        <time>2020-06-07T14:30:26Z</time>
      </trkpt>
      <trkpt lat="47.87549" lon="-3.69901">
        <ele>77</ele>
        <time>2020-06-07T14:30:27Z</time>
      </trkpt>
      <trkpt lat="47.87556" lon="-3.699">
        <ele>77</ele>
        <time>2020-06-07T14:30:28Z</time>
      </trkpt>
      <trkpt lat="47.87565" lon="-3.69898">
        <ele>76.9</ele>
        <time>2020-06-07T14:30:29Z</time>
      </trkpt>
      <trkpt lat="47.87572" lon="-3.69896">
        <ele>76.9</ele>
        <time>2020-06-07T14:30:30Z</time>
      </trkpt>
      <trkpt lat="47.8758" lon="-3.69895">
        <ele>77</ele>
        <time>2020-06-07T14:30:31Z</time>
      </trkpt>
      <trkpt lat="47.87588" lon="-3.69892">
        <ele>77</ele>
        <time>2020-06-07T14:30:32Z</time>
      </trkpt>
      <trkpt lat="47.87596" lon="-3.69891">
        <ele>77.1</ele>
        <time>2020-06-07T14:30:33Z</time>
      </trkpt>
      <trkpt lat="47.87603" lon="-3.69889">
        <ele>77.2</ele>
        <time>2020-06-07T14:30:34Z</time>
      </trkpt>
      <trkpt lat="47.8761" lon="-3.69888">
        <ele>77.2</ele>
        <time>2020-06-07T14:30:35Z</time>
      </trkpt>
      <trkpt lat="47.87616" lon="-3.69886">
        <ele>77.3</ele>
        <time>2020-06-07T14:30:36Z</time>
      </trkpt>
      <trkpt lat="47.87622" lon="-3.69884">
        <ele>77.4</ele>
        <time>2020-06-07T14:30:37Z</time>
      </trkpt>
      <trkpt lat="47.87628" lon="-3.69884">
        <ele>77.5</ele>
        <time>2020-06-07T14:30:38Z</time>
      </trkpt>
      <trkpt lat="47.87634" lon="-3.69883">
        <ele>77.6</ele>
        <time>2020-06-07T14:30:39Z</time>
      </trkpt>
      <trkpt lat="47.87639" lon="-3.69882">
        <ele>77.7</ele>
        <time>2020-06-07T14:30:40Z</time>
      </trkpt>
      <trkpt lat="47.87644" lon="-3.69881">
        <ele>77.7</ele>
        <time>2020-06-07T14:30:41Z</time>
      </trkpt>
      <trkpt lat="47.87649" lon="-3.69879">
        <ele>77.8</ele>
        <time>2020-06-07T14:30:42Z</time>
      </trkpt>
      <trkpt lat="47.87655" lon="-3.69879">
        <ele>77.9</ele>
        <time>2020-06-07T14:30:43Z</time>
      </trkpt>
      <trkpt lat="47.8766" lon="-3.69879">
        <ele>78</ele>
        <time>2020-06-07T14:30:44Z</time>
      </trkpt>
      <trkpt lat="47.87665" lon="-3.69878">
        <ele>78.1</ele>
        <time>2020-06-07T14:30:45Z</time>
      </trkpt>
      <trkpt lat="47.8767" lon="-3.69878">
        <ele>78.2</ele>
        <time>2020-06-07T14:30:46Z</time>
      </trkpt>
      <trkpt lat="47.87675" lon="-3.69877">
        <ele>78.4</ele>
        <time>2020-06-07T14:30:47Z</time>
      </trkpt>
      <trkpt lat="47.87679" lon="-3.69875">
        <ele>78.5</ele>
        <time>2020-06-07T14:30:48Z</time>
      </trkpt>
      <trkpt lat="47.87687" lon="-3.69874">
        <ele>78.6</ele>
        <time>2020-06-07T14:30:49Z</time>
      </trkpt>
      <trkpt lat="47.87693" lon="-3.69872">
        <ele>78.7</ele>
        <time>2020-06-07T14:30:50Z</time>
      </trkpt>
      <trkpt lat="47.87701" lon="-3.69869">
        <ele>78.8</ele>
        <time>2020-06-07T14:30:51Z</time>
      </trkpt>
      <trkpt lat="47.87707" lon="-3.69866">
        <ele>78.9</ele>
        <time>2020-06-07T14:30:52Z</time>
      </trkpt>
      <trkpt lat="47.87714" lon="-3.69865">
        <ele>78.9</ele>
        <time>2020-06-07T14:30:53Z</time>
      </trkpt>
      <trkpt lat="47.87721" lon="-3.69863">
        <ele>79</ele>
        <time>2020-06-07T14:30:54Z</time>
      </trkpt>
      <trkpt lat="47.87727" lon="-3.69861">
        <ele>78.9</ele>
        <time>2020-06-07T14:30:55Z</time>
      </trkpt>
      <trkpt lat="47.87733" lon="-3.69859">
        <ele>78.9</ele>
        <time>2020-06-07T14:30:56Z</time>
      </trkpt>
      <trkpt lat="47.8774" lon="-3.69858">
        <ele>78.8</ele>
        <time>2020-06-07T14:30:57Z</time>
      </trkpt>
      <trkpt lat="47.87746" lon="-3.69857">
        <ele>78.8</ele>
        <time>2020-06-07T14:30:58Z</time>
      </trkpt>
      <trkpt lat="47.87751" lon="-3.69857">
        <ele>78.8</ele>
        <time>2020-06-07T14:30:59Z</time>
      </trkpt>
      <trkpt lat="47.87757" lon="-3.69856">
        <ele>78.8</ele>
        <time>2020-06-07T14:31:00Z</time>
      </trkpt>
      <trkpt lat="47.87763" lon="-3.69854">
        <ele>78.9</ele>
        <time>2020-06-07T14:31:01Z</time>
      </trkpt>
      <trkpt lat="47.87769" lon="-3.69853">
        <ele>78.9</ele>
        <time>2020-06-07T14:31:02Z</time>
      </trkpt>
      <trkpt lat="47.87774" lon="-3.69852">
        <ele>79</ele>
        <time>2020-06-07T14:31:03Z</time>
      </trkpt>
      <trkpt lat="47.87781" lon="-3.6985">
        <ele>79</ele>
        <time>2020-06-07T14:31:04Z</time>
      </trkpt>
      <trkpt lat="47.87786" lon="-3.69849">
        <ele>79</ele>
        <time>2020-06-07T14:31:05Z</time>
      </trkpt>
      <trkpt lat="47.87793" lon="-3.69847">
        <ele>79</ele>
        <time>2020-06-07T14:31:06Z</time>
      </trkpt>
      <trkpt lat="47.878" lon="-3.69846">
        <ele>79</ele>
        <time>2020-06-07T14:31:07Z</time>
      </trkpt>
      <trkpt lat="47.87807" lon="-3.69846">
        <ele>78.9</ele>
        <time>2020-06-07T14:31:08Z</time>
      </trkpt>
      <trkpt lat="47.87813" lon="-3.69845">
        <ele>78.9</ele>
        <time>2020-06-07T14:31:09Z</time>
      </trkpt>
      <trkpt lat="47.87819" lon="-3.69844">
        <ele>78.9</ele>
        <time>2020-06-07T14:31:10Z</time>
      </trkpt>
      <trkpt lat="47.87825" lon="-3.69843">
        <ele>78.9</ele>
        <time>2020-06-07T14:31:11Z</time>
      </trkpt>
      <trkpt lat="47.87831" lon="-3.69842">
        <ele>78.9</ele>
        <time>2020-06-07T14:31:12Z</time>
      </trkpt>
      <trkpt lat="47.87838" lon="-3.69841">
        <ele>78.9</ele>
        <time>2020-06-07T14:31:13Z</time>
      </trkpt>
      <trkpt lat="47.87845" lon="-3.6984">
        <ele>78.9</ele>
        <time>2020-06-07T14:31:14Z</time>
      </trkpt>
      <trkpt lat="47.87852" lon="-3.69838">
        <ele>78.9</ele>
        <time>2020-06-07T14:31:15Z</time>
      </trkpt>
      <trkpt lat="47.8786" lon="-3.69836">
        <ele>78.9</ele>
        <time>2020-06-07T14:31:16Z</time>
      </trkpt>
      <trkpt lat="47.87865" lon="-3.69834">
        <ele>78.9</ele>
        <time>2020-06-07T14:31:17Z</time>
      </trkpt>
      <trkpt lat="47.87871" lon="-3.69833">
        <ele>79</ele>
        <time>2020-06-07T14:31:18Z</time>
      </trkpt>
      <trkpt lat="47.87878" lon="-3.69831">
        <ele>79.1</ele>
        <time>2020-06-07T14:31:19Z</time>
      </trkpt>
      <trkpt lat="47.87884" lon="-3.69831">
        <ele>79.2</ele>
        <time>2020-06-07T14:31:20Z</time>
      </trkpt>
      <trkpt lat="47.87891" lon="-3.6983">
        <ele>79.3</ele>
        <time>2020-06-07T14:31:21Z</time>
      </trkpt>
      <trkpt lat="47.87897" lon="-3.69829">
        <ele>79.4</ele>
        <time>2020-06-07T14:31:22Z</time>
      </trkpt>
      <trkpt lat="47.87905" lon="-3.69828">
        <ele>79.6</ele>
        <time>2020-06-07T14:31:23Z</time>
      </trkpt>
      <trkpt lat="47.87911" lon="-3.69827">
        <ele>79.6</ele>
        <time>2020-06-07T14:31:24Z</time>
      </trkpt>
      <trkpt lat="47.87918" lon="-3.69827">
        <ele>79.7</ele>
        <time>2020-06-07T14:31:25Z</time>
      </trkpt>
      <trkpt lat="47.87924" lon="-3.69827">
        <ele>79.8</ele>
        <time>2020-06-07T14:31:26Z</time>
      </trkpt>
      <trkpt lat="47.8793" lon="-3.69827">
        <ele>79.9</ele>
        <time>2020-06-07T14:31:27Z</time>
      </trkpt>
      <trkpt lat="47.87937" lon="-3.69828">
        <ele>80</ele>
        <time>2020-06-07T14:31:28Z</time>
      </trkpt>
      <trkpt lat="47.87943" lon="-3.69828">
        <ele>80.2</ele>
        <time>2020-06-07T14:31:29Z</time>
      </trkpt>
      <trkpt lat="47.87949" lon="-3.69828">
        <ele>80.3</ele>
        <time>2020-06-07T14:31:30Z</time>
      </trkpt>
      <trkpt lat="47.87956" lon="-3.69829">
        <ele>80.4</ele>
        <time>2020-06-07T14:31:31Z</time>
      </trkpt>
      <trkpt lat="47.87962" lon="-3.6983">
        <ele>80.4</ele>
        <time>2020-06-07T14:31:32Z</time>
      </trkpt>
      <trkpt lat="47.87967" lon="-3.69831">
        <ele>80.4</ele>
        <time>2020-06-07T14:31:33Z</time>
      </trkpt>
      <trkpt lat="47.87974" lon="-3.69831">
        <ele>80.4</ele>
        <time>2020-06-07T14:31:34Z</time>
      </trkpt>
      <trkpt lat="47.87979" lon="-3.69833">
        <ele>80.4</ele>
        <time>2020-06-07T14:31:35Z</time>
      </trkpt>
      <trkpt lat="47.87984" lon="-3.69835">
        <ele>80.4</ele>
        <time>2020-06-07T14:31:36Z</time>
      </trkpt>
      <trkpt lat="47.8799" lon="-3.69837">
        <ele>80.4</ele>
        <time>2020-06-07T14:31:37Z</time>
      </trkpt>
      <trkpt lat="47.87997" lon="-3.69838">
        <ele>80.5</ele>
        <time>2020-06-07T14:31:38Z</time>
      </trkpt>
      <trkpt lat="47.88003" lon="-3.69839">
        <ele>80.6</ele>
        <time>2020-06-07T14:31:39Z</time>
      </trkpt>
      <trkpt lat="47.88009" lon="-3.69841">
        <ele>80.7</ele>
        <time>2020-06-07T14:31:40Z</time>
      </trkpt>
      <trkpt lat="47.88016" lon="-3.69842">
        <ele>80.8</ele>
        <time>2020-06-07T14:31:41Z</time>
      </trkpt>
      <trkpt lat="47.88021" lon="-3.69843">
        <ele>80.9</ele>
        <time>2020-06-07T14:31:42Z</time>
      </trkpt>
      <trkpt lat="47.88028" lon="-3.69844">
        <ele>81</ele>
        <time>2020-06-07T14:31:43Z</time>
      </trkpt>
      <trkpt lat="47.88033" lon="-3.69845">
        <ele>81.1</ele>
        <time>2020-06-07T14:31:44Z</time>
      </trkpt>
      <trkpt lat="47.88039" lon="-3.69847">
        <ele>81.2</ele>
        <time>2020-06-07T14:31:45Z</time>
      </trkpt>
      <trkpt lat="47.88045" lon="-3.69848">
        <ele>81.4</ele>
        <time>2020-06-07T14:31:46Z</time>
      </trkpt>
      <trkpt lat="47.88051" lon="-3.69849">
        <ele>81.5</ele>
        <time>2020-06-07T14:31:47Z</time>
      </trkpt>
      <trkpt lat="47.88057" lon="-3.6985">
        <ele>81.6</ele>
        <time>2020-06-07T14:31:48Z</time>
      </trkpt>
      <trkpt lat="47.88062" lon="-3.69851">
        <ele>81.7</ele>
        <time>2020-06-07T14:31:49Z</time>
      </trkpt>
      <trkpt lat="47.88066" lon="-3.69851">
        <ele>81.8</ele>
        <time>2020-06-07T14:31:50Z</time>
      </trkpt>
      <trkpt lat="47.88071" lon="-3.69852">
        <ele>81.9</ele>
        <time>2020-06-07T14:31:51Z</time>
      </trkpt>
      <trkpt lat="47.88075" lon="-3.69852">
        <ele>81.9</ele>
        <time>2020-06-07T14:31:52Z</time>
      </trkpt>
      <trkpt lat="47.8808" lon="-3.69853">
        <ele>82</ele>
        <time>2020-06-07T14:31:53Z</time>
      </trkpt>
      <trkpt lat="47.88085" lon="-3.69854">
        <ele>82.1</ele>
        <time>2020-06-07T14:31:54Z</time>
      </trkpt>
      <trkpt lat="47.8809" lon="-3.69855">
        <ele>82.2</ele>
        <time>2020-06-07T14:31:55Z</time>
      </trkpt>
      <trkpt lat="47.88094" lon="-3.69855">
        <ele>82.3</ele>
        <time>2020-06-07T14:31:56Z</time>
      </trkpt>
      <trkpt lat="47.88098" lon="-3.69856">
        <ele>82.4</ele>
        <time>2020-06-07T14:31:57Z</time>
      </trkpt>
      <trkpt lat="47.88102" lon="-3.69857">
        <ele>82.5</ele>
        <time>2020-06-07T14:31:58Z</time>
      </trkpt>
      <trkpt lat="47.88107" lon="-3.69857">
        <ele>82.6</ele>
        <time>2020-06-07T14:31:59Z</time>
      </trkpt>
      <trkpt lat="47.88111" lon="-3.69858">
        <ele>82.8</ele>
        <time>2020-06-07T14:32:00Z</time>
      </trkpt>
      <trkpt lat="47.88116" lon="-3.69859">
        <ele>82.9</ele>
        <time>2020-06-07T14:32:01Z</time>
      </trkpt>
      <trkpt lat="47.8812" lon="-3.6986">
        <ele>82.9</ele>
        <time>2020-06-07T14:32:02Z</time>
      </trkpt>
      <trkpt lat="47.88124" lon="-3.69861">
        <ele>83</ele>
        <time>2020-06-07T14:32:03Z</time>
      </trkpt>
      <trkpt lat="47.88128" lon="-3.69862">
        <ele>83.1</ele>
        <time>2020-06-07T14:32:04Z</time>
      </trkpt>
      <trkpt lat="47.88133" lon="-3.69863">
        <ele>83.2</ele>
        <time>2020-06-07T14:32:05Z</time>
      </trkpt>
      <trkpt lat="47.88137" lon="-3.69864">
        <ele>83.3</ele>
        <time>2020-06-07T14:32:06Z</time>
      </trkpt>
      <trkpt lat="47.88141" lon="-3.69865">
        <ele>83.4</ele>
        <time>2020-06-07T14:32:07Z</time>
      </trkpt>
      <trkpt lat="47.88146" lon="-3.69866">
        <ele>83.4</ele>
        <time>2020-06-07T14:32:08Z</time>
      </trkpt>
      <trkpt lat="47.88151" lon="-3.69866">
        <ele>83.5</ele>
        <time>2020-06-07T14:32:09Z</time>
      </trkpt>
      <trkpt lat="47.88155" lon="-3.69867">
        <ele>83.6</ele>
        <time>2020-06-07T14:32:10Z</time>
      </trkpt>
      <trkpt lat="47.88159" lon="-3.69869">
        <ele>83.7</ele>
        <time>2020-06-07T14:32:11Z</time>
      </trkpt>
      <trkpt lat="47.88163" lon="-3.69871">
        <ele>83.8</ele>
        <time>2020-06-07T14:32:12Z</time>
      </trkpt>
      <trkpt lat="47.88168" lon="-3.69872">
        <ele>83.9</ele>
        <time>2020-06-07T14:32:13Z</time>
      </trkpt>
      <trkpt lat="47.88173" lon="-3.69874">
        <ele>84</ele>
        <time>2020-06-07T14:32:14Z</time>
      </trkpt>
      <trkpt lat="47.88177" lon="-3.69876">
        <ele>84.1</ele>
        <time>2020-06-07T14:32:15Z</time>
      </trkpt>
      <trkpt lat="47.88181" lon="-3.69877">
        <ele>84.2</ele>
        <time>2020-06-07T14:32:16Z</time>
      </trkpt>
      <trkpt lat="47.88185" lon="-3.69878">
        <ele>84.3</ele>
        <time>2020-06-07T14:32:17Z</time>
      </trkpt>
      <trkpt lat="47.88189" lon="-3.69881">
        <ele>84.4</ele>
        <time>2020-06-07T14:32:18Z</time>
      </trkpt>
      <trkpt lat="47.88193" lon="-3.69883">
        <ele>84.5</ele>
        <time>2020-06-07T14:32:19Z</time>
      </trkpt>
      <trkpt lat="47.88197" lon="-3.69884">
        <ele>84.6</ele>
        <time>2020-06-07T14:32:20Z</time>
      </trkpt>
      <trkpt lat="47.88201" lon="-3.69886">
        <ele>84.7</ele>
        <time>2020-06-07T14:32:21Z</time>
      </trkpt>
      <trkpt lat="47.88205" lon="-3.69888">
        <ele>84.8</ele>
        <time>2020-06-07T14:32:22Z</time>
      </trkpt>
      <trkpt lat="47.88209" lon="-3.69889">
        <ele>84.9</ele>
        <time>2020-06-07T14:32:23Z</time>
      </trkpt>
      <trkpt lat="47.88212" lon="-3.69891">
        <ele>85</ele>
        <time>2020-06-07T14:32:24Z</time>
      </trkpt>
      <trkpt lat="47.88217" lon="-3.69893">
        <ele>85.1</ele>
        <time>2020-06-07T14:32:25Z</time>
      </trkpt>
      <trkpt lat="47.88222" lon="-3.69894">
        <ele>85.2</ele>
        <time>2020-06-07T14:32:26Z</time>
      </trkpt>
      <trkpt lat="47.88226" lon="-3.69895">
        <ele>85.2</ele>
        <time>2020-06-07T14:32:27Z</time>
      </trkpt>
      <trkpt lat="47.8823" lon="-3.69896">
        <ele>85.3</ele>
        <time>2020-06-07T14:32:28Z</time>
      </trkpt>
      <trkpt lat="47.88236" lon="-3.69897">
        <ele>85.4</ele>
        <time>2020-06-07T14:32:29Z</time>
      </trkpt>
      <trkpt lat="47.8824" lon="-3.69899">
        <ele>85.5</ele>
        <time>2020-06-07T14:32:30Z</time>
      </trkpt>
      <trkpt lat="47.88244" lon="-3.69901">
        <ele>85.6</ele>
        <time>2020-06-07T14:32:31Z</time>
      </trkpt>
      <trkpt lat="47.88248" lon="-3.69902">
        <ele>85.7</ele>
        <time>2020-06-07T14:32:32Z</time>
      </trkpt>
      <trkpt lat="47.88253" lon="-3.69903">
        <ele>85.8</ele>
        <time>2020-06-07T14:32:33Z</time>
      </trkpt>
      <trkpt lat="47.88257" lon="-3.69902">
        <ele>85.9</ele>
        <time>2020-06-07T14:32:34Z</time>
      </trkpt>
      <trkpt lat="47.88261" lon="-3.69902">
        <ele>86</ele>
        <time>2020-06-07T14:32:35Z</time>
      </trkpt>
      <trkpt lat="47.88264" lon="-3.69901">
        <ele>86</ele>
        <time>2020-06-07T14:32:36Z</time>
      </trkpt>
      <trkpt lat="47.88267" lon="-3.69898">
        <ele>86</ele>
        <time>2020-06-07T14:32:37Z</time>
      </trkpt>
      <trkpt lat="47.8827" lon="-3.69895">
        <ele>86.1</ele>
        <time>2020-06-07T14:32:38Z</time>
      </trkpt>
      <trkpt lat="47.88274" lon="-3.69892">
        <ele>86.1</ele>
        <time>2020-06-07T14:32:39Z</time>
      </trkpt>
      <trkpt lat="47.88276" lon="-3.6989">
        <ele>86.2</ele>
        <time>2020-06-07T14:32:40Z</time>
      </trkpt>
      <trkpt lat="47.88279" lon="-3.69891">
        <ele>86.2</ele>
        <time>2020-06-07T14:32:41Z</time>
      </trkpt>
      <trkpt lat="47.88282" lon="-3.6989">
        <ele>86.2</ele>
        <time>2020-06-07T14:32:42Z</time>
      </trkpt>
      <trkpt lat="47.88285" lon="-3.69892">
        <ele>86.2</ele>
        <time>2020-06-07T14:32:43Z</time>
      </trkpt>
      <trkpt lat="47.88289" lon="-3.69893">
        <ele>86.2</ele>
        <time>2020-06-07T14:32:44Z</time>
      </trkpt>
      <trkpt lat="47.88291" lon="-3.69895">
        <ele>86.1</ele>
        <time>2020-06-07T14:32:45Z</time>
      </trkpt>
      <trkpt lat="47.88293" lon="-3.69898">
        <ele>86.1</ele>
        <time>2020-06-07T14:32:46Z</time>
      </trkpt>
      <trkpt lat="47.88296" lon="-3.69904">
        <ele>86.1</ele>
        <time>2020-06-07T14:32:47Z</time>
      </trkpt>
      <trkpt lat="47.88297" lon="-3.69906">
        <ele>86.1</ele>
        <time>2020-06-07T14:32:48Z</time>
      </trkpt>
      <trkpt lat="47.88298" lon="-3.69912">
        <ele>86.1</ele>
        <time>2020-06-07T14:32:49Z</time>
      </trkpt>
      <trkpt lat="47.88299" lon="-3.69916">
        <ele>86.1</ele>
        <time>2020-06-07T14:32:50Z</time>
      </trkpt>
      <trkpt lat="47.883" lon="-3.6992">
        <ele>86</ele>
        <time>2020-06-07T14:32:51Z</time>
      </trkpt>
      <trkpt lat="47.883" lon="-3.69925">
        <ele>85.9</ele>
        <time>2020-06-07T14:32:52Z</time>
      </trkpt>
      <trkpt lat="47.88302" lon="-3.69929">
        <ele>85.8</ele>
        <time>2020-06-07T14:32:53Z</time>
      </trkpt>
      <trkpt lat="47.88303" lon="-3.6993">
        <ele>85.8</ele>
        <time>2020-06-07T14:32:54Z</time>
      </trkpt>
      <trkpt lat="47.88307" lon="-3.6993">
        <ele>85.7</ele>
        <time>2020-06-07T14:32:55Z</time>
      </trkpt>
      <trkpt lat="47.8831" lon="-3.69931">
        <ele>85.6</ele>
        <time>2020-06-07T14:32:56Z</time>
      </trkpt>
      <trkpt lat="47.88313" lon="-3.69932">
        <ele>85.6</ele>
        <time>2020-06-07T14:32:57Z</time>
      </trkpt>
      <trkpt lat="47.88315" lon="-3.69934">
        <ele>85.5</ele>
        <time>2020-06-07T14:32:58Z</time>
      </trkpt>
      <trkpt lat="47.88316" lon="-3.69935">
        <ele>85.5</ele>
        <time>2020-06-07T14:32:59Z</time>
      </trkpt>
      <trkpt lat="47.88316" lon="-3.69935">
        <ele>85.5</ele>
        <time>2020-06-07T14:33:00Z</time>
      </trkpt>
      <trkpt lat="47.88317" lon="-3.69936">
        <ele>85.5</ele>
        <time>2020-06-07T14:33:01Z</time>
      </trkpt>
      <trkpt lat="47.88317" lon="-3.69937">
        <ele>85.5</ele>
        <time>2020-06-07T14:33:02Z</time>
      </trkpt>
      <trkpt lat="47.88317" lon="-3.69937">
        <ele>85.5</ele>
        <time>2020-06-07T14:33:03Z</time>
      </trkpt>
      <trkpt lat="47.88318" lon="-3.69938">
        <ele>85.4</ele>
        <time>2020-06-07T14:33:04Z</time>
      </trkpt>
      <trkpt lat="47.88318" lon="-3.69938">
        <ele>85.4</ele>
        <time>2020-06-07T14:33:05Z</time>
      </trkpt>
      <trkpt lat="47.88319" lon="-3.69939">
        <ele>85.4</ele>
        <time>2020-06-07T14:33:06Z</time>
      </trkpt>
      <trkpt lat="47.88319" lon="-3.6994">
        <ele>85.4</ele>
        <time>2020-06-07T14:33:07Z</time>
      </trkpt>
      <trkpt lat="47.8832" lon="-3.6994">
        <ele>85.4</ele>
        <time>2020-06-07T14:33:08Z</time>
      </trkpt>
      <trkpt lat="47.8832" lon="-3.69941">
        <ele>85.4</ele>
        <time>2020-06-07T14:33:09Z</time>
      </trkpt>
      <trkpt lat="47.8832" lon="-3.69941">
        <ele>85.4</ele>
        <time>2020-06-07T14:37:00Z</time>
      </trkpt>
      <trkpt lat="47.88321" lon="-3.69942">
        <ele>85.4</ele>
        <time>2020-06-07T14:37:01Z</time>
      </trkpt>
      <trkpt lat="47.88324" lon="-3.69945">
        <ele>85.3</ele>
        <time>2020-06-07T14:37:02Z</time>
      </trkpt>
      <trkpt lat="47.88328" lon="-3.69948">
        <ele>85.2</ele>
        <time>2020-06-07T14:37:03Z</time>
      </trkpt>
      <trkpt lat="47.88332" lon="-3.69952">
        <ele>85.1</ele>
        <time>2020-06-07T14:37:04Z</time>
      </trkpt>
      <trkpt lat="47.88337" lon="-3.69956">
        <ele>85</ele>
        <time>2020-06-07T14:37:05Z</time>
      </trkpt>
      <trkpt lat="47.88342" lon="-3.69959">
        <ele>84.9</ele>
        <time>2020-06-07T14:37:06Z</time>
      </trkpt>
      <trkpt lat="47.88347" lon="-3.69961">
        <ele>84.8</ele>
        <time>2020-06-07T14:37:07Z</time>
      </trkpt>
      <trkpt lat="47.88351" lon="-3.69962">
        <ele>84.8</ele>
        <time>2020-06-07T14:37:08Z</time>
      </trkpt>
      <trkpt lat="47.88356" lon="-3.69964">
        <ele>84.7</ele>
        <time>2020-06-07T14:37:09Z</time>
      </trkpt>
      <trkpt lat="47.88361" lon="-3.69965">
        <ele>84.6</ele>
        <time>2020-06-07T14:37:10Z</time>
      </trkpt>
      <trkpt lat="47.88366" lon="-3.69968">
        <ele>84.5</ele>
        <time>2020-06-07T14:37:11Z</time>
      </trkpt>
      <trkpt lat="47.88374" lon="-3.69971">
        <ele>84.3</ele>
        <time>2020-06-07T14:37:12Z</time>
      </trkpt>
      <trkpt lat="47.88382" lon="-3.69974">
        <ele>84.2</ele>
        <time>2020-06-07T14:37:13Z</time>
      </trkpt>
      <trkpt lat="47.88389" lon="-3.69977">
        <ele>84.1</ele>
        <time>2020-06-07T14:37:14Z</time>
      </trkpt>
      <trkpt lat="47.88395" lon="-3.69982">
        <ele>84</ele>
        <time>2020-06-07T14:37:15Z</time>
      </trkpt>
      <trkpt lat="47.88402" lon="-3.69985">
        <ele>83.9</ele>
        <time>2020-06-07T14:37:16Z</time>
      </trkpt>
      <trkpt lat="47.88409" lon="-3.69989">
        <ele>83.8</ele>
        <time>2020-06-07T14:37:17Z</time>
      </trkpt>
      <trkpt lat="47.88415" lon="-3.69992">
        <ele>83.6</ele>
        <time>2020-06-07T14:37:18Z</time>
      </trkpt>
      <trkpt lat="47.88423" lon="-3.69995">
        <ele>83.5</ele>
        <time>2020-06-07T14:37:19Z</time>
      </trkpt>
      <trkpt lat="47.88429" lon="-3.69997">
        <ele>83.4</ele>
        <time>2020-06-07T14:37:20Z</time>
      </trkpt>
      <trkpt lat="47.88436" lon="-3.70001">
        <ele>83.3</ele>
        <time>2020-06-07T14:37:21Z</time>
      </trkpt>
      <trkpt lat="47.88442" lon="-3.70004">
        <ele>83.2</ele>
        <time>2020-06-07T14:37:22Z</time>
      </trkpt>
      <trkpt lat="47.8845" lon="-3.70007">
        <ele>83.1</ele>
        <time>2020-06-07T14:37:23Z</time>
      </trkpt>
      <trkpt lat="47.88457" lon="-3.7001">
        <ele>83</ele>
        <time>2020-06-07T14:37:24Z</time>
      </trkpt>
      <trkpt lat="47.88464" lon="-3.70014">
        <ele>83</ele>
        <time>2020-06-07T14:37:25Z</time>
      </trkpt>
      <trkpt lat="47.8847" lon="-3.70016">
        <ele>82.9</ele>
        <time>2020-06-07T14:37:26Z</time>
      </trkpt>
      <trkpt lat="47.88477" lon="-3.70019">
        <ele>82.9</ele>
        <time>2020-06-07T14:37:27Z</time>
      </trkpt>
      <trkpt lat="47.88484" lon="-3.70022">
        <ele>82.9</ele>
        <time>2020-06-07T14:37:28Z</time>
      </trkpt>
      <trkpt lat="47.8849" lon="-3.70025">
        <ele>82.9</ele>
        <time>2020-06-07T14:37:29Z</time>
      </trkpt>
      <trkpt lat="47.88497" lon="-3.70028">
        <ele>82.9</ele>
        <time>2020-06-07T14:37:30Z</time>
      </trkpt>
      <trkpt lat="47.88504" lon="-3.7003">
        <ele>82.9</ele>
        <time>2020-06-07T14:37:31Z</time>
      </trkpt>
      <trkpt lat="47.88512" lon="-3.70033">
        <ele>82.9</ele>
        <time>2020-06-07T14:37:32Z</time>
      </trkpt>
      <trkpt lat="47.88519" lon="-3.70035">
        <ele>82.9</ele>
        <time>2020-06-07T14:37:33Z</time>
      </trkpt>
      <trkpt lat="47.88526" lon="-3.70038">
        <ele>82.9</ele>
        <time>2020-06-07T14:37:34Z</time>
      </trkpt>
      <trkpt lat="47.88533" lon="-3.7004">
        <ele>83</ele>
        <time>2020-06-07T14:37:35Z</time>
      </trkpt>
      <trkpt lat="47.8854" lon="-3.70041">
        <ele>83.1</ele>
        <time>2020-06-07T14:37:36Z</time>
      </trkpt>
      <trkpt lat="47.88547" lon="-3.70041">
        <ele>83.2</ele>
        <time>2020-06-07T14:37:37Z</time>
      </trkpt>
      <trkpt lat="47.88553" lon="-3.70042">
        <ele>83.3</ele>
        <time>2020-06-07T14:37:38Z</time>
      </trkpt>
      <trkpt lat="47.8856" lon="-3.70043">
        <ele>83.5</ele>
        <time>2020-06-07T14:37:39Z</time>
      </trkpt>
      <trkpt lat="47.88566" lon="-3.70042">
        <ele>83.6</ele>
        <time>2020-06-07T14:37:40Z</time>
      </trkpt>
      <trkpt lat="47.88572" lon="-3.70043">
        <ele>83.7</ele>
        <time>2020-06-07T14:37:41Z</time>
      </trkpt>
      <trkpt lat="47.88578" lon="-3.70044">
        <ele>83.9</ele>
        <time>2020-06-07T14:37:42Z</time>
      </trkpt>
      <trkpt lat="47.88584" lon="-3.70044">
        <ele>84</ele>
        <time>2020-06-07T14:37:43Z</time>
      </trkpt>
      <trkpt lat="47.8859" lon="-3.70043">
        <ele>84.2</ele>
        <time>2020-06-07T14:37:44Z</time>
      </trkpt>
      <trkpt lat="47.88595" lon="-3.70043">
        <ele>84.3</ele>
        <time>2020-06-07T14:37:45Z</time>
      </trkpt>
      <trkpt lat="47.88601" lon="-3.70044">
        <ele>84.5</ele>
        <time>2020-06-07T14:37:46Z</time>
      </trkpt>
      <trkpt lat="47.88607" lon="-3.70045">
        <ele>84.6</ele>
        <time>2020-06-07T14:37:47Z</time>
      </trkpt>
      <trkpt lat="47.88612" lon="-3.70043">
        <ele>84.8</ele>
        <time>2020-06-07T14:37:48Z</time>
      </trkpt>
      <trkpt lat="47.88618" lon="-3.70044">
        <ele>84.9</ele>
        <time>2020-06-07T14:37:49Z</time>
      </trkpt>
      <trkpt lat="47.88623" lon="-3.70044">
        <ele>85.2</ele>
        <time>2020-06-07T14:37:50Z</time>
      </trkpt>
      <trkpt lat="47.88628" lon="-3.70045">
        <ele>85.6</ele>
        <time>2020-06-07T14:37:51Z</time>
      </trkpt>
      <trkpt lat="47.88634" lon="-3.70046">
        <ele>85.9</ele>
        <time>2020-06-07T14:37:52Z</time>
      </trkpt>
      <trkpt lat="47.88639" lon="-3.70047">
        <ele>86.2</ele>
        <time>2020-06-07T14:37:53Z</time>
      </trkpt>
      <trkpt lat="47.88644" lon="-3.70047">
        <ele>86.4</ele>
        <time>2020-06-07T14:37:54Z</time>
      </trkpt>
      <trkpt lat="47.88649" lon="-3.70048">
        <ele>86.5</ele>
        <time>2020-06-07T14:37:55Z</time>
      </trkpt>
      <trkpt lat="47.88653" lon="-3.70049">
        <ele>86.6</ele>
        <time>2020-06-07T14:37:56Z</time>
      </trkpt>
      <trkpt lat="47.88658" lon="-3.7005">
        <ele>86.7</ele>
        <time>2020-06-07T14:37:57Z</time>
      </trkpt>
      <trkpt lat="47.88663" lon="-3.7005">
        <ele>86.8</ele>
        <time>2020-06-07T14:37:58Z</time>
      </trkpt>
      <trkpt lat="47.88667" lon="-3.7005">
        <ele>86.9</ele>
        <time>2020-06-07T14:37:59Z</time>
      </trkpt>
      <trkpt lat="47.88671" lon="-3.70051">
        <ele>87</ele>
        <time>2020-06-07T14:38:00Z</time>
      </trkpt>
      <trkpt lat="47.88675" lon="-3.7005">
        <ele>87</ele>
        <time>2020-06-07T14:38:01Z</time>
      </trkpt>
      <trkpt lat="47.8868" lon="-3.70049">
        <ele>87.1</ele>
        <time>2020-06-07T14:38:02Z</time>
      </trkpt>
      <trkpt lat="47.88684" lon="-3.70049">
        <ele>87.1</ele>
        <time>2020-06-07T14:38:03Z</time>
      </trkpt>
      <trkpt lat="47.88687" lon="-3.70049">
        <ele>87.2</ele>
        <time>2020-06-07T14:38:04Z</time>
      </trkpt>
      <trkpt lat="47.88692" lon="-3.70049">
        <ele>87.2</ele>
        <time>2020-06-07T14:38:05Z</time>
      </trkpt>
      <trkpt lat="47.88695" lon="-3.70049">
        <ele>87.2</ele>
        <time>2020-06-07T14:38:06Z</time>
      </trkpt>
      <trkpt lat="47.887" lon="-3.70049">
        <ele>87.2</ele>
        <time>2020-06-07T14:38:07Z</time>
      </trkpt>
      <trkpt lat="47.88704" lon="-3.70049">
        <ele>87.2</ele>
        <time>2020-06-07T14:38:08Z</time>
      </trkpt>
      <trkpt lat="47.88708" lon="-3.7005">
        <ele>87.2</ele>
        <time>2020-06-07T14:38:09Z</time>
      </trkpt>
      <trkpt lat="47.88713" lon="-3.70049">
        <ele>87.2</ele>
        <time>2020-06-07T14:38:10Z</time>
      </trkpt>
      <trkpt lat="47.88717" lon="-3.70049">
        <ele>87.2</ele>
        <time>2020-06-07T14:38:11Z</time>
      </trkpt>
      <trkpt lat="47.88722" lon="-3.7005">
        <ele>87.2</ele>
        <time>2020-06-07T14:38:12Z</time>
      </trkpt>
      <trkpt lat="47.88726" lon="-3.70051">
        <ele>87.2</ele>
        <time>2020-06-07T14:38:13Z</time>
      </trkpt>
      <trkpt lat="47.88731" lon="-3.70052">
        <ele>87.2</ele>
        <time>2020-06-07T14:38:14Z</time>
      </trkpt>
      <trkpt lat="47.88736" lon="-3.70052">
        <ele>87.2</ele>
        <time>2020-06-07T14:38:15Z</time>
      </trkpt>
      <trkpt lat="47.88742" lon="-3.70052">
        <ele>87.2</ele>
        <time>2020-06-07T14:38:16Z</time>
      </trkpt>
      <trkpt lat="47.88747" lon="-3.70051">
        <ele>87.2</ele>
        <time>2020-06-07T14:38:17Z</time>
      </trkpt>
      <trkpt lat="47.88754" lon="-3.70052">
        <ele>87.2</ele>
        <time>2020-06-07T14:38:18Z</time>
      </trkpt>
      <trkpt lat="47.8876" lon="-3.70053">
        <ele>87.2</ele>
        <time>2020-06-07T14:38:19Z</time>
      </trkpt>
      <trkpt lat="47.88766" lon="-3.70055">
        <ele>87.2</ele>
        <time>2020-06-07T14:38:20Z</time>
      </trkpt>
      <trkpt lat="47.88772" lon="-3.70056">
        <ele>87.2</ele>
        <time>2020-06-07T14:38:21Z</time>
      </trkpt>
      <trkpt lat="47.88778" lon="-3.70058">
        <ele>87.2</ele>
        <time>2020-06-07T14:38:22Z</time>
      </trkpt>
      <trkpt lat="47.88784" lon="-3.7006">
        <ele>87.2</ele>
        <time>2020-06-07T14:38:23Z</time>
      </trkpt>
      <trkpt lat="47.8879" lon="-3.70063">
        <ele>87</ele>
        <time>2020-06-07T14:38:24Z</time>
      </trkpt>
      <trkpt lat="47.88796" lon="-3.70065">
        <ele>86.9</ele>
        <time>2020-06-07T14:38:25Z</time>
      </trkpt>
      <trkpt lat="47.88802" lon="-3.70066">
        <ele>86.9</ele>
        <time>2020-06-07T14:38:26Z</time>
      </trkpt>
      <trkpt lat="47.88808" lon="-3.70068">
        <ele>86.8</ele>
        <time>2020-06-07T14:38:27Z</time>
      </trkpt>
      <trkpt lat="47.88814" lon="-3.70071">
        <ele>86.7</ele>
        <time>2020-06-07T14:38:28Z</time>
      </trkpt>
      <trkpt lat="47.8882" lon="-3.70073">
        <ele>86.6</ele>
        <time>2020-06-07T14:38:29Z</time>
      </trkpt>
      <trkpt lat="47.88828" lon="-3.70075">
        <ele>86.5</ele>
        <time>2020-06-07T14:38:30Z</time>
      </trkpt>
      <trkpt lat="47.88834" lon="-3.70077">
        <ele>86.4</ele>
        <time>2020-06-07T14:38:31Z</time>
      </trkpt>
      <trkpt lat="47.8884" lon="-3.70079">
        <ele>86.3</ele>
        <time>2020-06-07T14:38:32Z</time>
      </trkpt>
      <trkpt lat="47.88848" lon="-3.70081">
        <ele>86.2</ele>
        <time>2020-06-07T14:38:33Z</time>
      </trkpt>
      <trkpt lat="47.88854" lon="-3.70083">
        <ele>86.1</ele>
        <time>2020-06-07T14:38:34Z</time>
      </trkpt>
      <trkpt lat="47.88861" lon="-3.70085">
        <ele>86</ele>
        <time>2020-06-07T14:38:35Z</time>
      </trkpt>
      <trkpt lat="47.88868" lon="-3.70088">
        <ele>85.9</ele>
        <time>2020-06-07T14:38:36Z</time>
      </trkpt>
      <trkpt lat="47.88875" lon="-3.70091">
        <ele>85.9</ele>
        <time>2020-06-07T14:38:37Z</time>
      </trkpt>
      <trkpt lat="47.88881" lon="-3.70093">
        <ele>85.8</ele>
        <time>2020-06-07T14:38:38Z</time>
      </trkpt>
      <trkpt lat="47.88888" lon="-3.70095">
        <ele>85.8</ele>
        <time>2020-06-07T14:38:39Z</time>
      </trkpt>
      <trkpt lat="47.88894" lon="-3.70097">
        <ele>85.7</ele>
        <time>2020-06-07T14:38:40Z</time>
      </trkpt>
      <trkpt lat="47.88901" lon="-3.70099">
        <ele>85.7</ele>
        <time>2020-06-07T14:38:41Z</time>
      </trkpt>
      <trkpt lat="47.88908" lon="-3.70101">
        <ele>85.7</ele>
        <time>2020-06-07T14:38:42Z</time>
      </trkpt>
      <trkpt lat="47.88914" lon="-3.70103">
        <ele>85.6</ele>
        <time>2020-06-07T14:38:43Z</time>
      </trkpt>
      <trkpt lat="47.88921" lon="-3.70103">
        <ele>85.5</ele>
        <time>2020-06-07T14:38:44Z</time>
      </trkpt>
      <trkpt lat="47.88927" lon="-3.70102">
        <ele>85.4</ele>
        <time>2020-06-07T14:38:45Z</time>
      </trkpt>
      <trkpt lat="47.88933" lon="-3.70102">
        <ele>85.4</ele>
        <time>2020-06-07T14:38:46Z</time>
      </trkpt>
      <trkpt lat="47.88939" lon="-3.70103">
        <ele>85.3</ele>
        <time>2020-06-07T14:38:47Z</time>
      </trkpt>
      <trkpt lat="47.88945" lon="-3.70105">
        <ele>85.2</ele>
        <time>2020-06-07T14:38:48Z</time>
      </trkpt>
      <trkpt lat="47.8895" lon="-3.70106">
        <ele>85.2</ele>
        <time>2020-06-07T14:38:49Z</time>
      </trkpt>
      <trkpt lat="47.88957" lon="-3.70106">
        <ele>85.1</ele>
        <time>2020-06-07T14:38:50Z</time>
      </trkpt>
      <trkpt lat="47.88963" lon="-3.70106">
        <ele>85</ele>
        <time>2020-06-07T14:38:51Z</time>
      </trkpt>
      <trkpt lat="47.88969" lon="-3.70105">
        <ele>84.9</ele>
        <time>2020-06-07T14:38:52Z</time>
      </trkpt>
      <trkpt lat="47.88975" lon="-3.70106">
        <ele>84.8</ele>
        <time>2020-06-07T14:38:53Z</time>
      </trkpt>
      <trkpt lat="47.88981" lon="-3.70106">
        <ele>84.7</ele>
        <time>2020-06-07T14:38:54Z</time>
      </trkpt>
      <trkpt lat="47.88987" lon="-3.70106">
        <ele>84.6</ele>
        <time>2020-06-07T14:38:55Z</time>
      </trkpt>
      <trkpt lat="47.88993" lon="-3.70105">
        <ele>84.4</ele>
        <time>2020-06-07T14:38:56Z</time>
      </trkpt>
      <trkpt lat="47.89" lon="-3.70105">
        <ele>84.3</ele>
        <time>2020-06-07T14:38:57Z</time>
      </trkpt>
      <trkpt lat="47.89007" lon="-3.70104">
        <ele>84.1</ele>
        <time>2020-06-07T14:38:58Z</time>
      </trkpt>
      <trkpt lat="47.89014" lon="-3.70102">
        <ele>84</ele>
        <time>2020-06-07T14:38:59Z</time>
      </trkpt>
      <trkpt lat="47.89021" lon="-3.701">
        <ele>83.9</ele>
        <time>2020-06-07T14:39:00Z</time>
      </trkpt>
      <trkpt lat="47.89028" lon="-3.70098">
        <ele>83.7</ele>
        <time>2020-06-07T14:39:01Z</time>
      </trkpt>
      <trkpt lat="47.89035" lon="-3.70098">
        <ele>83.7</ele>
        <time>2020-06-07T14:39:02Z</time>
      </trkpt>
      <trkpt lat="47.89042" lon="-3.70098">
        <ele>83.5</ele>
        <time>2020-06-07T14:39:03Z</time>
      </trkpt>
      <trkpt lat="47.8905" lon="-3.70097">
        <ele>83.3</ele>
        <time>2020-06-07T14:39:04Z</time>
      </trkpt>
      <trkpt lat="47.89057" lon="-3.70096">
        <ele>83.1</ele>
        <time>2020-06-07T14:39:05Z</time>
      </trkpt>
      <trkpt lat="47.89065" lon="-3.70095">
        <ele>82.9</ele>
        <time>2020-06-07T14:39:06Z</time>
      </trkpt>
      <trkpt lat="47.89073" lon="-3.70093">
        <ele>82.8</ele>
        <time>2020-06-07T14:39:07Z</time>
      </trkpt>
      <trkpt lat="47.89081" lon="-3.70091">
        <ele>82.6</ele>
        <time>2020-06-07T14:39:08Z</time>
      </trkpt>
      <trkpt lat="47.89089" lon="-3.70089">
        <ele>82.5</ele>
        <time>2020-06-07T14:39:09Z</time>
      </trkpt>
      <trkpt lat="47.89097" lon="-3.70089">
        <ele>82.4</ele>
        <time>2020-06-07T14:39:10Z</time>
      </trkpt>
      <trkpt lat="47.89105" lon="-3.70088">
        <ele>82.2</ele>
        <time>2020-06-07T14:39:11Z</time>
      </trkpt>
      <trkpt lat="47.89113" lon="-3.70087">
        <ele>82.2</ele>
        <time>2020-06-07T14:39:12Z</time>
      </trkpt>
      <trkpt lat="47.8912" lon="-3.70087">
        <ele>82.1</ele>
        <time>2020-06-07T14:39:13Z</time>
      </trkpt>
      <trkpt lat="47.89128" lon="-3.70086">
        <ele>82.1</ele>
        <time>2020-06-07T14:39:14Z</time>
      </trkpt>
      <trkpt lat="47.89136" lon="-3.70087">
        <ele>82.1</ele>
        <time>2020-06-07T14:39:15Z</time>
      </trkpt>
      <trkpt lat="47.89143" lon="-3.70085">
        <ele>82</ele>
        <time>2020-06-07T14:39:16Z</time>
      </trkpt>
      <trkpt lat="47.89149" lon="-3.70084">
        <ele>82</ele>
        <time>2020-06-07T14:39:17Z</time>
      </trkpt>
      <trkpt lat="47.89156" lon="-3.70081">
        <ele>82</ele>
        <time>2020-06-07T14:39:18Z</time>
      </trkpt>
      <trkpt lat="47.89164" lon="-3.70081">
        <ele>82</ele>
        <time>2020-06-07T14:39:19Z</time>
      </trkpt>
      <trkpt lat="47.89171" lon="-3.70079">
        <ele>82</ele>
        <time>2020-06-07T14:39:20Z</time>
      </trkpt>
      <trkpt lat="47.89178" lon="-3.70079">
        <ele>82.1</ele>
        <time>2020-06-07T14:39:21Z</time>
      </trkpt>
      <trkpt lat="47.89185" lon="-3.70078">
        <ele>82</ele>
        <time>2020-06-07T14:39:22Z</time>
      </trkpt>
      <trkpt lat="47.89192" lon="-3.70077">
        <ele>82</ele>
        <time>2020-06-07T14:39:23Z</time>
      </trkpt>
      <trkpt lat="47.89199" lon="-3.70076">
        <ele>82</ele>
        <time>2020-06-07T14:39:24Z</time>
      </trkpt>
      <trkpt lat="47.89206" lon="-3.70075">
        <ele>82</ele>
        <time>2020-06-07T14:39:25Z</time>
      </trkpt>
      <trkpt lat="47.89213" lon="-3.70074">
        <ele>82</ele>
        <time>2020-06-07T14:39:26Z</time>
      </trkpt>
      <trkpt lat="47.8922" lon="-3.70074">
        <ele>82</ele>
        <time>2020-06-07T14:39:27Z</time>
      </trkpt>
      <trkpt lat="47.89227" lon="-3.70074">
        <ele>82</ele>
        <time>2020-06-07T14:39:28Z</time>
      </trkpt>
      <trkpt lat="47.89234" lon="-3.70073">
        <ele>82.1</ele>
        <time>2020-06-07T14:39:29Z</time>
      </trkpt>
      <trkpt lat="47.89241" lon="-3.70072">
        <ele>82.1</ele>
        <time>2020-06-07T14:39:30Z</time>
      </trkpt>
      <trkpt lat="47.89247" lon="-3.70072">
        <ele>81.9</ele>
        <time>2020-06-07T14:39:31Z</time>
      </trkpt>
      <trkpt lat="47.89253" lon="-3.70072">
        <ele>81.6</ele>
        <time>2020-06-07T14:39:32Z</time>
      </trkpt>
      <trkpt lat="47.8926" lon="-3.7007">
        <ele>81.4</ele>
        <time>2020-06-07T14:39:33Z</time>
      </trkpt>
      <trkpt lat="47.89266" lon="-3.7007">
        <ele>81.2</ele>
        <time>2020-06-07T14:39:34Z</time>
      </trkpt>
      <trkpt lat="47.89272" lon="-3.70069">
        <ele>81.1</ele>
        <time>2020-06-07T14:39:35Z</time>
      </trkpt>
      <trkpt lat="47.89279" lon="-3.70067">
        <ele>81</ele>
        <time>2020-06-07T14:39:36Z</time>
      </trkpt>
      <trkpt lat="47.89286" lon="-3.70066">
        <ele>80.9</ele>
        <time>2020-06-07T14:39:37Z</time>
      </trkpt>
      <trkpt lat="47.89293" lon="-3.70066">
        <ele>80.9</ele>
        <time>2020-06-07T14:39:38Z</time>
      </trkpt>
      <trkpt lat="47.89299" lon="-3.70065">
        <ele>80.8</ele>
        <time>2020-06-07T14:39:39Z</time>
      </trkpt>
      <trkpt lat="47.89306" lon="-3.70065">
        <ele>80.8</ele>
        <time>2020-06-07T14:39:40Z</time>
      </trkpt>
      <trkpt lat="47.89312" lon="-3.70064">
        <ele>80.8</ele>
        <time>2020-06-07T14:39:41Z</time>
      </trkpt>
      <trkpt lat="47.89319" lon="-3.70064">
        <ele>80.8</ele>
        <time>2020-06-07T14:39:42Z</time>
      </trkpt>
      <trkpt lat="47.89325" lon="-3.70064">
        <ele>80.9</ele>
        <time>2020-06-07T14:39:43Z</time>
      </trkpt>
      <trkpt lat="47.89332" lon="-3.70063">
        <ele>80.9</ele>
        <time>2020-06-07T14:39:44Z</time>
      </trkpt>
      <trkpt lat="47.89338" lon="-3.70062">
        <ele>81</ele>
        <time>2020-06-07T14:39:45Z</time>
      </trkpt>
      <trkpt lat="47.89344" lon="-3.70061">
        <ele>81</ele>
        <time>2020-06-07T14:39:46Z</time>
      </trkpt>
      <trkpt lat="47.89351" lon="-3.70059">
        <ele>81.1</ele>
        <time>2020-06-07T14:39:47Z</time>
      </trkpt>
      <trkpt lat="47.89357" lon="-3.70058">
        <ele>81.2</ele>
        <time>2020-06-07T14:39:48Z</time>
      </trkpt>
      <trkpt lat="47.89364" lon="-3.70056">
        <ele>81.3</ele>
        <time>2020-06-07T14:39:49Z</time>
      </trkpt>
      <trkpt lat="47.89371" lon="-3.70054">
        <ele>81.4</ele>
        <time>2020-06-07T14:39:50Z</time>
      </trkpt>
      <trkpt lat="47.89377" lon="-3.70053">
        <ele>81.6</ele>
        <time>2020-06-07T14:39:51Z</time>
      </trkpt>
      <trkpt lat="47.89384" lon="-3.70053">
        <ele>81.8</ele>
        <time>2020-06-07T14:39:52Z</time>
      </trkpt>
      <trkpt lat="47.8939" lon="-3.70052">
        <ele>82</ele>
        <time>2020-06-07T14:39:53Z</time>
      </trkpt>
      <trkpt lat="47.89397" lon="-3.70052">
        <ele>82.3</ele>
        <time>2020-06-07T14:39:54Z</time>
      </trkpt>
      <trkpt lat="47.89405" lon="-3.70051">
        <ele>82.6</ele>
        <time>2020-06-07T14:39:55Z</time>
      </trkpt>
      <trkpt lat="47.89412" lon="-3.7005">
        <ele>83</ele>
        <time>2020-06-07T14:39:56Z</time>
      </trkpt>
      <trkpt lat="47.89419" lon="-3.7005">
        <ele>83.3</ele>
        <time>2020-06-07T14:39:57Z</time>
      </trkpt>
      <trkpt lat="47.89424" lon="-3.70049">
        <ele>83.6</ele>
        <time>2020-06-07T14:39:58Z</time>
      </trkpt>
      <trkpt lat="47.8943" lon="-3.70048">
        <ele>83.9</ele>
        <time>2020-06-07T14:39:59Z</time>
      </trkpt>
      <trkpt lat="47.89436" lon="-3.70046">
        <ele>84.2</ele>
        <time>2020-06-07T14:40:00Z</time>
      </trkpt>
      <trkpt lat="47.8944" lon="-3.70046">
        <ele>84.4</ele>
        <time>2020-06-07T14:40:01Z</time>
      </trkpt>
      <trkpt lat="47.89445" lon="-3.70046">
        <ele>84.7</ele>
        <time>2020-06-07T14:40:02Z</time>
      </trkpt>
      <trkpt lat="47.8945" lon="-3.70045">
        <ele>84.9</ele>
        <time>2020-06-07T14:40:03Z</time>
      </trkpt>
      <trkpt lat="47.89455" lon="-3.70045">
        <ele>85.2</ele>
        <time>2020-06-07T14:40:04Z</time>
      </trkpt>
      <trkpt lat="47.89459" lon="-3.70043">
        <ele>85.4</ele>
        <time>2020-06-07T14:40:05Z</time>
      </trkpt>
      <trkpt lat="47.89464" lon="-3.70042">
        <ele>85.6</ele>
        <time>2020-06-07T14:40:06Z</time>
      </trkpt>
      <trkpt lat="47.89468" lon="-3.70041">
        <ele>85.8</ele>
        <time>2020-06-07T14:40:07Z</time>
      </trkpt>
      <trkpt lat="47.89474" lon="-3.7004">
        <ele>86.1</ele>
        <time>2020-06-07T14:40:08Z</time>
      </trkpt>
      <trkpt lat="47.89479" lon="-3.70039">
        <ele>86.3</ele>
        <time>2020-06-07T14:40:09Z</time>
      </trkpt>
      <trkpt lat="47.89483" lon="-3.70038">
        <ele>86.5</ele>
        <time>2020-06-07T14:40:10Z</time>
      </trkpt>
      <trkpt lat="47.89487" lon="-3.70037">
        <ele>86.7</ele>
        <time>2020-06-07T14:40:11Z</time>
      </trkpt>
      <trkpt lat="47.89491" lon="-3.70036">
        <ele>86.9</ele>
        <time>2020-06-07T14:40:12Z</time>
      </trkpt>
      <trkpt lat="47.89495" lon="-3.70036">
        <ele>87</ele>
        <time>2020-06-07T14:40:13Z</time>
      </trkpt>
      <trkpt lat="47.89499" lon="-3.70036">
        <ele>87.2</ele>
        <time>2020-06-07T14:40:14Z</time>
      </trkpt>
      <trkpt lat="47.89503" lon="-3.70035">
        <ele>87.4</ele>
        <time>2020-06-07T14:40:15Z</time>
      </trkpt>
      <trkpt lat="47.89508" lon="-3.70035">
        <ele>87.6</ele>
        <time>2020-06-07T14:40:16Z</time>
      </trkpt>
      <trkpt lat="47.89512" lon="-3.70034">
        <ele>87.9</ele>
        <time>2020-06-07T14:40:17Z</time>
      </trkpt>
      <trkpt lat="47.89517" lon="-3.70034">
        <ele>88.1</ele>
        <time>2020-06-07T14:40:18Z</time>
      </trkpt>
      <trkpt lat="47.89522" lon="-3.70033">
        <ele>88.4</ele>
        <time>2020-06-07T14:40:19Z</time>
      </trkpt>
      <trkpt lat="47.89525" lon="-3.70032">
        <ele>88.5</ele>
        <time>2020-06-07T14:40:20Z</time>
      </trkpt>
      <trkpt lat="47.89529" lon="-3.70031">
        <ele>88.7</ele>
        <time>2020-06-07T14:40:21Z</time>
      </trkpt>
      <trkpt lat="47.89533" lon="-3.7003">
        <ele>88.9</ele>
        <time>2020-06-07T14:40:22Z</time>
      </trkpt>
      <trkpt lat="47.89537" lon="-3.70029">
        <ele>89</ele>
        <time>2020-06-07T14:40:23Z</time>
      </trkpt>
      <trkpt lat="47.89541" lon="-3.70028">
        <ele>89.2</ele>
        <time>2020-06-07T14:40:24Z</time>
      </trkpt>
      <trkpt lat="47.89545" lon="-3.70028">
        <ele>89.4</ele>
        <time>2020-06-07T14:40:25Z</time>
      </trkpt>
      <trkpt lat="47.8955" lon="-3.70027">
        <ele>89.5</ele>
        <time>2020-06-07T14:40:26Z</time>
      </trkpt>
      <trkpt lat="47.89554" lon="-3.70026">
        <ele>89.7</ele>
        <time>2020-06-07T14:40:27Z</time>
      </trkpt>
      <trkpt lat="47.89558" lon="-3.70025">
        <ele>89.9</ele>
        <time>2020-06-07T14:40:28Z</time>
      </trkpt>
      <trkpt lat="47.89562" lon="-3.70024">
        <ele>90</ele>
        <time>2020-06-07T14:40:29Z</time>
      </trkpt>
      <trkpt lat="47.89566" lon="-3.70024">
        <ele>90.2</ele>
        <time>2020-06-07T14:40:30Z</time>
      </trkpt>
      <trkpt lat="47.89571" lon="-3.70023">
        <ele>90.4</ele>
        <time>2020-06-07T14:40:31Z</time>
      </trkpt>
      <trkpt lat="47.89576" lon="-3.70022">
        <ele>90.6</ele>
        <time>2020-06-07T14:40:32Z</time>
      </trkpt>
      <trkpt lat="47.89581" lon="-3.70021">
        <ele>90.8</ele>
        <time>2020-06-07T14:40:33Z</time>
      </trkpt>
      <trkpt lat="47.89584" lon="-3.70021">
        <ele>90.9</ele>
        <time>2020-06-07T14:40:34Z</time>
      </trkpt>
      <trkpt lat="47.89589" lon="-3.7002">
        <ele>91.1</ele>
        <time>2020-06-07T14:40:35Z</time>
      </trkpt>
      <trkpt lat="47.89594" lon="-3.7002">
        <ele>91.3</ele>
        <time>2020-06-07T14:40:36Z</time>
      </trkpt>
      <trkpt lat="47.89597" lon="-3.70019">
        <ele>91.4</ele>
        <time>2020-06-07T14:40:37Z</time>
      </trkpt>
      <trkpt lat="47.89602" lon="-3.70017">
        <ele>91.5</ele>
        <time>2020-06-07T14:40:38Z</time>
      </trkpt>
      <trkpt lat="47.89605" lon="-3.70017">
        <ele>91.6</ele>
        <time>2020-06-07T14:40:39Z</time>
      </trkpt>
      <trkpt lat="47.89609" lon="-3.70016">
        <ele>91.7</ele>
        <time>2020-06-07T14:40:40Z</time>
      </trkpt>
      <trkpt lat="47.89614" lon="-3.70015">
        <ele>91.8</ele>
        <time>2020-06-07T14:40:41Z</time>
      </trkpt>
      <trkpt lat="47.89618" lon="-3.70014">
        <ele>91.9</ele>
        <time>2020-06-07T14:40:42Z</time>
      </trkpt>
      <trkpt lat="47.89623" lon="-3.70013">
        <ele>92.1</ele>
        <time>2020-06-07T14:40:43Z</time>
      </trkpt>
      <trkpt lat="47.89627" lon="-3.70013">
        <ele>92.2</ele>
        <time>2020-06-07T14:40:44Z</time>
      </trkpt>
      <trkpt lat="47.89632" lon="-3.70013">
        <ele>92.2</ele>
        <time>2020-06-07T14:40:45Z</time>
      </trkpt>
      <trkpt lat="47.89636" lon="-3.70013">
        <ele>92.3</ele>
        <time>2020-06-07T14:40:46Z</time>
      </trkpt>
      <trkpt lat="47.89641" lon="-3.70013">
        <ele>92.4</ele>
        <time>2020-06-07T14:40:47Z</time>
      </trkpt>
      <trkpt lat="47.89646" lon="-3.70013">
        <ele>92.4</ele>
        <time>2020-06-07T14:40:48Z</time>
      </trkpt>
      <trkpt lat="47.89651" lon="-3.70012">
        <ele>92.5</ele>
        <time>2020-06-07T14:40:49Z</time>
      </trkpt>
      <trkpt lat="47.89655" lon="-3.70012">
        <ele>92.6</ele>
        <time>2020-06-07T14:40:50Z</time>
      </trkpt>
      <trkpt lat="47.8966" lon="-3.70011">
        <ele>92.6</ele>
        <time>2020-06-07T14:40:51Z</time>
      </trkpt>
      <trkpt lat="47.89666" lon="-3.70011">
        <ele>92.7</ele>
        <time>2020-06-07T14:40:52Z</time>
      </trkpt>
      <trkpt lat="47.89671" lon="-3.70011">
        <ele>92.8</ele>
        <time>2020-06-07T14:40:53Z</time>
      </trkpt>
      <trkpt lat="47.89675" lon="-3.7001">
        <ele>92.9</ele>
        <time>2020-06-07T14:40:54Z</time>
      </trkpt>
      <trkpt lat="47.89679" lon="-3.7001">
        <ele>92.9</ele>
        <time>2020-06-07T14:40:55Z</time>
      </trkpt>
      <trkpt lat="47.89683" lon="-3.70009">
        <ele>93</ele>
        <time>2020-06-07T14:40:56Z</time>
      </trkpt>
      <trkpt lat="47.8969" lon="-3.7001">
        <ele>93.1</ele>
        <time>2020-06-07T14:40:57Z</time>
      </trkpt>
      <trkpt lat="47.89693" lon="-3.7001">
        <ele>93.1</ele>
        <time>2020-06-07T14:40:58Z</time>
      </trkpt>
      <trkpt lat="47.89698" lon="-3.70009">
        <ele>93.2</ele>
        <time>2020-06-07T14:40:59Z</time>
      </trkpt>
      <trkpt lat="47.89702" lon="-3.70009">
        <ele>93.2</ele>
        <time>2020-06-07T14:41:00Z</time>
      </trkpt>
      <trkpt lat="47.89706" lon="-3.70008">
        <ele>93.3</ele>
        <time>2020-06-07T14:41:01Z</time>
      </trkpt>
      <trkpt lat="47.89711" lon="-3.70007">
        <ele>93.4</ele>
        <time>2020-06-07T14:41:02Z</time>
      </trkpt>
      <trkpt lat="47.89717" lon="-3.70007">
        <ele>93.4</ele>
        <time>2020-06-07T14:41:03Z</time>
      </trkpt>
      <trkpt lat="47.89723" lon="-3.70008">
        <ele>93.4</ele>
        <time>2020-06-07T14:41:04Z</time>
      </trkpt>
      <trkpt lat="47.89728" lon="-3.70009">
        <ele>93.5</ele>
        <time>2020-06-07T14:41:05Z</time>
      </trkpt>
      <trkpt lat="47.89733" lon="-3.7001">
        <ele>93.5</ele>
        <time>2020-06-07T14:41:06Z</time>
      </trkpt>
      <trkpt lat="47.89738" lon="-3.70012">
        <ele>93.5</ele>
        <time>2020-06-07T14:41:07Z</time>
      </trkpt>
      <trkpt lat="47.89743" lon="-3.70013">
        <ele>93.5</ele>
        <time>2020-06-07T14:41:08Z</time>
      </trkpt>
      <trkpt lat="47.89749" lon="-3.70014">
        <ele>93.4</ele>
        <time>2020-06-07T14:41:09Z</time>
      </trkpt>
      <trkpt lat="47.89754" lon="-3.70016">
        <ele>93.4</ele>
        <time>2020-06-07T14:41:10Z</time>
      </trkpt>
      <trkpt lat="47.89759" lon="-3.70017">
        <ele>93.4</ele>
        <time>2020-06-07T14:41:11Z</time>
      </trkpt>
      <trkpt lat="47.89765" lon="-3.70019">
        <ele>93.3</ele>
        <time>2020-06-07T14:41:12Z</time>
      </trkpt>
      <trkpt lat="47.89771" lon="-3.70021">
        <ele>93.3</ele>
        <time>2020-06-07T14:41:13Z</time>
      </trkpt>
      <trkpt lat="47.89776" lon="-3.70022">
        <ele>93.3</ele>
        <time>2020-06-07T14:41:14Z</time>
      </trkpt>
      <trkpt lat="47.89781" lon="-3.70024">
        <ele>93.2</ele>
        <time>2020-06-07T14:41:15Z</time>
      </trkpt>
      <trkpt lat="47.89787" lon="-3.70027">
        <ele>93.1</ele>
        <time>2020-06-07T14:41:16Z</time>
      </trkpt>
      <trkpt lat="47.89792" lon="-3.70029">
        <ele>93.1</ele>
        <time>2020-06-07T14:41:17Z</time>
      </trkpt>
      <trkpt lat="47.89799" lon="-3.7003">
        <ele>93</ele>
        <time>2020-06-07T14:41:18Z</time>
      </trkpt>
      <trkpt lat="47.89806" lon="-3.70032">
        <ele>93</ele>
        <time>2020-06-07T14:41:19Z</time>
      </trkpt>
      <trkpt lat="47.89812" lon="-3.70033">
        <ele>93</ele>
        <time>2020-06-07T14:41:20Z</time>
      </trkpt>
      <trkpt lat="47.89818" lon="-3.70034">
        <ele>92.9</ele>
        <time>2020-06-07T14:41:21Z</time>
      </trkpt>
      <trkpt lat="47.89824" lon="-3.70035">
        <ele>92.9</ele>
        <time>2020-06-07T14:41:22Z</time>
      </trkpt>
      <trkpt lat="47.8983" lon="-3.70037">
        <ele>92.8</ele>
        <time>2020-06-07T14:41:23Z</time>
      </trkpt>
      <trkpt lat="47.89837" lon="-3.70039">
        <ele>92.8</ele>
        <time>2020-06-07T14:41:24Z</time>
      </trkpt>
      <trkpt lat="47.89844" lon="-3.70042">
        <ele>92.8</ele>
        <time>2020-06-07T14:41:25Z</time>
      </trkpt>
      <trkpt lat="47.8985" lon="-3.70044">
        <ele>92.8</ele>
        <time>2020-06-07T14:41:26Z</time>
      </trkpt>
      <trkpt lat="47.89855" lon="-3.70046">
        <ele>92.8</ele>
        <time>2020-06-07T14:41:27Z</time>
      </trkpt>
      <trkpt lat="47.89862" lon="-3.70048">
        <ele>92.8</ele>
        <time>2020-06-07T14:41:28Z</time>
      </trkpt>
      <trkpt lat="47.89867" lon="-3.70049">
        <ele>92.8</ele>
        <time>2020-06-07T14:41:29Z</time>
      </trkpt>
      <trkpt lat="47.89873" lon="-3.7005">
        <ele>92.8</ele>
        <time>2020-06-07T14:41:30Z</time>
      </trkpt>
      <trkpt lat="47.89877" lon="-3.70052">
        <ele>92.9</ele>
        <time>2020-06-07T14:41:31Z</time>
      </trkpt>
      <trkpt lat="47.89883" lon="-3.70054">
        <ele>92.9</ele>
        <time>2020-06-07T14:41:32Z</time>
      </trkpt>
      <trkpt lat="47.89889" lon="-3.70056">
        <ele>92.9</ele>
        <time>2020-06-07T14:41:33Z</time>
      </trkpt>
      <trkpt lat="47.89894" lon="-3.70058">
        <ele>92.9</ele>
        <time>2020-06-07T14:41:34Z</time>
      </trkpt>
      <trkpt lat="47.899" lon="-3.70061">
        <ele>92.9</ele>
        <time>2020-06-07T14:41:35Z</time>
      </trkpt>
      <trkpt lat="47.89905" lon="-3.70063">
        <ele>92.9</ele>
        <time>2020-06-07T14:41:36Z</time>
      </trkpt>
      <trkpt lat="47.8991" lon="-3.70064">
        <ele>92.9</ele>
        <time>2020-06-07T14:41:37Z</time>
      </trkpt>
      <trkpt lat="47.89917" lon="-3.70066">
        <ele>92.9</ele>
        <time>2020-06-07T14:41:38Z</time>
      </trkpt>
      <trkpt lat="47.89923" lon="-3.70067">
        <ele>92.9</ele>
        <time>2020-06-07T14:41:39Z</time>
      </trkpt>
      <trkpt lat="47.89928" lon="-3.70069">
        <ele>92.9</ele>
        <time>2020-06-07T14:41:40Z</time>
      </trkpt>
      <trkpt lat="47.89934" lon="-3.70071">
        <ele>93</ele>
        <time>2020-06-07T14:41:41Z</time>
      </trkpt>
      <trkpt lat="47.8994" lon="-3.70071">
        <ele>93</ele>
        <time>2020-06-07T14:41:42Z</time>
      </trkpt>
      <trkpt lat="47.89946" lon="-3.70073">
        <ele>93</ele>
        <time>2020-06-07T14:41:43Z</time>
      </trkpt>
      <trkpt lat="47.89951" lon="-3.70076">
        <ele>93</ele>
        <time>2020-06-07T14:41:44Z</time>
      </trkpt>
      <trkpt lat="47.89956" lon="-3.70077">
        <ele>93.1</ele>
        <time>2020-06-07T14:41:45Z</time>
      </trkpt>
      <trkpt lat="47.89962" lon="-3.70079">
        <ele>93.1</ele>
        <time>2020-06-07T14:41:46Z</time>
      </trkpt>
      <trkpt lat="47.89969" lon="-3.70081">
        <ele>93.1</ele>
        <time>2020-06-07T14:41:47Z</time>
      </trkpt>
      <trkpt lat="47.89974" lon="-3.70082">
        <ele>93.1</ele>
        <time>2020-06-07T14:41:48Z</time>
      </trkpt>
      <trkpt lat="47.8998" lon="-3.70084">
        <ele>93.1</ele>
        <time>2020-06-07T14:41:49Z</time>
      </trkpt>
      <trkpt lat="47.89985" lon="-3.70086">
        <ele>93.1</ele>
        <time>2020-06-07T14:41:50Z</time>
      </trkpt>
      <trkpt lat="47.89991" lon="-3.70088">
        <ele>93.2</ele>
        <time>2020-06-07T14:41:51Z</time>
      </trkpt>
      <trkpt lat="47.89997" lon="-3.70089">
        <ele>93.2</ele>
        <time>2020-06-07T14:41:52Z</time>
      </trkpt>
      <trkpt lat="47.90003" lon="-3.70091">
        <ele>93.2</ele>
        <time>2020-06-07T14:41:53Z</time>
      </trkpt>
      <trkpt lat="47.90008" lon="-3.70093">
        <ele>93.3</ele>
        <time>2020-06-07T14:41:54Z</time>
      </trkpt>
      <trkpt lat="47.90014" lon="-3.70095">
        <ele>93.3</ele>
        <time>2020-06-07T14:41:55Z</time>
      </trkpt>
      <trkpt lat="47.9002" lon="-3.70097">
        <ele>93.3</ele>
        <time>2020-06-07T14:41:56Z</time>
      </trkpt>
      <trkpt lat="47.90026" lon="-3.70099">
        <ele>93.3</ele>
        <time>2020-06-07T14:41:57Z</time>
      </trkpt>
      <trkpt lat="47.90033" lon="-3.70101">
        <ele>93.4</ele>
        <time>2020-06-07T14:41:58Z</time>
      </trkpt>
      <trkpt lat="47.90037" lon="-3.70102">
        <ele>93.5</ele>
        <time>2020-06-07T14:41:59Z</time>
      </trkpt>
      <trkpt lat="47.90042" lon="-3.70104">
        <ele>93.5</ele>
        <time>2020-06-07T14:42:00Z</time>
      </trkpt>
      <trkpt lat="47.90049" lon="-3.70106">
        <ele>93.6</ele>
        <time>2020-06-07T14:42:01Z</time>
      </trkpt>
      <trkpt lat="47.90055" lon="-3.70109">
        <ele>93.7</ele>
        <time>2020-06-07T14:42:02Z</time>
      </trkpt>
      <trkpt lat="47.90061" lon="-3.70111">
        <ele>93.8</ele>
        <time>2020-06-07T14:42:03Z</time>
      </trkpt>
      <trkpt lat="47.90065" lon="-3.70112">
        <ele>93.9</ele>
        <time>2020-06-07T14:42:04Z</time>
      </trkpt>
      <trkpt lat="47.90071" lon="-3.70114">
        <ele>94</ele>
        <time>2020-06-07T14:42:05Z</time>
      </trkpt>
      <trkpt lat="47.90076" lon="-3.70116">
        <ele>94</ele>
        <time>2020-06-07T14:42:06Z</time>
      </trkpt>
      <trkpt lat="47.90081" lon="-3.70117">
        <ele>94.1</ele>
        <time>2020-06-07T14:42:07Z</time>
      </trkpt>
      <trkpt lat="47.90086" lon="-3.70118">
        <ele>94.2</ele>
        <time>2020-06-07T14:42:08Z</time>
      </trkpt>
      <trkpt lat="47.90091" lon="-3.7012">
        <ele>94.3</ele>
        <time>2020-06-07T14:42:09Z</time>
      </trkpt>
      <trkpt lat="47.90095" lon="-3.7012">
        <ele>94.4</ele>
        <time>2020-06-07T14:42:10Z</time>
      </trkpt>
      <trkpt lat="47.90099" lon="-3.70121">
        <ele>94.6</ele>
        <time>2020-06-07T14:42:11Z</time>
      </trkpt>
      <trkpt lat="47.90104" lon="-3.70122">
        <ele>94.6</ele>
        <time>2020-06-07T14:42:12Z</time>
      </trkpt>
      <trkpt lat="47.90109" lon="-3.70124">
        <ele>94.7</ele>
        <time>2020-06-07T14:42:13Z</time>
      </trkpt>
      <trkpt lat="47.90113" lon="-3.70126">
        <ele>94.8</ele>
        <time>2020-06-07T14:42:14Z</time>
      </trkpt>
      <trkpt lat="47.90117" lon="-3.70128">
        <ele>94.8</ele>
        <time>2020-06-07T14:42:15Z</time>
      </trkpt>
      <trkpt lat="47.90122" lon="-3.7013">
        <ele>94.9</ele>
        <time>2020-06-07T14:42:16Z</time>
      </trkpt>
      <trkpt lat="47.90126" lon="-3.70131">
        <ele>95</ele>
        <time>2020-06-07T14:42:17Z</time>
      </trkpt>
      <trkpt lat="47.9013" lon="-3.70133">
        <ele>95.1</ele>
        <time>2020-06-07T14:42:18Z</time>
      </trkpt>
      <trkpt lat="47.90133" lon="-3.70135">
        <ele>95.1</ele>
        <time>2020-06-07T14:42:19Z</time>
      </trkpt>
      <trkpt lat="47.90138" lon="-3.70136">
        <ele>95.2</ele>
        <time>2020-06-07T14:42:20Z</time>
      </trkpt>
      <trkpt lat="47.90142" lon="-3.70137">
        <ele>95.3</ele>
        <time>2020-06-07T14:42:21Z</time>
      </trkpt>
      <trkpt lat="47.90146" lon="-3.70137">
        <ele>95.4</ele>
        <time>2020-06-07T14:42:22Z</time>
      </trkpt>
      <trkpt lat="47.9015" lon="-3.70139">
        <ele>95.5</ele>
        <time>2020-06-07T14:42:23Z</time>
      </trkpt>
      <trkpt lat="47.90154" lon="-3.70141">
        <ele>95.6</ele>
        <time>2020-06-07T14:42:24Z</time>
      </trkpt>
      <trkpt lat="47.90159" lon="-3.70142">
        <ele>95.7</ele>
        <time>2020-06-07T14:42:25Z</time>
      </trkpt>
      <trkpt lat="47.90162" lon="-3.70144">
        <ele>95.7</ele>
        <time>2020-06-07T14:42:26Z</time>
      </trkpt>
      <trkpt lat="47.90166" lon="-3.70145">
        <ele>95.7</ele>
        <time>2020-06-07T14:42:27Z</time>
      </trkpt>
      <trkpt lat="47.90171" lon="-3.70146">
        <ele>95.8</ele>
        <time>2020-06-07T14:42:28Z</time>
      </trkpt>
      <trkpt lat="47.90176" lon="-3.70148">
        <ele>95.9</ele>
        <time>2020-06-07T14:42:29Z</time>
      </trkpt>
      <trkpt lat="47.90182" lon="-3.7015">
        <ele>95.9</ele>
        <time>2020-06-07T14:42:30Z</time>
      </trkpt>
      <trkpt lat="47.90187" lon="-3.70151">
        <ele>95.9</ele>
        <time>2020-06-07T14:42:31Z</time>
      </trkpt>
      <trkpt lat="47.90191" lon="-3.70154">
        <ele>95.9</ele>
        <time>2020-06-07T14:42:32Z</time>
      </trkpt>
      <trkpt lat="47.90195" lon="-3.70155">
        <ele>95.9</ele>
        <time>2020-06-07T14:42:33Z</time>
      </trkpt>
      <trkpt lat="47.90199" lon="-3.70158">
        <ele>95.9</ele>
        <time>2020-06-07T14:42:34Z</time>
      </trkpt>
      <trkpt lat="47.90205" lon="-3.7016">
        <ele>95.9</ele>
        <time>2020-06-07T14:42:35Z</time>
      </trkpt>
      <trkpt lat="47.90211" lon="-3.70162">
        <ele>95.8</ele>
        <time>2020-06-07T14:42:36Z</time>
      </trkpt>
      <trkpt lat="47.90216" lon="-3.70164">
        <ele>95.8</ele>
        <time>2020-06-07T14:42:37Z</time>
      </trkpt>
      <trkpt lat="47.90222" lon="-3.70169">
        <ele>95.7</ele>
        <time>2020-06-07T14:42:38Z</time>
      </trkpt>
      <trkpt lat="47.90226" lon="-3.70172">
        <ele>95.6</ele>
        <time>2020-06-07T14:42:39Z</time>
      </trkpt>
      <trkpt lat="47.9023" lon="-3.70173">
        <ele>95.6</ele>
        <time>2020-06-07T14:42:40Z</time>
      </trkpt>
      <trkpt lat="47.90235" lon="-3.70176">
        <ele>95.5</ele>
        <time>2020-06-07T14:42:41Z</time>
      </trkpt>
      <trkpt lat="47.90239" lon="-3.70178">
        <ele>95.5</ele>
        <time>2020-06-07T14:42:42Z</time>
      </trkpt>
      <trkpt lat="47.90242" lon="-3.7018">
        <ele>95.4</ele>
        <time>2020-06-07T14:42:43Z</time>
      </trkpt>
      <trkpt lat="47.90244" lon="-3.70182">
        <ele>95.4</ele>
        <time>2020-06-07T14:42:44Z</time>
      </trkpt>
      <trkpt lat="47.90247" lon="-3.70184">
        <ele>95.4</ele>
        <time>2020-06-07T14:42:45Z</time>
      </trkpt>
      <trkpt lat="47.90251" lon="-3.70186">
        <ele>95.3</ele>
        <time>2020-06-07T14:42:46Z</time>
      </trkpt>
      <trkpt lat="47.90254" lon="-3.70188">
        <ele>95.3</ele>
        <time>2020-06-07T14:42:47Z</time>
      </trkpt>
      <trkpt lat="47.9026" lon="-3.70191">
        <ele>95.2</ele>
        <time>2020-06-07T14:42:48Z</time>
      </trkpt>
      <trkpt lat="47.90263" lon="-3.70194">
        <ele>95.2</ele>
        <time>2020-06-07T14:42:49Z</time>
      </trkpt>
      <trkpt lat="47.90267" lon="-3.70197">
        <ele>95.1</ele>
        <time>2020-06-07T14:42:50Z</time>
      </trkpt>
      <trkpt lat="47.90272" lon="-3.70199">
        <ele>95.1</ele>
        <time>2020-06-07T14:42:51Z</time>
      </trkpt>
      <trkpt lat="47.90276" lon="-3.70201">
        <ele>95</ele>
        <time>2020-06-07T14:42:52Z</time>
      </trkpt>
      <trkpt lat="47.90281" lon="-3.70205">
        <ele>94.9</ele>
        <time>2020-06-07T14:42:53Z</time>
      </trkpt>
      <trkpt lat="47.90285" lon="-3.70208">
        <ele>94.9</ele>
        <time>2020-06-07T14:42:54Z</time>
      </trkpt>
      <trkpt lat="47.9029" lon="-3.70211">
        <ele>94.8</ele>
        <time>2020-06-07T14:42:55Z</time>
      </trkpt>
      <trkpt lat="47.90294" lon="-3.70215">
        <ele>94.8</ele>
        <time>2020-06-07T14:42:56Z</time>
      </trkpt>
      <trkpt lat="47.90299" lon="-3.70219">
        <ele>94.7</ele>
        <time>2020-06-07T14:42:57Z</time>
      </trkpt>
      <trkpt lat="47.90304" lon="-3.70223">
        <ele>94.6</ele>
        <time>2020-06-07T14:42:58Z</time>
      </trkpt>
      <trkpt lat="47.90308" lon="-3.70227">
        <ele>94.6</ele>
        <time>2020-06-07T14:42:59Z</time>
      </trkpt>
      <trkpt lat="47.90313" lon="-3.70231">
        <ele>94.5</ele>
        <time>2020-06-07T14:43:00Z</time>
      </trkpt>
      <trkpt lat="47.90318" lon="-3.70237">
        <ele>94.4</ele>
        <time>2020-06-07T14:43:01Z</time>
      </trkpt>
      <trkpt lat="47.90323" lon="-3.70241">
        <ele>94.3</ele>
        <time>2020-06-07T14:43:02Z</time>
      </trkpt>
      <trkpt lat="47.90328" lon="-3.70248">
        <ele>94.2</ele>
        <time>2020-06-07T14:43:03Z</time>
      </trkpt>
      <trkpt lat="47.90333" lon="-3.70254">
        <ele>94.1</ele>
        <time>2020-06-07T14:43:04Z</time>
      </trkpt>
      <trkpt lat="47.90338" lon="-3.70259">
        <ele>94</ele>
        <time>2020-06-07T14:43:05Z</time>
      </trkpt>
      <trkpt lat="47.90342" lon="-3.70265">
        <ele>93.8</ele>
        <time>2020-06-07T14:43:06Z</time>
      </trkpt>
      <trkpt lat="47.90347" lon="-3.7027">
        <ele>93.6</ele>
        <time>2020-06-07T14:43:07Z</time>
      </trkpt>
      <trkpt lat="47.90351" lon="-3.70276">
        <ele>93.3</ele>
        <time>2020-06-07T14:43:08Z</time>
      </trkpt>
      <trkpt lat="47.90355" lon="-3.70281">
        <ele>93.1</ele>
        <time>2020-06-07T14:43:09Z</time>
      </trkpt>
      <trkpt lat="47.90359" lon="-3.70286">
        <ele>92.9</ele>
        <time>2020-06-07T14:43:10Z</time>
      </trkpt>
      <trkpt lat="47.90364" lon="-3.70291">
        <ele>92.7</ele>
        <time>2020-06-07T14:43:11Z</time>
      </trkpt>
      <trkpt lat="47.90369" lon="-3.70298">
        <ele>92.5</ele>
        <time>2020-06-07T14:43:12Z</time>
      </trkpt>
      <trkpt lat="47.90373" lon="-3.70305">
        <ele>92.3</ele>
        <time>2020-06-07T14:43:13Z</time>
      </trkpt>
      <trkpt lat="47.90378" lon="-3.70311">
        <ele>92</ele>
        <time>2020-06-07T14:43:14Z</time>
      </trkpt>
      <trkpt lat="47.90383" lon="-3.70318">
        <ele>91.7</ele>
        <time>2020-06-07T14:43:15Z</time>
      </trkpt>
      <trkpt lat="47.90388" lon="-3.70325">
        <ele>91.4</ele>
        <time>2020-06-07T14:43:16Z</time>
      </trkpt>
      <trkpt lat="47.90393" lon="-3.70332">
        <ele>91.1</ele>
        <time>2020-06-07T14:43:17Z</time>
      </trkpt>
      <trkpt lat="47.90398" lon="-3.7034">
        <ele>90.8</ele>
        <time>2020-06-07T14:43:18Z</time>
      </trkpt>
      <trkpt lat="47.90403" lon="-3.70347">
        <ele>90.5</ele>
        <time>2020-06-07T14:43:19Z</time>
      </trkpt>
      <trkpt lat="47.90408" lon="-3.70355">
        <ele>90.1</ele>
        <time>2020-06-07T14:43:20Z</time>
      </trkpt>
      <trkpt lat="47.90414" lon="-3.70362">
        <ele>89.8</ele>
        <time>2020-06-07T14:43:21Z</time>
      </trkpt>
      <trkpt lat="47.9042" lon="-3.7037">
        <ele>89.5</ele>
        <time>2020-06-07T14:43:22Z</time>
      </trkpt>
      <trkpt lat="47.90425" lon="-3.70378">
        <ele>89.1</ele>
        <time>2020-06-07T14:43:23Z</time>
      </trkpt>
      <trkpt lat="47.90431" lon="-3.70387">
        <ele>88.8</ele>
        <time>2020-06-07T14:43:24Z</time>
      </trkpt>
      <trkpt lat="47.90436" lon="-3.70395">
        <ele>88.4</ele>
        <time>2020-06-07T14:43:25Z</time>
      </trkpt>
      <trkpt lat="47.90441" lon="-3.70403">
        <ele>88</ele>
        <time>2020-06-07T14:43:26Z</time>
      </trkpt>
      <trkpt lat="47.90447" lon="-3.70411">
        <ele>87.7</ele>
        <time>2020-06-07T14:43:27Z</time>
      </trkpt>
      <trkpt lat="47.90453" lon="-3.70419">
        <ele>87.3</ele>
        <time>2020-06-07T14:43:28Z</time>
      </trkpt>
      <trkpt lat="47.90459" lon="-3.70426">
        <ele>87</ele>
        <time>2020-06-07T14:43:29Z</time>
      </trkpt>
      <trkpt lat="47.90465" lon="-3.70434">
        <ele>86.7</ele>
        <time>2020-06-07T14:43:30Z</time>
      </trkpt>
      <trkpt lat="47.90471" lon="-3.70442">
        <ele>86.4</ele>
        <time>2020-06-07T14:43:31Z</time>
      </trkpt>
      <trkpt lat="47.90477" lon="-3.70449">
        <ele>86.1</ele>
        <time>2020-06-07T14:43:32Z</time>
      </trkpt>
      <trkpt lat="47.90484" lon="-3.70456">
        <ele>85.9</ele>
        <time>2020-06-07T14:43:33Z</time>
      </trkpt>
      <trkpt lat="47.9049" lon="-3.70463">
        <ele>85.6</ele>
        <time>2020-06-07T14:43:34Z</time>
      </trkpt>
      <trkpt lat="47.90497" lon="-3.70469">
        <ele>85.4</ele>
        <time>2020-06-07T14:43:35Z</time>
      </trkpt>
      <trkpt lat="47.90503" lon="-3.70475">
        <ele>85.2</ele>
        <time>2020-06-07T14:43:36Z</time>
      </trkpt>
      <trkpt lat="47.90509" lon="-3.70482">
        <ele>85</ele>
        <time>2020-06-07T14:43:37Z</time>
      </trkpt>
      <trkpt lat="47.90516" lon="-3.70489">
        <ele>84.8</ele>
        <time>2020-06-07T14:43:38Z</time>
      </trkpt>
      <trkpt lat="47.90522" lon="-3.70495">
        <ele>84.7</ele>
        <time>2020-06-07T14:43:39Z</time>
      </trkpt>
      <trkpt lat="47.90528" lon="-3.70501">
        <ele>84.5</ele>
        <time>2020-06-07T14:43:40Z</time>
      </trkpt>
      <trkpt lat="47.90534" lon="-3.70507">
        <ele>84.4</ele>
        <time>2020-06-07T14:43:41Z</time>
      </trkpt>
      <trkpt lat="47.9054" lon="-3.70512">
        <ele>84.3</ele>
        <time>2020-06-07T14:43:42Z</time>
      </trkpt>
      <trkpt lat="47.90546" lon="-3.70516">
        <ele>84.2</ele>
        <time>2020-06-07T14:43:43Z</time>
      </trkpt>
      <trkpt lat="47.90552" lon="-3.70521">
        <ele>84.2</ele>
        <time>2020-06-07T14:43:44Z</time>
      </trkpt>
      <trkpt lat="47.90558" lon="-3.70526">
        <ele>84.2</ele>
        <time>2020-06-07T14:43:45Z</time>
      </trkpt>
      <trkpt lat="47.90564" lon="-3.70531">
        <ele>84.2</ele>
        <time>2020-06-07T14:43:46Z</time>
      </trkpt>
      <trkpt lat="47.9057" lon="-3.70537">
        <ele>84.2</ele>
        <time>2020-06-07T14:43:47Z</time>
      </trkpt>
      <trkpt lat="47.90576" lon="-3.70542">
        <ele>84.3</ele>
        <time>2020-06-07T14:43:48Z</time>
      </trkpt>
      <trkpt lat="47.90582" lon="-3.70548">
        <ele>84.2</ele>
        <time>2020-06-07T14:43:49Z</time>
      </trkpt>
      <trkpt lat="47.90588" lon="-3.70554">
        <ele>84.1</ele>
        <time>2020-06-07T14:43:50Z</time>
      </trkpt>
      <trkpt lat="47.90594" lon="-3.7056">
        <ele>84</ele>
        <time>2020-06-07T14:43:51Z</time>
      </trkpt>
      <trkpt lat="47.906" lon="-3.70565">
        <ele>84</ele>
        <time>2020-06-07T14:43:52Z</time>
      </trkpt>
      <trkpt lat="47.90606" lon="-3.70569">
        <ele>83.9</ele>
        <time>2020-06-07T14:43:53Z</time>
      </trkpt>
      <trkpt lat="47.90611" lon="-3.70575">
        <ele>83.9</ele>
        <time>2020-06-07T14:43:54Z</time>
      </trkpt>
      <trkpt lat="47.90616" lon="-3.7058">
        <ele>84</ele>
        <time>2020-06-07T14:43:55Z</time>
      </trkpt>
      <trkpt lat="47.90622" lon="-3.70585">
        <ele>84</ele>
        <time>2020-06-07T14:43:56Z</time>
      </trkpt>
      <trkpt lat="47.90628" lon="-3.7059">
        <ele>84.2</ele>
        <time>2020-06-07T14:43:57Z</time>
      </trkpt>
      <trkpt lat="47.90632" lon="-3.70596">
        <ele>84.3</ele>
        <time>2020-06-07T14:43:58Z</time>
      </trkpt>
      <trkpt lat="47.90637" lon="-3.70602">
        <ele>84.4</ele>
        <time>2020-06-07T14:43:59Z</time>
      </trkpt>
      <trkpt lat="47.90642" lon="-3.70606">
        <ele>84.5</ele>
        <time>2020-06-07T14:44:00Z</time>
      </trkpt>
      <trkpt lat="47.90647" lon="-3.7061">
        <ele>84.7</ele>
        <time>2020-06-07T14:44:01Z</time>
      </trkpt>
      <trkpt lat="47.90651" lon="-3.70616">
        <ele>84.8</ele>
        <time>2020-06-07T14:44:02Z</time>
      </trkpt>
      <trkpt lat="47.90655" lon="-3.70621">
        <ele>84.9</ele>
        <time>2020-06-07T14:44:03Z</time>
      </trkpt>
      <trkpt lat="47.90659" lon="-3.70626">
        <ele>85.1</ele>
        <time>2020-06-07T14:44:04Z</time>
      </trkpt>
      <trkpt lat="47.90664" lon="-3.7063">
        <ele>85.2</ele>
        <time>2020-06-07T14:44:05Z</time>
      </trkpt>
      <trkpt lat="47.90667" lon="-3.70635">
        <ele>85.4</ele>
        <time>2020-06-07T14:44:06Z</time>
      </trkpt>
      <trkpt lat="47.90671" lon="-3.7064">
        <ele>85.5</ele>
        <time>2020-06-07T14:44:07Z</time>
      </trkpt>
      <trkpt lat="47.90675" lon="-3.70644">
        <ele>85.7</ele>
        <time>2020-06-07T14:44:08Z</time>
      </trkpt>
      <trkpt lat="47.90679" lon="-3.70649">
        <ele>85.9</ele>
        <time>2020-06-07T14:44:09Z</time>
      </trkpt>
      <trkpt lat="47.90683" lon="-3.70654">
        <ele>86</ele>
        <time>2020-06-07T14:44:10Z</time>
      </trkpt>
      <trkpt lat="47.90687" lon="-3.70659">
        <ele>86.2</ele>
        <time>2020-06-07T14:44:11Z</time>
      </trkpt>
      <trkpt lat="47.90691" lon="-3.70664">
        <ele>86.4</ele>
        <time>2020-06-07T14:44:12Z</time>
      </trkpt>
      <trkpt lat="47.90695" lon="-3.70669">
        <ele>86.5</ele>
        <time>2020-06-07T14:44:13Z</time>
      </trkpt>
      <trkpt lat="47.907" lon="-3.70673">
        <ele>86.7</ele>
        <time>2020-06-07T14:44:14Z</time>
      </trkpt>
      <trkpt lat="47.90704" lon="-3.70677">
        <ele>86.9</ele>
        <time>2020-06-07T14:44:15Z</time>
      </trkpt>
      <trkpt lat="47.90708" lon="-3.70681">
        <ele>87.1</ele>
        <time>2020-06-07T14:44:16Z</time>
      </trkpt>
      <trkpt lat="47.90712" lon="-3.70685">
        <ele>87.3</ele>
        <time>2020-06-07T14:44:17Z</time>
      </trkpt>
      <trkpt lat="47.90716" lon="-3.70689">
        <ele>87.5</ele>
        <time>2020-06-07T14:44:18Z</time>
      </trkpt>
      <trkpt lat="47.90721" lon="-3.70694">
        <ele>87.7</ele>
        <time>2020-06-07T14:44:19Z</time>
      </trkpt>
      <trkpt lat="47.90725" lon="-3.70698">
        <ele>87.9</ele>
        <time>2020-06-07T14:44:20Z</time>
      </trkpt>
      <trkpt lat="47.9073" lon="-3.70701">
        <ele>88.1</ele>
        <time>2020-06-07T14:44:21Z</time>
      </trkpt>
      <trkpt lat="47.90735" lon="-3.70706">
        <ele>88.3</ele>
        <time>2020-06-07T14:44:22Z</time>
      </trkpt>
      <trkpt lat="47.9074" lon="-3.70709">
        <ele>88.6</ele>
        <time>2020-06-07T14:44:23Z</time>
      </trkpt>
      <trkpt lat="47.90744" lon="-3.70713">
        <ele>88.8</ele>
        <time>2020-06-07T14:44:24Z</time>
      </trkpt>
      <trkpt lat="47.90748" lon="-3.70717">
        <ele>89</ele>
        <time>2020-06-07T14:44:25Z</time>
      </trkpt>
      <trkpt lat="47.90752" lon="-3.70721">
        <ele>89.2</ele>
        <time>2020-06-07T14:44:26Z</time>
      </trkpt>
      <trkpt lat="47.90756" lon="-3.70726">
        <ele>89.4</ele>
        <time>2020-06-07T14:44:27Z</time>
      </trkpt>
      <trkpt lat="47.90761" lon="-3.70732">
        <ele>89.7</ele>
        <time>2020-06-07T14:44:28Z</time>
      </trkpt>
      <trkpt lat="47.90765" lon="-3.70737">
        <ele>89.9</ele>
        <time>2020-06-07T14:44:29Z</time>
      </trkpt>
      <trkpt lat="47.90769" lon="-3.70742">
        <ele>90</ele>
        <time>2020-06-07T14:44:30Z</time>
      </trkpt>
      <trkpt lat="47.90773" lon="-3.70746">
        <ele>90.2</ele>
        <time>2020-06-07T14:44:31Z</time>
      </trkpt>
      <trkpt lat="47.90777" lon="-3.70751">
        <ele>90.3</ele>
        <time>2020-06-07T14:44:32Z</time>
      </trkpt>
      <trkpt lat="47.9078" lon="-3.70755">
        <ele>90.4</ele>
        <time>2020-06-07T14:44:33Z</time>
      </trkpt>
      <trkpt lat="47.90785" lon="-3.70758">
        <ele>90.6</ele>
        <time>2020-06-07T14:44:34Z</time>
      </trkpt>
      <trkpt lat="47.90789" lon="-3.7076">
        <ele>90.7</ele>
        <time>2020-06-07T14:44:35Z</time>
      </trkpt>
      <trkpt lat="47.90794" lon="-3.70764">
        <ele>90.9</ele>
        <time>2020-06-07T14:44:36Z</time>
      </trkpt>
      <trkpt lat="47.90799" lon="-3.70768">
        <ele>91</ele>
        <time>2020-06-07T14:44:37Z</time>
      </trkpt>
      <trkpt lat="47.90804" lon="-3.70772">
        <ele>91.2</ele>
        <time>2020-06-07T14:44:38Z</time>
      </trkpt>
      <trkpt lat="47.9081" lon="-3.70774">
        <ele>91.3</ele>
        <time>2020-06-07T14:44:39Z</time>
      </trkpt>
      <trkpt lat="47.90814" lon="-3.70776">
        <ele>91.4</ele>
        <time>2020-06-07T14:44:40Z</time>
      </trkpt>
      <trkpt lat="47.90818" lon="-3.7078">
        <ele>91.6</ele>
        <time>2020-06-07T14:44:41Z</time>
      </trkpt>
      <trkpt lat="47.90821" lon="-3.70784">
        <ele>91.7</ele>
        <time>2020-06-07T14:44:42Z</time>
      </trkpt>
      <trkpt lat="47.90826" lon="-3.70787">
        <ele>91.9</ele>
        <time>2020-06-07T14:44:43Z</time>
      </trkpt>
      <trkpt lat="47.90831" lon="-3.70791">
        <ele>92</ele>
        <time>2020-06-07T14:44:44Z</time>
      </trkpt>
      <trkpt lat="47.90835" lon="-3.70795">
        <ele>92.2</ele>
        <time>2020-06-07T14:44:45Z</time>
      </trkpt>
      <trkpt lat="47.90839" lon="-3.70798">
        <ele>92.3</ele>
        <time>2020-06-07T14:44:46Z</time>
      </trkpt>
      <trkpt lat="47.90844" lon="-3.70802">
        <ele>92.4</ele>
        <time>2020-06-07T14:44:47Z</time>
      </trkpt>
      <trkpt lat="47.90848" lon="-3.70807">
        <ele>92.5</ele>
        <time>2020-06-07T14:44:48Z</time>
      </trkpt>
      <trkpt lat="47.90852" lon="-3.70811">
        <ele>92.6</ele>
        <time>2020-06-07T14:44:49Z</time>
      </trkpt>
      <trkpt lat="47.90857" lon="-3.70815">
        <ele>92.8</ele>
        <time>2020-06-07T14:44:50Z</time>
      </trkpt>
      <trkpt lat="47.9086" lon="-3.70819">
        <ele>92.9</ele>
        <time>2020-06-07T14:44:51Z</time>
      </trkpt>
      <trkpt lat="47.90865" lon="-3.70824">
        <ele>93.1</ele>
        <time>2020-06-07T14:44:52Z</time>
      </trkpt>
      <trkpt lat="47.9087" lon="-3.70828">
        <ele>93.2</ele>
        <time>2020-06-07T14:44:53Z</time>
      </trkpt>
      <trkpt lat="47.90873" lon="-3.70832">
        <ele>93.3</ele>
        <time>2020-06-07T14:44:54Z</time>
      </trkpt>
      <trkpt lat="47.90877" lon="-3.70836">
        <ele>93.5</ele>
        <time>2020-06-07T14:44:55Z</time>
      </trkpt>
      <trkpt lat="47.90882" lon="-3.70841">
        <ele>93.6</ele>
        <time>2020-06-07T14:44:56Z</time>
      </trkpt>
      <trkpt lat="47.90886" lon="-3.70844">
        <ele>93.7</ele>
        <time>2020-06-07T14:44:57Z</time>
      </trkpt>
      <trkpt lat="47.90891" lon="-3.70848">
        <ele>93.9</ele>
        <time>2020-06-07T14:44:58Z</time>
      </trkpt>
      <trkpt lat="47.90895" lon="-3.70852">
        <ele>94</ele>
        <time>2020-06-07T14:44:59Z</time>
      </trkpt>
      <trkpt lat="47.90898" lon="-3.70856">
        <ele>94.1</ele>
        <time>2020-06-07T14:45:00Z</time>
      </trkpt>
      <trkpt lat="47.90902" lon="-3.70861">
        <ele>94.3</ele>
        <time>2020-06-07T14:45:01Z</time>
      </trkpt>
      <trkpt lat="47.90907" lon="-3.70865">
        <ele>94.5</ele>
        <time>2020-06-07T14:45:02Z</time>
      </trkpt>
      <trkpt lat="47.90911" lon="-3.70868">
        <ele>94.6</ele>
        <time>2020-06-07T14:45:03Z</time>
      </trkpt>
      <trkpt lat="47.90914" lon="-3.70872">
        <ele>94.7</ele>
        <time>2020-06-07T14:45:04Z</time>
      </trkpt>
      <trkpt lat="47.90917" lon="-3.70875">
        <ele>94.8</ele>
        <time>2020-06-07T14:45:05Z</time>
      </trkpt>
      <trkpt lat="47.90922" lon="-3.70879">
        <ele>94.9</ele>
        <time>2020-06-07T14:45:06Z</time>
      </trkpt>
      <trkpt lat="47.90926" lon="-3.70883">
        <ele>95.1</ele>
        <time>2020-06-07T14:45:07Z</time>
      </trkpt>
      <trkpt lat="47.9093" lon="-3.70886">
        <ele>95.2</ele>
        <time>2020-06-07T14:45:08Z</time>
      </trkpt>
      <trkpt lat="47.90935" lon="-3.7089">
        <ele>95.3</ele>
        <time>2020-06-07T14:45:09Z</time>
      </trkpt>
      <trkpt lat="47.90937" lon="-3.70893">
        <ele>95.4</ele>
        <time>2020-06-07T14:45:10Z</time>
      </trkpt>
      <trkpt lat="47.90941" lon="-3.70897">
        <ele>95.5</ele>
        <time>2020-06-07T14:45:11Z</time>
      </trkpt>
      <trkpt lat="47.90945" lon="-3.70901">
        <ele>95.6</ele>
        <time>2020-06-07T14:45:12Z</time>
      </trkpt>
      <trkpt lat="47.90947" lon="-3.70906">
        <ele>95.8</ele>
        <time>2020-06-07T14:45:13Z</time>
      </trkpt>
      <trkpt lat="47.90951" lon="-3.7091">
        <ele>95.9</ele>
        <time>2020-06-07T14:45:14Z</time>
      </trkpt>
      <trkpt lat="47.90955" lon="-3.70914">
        <ele>96</ele>
        <time>2020-06-07T14:45:15Z</time>
      </trkpt>
      <trkpt lat="47.90959" lon="-3.70916">
        <ele>96.1</ele>
        <time>2020-06-07T14:45:16Z</time>
      </trkpt>
      <trkpt lat="47.90964" lon="-3.7092">
        <ele>96.2</ele>
        <time>2020-06-07T14:45:17Z</time>
      </trkpt>
      <trkpt lat="47.90968" lon="-3.70922">
        <ele>96.3</ele>
        <time>2020-06-07T14:45:18Z</time>
      </trkpt>
      <trkpt lat="47.90971" lon="-3.70927">
        <ele>96.4</ele>
        <time>2020-06-07T14:45:19Z</time>
      </trkpt>
      <trkpt lat="47.90975" lon="-3.70932">
        <ele>96.5</ele>
        <time>2020-06-07T14:45:20Z</time>
      </trkpt>
      <trkpt lat="47.90979" lon="-3.70935">
        <ele>96.6</ele>
        <time>2020-06-07T14:45:21Z</time>
      </trkpt>
      <trkpt lat="47.90983" lon="-3.70938">
        <ele>96.7</ele>
        <time>2020-06-07T14:45:22Z</time>
      </trkpt>
      <trkpt lat="47.90986" lon="-3.70941">
        <ele>96.8</ele>
        <time>2020-06-07T14:45:23Z</time>
      </trkpt>
      <trkpt lat="47.9099" lon="-3.70943">
        <ele>96.9</ele>
        <time>2020-06-07T14:45:24Z</time>
      </trkpt>
      <trkpt lat="47.90994" lon="-3.70946">
        <ele>97</ele>
        <time>2020-06-07T14:45:25Z</time>
      </trkpt>
      <trkpt lat="47.90997" lon="-3.70949">
        <ele>97.1</ele>
        <time>2020-06-07T14:45:26Z</time>
      </trkpt>
      <trkpt lat="47.91002" lon="-3.70953">
        <ele>97.3</ele>
        <time>2020-06-07T14:45:27Z</time>
      </trkpt>
      <trkpt lat="47.91006" lon="-3.70956">
        <ele>97.4</ele>
        <time>2020-06-07T14:45:28Z</time>
      </trkpt>
      <trkpt lat="47.9101" lon="-3.70959">
        <ele>97.5</ele>
        <time>2020-06-07T14:45:29Z</time>
      </trkpt>
      <trkpt lat="47.91014" lon="-3.70963">
        <ele>97.6</ele>
        <time>2020-06-07T14:45:30Z</time>
      </trkpt>
      <trkpt lat="47.91019" lon="-3.70969">
        <ele>97.8</ele>
        <time>2020-06-07T14:45:31Z</time>
      </trkpt>
      <trkpt lat="47.91022" lon="-3.70973">
        <ele>97.8</ele>
        <time>2020-06-07T14:45:32Z</time>
      </trkpt>
      <trkpt lat="47.91026" lon="-3.70977">
        <ele>98</ele>
        <time>2020-06-07T14:45:33Z</time>
      </trkpt>
      <trkpt lat="47.9103" lon="-3.70981">
        <ele>98.1</ele>
        <time>2020-06-07T14:45:34Z</time>
      </trkpt>
      <trkpt lat="47.91033" lon="-3.70983">
        <ele>98.2</ele>
        <time>2020-06-07T14:45:35Z</time>
      </trkpt>
      <trkpt lat="47.91037" lon="-3.70985">
        <ele>98.3</ele>
        <time>2020-06-07T14:45:36Z</time>
      </trkpt>
      <trkpt lat="47.9104" lon="-3.70988">
        <ele>98.4</ele>
        <time>2020-06-07T14:45:37Z</time>
      </trkpt>
      <trkpt lat="47.91043" lon="-3.70991">
        <ele>98.5</ele>
        <time>2020-06-07T14:45:38Z</time>
      </trkpt>
      <trkpt lat="47.91047" lon="-3.70995">
        <ele>98.6</ele>
        <time>2020-06-07T14:45:39Z</time>
      </trkpt>
      <trkpt lat="47.91051" lon="-3.71">
        <ele>98.7</ele>
        <time>2020-06-07T14:45:40Z</time>
      </trkpt>
      <trkpt lat="47.91055" lon="-3.71004">
        <ele>98.8</ele>
        <time>2020-06-07T14:45:41Z</time>
      </trkpt>
      <trkpt lat="47.91059" lon="-3.71008">
        <ele>99</ele>
        <time>2020-06-07T14:45:42Z</time>
      </trkpt>
      <trkpt lat="47.91063" lon="-3.71013">
        <ele>99.1</ele>
        <time>2020-06-07T14:45:43Z</time>
      </trkpt>
      <trkpt lat="47.91067" lon="-3.71017">
        <ele>99.2</ele>
        <time>2020-06-07T14:45:44Z</time>
      </trkpt>
      <trkpt lat="47.91072" lon="-3.71022">
        <ele>99.4</ele>
        <time>2020-06-07T14:45:45Z</time>
      </trkpt>
      <trkpt lat="47.91076" lon="-3.71026">
        <ele>99.5</ele>
        <time>2020-06-07T14:45:46Z</time>
      </trkpt>
      <trkpt lat="47.9108" lon="-3.7103">
        <ele>99.5</ele>
        <time>2020-06-07T14:45:47Z</time>
      </trkpt>
      <trkpt lat="47.91084" lon="-3.71034">
        <ele>99.6</ele>
        <time>2020-06-07T14:45:48Z</time>
      </trkpt>
      <trkpt lat="47.91088" lon="-3.71037">
        <ele>99.7</ele>
        <time>2020-06-07T14:45:49Z</time>
      </trkpt>
      <trkpt lat="47.91092" lon="-3.7104">
        <ele>99.7</ele>
        <time>2020-06-07T14:45:50Z</time>
      </trkpt>
      <trkpt lat="47.91098" lon="-3.71044">
        <ele>99.8</ele>
        <time>2020-06-07T14:45:51Z</time>
      </trkpt>
      <trkpt lat="47.91101" lon="-3.71048">
        <ele>99.9</ele>
        <time>2020-06-07T14:45:52Z</time>
      </trkpt>
      <trkpt lat="47.91103" lon="-3.7105">
        <ele>100</ele>
        <time>2020-06-07T14:45:53Z</time>
      </trkpt>
      <trkpt lat="47.91107" lon="-3.71055">
        <ele>100</ele>
        <time>2020-06-07T14:45:54Z</time>
      </trkpt>
      <trkpt lat="47.9111" lon="-3.71058">
        <ele>100.1</ele>
        <time>2020-06-07T14:45:55Z</time>
      </trkpt>
      <trkpt lat="47.91113" lon="-3.7106">
        <ele>100.1</ele>
        <time>2020-06-07T14:45:56Z</time>
      </trkpt>
      <trkpt lat="47.91117" lon="-3.71064">
        <ele>100.2</ele>
        <time>2020-06-07T14:45:57Z</time>
      </trkpt>
      <trkpt lat="47.9112" lon="-3.71068">
        <ele>100.2</ele>
        <time>2020-06-07T14:45:58Z</time>
      </trkpt>
      <trkpt lat="47.91123" lon="-3.71073">
        <ele>100.2</ele>
        <time>2020-06-07T14:45:59Z</time>
      </trkpt>
      <trkpt lat="47.91127" lon="-3.71078">
        <ele>100.2</ele>
        <time>2020-06-07T14:46:00Z</time>
      </trkpt>
      <trkpt lat="47.9113" lon="-3.71081">
        <ele>100.2</ele>
        <time>2020-06-07T14:46:01Z</time>
      </trkpt>
      <trkpt lat="47.91134" lon="-3.71083">
        <ele>100.2</ele>
        <time>2020-06-07T14:46:02Z</time>
      </trkpt>
      <trkpt lat="47.91136" lon="-3.71083">
        <ele>100.3</ele>
        <time>2020-06-07T14:46:03Z</time>
      </trkpt>
      <trkpt lat="47.91141" lon="-3.71084">
        <ele>100.3</ele>
        <time>2020-06-07T14:46:04Z</time>
      </trkpt>
      <trkpt lat="47.91147" lon="-3.71085">
        <ele>100.3</ele>
        <time>2020-06-07T14:46:05Z</time>
      </trkpt>
      <trkpt lat="47.91152" lon="-3.71085">
        <ele>100.3</ele>
        <time>2020-06-07T14:46:06Z</time>
      </trkpt>
      <trkpt lat="47.91155" lon="-3.71084">
        <ele>100.2</ele>
        <time>2020-06-07T14:46:07Z</time>
      </trkpt>
      <trkpt lat="47.9116" lon="-3.71083">
        <ele>100.2</ele>
        <time>2020-06-07T14:46:08Z</time>
      </trkpt>
      <trkpt lat="47.91166" lon="-3.71081">
        <ele>100.1</ele>
        <time>2020-06-07T14:46:09Z</time>
      </trkpt>
      <trkpt lat="47.91171" lon="-3.71078">
        <ele>100.1</ele>
        <time>2020-06-07T14:46:10Z</time>
      </trkpt>
      <trkpt lat="47.91176" lon="-3.71075">
        <ele>100</ele>
        <time>2020-06-07T14:46:11Z</time>
      </trkpt>
      <trkpt lat="47.9118" lon="-3.71072">
        <ele>100</ele>
        <time>2020-06-07T14:46:12Z</time>
      </trkpt>
      <trkpt lat="47.91185" lon="-3.7107">
        <ele>100</ele>
        <time>2020-06-07T14:46:13Z</time>
      </trkpt>
      <trkpt lat="47.91189" lon="-3.71069">
        <ele>100</ele>
        <time>2020-06-07T14:46:14Z</time>
      </trkpt>
      <trkpt lat="47.91194" lon="-3.71066">
        <ele>100</ele>
        <time>2020-06-07T14:46:15Z</time>
      </trkpt>
      <trkpt lat="47.91198" lon="-3.71064">
        <ele>100</ele>
        <time>2020-06-07T14:46:16Z</time>
      </trkpt>
      <trkpt lat="47.91202" lon="-3.71062">
        <ele>100</ele>
        <time>2020-06-07T14:46:17Z</time>
      </trkpt>
      <trkpt lat="47.91206" lon="-3.7106">
        <ele>100</ele>
        <time>2020-06-07T14:46:18Z</time>
      </trkpt>
      <trkpt lat="47.91211" lon="-3.71057">
        <ele>100</ele>
        <time>2020-06-07T14:46:19Z</time>
      </trkpt>
      <trkpt lat="47.91216" lon="-3.71054">
        <ele>100</ele>
        <time>2020-06-07T14:46:20Z</time>
      </trkpt>
      <trkpt lat="47.9122" lon="-3.71052">
        <ele>100</ele>
        <time>2020-06-07T14:46:21Z</time>
      </trkpt>
      <trkpt lat="47.91225" lon="-3.7105">
        <ele>100</ele>
        <time>2020-06-07T14:46:22Z</time>
      </trkpt>
      <trkpt lat="47.91229" lon="-3.71048">
        <ele>100</ele>
        <time>2020-06-07T14:46:23Z</time>
      </trkpt>
      <trkpt lat="47.91234" lon="-3.71046">
        <ele>100</ele>
        <time>2020-06-07T14:46:24Z</time>
      </trkpt>
      <trkpt lat="47.91239" lon="-3.71045">
        <ele>100.1</ele>
        <time>2020-06-07T14:46:25Z</time>
      </trkpt>
      <trkpt lat="47.91244" lon="-3.71043">
        <ele>100.1</ele>
        <time>2020-06-07T14:46:26Z</time>
      </trkpt>
      <trkpt lat="47.91249" lon="-3.71041">
        <ele>100.1</ele>
        <time>2020-06-07T14:46:27Z</time>
      </trkpt>
      <trkpt lat="47.91253" lon="-3.71039">
        <ele>100.1</ele>
        <time>2020-06-07T14:46:28Z</time>
      </trkpt>
      <trkpt lat="47.91258" lon="-3.71037">
        <ele>100.1</ele>
        <time>2020-06-07T14:46:29Z</time>
      </trkpt>
      <trkpt lat="47.91264" lon="-3.71034">
        <ele>100.1</ele>
        <time>2020-06-07T14:46:30Z</time>
      </trkpt>
      <trkpt lat="47.91269" lon="-3.71032">
        <ele>100.1</ele>
        <time>2020-06-07T14:46:31Z</time>
      </trkpt>
      <trkpt lat="47.91274" lon="-3.7103">
        <ele>100</ele>
        <time>2020-06-07T14:46:32Z</time>
      </trkpt>
      <trkpt lat="47.9128" lon="-3.71028">
        <ele>100</ele>
        <time>2020-06-07T14:46:33Z</time>
      </trkpt>
      <trkpt lat="47.91286" lon="-3.71027">
        <ele>100</ele>
        <time>2020-06-07T14:46:34Z</time>
      </trkpt>
      <trkpt lat="47.91291" lon="-3.71025">
        <ele>100</ele>
        <time>2020-06-07T14:46:35Z</time>
      </trkpt>
      <trkpt lat="47.91297" lon="-3.71024">
        <ele>100.1</ele>
        <time>2020-06-07T14:46:36Z</time>
      </trkpt>
      <trkpt lat="47.91302" lon="-3.71023">
        <ele>100.1</ele>
        <time>2020-06-07T14:46:37Z</time>
      </trkpt>
      <trkpt lat="47.91307" lon="-3.71022">
        <ele>100.1</ele>
        <time>2020-06-07T14:46:38Z</time>
      </trkpt>
      <trkpt lat="47.91312" lon="-3.7102">
        <ele>100.1</ele>
        <time>2020-06-07T14:46:39Z</time>
      </trkpt>
      <trkpt lat="47.91316" lon="-3.71019">
        <ele>100.1</ele>
        <time>2020-06-07T14:46:40Z</time>
      </trkpt>
      <trkpt lat="47.91321" lon="-3.71018">
        <ele>100.1</ele>
        <time>2020-06-07T14:46:41Z</time>
      </trkpt>
      <trkpt lat="47.91326" lon="-3.71017">
        <ele>100</ele>
        <time>2020-06-07T14:46:42Z</time>
      </trkpt>
      <trkpt lat="47.91332" lon="-3.71016">
        <ele>99.9</ele>
        <time>2020-06-07T14:46:43Z</time>
      </trkpt>
      <trkpt lat="47.91338" lon="-3.71015">
        <ele>99.9</ele>
        <time>2020-06-07T14:46:44Z</time>
      </trkpt>
      <trkpt lat="47.91343" lon="-3.71013">
        <ele>99.8</ele>
        <time>2020-06-07T14:46:45Z</time>
      </trkpt>
      <trkpt lat="47.91347" lon="-3.71011">
        <ele>99.8</ele>
        <time>2020-06-07T14:46:46Z</time>
      </trkpt>
      <trkpt lat="47.91351" lon="-3.71011">
        <ele>99.7</ele>
        <time>2020-06-07T14:46:47Z</time>
      </trkpt>
      <trkpt lat="47.91357" lon="-3.71008">
        <ele>99.6</ele>
        <time>2020-06-07T14:46:48Z</time>
      </trkpt>
      <trkpt lat="47.91361" lon="-3.71007">
        <ele>99.5</ele>
        <time>2020-06-07T14:46:49Z</time>
      </trkpt>
      <trkpt lat="47.91365" lon="-3.71005">
        <ele>99.4</ele>
        <time>2020-06-07T14:46:50Z</time>
      </trkpt>
      <trkpt lat="47.91368" lon="-3.71006">
        <ele>99.3</ele>
        <time>2020-06-07T14:46:51Z</time>
      </trkpt>
      <trkpt lat="47.9137" lon="-3.71006">
        <ele>99.2</ele>
        <time>2020-06-07T14:46:52Z</time>
      </trkpt>
      <trkpt lat="47.91371" lon="-3.71006">
        <ele>99.2</ele>
        <time>2020-06-07T14:46:53Z</time>
      </trkpt>
      <trkpt lat="47.91372" lon="-3.71004">
        <ele>99.1</ele>
        <time>2020-06-07T14:46:54Z</time>
      </trkpt>
      <trkpt lat="47.91371" lon="-3.71004">
        <ele>99.1</ele>
        <time>2020-06-07T14:46:55Z</time>
      </trkpt>
      <trkpt lat="47.9137" lon="-3.71005">
        <ele>99</ele>
        <time>2020-06-07T14:46:56Z</time>
      </trkpt>
      <trkpt lat="47.9137" lon="-3.71004">
        <ele>99</ele>
        <time>2020-06-07T14:46:57Z</time>
      </trkpt>
      <trkpt lat="47.9137" lon="-3.71004">
        <ele>99</ele>
        <time>2020-06-07T14:46:58Z</time>
      </trkpt>
      <trkpt lat="47.9137" lon="-3.71005">
        <ele>99</ele>
        <time>2020-06-07T14:46:59Z</time>
      </trkpt>
      <trkpt lat="47.9137" lon="-3.71004">
        <ele>99</ele>
        <time>2020-06-07T14:47:00Z</time>
      </trkpt>
      <trkpt lat="47.9137" lon="-3.71003">
        <ele>99</ele>
        <time>2020-06-07T14:47:01Z</time>
      </trkpt>
      <trkpt lat="47.9137" lon="-3.71003">
        <ele>99</ele>
        <time>2020-06-07T14:47:02Z</time>
      </trkpt>
      <trkpt lat="47.91369" lon="-3.71003">
        <ele>98.9</ele>
        <time>2020-06-07T14:47:03Z</time>
      </trkpt>
      <trkpt lat="47.91369" lon="-3.71003">
        <ele>98.9</ele>
        <time>2020-06-07T14:47:04Z</time>
      </trkpt>
      <trkpt lat="47.91369" lon="-3.71003">
        <ele>98.9</ele>
        <time>2020-06-07T14:47:05Z</time>
      </trkpt>
      <trkpt lat="47.91369" lon="-3.71003">
        <ele>98.9</ele>
        <time>2020-06-07T14:47:06Z</time>
      </trkpt>
      <trkpt lat="47.91369" lon="-3.71003">
        <ele>98.9</ele>
        <time>2020-06-07T14:47:07Z</time>
      </trkpt>
      <trkpt lat="47.91368" lon="-3.71003">
        <ele>98.9</ele>
        <time>2020-06-07T14:47:08Z</time>
      </trkpt>
      <trkpt lat="47.91369" lon="-3.71004">
        <ele>98.9</ele>
        <time>2020-06-07T14:47:09Z</time>
      </trkpt>
      <trkpt lat="47.91369" lon="-3.71005">
        <ele>98.9</ele>
        <time>2020-06-07T14:47:10Z</time>
      </trkpt>
      <trkpt lat="47.9137" lon="-3.71006">
        <ele>98.8</ele>
        <time>2020-06-07T14:47:11Z</time>
      </trkpt>
      <trkpt lat="47.9137" lon="-3.71007">
        <ele>98.8</ele>
        <time>2020-06-07T14:47:12Z</time>
      </trkpt>
      <trkpt lat="47.91371" lon="-3.71007">
        <ele>98.8</ele>
        <time>2020-06-07T14:47:46Z</time>
      </trkpt>
      <trkpt lat="47.91371" lon="-3.71008">
        <ele>98.7</ele>
        <time>2020-06-07T14:47:47Z</time>
      </trkpt>
      <trkpt lat="47.91374" lon="-3.71006">
        <ele>98.6</ele>
        <time>2020-06-07T14:47:48Z</time>
      </trkpt>
      <trkpt lat="47.91377" lon="-3.71004">
        <ele>98.5</ele>
        <time>2020-06-07T14:47:49Z</time>
      </trkpt>
      <trkpt lat="47.91382" lon="-3.71002">
        <ele>98.3</ele>
        <time>2020-06-07T14:47:50Z</time>
      </trkpt>
      <trkpt lat="47.91387" lon="-3.71">
        <ele>98.1</ele>
        <time>2020-06-07T14:47:51Z</time>
      </trkpt>
      <trkpt lat="47.91391" lon="-3.70999">
        <ele>97.9</ele>
        <time>2020-06-07T14:47:52Z</time>
      </trkpt>
      <trkpt lat="47.91397" lon="-3.70997">
        <ele>97.6</ele>
        <time>2020-06-07T14:47:53Z</time>
      </trkpt>
      <trkpt lat="47.91402" lon="-3.70996">
        <ele>97.4</ele>
        <time>2020-06-07T14:47:54Z</time>
      </trkpt>
      <trkpt lat="47.91407" lon="-3.70994">
        <ele>97.1</ele>
        <time>2020-06-07T14:47:55Z</time>
      </trkpt>
      <trkpt lat="47.91412" lon="-3.70991">
        <ele>96.8</ele>
        <time>2020-06-07T14:47:56Z</time>
      </trkpt>
      <trkpt lat="47.91418" lon="-3.7099">
        <ele>96.5</ele>
        <time>2020-06-07T14:47:57Z</time>
      </trkpt>
      <trkpt lat="47.91424" lon="-3.70988">
        <ele>96.2</ele>
        <time>2020-06-07T14:47:58Z</time>
      </trkpt>
      <trkpt lat="47.91431" lon="-3.70986">
        <ele>95.8</ele>
        <time>2020-06-07T14:47:59Z</time>
      </trkpt>
      <trkpt lat="47.91439" lon="-3.70983">
        <ele>95.3</ele>
        <time>2020-06-07T14:48:00Z</time>
      </trkpt>
      <trkpt lat="47.91447" lon="-3.7098">
        <ele>94.8</ele>
        <time>2020-06-07T14:48:01Z</time>
      </trkpt>
      <trkpt lat="47.91455" lon="-3.70978">
        <ele>94.3</ele>
        <time>2020-06-07T14:48:02Z</time>
      </trkpt>
      <trkpt lat="47.91463" lon="-3.70975">
        <ele>93.9</ele>
        <time>2020-06-07T14:48:03Z</time>
      </trkpt>
      <trkpt lat="47.91473" lon="-3.70972">
        <ele>93.5</ele>
        <time>2020-06-07T14:48:04Z</time>
      </trkpt>
      <trkpt lat="47.91483" lon="-3.70969">
        <ele>93.3</ele>
        <time>2020-06-07T14:48:05Z</time>
      </trkpt>
      <trkpt lat="47.91492" lon="-3.70966">
        <ele>93.1</ele>
        <time>2020-06-07T14:48:06Z</time>
      </trkpt>
      <trkpt lat="47.91501" lon="-3.70964">
        <ele>93.1</ele>
        <time>2020-06-07T14:48:07Z</time>
      </trkpt>
      <trkpt lat="47.91511" lon="-3.70962">
        <ele>93.2</ele>
        <time>2020-06-07T14:48:08Z</time>
      </trkpt>
      <trkpt lat="47.9152" lon="-3.7096">
        <ele>93.3</ele>
        <time>2020-06-07T14:48:09Z</time>
      </trkpt>
      <trkpt lat="47.91529" lon="-3.70958">
        <ele>93.4</ele>
        <time>2020-06-07T14:48:10Z</time>
      </trkpt>
      <trkpt lat="47.91537" lon="-3.70956">
        <ele>93.5</ele>
        <time>2020-06-07T14:48:11Z</time>
      </trkpt>
      <trkpt lat="47.91545" lon="-3.70956">
        <ele>93.7</ele>
        <time>2020-06-07T14:48:12Z</time>
      </trkpt>
      <trkpt lat="47.91552" lon="-3.70955">
        <ele>93.9</ele>
        <time>2020-06-07T14:48:13Z</time>
      </trkpt>
      <trkpt lat="47.9156" lon="-3.70954">
        <ele>94.2</ele>
        <time>2020-06-07T14:48:14Z</time>
      </trkpt>
      <trkpt lat="47.91567" lon="-3.70954">
        <ele>94.4</ele>
        <time>2020-06-07T14:48:15Z</time>
      </trkpt>
      <trkpt lat="47.91574" lon="-3.70953">
        <ele>94.7</ele>
        <time>2020-06-07T14:48:16Z</time>
      </trkpt>
      <trkpt lat="47.9158" lon="-3.70953">
        <ele>94.9</ele>
        <time>2020-06-07T14:48:17Z</time>
      </trkpt>
      <trkpt lat="47.91586" lon="-3.70952">
        <ele>95.1</ele>
        <time>2020-06-07T14:48:18Z</time>
      </trkpt>
      <trkpt lat="47.91592" lon="-3.70952">
        <ele>95.4</ele>
        <time>2020-06-07T14:48:19Z</time>
      </trkpt>
      <trkpt lat="47.91598" lon="-3.70952">
        <ele>95.6</ele>
        <time>2020-06-07T14:48:20Z</time>
      </trkpt>
      <trkpt lat="47.91604" lon="-3.70951">
        <ele>95.8</ele>
        <time>2020-06-07T14:48:21Z</time>
      </trkpt>
      <trkpt lat="47.91609" lon="-3.70951">
        <ele>96</ele>
        <time>2020-06-07T14:48:22Z</time>
      </trkpt>
      <trkpt lat="47.91614" lon="-3.70951">
        <ele>96.1</ele>
        <time>2020-06-07T14:48:23Z</time>
      </trkpt>
      <trkpt lat="47.9162" lon="-3.70951">
        <ele>96.2</ele>
        <time>2020-06-07T14:48:24Z</time>
      </trkpt>
      <trkpt lat="47.91624" lon="-3.70952">
        <ele>96.3</ele>
        <time>2020-06-07T14:48:25Z</time>
      </trkpt>
      <trkpt lat="47.91629" lon="-3.70953">
        <ele>96.4</ele>
        <time>2020-06-07T14:48:26Z</time>
      </trkpt>
      <trkpt lat="47.91634" lon="-3.70953">
        <ele>96.5</ele>
        <time>2020-06-07T14:48:27Z</time>
      </trkpt>
      <trkpt lat="47.91639" lon="-3.70953">
        <ele>96.6</ele>
        <time>2020-06-07T14:48:28Z</time>
      </trkpt>
      <trkpt lat="47.91643" lon="-3.70954">
        <ele>96.7</ele>
        <time>2020-06-07T14:48:29Z</time>
      </trkpt>
      <trkpt lat="47.91649" lon="-3.70954">
        <ele>96.7</ele>
        <time>2020-06-07T14:48:30Z</time>
      </trkpt>
      <trkpt lat="47.91654" lon="-3.70954">
        <ele>96.7</ele>
        <time>2020-06-07T14:48:31Z</time>
      </trkpt>
      <trkpt lat="47.91659" lon="-3.70954">
        <ele>96.7</ele>
        <time>2020-06-07T14:48:32Z</time>
      </trkpt>
      <trkpt lat="47.91663" lon="-3.70954">
        <ele>96.7</ele>
        <time>2020-06-07T14:48:33Z</time>
      </trkpt>
      <trkpt lat="47.91667" lon="-3.70954">
        <ele>96.7</ele>
        <time>2020-06-07T14:48:34Z</time>
      </trkpt>
      <trkpt lat="47.91673" lon="-3.70954">
        <ele>96.7</ele>
        <time>2020-06-07T14:48:35Z</time>
      </trkpt>
      <trkpt lat="47.91677" lon="-3.70954">
        <ele>96.7</ele>
        <time>2020-06-07T14:48:36Z</time>
      </trkpt>
      <trkpt lat="47.91683" lon="-3.70952">
        <ele>96.7</ele>
        <time>2020-06-07T14:48:37Z</time>
      </trkpt>
      <trkpt lat="47.9169" lon="-3.70952">
        <ele>96.6</ele>
        <time>2020-06-07T14:48:38Z</time>
      </trkpt>
      <trkpt lat="47.91695" lon="-3.70951">
        <ele>96.6</ele>
        <time>2020-06-07T14:48:39Z</time>
      </trkpt>
      <trkpt lat="47.91701" lon="-3.70953">
        <ele>96.6</ele>
        <time>2020-06-07T14:48:40Z</time>
      </trkpt>
      <trkpt lat="47.91707" lon="-3.70954">
        <ele>96.5</ele>
        <time>2020-06-07T14:48:41Z</time>
      </trkpt>
      <trkpt lat="47.91713" lon="-3.70953">
        <ele>96.4</ele>
        <time>2020-06-07T14:48:42Z</time>
      </trkpt>
      <trkpt lat="47.9172" lon="-3.70952">
        <ele>96.4</ele>
        <time>2020-06-07T14:48:43Z</time>
      </trkpt>
      <trkpt lat="47.91727" lon="-3.70951">
        <ele>96.4</ele>
        <time>2020-06-07T14:48:44Z</time>
      </trkpt>
      <trkpt lat="47.91735" lon="-3.7095">
        <ele>96.4</ele>
        <time>2020-06-07T14:48:45Z</time>
      </trkpt>
      <trkpt lat="47.91741" lon="-3.70949">
        <ele>96.4</ele>
        <time>2020-06-07T14:48:46Z</time>
      </trkpt>
      <trkpt lat="47.91747" lon="-3.70949">
        <ele>96.4</ele>
        <time>2020-06-07T14:48:47Z</time>
      </trkpt>
      <trkpt lat="47.91753" lon="-3.7095">
        <ele>96.4</ele>
        <time>2020-06-07T14:48:48Z</time>
      </trkpt>
      <trkpt lat="47.91758" lon="-3.7095">
        <ele>96.4</ele>
        <time>2020-06-07T14:48:49Z</time>
      </trkpt>
      <trkpt lat="47.91765" lon="-3.7095">
        <ele>96.4</ele>
        <time>2020-06-07T14:48:50Z</time>
      </trkpt>
      <trkpt lat="47.9177" lon="-3.70951">
        <ele>96.3</ele>
        <time>2020-06-07T14:48:51Z</time>
      </trkpt>
      <trkpt lat="47.91776" lon="-3.70951">
        <ele>96.3</ele>
        <time>2020-06-07T14:48:52Z</time>
      </trkpt>
      <trkpt lat="47.91783" lon="-3.70951">
        <ele>96.3</ele>
        <time>2020-06-07T14:48:53Z</time>
      </trkpt>
      <trkpt lat="47.91791" lon="-3.7095">
        <ele>96.3</ele>
        <time>2020-06-07T14:48:54Z</time>
      </trkpt>
      <trkpt lat="47.91796" lon="-3.70949">
        <ele>96.3</ele>
        <time>2020-06-07T14:48:55Z</time>
      </trkpt>
      <trkpt lat="47.91803" lon="-3.70949">
        <ele>96.3</ele>
        <time>2020-06-07T14:48:56Z</time>
      </trkpt>
      <trkpt lat="47.91809" lon="-3.70949">
        <ele>96.4</ele>
        <time>2020-06-07T14:48:57Z</time>
      </trkpt>
      <trkpt lat="47.91815" lon="-3.70949">
        <ele>96.4</ele>
        <time>2020-06-07T14:48:58Z</time>
      </trkpt>
      <trkpt lat="47.91822" lon="-3.70949">
        <ele>96.5</ele>
        <time>2020-06-07T14:48:59Z</time>
      </trkpt>
      <trkpt lat="47.91829" lon="-3.70948">
        <ele>96.6</ele>
        <time>2020-06-07T14:49:00Z</time>
      </trkpt>
      <trkpt lat="47.91835" lon="-3.70948">
        <ele>96.7</ele>
        <time>2020-06-07T14:49:01Z</time>
      </trkpt>
      <trkpt lat="47.91842" lon="-3.70948">
        <ele>96.8</ele>
        <time>2020-06-07T14:49:02Z</time>
      </trkpt>
      <trkpt lat="47.91849" lon="-3.70948">
        <ele>97</ele>
        <time>2020-06-07T14:49:03Z</time>
      </trkpt>
      <trkpt lat="47.91856" lon="-3.70947">
        <ele>97.1</ele>
        <time>2020-06-07T14:49:04Z</time>
      </trkpt>
      <trkpt lat="47.91862" lon="-3.70947">
        <ele>97.2</ele>
        <time>2020-06-07T14:49:05Z</time>
      </trkpt>
      <trkpt lat="47.91868" lon="-3.70947">
        <ele>97.4</ele>
        <time>2020-06-07T14:49:06Z</time>
      </trkpt>
      <trkpt lat="47.91874" lon="-3.70947">
        <ele>97.5</ele>
        <time>2020-06-07T14:49:07Z</time>
      </trkpt>
      <trkpt lat="47.9188" lon="-3.70946">
        <ele>97.7</ele>
        <time>2020-06-07T14:49:08Z</time>
      </trkpt>
      <trkpt lat="47.91886" lon="-3.70946">
        <ele>97.9</ele>
        <time>2020-06-07T14:49:09Z</time>
      </trkpt>
      <trkpt lat="47.91891" lon="-3.70946">
        <ele>98.1</ele>
        <time>2020-06-07T14:49:10Z</time>
      </trkpt>
      <trkpt lat="47.91896" lon="-3.70947">
        <ele>98.3</ele>
        <time>2020-06-07T14:49:11Z</time>
      </trkpt>
      <trkpt lat="47.91901" lon="-3.70947">
        <ele>98.5</ele>
        <time>2020-06-07T14:49:12Z</time>
      </trkpt>
      <trkpt lat="47.91907" lon="-3.70948">
        <ele>98.7</ele>
        <time>2020-06-07T14:49:13Z</time>
      </trkpt>
      <trkpt lat="47.91911" lon="-3.70948">
        <ele>98.9</ele>
        <time>2020-06-07T14:49:14Z</time>
      </trkpt>
      <trkpt lat="47.91916" lon="-3.70947">
        <ele>99.1</ele>
        <time>2020-06-07T14:49:15Z</time>
      </trkpt>
      <trkpt lat="47.91921" lon="-3.70946">
        <ele>99.3</ele>
        <time>2020-06-07T14:49:16Z</time>
      </trkpt>
      <trkpt lat="47.91926" lon="-3.70946">
        <ele>99.5</ele>
        <time>2020-06-07T14:49:17Z</time>
      </trkpt>
      <trkpt lat="47.91931" lon="-3.70947">
        <ele>99.6</ele>
        <time>2020-06-07T14:49:18Z</time>
      </trkpt>
      <trkpt lat="47.91936" lon="-3.70947">
        <ele>99.8</ele>
        <time>2020-06-07T14:49:19Z</time>
      </trkpt>
      <trkpt lat="47.91941" lon="-3.70947">
        <ele>100</ele>
        <time>2020-06-07T14:49:20Z</time>
      </trkpt>
      <trkpt lat="47.91946" lon="-3.70947">
        <ele>100.2</ele>
        <time>2020-06-07T14:49:21Z</time>
      </trkpt>
      <trkpt lat="47.9195" lon="-3.70947">
        <ele>100.3</ele>
        <time>2020-06-07T14:49:22Z</time>
      </trkpt>
      <trkpt lat="47.91955" lon="-3.70947">
        <ele>100.5</ele>
        <time>2020-06-07T14:49:23Z</time>
      </trkpt>
      <trkpt lat="47.9196" lon="-3.70947">
        <ele>100.6</ele>
        <time>2020-06-07T14:49:24Z</time>
      </trkpt>
      <trkpt lat="47.91965" lon="-3.70948">
        <ele>100.8</ele>
        <time>2020-06-07T14:49:25Z</time>
      </trkpt>
      <trkpt lat="47.9197" lon="-3.70948">
        <ele>100.9</ele>
        <time>2020-06-07T14:49:26Z</time>
      </trkpt>
      <trkpt lat="47.91973" lon="-3.70949">
        <ele>101</ele>
        <time>2020-06-07T14:49:27Z</time>
      </trkpt>
      <trkpt lat="47.91976" lon="-3.70949">
        <ele>101.1</ele>
        <time>2020-06-07T14:49:28Z</time>
      </trkpt>
      <trkpt lat="47.91979" lon="-3.70949">
        <ele>101.2</ele>
        <time>2020-06-07T14:49:29Z</time>
      </trkpt>
      <trkpt lat="47.91983" lon="-3.7095">
        <ele>101.2</ele>
        <time>2020-06-07T14:49:30Z</time>
      </trkpt>
      <trkpt lat="47.91988" lon="-3.7095">
        <ele>101.3</ele>
        <time>2020-06-07T14:49:31Z</time>
      </trkpt>
      <trkpt lat="47.91993" lon="-3.70949">
        <ele>101.4</ele>
        <time>2020-06-07T14:49:32Z</time>
      </trkpt>
      <trkpt lat="47.91998" lon="-3.70949">
        <ele>101.5</ele>
        <time>2020-06-07T14:49:33Z</time>
      </trkpt>
      <trkpt lat="47.92003" lon="-3.70948">
        <ele>101.6</ele>
        <time>2020-06-07T14:49:34Z</time>
      </trkpt>
      <trkpt lat="47.92009" lon="-3.70948">
        <ele>101.7</ele>
        <time>2020-06-07T14:49:35Z</time>
      </trkpt>
      <trkpt lat="47.92012" lon="-3.70947">
        <ele>101.8</ele>
        <time>2020-06-07T14:49:36Z</time>
      </trkpt>
      <trkpt lat="47.92017" lon="-3.70948">
        <ele>101.8</ele>
        <time>2020-06-07T14:49:37Z</time>
      </trkpt>
      <trkpt lat="47.9202" lon="-3.70948">
        <ele>101.9</ele>
        <time>2020-06-07T14:49:38Z</time>
      </trkpt>
      <trkpt lat="47.92024" lon="-3.70948">
        <ele>101.9</ele>
        <time>2020-06-07T14:49:39Z</time>
      </trkpt>
      <trkpt lat="47.92028" lon="-3.70948">
        <ele>101.9</ele>
        <time>2020-06-07T14:49:40Z</time>
      </trkpt>
      <trkpt lat="47.92033" lon="-3.70948">
        <ele>101.9</ele>
        <time>2020-06-07T14:49:41Z</time>
      </trkpt>
      <trkpt lat="47.92037" lon="-3.70948">
        <ele>101.9</ele>
        <time>2020-06-07T14:49:42Z</time>
      </trkpt>
      <trkpt lat="47.9204" lon="-3.70948">
        <ele>101.8</ele>
        <time>2020-06-07T14:49:43Z</time>
      </trkpt>
      <trkpt lat="47.92045" lon="-3.70948">
        <ele>101.7</ele>
        <time>2020-06-07T14:49:44Z</time>
      </trkpt>
      <trkpt lat="47.92049" lon="-3.70947">
        <ele>101.6</ele>
        <time>2020-06-07T14:49:45Z</time>
      </trkpt>
      <trkpt lat="47.92055" lon="-3.70947">
        <ele>101.5</ele>
        <time>2020-06-07T14:49:46Z</time>
      </trkpt>
      <trkpt lat="47.9206" lon="-3.70947">
        <ele>101.3</ele>
        <time>2020-06-07T14:49:47Z</time>
      </trkpt>
      <trkpt lat="47.92066" lon="-3.70947">
        <ele>101.2</ele>
        <time>2020-06-07T14:49:48Z</time>
      </trkpt>
      <trkpt lat="47.92073" lon="-3.70947">
        <ele>100.9</ele>
        <time>2020-06-07T14:49:49Z</time>
      </trkpt>
      <trkpt lat="47.92079" lon="-3.70946">
        <ele>100.7</ele>
        <time>2020-06-07T14:49:50Z</time>
      </trkpt>
      <trkpt lat="47.92085" lon="-3.70945">
        <ele>100.5</ele>
        <time>2020-06-07T14:49:51Z</time>
      </trkpt>
      <trkpt lat="47.92092" lon="-3.70945">
        <ele>100.3</ele>
        <time>2020-06-07T14:49:52Z</time>
      </trkpt>
      <trkpt lat="47.92099" lon="-3.70945">
        <ele>100</ele>
        <time>2020-06-07T14:49:53Z</time>
      </trkpt>
      <trkpt lat="47.92107" lon="-3.70945">
        <ele>99.6</ele>
        <time>2020-06-07T14:49:54Z</time>
      </trkpt>
      <trkpt lat="47.92115" lon="-3.70945">
        <ele>99.2</ele>
        <time>2020-06-07T14:49:55Z</time>
      </trkpt>
      <trkpt lat="47.92123" lon="-3.70946">
        <ele>98.8</ele>
        <time>2020-06-07T14:49:56Z</time>
      </trkpt>
      <trkpt lat="47.9213" lon="-3.70945">
        <ele>98.4</ele>
        <time>2020-06-07T14:49:57Z</time>
      </trkpt>
      <trkpt lat="47.92139" lon="-3.70945">
        <ele>98</ele>
        <time>2020-06-07T14:49:58Z</time>
      </trkpt>
      <trkpt lat="47.92147" lon="-3.70945">
        <ele>97.4</ele>
        <time>2020-06-07T14:49:59Z</time>
      </trkpt>
      <trkpt lat="47.92156" lon="-3.70945">
        <ele>96.9</ele>
        <time>2020-06-07T14:50:00Z</time>
      </trkpt>
      <trkpt lat="47.92165" lon="-3.70945">
        <ele>96.2</ele>
        <time>2020-06-07T14:50:01Z</time>
      </trkpt>
      <trkpt lat="47.92175" lon="-3.70945">
        <ele>95.5</ele>
        <time>2020-06-07T14:50:02Z</time>
      </trkpt>
      <trkpt lat="47.92184" lon="-3.70944">
        <ele>94.6</ele>
        <time>2020-06-07T14:50:03Z</time>
      </trkpt>
      <trkpt lat="47.92194" lon="-3.70942">
        <ele>93.7</ele>
        <time>2020-06-07T14:50:04Z</time>
      </trkpt>
      <trkpt lat="47.92204" lon="-3.70941">
        <ele>92.9</ele>
        <time>2020-06-07T14:50:05Z</time>
      </trkpt>
      <trkpt lat="47.92214" lon="-3.7094">
        <ele>92</ele>
        <time>2020-06-07T14:50:06Z</time>
      </trkpt>
      <trkpt lat="47.92225" lon="-3.70938">
        <ele>91.1</ele>
        <time>2020-06-07T14:50:07Z</time>
      </trkpt>
      <trkpt lat="47.92236" lon="-3.70933">
        <ele>90.1</ele>
        <time>2020-06-07T14:50:08Z</time>
      </trkpt>
      <trkpt lat="47.92247" lon="-3.70929">
        <ele>89.1</ele>
        <time>2020-06-07T14:50:09Z</time>
      </trkpt>
      <trkpt lat="47.92259" lon="-3.70924">
        <ele>88.1</ele>
        <time>2020-06-07T14:50:10Z</time>
      </trkpt>
      <trkpt lat="47.92271" lon="-3.70919">
        <ele>87.1</ele>
        <time>2020-06-07T14:50:11Z</time>
      </trkpt>
      <trkpt lat="47.92283" lon="-3.70915">
        <ele>85.9</ele>
        <time>2020-06-07T14:50:12Z</time>
      </trkpt>
      <trkpt lat="47.92295" lon="-3.7091">
        <ele>84.7</ele>
        <time>2020-06-07T14:50:13Z</time>
      </trkpt>
      <trkpt lat="47.92307" lon="-3.70905">
        <ele>83.5</ele>
        <time>2020-06-07T14:50:14Z</time>
      </trkpt>
      <trkpt lat="47.92319" lon="-3.709">
        <ele>82.3</ele>
        <time>2020-06-07T14:50:15Z</time>
      </trkpt>
      <trkpt lat="47.92331" lon="-3.70896">
        <ele>81.2</ele>
        <time>2020-06-07T14:50:16Z</time>
      </trkpt>
      <trkpt lat="47.92343" lon="-3.7089">
        <ele>80.1</ele>
        <time>2020-06-07T14:50:17Z</time>
      </trkpt>
      <trkpt lat="47.92356" lon="-3.70884">
        <ele>79</ele>
        <time>2020-06-07T14:50:18Z</time>
      </trkpt>
      <trkpt lat="47.92368" lon="-3.70878">
        <ele>78.1</ele>
        <time>2020-06-07T14:50:19Z</time>
      </trkpt>
      <trkpt lat="47.92381" lon="-3.70872">
        <ele>77.3</ele>
        <time>2020-06-07T14:50:20Z</time>
      </trkpt>
      <trkpt lat="47.92394" lon="-3.70865">
        <ele>76.7</ele>
        <time>2020-06-07T14:50:21Z</time>
      </trkpt>
      <trkpt lat="47.92406" lon="-3.70859">
        <ele>76.1</ele>
        <time>2020-06-07T14:50:22Z</time>
      </trkpt>
      <trkpt lat="47.92418" lon="-3.70853">
        <ele>75.6</ele>
        <time>2020-06-07T14:50:23Z</time>
      </trkpt>
      <trkpt lat="47.9243" lon="-3.70846">
        <ele>75.2</ele>
        <time>2020-06-07T14:50:24Z</time>
      </trkpt>
      <trkpt lat="47.92442" lon="-3.7084">
        <ele>74.8</ele>
        <time>2020-06-07T14:50:25Z</time>
      </trkpt>
      <trkpt lat="47.92453" lon="-3.70836">
        <ele>74.5</ele>
        <time>2020-06-07T14:50:26Z</time>
      </trkpt>
      <trkpt lat="47.92465" lon="-3.70832">
        <ele>74.4</ele>
        <time>2020-06-07T14:50:27Z</time>
      </trkpt>
      <trkpt lat="47.92476" lon="-3.70828">
        <ele>74.4</ele>
        <time>2020-06-07T14:50:28Z</time>
      </trkpt>
      <trkpt lat="47.92488" lon="-3.70825">
        <ele>74.5</ele>
        <time>2020-06-07T14:50:29Z</time>
      </trkpt>
      <trkpt lat="47.92499" lon="-3.70822">
        <ele>74.6</ele>
        <time>2020-06-07T14:50:30Z</time>
      </trkpt>
      <trkpt lat="47.92509" lon="-3.70819">
        <ele>74.8</ele>
        <time>2020-06-07T14:50:31Z</time>
      </trkpt>
      <trkpt lat="47.9252" lon="-3.70819">
        <ele>74.9</ele>
        <time>2020-06-07T14:50:32Z</time>
      </trkpt>
      <trkpt lat="47.9253" lon="-3.70818">
        <ele>75.1</ele>
        <time>2020-06-07T14:50:33Z</time>
      </trkpt>
      <trkpt lat="47.92539" lon="-3.70817">
        <ele>75.4</ele>
        <time>2020-06-07T14:50:34Z</time>
      </trkpt>
      <trkpt lat="47.92549" lon="-3.70818">
        <ele>75.7</ele>
        <time>2020-06-07T14:50:35Z</time>
      </trkpt>
      <trkpt lat="47.92558" lon="-3.70818">
        <ele>76.1</ele>
        <time>2020-06-07T14:50:36Z</time>
      </trkpt>
      <trkpt lat="47.92567" lon="-3.70819">
        <ele>76.4</ele>
        <time>2020-06-07T14:50:37Z</time>
      </trkpt>
      <trkpt lat="47.92575" lon="-3.70819">
        <ele>76.8</ele>
        <time>2020-06-07T14:50:38Z</time>
      </trkpt>
      <trkpt lat="47.92583" lon="-3.7082">
        <ele>77.2</ele>
        <time>2020-06-07T14:50:39Z</time>
      </trkpt>
      <trkpt lat="47.92591" lon="-3.7082">
        <ele>77.6</ele>
        <time>2020-06-07T14:50:40Z</time>
      </trkpt>
      <trkpt lat="47.92598" lon="-3.7082">
        <ele>78</ele>
        <time>2020-06-07T14:50:41Z</time>
      </trkpt>
      <trkpt lat="47.92605" lon="-3.7082">
        <ele>78.4</ele>
        <time>2020-06-07T14:50:42Z</time>
      </trkpt>
      <trkpt lat="47.92611" lon="-3.70819">
        <ele>78.8</ele>
        <time>2020-06-07T14:50:43Z</time>
      </trkpt>
      <trkpt lat="47.92618" lon="-3.70818">
        <ele>79.1</ele>
        <time>2020-06-07T14:50:44Z</time>
      </trkpt>
      <trkpt lat="47.92623" lon="-3.70816">
        <ele>79.5</ele>
        <time>2020-06-07T14:50:45Z</time>
      </trkpt>
      <trkpt lat="47.92629" lon="-3.70814">
        <ele>79.8</ele>
        <time>2020-06-07T14:50:46Z</time>
      </trkpt>
      <trkpt lat="47.92634" lon="-3.70813">
        <ele>80.1</ele>
        <time>2020-06-07T14:50:47Z</time>
      </trkpt>
      <trkpt lat="47.9264" lon="-3.70811">
        <ele>80.4</ele>
        <time>2020-06-07T14:50:48Z</time>
      </trkpt>
      <trkpt lat="47.92645" lon="-3.7081">
        <ele>80.7</ele>
        <time>2020-06-07T14:50:49Z</time>
      </trkpt>
      <trkpt lat="47.9265" lon="-3.70808">
        <ele>81</ele>
        <time>2020-06-07T14:50:50Z</time>
      </trkpt>
      <trkpt lat="47.92655" lon="-3.70806">
        <ele>81.3</ele>
        <time>2020-06-07T14:50:51Z</time>
      </trkpt>
      <trkpt lat="47.92658" lon="-3.70803">
        <ele>81.6</ele>
        <time>2020-06-07T14:50:52Z</time>
      </trkpt>
      <trkpt lat="47.92661" lon="-3.708">
        <ele>81.9</ele>
        <time>2020-06-07T14:50:53Z</time>
      </trkpt>
      <trkpt lat="47.92664" lon="-3.70798">
        <ele>82.1</ele>
        <time>2020-06-07T14:50:54Z</time>
      </trkpt>
      <trkpt lat="47.92667" lon="-3.70795">
        <ele>82.3</ele>
        <time>2020-06-07T14:50:55Z</time>
      </trkpt>
      <trkpt lat="47.9267" lon="-3.70791">
        <ele>82.5</ele>
        <time>2020-06-07T14:50:56Z</time>
      </trkpt>
      <trkpt lat="47.92673" lon="-3.70789">
        <ele>82.7</ele>
        <time>2020-06-07T14:50:57Z</time>
      </trkpt>
      <trkpt lat="47.92675" lon="-3.70784">
        <ele>83</ele>
        <time>2020-06-07T14:50:58Z</time>
      </trkpt>
      <trkpt lat="47.92678" lon="-3.70781">
        <ele>83.2</ele>
        <time>2020-06-07T14:50:59Z</time>
      </trkpt>
      <trkpt lat="47.92681" lon="-3.70779">
        <ele>83.3</ele>
        <time>2020-06-07T14:51:00Z</time>
      </trkpt>
      <trkpt lat="47.92683" lon="-3.70777">
        <ele>83.5</ele>
        <time>2020-06-07T14:51:01Z</time>
      </trkpt>
      <trkpt lat="47.92686" lon="-3.70774">
        <ele>83.7</ele>
        <time>2020-06-07T14:51:02Z</time>
      </trkpt>
      <trkpt lat="47.92688" lon="-3.7077">
        <ele>83.9</ele>
        <time>2020-06-07T14:51:03Z</time>
      </trkpt>
      <trkpt lat="47.9269" lon="-3.70767">
        <ele>84.1</ele>
        <time>2020-06-07T14:51:04Z</time>
      </trkpt>
      <trkpt lat="47.92692" lon="-3.70763">
        <ele>84.3</ele>
        <time>2020-06-07T14:51:05Z</time>
      </trkpt>
      <trkpt lat="47.92694" lon="-3.7076">
        <ele>84.4</ele>
        <time>2020-06-07T14:51:06Z</time>
      </trkpt>
      <trkpt lat="47.92696" lon="-3.70757">
        <ele>84.6</ele>
        <time>2020-06-07T14:51:07Z</time>
      </trkpt>
      <trkpt lat="47.92697" lon="-3.70756">
        <ele>84.7</ele>
        <time>2020-06-07T14:51:08Z</time>
      </trkpt>
      <trkpt lat="47.92698" lon="-3.70753">
        <ele>84.8</ele>
        <time>2020-06-07T14:51:09Z</time>
      </trkpt>
      <trkpt lat="47.92699" lon="-3.70753">
        <ele>84.8</ele>
        <time>2020-06-07T14:51:10Z</time>
      </trkpt>
      <trkpt lat="47.92698" lon="-3.70755">
        <ele>84.9</ele>
        <time>2020-06-07T14:51:11Z</time>
      </trkpt>
      <trkpt lat="47.92696" lon="-3.70756">
        <ele>85</ele>
        <time>2020-06-07T14:51:12Z</time>
      </trkpt>
      <trkpt lat="47.92696" lon="-3.70755">
        <ele>85</ele>
        <time>2020-06-07T14:51:13Z</time>
      </trkpt>
      <trkpt lat="47.92697" lon="-3.70754">
        <ele>85.1</ele>
        <time>2020-06-07T14:51:14Z</time>
      </trkpt>
      <trkpt lat="47.92697" lon="-3.70753">
        <ele>85.1</ele>
        <time>2020-06-07T14:51:15Z</time>
      </trkpt>
      <trkpt lat="47.92697" lon="-3.70753">
        <ele>85.1</ele>
        <time>2020-06-07T14:51:16Z</time>
      </trkpt>
      <trkpt lat="47.92697" lon="-3.70752">
        <ele>85.1</ele>
        <time>2020-06-07T14:51:17Z</time>
      </trkpt>
      <trkpt lat="47.92696" lon="-3.70752">
        <ele>85.1</ele>
        <time>2020-06-07T14:51:18Z</time>
      </trkpt>
      <trkpt lat="47.92696" lon="-3.70752">
        <ele>85.1</ele>
        <time>2020-06-07T14:51:19Z</time>
      </trkpt>
      <trkpt lat="47.92696" lon="-3.70752">
        <ele>85.1</ele>
        <time>2020-06-07T14:51:20Z</time>
      </trkpt>
      <trkpt lat="47.92702" lon="-3.70749">
        <ele>85.4</ele>
        <time>2020-06-07T14:51:47Z</time>
      </trkpt>
      <trkpt lat="47.92704" lon="-3.70746">
        <ele>85.5</ele>
        <time>2020-06-07T14:51:48Z</time>
      </trkpt>
      <trkpt lat="47.92706" lon="-3.70743">
        <ele>85.6</ele>
        <time>2020-06-07T14:51:49Z</time>
      </trkpt>
      <trkpt lat="47.9271" lon="-3.7074">
        <ele>85.7</ele>
        <time>2020-06-07T14:51:50Z</time>
      </trkpt>
      <trkpt lat="47.92711" lon="-3.70739">
        <ele>85.8</ele>
        <time>2020-06-07T14:51:51Z</time>
      </trkpt>
      <trkpt lat="47.92712" lon="-3.70736">
        <ele>86</ele>
        <time>2020-06-07T14:51:52Z</time>
      </trkpt>
      <trkpt lat="47.92716" lon="-3.70733">
        <ele>86.3</ele>
        <time>2020-06-07T14:51:53Z</time>
      </trkpt>
      <trkpt lat="47.92717" lon="-3.70732">
        <ele>86.4</ele>
        <time>2020-06-07T14:51:54Z</time>
      </trkpt>
      <trkpt lat="47.92719" lon="-3.70729">
        <ele>86.5</ele>
        <time>2020-06-07T14:51:55Z</time>
      </trkpt>
      <trkpt lat="47.92721" lon="-3.70727">
        <ele>86.4</ele>
        <time>2020-06-07T14:51:56Z</time>
      </trkpt>
      <trkpt lat="47.92724" lon="-3.70724">
        <ele>86.4</ele>
        <time>2020-06-07T14:51:57Z</time>
      </trkpt>
      <trkpt lat="47.92726" lon="-3.70719">
        <ele>86.3</ele>
        <time>2020-06-07T14:51:58Z</time>
      </trkpt>
      <trkpt lat="47.92728" lon="-3.70718">
        <ele>86.3</ele>
        <time>2020-06-07T14:51:59Z</time>
      </trkpt>
      <trkpt lat="47.9273" lon="-3.70714">
        <ele>86.3</ele>
        <time>2020-06-07T14:52:00Z</time>
      </trkpt>
      <trkpt lat="47.92733" lon="-3.70708">
        <ele>86.4</ele>
        <time>2020-06-07T14:52:01Z</time>
      </trkpt>
      <trkpt lat="47.92735" lon="-3.70702">
        <ele>86.4</ele>
        <time>2020-06-07T14:52:02Z</time>
      </trkpt>
      <trkpt lat="47.92736" lon="-3.70697">
        <ele>86.4</ele>
        <time>2020-06-07T14:52:03Z</time>
      </trkpt>
      <trkpt lat="47.92735" lon="-3.70691">
        <ele>86.4</ele>
        <time>2020-06-07T14:52:04Z</time>
      </trkpt>
      <trkpt lat="47.92736" lon="-3.70685">
        <ele>86.4</ele>
        <time>2020-06-07T14:52:05Z</time>
      </trkpt>
      <trkpt lat="47.92735" lon="-3.70679">
        <ele>86.4</ele>
        <time>2020-06-07T14:52:06Z</time>
      </trkpt>
      <trkpt lat="47.92735" lon="-3.70673">
        <ele>86.4</ele>
        <time>2020-06-07T14:52:07Z</time>
      </trkpt>
      <trkpt lat="47.92735" lon="-3.70667">
        <ele>86.4</ele>
        <time>2020-06-07T14:52:08Z</time>
      </trkpt>
      <trkpt lat="47.92734" lon="-3.70661">
        <ele>86.4</ele>
        <time>2020-06-07T14:52:09Z</time>
      </trkpt>
      <trkpt lat="47.92733" lon="-3.70655">
        <ele>86.5</ele>
        <time>2020-06-07T14:52:10Z</time>
      </trkpt>
      <trkpt lat="47.92731" lon="-3.7065">
        <ele>86.5</ele>
        <time>2020-06-07T14:52:11Z</time>
      </trkpt>
      <trkpt lat="47.92728" lon="-3.70644">
        <ele>86.5</ele>
        <time>2020-06-07T14:52:12Z</time>
      </trkpt>
      <trkpt lat="47.92725" lon="-3.70638">
        <ele>86.6</ele>
        <time>2020-06-07T14:52:13Z</time>
      </trkpt>
      <trkpt lat="47.92722" lon="-3.70634">
        <ele>86.6</ele>
        <time>2020-06-07T14:52:14Z</time>
      </trkpt>
      <trkpt lat="47.9272" lon="-3.70629">
        <ele>86.7</ele>
        <time>2020-06-07T14:52:15Z</time>
      </trkpt>
      <trkpt lat="47.92717" lon="-3.70624">
        <ele>86.7</ele>
        <time>2020-06-07T14:52:16Z</time>
      </trkpt>
      <trkpt lat="47.92716" lon="-3.7062">
        <ele>86.8</ele>
        <time>2020-06-07T14:52:17Z</time>
      </trkpt>
      <trkpt lat="47.92714" lon="-3.70615">
        <ele>86.9</ele>
        <time>2020-06-07T14:52:18Z</time>
      </trkpt>
      <trkpt lat="47.92713" lon="-3.70611">
        <ele>86.9</ele>
        <time>2020-06-07T14:52:19Z</time>
      </trkpt>
      <trkpt lat="47.92712" lon="-3.70605">
        <ele>87</ele>
        <time>2020-06-07T14:52:20Z</time>
      </trkpt>
      <trkpt lat="47.92713" lon="-3.70599">
        <ele>87.3</ele>
        <time>2020-06-07T14:52:21Z</time>
      </trkpt>
      <trkpt lat="47.92715" lon="-3.70594">
        <ele>87.4</ele>
        <time>2020-06-07T14:52:22Z</time>
      </trkpt>
      <trkpt lat="47.92717" lon="-3.7059">
        <ele>87.6</ele>
        <time>2020-06-07T14:52:23Z</time>
      </trkpt>
      <trkpt lat="47.92719" lon="-3.70585">
        <ele>87.7</ele>
        <time>2020-06-07T14:52:24Z</time>
      </trkpt>
      <trkpt lat="47.92722" lon="-3.70581">
        <ele>87.9</ele>
        <time>2020-06-07T14:52:25Z</time>
      </trkpt>
      <trkpt lat="47.92724" lon="-3.70578">
        <ele>88</ele>
        <time>2020-06-07T14:52:26Z</time>
      </trkpt>
      <trkpt lat="47.92726" lon="-3.70574">
        <ele>88.2</ele>
        <time>2020-06-07T14:52:27Z</time>
      </trkpt>
      <trkpt lat="47.92727" lon="-3.70571">
        <ele>88.3</ele>
        <time>2020-06-07T14:52:28Z</time>
      </trkpt>
      <trkpt lat="47.9273" lon="-3.70567">
        <ele>88.5</ele>
        <time>2020-06-07T14:52:29Z</time>
      </trkpt>
      <trkpt lat="47.92732" lon="-3.70563">
        <ele>88.7</ele>
        <time>2020-06-07T14:52:30Z</time>
      </trkpt>
      <trkpt lat="47.92734" lon="-3.70557">
        <ele>89</ele>
        <time>2020-06-07T14:52:31Z</time>
      </trkpt>
      <trkpt lat="47.92736" lon="-3.70554">
        <ele>89.1</ele>
        <time>2020-06-07T14:52:32Z</time>
      </trkpt>
      <trkpt lat="47.92739" lon="-3.70553">
        <ele>89.3</ele>
        <time>2020-06-07T14:52:33Z</time>
      </trkpt>
      <trkpt lat="47.92742" lon="-3.7055">
        <ele>89.5</ele>
        <time>2020-06-07T14:52:34Z</time>
      </trkpt>
      <trkpt lat="47.92742" lon="-3.70549">
        <ele>89.6</ele>
        <time>2020-06-07T14:52:35Z</time>
      </trkpt>
      <trkpt lat="47.92745" lon="-3.70547">
        <ele>89.8</ele>
        <time>2020-06-07T14:52:36Z</time>
      </trkpt>
      <trkpt lat="47.92745" lon="-3.70546">
        <ele>89.8</ele>
        <time>2020-06-07T14:52:37Z</time>
      </trkpt>
      <trkpt lat="47.92747" lon="-3.70541">
        <ele>90</ele>
        <time>2020-06-07T14:52:38Z</time>
      </trkpt>
      <trkpt lat="47.92748" lon="-3.7054">
        <ele>90.1</ele>
        <time>2020-06-07T14:52:39Z</time>
      </trkpt>
      <trkpt lat="47.9275" lon="-3.70538">
        <ele>90.3</ele>
        <time>2020-06-07T14:52:40Z</time>
      </trkpt>
      <trkpt lat="47.92751" lon="-3.70537">
        <ele>90.3</ele>
        <time>2020-06-07T14:52:41Z</time>
      </trkpt>
      <trkpt lat="47.92753" lon="-3.70533">
        <ele>90.6</ele>
        <time>2020-06-07T14:52:42Z</time>
      </trkpt>
      <trkpt lat="47.92753" lon="-3.70532">
        <ele>90.6</ele>
        <time>2020-06-07T14:52:43Z</time>
      </trkpt>
      <trkpt lat="47.92754" lon="-3.70527">
        <ele>90.7</ele>
        <time>2020-06-07T14:52:44Z</time>
      </trkpt>
      <trkpt lat="47.92755" lon="-3.70525">
        <ele>90.7</ele>
        <time>2020-06-07T14:52:45Z</time>
      </trkpt>
      <trkpt lat="47.92755" lon="-3.7052">
        <ele>90.7</ele>
        <time>2020-06-07T14:52:46Z</time>
      </trkpt>
      <trkpt lat="47.92756" lon="-3.70515">
        <ele>90.7</ele>
        <time>2020-06-07T14:52:47Z</time>
      </trkpt>
      <trkpt lat="47.92756" lon="-3.70513">
        <ele>90.7</ele>
        <time>2020-06-07T14:52:48Z</time>
      </trkpt>
      <trkpt lat="47.92756" lon="-3.7051">
        <ele>90.7</ele>
        <time>2020-06-07T14:52:49Z</time>
      </trkpt>
      <trkpt lat="47.92757" lon="-3.70508">
        <ele>90.8</ele>
        <time>2020-06-07T14:52:50Z</time>
      </trkpt>
      <trkpt lat="47.92758" lon="-3.70506">
        <ele>90.8</ele>
        <time>2020-06-07T14:52:51Z</time>
      </trkpt>
      <trkpt lat="47.9276" lon="-3.70509">
        <ele>90.8</ele>
        <time>2020-06-07T14:52:52Z</time>
      </trkpt>
      <trkpt lat="47.92763" lon="-3.70512">
        <ele>90.7</ele>
        <time>2020-06-07T14:52:53Z</time>
      </trkpt>
      <trkpt lat="47.92764" lon="-3.70513">
        <ele>90.7</ele>
        <time>2020-06-07T14:52:54Z</time>
      </trkpt>
      <trkpt lat="47.92766" lon="-3.70516">
        <ele>90.7</ele>
        <time>2020-06-07T14:52:55Z</time>
      </trkpt>
      <trkpt lat="47.92767" lon="-3.70518">
        <ele>90.6</ele>
        <time>2020-06-07T14:52:56Z</time>
      </trkpt>
      <trkpt lat="47.92768" lon="-3.70519">
        <ele>90.6</ele>
        <time>2020-06-07T14:52:57Z</time>
      </trkpt>
      <trkpt lat="47.9277" lon="-3.7052">
        <ele>90.6</ele>
        <time>2020-06-07T14:52:58Z</time>
      </trkpt>
      <trkpt lat="47.92771" lon="-3.70522">
        <ele>90.5</ele>
        <time>2020-06-07T14:52:59Z</time>
      </trkpt>
      <trkpt lat="47.92772" lon="-3.70522">
        <ele>90.5</ele>
        <time>2020-06-07T14:53:00Z</time>
      </trkpt>
      <trkpt lat="47.92774" lon="-3.70522">
        <ele>90.4</ele>
        <time>2020-06-07T14:53:01Z</time>
      </trkpt>
      <trkpt lat="47.92775" lon="-3.70522">
        <ele>90.4</ele>
        <time>2020-06-07T14:53:02Z</time>
      </trkpt>
      <trkpt lat="47.92776" lon="-3.70522">
        <ele>90.4</ele>
        <time>2020-06-07T14:53:03Z</time>
      </trkpt>
      <trkpt lat="47.92777" lon="-3.70524">
        <ele>90.3</ele>
        <time>2020-06-07T14:53:04Z</time>
      </trkpt>
      <trkpt lat="47.92778" lon="-3.70524">
        <ele>90.3</ele>
        <time>2020-06-07T14:53:05Z</time>
      </trkpt>
      <trkpt lat="47.92779" lon="-3.70524">
        <ele>90.3</ele>
        <time>2020-06-07T14:53:06Z</time>
      </trkpt>
      <trkpt lat="47.92779" lon="-3.70524">
        <ele>90.3</ele>
        <time>2020-06-07T14:53:07Z</time>
      </trkpt>
      <trkpt lat="47.9278" lon="-3.70524">
        <ele>90.3</ele>
        <time>2020-06-07T14:53:08Z</time>
      </trkpt>
      <trkpt lat="47.9278" lon="-3.70525">
        <ele>90.2</ele>
        <time>2020-06-07T14:53:09Z</time>
      </trkpt>
      <trkpt lat="47.92781" lon="-3.70525">
        <ele>90.2</ele>
        <time>2020-06-07T14:53:10Z</time>
      </trkpt>
      <trkpt lat="47.92781" lon="-3.70525">
        <ele>90.2</ele>
        <time>2020-06-07T14:53:11Z</time>
      </trkpt>
      <trkpt lat="47.92782" lon="-3.70525">
        <ele>90.2</ele>
        <time>2020-06-07T14:53:12Z</time>
      </trkpt>
      <trkpt lat="47.92783" lon="-3.70525">
        <ele>90.2</ele>
        <time>2020-06-07T14:53:13Z</time>
      </trkpt>
      <trkpt lat="47.92783" lon="-3.70525">
        <ele>90.2</ele>
        <time>2020-06-07T14:53:14Z</time>
      </trkpt>
      <trkpt lat="47.92784" lon="-3.70526">
        <ele>90.1</ele>
        <time>2020-06-07T14:53:15Z</time>
      </trkpt>
      <trkpt lat="47.92784" lon="-3.70526">
        <ele>90.1</ele>
        <time>2020-06-07T14:53:16Z</time>
      </trkpt>
      <trkpt lat="47.92785" lon="-3.70526">
        <ele>90.1</ele>
        <time>2020-06-07T14:54:31Z</time>
      </trkpt>
      <trkpt lat="47.92786" lon="-3.70526">
        <ele>90.1</ele>
        <time>2020-06-07T14:54:32Z</time>
      </trkpt>
      <trkpt lat="47.92788" lon="-3.70529">
        <ele>90</ele>
        <time>2020-06-07T14:54:33Z</time>
      </trkpt>
      <trkpt lat="47.92789" lon="-3.70531">
        <ele>90</ele>
        <time>2020-06-07T14:54:34Z</time>
      </trkpt>
      <trkpt lat="47.92793" lon="-3.70533">
        <ele>89.8</ele>
        <time>2020-06-07T14:54:35Z</time>
      </trkpt>
      <trkpt lat="47.92796" lon="-3.70536">
        <ele>89.7</ele>
        <time>2020-06-07T14:54:36Z</time>
      </trkpt>
      <trkpt lat="47.92798" lon="-3.70539">
        <ele>89.6</ele>
        <time>2020-06-07T14:54:37Z</time>
      </trkpt>
      <trkpt lat="47.92803" lon="-3.70542">
        <ele>89.5</ele>
        <time>2020-06-07T14:54:38Z</time>
      </trkpt>
      <trkpt lat="47.92806" lon="-3.70544">
        <ele>89.4</ele>
        <time>2020-06-07T14:54:39Z</time>
      </trkpt>
      <trkpt lat="47.92809" lon="-3.70547">
        <ele>89.3</ele>
        <time>2020-06-07T14:54:40Z</time>
      </trkpt>
      <trkpt lat="47.92813" lon="-3.70551">
        <ele>89.3</ele>
        <time>2020-06-07T14:54:41Z</time>
      </trkpt>
      <trkpt lat="47.92817" lon="-3.70554">
        <ele>89.2</ele>
        <time>2020-06-07T14:54:42Z</time>
      </trkpt>
      <trkpt lat="47.92822" lon="-3.70556">
        <ele>89.1</ele>
        <time>2020-06-07T14:54:43Z</time>
      </trkpt>
      <trkpt lat="47.92827" lon="-3.70559">
        <ele>89.1</ele>
        <time>2020-06-07T14:54:44Z</time>
      </trkpt>
      <trkpt lat="47.92831" lon="-3.70561">
        <ele>89.1</ele>
        <time>2020-06-07T14:54:45Z</time>
      </trkpt>
      <trkpt lat="47.92835" lon="-3.70564">
        <ele>89.1</ele>
        <time>2020-06-07T14:54:46Z</time>
      </trkpt>
      <trkpt lat="47.9284" lon="-3.70567">
        <ele>89.1</ele>
        <time>2020-06-07T14:54:47Z</time>
      </trkpt>
      <trkpt lat="47.92844" lon="-3.70569">
        <ele>89.1</ele>
        <time>2020-06-07T14:54:48Z</time>
      </trkpt>
      <trkpt lat="47.92849" lon="-3.70569">
        <ele>89.1</ele>
        <time>2020-06-07T14:54:49Z</time>
      </trkpt>
      <trkpt lat="47.92853" lon="-3.7057">
        <ele>89.2</ele>
        <time>2020-06-07T14:54:50Z</time>
      </trkpt>
      <trkpt lat="47.92858" lon="-3.70572">
        <ele>89.3</ele>
        <time>2020-06-07T14:54:51Z</time>
      </trkpt>
      <trkpt lat="47.92862" lon="-3.70574">
        <ele>89.3</ele>
        <time>2020-06-07T14:54:52Z</time>
      </trkpt>
      <trkpt lat="47.92867" lon="-3.70575">
        <ele>89.4</ele>
        <time>2020-06-07T14:54:53Z</time>
      </trkpt>
      <trkpt lat="47.92871" lon="-3.70577">
        <ele>89.5</ele>
        <time>2020-06-07T14:54:54Z</time>
      </trkpt>
      <trkpt lat="47.92877" lon="-3.70578">
        <ele>89.6</ele>
        <time>2020-06-07T14:54:55Z</time>
      </trkpt>
      <trkpt lat="47.92882" lon="-3.70579">
        <ele>89.7</ele>
        <time>2020-06-07T14:54:56Z</time>
      </trkpt>
      <trkpt lat="47.92887" lon="-3.7058">
        <ele>89.9</ele>
        <time>2020-06-07T14:54:57Z</time>
      </trkpt>
      <trkpt lat="47.92891" lon="-3.7058">
        <ele>90</ele>
        <time>2020-06-07T14:54:58Z</time>
      </trkpt>
      <trkpt lat="47.92896" lon="-3.7058">
        <ele>90.1</ele>
        <time>2020-06-07T14:54:59Z</time>
      </trkpt>
      <trkpt lat="47.92899" lon="-3.7058">
        <ele>90.2</ele>
        <time>2020-06-07T14:55:00Z</time>
      </trkpt>
      <trkpt lat="47.92903" lon="-3.7058">
        <ele>90.3</ele>
        <time>2020-06-07T14:55:01Z</time>
      </trkpt>
      <trkpt lat="47.92908" lon="-3.70579">
        <ele>90.4</ele>
        <time>2020-06-07T14:55:02Z</time>
      </trkpt>
      <trkpt lat="47.92912" lon="-3.70579">
        <ele>90.5</ele>
        <time>2020-06-07T14:55:03Z</time>
      </trkpt>
      <trkpt lat="47.92917" lon="-3.70579">
        <ele>90.6</ele>
        <time>2020-06-07T14:55:04Z</time>
      </trkpt>
      <trkpt lat="47.92922" lon="-3.7058">
        <ele>90.7</ele>
        <time>2020-06-07T14:55:05Z</time>
      </trkpt>
      <trkpt lat="47.92926" lon="-3.7058">
        <ele>90.7</ele>
        <time>2020-06-07T14:55:06Z</time>
      </trkpt>
      <trkpt lat="47.92931" lon="-3.70581">
        <ele>90.8</ele>
        <time>2020-06-07T14:55:07Z</time>
      </trkpt>
      <trkpt lat="47.92935" lon="-3.70581">
        <ele>90.9</ele>
        <time>2020-06-07T14:55:08Z</time>
      </trkpt>
      <trkpt lat="47.9294" lon="-3.70581">
        <ele>91</ele>
        <time>2020-06-07T14:55:09Z</time>
      </trkpt>
      <trkpt lat="47.92944" lon="-3.70582">
        <ele>91</ele>
        <time>2020-06-07T14:55:10Z</time>
      </trkpt>
      <trkpt lat="47.92949" lon="-3.70583">
        <ele>91.1</ele>
        <time>2020-06-07T14:55:11Z</time>
      </trkpt>
      <trkpt lat="47.92953" lon="-3.70585">
        <ele>91.1</ele>
        <time>2020-06-07T14:55:12Z</time>
      </trkpt>
      <trkpt lat="47.92958" lon="-3.70586">
        <ele>91.2</ele>
        <time>2020-06-07T14:55:13Z</time>
      </trkpt>
      <trkpt lat="47.92962" lon="-3.70587">
        <ele>91.2</ele>
        <time>2020-06-07T14:55:14Z</time>
      </trkpt>
      <trkpt lat="47.92966" lon="-3.70588">
        <ele>91.2</ele>
        <time>2020-06-07T14:55:15Z</time>
      </trkpt>
      <trkpt lat="47.9297" lon="-3.7059">
        <ele>91.2</ele>
        <time>2020-06-07T14:55:16Z</time>
      </trkpt>
      <trkpt lat="47.92975" lon="-3.70592">
        <ele>91.1</ele>
        <time>2020-06-07T14:55:17Z</time>
      </trkpt>
      <trkpt lat="47.92979" lon="-3.70594">
        <ele>91.1</ele>
        <time>2020-06-07T14:55:18Z</time>
      </trkpt>
      <trkpt lat="47.92983" lon="-3.70596">
        <ele>91.1</ele>
        <time>2020-06-07T14:55:19Z</time>
      </trkpt>
      <trkpt lat="47.92987" lon="-3.70598">
        <ele>91</ele>
        <time>2020-06-07T14:55:20Z</time>
      </trkpt>
      <trkpt lat="47.92991" lon="-3.706">
        <ele>91</ele>
        <time>2020-06-07T14:55:21Z</time>
      </trkpt>
      <trkpt lat="47.92997" lon="-3.706">
        <ele>90.8</ele>
        <time>2020-06-07T14:55:22Z</time>
      </trkpt>
      <trkpt lat="47.93001" lon="-3.70602">
        <ele>90.7</ele>
        <time>2020-06-07T14:55:23Z</time>
      </trkpt>
      <trkpt lat="47.93005" lon="-3.70607">
        <ele>90.5</ele>
        <time>2020-06-07T14:55:24Z</time>
      </trkpt>
      <trkpt lat="47.9301" lon="-3.7061">
        <ele>90.4</ele>
        <time>2020-06-07T14:55:25Z</time>
      </trkpt>
      <trkpt lat="47.93014" lon="-3.70611">
        <ele>90.4</ele>
        <time>2020-06-07T14:55:26Z</time>
      </trkpt>
      <trkpt lat="47.93018" lon="-3.70614">
        <ele>90.3</ele>
        <time>2020-06-07T14:55:27Z</time>
      </trkpt>
      <trkpt lat="47.93021" lon="-3.70617">
        <ele>90.2</ele>
        <time>2020-06-07T14:55:28Z</time>
      </trkpt>
      <trkpt lat="47.93024" lon="-3.7062">
        <ele>90.1</ele>
        <time>2020-06-07T14:55:29Z</time>
      </trkpt>
      <trkpt lat="47.93027" lon="-3.70623">
        <ele>90</ele>
        <time>2020-06-07T14:55:30Z</time>
      </trkpt>
      <trkpt lat="47.93031" lon="-3.70628">
        <ele>89.8</ele>
        <time>2020-06-07T14:55:31Z</time>
      </trkpt>
      <trkpt lat="47.93035" lon="-3.70631">
        <ele>89.6</ele>
        <time>2020-06-07T14:55:32Z</time>
      </trkpt>
      <trkpt lat="47.93039" lon="-3.70636">
        <ele>89.4</ele>
        <time>2020-06-07T14:55:33Z</time>
      </trkpt>
      <trkpt lat="47.93043" lon="-3.7064">
        <ele>89.1</ele>
        <time>2020-06-07T14:55:34Z</time>
      </trkpt>
      <trkpt lat="47.93048" lon="-3.70646">
        <ele>88.8</ele>
        <time>2020-06-07T14:55:35Z</time>
      </trkpt>
      <trkpt lat="47.93053" lon="-3.70653">
        <ele>88.4</ele>
        <time>2020-06-07T14:55:36Z</time>
      </trkpt>
      <trkpt lat="47.93059" lon="-3.70658">
        <ele>88</ele>
        <time>2020-06-07T14:55:37Z</time>
      </trkpt>
      <trkpt lat="47.93063" lon="-3.70664">
        <ele>87.6</ele>
        <time>2020-06-07T14:55:38Z</time>
      </trkpt>
      <trkpt lat="47.9307" lon="-3.70671">
        <ele>87.1</ele>
        <time>2020-06-07T14:55:39Z</time>
      </trkpt>
      <trkpt lat="47.93076" lon="-3.70678">
        <ele>86.6</ele>
        <time>2020-06-07T14:55:40Z</time>
      </trkpt>
      <trkpt lat="47.93083" lon="-3.70686">
        <ele>86</ele>
        <time>2020-06-07T14:55:41Z</time>
      </trkpt>
      <trkpt lat="47.9309" lon="-3.70693">
        <ele>85.5</ele>
        <time>2020-06-07T14:55:42Z</time>
      </trkpt>
      <trkpt lat="47.93097" lon="-3.70702">
        <ele>84.9</ele>
        <time>2020-06-07T14:55:43Z</time>
      </trkpt>
      <trkpt lat="47.93104" lon="-3.7071">
        <ele>84.3</ele>
        <time>2020-06-07T14:55:44Z</time>
      </trkpt>
      <trkpt lat="47.93112" lon="-3.70718">
        <ele>83.7</ele>
        <time>2020-06-07T14:55:45Z</time>
      </trkpt>
      <trkpt lat="47.93119" lon="-3.70726">
        <ele>83.2</ele>
        <time>2020-06-07T14:55:46Z</time>
      </trkpt>
      <trkpt lat="47.93126" lon="-3.70734">
        <ele>82.8</ele>
        <time>2020-06-07T14:55:47Z</time>
      </trkpt>
      <trkpt lat="47.93134" lon="-3.70742">
        <ele>82.5</ele>
        <time>2020-06-07T14:55:48Z</time>
      </trkpt>
      <trkpt lat="47.93141" lon="-3.7075">
        <ele>82.3</ele>
        <time>2020-06-07T14:55:49Z</time>
      </trkpt>
      <trkpt lat="47.93148" lon="-3.70757">
        <ele>82.1</ele>
        <time>2020-06-07T14:55:50Z</time>
      </trkpt>
      <trkpt lat="47.93155" lon="-3.70764">
        <ele>81.9</ele>
        <time>2020-06-07T14:55:51Z</time>
      </trkpt>
      <trkpt lat="47.93162" lon="-3.70771">
        <ele>81.7</ele>
        <time>2020-06-07T14:55:52Z</time>
      </trkpt>
      <trkpt lat="47.93169" lon="-3.70779">
        <ele>81.5</ele>
        <time>2020-06-07T14:55:53Z</time>
      </trkpt>
      <trkpt lat="47.93176" lon="-3.70786">
        <ele>81.3</ele>
        <time>2020-06-07T14:55:54Z</time>
      </trkpt>
      <trkpt lat="47.93183" lon="-3.70793">
        <ele>81.2</ele>
        <time>2020-06-07T14:55:55Z</time>
      </trkpt>
      <trkpt lat="47.93191" lon="-3.70798">
        <ele>81.3</ele>
        <time>2020-06-07T14:55:56Z</time>
      </trkpt>
      <trkpt lat="47.93198" lon="-3.70803">
        <ele>81.3</ele>
        <time>2020-06-07T14:55:57Z</time>
      </trkpt>
      <trkpt lat="47.93205" lon="-3.70808">
        <ele>81.5</ele>
        <time>2020-06-07T14:55:58Z</time>
      </trkpt>
      <trkpt lat="47.93212" lon="-3.70813">
        <ele>81.6</ele>
        <time>2020-06-07T14:55:59Z</time>
      </trkpt>
      <trkpt lat="47.93218" lon="-3.70816">
        <ele>81.4</ele>
        <time>2020-06-07T14:56:00Z</time>
      </trkpt>
      <trkpt lat="47.93224" lon="-3.70818">
        <ele>81.2</ele>
        <time>2020-06-07T14:56:01Z</time>
      </trkpt>
      <trkpt lat="47.9323" lon="-3.70818">
        <ele>81</ele>
        <time>2020-06-07T14:56:02Z</time>
      </trkpt>
      <trkpt lat="47.93236" lon="-3.70816">
        <ele>80.8</ele>
        <time>2020-06-07T14:56:03Z</time>
      </trkpt>
      <trkpt lat="47.9324" lon="-3.7081">
        <ele>80.8</ele>
        <time>2020-06-07T14:56:04Z</time>
      </trkpt>
      <trkpt lat="47.93244" lon="-3.70806">
        <ele>80.9</ele>
        <time>2020-06-07T14:56:05Z</time>
      </trkpt>
      <trkpt lat="47.93248" lon="-3.70802">
        <ele>80.9</ele>
        <time>2020-06-07T14:56:06Z</time>
      </trkpt>
      <trkpt lat="47.93252" lon="-3.70798">
        <ele>80.8</ele>
        <time>2020-06-07T14:56:07Z</time>
      </trkpt>
      <trkpt lat="47.93257" lon="-3.70798">
        <ele>80.8</ele>
        <time>2020-06-07T14:56:08Z</time>
      </trkpt>
      <trkpt lat="47.93262" lon="-3.70798">
        <ele>80.7</ele>
        <time>2020-06-07T14:56:09Z</time>
      </trkpt>
      <trkpt lat="47.93266" lon="-3.70803">
        <ele>80.6</ele>
        <time>2020-06-07T14:56:10Z</time>
      </trkpt>
      <trkpt lat="47.9327" lon="-3.70807">
        <ele>80.5</ele>
        <time>2020-06-07T14:56:11Z</time>
      </trkpt>
      <trkpt lat="47.93273" lon="-3.70813">
        <ele>80.5</ele>
        <time>2020-06-07T14:56:12Z</time>
      </trkpt>
      <trkpt lat="47.93276" lon="-3.70818">
        <ele>80.4</ele>
        <time>2020-06-07T14:56:13Z</time>
      </trkpt>
      <trkpt lat="47.93278" lon="-3.70823">
        <ele>80.4</ele>
        <time>2020-06-07T14:56:14Z</time>
      </trkpt>
      <trkpt lat="47.9328" lon="-3.70829">
        <ele>80.4</ele>
        <time>2020-06-07T14:56:15Z</time>
      </trkpt>
      <trkpt lat="47.93278" lon="-3.70835">
        <ele>80.3</ele>
        <time>2020-06-07T14:56:16Z</time>
      </trkpt>
      <trkpt lat="47.93276" lon="-3.70841">
        <ele>80.3</ele>
        <time>2020-06-07T14:56:17Z</time>
      </trkpt>
      <trkpt lat="47.93273" lon="-3.70847">
        <ele>80.3</ele>
        <time>2020-06-07T14:56:18Z</time>
      </trkpt>
      <trkpt lat="47.93269" lon="-3.70851">
        <ele>80.4</ele>
        <time>2020-06-07T14:56:19Z</time>
      </trkpt>
      <trkpt lat="47.93265" lon="-3.70854">
        <ele>80.4</ele>
        <time>2020-06-07T14:56:20Z</time>
      </trkpt>
      <trkpt lat="47.93261" lon="-3.70857">
        <ele>80.4</ele>
        <time>2020-06-07T14:56:21Z</time>
      </trkpt>
      <trkpt lat="47.93257" lon="-3.70858">
        <ele>80.5</ele>
        <time>2020-06-07T14:56:22Z</time>
      </trkpt>
      <trkpt lat="47.93253" lon="-3.7086">
        <ele>80.5</ele>
        <time>2020-06-07T14:56:23Z</time>
      </trkpt>
      <trkpt lat="47.93249" lon="-3.7086">
        <ele>80.5</ele>
        <time>2020-06-07T14:56:24Z</time>
      </trkpt>
      <trkpt lat="47.93245" lon="-3.70859">
        <ele>80.9</ele>
        <time>2020-06-07T14:56:25Z</time>
      </trkpt>
      <trkpt lat="47.93242" lon="-3.70857">
        <ele>80.9</ele>
        <time>2020-06-07T14:56:26Z</time>
      </trkpt>
      <trkpt lat="47.9324" lon="-3.70853">
        <ele>80.8</ele>
        <time>2020-06-07T14:56:27Z</time>
      </trkpt>
      <trkpt lat="47.93239" lon="-3.70847">
        <ele>80.8</ele>
        <time>2020-06-07T14:56:28Z</time>
      </trkpt>
      <trkpt lat="47.93238" lon="-3.70841">
        <ele>80.7</ele>
        <time>2020-06-07T14:56:29Z</time>
      </trkpt>
      <trkpt lat="47.93237" lon="-3.70835">
        <ele>80.7</ele>
        <time>2020-06-07T14:56:30Z</time>
      </trkpt>
      <trkpt lat="47.93236" lon="-3.70829">
        <ele>80.7</ele>
        <time>2020-06-07T14:56:31Z</time>
      </trkpt>
      <trkpt lat="47.93236" lon="-3.70823">
        <ele>80.7</ele>
        <time>2020-06-07T14:56:32Z</time>
      </trkpt>
      <trkpt lat="47.93237" lon="-3.70818">
        <ele>80.7</ele>
        <time>2020-06-07T14:56:33Z</time>
      </trkpt>
      <trkpt lat="47.93239" lon="-3.70813">
        <ele>80.8</ele>
        <time>2020-06-07T14:56:34Z</time>
      </trkpt>
      <trkpt lat="47.93242" lon="-3.70807">
        <ele>80.8</ele>
        <time>2020-06-07T14:56:35Z</time>
      </trkpt>
      <trkpt lat="47.93245" lon="-3.70802">
        <ele>80.9</ele>
        <time>2020-06-07T14:56:36Z</time>
      </trkpt>
      <trkpt lat="47.93248" lon="-3.708">
        <ele>80.8</ele>
        <time>2020-06-07T14:56:37Z</time>
      </trkpt>
      <trkpt lat="47.93253" lon="-3.708">
        <ele>80.8</ele>
        <time>2020-06-07T14:56:38Z</time>
      </trkpt>
      <trkpt lat="47.93257" lon="-3.70802">
        <ele>80.7</ele>
        <time>2020-06-07T14:56:39Z</time>
      </trkpt>
      <trkpt lat="47.93262" lon="-3.70806">
        <ele>80.6</ele>
        <time>2020-06-07T14:56:40Z</time>
      </trkpt>
      <trkpt lat="47.93266" lon="-3.70809">
        <ele>80.6</ele>
        <time>2020-06-07T14:56:41Z</time>
      </trkpt>
      <trkpt lat="47.9327" lon="-3.70815">
        <ele>80.5</ele>
        <time>2020-06-07T14:56:42Z</time>
      </trkpt>
      <trkpt lat="47.93273" lon="-3.70821">
        <ele>80.5</ele>
        <time>2020-06-07T14:56:43Z</time>
      </trkpt>
      <trkpt lat="47.93276" lon="-3.70828">
        <ele>80.4</ele>
        <time>2020-06-07T14:56:44Z</time>
      </trkpt>
      <trkpt lat="47.93278" lon="-3.70835">
        <ele>80.3</ele>
        <time>2020-06-07T14:56:45Z</time>
      </trkpt>
      <trkpt lat="47.93281" lon="-3.70841">
        <ele>80.4</ele>
        <time>2020-06-07T14:56:46Z</time>
      </trkpt>
      <trkpt lat="47.93285" lon="-3.70846">
        <ele>80.4</ele>
        <time>2020-06-07T14:56:47Z</time>
      </trkpt>
      <trkpt lat="47.93289" lon="-3.70848">
        <ele>80.4</ele>
        <time>2020-06-07T14:56:48Z</time>
      </trkpt>
      <trkpt lat="47.93294" lon="-3.7085">
        <ele>80.5</ele>
        <time>2020-06-07T14:56:49Z</time>
      </trkpt>
      <trkpt lat="47.93299" lon="-3.7085">
        <ele>80.5</ele>
        <time>2020-06-07T14:56:50Z</time>
      </trkpt>
      <trkpt lat="47.93304" lon="-3.70851">
        <ele>80.6</ele>
        <time>2020-06-07T14:56:51Z</time>
      </trkpt>
      <trkpt lat="47.93309" lon="-3.70851">
        <ele>80.6</ele>
        <time>2020-06-07T14:56:52Z</time>
      </trkpt>
      <trkpt lat="47.93314" lon="-3.70852">
        <ele>80.7</ele>
        <time>2020-06-07T14:56:53Z</time>
      </trkpt>
      <trkpt lat="47.93319" lon="-3.70853">
        <ele>80.8</ele>
        <time>2020-06-07T14:56:54Z</time>
      </trkpt>
      <trkpt lat="47.93323" lon="-3.70854">
        <ele>80.8</ele>
        <time>2020-06-07T14:56:55Z</time>
      </trkpt>
      <trkpt lat="47.93328" lon="-3.70855">
        <ele>80.9</ele>
        <time>2020-06-07T14:56:56Z</time>
      </trkpt>
      <trkpt lat="47.93333" lon="-3.70856">
        <ele>81</ele>
        <time>2020-06-07T14:56:57Z</time>
      </trkpt>
      <trkpt lat="47.93339" lon="-3.70857">
        <ele>81.1</ele>
        <time>2020-06-07T14:56:58Z</time>
      </trkpt>
      <trkpt lat="47.93345" lon="-3.70858">
        <ele>81.2</ele>
        <time>2020-06-07T14:56:59Z</time>
      </trkpt>
      <trkpt lat="47.9335" lon="-3.7086">
        <ele>81.3</ele>
        <time>2020-06-07T14:57:00Z</time>
      </trkpt>
      <trkpt lat="47.93355" lon="-3.70862">
        <ele>81.4</ele>
        <time>2020-06-07T14:57:01Z</time>
      </trkpt>
      <trkpt lat="47.93359" lon="-3.70864">
        <ele>81.5</ele>
        <time>2020-06-07T14:57:02Z</time>
      </trkpt>
      <trkpt lat="47.93364" lon="-3.70864">
        <ele>81.6</ele>
        <time>2020-06-07T14:57:03Z</time>
      </trkpt>
      <trkpt lat="47.93368" lon="-3.70865">
        <ele>81.8</ele>
        <time>2020-06-07T14:57:04Z</time>
      </trkpt>
      <trkpt lat="47.93373" lon="-3.70865">
        <ele>81.9</ele>
        <time>2020-06-07T14:57:05Z</time>
      </trkpt>
      <trkpt lat="47.93377" lon="-3.70866">
        <ele>82</ele>
        <time>2020-06-07T14:57:06Z</time>
      </trkpt>
      <trkpt lat="47.9338" lon="-3.70867">
        <ele>82.2</ele>
        <time>2020-06-07T14:57:07Z</time>
      </trkpt>
      <trkpt lat="47.93384" lon="-3.70868">
        <ele>82.3</ele>
        <time>2020-06-07T14:57:08Z</time>
      </trkpt>
      <trkpt lat="47.93388" lon="-3.70868">
        <ele>82.4</ele>
        <time>2020-06-07T14:57:09Z</time>
      </trkpt>
      <trkpt lat="47.93392" lon="-3.70869">
        <ele>82.6</ele>
        <time>2020-06-07T14:57:10Z</time>
      </trkpt>
      <trkpt lat="47.93395" lon="-3.70869">
        <ele>82.8</ele>
        <time>2020-06-07T14:57:11Z</time>
      </trkpt>
      <trkpt lat="47.93399" lon="-3.7087">
        <ele>83</ele>
        <time>2020-06-07T14:57:12Z</time>
      </trkpt>
      <trkpt lat="47.93403" lon="-3.70871">
        <ele>83.2</ele>
        <time>2020-06-07T14:57:13Z</time>
      </trkpt>
      <trkpt lat="47.93407" lon="-3.70872">
        <ele>83.4</ele>
        <time>2020-06-07T14:57:14Z</time>
      </trkpt>
      <trkpt lat="47.93411" lon="-3.70874">
        <ele>83.5</ele>
        <time>2020-06-07T14:57:15Z</time>
      </trkpt>
      <trkpt lat="47.93415" lon="-3.70874">
        <ele>83.7</ele>
        <time>2020-06-07T14:57:16Z</time>
      </trkpt>
      <trkpt lat="47.93419" lon="-3.70875">
        <ele>83.9</ele>
        <time>2020-06-07T14:57:17Z</time>
      </trkpt>
      <trkpt lat="47.93422" lon="-3.70876">
        <ele>84</ele>
        <time>2020-06-07T14:57:18Z</time>
      </trkpt>
      <trkpt lat="47.93426" lon="-3.70877">
        <ele>84.2</ele>
        <time>2020-06-07T14:57:19Z</time>
      </trkpt>
      <trkpt lat="47.9343" lon="-3.70878">
        <ele>84.3</ele>
        <time>2020-06-07T14:57:20Z</time>
      </trkpt>
      <trkpt lat="47.93435" lon="-3.70879">
        <ele>84.5</ele>
        <time>2020-06-07T14:57:21Z</time>
      </trkpt>
      <trkpt lat="47.9344" lon="-3.7088">
        <ele>84.8</ele>
        <time>2020-06-07T14:57:22Z</time>
      </trkpt>
      <trkpt lat="47.93445" lon="-3.70881">
        <ele>85</ele>
        <time>2020-06-07T14:57:23Z</time>
      </trkpt>
      <trkpt lat="47.93449" lon="-3.70882">
        <ele>85.2</ele>
        <time>2020-06-07T14:57:24Z</time>
      </trkpt>
      <trkpt lat="47.93453" lon="-3.70882">
        <ele>85.3</ele>
        <time>2020-06-07T14:57:25Z</time>
      </trkpt>
      <trkpt lat="47.93457" lon="-3.70882">
        <ele>85.5</ele>
        <time>2020-06-07T14:57:26Z</time>
      </trkpt>
      <trkpt lat="47.93461" lon="-3.70883">
        <ele>85.7</ele>
        <time>2020-06-07T14:57:27Z</time>
      </trkpt>
      <trkpt lat="47.93464" lon="-3.70883">
        <ele>85.8</ele>
        <time>2020-06-07T14:57:28Z</time>
      </trkpt>
      <trkpt lat="47.93467" lon="-3.70884">
        <ele>86</ele>
        <time>2020-06-07T14:57:29Z</time>
      </trkpt>
      <trkpt lat="47.9347" lon="-3.70885">
        <ele>86.1</ele>
        <time>2020-06-07T14:57:30Z</time>
      </trkpt>
      <trkpt lat="47.93473" lon="-3.70885">
        <ele>86.2</ele>
        <time>2020-06-07T14:57:31Z</time>
      </trkpt>
      <trkpt lat="47.93476" lon="-3.70885">
        <ele>86.4</ele>
        <time>2020-06-07T14:57:32Z</time>
      </trkpt>
      <trkpt lat="47.93478" lon="-3.70885">
        <ele>86.5</ele>
        <time>2020-06-07T14:57:33Z</time>
      </trkpt>
      <trkpt lat="47.9348" lon="-3.70885">
        <ele>86.6</ele>
        <time>2020-06-07T14:57:34Z</time>
      </trkpt>
      <trkpt lat="47.93484" lon="-3.70885">
        <ele>86.8</ele>
        <time>2020-06-07T14:57:35Z</time>
      </trkpt>
      <trkpt lat="47.93487" lon="-3.70885">
        <ele>86.9</ele>
        <time>2020-06-07T14:57:36Z</time>
      </trkpt>
      <trkpt lat="47.9349" lon="-3.70887">
        <ele>87.1</ele>
        <time>2020-06-07T14:57:37Z</time>
      </trkpt>
      <trkpt lat="47.93495" lon="-3.70889">
        <ele>87.4</ele>
        <time>2020-06-07T14:57:38Z</time>
      </trkpt>
      <trkpt lat="47.93498" lon="-3.70889">
        <ele>87.5</ele>
        <time>2020-06-07T14:57:39Z</time>
      </trkpt>
      <trkpt lat="47.93501" lon="-3.7089">
        <ele>87.7</ele>
        <time>2020-06-07T14:57:40Z</time>
      </trkpt>
      <trkpt lat="47.93505" lon="-3.7089">
        <ele>87.9</ele>
        <time>2020-06-07T14:57:41Z</time>
      </trkpt>
      <trkpt lat="47.93509" lon="-3.70892">
        <ele>88.2</ele>
        <time>2020-06-07T14:57:42Z</time>
      </trkpt>
      <trkpt lat="47.93513" lon="-3.70892">
        <ele>88.4</ele>
        <time>2020-06-07T14:57:43Z</time>
      </trkpt>
      <trkpt lat="47.93517" lon="-3.70894">
        <ele>88.6</ele>
        <time>2020-06-07T14:57:44Z</time>
      </trkpt>
      <trkpt lat="47.93521" lon="-3.70896">
        <ele>88.9</ele>
        <time>2020-06-07T14:57:45Z</time>
      </trkpt>
      <trkpt lat="47.93525" lon="-3.70896">
        <ele>89.1</ele>
        <time>2020-06-07T14:57:46Z</time>
      </trkpt>
      <trkpt lat="47.93529" lon="-3.70896">
        <ele>89.3</ele>
        <time>2020-06-07T14:57:47Z</time>
      </trkpt>
      <trkpt lat="47.93533" lon="-3.70896">
        <ele>89.6</ele>
        <time>2020-06-07T14:57:48Z</time>
      </trkpt>
      <trkpt lat="47.93537" lon="-3.70897">
        <ele>89.8</ele>
        <time>2020-06-07T14:57:49Z</time>
      </trkpt>
      <trkpt lat="47.9354" lon="-3.70897">
        <ele>90.1</ele>
        <time>2020-06-07T14:57:50Z</time>
      </trkpt>
      <trkpt lat="47.93542" lon="-3.70898">
        <ele>90.2</ele>
        <time>2020-06-07T14:57:51Z</time>
      </trkpt>
      <trkpt lat="47.93546" lon="-3.70899">
        <ele>90.5</ele>
        <time>2020-06-07T14:57:52Z</time>
      </trkpt>
      <trkpt lat="47.93549" lon="-3.70899">
        <ele>90.8</ele>
        <time>2020-06-07T14:57:53Z</time>
      </trkpt>
      <trkpt lat="47.93552" lon="-3.70899">
        <ele>91</ele>
        <time>2020-06-07T14:57:54Z</time>
      </trkpt>
      <trkpt lat="47.93556" lon="-3.70899">
        <ele>91.3</ele>
        <time>2020-06-07T14:57:55Z</time>
      </trkpt>
      <trkpt lat="47.93558" lon="-3.70899">
        <ele>91.5</ele>
        <time>2020-06-07T14:57:56Z</time>
      </trkpt>
      <trkpt lat="47.93561" lon="-3.70899">
        <ele>91.7</ele>
        <time>2020-06-07T14:57:57Z</time>
      </trkpt>
      <trkpt lat="47.93563" lon="-3.70899">
        <ele>91.8</ele>
        <time>2020-06-07T14:57:58Z</time>
      </trkpt>
      <trkpt lat="47.93566" lon="-3.709">
        <ele>92.1</ele>
        <time>2020-06-07T14:57:59Z</time>
      </trkpt>
      <trkpt lat="47.93567" lon="-3.70901">
        <ele>92.2</ele>
        <time>2020-06-07T14:58:00Z</time>
      </trkpt>
      <trkpt lat="47.93571" lon="-3.70902">
        <ele>92.5</ele>
        <time>2020-06-07T14:58:01Z</time>
      </trkpt>
      <trkpt lat="47.93572" lon="-3.70902">
        <ele>92.6</ele>
        <time>2020-06-07T14:58:02Z</time>
      </trkpt>
      <trkpt lat="47.93575" lon="-3.70903">
        <ele>92.8</ele>
        <time>2020-06-07T14:58:03Z</time>
      </trkpt>
      <trkpt lat="47.93578" lon="-3.70904">
        <ele>92.9</ele>
        <time>2020-06-07T14:58:04Z</time>
      </trkpt>
      <trkpt lat="47.93582" lon="-3.70905">
        <ele>93.2</ele>
        <time>2020-06-07T14:58:05Z</time>
      </trkpt>
      <trkpt lat="47.93584" lon="-3.70905">
        <ele>93.3</ele>
        <time>2020-06-07T14:58:06Z</time>
      </trkpt>
      <trkpt lat="47.93587" lon="-3.70905">
        <ele>93.5</ele>
        <time>2020-06-07T14:58:07Z</time>
      </trkpt>
      <trkpt lat="47.93589" lon="-3.70906">
        <ele>93.7</ele>
        <time>2020-06-07T14:58:08Z</time>
      </trkpt>
      <trkpt lat="47.93591" lon="-3.70906">
        <ele>93.8</ele>
        <time>2020-06-07T14:58:09Z</time>
      </trkpt>
      <trkpt lat="47.93594" lon="-3.70907">
        <ele>94</ele>
        <time>2020-06-07T14:58:10Z</time>
      </trkpt>
      <trkpt lat="47.93595" lon="-3.70907">
        <ele>94.1</ele>
        <time>2020-06-07T14:58:11Z</time>
      </trkpt>
      <trkpt lat="47.93598" lon="-3.70906">
        <ele>94.3</ele>
        <time>2020-06-07T14:58:12Z</time>
      </trkpt>
      <trkpt lat="47.936" lon="-3.70907">
        <ele>94.4</ele>
        <time>2020-06-07T14:58:13Z</time>
      </trkpt>
      <trkpt lat="47.93602" lon="-3.70907">
        <ele>94.6</ele>
        <time>2020-06-07T14:58:14Z</time>
      </trkpt>
      <trkpt lat="47.93603" lon="-3.70907">
        <ele>94.7</ele>
        <time>2020-06-07T14:58:15Z</time>
      </trkpt>
      <trkpt lat="47.93607" lon="-3.70906">
        <ele>94.9</ele>
        <time>2020-06-07T14:58:16Z</time>
      </trkpt>
      <trkpt lat="47.93609" lon="-3.70907">
        <ele>95</ele>
        <time>2020-06-07T14:58:17Z</time>
      </trkpt>
      <trkpt lat="47.93611" lon="-3.70908">
        <ele>95.2</ele>
        <time>2020-06-07T14:58:18Z</time>
      </trkpt>
      <trkpt lat="47.93614" lon="-3.70908">
        <ele>95.4</ele>
        <time>2020-06-07T14:58:19Z</time>
      </trkpt>
      <trkpt lat="47.93617" lon="-3.70909">
        <ele>95.6</ele>
        <time>2020-06-07T14:58:20Z</time>
      </trkpt>
      <trkpt lat="47.93621" lon="-3.7091">
        <ele>95.9</ele>
        <time>2020-06-07T14:58:21Z</time>
      </trkpt>
      <trkpt lat="47.93622" lon="-3.7091">
        <ele>96</ele>
        <time>2020-06-07T14:58:22Z</time>
      </trkpt>
      <trkpt lat="47.93625" lon="-3.70911">
        <ele>96.2</ele>
        <time>2020-06-07T14:58:23Z</time>
      </trkpt>
      <trkpt lat="47.93627" lon="-3.7091">
        <ele>96.4</ele>
        <time>2020-06-07T14:58:24Z</time>
      </trkpt>
      <trkpt lat="47.93629" lon="-3.7091">
        <ele>96.5</ele>
        <time>2020-06-07T14:58:25Z</time>
      </trkpt>
      <trkpt lat="47.9363" lon="-3.7091">
        <ele>96.6</ele>
        <time>2020-06-07T14:58:26Z</time>
      </trkpt>
      <trkpt lat="47.93633" lon="-3.70912">
        <ele>96.8</ele>
        <time>2020-06-07T14:58:27Z</time>
      </trkpt>
      <trkpt lat="47.93637" lon="-3.70912">
        <ele>97.1</ele>
        <time>2020-06-07T14:58:28Z</time>
      </trkpt>
      <trkpt lat="47.93639" lon="-3.70913">
        <ele>97.2</ele>
        <time>2020-06-07T14:58:29Z</time>
      </trkpt>
      <trkpt lat="47.93642" lon="-3.70913">
        <ele>97.5</ele>
        <time>2020-06-07T14:58:30Z</time>
      </trkpt>
      <trkpt lat="47.93644" lon="-3.70913">
        <ele>97.6</ele>
        <time>2020-06-07T14:58:31Z</time>
      </trkpt>
      <trkpt lat="47.93647" lon="-3.70913">
        <ele>97.9</ele>
        <time>2020-06-07T14:58:32Z</time>
      </trkpt>
      <trkpt lat="47.93648" lon="-3.70913">
        <ele>98</ele>
        <time>2020-06-07T14:58:33Z</time>
      </trkpt>
      <trkpt lat="47.93653" lon="-3.70913">
        <ele>98.3</ele>
        <time>2020-06-07T14:58:34Z</time>
      </trkpt>
      <trkpt lat="47.93654" lon="-3.70913">
        <ele>98.4</ele>
        <time>2020-06-07T14:58:35Z</time>
      </trkpt>
      <trkpt lat="47.93657" lon="-3.70913">
        <ele>98.6</ele>
        <time>2020-06-07T14:58:36Z</time>
      </trkpt>
      <trkpt lat="47.9366" lon="-3.70914">
        <ele>98.8</ele>
        <time>2020-06-07T14:58:37Z</time>
      </trkpt>
      <trkpt lat="47.93661" lon="-3.70914">
        <ele>98.9</ele>
        <time>2020-06-07T14:58:38Z</time>
      </trkpt>
      <trkpt lat="47.93665" lon="-3.70915">
        <ele>99.2</ele>
        <time>2020-06-07T14:58:39Z</time>
      </trkpt>
      <trkpt lat="47.93666" lon="-3.70915">
        <ele>99.2</ele>
        <time>2020-06-07T14:58:40Z</time>
      </trkpt>
      <trkpt lat="47.93667" lon="-3.70915">
        <ele>99.4</ele>
        <time>2020-06-07T14:58:41Z</time>
      </trkpt>
      <trkpt lat="47.93669" lon="-3.70915">
        <ele>99.5</ele>
        <time>2020-06-07T14:58:42Z</time>
      </trkpt>
      <trkpt lat="47.93672" lon="-3.70916">
        <ele>99.7</ele>
        <time>2020-06-07T14:58:43Z</time>
      </trkpt>
      <trkpt lat="47.93674" lon="-3.70916">
        <ele>99.8</ele>
        <time>2020-06-07T14:58:44Z</time>
      </trkpt>
      <trkpt lat="47.93678" lon="-3.70916">
        <ele>100.1</ele>
        <time>2020-06-07T14:58:45Z</time>
      </trkpt>
      <trkpt lat="47.93679" lon="-3.70917">
        <ele>100.2</ele>
        <time>2020-06-07T14:58:46Z</time>
      </trkpt>
      <trkpt lat="47.93681" lon="-3.70917">
        <ele>100.3</ele>
        <time>2020-06-07T14:58:47Z</time>
      </trkpt>
      <trkpt lat="47.93685" lon="-3.70918">
        <ele>100.6</ele>
        <time>2020-06-07T14:58:48Z</time>
      </trkpt>
      <trkpt lat="47.93686" lon="-3.70919">
        <ele>100.7</ele>
        <time>2020-06-07T14:58:49Z</time>
      </trkpt>
      <trkpt lat="47.9369" lon="-3.70919">
        <ele>100.9</ele>
        <time>2020-06-07T14:58:50Z</time>
      </trkpt>
      <trkpt lat="47.9369" lon="-3.7092">
        <ele>101</ele>
        <time>2020-06-07T14:58:51Z</time>
      </trkpt>
      <trkpt lat="47.93692" lon="-3.7092">
        <ele>101.1</ele>
        <time>2020-06-07T14:58:52Z</time>
      </trkpt>
      <trkpt lat="47.93693" lon="-3.7092">
        <ele>101.2</ele>
        <time>2020-06-07T14:58:53Z</time>
      </trkpt>
      <trkpt lat="47.93696" lon="-3.70921">
        <ele>101.4</ele>
        <time>2020-06-07T14:58:54Z</time>
      </trkpt>
      <trkpt lat="47.93698" lon="-3.70921">
        <ele>101.5</ele>
        <time>2020-06-07T14:58:55Z</time>
      </trkpt>
      <trkpt lat="47.937" lon="-3.70922">
        <ele>101.7</ele>
        <time>2020-06-07T14:58:56Z</time>
      </trkpt>
      <trkpt lat="47.93703" lon="-3.70924">
        <ele>101.9</ele>
        <time>2020-06-07T14:58:57Z</time>
      </trkpt>
      <trkpt lat="47.93706" lon="-3.70924">
        <ele>102.1</ele>
        <time>2020-06-07T14:58:58Z</time>
      </trkpt>
      <trkpt lat="47.93707" lon="-3.70925">
        <ele>102.2</ele>
        <time>2020-06-07T14:58:59Z</time>
      </trkpt>
      <trkpt lat="47.9371" lon="-3.70925">
        <ele>102.4</ele>
        <time>2020-06-07T14:59:00Z</time>
      </trkpt>
      <trkpt lat="47.93713" lon="-3.70925">
        <ele>102.5</ele>
        <time>2020-06-07T14:59:01Z</time>
      </trkpt>
      <trkpt lat="47.93714" lon="-3.70925">
        <ele>102.6</ele>
        <time>2020-06-07T14:59:02Z</time>
      </trkpt>
      <trkpt lat="47.93718" lon="-3.70925">
        <ele>102.9</ele>
        <time>2020-06-07T14:59:03Z</time>
      </trkpt>
      <trkpt lat="47.93721" lon="-3.70925">
        <ele>103.1</ele>
        <time>2020-06-07T14:59:04Z</time>
      </trkpt>
      <trkpt lat="47.93723" lon="-3.70926">
        <ele>103.2</ele>
        <time>2020-06-07T14:59:05Z</time>
      </trkpt>
      <trkpt lat="47.93727" lon="-3.70925">
        <ele>103.5</ele>
        <time>2020-06-07T14:59:06Z</time>
      </trkpt>
      <trkpt lat="47.9373" lon="-3.70926">
        <ele>103.7</ele>
        <time>2020-06-07T14:59:07Z</time>
      </trkpt>
      <trkpt lat="47.93731" lon="-3.70926">
        <ele>103.8</ele>
        <time>2020-06-07T14:59:08Z</time>
      </trkpt>
      <trkpt lat="47.93735" lon="-3.70927">
        <ele>104.1</ele>
        <time>2020-06-07T14:59:09Z</time>
      </trkpt>
      <trkpt lat="47.93736" lon="-3.70927">
        <ele>104.2</ele>
        <time>2020-06-07T14:59:10Z</time>
      </trkpt>
      <trkpt lat="47.9374" lon="-3.70928">
        <ele>104.4</ele>
        <time>2020-06-07T14:59:11Z</time>
      </trkpt>
      <trkpt lat="47.93743" lon="-3.70928">
        <ele>104.6</ele>
        <time>2020-06-07T14:59:12Z</time>
      </trkpt>
      <trkpt lat="47.93746" lon="-3.70928">
        <ele>104.8</ele>
        <time>2020-06-07T14:59:13Z</time>
      </trkpt>
      <trkpt lat="47.93749" lon="-3.70928">
        <ele>105</ele>
        <time>2020-06-07T14:59:14Z</time>
      </trkpt>
      <trkpt lat="47.9375" lon="-3.70928">
        <ele>105.1</ele>
        <time>2020-06-07T14:59:15Z</time>
      </trkpt>
      <trkpt lat="47.93753" lon="-3.70928">
        <ele>105.3</ele>
        <time>2020-06-07T14:59:16Z</time>
      </trkpt>
      <trkpt lat="47.93754" lon="-3.70928">
        <ele>105.4</ele>
        <time>2020-06-07T14:59:17Z</time>
      </trkpt>
      <trkpt lat="47.93758" lon="-3.70929">
        <ele>105.7</ele>
        <time>2020-06-07T14:59:18Z</time>
      </trkpt>
      <trkpt lat="47.9376" lon="-3.7093">
        <ele>105.8</ele>
        <time>2020-06-07T14:59:19Z</time>
      </trkpt>
      <trkpt lat="47.93763" lon="-3.7093">
        <ele>106</ele>
        <time>2020-06-07T14:59:20Z</time>
      </trkpt>
      <trkpt lat="47.93766" lon="-3.70931">
        <ele>106.2</ele>
        <time>2020-06-07T14:59:21Z</time>
      </trkpt>
      <trkpt lat="47.93769" lon="-3.70932">
        <ele>106.4</ele>
        <time>2020-06-07T14:59:22Z</time>
      </trkpt>
      <trkpt lat="47.93772" lon="-3.70931">
        <ele>106.5</ele>
        <time>2020-06-07T14:59:23Z</time>
      </trkpt>
      <trkpt lat="47.93776" lon="-3.70931">
        <ele>106.8</ele>
        <time>2020-06-07T14:59:24Z</time>
      </trkpt>
      <trkpt lat="47.93778" lon="-3.70931">
        <ele>106.9</ele>
        <time>2020-06-07T14:59:25Z</time>
      </trkpt>
      <trkpt lat="47.9378" lon="-3.70932">
        <ele>107</ele>
        <time>2020-06-07T14:59:26Z</time>
      </trkpt>
      <trkpt lat="47.93784" lon="-3.70933">
        <ele>107.3</ele>
        <time>2020-06-07T14:59:27Z</time>
      </trkpt>
      <trkpt lat="47.93785" lon="-3.70933">
        <ele>107.3</ele>
        <time>2020-06-07T14:59:28Z</time>
      </trkpt>
      <trkpt lat="47.93789" lon="-3.70933">
        <ele>107.5</ele>
        <time>2020-06-07T14:59:29Z</time>
      </trkpt>
      <trkpt lat="47.9379" lon="-3.70933">
        <ele>107.6</ele>
        <time>2020-06-07T14:59:30Z</time>
      </trkpt>
      <trkpt lat="47.93792" lon="-3.70933">
        <ele>107.7</ele>
        <time>2020-06-07T14:59:31Z</time>
      </trkpt>
      <trkpt lat="47.93794" lon="-3.70933">
        <ele>107.8</ele>
        <time>2020-06-07T14:59:32Z</time>
      </trkpt>
      <trkpt lat="47.93797" lon="-3.70934">
        <ele>108</ele>
        <time>2020-06-07T14:59:33Z</time>
      </trkpt>
      <trkpt lat="47.93798" lon="-3.70934">
        <ele>108</ele>
        <time>2020-06-07T14:59:34Z</time>
      </trkpt>
      <trkpt lat="47.93801" lon="-3.70935">
        <ele>108.2</ele>
        <time>2020-06-07T14:59:35Z</time>
      </trkpt>
      <trkpt lat="47.93802" lon="-3.70935">
        <ele>108.3</ele>
        <time>2020-06-07T14:59:36Z</time>
      </trkpt>
      <trkpt lat="47.93806" lon="-3.70936">
        <ele>108.5</ele>
        <time>2020-06-07T14:59:37Z</time>
      </trkpt>
      <trkpt lat="47.93807" lon="-3.70936">
        <ele>108.6</ele>
        <time>2020-06-07T14:59:38Z</time>
      </trkpt>
      <trkpt lat="47.9381" lon="-3.70936">
        <ele>108.7</ele>
        <time>2020-06-07T14:59:39Z</time>
      </trkpt>
      <trkpt lat="47.93813" lon="-3.70936">
        <ele>108.9</ele>
        <time>2020-06-07T14:59:40Z</time>
      </trkpt>
      <trkpt lat="47.93817" lon="-3.70937">
        <ele>109.1</ele>
        <time>2020-06-07T14:59:41Z</time>
      </trkpt>
      <trkpt lat="47.93818" lon="-3.70938">
        <ele>109.2</ele>
        <time>2020-06-07T14:59:42Z</time>
      </trkpt>
      <trkpt lat="47.93822" lon="-3.70938">
        <ele>109.4</ele>
        <time>2020-06-07T14:59:43Z</time>
      </trkpt>
      <trkpt lat="47.93824" lon="-3.70938">
        <ele>109.5</ele>
        <time>2020-06-07T14:59:44Z</time>
      </trkpt>
      <trkpt lat="47.93827" lon="-3.70938">
        <ele>109.7</ele>
        <time>2020-06-07T14:59:45Z</time>
      </trkpt>
      <trkpt lat="47.93831" lon="-3.70938">
        <ele>109.9</ele>
        <time>2020-06-07T14:59:46Z</time>
      </trkpt>
      <trkpt lat="47.93834" lon="-3.70938">
        <ele>110.1</ele>
        <time>2020-06-07T14:59:47Z</time>
      </trkpt>
      <trkpt lat="47.93838" lon="-3.70938">
        <ele>110.3</ele>
        <time>2020-06-07T14:59:48Z</time>
      </trkpt>
      <trkpt lat="47.93839" lon="-3.70938">
        <ele>110.4</ele>
        <time>2020-06-07T14:59:49Z</time>
      </trkpt>
      <trkpt lat="47.93843" lon="-3.70939">
        <ele>110.6</ele>
        <time>2020-06-07T14:59:50Z</time>
      </trkpt>
      <trkpt lat="47.93844" lon="-3.70939">
        <ele>110.6</ele>
        <time>2020-06-07T14:59:51Z</time>
      </trkpt>
      <trkpt lat="47.93847" lon="-3.70939">
        <ele>110.8</ele>
        <time>2020-06-07T14:59:52Z</time>
      </trkpt>
      <trkpt lat="47.9385" lon="-3.7094">
        <ele>111</ele>
        <time>2020-06-07T14:59:53Z</time>
      </trkpt>
      <trkpt lat="47.93851" lon="-3.7094">
        <ele>111</ele>
        <time>2020-06-07T14:59:54Z</time>
      </trkpt>
      <trkpt lat="47.93855" lon="-3.7094">
        <ele>111.2</ele>
        <time>2020-06-07T14:59:55Z</time>
      </trkpt>
      <trkpt lat="47.93856" lon="-3.70941">
        <ele>111.3</ele>
        <time>2020-06-07T14:59:56Z</time>
      </trkpt>
      <trkpt lat="47.93859" lon="-3.70942">
        <ele>111.4</ele>
        <time>2020-06-07T14:59:57Z</time>
      </trkpt>
      <trkpt lat="47.9386" lon="-3.70943">
        <ele>111.4</ele>
        <time>2020-06-07T14:59:58Z</time>
      </trkpt>
      <trkpt lat="47.93863" lon="-3.70942">
        <ele>111.4</ele>
        <time>2020-06-07T14:59:59Z</time>
      </trkpt>
      <trkpt lat="47.93864" lon="-3.70942">
        <ele>111.4</ele>
        <time>2020-06-07T15:00:00Z</time>
      </trkpt>
      <trkpt lat="47.93867" lon="-3.70942">
        <ele>111.4</ele>
        <time>2020-06-07T15:00:01Z</time>
      </trkpt>
      <trkpt lat="47.9387" lon="-3.70943">
        <ele>111.6</ele>
        <time>2020-06-07T15:00:02Z</time>
      </trkpt>
      <trkpt lat="47.93871" lon="-3.70944">
        <ele>111.7</ele>
        <time>2020-06-07T15:00:03Z</time>
      </trkpt>
      <trkpt lat="47.93874" lon="-3.70945">
        <ele>111.9</ele>
        <time>2020-06-07T15:00:04Z</time>
      </trkpt>
      <trkpt lat="47.93879" lon="-3.70945">
        <ele>112.1</ele>
        <time>2020-06-07T15:00:05Z</time>
      </trkpt>
      <trkpt lat="47.93881" lon="-3.70945">
        <ele>112.2</ele>
        <time>2020-06-07T15:00:06Z</time>
      </trkpt>
      <trkpt lat="47.93885" lon="-3.70946">
        <ele>112.4</ele>
        <time>2020-06-07T15:00:07Z</time>
      </trkpt>
      <trkpt lat="47.93886" lon="-3.70946">
        <ele>112.5</ele>
        <time>2020-06-07T15:00:08Z</time>
      </trkpt>
      <trkpt lat="47.9389" lon="-3.70947">
        <ele>112.7</ele>
        <time>2020-06-07T15:00:09Z</time>
      </trkpt>
      <trkpt lat="47.93891" lon="-3.70947">
        <ele>112.7</ele>
        <time>2020-06-07T15:00:10Z</time>
      </trkpt>
      <trkpt lat="47.93894" lon="-3.70947">
        <ele>112.9</ele>
        <time>2020-06-07T15:00:11Z</time>
      </trkpt>
      <trkpt lat="47.93898" lon="-3.70949">
        <ele>113</ele>
        <time>2020-06-07T15:00:12Z</time>
      </trkpt>
      <trkpt lat="47.93899" lon="-3.70949">
        <ele>113.1</ele>
        <time>2020-06-07T15:00:13Z</time>
      </trkpt>
      <trkpt lat="47.93903" lon="-3.70949">
        <ele>113.2</ele>
        <time>2020-06-07T15:00:14Z</time>
      </trkpt>
      <trkpt lat="47.93904" lon="-3.70949">
        <ele>113.3</ele>
        <time>2020-06-07T15:00:15Z</time>
      </trkpt>
      <trkpt lat="47.93907" lon="-3.7095">
        <ele>113.4</ele>
        <time>2020-06-07T15:00:16Z</time>
      </trkpt>
      <trkpt lat="47.93911" lon="-3.70952">
        <ele>113.5</ele>
        <time>2020-06-07T15:00:17Z</time>
      </trkpt>
      <trkpt lat="47.93914" lon="-3.70953">
        <ele>113.6</ele>
        <time>2020-06-07T15:00:18Z</time>
      </trkpt>
      <trkpt lat="47.93918" lon="-3.70954">
        <ele>113.8</ele>
        <time>2020-06-07T15:00:19Z</time>
      </trkpt>
      <trkpt lat="47.93921" lon="-3.70956">
        <ele>113.9</ele>
        <time>2020-06-07T15:00:20Z</time>
      </trkpt>
      <trkpt lat="47.93924" lon="-3.70958">
        <ele>114</ele>
        <time>2020-06-07T15:00:21Z</time>
      </trkpt>
      <trkpt lat="47.93928" lon="-3.7096">
        <ele>114.1</ele>
        <time>2020-06-07T15:00:22Z</time>
      </trkpt>
      <trkpt lat="47.93929" lon="-3.7096">
        <ele>114.1</ele>
        <time>2020-06-07T15:00:23Z</time>
      </trkpt>
      <trkpt lat="47.93932" lon="-3.70959">
        <ele>114.2</ele>
        <time>2020-06-07T15:00:24Z</time>
      </trkpt>
      <trkpt lat="47.93935" lon="-3.70957">
        <ele>114.3</ele>
        <time>2020-06-07T15:00:25Z</time>
      </trkpt>
      <trkpt lat="47.93938" lon="-3.70957">
        <ele>114.4</ele>
        <time>2020-06-07T15:00:26Z</time>
      </trkpt>
      <trkpt lat="47.93941" lon="-3.70958">
        <ele>114.5</ele>
        <time>2020-06-07T15:00:27Z</time>
      </trkpt>
      <trkpt lat="47.93945" lon="-3.70959">
        <ele>114.6</ele>
        <time>2020-06-07T15:00:28Z</time>
      </trkpt>
      <trkpt lat="47.93949" lon="-3.70959">
        <ele>114.7</ele>
        <time>2020-06-07T15:00:29Z</time>
      </trkpt>
      <trkpt lat="47.93951" lon="-3.70959">
        <ele>114.7</ele>
        <time>2020-06-07T15:00:30Z</time>
      </trkpt>
      <trkpt lat="47.93954" lon="-3.70958">
        <ele>114.8</ele>
        <time>2020-06-07T15:00:31Z</time>
      </trkpt>
      <trkpt lat="47.93957" lon="-3.70959">
        <ele>114.9</ele>
        <time>2020-06-07T15:00:32Z</time>
      </trkpt>
      <trkpt lat="47.9396" lon="-3.70959">
        <ele>114.9</ele>
        <time>2020-06-07T15:00:33Z</time>
      </trkpt>
      <trkpt lat="47.93963" lon="-3.7096">
        <ele>115</ele>
        <time>2020-06-07T15:00:34Z</time>
      </trkpt>
      <trkpt lat="47.93964" lon="-3.70961">
        <ele>115</ele>
        <time>2020-06-07T15:00:35Z</time>
      </trkpt>
      <trkpt lat="47.93968" lon="-3.70962">
        <ele>115.1</ele>
        <time>2020-06-07T15:00:36Z</time>
      </trkpt>
      <trkpt lat="47.93969" lon="-3.70961">
        <ele>115.1</ele>
        <time>2020-06-07T15:00:37Z</time>
      </trkpt>
      <trkpt lat="47.93972" lon="-3.70961">
        <ele>115.2</ele>
        <time>2020-06-07T15:00:38Z</time>
      </trkpt>
      <trkpt lat="47.93974" lon="-3.70962">
        <ele>115.2</ele>
        <time>2020-06-07T15:00:39Z</time>
      </trkpt>
      <trkpt lat="47.93977" lon="-3.70962">
        <ele>115.2</ele>
        <time>2020-06-07T15:00:40Z</time>
      </trkpt>
      <trkpt lat="47.9398" lon="-3.70963">
        <ele>115.3</ele>
        <time>2020-06-07T15:00:41Z</time>
      </trkpt>
      <trkpt lat="47.93983" lon="-3.70962">
        <ele>115.3</ele>
        <time>2020-06-07T15:00:42Z</time>
      </trkpt>
      <trkpt lat="47.93987" lon="-3.70963">
        <ele>115.3</ele>
        <time>2020-06-07T15:00:43Z</time>
      </trkpt>
      <trkpt lat="47.9399" lon="-3.70964">
        <ele>115.4</ele>
        <time>2020-06-07T15:00:44Z</time>
      </trkpt>
      <trkpt lat="47.93993" lon="-3.70963">
        <ele>115.4</ele>
        <time>2020-06-07T15:00:45Z</time>
      </trkpt>
      <trkpt lat="47.93997" lon="-3.70963">
        <ele>115.5</ele>
        <time>2020-06-07T15:00:46Z</time>
      </trkpt>
      <trkpt lat="47.93998" lon="-3.70962">
        <ele>115.5</ele>
        <time>2020-06-07T15:00:47Z</time>
      </trkpt>
      <trkpt lat="47.94001" lon="-3.70963">
        <ele>115.5</ele>
        <time>2020-06-07T15:00:48Z</time>
      </trkpt>
      <trkpt lat="47.94005" lon="-3.70964">
        <ele>115.6</ele>
        <time>2020-06-07T15:00:49Z</time>
      </trkpt>
      <trkpt lat="47.94009" lon="-3.70963">
        <ele>115.6</ele>
        <time>2020-06-07T15:00:50Z</time>
      </trkpt>
      <trkpt lat="47.94013" lon="-3.70964">
        <ele>115.6</ele>
        <time>2020-06-07T15:00:51Z</time>
      </trkpt>
      <trkpt lat="47.94017" lon="-3.70964">
        <ele>115.7</ele>
        <time>2020-06-07T15:00:52Z</time>
      </trkpt>
      <trkpt lat="47.9402" lon="-3.70965">
        <ele>115.7</ele>
        <time>2020-06-07T15:00:53Z</time>
      </trkpt>
      <trkpt lat="47.94024" lon="-3.70965">
        <ele>115.7</ele>
        <time>2020-06-07T15:00:54Z</time>
      </trkpt>
      <trkpt lat="47.94029" lon="-3.70966">
        <ele>115.8</ele>
        <time>2020-06-07T15:00:55Z</time>
      </trkpt>
      <trkpt lat="47.94034" lon="-3.70967">
        <ele>115.8</ele>
        <time>2020-06-07T15:00:56Z</time>
      </trkpt>
      <trkpt lat="47.94038" lon="-3.70967">
        <ele>115.8</ele>
        <time>2020-06-07T15:00:57Z</time>
      </trkpt>
      <trkpt lat="47.94042" lon="-3.70968">
        <ele>115.8</ele>
        <time>2020-06-07T15:00:58Z</time>
      </trkpt>
      <trkpt lat="47.94046" lon="-3.70969">
        <ele>115.8</ele>
        <time>2020-06-07T15:00:59Z</time>
      </trkpt>
      <trkpt lat="47.9405" lon="-3.7097">
        <ele>115.8</ele>
        <time>2020-06-07T15:01:00Z</time>
      </trkpt>
      <trkpt lat="47.94053" lon="-3.70971">
        <ele>115.8</ele>
        <time>2020-06-07T15:01:01Z</time>
      </trkpt>
      <trkpt lat="47.94056" lon="-3.70972">
        <ele>115.8</ele>
        <time>2020-06-07T15:01:02Z</time>
      </trkpt>
      <trkpt lat="47.9406" lon="-3.70972">
        <ele>115.8</ele>
        <time>2020-06-07T15:01:03Z</time>
      </trkpt>
      <trkpt lat="47.94061" lon="-3.70973">
        <ele>115.8</ele>
        <time>2020-06-07T15:01:04Z</time>
      </trkpt>
      <trkpt lat="47.94066" lon="-3.70975">
        <ele>115.8</ele>
        <time>2020-06-07T15:01:05Z</time>
      </trkpt>
      <trkpt lat="47.9407" lon="-3.70976">
        <ele>115.7</ele>
        <time>2020-06-07T15:01:06Z</time>
      </trkpt>
      <trkpt lat="47.94073" lon="-3.70975">
        <ele>115.7</ele>
        <time>2020-06-07T15:01:07Z</time>
      </trkpt>
      <trkpt lat="47.94077" lon="-3.70976">
        <ele>115.7</ele>
        <time>2020-06-07T15:01:08Z</time>
      </trkpt>
      <trkpt lat="47.94081" lon="-3.70977">
        <ele>115.7</ele>
        <time>2020-06-07T15:01:09Z</time>
      </trkpt>
      <trkpt lat="47.94085" lon="-3.70975">
        <ele>115.7</ele>
        <time>2020-06-07T15:01:10Z</time>
      </trkpt>
      <trkpt lat="47.94089" lon="-3.70976">
        <ele>115.6</ele>
        <time>2020-06-07T15:01:11Z</time>
      </trkpt>
      <trkpt lat="47.94093" lon="-3.70976">
        <ele>115.6</ele>
        <time>2020-06-07T15:01:12Z</time>
      </trkpt>
      <trkpt lat="47.94098" lon="-3.70975">
        <ele>115.6</ele>
        <time>2020-06-07T15:01:13Z</time>
      </trkpt>
      <trkpt lat="47.94101" lon="-3.70975">
        <ele>115.5</ele>
        <time>2020-06-07T15:01:14Z</time>
      </trkpt>
      <trkpt lat="47.94105" lon="-3.70976">
        <ele>115.5</ele>
        <time>2020-06-07T15:01:15Z</time>
      </trkpt>
      <trkpt lat="47.9411" lon="-3.70977">
        <ele>115.4</ele>
        <time>2020-06-07T15:01:16Z</time>
      </trkpt>
      <trkpt lat="47.94114" lon="-3.70979">
        <ele>115.4</ele>
        <time>2020-06-07T15:01:17Z</time>
      </trkpt>
      <trkpt lat="47.94118" lon="-3.70979">
        <ele>115.4</ele>
        <time>2020-06-07T15:01:18Z</time>
      </trkpt>
      <trkpt lat="47.94122" lon="-3.70979">
        <ele>115.3</ele>
        <time>2020-06-07T15:01:19Z</time>
      </trkpt>
      <trkpt lat="47.94127" lon="-3.70979">
        <ele>115.3</ele>
        <time>2020-06-07T15:01:20Z</time>
      </trkpt>
      <trkpt lat="47.94132" lon="-3.7098">
        <ele>115.2</ele>
        <time>2020-06-07T15:01:21Z</time>
      </trkpt>
      <trkpt lat="47.94136" lon="-3.70981">
        <ele>115.2</ele>
        <time>2020-06-07T15:01:22Z</time>
      </trkpt>
      <trkpt lat="47.94141" lon="-3.70982">
        <ele>115.1</ele>
        <time>2020-06-07T15:01:23Z</time>
      </trkpt>
      <trkpt lat="47.94146" lon="-3.70982">
        <ele>115</ele>
        <time>2020-06-07T15:01:24Z</time>
      </trkpt>
      <trkpt lat="47.94152" lon="-3.70978">
        <ele>114.8</ele>
        <time>2020-06-07T15:01:25Z</time>
      </trkpt>
      <trkpt lat="47.94158" lon="-3.70978">
        <ele>114.7</ele>
        <time>2020-06-07T15:01:26Z</time>
      </trkpt>
      <trkpt lat="47.94163" lon="-3.7098">
        <ele>114.5</ele>
        <time>2020-06-07T15:01:27Z</time>
      </trkpt>
      <trkpt lat="47.94169" lon="-3.7098">
        <ele>114.3</ele>
        <time>2020-06-07T15:01:28Z</time>
      </trkpt>
      <trkpt lat="47.94176" lon="-3.7098">
        <ele>114.1</ele>
        <time>2020-06-07T15:01:29Z</time>
      </trkpt>
      <trkpt lat="47.94184" lon="-3.7098">
        <ele>113.9</ele>
        <time>2020-06-07T15:01:30Z</time>
      </trkpt>
      <trkpt lat="47.9419" lon="-3.7098">
        <ele>113.7</ele>
        <time>2020-06-07T15:01:31Z</time>
      </trkpt>
      <trkpt lat="47.94197" lon="-3.70979">
        <ele>113.5</ele>
        <time>2020-06-07T15:01:32Z</time>
      </trkpt>
      <trkpt lat="47.94202" lon="-3.7098">
        <ele>113.4</ele>
        <time>2020-06-07T15:01:33Z</time>
      </trkpt>
      <trkpt lat="47.94209" lon="-3.7098">
        <ele>113.2</ele>
        <time>2020-06-07T15:01:34Z</time>
      </trkpt>
      <trkpt lat="47.94214" lon="-3.7098">
        <ele>113.1</ele>
        <time>2020-06-07T15:01:35Z</time>
      </trkpt>
      <trkpt lat="47.94219" lon="-3.7098">
        <ele>112.9</ele>
        <time>2020-06-07T15:01:36Z</time>
      </trkpt>
      <trkpt lat="47.94224" lon="-3.7098">
        <ele>112.8</ele>
        <time>2020-06-07T15:01:37Z</time>
      </trkpt>
      <trkpt lat="47.94228" lon="-3.7098">
        <ele>112.6</ele>
        <time>2020-06-07T15:01:38Z</time>
      </trkpt>
      <trkpt lat="47.94233" lon="-3.7098">
        <ele>112.5</ele>
        <time>2020-06-07T15:01:39Z</time>
      </trkpt>
      <trkpt lat="47.94237" lon="-3.70981">
        <ele>112.3</ele>
        <time>2020-06-07T15:01:40Z</time>
      </trkpt>
      <trkpt lat="47.94242" lon="-3.70981">
        <ele>112.1</ele>
        <time>2020-06-07T15:01:41Z</time>
      </trkpt>
      <trkpt lat="47.94247" lon="-3.70981">
        <ele>112</ele>
        <time>2020-06-07T15:01:42Z</time>
      </trkpt>
      <trkpt lat="47.94252" lon="-3.70981">
        <ele>111.8</ele>
        <time>2020-06-07T15:01:43Z</time>
      </trkpt>
      <trkpt lat="47.94257" lon="-3.70981">
        <ele>111.7</ele>
        <time>2020-06-07T15:01:44Z</time>
      </trkpt>
      <trkpt lat="47.94262" lon="-3.70982">
        <ele>111.5</ele>
        <time>2020-06-07T15:01:45Z</time>
      </trkpt>
      <trkpt lat="47.94268" lon="-3.70982">
        <ele>111.3</ele>
        <time>2020-06-07T15:01:46Z</time>
      </trkpt>
      <trkpt lat="47.94273" lon="-3.70982">
        <ele>111.2</ele>
        <time>2020-06-07T15:01:47Z</time>
      </trkpt>
      <trkpt lat="47.9428" lon="-3.70982">
        <ele>111</ele>
        <time>2020-06-07T15:01:48Z</time>
      </trkpt>
      <trkpt lat="47.94287" lon="-3.70983">
        <ele>110.7</ele>
        <time>2020-06-07T15:01:49Z</time>
      </trkpt>
      <trkpt lat="47.94293" lon="-3.70983">
        <ele>110.5</ele>
        <time>2020-06-07T15:01:50Z</time>
      </trkpt>
      <trkpt lat="47.943" lon="-3.70983">
        <ele>110.3</ele>
        <time>2020-06-07T15:01:51Z</time>
      </trkpt>
      <trkpt lat="47.94306" lon="-3.70983">
        <ele>110.2</ele>
        <time>2020-06-07T15:01:52Z</time>
      </trkpt>
      <trkpt lat="47.94312" lon="-3.70983">
        <ele>110</ele>
        <time>2020-06-07T15:01:53Z</time>
      </trkpt>
      <trkpt lat="47.94317" lon="-3.70983">
        <ele>109.9</ele>
        <time>2020-06-07T15:01:54Z</time>
      </trkpt>
      <trkpt lat="47.94322" lon="-3.70983">
        <ele>109.7</ele>
        <time>2020-06-07T15:01:55Z</time>
      </trkpt>
      <trkpt lat="47.94327" lon="-3.70983">
        <ele>109.6</ele>
        <time>2020-06-07T15:01:56Z</time>
      </trkpt>
      <trkpt lat="47.94332" lon="-3.70983">
        <ele>109.4</ele>
        <time>2020-06-07T15:01:57Z</time>
      </trkpt>
      <trkpt lat="47.94339" lon="-3.70983">
        <ele>109.2</ele>
        <time>2020-06-07T15:01:58Z</time>
      </trkpt>
      <trkpt lat="47.94345" lon="-3.70984">
        <ele>109.1</ele>
        <time>2020-06-07T15:01:59Z</time>
      </trkpt>
      <trkpt lat="47.94351" lon="-3.70983">
        <ele>108.9</ele>
        <time>2020-06-07T15:02:00Z</time>
      </trkpt>
      <trkpt lat="47.94356" lon="-3.70983">
        <ele>108.8</ele>
        <time>2020-06-07T15:02:01Z</time>
      </trkpt>
      <trkpt lat="47.94362" lon="-3.70983">
        <ele>108.6</ele>
        <time>2020-06-07T15:02:02Z</time>
      </trkpt>
      <trkpt lat="47.94368" lon="-3.70983">
        <ele>108.5</ele>
        <time>2020-06-07T15:02:03Z</time>
      </trkpt>
      <trkpt lat="47.94374" lon="-3.70984">
        <ele>108.4</ele>
        <time>2020-06-07T15:02:04Z</time>
      </trkpt>
      <trkpt lat="47.94379" lon="-3.70985">
        <ele>108.2</ele>
        <time>2020-06-07T15:02:05Z</time>
      </trkpt>
      <trkpt lat="47.94385" lon="-3.70985">
        <ele>108.1</ele>
        <time>2020-06-07T15:02:06Z</time>
      </trkpt>
      <trkpt lat="47.94392" lon="-3.70985">
        <ele>108</ele>
        <time>2020-06-07T15:02:07Z</time>
      </trkpt>
      <trkpt lat="47.94398" lon="-3.70985">
        <ele>107.9</ele>
        <time>2020-06-07T15:02:08Z</time>
      </trkpt>
      <trkpt lat="47.94405" lon="-3.70986">
        <ele>107.9</ele>
        <time>2020-06-07T15:02:09Z</time>
      </trkpt>
      <trkpt lat="47.94411" lon="-3.70986">
        <ele>107.8</ele>
        <time>2020-06-07T15:02:10Z</time>
      </trkpt>
      <trkpt lat="47.94417" lon="-3.70987">
        <ele>107.8</ele>
        <time>2020-06-07T15:02:11Z</time>
      </trkpt>
      <trkpt lat="47.94423" lon="-3.70987">
        <ele>107.7</ele>
        <time>2020-06-07T15:02:12Z</time>
      </trkpt>
      <trkpt lat="47.9443" lon="-3.70986">
        <ele>107.7</ele>
        <time>2020-06-07T15:02:13Z</time>
      </trkpt>
      <trkpt lat="47.94435" lon="-3.70984">
        <ele>107.7</ele>
        <time>2020-06-07T15:02:14Z</time>
      </trkpt>
      <trkpt lat="47.94441" lon="-3.70984">
        <ele>107.7</ele>
        <time>2020-06-07T15:02:15Z</time>
      </trkpt>
      <trkpt lat="47.94447" lon="-3.70983">
        <ele>107.8</ele>
        <time>2020-06-07T15:02:16Z</time>
      </trkpt>
      <trkpt lat="47.94453" lon="-3.70983">
        <ele>107.8</ele>
        <time>2020-06-07T15:02:17Z</time>
      </trkpt>
      <trkpt lat="47.9446" lon="-3.70982">
        <ele>107.8</ele>
        <time>2020-06-07T15:02:18Z</time>
      </trkpt>
      <trkpt lat="47.94465" lon="-3.70982">
        <ele>107.8</ele>
        <time>2020-06-07T15:02:19Z</time>
      </trkpt>
      <trkpt lat="47.94472" lon="-3.70982">
        <ele>107.8</ele>
        <time>2020-06-07T15:02:20Z</time>
      </trkpt>
      <trkpt lat="47.94478" lon="-3.70982">
        <ele>107.8</ele>
        <time>2020-06-07T15:02:21Z</time>
      </trkpt>
      <trkpt lat="47.94485" lon="-3.70982">
        <ele>107.9</ele>
        <time>2020-06-07T15:02:22Z</time>
      </trkpt>
      <trkpt lat="47.94491" lon="-3.70981">
        <ele>107.9</ele>
        <time>2020-06-07T15:02:23Z</time>
      </trkpt>
      <trkpt lat="47.94496" lon="-3.70981">
        <ele>108</ele>
        <time>2020-06-07T15:02:24Z</time>
      </trkpt>
      <trkpt lat="47.94502" lon="-3.7098">
        <ele>108</ele>
        <time>2020-06-07T15:02:25Z</time>
      </trkpt>
      <trkpt lat="47.94507" lon="-3.7098">
        <ele>108.1</ele>
        <time>2020-06-07T15:02:26Z</time>
      </trkpt>
      <trkpt lat="47.94513" lon="-3.70979">
        <ele>108.2</ele>
        <time>2020-06-07T15:02:27Z</time>
      </trkpt>
      <trkpt lat="47.94518" lon="-3.70979">
        <ele>108.2</ele>
        <time>2020-06-07T15:02:28Z</time>
      </trkpt>
      <trkpt lat="47.94523" lon="-3.70978">
        <ele>108.3</ele>
        <time>2020-06-07T15:02:29Z</time>
      </trkpt>
      <trkpt lat="47.94529" lon="-3.70977">
        <ele>108.4</ele>
        <time>2020-06-07T15:02:30Z</time>
      </trkpt>
      <trkpt lat="47.94534" lon="-3.70976">
        <ele>108.5</ele>
        <time>2020-06-07T15:02:31Z</time>
      </trkpt>
      <trkpt lat="47.94539" lon="-3.70975">
        <ele>108.6</ele>
        <time>2020-06-07T15:02:32Z</time>
      </trkpt>
      <trkpt lat="47.94543" lon="-3.70974">
        <ele>108.7</ele>
        <time>2020-06-07T15:02:33Z</time>
      </trkpt>
      <trkpt lat="47.94546" lon="-3.70974">
        <ele>108.8</ele>
        <time>2020-06-07T15:02:34Z</time>
      </trkpt>
      <trkpt lat="47.9455" lon="-3.70974">
        <ele>108.9</ele>
        <time>2020-06-07T15:02:35Z</time>
      </trkpt>
      <trkpt lat="47.94554" lon="-3.70974">
        <ele>109</ele>
        <time>2020-06-07T15:02:36Z</time>
      </trkpt>
      <trkpt lat="47.94558" lon="-3.70973">
        <ele>109.1</ele>
        <time>2020-06-07T15:02:37Z</time>
      </trkpt>
      <trkpt lat="47.94562" lon="-3.70974">
        <ele>109.2</ele>
        <time>2020-06-07T15:02:38Z</time>
      </trkpt>
      <trkpt lat="47.94565" lon="-3.70974">
        <ele>109.3</ele>
        <time>2020-06-07T15:02:39Z</time>
      </trkpt>
      <trkpt lat="47.9457" lon="-3.70974">
        <ele>109.4</ele>
        <time>2020-06-07T15:02:40Z</time>
      </trkpt>
      <trkpt lat="47.94574" lon="-3.70973">
        <ele>109.6</ele>
        <time>2020-06-07T15:02:41Z</time>
      </trkpt>
      <trkpt lat="47.94578" lon="-3.70973">
        <ele>109.7</ele>
        <time>2020-06-07T15:02:42Z</time>
      </trkpt>
      <trkpt lat="47.94583" lon="-3.70973">
        <ele>109.8</ele>
        <time>2020-06-07T15:02:43Z</time>
      </trkpt>
      <trkpt lat="47.94586" lon="-3.70973">
        <ele>110</ele>
        <time>2020-06-07T15:02:44Z</time>
      </trkpt>
      <trkpt lat="47.94591" lon="-3.70973">
        <ele>110.1</ele>
        <time>2020-06-07T15:02:45Z</time>
      </trkpt>
      <trkpt lat="47.94596" lon="-3.70973">
        <ele>110.3</ele>
        <time>2020-06-07T15:02:46Z</time>
      </trkpt>
      <trkpt lat="47.946" lon="-3.70972">
        <ele>110.5</ele>
        <time>2020-06-07T15:02:47Z</time>
      </trkpt>
      <trkpt lat="47.94605" lon="-3.70972">
        <ele>110.7</ele>
        <time>2020-06-07T15:02:48Z</time>
      </trkpt>
      <trkpt lat="47.94609" lon="-3.70973">
        <ele>110.9</ele>
        <time>2020-06-07T15:02:49Z</time>
      </trkpt>
      <trkpt lat="47.94614" lon="-3.70973">
        <ele>111.1</ele>
        <time>2020-06-07T15:02:50Z</time>
      </trkpt>
      <trkpt lat="47.94618" lon="-3.70973">
        <ele>111.2</ele>
        <time>2020-06-07T15:02:51Z</time>
      </trkpt>
      <trkpt lat="47.94622" lon="-3.70972">
        <ele>111.4</ele>
        <time>2020-06-07T15:02:52Z</time>
      </trkpt>
      <trkpt lat="47.94626" lon="-3.70972">
        <ele>111.6</ele>
        <time>2020-06-07T15:02:53Z</time>
      </trkpt>
      <trkpt lat="47.9463" lon="-3.70972">
        <ele>111.7</ele>
        <time>2020-06-07T15:02:54Z</time>
      </trkpt>
      <trkpt lat="47.94634" lon="-3.70971">
        <ele>111.8</ele>
        <time>2020-06-07T15:02:55Z</time>
      </trkpt>
      <trkpt lat="47.94638" lon="-3.70971">
        <ele>112</ele>
        <time>2020-06-07T15:02:56Z</time>
      </trkpt>
      <trkpt lat="47.94641" lon="-3.70971">
        <ele>112.1</ele>
        <time>2020-06-07T15:02:57Z</time>
      </trkpt>
      <trkpt lat="47.94644" lon="-3.70971">
        <ele>112.2</ele>
        <time>2020-06-07T15:02:58Z</time>
      </trkpt>
      <trkpt lat="47.94647" lon="-3.70971">
        <ele>112.3</ele>
        <time>2020-06-07T15:02:59Z</time>
      </trkpt>
      <trkpt lat="47.94651" lon="-3.70972">
        <ele>112.4</ele>
        <time>2020-06-07T15:03:00Z</time>
      </trkpt>
      <trkpt lat="47.94655" lon="-3.70972">
        <ele>112.6</ele>
        <time>2020-06-07T15:03:01Z</time>
      </trkpt>
      <trkpt lat="47.94659" lon="-3.70972">
        <ele>112.7</ele>
        <time>2020-06-07T15:03:02Z</time>
      </trkpt>
      <trkpt lat="47.94663" lon="-3.70972">
        <ele>112.9</ele>
        <time>2020-06-07T15:03:03Z</time>
      </trkpt>
      <trkpt lat="47.94667" lon="-3.70971">
        <ele>113.1</ele>
        <time>2020-06-07T15:03:04Z</time>
      </trkpt>
      <trkpt lat="47.94671" lon="-3.70971">
        <ele>113.2</ele>
        <time>2020-06-07T15:03:05Z</time>
      </trkpt>
      <trkpt lat="47.94674" lon="-3.70971">
        <ele>113.3</ele>
        <time>2020-06-07T15:03:06Z</time>
      </trkpt>
      <trkpt lat="47.94678" lon="-3.70971">
        <ele>113.5</ele>
        <time>2020-06-07T15:03:07Z</time>
      </trkpt>
      <trkpt lat="47.94681" lon="-3.70972">
        <ele>113.6</ele>
        <time>2020-06-07T15:03:08Z</time>
      </trkpt>
      <trkpt lat="47.94684" lon="-3.70972">
        <ele>113.7</ele>
        <time>2020-06-07T15:03:09Z</time>
      </trkpt>
      <trkpt lat="47.94687" lon="-3.70972">
        <ele>114</ele>
        <time>2020-06-07T15:03:10Z</time>
      </trkpt>
      <trkpt lat="47.9469" lon="-3.70972">
        <ele>114</ele>
        <time>2020-06-07T15:03:11Z</time>
      </trkpt>
      <trkpt lat="47.94693" lon="-3.70971">
        <ele>114.1</ele>
        <time>2020-06-07T15:03:12Z</time>
      </trkpt>
      <trkpt lat="47.94696" lon="-3.70971">
        <ele>114.1</ele>
        <time>2020-06-07T15:03:13Z</time>
      </trkpt>
      <trkpt lat="47.947" lon="-3.70971">
        <ele>114.2</ele>
        <time>2020-06-07T15:03:14Z</time>
      </trkpt>
      <trkpt lat="47.94703" lon="-3.70972">
        <ele>114.3</ele>
        <time>2020-06-07T15:03:15Z</time>
      </trkpt>
      <trkpt lat="47.94706" lon="-3.70972">
        <ele>114.3</ele>
        <time>2020-06-07T15:03:16Z</time>
      </trkpt>
      <trkpt lat="47.94709" lon="-3.70974">
        <ele>114.4</ele>
        <time>2020-06-07T15:03:17Z</time>
      </trkpt>
      <trkpt lat="47.94712" lon="-3.70975">
        <ele>114.5</ele>
        <time>2020-06-07T15:03:18Z</time>
      </trkpt>
      <trkpt lat="47.94715" lon="-3.70976">
        <ele>114.5</ele>
        <time>2020-06-07T15:03:19Z</time>
      </trkpt>
      <trkpt lat="47.94718" lon="-3.70977">
        <ele>114.6</ele>
        <time>2020-06-07T15:03:20Z</time>
      </trkpt>
      <trkpt lat="47.94722" lon="-3.70978">
        <ele>114.7</ele>
        <time>2020-06-07T15:03:21Z</time>
      </trkpt>
      <trkpt lat="47.94726" lon="-3.70979">
        <ele>114.9</ele>
        <time>2020-06-07T15:03:22Z</time>
      </trkpt>
      <trkpt lat="47.94729" lon="-3.70979">
        <ele>115.1</ele>
        <time>2020-06-07T15:03:23Z</time>
      </trkpt>
      <trkpt lat="47.94732" lon="-3.70979">
        <ele>115.3</ele>
        <time>2020-06-07T15:03:24Z</time>
      </trkpt>
      <trkpt lat="47.94736" lon="-3.7098">
        <ele>115.5</ele>
        <time>2020-06-07T15:03:25Z</time>
      </trkpt>
      <trkpt lat="47.9474" lon="-3.70981">
        <ele>115.7</ele>
        <time>2020-06-07T15:03:26Z</time>
      </trkpt>
      <trkpt lat="47.94743" lon="-3.70982">
        <ele>115.9</ele>
        <time>2020-06-07T15:03:27Z</time>
      </trkpt>
      <trkpt lat="47.94747" lon="-3.70984">
        <ele>116.2</ele>
        <time>2020-06-07T15:03:28Z</time>
      </trkpt>
      <trkpt lat="47.9475" lon="-3.70985">
        <ele>116.3</ele>
        <time>2020-06-07T15:03:29Z</time>
      </trkpt>
      <trkpt lat="47.94753" lon="-3.70986">
        <ele>116.5</ele>
        <time>2020-06-07T15:03:30Z</time>
      </trkpt>
      <trkpt lat="47.94756" lon="-3.70987">
        <ele>116.7</ele>
        <time>2020-06-07T15:03:31Z</time>
      </trkpt>
      <trkpt lat="47.94759" lon="-3.70989">
        <ele>116.9</ele>
        <time>2020-06-07T15:03:32Z</time>
      </trkpt>
      <trkpt lat="47.94763" lon="-3.7099">
        <ele>117.1</ele>
        <time>2020-06-07T15:03:33Z</time>
      </trkpt>
      <trkpt lat="47.94766" lon="-3.70991">
        <ele>117.3</ele>
        <time>2020-06-07T15:03:34Z</time>
      </trkpt>
      <trkpt lat="47.9477" lon="-3.70992">
        <ele>117.5</ele>
        <time>2020-06-07T15:03:35Z</time>
      </trkpt>
      <trkpt lat="47.94773" lon="-3.70993">
        <ele>117.8</ele>
        <time>2020-06-07T15:03:36Z</time>
      </trkpt>
      <trkpt lat="47.94777" lon="-3.70993">
        <ele>117.7</ele>
        <time>2020-06-07T15:03:37Z</time>
      </trkpt>
      <trkpt lat="47.9478" lon="-3.70993">
        <ele>117.8</ele>
        <time>2020-06-07T15:03:38Z</time>
      </trkpt>
      <trkpt lat="47.94783" lon="-3.70993">
        <ele>118</ele>
        <time>2020-06-07T15:03:39Z</time>
      </trkpt>
      <trkpt lat="47.94784" lon="-3.70993">
        <ele>118</ele>
        <time>2020-06-07T15:03:40Z</time>
      </trkpt>
      <trkpt lat="47.94787" lon="-3.70996">
        <ele>118.2</ele>
        <time>2020-06-07T15:03:41Z</time>
      </trkpt>
      <trkpt lat="47.94788" lon="-3.70997">
        <ele>118.3</ele>
        <time>2020-06-07T15:03:42Z</time>
      </trkpt>
      <trkpt lat="47.94792" lon="-3.70999">
        <ele>118.4</ele>
        <time>2020-06-07T15:03:43Z</time>
      </trkpt>
      <trkpt lat="47.94793" lon="-3.71">
        <ele>118.5</ele>
        <time>2020-06-07T15:03:44Z</time>
      </trkpt>
      <trkpt lat="47.94797" lon="-3.71">
        <ele>118.6</ele>
        <time>2020-06-07T15:03:45Z</time>
      </trkpt>
      <trkpt lat="47.94798" lon="-3.71">
        <ele>118.7</ele>
        <time>2020-06-07T15:03:46Z</time>
      </trkpt>
      <trkpt lat="47.94801" lon="-3.71001">
        <ele>118.8</ele>
        <time>2020-06-07T15:03:47Z</time>
      </trkpt>
      <trkpt lat="47.94802" lon="-3.71002">
        <ele>118.9</ele>
        <time>2020-06-07T15:03:48Z</time>
      </trkpt>
      <trkpt lat="47.94806" lon="-3.71003">
        <ele>119</ele>
        <time>2020-06-07T15:03:49Z</time>
      </trkpt>
      <trkpt lat="47.94808" lon="-3.71003">
        <ele>119.1</ele>
        <time>2020-06-07T15:03:50Z</time>
      </trkpt>
      <trkpt lat="47.94812" lon="-3.71004">
        <ele>119.3</ele>
        <time>2020-06-07T15:03:51Z</time>
      </trkpt>
      <trkpt lat="47.94815" lon="-3.71005">
        <ele>119.4</ele>
        <time>2020-06-07T15:03:52Z</time>
      </trkpt>
      <trkpt lat="47.94818" lon="-3.71006">
        <ele>119.5</ele>
        <time>2020-06-07T15:03:53Z</time>
      </trkpt>
      <trkpt lat="47.94822" lon="-3.71007">
        <ele>119.7</ele>
        <time>2020-06-07T15:03:54Z</time>
      </trkpt>
      <trkpt lat="47.94823" lon="-3.71008">
        <ele>119.7</ele>
        <time>2020-06-07T15:03:55Z</time>
      </trkpt>
      <trkpt lat="47.94827" lon="-3.71008">
        <ele>119.9</ele>
        <time>2020-06-07T15:03:56Z</time>
      </trkpt>
      <trkpt lat="47.94828" lon="-3.71008">
        <ele>119.9</ele>
        <time>2020-06-07T15:03:57Z</time>
      </trkpt>
      <trkpt lat="47.94832" lon="-3.71009">
        <ele>120.1</ele>
        <time>2020-06-07T15:03:58Z</time>
      </trkpt>
      <trkpt lat="47.94833" lon="-3.7101">
        <ele>120.2</ele>
        <time>2020-06-07T15:03:59Z</time>
      </trkpt>
      <trkpt lat="47.94836" lon="-3.7101">
        <ele>120.3</ele>
        <time>2020-06-07T15:04:00Z</time>
      </trkpt>
      <trkpt lat="47.94839" lon="-3.71011">
        <ele>120.4</ele>
        <time>2020-06-07T15:04:01Z</time>
      </trkpt>
      <trkpt lat="47.94842" lon="-3.71011">
        <ele>120.6</ele>
        <time>2020-06-07T15:04:02Z</time>
      </trkpt>
      <trkpt lat="47.94844" lon="-3.71012">
        <ele>120.7</ele>
        <time>2020-06-07T15:04:03Z</time>
      </trkpt>
      <trkpt lat="47.94847" lon="-3.71012">
        <ele>120.8</ele>
        <time>2020-06-07T15:04:04Z</time>
      </trkpt>
      <trkpt lat="47.9485" lon="-3.71012">
        <ele>121</ele>
        <time>2020-06-07T15:04:05Z</time>
      </trkpt>
      <trkpt lat="47.94854" lon="-3.71013">
        <ele>121.1</ele>
        <time>2020-06-07T15:04:06Z</time>
      </trkpt>
      <trkpt lat="47.94855" lon="-3.71014">
        <ele>121.2</ele>
        <time>2020-06-07T15:04:07Z</time>
      </trkpt>
      <trkpt lat="47.94859" lon="-3.71015">
        <ele>121.4</ele>
        <time>2020-06-07T15:04:08Z</time>
      </trkpt>
      <trkpt lat="47.9486" lon="-3.71015">
        <ele>121.4</ele>
        <time>2020-06-07T15:04:09Z</time>
      </trkpt>
      <trkpt lat="47.94864" lon="-3.71015">
        <ele>121.6</ele>
        <time>2020-06-07T15:04:10Z</time>
      </trkpt>
      <trkpt lat="47.94865" lon="-3.71015">
        <ele>121.6</ele>
        <time>2020-06-07T15:04:11Z</time>
      </trkpt>
      <trkpt lat="47.94869" lon="-3.71015">
        <ele>121.8</ele>
        <time>2020-06-07T15:04:12Z</time>
      </trkpt>
      <trkpt lat="47.94871" lon="-3.71015">
        <ele>121.8</ele>
        <time>2020-06-07T15:04:13Z</time>
      </trkpt>
      <trkpt lat="47.94874" lon="-3.71017">
        <ele>121.9</ele>
        <time>2020-06-07T15:04:14Z</time>
      </trkpt>
      <trkpt lat="47.94877" lon="-3.71018">
        <ele>122</ele>
        <time>2020-06-07T15:04:15Z</time>
      </trkpt>
      <trkpt lat="47.9488" lon="-3.71019">
        <ele>122.2</ele>
        <time>2020-06-07T15:04:16Z</time>
      </trkpt>
      <trkpt lat="47.94881" lon="-3.71019">
        <ele>122.2</ele>
        <time>2020-06-07T15:04:17Z</time>
      </trkpt>
      <trkpt lat="47.94884" lon="-3.71018">
        <ele>122.4</ele>
        <time>2020-06-07T15:04:18Z</time>
      </trkpt>
      <trkpt lat="47.94885" lon="-3.71018">
        <ele>122.4</ele>
        <time>2020-06-07T15:04:19Z</time>
      </trkpt>
      <trkpt lat="47.94888" lon="-3.71019">
        <ele>122.6</ele>
        <time>2020-06-07T15:04:20Z</time>
      </trkpt>
      <trkpt lat="47.9489" lon="-3.71019">
        <ele>122.6</ele>
        <time>2020-06-07T15:04:21Z</time>
      </trkpt>
      <trkpt lat="47.94893" lon="-3.7102">
        <ele>122.8</ele>
        <time>2020-06-07T15:04:22Z</time>
      </trkpt>
      <trkpt lat="47.94894" lon="-3.7102">
        <ele>122.8</ele>
        <time>2020-06-07T15:04:23Z</time>
      </trkpt>
      <trkpt lat="47.94897" lon="-3.7102">
        <ele>122.9</ele>
        <time>2020-06-07T15:04:24Z</time>
      </trkpt>
      <trkpt lat="47.949" lon="-3.7102">
        <ele>123.1</ele>
        <time>2020-06-07T15:04:25Z</time>
      </trkpt>
      <trkpt lat="47.94903" lon="-3.71021">
        <ele>123.2</ele>
        <time>2020-06-07T15:04:26Z</time>
      </trkpt>
      <trkpt lat="47.94906" lon="-3.71022">
        <ele>123.3</ele>
        <time>2020-06-07T15:04:27Z</time>
      </trkpt>
      <trkpt lat="47.94909" lon="-3.71022">
        <ele>123.5</ele>
        <time>2020-06-07T15:04:28Z</time>
      </trkpt>
      <trkpt lat="47.94912" lon="-3.71022">
        <ele>123.6</ele>
        <time>2020-06-07T15:04:29Z</time>
      </trkpt>
      <trkpt lat="47.94915" lon="-3.71023">
        <ele>123.7</ele>
        <time>2020-06-07T15:04:30Z</time>
      </trkpt>
      <trkpt lat="47.94918" lon="-3.71024">
        <ele>123.8</ele>
        <time>2020-06-07T15:04:31Z</time>
      </trkpt>
      <trkpt lat="47.94921" lon="-3.71025">
        <ele>123.9</ele>
        <time>2020-06-07T15:04:32Z</time>
      </trkpt>
      <trkpt lat="47.94924" lon="-3.71026">
        <ele>124.1</ele>
        <time>2020-06-07T15:04:33Z</time>
      </trkpt>
      <trkpt lat="47.94927" lon="-3.71025">
        <ele>124.2</ele>
        <time>2020-06-07T15:04:34Z</time>
      </trkpt>
      <trkpt lat="47.94931" lon="-3.71026">
        <ele>124.3</ele>
        <time>2020-06-07T15:04:35Z</time>
      </trkpt>
      <trkpt lat="47.94932" lon="-3.71027">
        <ele>124.4</ele>
        <time>2020-06-07T15:04:36Z</time>
      </trkpt>
      <trkpt lat="47.94935" lon="-3.71026">
        <ele>124.5</ele>
        <time>2020-06-07T15:04:37Z</time>
      </trkpt>
      <trkpt lat="47.94939" lon="-3.71027">
        <ele>124.7</ele>
        <time>2020-06-07T15:04:38Z</time>
      </trkpt>
      <trkpt lat="47.94941" lon="-3.71027">
        <ele>124.7</ele>
        <time>2020-06-07T15:04:39Z</time>
      </trkpt>
      <trkpt lat="47.94944" lon="-3.71027">
        <ele>124.9</ele>
        <time>2020-06-07T15:04:40Z</time>
      </trkpt>
      <trkpt lat="47.94948" lon="-3.71027">
        <ele>125</ele>
        <time>2020-06-07T15:04:41Z</time>
      </trkpt>
      <trkpt lat="47.94951" lon="-3.71027">
        <ele>125.1</ele>
        <time>2020-06-07T15:04:42Z</time>
      </trkpt>
      <trkpt lat="47.94954" lon="-3.71027">
        <ele>125.2</ele>
        <time>2020-06-07T15:04:43Z</time>
      </trkpt>
      <trkpt lat="47.94958" lon="-3.71027">
        <ele>125.4</ele>
        <time>2020-06-07T15:04:44Z</time>
      </trkpt>
      <trkpt lat="47.94962" lon="-3.71027">
        <ele>125.5</ele>
        <time>2020-06-07T15:04:45Z</time>
      </trkpt>
      <trkpt lat="47.94966" lon="-3.71027">
        <ele>125.6</ele>
        <time>2020-06-07T15:04:46Z</time>
      </trkpt>
      <trkpt lat="47.94969" lon="-3.71027">
        <ele>125.7</ele>
        <time>2020-06-07T15:04:47Z</time>
      </trkpt>
      <trkpt lat="47.94973" lon="-3.71027">
        <ele>126</ele>
        <time>2020-06-07T15:04:48Z</time>
      </trkpt>
      <trkpt lat="47.94976" lon="-3.71027">
        <ele>126.2</ele>
        <time>2020-06-07T15:04:49Z</time>
      </trkpt>
      <trkpt lat="47.9498" lon="-3.71027">
        <ele>126.3</ele>
        <time>2020-06-07T15:04:50Z</time>
      </trkpt>
      <trkpt lat="47.94984" lon="-3.71027">
        <ele>126.4</ele>
        <time>2020-06-07T15:04:51Z</time>
      </trkpt>
      <trkpt lat="47.94987" lon="-3.71027">
        <ele>126.6</ele>
        <time>2020-06-07T15:04:52Z</time>
      </trkpt>
      <trkpt lat="47.94992" lon="-3.71026">
        <ele>126.7</ele>
        <time>2020-06-07T15:04:53Z</time>
      </trkpt>
      <trkpt lat="47.94995" lon="-3.71025">
        <ele>126.8</ele>
        <time>2020-06-07T15:04:54Z</time>
      </trkpt>
      <trkpt lat="47.94998" lon="-3.71026">
        <ele>126.9</ele>
        <time>2020-06-07T15:04:55Z</time>
      </trkpt>
      <trkpt lat="47.95002" lon="-3.71025">
        <ele>127</ele>
        <time>2020-06-07T15:04:56Z</time>
      </trkpt>
      <trkpt lat="47.95005" lon="-3.71025">
        <ele>127.1</ele>
        <time>2020-06-07T15:04:57Z</time>
      </trkpt>
      <trkpt lat="47.95008" lon="-3.71024">
        <ele>127.2</ele>
        <time>2020-06-07T15:04:58Z</time>
      </trkpt>
      <trkpt lat="47.95012" lon="-3.71023">
        <ele>127.3</ele>
        <time>2020-06-07T15:04:59Z</time>
      </trkpt>
      <trkpt lat="47.95016" lon="-3.71022">
        <ele>127.4</ele>
        <time>2020-06-07T15:05:00Z</time>
      </trkpt>
      <trkpt lat="47.9502" lon="-3.71021">
        <ele>127.5</ele>
        <time>2020-06-07T15:05:01Z</time>
      </trkpt>
      <trkpt lat="47.95024" lon="-3.7102">
        <ele>127.6</ele>
        <time>2020-06-07T15:05:02Z</time>
      </trkpt>
      <trkpt lat="47.95028" lon="-3.7102">
        <ele>127.7</ele>
        <time>2020-06-07T15:05:03Z</time>
      </trkpt>
      <trkpt lat="47.95032" lon="-3.7102">
        <ele>127.8</ele>
        <time>2020-06-07T15:05:04Z</time>
      </trkpt>
      <trkpt lat="47.95036" lon="-3.71019">
        <ele>127.9</ele>
        <time>2020-06-07T15:05:05Z</time>
      </trkpt>
      <trkpt lat="47.9504" lon="-3.71018">
        <ele>128</ele>
        <time>2020-06-07T15:05:06Z</time>
      </trkpt>
      <trkpt lat="47.95044" lon="-3.71018">
        <ele>128.1</ele>
        <time>2020-06-07T15:05:07Z</time>
      </trkpt>
      <trkpt lat="47.95047" lon="-3.71017">
        <ele>128.2</ele>
        <time>2020-06-07T15:05:08Z</time>
      </trkpt>
      <trkpt lat="47.95051" lon="-3.71017">
        <ele>128.3</ele>
        <time>2020-06-07T15:05:09Z</time>
      </trkpt>
      <trkpt lat="47.95054" lon="-3.71017">
        <ele>128.4</ele>
        <time>2020-06-07T15:05:10Z</time>
      </trkpt>
      <trkpt lat="47.95058" lon="-3.71017">
        <ele>128.4</ele>
        <time>2020-06-07T15:05:11Z</time>
      </trkpt>
      <trkpt lat="47.95061" lon="-3.71016">
        <ele>128.5</ele>
        <time>2020-06-07T15:05:12Z</time>
      </trkpt>
      <trkpt lat="47.95064" lon="-3.71016">
        <ele>128.6</ele>
        <time>2020-06-07T15:05:13Z</time>
      </trkpt>
      <trkpt lat="47.95067" lon="-3.71015">
        <ele>128.6</ele>
        <time>2020-06-07T15:05:14Z</time>
      </trkpt>
      <trkpt lat="47.95072" lon="-3.71014">
        <ele>128.7</ele>
        <time>2020-06-07T15:05:15Z</time>
      </trkpt>
      <trkpt lat="47.95075" lon="-3.71014">
        <ele>128.7</ele>
        <time>2020-06-07T15:05:16Z</time>
      </trkpt>
      <trkpt lat="47.9508" lon="-3.71012">
        <ele>128.8</ele>
        <time>2020-06-07T15:05:17Z</time>
      </trkpt>
      <trkpt lat="47.95082" lon="-3.71012">
        <ele>128.8</ele>
        <time>2020-06-07T15:05:18Z</time>
      </trkpt>
      <trkpt lat="47.95087" lon="-3.7101">
        <ele>128.9</ele>
        <time>2020-06-07T15:05:19Z</time>
      </trkpt>
      <trkpt lat="47.9509" lon="-3.7101">
        <ele>128.9</ele>
        <time>2020-06-07T15:05:20Z</time>
      </trkpt>
      <trkpt lat="47.95093" lon="-3.71009">
        <ele>129</ele>
        <time>2020-06-07T15:05:21Z</time>
      </trkpt>
      <trkpt lat="47.95097" lon="-3.71008">
        <ele>129</ele>
        <time>2020-06-07T15:05:22Z</time>
      </trkpt>
      <trkpt lat="47.95101" lon="-3.71008">
        <ele>129</ele>
        <time>2020-06-07T15:05:23Z</time>
      </trkpt>
      <trkpt lat="47.95104" lon="-3.71007">
        <ele>129.1</ele>
        <time>2020-06-07T15:05:24Z</time>
      </trkpt>
      <trkpt lat="47.95108" lon="-3.71006">
        <ele>129.1</ele>
        <time>2020-06-07T15:05:25Z</time>
      </trkpt>
      <trkpt lat="47.95112" lon="-3.71005">
        <ele>129.2</ele>
        <time>2020-06-07T15:05:26Z</time>
      </trkpt>
      <trkpt lat="47.95116" lon="-3.71004">
        <ele>129.2</ele>
        <time>2020-06-07T15:05:27Z</time>
      </trkpt>
      <trkpt lat="47.95119" lon="-3.71004">
        <ele>129.2</ele>
        <time>2020-06-07T15:05:28Z</time>
      </trkpt>
      <trkpt lat="47.95122" lon="-3.71003">
        <ele>129.3</ele>
        <time>2020-06-07T15:05:29Z</time>
      </trkpt>
      <trkpt lat="47.95126" lon="-3.71002">
        <ele>129.3</ele>
        <time>2020-06-07T15:05:30Z</time>
      </trkpt>
      <trkpt lat="47.9513" lon="-3.71002">
        <ele>129.4</ele>
        <time>2020-06-07T15:05:31Z</time>
      </trkpt>
      <trkpt lat="47.95135" lon="-3.71001">
        <ele>129.4</ele>
        <time>2020-06-07T15:05:32Z</time>
      </trkpt>
      <trkpt lat="47.95139" lon="-3.71">
        <ele>129.4</ele>
        <time>2020-06-07T15:05:33Z</time>
      </trkpt>
      <trkpt lat="47.95143" lon="-3.70998">
        <ele>129.5</ele>
        <time>2020-06-07T15:05:34Z</time>
      </trkpt>
      <trkpt lat="47.95146" lon="-3.70997">
        <ele>129.5</ele>
        <time>2020-06-07T15:05:35Z</time>
      </trkpt>
      <trkpt lat="47.9515" lon="-3.70997">
        <ele>129.5</ele>
        <time>2020-06-07T15:05:36Z</time>
      </trkpt>
      <trkpt lat="47.95152" lon="-3.70996">
        <ele>129.5</ele>
        <time>2020-06-07T15:05:37Z</time>
      </trkpt>
      <trkpt lat="47.95155" lon="-3.70996">
        <ele>129.5</ele>
        <time>2020-06-07T15:05:38Z</time>
      </trkpt>
      <trkpt lat="47.95158" lon="-3.70996">
        <ele>129.6</ele>
        <time>2020-06-07T15:05:39Z</time>
      </trkpt>
      <trkpt lat="47.95163" lon="-3.70995">
        <ele>129.6</ele>
        <time>2020-06-07T15:05:40Z</time>
      </trkpt>
      <trkpt lat="47.95166" lon="-3.70994">
        <ele>129.6</ele>
        <time>2020-06-07T15:05:41Z</time>
      </trkpt>
      <trkpt lat="47.9517" lon="-3.70994">
        <ele>129.6</ele>
        <time>2020-06-07T15:05:42Z</time>
      </trkpt>
      <trkpt lat="47.95174" lon="-3.70993">
        <ele>129.6</ele>
        <time>2020-06-07T15:05:43Z</time>
      </trkpt>
      <trkpt lat="47.95178" lon="-3.70992">
        <ele>129.7</ele>
        <time>2020-06-07T15:05:44Z</time>
      </trkpt>
      <trkpt lat="47.95183" lon="-3.70989">
        <ele>129.7</ele>
        <time>2020-06-07T15:05:45Z</time>
      </trkpt>
      <trkpt lat="47.95187" lon="-3.70988">
        <ele>129.7</ele>
        <time>2020-06-07T15:05:46Z</time>
      </trkpt>
      <trkpt lat="47.95191" lon="-3.70987">
        <ele>129.7</ele>
        <time>2020-06-07T15:05:47Z</time>
      </trkpt>
      <trkpt lat="47.95195" lon="-3.70986">
        <ele>129.6</ele>
        <time>2020-06-07T15:05:48Z</time>
      </trkpt>
      <trkpt lat="47.95199" lon="-3.70985">
        <ele>129.6</ele>
        <time>2020-06-07T15:05:49Z</time>
      </trkpt>
      <trkpt lat="47.95204" lon="-3.70983">
        <ele>129.6</ele>
        <time>2020-06-07T15:05:50Z</time>
      </trkpt>
      <trkpt lat="47.95207" lon="-3.70983">
        <ele>129.6</ele>
        <time>2020-06-07T15:05:51Z</time>
      </trkpt>
      <trkpt lat="47.95211" lon="-3.70982">
        <ele>129.6</ele>
        <time>2020-06-07T15:05:52Z</time>
      </trkpt>
      <trkpt lat="47.95216" lon="-3.70981">
        <ele>129.6</ele>
        <time>2020-06-07T15:05:53Z</time>
      </trkpt>
      <trkpt lat="47.9522" lon="-3.70981">
        <ele>129.6</ele>
        <time>2020-06-07T15:05:54Z</time>
      </trkpt>
      <trkpt lat="47.95224" lon="-3.7098">
        <ele>129.5</ele>
        <time>2020-06-07T15:05:55Z</time>
      </trkpt>
      <trkpt lat="47.95228" lon="-3.70979">
        <ele>129.5</ele>
        <time>2020-06-07T15:05:56Z</time>
      </trkpt>
      <trkpt lat="47.95232" lon="-3.70978">
        <ele>129.5</ele>
        <time>2020-06-07T15:05:57Z</time>
      </trkpt>
      <trkpt lat="47.95236" lon="-3.70977">
        <ele>129.4</ele>
        <time>2020-06-07T15:05:58Z</time>
      </trkpt>
      <trkpt lat="47.9524" lon="-3.70976">
        <ele>129.3</ele>
        <time>2020-06-07T15:05:59Z</time>
      </trkpt>
      <trkpt lat="47.95245" lon="-3.70974">
        <ele>129.3</ele>
        <time>2020-06-07T15:06:00Z</time>
      </trkpt>
      <trkpt lat="47.95249" lon="-3.70974">
        <ele>129.3</ele>
        <time>2020-06-07T15:06:01Z</time>
      </trkpt>
      <trkpt lat="47.95255" lon="-3.70974">
        <ele>129.3</ele>
        <time>2020-06-07T15:06:02Z</time>
      </trkpt>
      <trkpt lat="47.9526" lon="-3.70973">
        <ele>129.3</ele>
        <time>2020-06-07T15:06:03Z</time>
      </trkpt>
      <trkpt lat="47.95265" lon="-3.70973">
        <ele>129.3</ele>
        <time>2020-06-07T15:06:04Z</time>
      </trkpt>
      <trkpt lat="47.9527" lon="-3.70972">
        <ele>129.3</ele>
        <time>2020-06-07T15:06:05Z</time>
      </trkpt>
      <trkpt lat="47.95276" lon="-3.70972">
        <ele>129.2</ele>
        <time>2020-06-07T15:06:06Z</time>
      </trkpt>
      <trkpt lat="47.9528" lon="-3.70972">
        <ele>129.2</ele>
        <time>2020-06-07T15:06:07Z</time>
      </trkpt>
      <trkpt lat="47.95286" lon="-3.70971">
        <ele>129.2</ele>
        <time>2020-06-07T15:06:08Z</time>
      </trkpt>
      <trkpt lat="47.95291" lon="-3.70971">
        <ele>129.1</ele>
        <time>2020-06-07T15:06:09Z</time>
      </trkpt>
      <trkpt lat="47.95297" lon="-3.7097">
        <ele>129</ele>
        <time>2020-06-07T15:06:10Z</time>
      </trkpt>
      <trkpt lat="47.95303" lon="-3.70968">
        <ele>128.9</ele>
        <time>2020-06-07T15:06:11Z</time>
      </trkpt>
      <trkpt lat="47.95308" lon="-3.70967">
        <ele>128.8</ele>
        <time>2020-06-07T15:06:12Z</time>
      </trkpt>
      <trkpt lat="47.95313" lon="-3.70965">
        <ele>128.7</ele>
        <time>2020-06-07T15:06:13Z</time>
      </trkpt>
      <trkpt lat="47.95317" lon="-3.70964">
        <ele>128.6</ele>
        <time>2020-06-07T15:06:14Z</time>
      </trkpt>
      <trkpt lat="47.95322" lon="-3.70962">
        <ele>128.6</ele>
        <time>2020-06-07T15:06:15Z</time>
      </trkpt>
      <trkpt lat="47.95327" lon="-3.70961">
        <ele>128.5</ele>
        <time>2020-06-07T15:06:16Z</time>
      </trkpt>
      <trkpt lat="47.95333" lon="-3.70961">
        <ele>128.4</ele>
        <time>2020-06-07T15:06:17Z</time>
      </trkpt>
      <trkpt lat="47.95339" lon="-3.7096">
        <ele>128.2</ele>
        <time>2020-06-07T15:06:18Z</time>
      </trkpt>
      <trkpt lat="47.95345" lon="-3.70958">
        <ele>128.1</ele>
        <time>2020-06-07T15:06:19Z</time>
      </trkpt>
      <trkpt lat="47.9535" lon="-3.70957">
        <ele>128</ele>
        <time>2020-06-07T15:06:20Z</time>
      </trkpt>
      <trkpt lat="47.95357" lon="-3.70956">
        <ele>127.8</ele>
        <time>2020-06-07T15:06:21Z</time>
      </trkpt>
      <trkpt lat="47.95364" lon="-3.70955">
        <ele>127.6</ele>
        <time>2020-06-07T15:06:22Z</time>
      </trkpt>
      <trkpt lat="47.95367" lon="-3.70954">
        <ele>127.6</ele>
        <time>2020-06-07T15:06:23Z</time>
      </trkpt>
      <trkpt lat="47.95373" lon="-3.70953">
        <ele>127.4</ele>
        <time>2020-06-07T15:06:24Z</time>
      </trkpt>
      <trkpt lat="47.95381" lon="-3.7095">
        <ele>127.2</ele>
        <time>2020-06-07T15:06:25Z</time>
      </trkpt>
      <trkpt lat="47.95387" lon="-3.70948">
        <ele>127</ele>
        <time>2020-06-07T15:06:26Z</time>
      </trkpt>
      <trkpt lat="47.95395" lon="-3.70947">
        <ele>126.8</ele>
        <time>2020-06-07T15:06:27Z</time>
      </trkpt>
      <trkpt lat="47.95401" lon="-3.70946">
        <ele>126.7</ele>
        <time>2020-06-07T15:06:28Z</time>
      </trkpt>
      <trkpt lat="47.95408" lon="-3.70945">
        <ele>126.4</ele>
        <time>2020-06-07T15:06:29Z</time>
      </trkpt>
      <trkpt lat="47.95415" lon="-3.70944">
        <ele>126.1</ele>
        <time>2020-06-07T15:06:30Z</time>
      </trkpt>
      <trkpt lat="47.95423" lon="-3.70942">
        <ele>125.9</ele>
        <time>2020-06-07T15:06:31Z</time>
      </trkpt>
      <trkpt lat="47.9543" lon="-3.70941">
        <ele>125.6</ele>
        <time>2020-06-07T15:06:32Z</time>
      </trkpt>
      <trkpt lat="47.95438" lon="-3.7094">
        <ele>125.3</ele>
        <time>2020-06-07T15:06:33Z</time>
      </trkpt>
      <trkpt lat="47.95445" lon="-3.70938">
        <ele>125.1</ele>
        <time>2020-06-07T15:06:34Z</time>
      </trkpt>
      <trkpt lat="47.95452" lon="-3.70937">
        <ele>124.8</ele>
        <time>2020-06-07T15:06:35Z</time>
      </trkpt>
      <trkpt lat="47.95459" lon="-3.70935">
        <ele>124.5</ele>
        <time>2020-06-07T15:06:36Z</time>
      </trkpt>
      <trkpt lat="47.95466" lon="-3.70933">
        <ele>124.2</ele>
        <time>2020-06-07T15:06:37Z</time>
      </trkpt>
      <trkpt lat="47.95473" lon="-3.70932">
        <ele>123.9</ele>
        <time>2020-06-07T15:06:38Z</time>
      </trkpt>
      <trkpt lat="47.9548" lon="-3.7093">
        <ele>123.6</ele>
        <time>2020-06-07T15:06:39Z</time>
      </trkpt>
      <trkpt lat="47.95487" lon="-3.70929">
        <ele>123.4</ele>
        <time>2020-06-07T15:06:40Z</time>
      </trkpt>
      <trkpt lat="47.95495" lon="-3.70928">
        <ele>123.1</ele>
        <time>2020-06-07T15:06:41Z</time>
      </trkpt>
      <trkpt lat="47.95502" lon="-3.70926">
        <ele>122.8</ele>
        <time>2020-06-07T15:06:42Z</time>
      </trkpt>
      <trkpt lat="47.95509" lon="-3.70924">
        <ele>122.6</ele>
        <time>2020-06-07T15:06:43Z</time>
      </trkpt>
      <trkpt lat="47.95517" lon="-3.70922">
        <ele>122.4</ele>
        <time>2020-06-07T15:06:44Z</time>
      </trkpt>
      <trkpt lat="47.95525" lon="-3.7092">
        <ele>122.2</ele>
        <time>2020-06-07T15:06:45Z</time>
      </trkpt>
      <trkpt lat="47.95533" lon="-3.70918">
        <ele>122</ele>
        <time>2020-06-07T15:06:46Z</time>
      </trkpt>
      <trkpt lat="47.95541" lon="-3.70916">
        <ele>121.8</ele>
        <time>2020-06-07T15:06:47Z</time>
      </trkpt>
      <trkpt lat="47.95549" lon="-3.70915">
        <ele>121.7</ele>
        <time>2020-06-07T15:06:48Z</time>
      </trkpt>
      <trkpt lat="47.95557" lon="-3.70913">
        <ele>121.6</ele>
        <time>2020-06-07T15:06:49Z</time>
      </trkpt>
      <trkpt lat="47.95564" lon="-3.70912">
        <ele>121.8</ele>
        <time>2020-06-07T15:06:50Z</time>
      </trkpt>
      <trkpt lat="47.95572" lon="-3.70911">
        <ele>122</ele>
        <time>2020-06-07T15:06:51Z</time>
      </trkpt>
      <trkpt lat="47.95579" lon="-3.70911">
        <ele>122.2</ele>
        <time>2020-06-07T15:06:52Z</time>
      </trkpt>
      <trkpt lat="47.95586" lon="-3.7091">
        <ele>122.3</ele>
        <time>2020-06-07T15:06:53Z</time>
      </trkpt>
      <trkpt lat="47.95593" lon="-3.70909">
        <ele>122.5</ele>
        <time>2020-06-07T15:06:54Z</time>
      </trkpt>
      <trkpt lat="47.95599" lon="-3.70908">
        <ele>122.7</ele>
        <time>2020-06-07T15:06:55Z</time>
      </trkpt>
      <trkpt lat="47.95606" lon="-3.70907">
        <ele>122.8</ele>
        <time>2020-06-07T15:06:56Z</time>
      </trkpt>
      <trkpt lat="47.95612" lon="-3.70906">
        <ele>123</ele>
        <time>2020-06-07T15:06:57Z</time>
      </trkpt>
      <trkpt lat="47.95618" lon="-3.70905">
        <ele>123.2</ele>
        <time>2020-06-07T15:06:58Z</time>
      </trkpt>
      <trkpt lat="47.95624" lon="-3.70905">
        <ele>123.3</ele>
        <time>2020-06-07T15:06:59Z</time>
      </trkpt>
      <trkpt lat="47.9563" lon="-3.70903">
        <ele>123.5</ele>
        <time>2020-06-07T15:07:00Z</time>
      </trkpt>
      <trkpt lat="47.95636" lon="-3.70903">
        <ele>123.6</ele>
        <time>2020-06-07T15:07:01Z</time>
      </trkpt>
      <trkpt lat="47.95641" lon="-3.70903">
        <ele>123.8</ele>
        <time>2020-06-07T15:07:02Z</time>
      </trkpt>
      <trkpt lat="47.95647" lon="-3.70902">
        <ele>124</ele>
        <time>2020-06-07T15:07:03Z</time>
      </trkpt>
      <trkpt lat="47.95652" lon="-3.709">
        <ele>124.1</ele>
        <time>2020-06-07T15:07:04Z</time>
      </trkpt>
      <trkpt lat="47.95658" lon="-3.709">
        <ele>124.2</ele>
        <time>2020-06-07T15:07:05Z</time>
      </trkpt>
      <trkpt lat="47.95663" lon="-3.709">
        <ele>124.4</ele>
        <time>2020-06-07T15:07:06Z</time>
      </trkpt>
      <trkpt lat="47.95668" lon="-3.70899">
        <ele>124.5</ele>
        <time>2020-06-07T15:07:07Z</time>
      </trkpt>
      <trkpt lat="47.95674" lon="-3.70897">
        <ele>124.6</ele>
        <time>2020-06-07T15:07:08Z</time>
      </trkpt>
      <trkpt lat="47.95678" lon="-3.70896">
        <ele>124.7</ele>
        <time>2020-06-07T15:07:09Z</time>
      </trkpt>
      <trkpt lat="47.95683" lon="-3.70895">
        <ele>124.8</ele>
        <time>2020-06-07T15:07:10Z</time>
      </trkpt>
      <trkpt lat="47.95688" lon="-3.70894">
        <ele>124.8</ele>
        <time>2020-06-07T15:07:11Z</time>
      </trkpt>
      <trkpt lat="47.95693" lon="-3.70894">
        <ele>124.9</ele>
        <time>2020-06-07T15:07:12Z</time>
      </trkpt>
      <trkpt lat="47.95697" lon="-3.70893">
        <ele>124.9</ele>
        <time>2020-06-07T15:07:13Z</time>
      </trkpt>
      <trkpt lat="47.95702" lon="-3.70893">
        <ele>125</ele>
        <time>2020-06-07T15:07:14Z</time>
      </trkpt>
      <trkpt lat="47.95706" lon="-3.70892">
        <ele>125</ele>
        <time>2020-06-07T15:07:15Z</time>
      </trkpt>
      <trkpt lat="47.95711" lon="-3.70892">
        <ele>125.1</ele>
        <time>2020-06-07T15:07:16Z</time>
      </trkpt>
      <trkpt lat="47.95715" lon="-3.70891">
        <ele>125.1</ele>
        <time>2020-06-07T15:07:17Z</time>
      </trkpt>
      <trkpt lat="47.95719" lon="-3.7089">
        <ele>125.1</ele>
        <time>2020-06-07T15:07:18Z</time>
      </trkpt>
      <trkpt lat="47.95724" lon="-3.70889">
        <ele>125.1</ele>
        <time>2020-06-07T15:07:19Z</time>
      </trkpt>
      <trkpt lat="47.95728" lon="-3.70888">
        <ele>125</ele>
        <time>2020-06-07T15:07:20Z</time>
      </trkpt>
      <trkpt lat="47.95731" lon="-3.70888">
        <ele>125</ele>
        <time>2020-06-07T15:07:21Z</time>
      </trkpt>
      <trkpt lat="47.95734" lon="-3.70888">
        <ele>125</ele>
        <time>2020-06-07T15:07:22Z</time>
      </trkpt>
      <trkpt lat="47.95738" lon="-3.70887">
        <ele>125</ele>
        <time>2020-06-07T15:07:23Z</time>
      </trkpt>
      <trkpt lat="47.95741" lon="-3.70888">
        <ele>125.1</ele>
        <time>2020-06-07T15:07:24Z</time>
      </trkpt>
      <trkpt lat="47.95745" lon="-3.70888">
        <ele>125.1</ele>
        <time>2020-06-07T15:07:25Z</time>
      </trkpt>
      <trkpt lat="47.9575" lon="-3.70888">
        <ele>125.2</ele>
        <time>2020-06-07T15:07:26Z</time>
      </trkpt>
      <trkpt lat="47.95754" lon="-3.70888">
        <ele>125.2</ele>
        <time>2020-06-07T15:07:27Z</time>
      </trkpt>
      <trkpt lat="47.9576" lon="-3.70886">
        <ele>125.3</ele>
        <time>2020-06-07T15:07:28Z</time>
      </trkpt>
      <trkpt lat="47.95766" lon="-3.70886">
        <ele>125.3</ele>
        <time>2020-06-07T15:07:29Z</time>
      </trkpt>
      <trkpt lat="47.95772" lon="-3.70887">
        <ele>125.3</ele>
        <time>2020-06-07T15:07:30Z</time>
      </trkpt>
      <trkpt lat="47.95778" lon="-3.70887">
        <ele>125.2</ele>
        <time>2020-06-07T15:07:31Z</time>
      </trkpt>
      <trkpt lat="47.95785" lon="-3.70886">
        <ele>125.2</ele>
        <time>2020-06-07T15:07:32Z</time>
      </trkpt>
      <trkpt lat="47.95791" lon="-3.70885">
        <ele>125.2</ele>
        <time>2020-06-07T15:07:33Z</time>
      </trkpt>
      <trkpt lat="47.95798" lon="-3.70885">
        <ele>125.2</ele>
        <time>2020-06-07T15:07:34Z</time>
      </trkpt>
      <trkpt lat="47.95805" lon="-3.70884">
        <ele>125.2</ele>
        <time>2020-06-07T15:07:35Z</time>
      </trkpt>
      <trkpt lat="47.95812" lon="-3.70883">
        <ele>125.1</ele>
        <time>2020-06-07T15:07:36Z</time>
      </trkpt>
      <trkpt lat="47.95819" lon="-3.70883">
        <ele>125</ele>
        <time>2020-06-07T15:07:37Z</time>
      </trkpt>
      <trkpt lat="47.95826" lon="-3.70884">
        <ele>124.8</ele>
        <time>2020-06-07T15:07:38Z</time>
      </trkpt>
      <trkpt lat="47.95833" lon="-3.70884">
        <ele>124.7</ele>
        <time>2020-06-07T15:07:39Z</time>
      </trkpt>
      <trkpt lat="47.95841" lon="-3.70884">
        <ele>124.5</ele>
        <time>2020-06-07T15:07:40Z</time>
      </trkpt>
      <trkpt lat="47.95848" lon="-3.70885">
        <ele>124.4</ele>
        <time>2020-06-07T15:07:41Z</time>
      </trkpt>
      <trkpt lat="47.95856" lon="-3.70886">
        <ele>124.2</ele>
        <time>2020-06-07T15:07:42Z</time>
      </trkpt>
      <trkpt lat="47.95864" lon="-3.70886">
        <ele>123.9</ele>
        <time>2020-06-07T15:07:43Z</time>
      </trkpt>
      <trkpt lat="47.95873" lon="-3.70887">
        <ele>123.6</ele>
        <time>2020-06-07T15:07:44Z</time>
      </trkpt>
      <trkpt lat="47.95881" lon="-3.70887">
        <ele>123.3</ele>
        <time>2020-06-07T15:07:45Z</time>
      </trkpt>
      <trkpt lat="47.95889" lon="-3.70888">
        <ele>122.9</ele>
        <time>2020-06-07T15:07:46Z</time>
      </trkpt>
      <trkpt lat="47.95898" lon="-3.70888">
        <ele>122.6</ele>
        <time>2020-06-07T15:07:47Z</time>
      </trkpt>
      <trkpt lat="47.95906" lon="-3.70889">
        <ele>122.2</ele>
        <time>2020-06-07T15:07:48Z</time>
      </trkpt>
      <trkpt lat="47.95915" lon="-3.70889">
        <ele>121.8</ele>
        <time>2020-06-07T15:07:49Z</time>
      </trkpt>
      <trkpt lat="47.95924" lon="-3.70889">
        <ele>121.5</ele>
        <time>2020-06-07T15:07:50Z</time>
      </trkpt>
      <trkpt lat="47.95933" lon="-3.7089">
        <ele>121</ele>
        <time>2020-06-07T15:07:51Z</time>
      </trkpt>
      <trkpt lat="47.95942" lon="-3.70891">
        <ele>120.5</ele>
        <time>2020-06-07T15:07:52Z</time>
      </trkpt>
      <trkpt lat="47.95951" lon="-3.70891">
        <ele>120</ele>
        <time>2020-06-07T15:07:53Z</time>
      </trkpt>
      <trkpt lat="47.95961" lon="-3.70892">
        <ele>119.4</ele>
        <time>2020-06-07T15:07:54Z</time>
      </trkpt>
      <trkpt lat="47.9597" lon="-3.70893">
        <ele>118.8</ele>
        <time>2020-06-07T15:07:55Z</time>
      </trkpt>
      <trkpt lat="47.9598" lon="-3.70895">
        <ele>118.3</ele>
        <time>2020-06-07T15:07:56Z</time>
      </trkpt>
      <trkpt lat="47.9599" lon="-3.70896">
        <ele>117.7</ele>
        <time>2020-06-07T15:07:57Z</time>
      </trkpt>
      <trkpt lat="47.96" lon="-3.70898">
        <ele>117.2</ele>
        <time>2020-06-07T15:07:58Z</time>
      </trkpt>
      <trkpt lat="47.9601" lon="-3.70898">
        <ele>116.8</ele>
        <time>2020-06-07T15:07:59Z</time>
      </trkpt>
      <trkpt lat="47.9602" lon="-3.709">
        <ele>116.4</ele>
        <time>2020-06-07T15:08:00Z</time>
      </trkpt>
      <trkpt lat="47.9603" lon="-3.70901">
        <ele>115.9</ele>
        <time>2020-06-07T15:08:01Z</time>
      </trkpt>
      <trkpt lat="47.9604" lon="-3.70902">
        <ele>115.5</ele>
        <time>2020-06-07T15:08:02Z</time>
      </trkpt>
      <trkpt lat="47.9605" lon="-3.70903">
        <ele>115.2</ele>
        <time>2020-06-07T15:08:03Z</time>
      </trkpt>
      <trkpt lat="47.9606" lon="-3.70903">
        <ele>114.9</ele>
        <time>2020-06-07T15:08:04Z</time>
      </trkpt>
      <trkpt lat="47.9607" lon="-3.70904">
        <ele>114.6</ele>
        <time>2020-06-07T15:08:05Z</time>
      </trkpt>
      <trkpt lat="47.9608" lon="-3.70905">
        <ele>114.2</ele>
        <time>2020-06-07T15:08:06Z</time>
      </trkpt>
      <trkpt lat="47.9609" lon="-3.70906">
        <ele>114.4</ele>
        <time>2020-06-07T15:08:07Z</time>
      </trkpt>
      <trkpt lat="47.961" lon="-3.70907">
        <ele>114.6</ele>
        <time>2020-06-07T15:08:08Z</time>
      </trkpt>
      <trkpt lat="47.9611" lon="-3.70907">
        <ele>114.5</ele>
        <time>2020-06-07T15:08:09Z</time>
      </trkpt>
      <trkpt lat="47.9612" lon="-3.70908">
        <ele>114.5</ele>
        <time>2020-06-07T15:08:10Z</time>
      </trkpt>
      <trkpt lat="47.9613" lon="-3.70909">
        <ele>114.3</ele>
        <time>2020-06-07T15:08:11Z</time>
      </trkpt>
      <trkpt lat="47.96139" lon="-3.70909">
        <ele>114.2</ele>
        <time>2020-06-07T15:08:12Z</time>
      </trkpt>
      <trkpt lat="47.96149" lon="-3.7091">
        <ele>114</ele>
        <time>2020-06-07T15:08:13Z</time>
      </trkpt>
      <trkpt lat="47.96158" lon="-3.70912">
        <ele>113.8</ele>
        <time>2020-06-07T15:08:14Z</time>
      </trkpt>
      <trkpt lat="47.96167" lon="-3.70913">
        <ele>113.7</ele>
        <time>2020-06-07T15:08:15Z</time>
      </trkpt>
      <trkpt lat="47.96177" lon="-3.70914">
        <ele>113.5</ele>
        <time>2020-06-07T15:08:16Z</time>
      </trkpt>
      <trkpt lat="47.96186" lon="-3.70915">
        <ele>113.2</ele>
        <time>2020-06-07T15:08:17Z</time>
      </trkpt>
      <trkpt lat="47.96196" lon="-3.70915">
        <ele>113</ele>
        <time>2020-06-07T15:08:18Z</time>
      </trkpt>
      <trkpt lat="47.96205" lon="-3.70916">
        <ele>112.8</ele>
        <time>2020-06-07T15:08:19Z</time>
      </trkpt>
      <trkpt lat="47.96214" lon="-3.70917">
        <ele>112.7</ele>
        <time>2020-06-07T15:08:20Z</time>
      </trkpt>
      <trkpt lat="47.96223" lon="-3.70917">
        <ele>112.5</ele>
        <time>2020-06-07T15:08:21Z</time>
      </trkpt>
      <trkpt lat="47.96232" lon="-3.70917">
        <ele>112.3</ele>
        <time>2020-06-07T15:08:22Z</time>
      </trkpt>
      <trkpt lat="47.96241" lon="-3.70918">
        <ele>112.1</ele>
        <time>2020-06-07T15:08:23Z</time>
      </trkpt>
      <trkpt lat="47.96251" lon="-3.70919">
        <ele>111.9</ele>
        <time>2020-06-07T15:08:24Z</time>
      </trkpt>
      <trkpt lat="47.9626" lon="-3.70919">
        <ele>111.7</ele>
        <time>2020-06-07T15:08:25Z</time>
      </trkpt>
      <trkpt lat="47.96268" lon="-3.7092">
        <ele>111.5</ele>
        <time>2020-06-07T15:08:26Z</time>
      </trkpt>
      <trkpt lat="47.96278" lon="-3.70921">
        <ele>111.3</ele>
        <time>2020-06-07T15:08:27Z</time>
      </trkpt>
      <trkpt lat="47.96286" lon="-3.70921">
        <ele>111.1</ele>
        <time>2020-06-07T15:08:28Z</time>
      </trkpt>
      <trkpt lat="47.96295" lon="-3.70923">
        <ele>110.9</ele>
        <time>2020-06-07T15:08:29Z</time>
      </trkpt>
      <trkpt lat="47.96304" lon="-3.70923">
        <ele>110.6</ele>
        <time>2020-06-07T15:08:30Z</time>
      </trkpt>
      <trkpt lat="47.96313" lon="-3.70924">
        <ele>110.5</ele>
        <time>2020-06-07T15:08:31Z</time>
      </trkpt>
      <trkpt lat="47.96322" lon="-3.70925">
        <ele>110.2</ele>
        <time>2020-06-07T15:08:32Z</time>
      </trkpt>
      <trkpt lat="47.96331" lon="-3.70925">
        <ele>109.7</ele>
        <time>2020-06-07T15:08:33Z</time>
      </trkpt>
      <trkpt lat="47.9634" lon="-3.70926">
        <ele>109.5</ele>
        <time>2020-06-07T15:08:34Z</time>
      </trkpt>
      <trkpt lat="47.96349" lon="-3.70927">
        <ele>109.5</ele>
        <time>2020-06-07T15:08:35Z</time>
      </trkpt>
      <trkpt lat="47.96358" lon="-3.70928">
        <ele>109.4</ele>
        <time>2020-06-07T15:08:36Z</time>
      </trkpt>
      <trkpt lat="47.96367" lon="-3.7093">
        <ele>109.4</ele>
        <time>2020-06-07T15:08:37Z</time>
      </trkpt>
      <trkpt lat="47.96376" lon="-3.7093">
        <ele>109.3</ele>
        <time>2020-06-07T15:08:38Z</time>
      </trkpt>
      <trkpt lat="47.96384" lon="-3.70932">
        <ele>109.2</ele>
        <time>2020-06-07T15:08:39Z</time>
      </trkpt>
      <trkpt lat="47.96393" lon="-3.70933">
        <ele>109.2</ele>
        <time>2020-06-07T15:08:40Z</time>
      </trkpt>
      <trkpt lat="47.96401" lon="-3.70934">
        <ele>109.3</ele>
        <time>2020-06-07T15:08:41Z</time>
      </trkpt>
      <trkpt lat="47.96409" lon="-3.70935">
        <ele>109.4</ele>
        <time>2020-06-07T15:08:42Z</time>
      </trkpt>
      <trkpt lat="47.96417" lon="-3.70935">
        <ele>109.5</ele>
        <time>2020-06-07T15:08:43Z</time>
      </trkpt>
      <trkpt lat="47.96424" lon="-3.70936">
        <ele>109.6</ele>
        <time>2020-06-07T15:08:44Z</time>
      </trkpt>
      <trkpt lat="47.96432" lon="-3.70937">
        <ele>109.7</ele>
        <time>2020-06-07T15:08:45Z</time>
      </trkpt>
      <trkpt lat="47.96439" lon="-3.70938">
        <ele>109.8</ele>
        <time>2020-06-07T15:08:46Z</time>
      </trkpt>
      <trkpt lat="47.96446" lon="-3.70939">
        <ele>110</ele>
        <time>2020-06-07T15:08:47Z</time>
      </trkpt>
      <trkpt lat="47.96453" lon="-3.70941">
        <ele>110.2</ele>
        <time>2020-06-07T15:08:48Z</time>
      </trkpt>
      <trkpt lat="47.96461" lon="-3.70941">
        <ele>110.4</ele>
        <time>2020-06-07T15:08:49Z</time>
      </trkpt>
      <trkpt lat="47.96467" lon="-3.70942">
        <ele>110.6</ele>
        <time>2020-06-07T15:08:50Z</time>
      </trkpt>
      <trkpt lat="47.96474" lon="-3.70943">
        <ele>110.8</ele>
        <time>2020-06-07T15:08:51Z</time>
      </trkpt>
      <trkpt lat="47.9648" lon="-3.70944">
        <ele>111</ele>
        <time>2020-06-07T15:08:52Z</time>
      </trkpt>
      <trkpt lat="47.96486" lon="-3.70945">
        <ele>111.3</ele>
        <time>2020-06-07T15:08:53Z</time>
      </trkpt>
      <trkpt lat="47.96492" lon="-3.70946">
        <ele>111.5</ele>
        <time>2020-06-07T15:08:54Z</time>
      </trkpt>
      <trkpt lat="47.96497" lon="-3.70948">
        <ele>111.7</ele>
        <time>2020-06-07T15:08:55Z</time>
      </trkpt>
      <trkpt lat="47.96503" lon="-3.7095">
        <ele>112</ele>
        <time>2020-06-07T15:08:56Z</time>
      </trkpt>
      <trkpt lat="47.96509" lon="-3.7095">
        <ele>112.2</ele>
        <time>2020-06-07T15:08:57Z</time>
      </trkpt>
      <trkpt lat="47.96514" lon="-3.70952">
        <ele>112.5</ele>
        <time>2020-06-07T15:08:58Z</time>
      </trkpt>
      <trkpt lat="47.96519" lon="-3.70953">
        <ele>112.8</ele>
        <time>2020-06-07T15:08:59Z</time>
      </trkpt>
      <trkpt lat="47.96524" lon="-3.70956">
        <ele>113.1</ele>
        <time>2020-06-07T15:09:00Z</time>
      </trkpt>
      <trkpt lat="47.96528" lon="-3.70959">
        <ele>113.3</ele>
        <time>2020-06-07T15:09:01Z</time>
      </trkpt>
      <trkpt lat="47.96532" lon="-3.70961">
        <ele>113.6</ele>
        <time>2020-06-07T15:09:02Z</time>
      </trkpt>
      <trkpt lat="47.96536" lon="-3.70964">
        <ele>113.8</ele>
        <time>2020-06-07T15:09:03Z</time>
      </trkpt>
      <trkpt lat="47.9654" lon="-3.70966">
        <ele>114</ele>
        <time>2020-06-07T15:09:04Z</time>
      </trkpt>
      <trkpt lat="47.96544" lon="-3.70968">
        <ele>114.2</ele>
        <time>2020-06-07T15:09:05Z</time>
      </trkpt>
      <trkpt lat="47.96549" lon="-3.7097">
        <ele>114.5</ele>
        <time>2020-06-07T15:09:06Z</time>
      </trkpt>
      <trkpt lat="47.96553" lon="-3.70973">
        <ele>114.7</ele>
        <time>2020-06-07T15:09:07Z</time>
      </trkpt>
      <trkpt lat="47.96557" lon="-3.70976">
        <ele>114.9</ele>
        <time>2020-06-07T15:09:08Z</time>
      </trkpt>
      <trkpt lat="47.96561" lon="-3.70978">
        <ele>115.2</ele>
        <time>2020-06-07T15:09:09Z</time>
      </trkpt>
      <trkpt lat="47.96565" lon="-3.7098">
        <ele>115.4</ele>
        <time>2020-06-07T15:09:10Z</time>
      </trkpt>
      <trkpt lat="47.96569" lon="-3.70981">
        <ele>115.7</ele>
        <time>2020-06-07T15:09:11Z</time>
      </trkpt>
      <trkpt lat="47.96573" lon="-3.70983">
        <ele>116</ele>
        <time>2020-06-07T15:09:12Z</time>
      </trkpt>
      <trkpt lat="47.96575" lon="-3.70985">
        <ele>116.2</ele>
        <time>2020-06-07T15:09:13Z</time>
      </trkpt>
      <trkpt lat="47.96578" lon="-3.70986">
        <ele>116.4</ele>
        <time>2020-06-07T15:09:14Z</time>
      </trkpt>
      <trkpt lat="47.96581" lon="-3.70987">
        <ele>116.6</ele>
        <time>2020-06-07T15:09:15Z</time>
      </trkpt>
      <trkpt lat="47.96584" lon="-3.7099">
        <ele>116.8</ele>
        <time>2020-06-07T15:09:16Z</time>
      </trkpt>
      <trkpt lat="47.96588" lon="-3.70992">
        <ele>117.1</ele>
        <time>2020-06-07T15:09:17Z</time>
      </trkpt>
      <trkpt lat="47.96592" lon="-3.70993">
        <ele>117.4</ele>
        <time>2020-06-07T15:09:18Z</time>
      </trkpt>
      <trkpt lat="47.96596" lon="-3.70995">
        <ele>117.7</ele>
        <time>2020-06-07T15:09:19Z</time>
      </trkpt>
      <trkpt lat="47.96599" lon="-3.70996">
        <ele>117.9</ele>
        <time>2020-06-07T15:09:20Z</time>
      </trkpt>
      <trkpt lat="47.96601" lon="-3.70998">
        <ele>118.2</ele>
        <time>2020-06-07T15:09:21Z</time>
      </trkpt>
      <trkpt lat="47.96604" lon="-3.71">
        <ele>118.4</ele>
        <time>2020-06-07T15:09:22Z</time>
      </trkpt>
      <trkpt lat="47.96607" lon="-3.71001">
        <ele>118.6</ele>
        <time>2020-06-07T15:09:23Z</time>
      </trkpt>
      <trkpt lat="47.9661" lon="-3.71003">
        <ele>118.9</ele>
        <time>2020-06-07T15:09:24Z</time>
      </trkpt>
      <trkpt lat="47.96614" lon="-3.71004">
        <ele>119.2</ele>
        <time>2020-06-07T15:09:25Z</time>
      </trkpt>
      <trkpt lat="47.96617" lon="-3.71006">
        <ele>119.5</ele>
        <time>2020-06-07T15:09:26Z</time>
      </trkpt>
      <trkpt lat="47.9662" lon="-3.71007">
        <ele>119.7</ele>
        <time>2020-06-07T15:09:27Z</time>
      </trkpt>
      <trkpt lat="47.96623" lon="-3.7101">
        <ele>120</ele>
        <time>2020-06-07T15:09:28Z</time>
      </trkpt>
      <trkpt lat="47.96627" lon="-3.71012">
        <ele>120.3</ele>
        <time>2020-06-07T15:09:29Z</time>
      </trkpt>
      <trkpt lat="47.96629" lon="-3.71013">
        <ele>120.5</ele>
        <time>2020-06-07T15:09:30Z</time>
      </trkpt>
      <trkpt lat="47.96632" lon="-3.71014">
        <ele>120.7</ele>
        <time>2020-06-07T15:09:31Z</time>
      </trkpt>
      <trkpt lat="47.96635" lon="-3.71015">
        <ele>120.9</ele>
        <time>2020-06-07T15:09:32Z</time>
      </trkpt>
      <trkpt lat="47.96638" lon="-3.71017">
        <ele>121.2</ele>
        <time>2020-06-07T15:09:33Z</time>
      </trkpt>
      <trkpt lat="47.96639" lon="-3.71017">
        <ele>121.3</ele>
        <time>2020-06-07T15:09:34Z</time>
      </trkpt>
      <trkpt lat="47.96642" lon="-3.71018">
        <ele>121.5</ele>
        <time>2020-06-07T15:09:35Z</time>
      </trkpt>
      <trkpt lat="47.96645" lon="-3.71019">
        <ele>121.8</ele>
        <time>2020-06-07T15:09:36Z</time>
      </trkpt>
      <trkpt lat="47.96648" lon="-3.71021">
        <ele>122.1</ele>
        <time>2020-06-07T15:09:37Z</time>
      </trkpt>
      <trkpt lat="47.96651" lon="-3.71023">
        <ele>122.4</ele>
        <time>2020-06-07T15:09:38Z</time>
      </trkpt>
      <trkpt lat="47.96652" lon="-3.71024">
        <ele>122.6</ele>
        <time>2020-06-07T15:09:39Z</time>
      </trkpt>
      <trkpt lat="47.96655" lon="-3.71026">
        <ele>123</ele>
        <time>2020-06-07T15:09:40Z</time>
      </trkpt>
      <trkpt lat="47.96657" lon="-3.71027">
        <ele>123.1</ele>
        <time>2020-06-07T15:09:41Z</time>
      </trkpt>
      <trkpt lat="47.96659" lon="-3.71027">
        <ele>123.4</ele>
        <time>2020-06-07T15:09:42Z</time>
      </trkpt>
      <trkpt lat="47.96663" lon="-3.71027">
        <ele>123.7</ele>
        <time>2020-06-07T15:09:43Z</time>
      </trkpt>
      <trkpt lat="47.96664" lon="-3.71028">
        <ele>123.8</ele>
        <time>2020-06-07T15:09:44Z</time>
      </trkpt>
      <trkpt lat="47.96666" lon="-3.71028">
        <ele>124</ele>
        <time>2020-06-07T15:09:45Z</time>
      </trkpt>
      <trkpt lat="47.96668" lon="-3.71028">
        <ele>124.2</ele>
        <time>2020-06-07T15:09:46Z</time>
      </trkpt>
      <trkpt lat="47.96672" lon="-3.71029">
        <ele>125</ele>
        <time>2020-06-07T15:09:47Z</time>
      </trkpt>
      <trkpt lat="47.96673" lon="-3.7103">
        <ele>125.1</ele>
        <time>2020-06-07T15:09:48Z</time>
      </trkpt>
      <trkpt lat="47.96676" lon="-3.71031">
        <ele>125.4</ele>
        <time>2020-06-07T15:09:49Z</time>
      </trkpt>
      <trkpt lat="47.9668" lon="-3.71031">
        <ele>125.7</ele>
        <time>2020-06-07T15:09:50Z</time>
      </trkpt>
      <trkpt lat="47.9668" lon="-3.71032">
        <ele>125.7</ele>
        <time>2020-06-07T15:09:51Z</time>
      </trkpt>
      <trkpt lat="47.96684" lon="-3.71033">
        <ele>126</ele>
        <time>2020-06-07T15:09:52Z</time>
      </trkpt>
      <trkpt lat="47.96685" lon="-3.71033">
        <ele>126.1</ele>
        <time>2020-06-07T15:09:53Z</time>
      </trkpt>
      <trkpt lat="47.96688" lon="-3.71035">
        <ele>126.4</ele>
        <time>2020-06-07T15:09:54Z</time>
      </trkpt>
      <trkpt lat="47.96689" lon="-3.71035">
        <ele>126.5</ele>
        <time>2020-06-07T15:09:55Z</time>
      </trkpt>
      <trkpt lat="47.96692" lon="-3.71037">
        <ele>126.8</ele>
        <time>2020-06-07T15:09:56Z</time>
      </trkpt>
      <trkpt lat="47.96693" lon="-3.71038">
        <ele>126.9</ele>
        <time>2020-06-07T15:09:57Z</time>
      </trkpt>
      <trkpt lat="47.96697" lon="-3.7104">
        <ele>127.2</ele>
        <time>2020-06-07T15:09:58Z</time>
      </trkpt>
      <trkpt lat="47.96698" lon="-3.71041">
        <ele>127.3</ele>
        <time>2020-06-07T15:09:59Z</time>
      </trkpt>
      <trkpt lat="47.967" lon="-3.71042">
        <ele>127.5</ele>
        <time>2020-06-07T15:10:00Z</time>
      </trkpt>
      <trkpt lat="47.96701" lon="-3.71041">
        <ele>127.6</ele>
        <time>2020-06-07T15:10:01Z</time>
      </trkpt>
      <trkpt lat="47.96704" lon="-3.71043">
        <ele>127.8</ele>
        <time>2020-06-07T15:10:02Z</time>
      </trkpt>
      <trkpt lat="47.96705" lon="-3.71044">
        <ele>127.9</ele>
        <time>2020-06-07T15:10:03Z</time>
      </trkpt>
      <trkpt lat="47.96708" lon="-3.71045">
        <ele>128.2</ele>
        <time>2020-06-07T15:10:04Z</time>
      </trkpt>
      <trkpt lat="47.96712" lon="-3.71045">
        <ele>128.5</ele>
        <time>2020-06-07T15:10:05Z</time>
      </trkpt>
      <trkpt lat="47.96714" lon="-3.71046">
        <ele>128.6</ele>
        <time>2020-06-07T15:10:06Z</time>
      </trkpt>
      <trkpt lat="47.96717" lon="-3.71046">
        <ele>128.9</ele>
        <time>2020-06-07T15:10:07Z</time>
      </trkpt>
      <trkpt lat="47.96718" lon="-3.71046">
        <ele>129</ele>
        <time>2020-06-07T15:10:08Z</time>
      </trkpt>
      <trkpt lat="47.96721" lon="-3.71047">
        <ele>129.2</ele>
        <time>2020-06-07T15:10:09Z</time>
      </trkpt>
      <trkpt lat="47.96722" lon="-3.71047">
        <ele>129.3</ele>
        <time>2020-06-07T15:10:10Z</time>
      </trkpt>
      <trkpt lat="47.96725" lon="-3.71048">
        <ele>129.5</ele>
        <time>2020-06-07T15:10:11Z</time>
      </trkpt>
      <trkpt lat="47.96726" lon="-3.71049">
        <ele>129.6</ele>
        <time>2020-06-07T15:10:12Z</time>
      </trkpt>
      <trkpt lat="47.96729" lon="-3.71049">
        <ele>129.8</ele>
        <time>2020-06-07T15:10:13Z</time>
      </trkpt>
      <trkpt lat="47.9673" lon="-3.71049">
        <ele>129.9</ele>
        <time>2020-06-07T15:10:14Z</time>
      </trkpt>
      <trkpt lat="47.96734" lon="-3.71049">
        <ele>130.1</ele>
        <time>2020-06-07T15:10:15Z</time>
      </trkpt>
      <trkpt lat="47.96735" lon="-3.71049">
        <ele>130.2</ele>
        <time>2020-06-07T15:10:16Z</time>
      </trkpt>
      <trkpt lat="47.96738" lon="-3.71048">
        <ele>130.5</ele>
        <time>2020-06-07T15:10:17Z</time>
      </trkpt>
      <trkpt lat="47.9674" lon="-3.71048">
        <ele>130.6</ele>
        <time>2020-06-07T15:10:18Z</time>
      </trkpt>
      <trkpt lat="47.96742" lon="-3.71048">
        <ele>130.7</ele>
        <time>2020-06-07T15:10:19Z</time>
      </trkpt>
      <trkpt lat="47.96743" lon="-3.71047">
        <ele>130.8</ele>
        <time>2020-06-07T15:10:20Z</time>
      </trkpt>
      <trkpt lat="47.96746" lon="-3.71047">
        <ele>131</ele>
        <time>2020-06-07T15:10:21Z</time>
      </trkpt>
      <trkpt lat="47.96747" lon="-3.71047">
        <ele>131.1</ele>
        <time>2020-06-07T15:10:22Z</time>
      </trkpt>
      <trkpt lat="47.96751" lon="-3.71048">
        <ele>131.4</ele>
        <time>2020-06-07T15:10:23Z</time>
      </trkpt>
      <trkpt lat="47.96752" lon="-3.71048">
        <ele>131.5</ele>
        <time>2020-06-07T15:10:24Z</time>
      </trkpt>
      <trkpt lat="47.96755" lon="-3.71049">
        <ele>131.7</ele>
        <time>2020-06-07T15:10:25Z</time>
      </trkpt>
      <trkpt lat="47.96757" lon="-3.71048">
        <ele>131.9</ele>
        <time>2020-06-07T15:10:26Z</time>
      </trkpt>
      <trkpt lat="47.96759" lon="-3.71048">
        <ele>132</ele>
        <time>2020-06-07T15:10:27Z</time>
      </trkpt>
      <trkpt lat="47.96761" lon="-3.71048">
        <ele>132.1</ele>
        <time>2020-06-07T15:10:28Z</time>
      </trkpt>
      <trkpt lat="47.96764" lon="-3.71049">
        <ele>132.3</ele>
        <time>2020-06-07T15:10:29Z</time>
      </trkpt>
      <trkpt lat="47.96767" lon="-3.71049">
        <ele>132.5</ele>
        <time>2020-06-07T15:10:30Z</time>
      </trkpt>
      <trkpt lat="47.96768" lon="-3.71048">
        <ele>132.5</ele>
        <time>2020-06-07T15:10:31Z</time>
      </trkpt>
      <trkpt lat="47.96771" lon="-3.71049">
        <ele>132.7</ele>
        <time>2020-06-07T15:10:32Z</time>
      </trkpt>
      <trkpt lat="47.96774" lon="-3.71049">
        <ele>132.9</ele>
        <time>2020-06-07T15:10:33Z</time>
      </trkpt>
      <trkpt lat="47.96778" lon="-3.71049">
        <ele>133.1</ele>
        <time>2020-06-07T15:10:34Z</time>
      </trkpt>
      <trkpt lat="47.96779" lon="-3.71049">
        <ele>133.2</ele>
        <time>2020-06-07T15:10:35Z</time>
      </trkpt>
      <trkpt lat="47.96782" lon="-3.71048">
        <ele>133.4</ele>
        <time>2020-06-07T15:10:36Z</time>
      </trkpt>
      <trkpt lat="47.96783" lon="-3.71047">
        <ele>133.4</ele>
        <time>2020-06-07T15:10:37Z</time>
      </trkpt>
      <trkpt lat="47.96786" lon="-3.71047">
        <ele>133.6</ele>
        <time>2020-06-07T15:10:38Z</time>
      </trkpt>
      <trkpt lat="47.96791" lon="-3.71048">
        <ele>133.8</ele>
        <time>2020-06-07T15:10:39Z</time>
      </trkpt>
      <trkpt lat="47.96793" lon="-3.71049">
        <ele>134</ele>
        <time>2020-06-07T15:10:40Z</time>
      </trkpt>
      <trkpt lat="47.96797" lon="-3.71051">
        <ele>134.2</ele>
        <time>2020-06-07T15:10:41Z</time>
      </trkpt>
      <trkpt lat="47.968" lon="-3.71052">
        <ele>134.3</ele>
        <time>2020-06-07T15:10:42Z</time>
      </trkpt>
      <trkpt lat="47.96803" lon="-3.71052">
        <ele>134.4</ele>
        <time>2020-06-07T15:10:43Z</time>
      </trkpt>
      <trkpt lat="47.96806" lon="-3.71052">
        <ele>134.6</ele>
        <time>2020-06-07T15:10:44Z</time>
      </trkpt>
      <trkpt lat="47.9681" lon="-3.71052">
        <ele>134.8</ele>
        <time>2020-06-07T15:10:45Z</time>
      </trkpt>
      <trkpt lat="47.96811" lon="-3.71052">
        <ele>134.8</ele>
        <time>2020-06-07T15:10:46Z</time>
      </trkpt>
      <trkpt lat="47.96814" lon="-3.7105">
        <ele>135</ele>
        <time>2020-06-07T15:10:47Z</time>
      </trkpt>
      <trkpt lat="47.96818" lon="-3.71048">
        <ele>135.1</ele>
        <time>2020-06-07T15:10:48Z</time>
      </trkpt>
      <trkpt lat="47.96821" lon="-3.71045">
        <ele>135.3</ele>
        <time>2020-06-07T15:10:49Z</time>
      </trkpt>
      <trkpt lat="47.96824" lon="-3.71045">
        <ele>135.4</ele>
        <time>2020-06-07T15:10:50Z</time>
      </trkpt>
      <trkpt lat="47.96825" lon="-3.71045">
        <ele>135.4</ele>
        <time>2020-06-07T15:10:51Z</time>
      </trkpt>
      <trkpt lat="47.96828" lon="-3.71044">
        <ele>135.6</ele>
        <time>2020-06-07T15:10:52Z</time>
      </trkpt>
      <trkpt lat="47.96832" lon="-3.71043">
        <ele>135.7</ele>
        <time>2020-06-07T15:10:53Z</time>
      </trkpt>
      <trkpt lat="47.96835" lon="-3.71042">
        <ele>135.8</ele>
        <time>2020-06-07T15:10:54Z</time>
      </trkpt>
      <trkpt lat="47.96838" lon="-3.71042">
        <ele>136</ele>
        <time>2020-06-07T15:10:55Z</time>
      </trkpt>
      <trkpt lat="47.96842" lon="-3.71041">
        <ele>136.1</ele>
        <time>2020-06-07T15:10:56Z</time>
      </trkpt>
      <trkpt lat="47.96845" lon="-3.7104">
        <ele>136.2</ele>
        <time>2020-06-07T15:10:57Z</time>
      </trkpt>
      <trkpt lat="47.96846" lon="-3.7104">
        <ele>136.2</ele>
        <time>2020-06-07T15:10:58Z</time>
      </trkpt>
      <trkpt lat="47.96849" lon="-3.71039">
        <ele>136.3</ele>
        <time>2020-06-07T15:10:59Z</time>
      </trkpt>
      <trkpt lat="47.96853" lon="-3.71038">
        <ele>136.4</ele>
        <time>2020-06-07T15:11:00Z</time>
      </trkpt>
      <trkpt lat="47.96855" lon="-3.71037">
        <ele>136.5</ele>
        <time>2020-06-07T15:11:01Z</time>
      </trkpt>
      <trkpt lat="47.96859" lon="-3.71036">
        <ele>136.6</ele>
        <time>2020-06-07T15:11:02Z</time>
      </trkpt>
      <trkpt lat="47.96863" lon="-3.71036">
        <ele>136.7</ele>
        <time>2020-06-07T15:11:03Z</time>
      </trkpt>
      <trkpt lat="47.96867" lon="-3.71036">
        <ele>136.8</ele>
        <time>2020-06-07T15:11:04Z</time>
      </trkpt>
      <trkpt lat="47.96871" lon="-3.71035">
        <ele>136.9</ele>
        <time>2020-06-07T15:11:05Z</time>
      </trkpt>
      <trkpt lat="47.96875" lon="-3.71034">
        <ele>137</ele>
        <time>2020-06-07T15:11:06Z</time>
      </trkpt>
      <trkpt lat="47.96879" lon="-3.71032">
        <ele>137.1</ele>
        <time>2020-06-07T15:11:07Z</time>
      </trkpt>
      <trkpt lat="47.96883" lon="-3.71029">
        <ele>137.2</ele>
        <time>2020-06-07T15:11:08Z</time>
      </trkpt>
      <trkpt lat="47.96888" lon="-3.71026">
        <ele>137.3</ele>
        <time>2020-06-07T15:11:09Z</time>
      </trkpt>
      <trkpt lat="47.96893" lon="-3.71025">
        <ele>137.4</ele>
        <time>2020-06-07T15:11:10Z</time>
      </trkpt>
      <trkpt lat="47.96897" lon="-3.71023">
        <ele>137.6</ele>
        <time>2020-06-07T15:11:11Z</time>
      </trkpt>
      <trkpt lat="47.96901" lon="-3.71023">
        <ele>137.6</ele>
        <time>2020-06-07T15:11:12Z</time>
      </trkpt>
      <trkpt lat="47.96906" lon="-3.71022">
        <ele>137.7</ele>
        <time>2020-06-07T15:11:13Z</time>
      </trkpt>
      <trkpt lat="47.9691" lon="-3.71021">
        <ele>137.8</ele>
        <time>2020-06-07T15:11:14Z</time>
      </trkpt>
      <trkpt lat="47.96913" lon="-3.71021">
        <ele>137.8</ele>
        <time>2020-06-07T15:11:15Z</time>
      </trkpt>
      <trkpt lat="47.96917" lon="-3.7102">
        <ele>137.8</ele>
        <time>2020-06-07T15:11:16Z</time>
      </trkpt>
      <trkpt lat="47.96921" lon="-3.7102">
        <ele>138</ele>
        <time>2020-06-07T15:11:17Z</time>
      </trkpt>
      <trkpt lat="47.96924" lon="-3.71018">
        <ele>138.1</ele>
        <time>2020-06-07T15:11:18Z</time>
      </trkpt>
      <trkpt lat="47.96929" lon="-3.71018">
        <ele>138.3</ele>
        <time>2020-06-07T15:11:19Z</time>
      </trkpt>
      <trkpt lat="47.96933" lon="-3.71017">
        <ele>138.4</ele>
        <time>2020-06-07T15:11:20Z</time>
      </trkpt>
      <trkpt lat="47.96936" lon="-3.71016">
        <ele>138.5</ele>
        <time>2020-06-07T15:11:21Z</time>
      </trkpt>
      <trkpt lat="47.9694" lon="-3.71015">
        <ele>138.7</ele>
        <time>2020-06-07T15:11:22Z</time>
      </trkpt>
      <trkpt lat="47.96945" lon="-3.71014">
        <ele>138.9</ele>
        <time>2020-06-07T15:11:23Z</time>
      </trkpt>
      <trkpt lat="47.96949" lon="-3.71011">
        <ele>139.1</ele>
        <time>2020-06-07T15:11:24Z</time>
      </trkpt>
      <trkpt lat="47.96952" lon="-3.71009">
        <ele>139.2</ele>
        <time>2020-06-07T15:11:25Z</time>
      </trkpt>
      <trkpt lat="47.96956" lon="-3.71008">
        <ele>139.4</ele>
        <time>2020-06-07T15:11:26Z</time>
      </trkpt>
      <trkpt lat="47.9696" lon="-3.71007">
        <ele>139.6</ele>
        <time>2020-06-07T15:11:27Z</time>
      </trkpt>
      <trkpt lat="47.96964" lon="-3.71005">
        <ele>139.7</ele>
        <time>2020-06-07T15:11:28Z</time>
      </trkpt>
      <trkpt lat="47.96968" lon="-3.71003">
        <ele>139.9</ele>
        <time>2020-06-07T15:11:29Z</time>
      </trkpt>
      <trkpt lat="47.96972" lon="-3.71002">
        <ele>140.1</ele>
        <time>2020-06-07T15:11:30Z</time>
      </trkpt>
      <trkpt lat="47.96976" lon="-3.71001">
        <ele>140.2</ele>
        <time>2020-06-07T15:11:31Z</time>
      </trkpt>
      <trkpt lat="47.96979" lon="-3.71">
        <ele>140.4</ele>
        <time>2020-06-07T15:11:32Z</time>
      </trkpt>
      <trkpt lat="47.96983" lon="-3.70999">
        <ele>140.5</ele>
        <time>2020-06-07T15:11:33Z</time>
      </trkpt>
      <trkpt lat="47.96986" lon="-3.70997">
        <ele>140.6</ele>
        <time>2020-06-07T15:11:34Z</time>
      </trkpt>
      <trkpt lat="47.9699" lon="-3.70996">
        <ele>140.8</ele>
        <time>2020-06-07T15:11:35Z</time>
      </trkpt>
      <trkpt lat="47.96993" lon="-3.70996">
        <ele>140.9</ele>
        <time>2020-06-07T15:11:36Z</time>
      </trkpt>
      <trkpt lat="47.96997" lon="-3.70996">
        <ele>141.1</ele>
        <time>2020-06-07T15:11:37Z</time>
      </trkpt>
      <trkpt lat="47.97001" lon="-3.70996">
        <ele>141.3</ele>
        <time>2020-06-07T15:11:38Z</time>
      </trkpt>
      <trkpt lat="47.97005" lon="-3.70995">
        <ele>141.5</ele>
        <time>2020-06-07T15:11:39Z</time>
      </trkpt>
      <trkpt lat="47.9701" lon="-3.70993">
        <ele>141.6</ele>
        <time>2020-06-07T15:11:40Z</time>
      </trkpt>
      <trkpt lat="47.97015" lon="-3.70992">
        <ele>141.8</ele>
        <time>2020-06-07T15:11:41Z</time>
      </trkpt>
      <trkpt lat="47.97019" lon="-3.70989">
        <ele>142</ele>
        <time>2020-06-07T15:11:42Z</time>
      </trkpt>
      <trkpt lat="47.97023" lon="-3.70987">
        <ele>142.2</ele>
        <time>2020-06-07T15:11:43Z</time>
      </trkpt>
      <trkpt lat="47.97027" lon="-3.70986">
        <ele>142.4</ele>
        <time>2020-06-07T15:11:44Z</time>
      </trkpt>
      <trkpt lat="47.97031" lon="-3.70984">
        <ele>142.6</ele>
        <time>2020-06-07T15:11:45Z</time>
      </trkpt>
      <trkpt lat="47.97032" lon="-3.70984">
        <ele>142.7</ele>
        <time>2020-06-07T15:11:46Z</time>
      </trkpt>
      <trkpt lat="47.97036" lon="-3.70983">
        <ele>142.9</ele>
        <time>2020-06-07T15:11:47Z</time>
      </trkpt>
      <trkpt lat="47.97039" lon="-3.70982">
        <ele>143</ele>
        <time>2020-06-07T15:11:48Z</time>
      </trkpt>
      <trkpt lat="47.97043" lon="-3.7098">
        <ele>143.3</ele>
        <time>2020-06-07T15:11:49Z</time>
      </trkpt>
      <trkpt lat="47.97046" lon="-3.7098">
        <ele>143.4</ele>
        <time>2020-06-07T15:11:50Z</time>
      </trkpt>
      <trkpt lat="47.9705" lon="-3.70979">
        <ele>143.7</ele>
        <time>2020-06-07T15:11:51Z</time>
      </trkpt>
      <trkpt lat="47.97054" lon="-3.70979">
        <ele>143.9</ele>
        <time>2020-06-07T15:11:52Z</time>
      </trkpt>
      <trkpt lat="47.97057" lon="-3.70978">
        <ele>144.1</ele>
        <time>2020-06-07T15:11:53Z</time>
      </trkpt>
      <trkpt lat="47.97061" lon="-3.70977">
        <ele>144.3</ele>
        <time>2020-06-07T15:11:54Z</time>
      </trkpt>
      <trkpt lat="47.97065" lon="-3.70976">
        <ele>144.5</ele>
        <time>2020-06-07T15:11:55Z</time>
      </trkpt>
      <trkpt lat="47.97069" lon="-3.70976">
        <ele>144.7</ele>
        <time>2020-06-07T15:11:56Z</time>
      </trkpt>
      <trkpt lat="47.97073" lon="-3.70976">
        <ele>144.9</ele>
        <time>2020-06-07T15:11:57Z</time>
      </trkpt>
      <trkpt lat="47.97077" lon="-3.70975">
        <ele>145.1</ele>
        <time>2020-06-07T15:11:58Z</time>
      </trkpt>
      <trkpt lat="47.9708" lon="-3.70974">
        <ele>145.3</ele>
        <time>2020-06-07T15:11:59Z</time>
      </trkpt>
      <trkpt lat="47.97083" lon="-3.70973">
        <ele>145.5</ele>
        <time>2020-06-07T15:12:00Z</time>
      </trkpt>
      <trkpt lat="47.97086" lon="-3.70972">
        <ele>145.6</ele>
        <time>2020-06-07T15:12:01Z</time>
      </trkpt>
      <trkpt lat="47.97089" lon="-3.7097">
        <ele>145.8</ele>
        <time>2020-06-07T15:12:02Z</time>
      </trkpt>
      <trkpt lat="47.97092" lon="-3.70969">
        <ele>146</ele>
        <time>2020-06-07T15:12:03Z</time>
      </trkpt>
      <trkpt lat="47.97096" lon="-3.70968">
        <ele>146.1</ele>
        <time>2020-06-07T15:12:04Z</time>
      </trkpt>
      <trkpt lat="47.97099" lon="-3.70967">
        <ele>146.3</ele>
        <time>2020-06-07T15:12:05Z</time>
      </trkpt>
      <trkpt lat="47.97102" lon="-3.70965">
        <ele>146.4</ele>
        <time>2020-06-07T15:12:06Z</time>
      </trkpt>
      <trkpt lat="47.97105" lon="-3.70965">
        <ele>146.6</ele>
        <time>2020-06-07T15:12:07Z</time>
      </trkpt>
      <trkpt lat="47.97108" lon="-3.70964">
        <ele>146.7</ele>
        <time>2020-06-07T15:12:08Z</time>
      </trkpt>
      <trkpt lat="47.97112" lon="-3.70963">
        <ele>146.9</ele>
        <time>2020-06-07T15:12:09Z</time>
      </trkpt>
      <trkpt lat="47.97115" lon="-3.70963">
        <ele>147</ele>
        <time>2020-06-07T15:12:10Z</time>
      </trkpt>
      <trkpt lat="47.97117" lon="-3.70963">
        <ele>147.1</ele>
        <time>2020-06-07T15:12:11Z</time>
      </trkpt>
      <trkpt lat="47.9712" lon="-3.70962">
        <ele>147.3</ele>
        <time>2020-06-07T15:12:12Z</time>
      </trkpt>
      <trkpt lat="47.97123" lon="-3.70961">
        <ele>147.4</ele>
        <time>2020-06-07T15:12:13Z</time>
      </trkpt>
      <trkpt lat="47.97126" lon="-3.7096">
        <ele>147.5</ele>
        <time>2020-06-07T15:12:14Z</time>
      </trkpt>
      <trkpt lat="47.9713" lon="-3.70959">
        <ele>147.7</ele>
        <time>2020-06-07T15:12:15Z</time>
      </trkpt>
      <trkpt lat="47.97133" lon="-3.70958">
        <ele>147.8</ele>
        <time>2020-06-07T15:12:16Z</time>
      </trkpt>
      <trkpt lat="47.97137" lon="-3.70957">
        <ele>147.9</ele>
        <time>2020-06-07T15:12:17Z</time>
      </trkpt>
      <trkpt lat="47.9714" lon="-3.70956">
        <ele>148.1</ele>
        <time>2020-06-07T15:12:18Z</time>
      </trkpt>
      <trkpt lat="47.97143" lon="-3.70954">
        <ele>148.2</ele>
        <time>2020-06-07T15:12:19Z</time>
      </trkpt>
      <trkpt lat="47.97145" lon="-3.70954">
        <ele>148.2</ele>
        <time>2020-06-07T15:12:20Z</time>
      </trkpt>
      <trkpt lat="47.97149" lon="-3.70954">
        <ele>148.3</ele>
        <time>2020-06-07T15:12:21Z</time>
      </trkpt>
      <trkpt lat="47.97152" lon="-3.70952">
        <ele>148.5</ele>
        <time>2020-06-07T15:12:22Z</time>
      </trkpt>
      <trkpt lat="47.97155" lon="-3.70951">
        <ele>148.6</ele>
        <time>2020-06-07T15:12:23Z</time>
      </trkpt>
      <trkpt lat="47.97158" lon="-3.7095">
        <ele>148.7</ele>
        <time>2020-06-07T15:12:24Z</time>
      </trkpt>
      <trkpt lat="47.97163" lon="-3.70947">
        <ele>148.8</ele>
        <time>2020-06-07T15:12:25Z</time>
      </trkpt>
      <trkpt lat="47.97168" lon="-3.70945">
        <ele>149</ele>
        <time>2020-06-07T15:12:26Z</time>
      </trkpt>
      <trkpt lat="47.97172" lon="-3.70943">
        <ele>149.1</ele>
        <time>2020-06-07T15:12:27Z</time>
      </trkpt>
      <trkpt lat="47.97174" lon="-3.70942">
        <ele>149.2</ele>
        <time>2020-06-07T15:12:28Z</time>
      </trkpt>
      <trkpt lat="47.97178" lon="-3.7094">
        <ele>149.3</ele>
        <time>2020-06-07T15:12:29Z</time>
      </trkpt>
      <trkpt lat="47.97182" lon="-3.70939">
        <ele>149.4</ele>
        <time>2020-06-07T15:12:30Z</time>
      </trkpt>
      <trkpt lat="47.97185" lon="-3.70937">
        <ele>149.5</ele>
        <time>2020-06-07T15:12:31Z</time>
      </trkpt>
      <trkpt lat="47.97188" lon="-3.70936">
        <ele>149.6</ele>
        <time>2020-06-07T15:12:32Z</time>
      </trkpt>
      <trkpt lat="47.97192" lon="-3.70936">
        <ele>149.7</ele>
        <time>2020-06-07T15:12:33Z</time>
      </trkpt>
      <trkpt lat="47.97196" lon="-3.70934">
        <ele>149.9</ele>
        <time>2020-06-07T15:12:34Z</time>
      </trkpt>
      <trkpt lat="47.972" lon="-3.70933">
        <ele>150.1</ele>
        <time>2020-06-07T15:12:35Z</time>
      </trkpt>
      <trkpt lat="47.97203" lon="-3.70932">
        <ele>150.2</ele>
        <time>2020-06-07T15:12:36Z</time>
      </trkpt>
      <trkpt lat="47.97206" lon="-3.70931">
        <ele>150.4</ele>
        <time>2020-06-07T15:12:37Z</time>
      </trkpt>
      <trkpt lat="47.97211" lon="-3.70931">
        <ele>150.5</ele>
        <time>2020-06-07T15:12:38Z</time>
      </trkpt>
      <trkpt lat="47.97212" lon="-3.7093">
        <ele>150.6</ele>
        <time>2020-06-07T15:12:39Z</time>
      </trkpt>
      <trkpt lat="47.97216" lon="-3.70928">
        <ele>150.7</ele>
        <time>2020-06-07T15:12:40Z</time>
      </trkpt>
      <trkpt lat="47.9722" lon="-3.70926">
        <ele>150.9</ele>
        <time>2020-06-07T15:12:41Z</time>
      </trkpt>
      <trkpt lat="47.97224" lon="-3.70925">
        <ele>151</ele>
        <time>2020-06-07T15:12:42Z</time>
      </trkpt>
      <trkpt lat="47.97228" lon="-3.70923">
        <ele>151.2</ele>
        <time>2020-06-07T15:12:43Z</time>
      </trkpt>
      <trkpt lat="47.97233" lon="-3.70921">
        <ele>151.4</ele>
        <time>2020-06-07T15:12:44Z</time>
      </trkpt>
      <trkpt lat="47.97236" lon="-3.7092">
        <ele>151.5</ele>
        <time>2020-06-07T15:12:45Z</time>
      </trkpt>
      <trkpt lat="47.97239" lon="-3.70919">
        <ele>151.6</ele>
        <time>2020-06-07T15:12:46Z</time>
      </trkpt>
      <trkpt lat="47.97243" lon="-3.70918">
        <ele>151.7</ele>
        <time>2020-06-07T15:12:47Z</time>
      </trkpt>
      <trkpt lat="47.97245" lon="-3.70918">
        <ele>151.8</ele>
        <time>2020-06-07T15:12:48Z</time>
      </trkpt>
      <trkpt lat="47.97249" lon="-3.70917">
        <ele>152</ele>
        <time>2020-06-07T15:12:49Z</time>
      </trkpt>
      <trkpt lat="47.97252" lon="-3.70916">
        <ele>152.1</ele>
        <time>2020-06-07T15:12:50Z</time>
      </trkpt>
      <trkpt lat="47.97256" lon="-3.70915">
        <ele>152.3</ele>
        <time>2020-06-07T15:12:51Z</time>
      </trkpt>
      <trkpt lat="47.97261" lon="-3.70914">
        <ele>152.4</ele>
        <time>2020-06-07T15:12:52Z</time>
      </trkpt>
      <trkpt lat="47.97265" lon="-3.70913">
        <ele>152.6</ele>
        <time>2020-06-07T15:12:53Z</time>
      </trkpt>
      <trkpt lat="47.9727" lon="-3.70912">
        <ele>152.8</ele>
        <time>2020-06-07T15:12:54Z</time>
      </trkpt>
      <trkpt lat="47.97273" lon="-3.70911">
        <ele>153</ele>
        <time>2020-06-07T15:12:55Z</time>
      </trkpt>
      <trkpt lat="47.97278" lon="-3.70909">
        <ele>153.3</ele>
        <time>2020-06-07T15:12:56Z</time>
      </trkpt>
      <trkpt lat="47.97283" lon="-3.70908">
        <ele>153.5</ele>
        <time>2020-06-07T15:12:57Z</time>
      </trkpt>
      <trkpt lat="47.97288" lon="-3.70906">
        <ele>153.7</ele>
        <time>2020-06-07T15:12:58Z</time>
      </trkpt>
      <trkpt lat="47.97292" lon="-3.70905">
        <ele>153.9</ele>
        <time>2020-06-07T15:12:59Z</time>
      </trkpt>
      <trkpt lat="47.97296" lon="-3.70905">
        <ele>154.1</ele>
        <time>2020-06-07T15:13:00Z</time>
      </trkpt>
      <trkpt lat="47.973" lon="-3.70904">
        <ele>154.2</ele>
        <time>2020-06-07T15:13:01Z</time>
      </trkpt>
      <trkpt lat="47.97304" lon="-3.70903">
        <ele>154.3</ele>
        <time>2020-06-07T15:13:02Z</time>
      </trkpt>
      <trkpt lat="47.97307" lon="-3.70902">
        <ele>154.4</ele>
        <time>2020-06-07T15:13:03Z</time>
      </trkpt>
      <trkpt lat="47.9731" lon="-3.70901">
        <ele>154.5</ele>
        <time>2020-06-07T15:13:04Z</time>
      </trkpt>
      <trkpt lat="47.97314" lon="-3.70901">
        <ele>154.7</ele>
        <time>2020-06-07T15:13:05Z</time>
      </trkpt>
      <trkpt lat="47.97318" lon="-3.709">
        <ele>154.8</ele>
        <time>2020-06-07T15:13:06Z</time>
      </trkpt>
      <trkpt lat="47.97322" lon="-3.70899">
        <ele>155</ele>
        <time>2020-06-07T15:13:07Z</time>
      </trkpt>
      <trkpt lat="47.97326" lon="-3.70898">
        <ele>155.1</ele>
        <time>2020-06-07T15:13:08Z</time>
      </trkpt>
      <trkpt lat="47.97328" lon="-3.70897">
        <ele>155.3</ele>
        <time>2020-06-07T15:13:09Z</time>
      </trkpt>
      <trkpt lat="47.97332" lon="-3.70896">
        <ele>155.4</ele>
        <time>2020-06-07T15:13:10Z</time>
      </trkpt>
      <trkpt lat="47.97336" lon="-3.70895">
        <ele>155.6</ele>
        <time>2020-06-07T15:13:11Z</time>
      </trkpt>
      <trkpt lat="47.9734" lon="-3.70895">
        <ele>155.8</ele>
        <time>2020-06-07T15:13:12Z</time>
      </trkpt>
      <trkpt lat="47.97344" lon="-3.70895">
        <ele>156.1</ele>
        <time>2020-06-07T15:13:13Z</time>
      </trkpt>
      <trkpt lat="47.97348" lon="-3.70894">
        <ele>156.3</ele>
        <time>2020-06-07T15:13:14Z</time>
      </trkpt>
      <trkpt lat="47.97352" lon="-3.70893">
        <ele>156.4</ele>
        <time>2020-06-07T15:13:15Z</time>
      </trkpt>
      <trkpt lat="47.97355" lon="-3.70892">
        <ele>156.6</ele>
        <time>2020-06-07T15:13:16Z</time>
      </trkpt>
      <trkpt lat="47.97358" lon="-3.7089">
        <ele>156.8</ele>
        <time>2020-06-07T15:13:17Z</time>
      </trkpt>
      <trkpt lat="47.97362" lon="-3.70888">
        <ele>157</ele>
        <time>2020-06-07T15:13:18Z</time>
      </trkpt>
      <trkpt lat="47.97364" lon="-3.70888">
        <ele>157.1</ele>
        <time>2020-06-07T15:13:19Z</time>
      </trkpt>
      <trkpt lat="47.97367" lon="-3.70887">
        <ele>157.2</ele>
        <time>2020-06-07T15:13:20Z</time>
      </trkpt>
      <trkpt lat="47.97371" lon="-3.70886">
        <ele>157.5</ele>
        <time>2020-06-07T15:13:21Z</time>
      </trkpt>
      <trkpt lat="47.97375" lon="-3.70885">
        <ele>157.7</ele>
        <time>2020-06-07T15:13:22Z</time>
      </trkpt>
      <trkpt lat="47.97379" lon="-3.70883">
        <ele>157.9</ele>
        <time>2020-06-07T15:13:23Z</time>
      </trkpt>
      <trkpt lat="47.97383" lon="-3.70881">
        <ele>158.1</ele>
        <time>2020-06-07T15:13:24Z</time>
      </trkpt>
      <trkpt lat="47.97386" lon="-3.7088">
        <ele>158.3</ele>
        <time>2020-06-07T15:13:25Z</time>
      </trkpt>
      <trkpt lat="47.97389" lon="-3.70879">
        <ele>158.4</ele>
        <time>2020-06-07T15:13:26Z</time>
      </trkpt>
      <trkpt lat="47.97392" lon="-3.70879">
        <ele>158.6</ele>
        <time>2020-06-07T15:13:27Z</time>
      </trkpt>
      <trkpt lat="47.97395" lon="-3.70878">
        <ele>158.7</ele>
        <time>2020-06-07T15:13:28Z</time>
      </trkpt>
      <trkpt lat="47.97399" lon="-3.70878">
        <ele>158.9</ele>
        <time>2020-06-07T15:13:29Z</time>
      </trkpt>
      <trkpt lat="47.974" lon="-3.70878">
        <ele>159</ele>
        <time>2020-06-07T15:13:30Z</time>
      </trkpt>
      <trkpt lat="47.97403" lon="-3.70878">
        <ele>159.1</ele>
        <time>2020-06-07T15:13:31Z</time>
      </trkpt>
      <trkpt lat="47.97406" lon="-3.70877">
        <ele>159.2</ele>
        <time>2020-06-07T15:13:32Z</time>
      </trkpt>
      <trkpt lat="47.97409" lon="-3.70876">
        <ele>159.4</ele>
        <time>2020-06-07T15:13:33Z</time>
      </trkpt>
      <trkpt lat="47.97412" lon="-3.70876">
        <ele>159.5</ele>
        <time>2020-06-07T15:13:34Z</time>
      </trkpt>
      <trkpt lat="47.97415" lon="-3.70876">
        <ele>159.7</ele>
        <time>2020-06-07T15:13:35Z</time>
      </trkpt>
      <trkpt lat="47.97419" lon="-3.70875">
        <ele>159.8</ele>
        <time>2020-06-07T15:13:36Z</time>
      </trkpt>
      <trkpt lat="47.97422" lon="-3.70874">
        <ele>160</ele>
        <time>2020-06-07T15:13:37Z</time>
      </trkpt>
      <trkpt lat="47.97424" lon="-3.70874">
        <ele>160.1</ele>
        <time>2020-06-07T15:13:38Z</time>
      </trkpt>
      <trkpt lat="47.97427" lon="-3.70873">
        <ele>160.2</ele>
        <time>2020-06-07T15:13:39Z</time>
      </trkpt>
      <trkpt lat="47.97429" lon="-3.70873">
        <ele>160.4</ele>
        <time>2020-06-07T15:13:40Z</time>
      </trkpt>
      <trkpt lat="47.97433" lon="-3.70873">
        <ele>160.6</ele>
        <time>2020-06-07T15:13:41Z</time>
      </trkpt>
      <trkpt lat="47.97436" lon="-3.70873">
        <ele>160.7</ele>
        <time>2020-06-07T15:13:42Z</time>
      </trkpt>
      <trkpt lat="47.97439" lon="-3.70873">
        <ele>160.9</ele>
        <time>2020-06-07T15:13:43Z</time>
      </trkpt>
      <trkpt lat="47.97442" lon="-3.70872">
        <ele>161.1</ele>
        <time>2020-06-07T15:13:44Z</time>
      </trkpt>
      <trkpt lat="47.97445" lon="-3.70871">
        <ele>161.3</ele>
        <time>2020-06-07T15:13:45Z</time>
      </trkpt>
      <trkpt lat="47.97449" lon="-3.7087">
        <ele>161.5</ele>
        <time>2020-06-07T15:13:46Z</time>
      </trkpt>
      <trkpt lat="47.97449" lon="-3.7087">
        <ele>161.5</ele>
        <time>2020-06-07T15:13:47Z</time>
      </trkpt>
      <trkpt lat="47.97453" lon="-3.70869">
        <ele>161.7</ele>
        <time>2020-06-07T15:13:48Z</time>
      </trkpt>
      <trkpt lat="47.97454" lon="-3.70869">
        <ele>161.8</ele>
        <time>2020-06-07T15:13:49Z</time>
      </trkpt>
      <trkpt lat="47.97457" lon="-3.70869">
        <ele>161.9</ele>
        <time>2020-06-07T15:13:50Z</time>
      </trkpt>
      <trkpt lat="47.9746" lon="-3.70868">
        <ele>162.1</ele>
        <time>2020-06-07T15:13:51Z</time>
      </trkpt>
      <trkpt lat="47.97463" lon="-3.70868">
        <ele>162.3</ele>
        <time>2020-06-07T15:13:52Z</time>
      </trkpt>
      <trkpt lat="47.97466" lon="-3.70867">
        <ele>162.4</ele>
        <time>2020-06-07T15:13:53Z</time>
      </trkpt>
      <trkpt lat="47.97469" lon="-3.70867">
        <ele>162.6</ele>
        <time>2020-06-07T15:13:54Z</time>
      </trkpt>
      <trkpt lat="47.97472" lon="-3.70865">
        <ele>162.8</ele>
        <time>2020-06-07T15:13:55Z</time>
      </trkpt>
      <trkpt lat="47.97476" lon="-3.70864">
        <ele>163</ele>
        <time>2020-06-07T15:13:56Z</time>
      </trkpt>
      <trkpt lat="47.97479" lon="-3.70864">
        <ele>163.1</ele>
        <time>2020-06-07T15:13:57Z</time>
      </trkpt>
      <trkpt lat="47.97482" lon="-3.70863">
        <ele>163.3</ele>
        <time>2020-06-07T15:13:58Z</time>
      </trkpt>
      <trkpt lat="47.97486" lon="-3.70861">
        <ele>163.5</ele>
        <time>2020-06-07T15:13:59Z</time>
      </trkpt>
      <trkpt lat="47.97487" lon="-3.7086">
        <ele>163.5</ele>
        <time>2020-06-07T15:14:00Z</time>
      </trkpt>
      <trkpt lat="47.97491" lon="-3.7086">
        <ele>163.7</ele>
        <time>2020-06-07T15:14:01Z</time>
      </trkpt>
      <trkpt lat="47.97495" lon="-3.7086">
        <ele>163.9</ele>
        <time>2020-06-07T15:14:02Z</time>
      </trkpt>
      <trkpt lat="47.97496" lon="-3.7086">
        <ele>163.9</ele>
        <time>2020-06-07T15:14:03Z</time>
      </trkpt>
      <trkpt lat="47.975" lon="-3.70859">
        <ele>164.1</ele>
        <time>2020-06-07T15:14:04Z</time>
      </trkpt>
      <trkpt lat="47.97501" lon="-3.70859">
        <ele>164.2</ele>
        <time>2020-06-07T15:14:05Z</time>
      </trkpt>
      <trkpt lat="47.97505" lon="-3.7086">
        <ele>164.4</ele>
        <time>2020-06-07T15:14:06Z</time>
      </trkpt>
      <trkpt lat="47.97508" lon="-3.7086">
        <ele>164.5</ele>
        <time>2020-06-07T15:14:07Z</time>
      </trkpt>
      <trkpt lat="47.97512" lon="-3.70861">
        <ele>164.7</ele>
        <time>2020-06-07T15:14:08Z</time>
      </trkpt>
      <trkpt lat="47.97514" lon="-3.7086">
        <ele>164.8</ele>
        <time>2020-06-07T15:14:09Z</time>
      </trkpt>
      <trkpt lat="47.97516" lon="-3.7086">
        <ele>164.9</ele>
        <time>2020-06-07T15:14:10Z</time>
      </trkpt>
      <trkpt lat="47.97519" lon="-3.70859">
        <ele>165</ele>
        <time>2020-06-07T15:14:11Z</time>
      </trkpt>
      <trkpt lat="47.97522" lon="-3.70857">
        <ele>165.2</ele>
        <time>2020-06-07T15:14:12Z</time>
      </trkpt>
      <trkpt lat="47.97523" lon="-3.70857">
        <ele>165.2</ele>
        <time>2020-06-07T15:14:13Z</time>
      </trkpt>
      <trkpt lat="47.97523" lon="-3.70856">
        <ele>165.2</ele>
        <time>2020-06-07T15:14:14Z</time>
      </trkpt>
      <trkpt lat="47.97524" lon="-3.70857">
        <ele>165.3</ele>
        <time>2020-06-07T15:14:15Z</time>
      </trkpt>
      <trkpt lat="47.97524" lon="-3.70856">
        <ele>165.3</ele>
        <time>2020-06-07T15:14:16Z</time>
      </trkpt>
      <trkpt lat="47.97523" lon="-3.70856">
        <ele>165.3</ele>
        <time>2020-06-07T15:14:17Z</time>
      </trkpt>
      <trkpt lat="47.97524" lon="-3.70856">
        <ele>165.3</ele>
        <time>2020-06-07T15:14:18Z</time>
      </trkpt>
      <trkpt lat="47.97524" lon="-3.70854">
        <ele>165.4</ele>
        <time>2020-06-07T15:14:19Z</time>
      </trkpt>
      <trkpt lat="47.97523" lon="-3.70854">
        <ele>165.4</ele>
        <time>2020-06-07T15:14:20Z</time>
      </trkpt>
      <trkpt lat="47.97524" lon="-3.70854">
        <ele>165.4</ele>
        <time>2020-06-07T15:14:21Z</time>
      </trkpt>
      <trkpt lat="47.97523" lon="-3.70854">
        <ele>165.4</ele>
        <time>2020-06-07T15:14:22Z</time>
      </trkpt>
      <trkpt lat="47.97523" lon="-3.70854">
        <ele>165.4</ele>
        <time>2020-06-07T15:14:23Z</time>
      </trkpt>
      <trkpt lat="47.97523" lon="-3.70854">
        <ele>165.4</ele>
        <time>2020-06-07T15:14:24Z</time>
      </trkpt>
      <trkpt lat="47.97524" lon="-3.70854">
        <ele>165.4</ele>
        <time>2020-06-07T15:14:25Z</time>
      </trkpt>
      <trkpt lat="47.97524" lon="-3.70854">
        <ele>165.4</ele>
        <time>2020-06-07T15:14:26Z</time>
      </trkpt>
      <trkpt lat="47.97528" lon="-3.70854">
        <ele>165.6</ele>
        <time>2020-06-07T15:17:55Z</time>
      </trkpt>
      <trkpt lat="47.97529" lon="-3.70854">
        <ele>165.6</ele>
        <time>2020-06-07T15:17:56Z</time>
      </trkpt>
      <trkpt lat="47.97531" lon="-3.70854">
        <ele>165.7</ele>
        <time>2020-06-07T15:17:57Z</time>
      </trkpt>
      <trkpt lat="47.97531" lon="-3.70853">
        <ele>165.7</ele>
        <time>2020-06-07T15:17:58Z</time>
      </trkpt>
      <trkpt lat="47.97532" lon="-3.70853">
        <ele>165.7</ele>
        <time>2020-06-07T15:17:59Z</time>
      </trkpt>
      <trkpt lat="47.97533" lon="-3.70853">
        <ele>165.8</ele>
        <time>2020-06-07T15:18:00Z</time>
      </trkpt>
      <trkpt lat="47.97533" lon="-3.70853">
        <ele>165.8</ele>
        <time>2020-06-07T15:18:01Z</time>
      </trkpt>
      <trkpt lat="47.97533" lon="-3.70853">
        <ele>165.8</ele>
        <time>2020-06-07T15:18:02Z</time>
      </trkpt>
      <trkpt lat="47.97533" lon="-3.70852">
        <ele>165.8</ele>
        <time>2020-06-07T15:18:03Z</time>
      </trkpt>
      <trkpt lat="47.97533" lon="-3.70852">
        <ele>165.8</ele>
        <time>2020-06-07T15:18:04Z</time>
      </trkpt>
      <trkpt lat="47.97533" lon="-3.70852">
        <ele>165.8</ele>
        <time>2020-06-07T15:18:05Z</time>
      </trkpt>
      <trkpt lat="47.97534" lon="-3.70853">
        <ele>165.9</ele>
        <time>2020-06-07T15:18:06Z</time>
      </trkpt>
      <trkpt lat="47.97535" lon="-3.70853">
        <ele>165.9</ele>
        <time>2020-06-07T15:18:07Z</time>
      </trkpt>
      <trkpt lat="47.97535" lon="-3.70853">
        <ele>165.9</ele>
        <time>2020-06-07T15:18:08Z</time>
      </trkpt>
      <trkpt lat="47.97534" lon="-3.70854">
        <ele>165.9</ele>
        <time>2020-06-07T15:18:09Z</time>
      </trkpt>
      <trkpt lat="47.97534" lon="-3.70854">
        <ele>165.9</ele>
        <time>2020-06-07T15:18:10Z</time>
      </trkpt>
      <trkpt lat="47.97534" lon="-3.70854">
        <ele>165.9</ele>
        <time>2020-06-07T15:18:11Z</time>
      </trkpt>
      <trkpt lat="47.97534" lon="-3.70854">
        <ele>166</ele>
        <time>2020-06-07T15:18:12Z</time>
      </trkpt>
      <trkpt lat="47.97533" lon="-3.70854">
        <ele>166</ele>
        <time>2020-06-07T15:18:13Z</time>
      </trkpt>
      <trkpt lat="47.97532" lon="-3.70854">
        <ele>166</ele>
        <time>2020-06-07T15:18:14Z</time>
      </trkpt>
      <trkpt lat="47.97532" lon="-3.70854">
        <ele>166</ele>
        <time>2020-06-07T15:18:15Z</time>
      </trkpt>
      <trkpt lat="47.97532" lon="-3.70855">
        <ele>166</ele>
        <time>2020-06-07T15:18:16Z</time>
      </trkpt>
      <trkpt lat="47.97532" lon="-3.70855">
        <ele>166.1</ele>
        <time>2020-06-07T15:18:17Z</time>
      </trkpt>
      <trkpt lat="47.97525" lon="-3.70859">
        <ele>166.3</ele>
        <time>2020-06-07T15:20:09Z</time>
      </trkpt>
      <trkpt lat="47.97524" lon="-3.70859">
        <ele>166.4</ele>
        <time>2020-06-07T15:20:10Z</time>
      </trkpt>
      <trkpt lat="47.97523" lon="-3.70859">
        <ele>166.4</ele>
        <time>2020-06-07T15:20:11Z</time>
      </trkpt>
      <trkpt lat="47.97524" lon="-3.70859">
        <ele>166.4</ele>
        <time>2020-06-07T15:20:12Z</time>
      </trkpt>
      <trkpt lat="47.97525" lon="-3.70859">
        <ele>166.5</ele>
        <time>2020-06-07T15:20:13Z</time>
      </trkpt>
      <trkpt lat="47.97526" lon="-3.70858">
        <ele>166.5</ele>
        <time>2020-06-07T15:20:14Z</time>
      </trkpt>
      <trkpt lat="47.97526" lon="-3.70858">
        <ele>166.5</ele>
        <time>2020-06-07T15:20:15Z</time>
      </trkpt>
      <trkpt lat="47.97527" lon="-3.70858">
        <ele>166.5</ele>
        <time>2020-06-07T15:20:16Z</time>
      </trkpt>
      <trkpt lat="47.97528" lon="-3.70857">
        <ele>166.6</ele>
        <time>2020-06-07T15:20:17Z</time>
      </trkpt>
      <trkpt lat="47.97528" lon="-3.70857">
        <ele>166.6</ele>
        <time>2020-06-07T15:20:18Z</time>
      </trkpt>
      <trkpt lat="47.97529" lon="-3.70856">
        <ele>166.6</ele>
        <time>2020-06-07T15:20:19Z</time>
      </trkpt>
      <trkpt lat="47.9753" lon="-3.70856">
        <ele>166.6</ele>
        <time>2020-06-07T15:20:20Z</time>
      </trkpt>
      <trkpt lat="47.97531" lon="-3.70856">
        <ele>166.7</ele>
        <time>2020-06-07T15:20:21Z</time>
      </trkpt>
      <trkpt lat="47.97531" lon="-3.70855">
        <ele>166.7</ele>
        <time>2020-06-07T15:21:32Z</time>
      </trkpt>
      <trkpt lat="47.97532" lon="-3.70855">
        <ele>166.7</ele>
        <time>2020-06-07T15:21:33Z</time>
      </trkpt>
      <trkpt lat="47.97536" lon="-3.70854">
        <ele>166.8</ele>
        <time>2020-06-07T15:21:34Z</time>
      </trkpt>
      <trkpt lat="47.9754" lon="-3.70854">
        <ele>166.9</ele>
        <time>2020-06-07T15:21:35Z</time>
      </trkpt>
      <trkpt lat="47.97544" lon="-3.70853">
        <ele>167.1</ele>
        <time>2020-06-07T15:21:36Z</time>
      </trkpt>
      <trkpt lat="47.97548" lon="-3.70851">
        <ele>167.2</ele>
        <time>2020-06-07T15:21:37Z</time>
      </trkpt>
      <trkpt lat="47.97552" lon="-3.7085">
        <ele>167.3</ele>
        <time>2020-06-07T15:21:38Z</time>
      </trkpt>
      <trkpt lat="47.97556" lon="-3.70849">
        <ele>167.4</ele>
        <time>2020-06-07T15:21:39Z</time>
      </trkpt>
      <trkpt lat="47.97561" lon="-3.70849">
        <ele>167.5</ele>
        <time>2020-06-07T15:21:40Z</time>
      </trkpt>
      <trkpt lat="47.97565" lon="-3.70848">
        <ele>167.7</ele>
        <time>2020-06-07T15:21:41Z</time>
      </trkpt>
      <trkpt lat="47.9757" lon="-3.70848">
        <ele>167.8</ele>
        <time>2020-06-07T15:21:42Z</time>
      </trkpt>
      <trkpt lat="47.97574" lon="-3.70847">
        <ele>167.9</ele>
        <time>2020-06-07T15:21:43Z</time>
      </trkpt>
      <trkpt lat="47.97578" lon="-3.70847">
        <ele>168</ele>
        <time>2020-06-07T15:21:44Z</time>
      </trkpt>
      <trkpt lat="47.97583" lon="-3.70846">
        <ele>168.1</ele>
        <time>2020-06-07T15:21:45Z</time>
      </trkpt>
      <trkpt lat="47.97588" lon="-3.70845">
        <ele>168.2</ele>
        <time>2020-06-07T15:21:46Z</time>
      </trkpt>
      <trkpt lat="47.97592" lon="-3.70844">
        <ele>168.4</ele>
        <time>2020-06-07T15:21:47Z</time>
      </trkpt>
      <trkpt lat="47.97597" lon="-3.70844">
        <ele>168.5</ele>
        <time>2020-06-07T15:21:48Z</time>
      </trkpt>
      <trkpt lat="47.97602" lon="-3.70843">
        <ele>168.6</ele>
        <time>2020-06-07T15:21:49Z</time>
      </trkpt>
      <trkpt lat="47.97606" lon="-3.70843">
        <ele>168.7</ele>
        <time>2020-06-07T15:21:50Z</time>
      </trkpt>
      <trkpt lat="47.9761" lon="-3.70843">
        <ele>168.8</ele>
        <time>2020-06-07T15:21:51Z</time>
      </trkpt>
      <trkpt lat="47.97614" lon="-3.70843">
        <ele>168.9</ele>
        <time>2020-06-07T15:21:52Z</time>
      </trkpt>
      <trkpt lat="47.97618" lon="-3.70842">
        <ele>168.9</ele>
        <time>2020-06-07T15:21:53Z</time>
      </trkpt>
      <trkpt lat="47.97622" lon="-3.70841">
        <ele>169</ele>
        <time>2020-06-07T15:21:54Z</time>
      </trkpt>
      <trkpt lat="47.97627" lon="-3.7084">
        <ele>169.1</ele>
        <time>2020-06-07T15:21:55Z</time>
      </trkpt>
      <trkpt lat="47.97631" lon="-3.7084">
        <ele>169.2</ele>
        <time>2020-06-07T15:21:56Z</time>
      </trkpt>
      <trkpt lat="47.97635" lon="-3.70839">
        <ele>169.3</ele>
        <time>2020-06-07T15:21:57Z</time>
      </trkpt>
      <trkpt lat="47.97639" lon="-3.70839">
        <ele>169.4</ele>
        <time>2020-06-07T15:21:58Z</time>
      </trkpt>
      <trkpt lat="47.97643" lon="-3.70839">
        <ele>169.4</ele>
        <time>2020-06-07T15:21:59Z</time>
      </trkpt>
      <trkpt lat="47.97647" lon="-3.70839">
        <ele>169.5</ele>
        <time>2020-06-07T15:22:00Z</time>
      </trkpt>
      <trkpt lat="47.97651" lon="-3.70839">
        <ele>169.6</ele>
        <time>2020-06-07T15:22:01Z</time>
      </trkpt>
      <trkpt lat="47.97655" lon="-3.70839">
        <ele>169.7</ele>
        <time>2020-06-07T15:22:02Z</time>
      </trkpt>
      <trkpt lat="47.9766" lon="-3.7084">
        <ele>169.8</ele>
        <time>2020-06-07T15:22:03Z</time>
      </trkpt>
      <trkpt lat="47.97663" lon="-3.7084">
        <ele>169.8</ele>
        <time>2020-06-07T15:22:04Z</time>
      </trkpt>
      <trkpt lat="47.97668" lon="-3.70841">
        <ele>169.9</ele>
        <time>2020-06-07T15:22:05Z</time>
      </trkpt>
      <trkpt lat="47.97671" lon="-3.70841">
        <ele>170</ele>
        <time>2020-06-07T15:22:06Z</time>
      </trkpt>
      <trkpt lat="47.97675" lon="-3.70842">
        <ele>170.1</ele>
        <time>2020-06-07T15:22:07Z</time>
      </trkpt>
      <trkpt lat="47.97679" lon="-3.70842">
        <ele>170.1</ele>
        <time>2020-06-07T15:22:08Z</time>
      </trkpt>
      <trkpt lat="47.97683" lon="-3.70843">
        <ele>170.2</ele>
        <time>2020-06-07T15:22:09Z</time>
      </trkpt>
      <trkpt lat="47.97688" lon="-3.70843">
        <ele>170.3</ele>
        <time>2020-06-07T15:22:10Z</time>
      </trkpt>
      <trkpt lat="47.97692" lon="-3.70845">
        <ele>170.4</ele>
        <time>2020-06-07T15:22:11Z</time>
      </trkpt>
      <trkpt lat="47.97696" lon="-3.70846">
        <ele>170.4</ele>
        <time>2020-06-07T15:22:12Z</time>
      </trkpt>
      <trkpt lat="47.977" lon="-3.70847">
        <ele>170.5</ele>
        <time>2020-06-07T15:22:13Z</time>
      </trkpt>
      <trkpt lat="47.97705" lon="-3.70848">
        <ele>170.5</ele>
        <time>2020-06-07T15:22:14Z</time>
      </trkpt>
      <trkpt lat="47.97709" lon="-3.70849">
        <ele>170.5</ele>
        <time>2020-06-07T15:22:15Z</time>
      </trkpt>
      <trkpt lat="47.97713" lon="-3.70851">
        <ele>170.6</ele>
        <time>2020-06-07T15:22:16Z</time>
      </trkpt>
      <trkpt lat="47.97718" lon="-3.70853">
        <ele>170.6</ele>
        <time>2020-06-07T15:22:17Z</time>
      </trkpt>
      <trkpt lat="47.97722" lon="-3.70855">
        <ele>170.7</ele>
        <time>2020-06-07T15:22:18Z</time>
      </trkpt>
      <trkpt lat="47.97726" lon="-3.70857">
        <ele>170.7</ele>
        <time>2020-06-07T15:22:19Z</time>
      </trkpt>
      <trkpt lat="47.9773" lon="-3.70859">
        <ele>170.7</ele>
        <time>2020-06-07T15:22:20Z</time>
      </trkpt>
      <trkpt lat="47.97734" lon="-3.70861">
        <ele>170.8</ele>
        <time>2020-06-07T15:22:21Z</time>
      </trkpt>
      <trkpt lat="47.97737" lon="-3.70863">
        <ele>170.8</ele>
        <time>2020-06-07T15:22:22Z</time>
      </trkpt>
      <trkpt lat="47.97741" lon="-3.70865">
        <ele>170.9</ele>
        <time>2020-06-07T15:22:23Z</time>
      </trkpt>
      <trkpt lat="47.97745" lon="-3.70868">
        <ele>170.9</ele>
        <time>2020-06-07T15:22:24Z</time>
      </trkpt>
      <trkpt lat="47.97749" lon="-3.70871">
        <ele>170.9</ele>
        <time>2020-06-07T15:22:25Z</time>
      </trkpt>
      <trkpt lat="47.97753" lon="-3.70873">
        <ele>170.9</ele>
        <time>2020-06-07T15:22:26Z</time>
      </trkpt>
      <trkpt lat="47.97757" lon="-3.70876">
        <ele>170.9</ele>
        <time>2020-06-07T15:22:27Z</time>
      </trkpt>
      <trkpt lat="47.97761" lon="-3.70878">
        <ele>170.9</ele>
        <time>2020-06-07T15:22:28Z</time>
      </trkpt>
      <trkpt lat="47.97766" lon="-3.70881">
        <ele>170.9</ele>
        <time>2020-06-07T15:22:29Z</time>
      </trkpt>
      <trkpt lat="47.9777" lon="-3.70884">
        <ele>170.9</ele>
        <time>2020-06-07T15:22:30Z</time>
      </trkpt>
      <trkpt lat="47.97774" lon="-3.70887">
        <ele>170.8</ele>
        <time>2020-06-07T15:22:31Z</time>
      </trkpt>
      <trkpt lat="47.97778" lon="-3.7089">
        <ele>170.8</ele>
        <time>2020-06-07T15:22:32Z</time>
      </trkpt>
      <trkpt lat="47.97781" lon="-3.70893">
        <ele>170.8</ele>
        <time>2020-06-07T15:22:33Z</time>
      </trkpt>
      <trkpt lat="47.97785" lon="-3.70896">
        <ele>170.7</ele>
        <time>2020-06-07T15:22:34Z</time>
      </trkpt>
      <trkpt lat="47.97788" lon="-3.709">
        <ele>170.7</ele>
        <time>2020-06-07T15:22:35Z</time>
      </trkpt>
      <trkpt lat="47.97791" lon="-3.70903">
        <ele>170.6</ele>
        <time>2020-06-07T15:22:36Z</time>
      </trkpt>
      <trkpt lat="47.97794" lon="-3.70907">
        <ele>170.6</ele>
        <time>2020-06-07T15:22:37Z</time>
      </trkpt>
      <trkpt lat="47.97797" lon="-3.7091">
        <ele>170.6</ele>
        <time>2020-06-07T15:22:38Z</time>
      </trkpt>
      <trkpt lat="47.97801" lon="-3.70913">
        <ele>170.5</ele>
        <time>2020-06-07T15:22:39Z</time>
      </trkpt>
      <trkpt lat="47.97805" lon="-3.70917">
        <ele>170.5</ele>
        <time>2020-06-07T15:22:40Z</time>
      </trkpt>
      <trkpt lat="47.97809" lon="-3.70921">
        <ele>170.5</ele>
        <time>2020-06-07T15:22:41Z</time>
      </trkpt>
      <trkpt lat="47.97813" lon="-3.70925">
        <ele>170.4</ele>
        <time>2020-06-07T15:22:42Z</time>
      </trkpt>
      <trkpt lat="47.97816" lon="-3.70929">
        <ele>170.4</ele>
        <time>2020-06-07T15:22:43Z</time>
      </trkpt>
      <trkpt lat="47.9782" lon="-3.70933">
        <ele>170.4</ele>
        <time>2020-06-07T15:22:44Z</time>
      </trkpt>
      <trkpt lat="47.97824" lon="-3.70938">
        <ele>170.4</ele>
        <time>2020-06-07T15:22:45Z</time>
      </trkpt>
      <trkpt lat="47.97828" lon="-3.70943">
        <ele>170.4</ele>
        <time>2020-06-07T15:22:46Z</time>
      </trkpt>
      <trkpt lat="47.97833" lon="-3.70948">
        <ele>170.4</ele>
        <time>2020-06-07T15:22:47Z</time>
      </trkpt>
      <trkpt lat="47.97837" lon="-3.70953">
        <ele>170.5</ele>
        <time>2020-06-07T15:22:48Z</time>
      </trkpt>
      <trkpt lat="47.9784" lon="-3.70958">
        <ele>170.5</ele>
        <time>2020-06-07T15:22:49Z</time>
      </trkpt>
      <trkpt lat="47.97844" lon="-3.70963">
        <ele>170.6</ele>
        <time>2020-06-07T15:22:50Z</time>
      </trkpt>
      <trkpt lat="47.97848" lon="-3.70968">
        <ele>170.6</ele>
        <time>2020-06-07T15:22:51Z</time>
      </trkpt>
      <trkpt lat="47.97851" lon="-3.70972">
        <ele>170.6</ele>
        <time>2020-06-07T15:22:52Z</time>
      </trkpt>
      <trkpt lat="47.97855" lon="-3.70976">
        <ele>170.7</ele>
        <time>2020-06-07T15:22:53Z</time>
      </trkpt>
      <trkpt lat="47.97859" lon="-3.70981">
        <ele>170.7</ele>
        <time>2020-06-07T15:22:54Z</time>
      </trkpt>
      <trkpt lat="47.97863" lon="-3.70985">
        <ele>170.8</ele>
        <time>2020-06-07T15:22:55Z</time>
      </trkpt>
      <trkpt lat="47.97867" lon="-3.7099">
        <ele>170.9</ele>
        <time>2020-06-07T15:22:56Z</time>
      </trkpt>
      <trkpt lat="47.9787" lon="-3.70994">
        <ele>170.9</ele>
        <time>2020-06-07T15:22:57Z</time>
      </trkpt>
      <trkpt lat="47.97873" lon="-3.70998">
        <ele>171</ele>
        <time>2020-06-07T15:22:58Z</time>
      </trkpt>
      <trkpt lat="47.97876" lon="-3.71002">
        <ele>171</ele>
        <time>2020-06-07T15:22:59Z</time>
      </trkpt>
      <trkpt lat="47.97879" lon="-3.71006">
        <ele>171.1</ele>
        <time>2020-06-07T15:23:00Z</time>
      </trkpt>
      <trkpt lat="47.97882" lon="-3.71009">
        <ele>171.1</ele>
        <time>2020-06-07T15:23:01Z</time>
      </trkpt>
      <trkpt lat="47.97885" lon="-3.71013">
        <ele>171.2</ele>
        <time>2020-06-07T15:23:02Z</time>
      </trkpt>
      <trkpt lat="47.97888" lon="-3.71017">
        <ele>171.3</ele>
        <time>2020-06-07T15:23:03Z</time>
      </trkpt>
      <trkpt lat="47.97892" lon="-3.7102">
        <ele>171.4</ele>
        <time>2020-06-07T15:23:04Z</time>
      </trkpt>
      <trkpt lat="47.97895" lon="-3.71025">
        <ele>171.5</ele>
        <time>2020-06-07T15:23:05Z</time>
      </trkpt>
      <trkpt lat="47.97898" lon="-3.71028">
        <ele>171.5</ele>
        <time>2020-06-07T15:23:06Z</time>
      </trkpt>
      <trkpt lat="47.979" lon="-3.71031">
        <ele>171.6</ele>
        <time>2020-06-07T15:23:07Z</time>
      </trkpt>
      <trkpt lat="47.97904" lon="-3.71035">
        <ele>171.7</ele>
        <time>2020-06-07T15:23:08Z</time>
      </trkpt>
      <trkpt lat="47.97907" lon="-3.71038">
        <ele>171.8</ele>
        <time>2020-06-07T15:23:09Z</time>
      </trkpt>
      <trkpt lat="47.9791" lon="-3.71042">
        <ele>171.9</ele>
        <time>2020-06-07T15:23:10Z</time>
      </trkpt>
      <trkpt lat="47.97913" lon="-3.71046">
        <ele>171.9</ele>
        <time>2020-06-07T15:23:11Z</time>
      </trkpt>
      <trkpt lat="47.97915" lon="-3.71049">
        <ele>172</ele>
        <time>2020-06-07T15:23:12Z</time>
      </trkpt>
      <trkpt lat="47.97918" lon="-3.71053">
        <ele>172.1</ele>
        <time>2020-06-07T15:23:13Z</time>
      </trkpt>
      <trkpt lat="47.97921" lon="-3.71056">
        <ele>172.2</ele>
        <time>2020-06-07T15:23:14Z</time>
      </trkpt>
      <trkpt lat="47.97924" lon="-3.7106">
        <ele>172.3</ele>
        <time>2020-06-07T15:23:15Z</time>
      </trkpt>
      <trkpt lat="47.97929" lon="-3.71064">
        <ele>172.4</ele>
        <time>2020-06-07T15:23:16Z</time>
      </trkpt>
      <trkpt lat="47.97933" lon="-3.71068">
        <ele>172.5</ele>
        <time>2020-06-07T15:23:17Z</time>
      </trkpt>
      <trkpt lat="47.97937" lon="-3.71073">
        <ele>172.6</ele>
        <time>2020-06-07T15:23:18Z</time>
      </trkpt>
      <trkpt lat="47.9794" lon="-3.71076">
        <ele>172.7</ele>
        <time>2020-06-07T15:23:19Z</time>
      </trkpt>
      <trkpt lat="47.97945" lon="-3.7108">
        <ele>172.9</ele>
        <time>2020-06-07T15:23:20Z</time>
      </trkpt>
      <trkpt lat="47.97948" lon="-3.71083">
        <ele>173.2</ele>
        <time>2020-06-07T15:23:21Z</time>
      </trkpt>
      <trkpt lat="47.97953" lon="-3.71085">
        <ele>173.4</ele>
        <time>2020-06-07T15:23:22Z</time>
      </trkpt>
      <trkpt lat="47.97956" lon="-3.71089">
        <ele>173.5</ele>
        <time>2020-06-07T15:23:23Z</time>
      </trkpt>
      <trkpt lat="47.97959" lon="-3.71093">
        <ele>173.7</ele>
        <time>2020-06-07T15:23:24Z</time>
      </trkpt>
      <trkpt lat="47.97961" lon="-3.71097">
        <ele>173.8</ele>
        <time>2020-06-07T15:23:25Z</time>
      </trkpt>
      <trkpt lat="47.97965" lon="-3.711">
        <ele>173.9</ele>
        <time>2020-06-07T15:23:26Z</time>
      </trkpt>
      <trkpt lat="47.97968" lon="-3.71104">
        <ele>174.1</ele>
        <time>2020-06-07T15:23:27Z</time>
      </trkpt>
      <trkpt lat="47.97973" lon="-3.71107">
        <ele>174.2</ele>
        <time>2020-06-07T15:23:28Z</time>
      </trkpt>
      <trkpt lat="47.97976" lon="-3.71108">
        <ele>174.2</ele>
        <time>2020-06-07T15:23:29Z</time>
      </trkpt>
      <trkpt lat="47.9798" lon="-3.71109">
        <ele>174.3</ele>
        <time>2020-06-07T15:23:30Z</time>
      </trkpt>
      <trkpt lat="47.97984" lon="-3.71112">
        <ele>174.4</ele>
        <time>2020-06-07T15:23:31Z</time>
      </trkpt>
      <trkpt lat="47.97988" lon="-3.71114">
        <ele>174.4</ele>
        <time>2020-06-07T15:23:32Z</time>
      </trkpt>
      <trkpt lat="47.97992" lon="-3.71117">
        <ele>174.5</ele>
        <time>2020-06-07T15:23:33Z</time>
      </trkpt>
      <trkpt lat="47.97995" lon="-3.7112">
        <ele>174.5</ele>
        <time>2020-06-07T15:23:34Z</time>
      </trkpt>
      <trkpt lat="47.97999" lon="-3.71122">
        <ele>174.6</ele>
        <time>2020-06-07T15:23:35Z</time>
      </trkpt>
      <trkpt lat="47.98002" lon="-3.71123">
        <ele>174.6</ele>
        <time>2020-06-07T15:23:36Z</time>
      </trkpt>
      <trkpt lat="47.98005" lon="-3.71124">
        <ele>174.6</ele>
        <time>2020-06-07T15:23:37Z</time>
      </trkpt>
      <trkpt lat="47.98009" lon="-3.71126">
        <ele>174.7</ele>
        <time>2020-06-07T15:23:38Z</time>
      </trkpt>
      <trkpt lat="47.98013" lon="-3.71127">
        <ele>174.7</ele>
        <time>2020-06-07T15:23:39Z</time>
      </trkpt>
      <trkpt lat="47.98019" lon="-3.71127">
        <ele>174.7</ele>
        <time>2020-06-07T15:23:40Z</time>
      </trkpt>
      <trkpt lat="47.98023" lon="-3.71129">
        <ele>174.7</ele>
        <time>2020-06-07T15:23:41Z</time>
      </trkpt>
      <trkpt lat="47.98027" lon="-3.71131">
        <ele>174.7</ele>
        <time>2020-06-07T15:23:42Z</time>
      </trkpt>
      <trkpt lat="47.98031" lon="-3.71134">
        <ele>174.7</ele>
        <time>2020-06-07T15:23:43Z</time>
      </trkpt>
      <trkpt lat="47.98036" lon="-3.71135">
        <ele>174.7</ele>
        <time>2020-06-07T15:23:44Z</time>
      </trkpt>
      <trkpt lat="47.9804" lon="-3.71137">
        <ele>174.7</ele>
        <time>2020-06-07T15:23:45Z</time>
      </trkpt>
      <trkpt lat="47.98043" lon="-3.71139">
        <ele>174.7</ele>
        <time>2020-06-07T15:23:46Z</time>
      </trkpt>
      <trkpt lat="47.98047" lon="-3.71141">
        <ele>174.6</ele>
        <time>2020-06-07T15:23:47Z</time>
      </trkpt>
      <trkpt lat="47.9805" lon="-3.71144">
        <ele>174.6</ele>
        <time>2020-06-07T15:23:48Z</time>
      </trkpt>
      <trkpt lat="47.98055" lon="-3.71145">
        <ele>174.6</ele>
        <time>2020-06-07T15:23:49Z</time>
      </trkpt>
      <trkpt lat="47.98059" lon="-3.71146">
        <ele>174.6</ele>
        <time>2020-06-07T15:23:50Z</time>
      </trkpt>
      <trkpt lat="47.98064" lon="-3.71148">
        <ele>174.5</ele>
        <time>2020-06-07T15:23:51Z</time>
      </trkpt>
      <trkpt lat="47.98068" lon="-3.71148">
        <ele>174.5</ele>
        <time>2020-06-07T15:23:52Z</time>
      </trkpt>
      <trkpt lat="47.98072" lon="-3.71149">
        <ele>174.5</ele>
        <time>2020-06-07T15:23:53Z</time>
      </trkpt>
      <trkpt lat="47.98077" lon="-3.7115">
        <ele>174.4</ele>
        <time>2020-06-07T15:23:54Z</time>
      </trkpt>
      <trkpt lat="47.98081" lon="-3.71152">
        <ele>174.4</ele>
        <time>2020-06-07T15:23:55Z</time>
      </trkpt>
      <trkpt lat="47.98086" lon="-3.71153">
        <ele>174.3</ele>
        <time>2020-06-07T15:23:56Z</time>
      </trkpt>
      <trkpt lat="47.9809" lon="-3.71154">
        <ele>174.3</ele>
        <time>2020-06-07T15:23:57Z</time>
      </trkpt>
      <trkpt lat="47.98095" lon="-3.71155">
        <ele>174.2</ele>
        <time>2020-06-07T15:23:58Z</time>
      </trkpt>
      <trkpt lat="47.98101" lon="-3.71157">
        <ele>174.1</ele>
        <time>2020-06-07T15:23:59Z</time>
      </trkpt>
      <trkpt lat="47.98106" lon="-3.71158">
        <ele>174</ele>
        <time>2020-06-07T15:24:00Z</time>
      </trkpt>
      <trkpt lat="47.9811" lon="-3.7116">
        <ele>173.9</ele>
        <time>2020-06-07T15:24:01Z</time>
      </trkpt>
      <trkpt lat="47.98115" lon="-3.7116">
        <ele>173.8</ele>
        <time>2020-06-07T15:24:02Z</time>
      </trkpt>
      <trkpt lat="47.9812" lon="-3.71162">
        <ele>173.7</ele>
        <time>2020-06-07T15:24:03Z</time>
      </trkpt>
      <trkpt lat="47.98126" lon="-3.71164">
        <ele>173.5</ele>
        <time>2020-06-07T15:24:04Z</time>
      </trkpt>
      <trkpt lat="47.98131" lon="-3.71165">
        <ele>173.4</ele>
        <time>2020-06-07T15:24:05Z</time>
      </trkpt>
      <trkpt lat="47.98136" lon="-3.71167">
        <ele>173.2</ele>
        <time>2020-06-07T15:24:06Z</time>
      </trkpt>
      <trkpt lat="47.98141" lon="-3.71169">
        <ele>173</ele>
        <time>2020-06-07T15:24:07Z</time>
      </trkpt>
      <trkpt lat="47.98145" lon="-3.71172">
        <ele>172.9</ele>
        <time>2020-06-07T15:24:08Z</time>
      </trkpt>
      <trkpt lat="47.9815" lon="-3.71174">
        <ele>172.7</ele>
        <time>2020-06-07T15:24:09Z</time>
      </trkpt>
      <trkpt lat="47.98155" lon="-3.71176">
        <ele>172.5</ele>
        <time>2020-06-07T15:24:10Z</time>
      </trkpt>
      <trkpt lat="47.9816" lon="-3.71177">
        <ele>172.3</ele>
        <time>2020-06-07T15:24:11Z</time>
      </trkpt>
      <trkpt lat="47.98166" lon="-3.71179">
        <ele>172</ele>
        <time>2020-06-07T15:24:12Z</time>
      </trkpt>
      <trkpt lat="47.98172" lon="-3.71181">
        <ele>171.8</ele>
        <time>2020-06-07T15:24:13Z</time>
      </trkpt>
      <trkpt lat="47.98178" lon="-3.71183">
        <ele>171.6</ele>
        <time>2020-06-07T15:24:14Z</time>
      </trkpt>
      <trkpt lat="47.98184" lon="-3.71186">
        <ele>171.3</ele>
        <time>2020-06-07T15:24:15Z</time>
      </trkpt>
      <trkpt lat="47.9819" lon="-3.71188">
        <ele>171</ele>
        <time>2020-06-07T15:24:16Z</time>
      </trkpt>
      <trkpt lat="47.98196" lon="-3.7119">
        <ele>170.8</ele>
        <time>2020-06-07T15:24:17Z</time>
      </trkpt>
      <trkpt lat="47.98203" lon="-3.71192">
        <ele>170.4</ele>
        <time>2020-06-07T15:24:18Z</time>
      </trkpt>
      <trkpt lat="47.98211" lon="-3.71195">
        <ele>170</ele>
        <time>2020-06-07T15:24:19Z</time>
      </trkpt>
      <trkpt lat="47.98218" lon="-3.71199">
        <ele>169.6</ele>
        <time>2020-06-07T15:24:20Z</time>
      </trkpt>
      <trkpt lat="47.98225" lon="-3.71203">
        <ele>169.2</ele>
        <time>2020-06-07T15:24:21Z</time>
      </trkpt>
      <trkpt lat="47.98232" lon="-3.71208">
        <ele>168.8</ele>
        <time>2020-06-07T15:24:22Z</time>
      </trkpt>
      <trkpt lat="47.9824" lon="-3.71212">
        <ele>168.4</ele>
        <time>2020-06-07T15:24:23Z</time>
      </trkpt>
      <trkpt lat="47.98246" lon="-3.71216">
        <ele>168</ele>
        <time>2020-06-07T15:24:24Z</time>
      </trkpt>
      <trkpt lat="47.98253" lon="-3.71221">
        <ele>167.5</ele>
        <time>2020-06-07T15:24:25Z</time>
      </trkpt>
      <trkpt lat="47.98261" lon="-3.71225">
        <ele>166.9</ele>
        <time>2020-06-07T15:24:26Z</time>
      </trkpt>
      <trkpt lat="47.98267" lon="-3.7123">
        <ele>166.4</ele>
        <time>2020-06-07T15:24:27Z</time>
      </trkpt>
      <trkpt lat="47.98274" lon="-3.71235">
        <ele>165.8</ele>
        <time>2020-06-07T15:24:28Z</time>
      </trkpt>
      <trkpt lat="47.98282" lon="-3.7124">
        <ele>165.3</ele>
        <time>2020-06-07T15:24:29Z</time>
      </trkpt>
      <trkpt lat="47.98289" lon="-3.71245">
        <ele>164.8</ele>
        <time>2020-06-07T15:24:30Z</time>
      </trkpt>
      <trkpt lat="47.98296" lon="-3.7125">
        <ele>164.3</ele>
        <time>2020-06-07T15:24:31Z</time>
      </trkpt>
      <trkpt lat="47.98303" lon="-3.71255">
        <ele>163.9</ele>
        <time>2020-06-07T15:24:32Z</time>
      </trkpt>
      <trkpt lat="47.9831" lon="-3.71261">
        <ele>163.4</ele>
        <time>2020-06-07T15:24:33Z</time>
      </trkpt>
      <trkpt lat="47.98317" lon="-3.71266">
        <ele>162.9</ele>
        <time>2020-06-07T15:24:34Z</time>
      </trkpt>
      <trkpt lat="47.98324" lon="-3.71272">
        <ele>162.4</ele>
        <time>2020-06-07T15:24:35Z</time>
      </trkpt>
      <trkpt lat="47.9833" lon="-3.71278">
        <ele>161.9</ele>
        <time>2020-06-07T15:24:36Z</time>
      </trkpt>
      <trkpt lat="47.98336" lon="-3.71283">
        <ele>161.5</ele>
        <time>2020-06-07T15:24:37Z</time>
      </trkpt>
      <trkpt lat="47.98342" lon="-3.71289">
        <ele>161</ele>
        <time>2020-06-07T15:24:38Z</time>
      </trkpt>
      <trkpt lat="47.98349" lon="-3.71295">
        <ele>160.6</ele>
        <time>2020-06-07T15:24:39Z</time>
      </trkpt>
      <trkpt lat="47.98356" lon="-3.71301">
        <ele>160.1</ele>
        <time>2020-06-07T15:24:40Z</time>
      </trkpt>
      <trkpt lat="47.98362" lon="-3.71308">
        <ele>159.7</ele>
        <time>2020-06-07T15:24:41Z</time>
      </trkpt>
      <trkpt lat="47.98369" lon="-3.71314">
        <ele>159.3</ele>
        <time>2020-06-07T15:24:42Z</time>
      </trkpt>
      <trkpt lat="47.98375" lon="-3.7132">
        <ele>159</ele>
        <time>2020-06-07T15:24:43Z</time>
      </trkpt>
      <trkpt lat="47.98381" lon="-3.71327">
        <ele>158.7</ele>
        <time>2020-06-07T15:24:44Z</time>
      </trkpt>
      <trkpt lat="47.98387" lon="-3.71334">
        <ele>158.4</ele>
        <time>2020-06-07T15:24:45Z</time>
      </trkpt>
      <trkpt lat="47.98393" lon="-3.71341">
        <ele>158.2</ele>
        <time>2020-06-07T15:24:46Z</time>
      </trkpt>
      <trkpt lat="47.98399" lon="-3.71347">
        <ele>158.1</ele>
        <time>2020-06-07T15:24:47Z</time>
      </trkpt>
      <trkpt lat="47.98404" lon="-3.71354">
        <ele>157.9</ele>
        <time>2020-06-07T15:24:48Z</time>
      </trkpt>
      <trkpt lat="47.9841" lon="-3.7136">
        <ele>157.8</ele>
        <time>2020-06-07T15:24:49Z</time>
      </trkpt>
      <trkpt lat="47.98415" lon="-3.71366">
        <ele>157.7</ele>
        <time>2020-06-07T15:24:50Z</time>
      </trkpt>
      <trkpt lat="47.98421" lon="-3.71373">
        <ele>157.5</ele>
        <time>2020-06-07T15:24:51Z</time>
      </trkpt>
      <trkpt lat="47.98426" lon="-3.71379">
        <ele>157.4</ele>
        <time>2020-06-07T15:24:52Z</time>
      </trkpt>
      <trkpt lat="47.98431" lon="-3.71386">
        <ele>157.3</ele>
        <time>2020-06-07T15:24:53Z</time>
      </trkpt>
      <trkpt lat="47.98437" lon="-3.71392">
        <ele>157.3</ele>
        <time>2020-06-07T15:24:54Z</time>
      </trkpt>
      <trkpt lat="47.98442" lon="-3.71399">
        <ele>157.2</ele>
        <time>2020-06-07T15:24:55Z</time>
      </trkpt>
      <trkpt lat="47.98448" lon="-3.71406">
        <ele>157.2</ele>
        <time>2020-06-07T15:24:56Z</time>
      </trkpt>
      <trkpt lat="47.98454" lon="-3.71414">
        <ele>157.1</ele>
        <time>2020-06-07T15:24:57Z</time>
      </trkpt>
      <trkpt lat="47.9846" lon="-3.7142">
        <ele>157.1</ele>
        <time>2020-06-07T15:24:58Z</time>
      </trkpt>
      <trkpt lat="47.98466" lon="-3.71427">
        <ele>157.1</ele>
        <time>2020-06-07T15:24:59Z</time>
      </trkpt>
      <trkpt lat="47.98471" lon="-3.71434">
        <ele>157.1</ele>
        <time>2020-06-07T15:25:00Z</time>
      </trkpt>
      <trkpt lat="47.98476" lon="-3.71442">
        <ele>157.1</ele>
        <time>2020-06-07T15:25:01Z</time>
      </trkpt>
      <trkpt lat="47.98482" lon="-3.71449">
        <ele>157.2</ele>
        <time>2020-06-07T15:25:02Z</time>
      </trkpt>
      <trkpt lat="47.98487" lon="-3.71457">
        <ele>157.2</ele>
        <time>2020-06-07T15:25:03Z</time>
      </trkpt>
      <trkpt lat="47.98492" lon="-3.71464">
        <ele>157.3</ele>
        <time>2020-06-07T15:25:04Z</time>
      </trkpt>
      <trkpt lat="47.98498" lon="-3.7147">
        <ele>157.3</ele>
        <time>2020-06-07T15:25:05Z</time>
      </trkpt>
      <trkpt lat="47.98504" lon="-3.71476">
        <ele>157.4</ele>
        <time>2020-06-07T15:25:06Z</time>
      </trkpt>
      <trkpt lat="47.98509" lon="-3.71484">
        <ele>157.5</ele>
        <time>2020-06-07T15:25:07Z</time>
      </trkpt>
      <trkpt lat="47.98514" lon="-3.71491">
        <ele>157.6</ele>
        <time>2020-06-07T15:25:08Z</time>
      </trkpt>
      <trkpt lat="47.98519" lon="-3.71497">
        <ele>157.6</ele>
        <time>2020-06-07T15:25:09Z</time>
      </trkpt>
      <trkpt lat="47.98524" lon="-3.71503">
        <ele>157.8</ele>
        <time>2020-06-07T15:25:10Z</time>
      </trkpt>
      <trkpt lat="47.98529" lon="-3.71508">
        <ele>157.9</ele>
        <time>2020-06-07T15:25:11Z</time>
      </trkpt>
      <trkpt lat="47.98534" lon="-3.71513">
        <ele>158.1</ele>
        <time>2020-06-07T15:25:12Z</time>
      </trkpt>
      <trkpt lat="47.98539" lon="-3.71519">
        <ele>158.2</ele>
        <time>2020-06-07T15:25:13Z</time>
      </trkpt>
      <trkpt lat="47.98544" lon="-3.71524">
        <ele>158.4</ele>
        <time>2020-06-07T15:25:14Z</time>
      </trkpt>
      <trkpt lat="47.98548" lon="-3.71528">
        <ele>158.5</ele>
        <time>2020-06-07T15:25:15Z</time>
      </trkpt>
      <trkpt lat="47.98553" lon="-3.71532">
        <ele>158.7</ele>
        <time>2020-06-07T15:25:16Z</time>
      </trkpt>
      <trkpt lat="47.98557" lon="-3.71535">
        <ele>158.9</ele>
        <time>2020-06-07T15:25:17Z</time>
      </trkpt>
      <trkpt lat="47.98561" lon="-3.71539">
        <ele>159</ele>
        <time>2020-06-07T15:25:18Z</time>
      </trkpt>
      <trkpt lat="47.98565" lon="-3.71542">
        <ele>159.2</ele>
        <time>2020-06-07T15:25:19Z</time>
      </trkpt>
      <trkpt lat="47.98569" lon="-3.71545">
        <ele>159.4</ele>
        <time>2020-06-07T15:25:20Z</time>
      </trkpt>
      <trkpt lat="47.98574" lon="-3.7155">
        <ele>159.7</ele>
        <time>2020-06-07T15:25:21Z</time>
      </trkpt>
      <trkpt lat="47.98578" lon="-3.71554">
        <ele>159.9</ele>
        <time>2020-06-07T15:25:22Z</time>
      </trkpt>
      <trkpt lat="47.98582" lon="-3.71559">
        <ele>160.2</ele>
        <time>2020-06-07T15:25:23Z</time>
      </trkpt>
      <trkpt lat="47.98587" lon="-3.71563">
        <ele>160.5</ele>
        <time>2020-06-07T15:25:24Z</time>
      </trkpt>
      <trkpt lat="47.98591" lon="-3.71566">
        <ele>160.7</ele>
        <time>2020-06-07T15:25:25Z</time>
      </trkpt>
      <trkpt lat="47.98595" lon="-3.71569">
        <ele>160.9</ele>
        <time>2020-06-07T15:25:26Z</time>
      </trkpt>
      <trkpt lat="47.98599" lon="-3.71572">
        <ele>161.1</ele>
        <time>2020-06-07T15:25:27Z</time>
      </trkpt>
      <trkpt lat="47.98603" lon="-3.71575">
        <ele>161.3</ele>
        <time>2020-06-07T15:25:28Z</time>
      </trkpt>
      <trkpt lat="47.98606" lon="-3.71578">
        <ele>161.5</ele>
        <time>2020-06-07T15:25:29Z</time>
      </trkpt>
      <trkpt lat="47.9861" lon="-3.71582">
        <ele>161.7</ele>
        <time>2020-06-07T15:25:30Z</time>
      </trkpt>
      <trkpt lat="47.98614" lon="-3.71585">
        <ele>161.9</ele>
        <time>2020-06-07T15:25:31Z</time>
      </trkpt>
      <trkpt lat="47.98617" lon="-3.71588">
        <ele>162.1</ele>
        <time>2020-06-07T15:25:32Z</time>
      </trkpt>
      <trkpt lat="47.9862" lon="-3.71591">
        <ele>162.3</ele>
        <time>2020-06-07T15:25:33Z</time>
      </trkpt>
      <trkpt lat="47.98623" lon="-3.71594">
        <ele>162.5</ele>
        <time>2020-06-07T15:25:34Z</time>
      </trkpt>
      <trkpt lat="47.98626" lon="-3.71598">
        <ele>162.7</ele>
        <time>2020-06-07T15:25:35Z</time>
      </trkpt>
      <trkpt lat="47.9863" lon="-3.716">
        <ele>162.9</ele>
        <time>2020-06-07T15:25:36Z</time>
      </trkpt>
      <trkpt lat="47.98634" lon="-3.71603">
        <ele>163.1</ele>
        <time>2020-06-07T15:25:37Z</time>
      </trkpt>
      <trkpt lat="47.98637" lon="-3.71606">
        <ele>163.3</ele>
        <time>2020-06-07T15:25:38Z</time>
      </trkpt>
      <trkpt lat="47.9864" lon="-3.7161">
        <ele>163.5</ele>
        <time>2020-06-07T15:25:39Z</time>
      </trkpt>
      <trkpt lat="47.98643" lon="-3.71613">
        <ele>163.8</ele>
        <time>2020-06-07T15:25:40Z</time>
      </trkpt>
      <trkpt lat="47.98647" lon="-3.71617">
        <ele>164</ele>
        <time>2020-06-07T15:25:41Z</time>
      </trkpt>
      <trkpt lat="47.98651" lon="-3.7162">
        <ele>164.2</ele>
        <time>2020-06-07T15:25:42Z</time>
      </trkpt>
      <trkpt lat="47.98654" lon="-3.71624">
        <ele>164.4</ele>
        <time>2020-06-07T15:25:43Z</time>
      </trkpt>
      <trkpt lat="47.98658" lon="-3.71627">
        <ele>164.6</ele>
        <time>2020-06-07T15:25:44Z</time>
      </trkpt>
      <trkpt lat="47.98661" lon="-3.71631">
        <ele>164.8</ele>
        <time>2020-06-07T15:25:45Z</time>
      </trkpt>
      <trkpt lat="47.98665" lon="-3.71634">
        <ele>164.9</ele>
        <time>2020-06-07T15:25:46Z</time>
      </trkpt>
      <trkpt lat="47.98669" lon="-3.71637">
        <ele>165.1</ele>
        <time>2020-06-07T15:25:47Z</time>
      </trkpt>
      <trkpt lat="47.98672" lon="-3.71641">
        <ele>165.2</ele>
        <time>2020-06-07T15:25:48Z</time>
      </trkpt>
      <trkpt lat="47.98675" lon="-3.71644">
        <ele>165.4</ele>
        <time>2020-06-07T15:25:49Z</time>
      </trkpt>
      <trkpt lat="47.98679" lon="-3.71648">
        <ele>165.5</ele>
        <time>2020-06-07T15:25:50Z</time>
      </trkpt>
      <trkpt lat="47.98683" lon="-3.71651">
        <ele>165.6</ele>
        <time>2020-06-07T15:25:51Z</time>
      </trkpt>
      <trkpt lat="47.98687" lon="-3.71654">
        <ele>165.6</ele>
        <time>2020-06-07T15:25:52Z</time>
      </trkpt>
      <trkpt lat="47.98692" lon="-3.71656">
        <ele>165.5</ele>
        <time>2020-06-07T15:25:53Z</time>
      </trkpt>
      <trkpt lat="47.98696" lon="-3.71659">
        <ele>165.2</ele>
        <time>2020-06-07T15:25:54Z</time>
      </trkpt>
      <trkpt lat="47.98699" lon="-3.71663">
        <ele>165.4</ele>
        <time>2020-06-07T15:25:55Z</time>
      </trkpt>
      <trkpt lat="47.98703" lon="-3.71667">
        <ele>165.5</ele>
        <time>2020-06-07T15:25:56Z</time>
      </trkpt>
      <trkpt lat="47.98707" lon="-3.71671">
        <ele>165.6</ele>
        <time>2020-06-07T15:25:57Z</time>
      </trkpt>
      <trkpt lat="47.9871" lon="-3.71675">
        <ele>165.7</ele>
        <time>2020-06-07T15:25:58Z</time>
      </trkpt>
      <trkpt lat="47.98713" lon="-3.71678">
        <ele>165.8</ele>
        <time>2020-06-07T15:25:59Z</time>
      </trkpt>
      <trkpt lat="47.98716" lon="-3.71682">
        <ele>165.9</ele>
        <time>2020-06-07T15:26:00Z</time>
      </trkpt>
      <trkpt lat="47.9872" lon="-3.71686">
        <ele>166</ele>
        <time>2020-06-07T15:26:01Z</time>
      </trkpt>
      <trkpt lat="47.98723" lon="-3.71689">
        <ele>166.1</ele>
        <time>2020-06-07T15:26:02Z</time>
      </trkpt>
      <trkpt lat="47.98727" lon="-3.71692">
        <ele>166.2</ele>
        <time>2020-06-07T15:26:03Z</time>
      </trkpt>
      <trkpt lat="47.9873" lon="-3.71695">
        <ele>166.2</ele>
        <time>2020-06-07T15:26:04Z</time>
      </trkpt>
      <trkpt lat="47.98733" lon="-3.71697">
        <ele>166.3</ele>
        <time>2020-06-07T15:26:05Z</time>
      </trkpt>
      <trkpt lat="47.98736" lon="-3.717">
        <ele>166.3</ele>
        <time>2020-06-07T15:26:06Z</time>
      </trkpt>
      <trkpt lat="47.98738" lon="-3.71703">
        <ele>166.4</ele>
        <time>2020-06-07T15:26:07Z</time>
      </trkpt>
      <trkpt lat="47.98741" lon="-3.71705">
        <ele>166.4</ele>
        <time>2020-06-07T15:26:08Z</time>
      </trkpt>
      <trkpt lat="47.98744" lon="-3.71708">
        <ele>166.4</ele>
        <time>2020-06-07T15:26:09Z</time>
      </trkpt>
      <trkpt lat="47.98747" lon="-3.71712">
        <ele>166.5</ele>
        <time>2020-06-07T15:26:10Z</time>
      </trkpt>
      <trkpt lat="47.98751" lon="-3.71715">
        <ele>166.5</ele>
        <time>2020-06-07T15:26:11Z</time>
      </trkpt>
      <trkpt lat="47.98755" lon="-3.71719">
        <ele>166.5</ele>
        <time>2020-06-07T15:26:12Z</time>
      </trkpt>
      <trkpt lat="47.9876" lon="-3.71722">
        <ele>166.6</ele>
        <time>2020-06-07T15:26:13Z</time>
      </trkpt>
      <trkpt lat="47.98764" lon="-3.71726">
        <ele>166.7</ele>
        <time>2020-06-07T15:26:14Z</time>
      </trkpt>
      <trkpt lat="47.98768" lon="-3.7173">
        <ele>166.8</ele>
        <time>2020-06-07T15:26:15Z</time>
      </trkpt>
      <trkpt lat="47.98771" lon="-3.71733">
        <ele>166.9</ele>
        <time>2020-06-07T15:26:16Z</time>
      </trkpt>
      <trkpt lat="47.98774" lon="-3.71736">
        <ele>167</ele>
        <time>2020-06-07T15:26:17Z</time>
      </trkpt>
      <trkpt lat="47.98777" lon="-3.7174">
        <ele>167.1</ele>
        <time>2020-06-07T15:26:18Z</time>
      </trkpt>
      <trkpt lat="47.98781" lon="-3.71742">
        <ele>167.2</ele>
        <time>2020-06-07T15:26:19Z</time>
      </trkpt>
      <trkpt lat="47.98786" lon="-3.71746">
        <ele>167.2</ele>
        <time>2020-06-07T15:26:20Z</time>
      </trkpt>
      <trkpt lat="47.9879" lon="-3.71749">
        <ele>167.3</ele>
        <time>2020-06-07T15:26:21Z</time>
      </trkpt>
      <trkpt lat="47.98794" lon="-3.71753">
        <ele>167.3</ele>
        <time>2020-06-07T15:26:22Z</time>
      </trkpt>
      <trkpt lat="47.98798" lon="-3.71757">
        <ele>167.3</ele>
        <time>2020-06-07T15:26:23Z</time>
      </trkpt>
      <trkpt lat="47.98804" lon="-3.71762">
        <ele>167.4</ele>
        <time>2020-06-07T15:26:24Z</time>
      </trkpt>
      <trkpt lat="47.98808" lon="-3.71764">
        <ele>167.4</ele>
        <time>2020-06-07T15:26:25Z</time>
      </trkpt>
      <trkpt lat="47.98812" lon="-3.71768">
        <ele>167.5</ele>
        <time>2020-06-07T15:26:26Z</time>
      </trkpt>
      <trkpt lat="47.98815" lon="-3.71773">
        <ele>167.5</ele>
        <time>2020-06-07T15:26:27Z</time>
      </trkpt>
      <trkpt lat="47.98818" lon="-3.71775">
        <ele>167.6</ele>
        <time>2020-06-07T15:26:28Z</time>
      </trkpt>
      <trkpt lat="47.98821" lon="-3.71777">
        <ele>167.7</ele>
        <time>2020-06-07T15:26:29Z</time>
      </trkpt>
      <trkpt lat="47.98825" lon="-3.71781">
        <ele>167.7</ele>
        <time>2020-06-07T15:26:30Z</time>
      </trkpt>
      <trkpt lat="47.98829" lon="-3.71784">
        <ele>167.8</ele>
        <time>2020-06-07T15:26:31Z</time>
      </trkpt>
      <trkpt lat="47.98833" lon="-3.71788">
        <ele>167.9</ele>
        <time>2020-06-07T15:26:32Z</time>
      </trkpt>
      <trkpt lat="47.98837" lon="-3.71791">
        <ele>168</ele>
        <time>2020-06-07T15:26:33Z</time>
      </trkpt>
      <trkpt lat="47.9884" lon="-3.71793">
        <ele>168.1</ele>
        <time>2020-06-07T15:26:34Z</time>
      </trkpt>
      <trkpt lat="47.98843" lon="-3.71796">
        <ele>168.2</ele>
        <time>2020-06-07T15:26:35Z</time>
      </trkpt>
      <trkpt lat="47.98845" lon="-3.71798">
        <ele>168.2</ele>
        <time>2020-06-07T15:26:36Z</time>
      </trkpt>
      <trkpt lat="47.98849" lon="-3.718">
        <ele>168.3</ele>
        <time>2020-06-07T15:26:37Z</time>
      </trkpt>
      <trkpt lat="47.98853" lon="-3.71804">
        <ele>168.4</ele>
        <time>2020-06-07T15:26:38Z</time>
      </trkpt>
      <trkpt lat="47.98855" lon="-3.71806">
        <ele>168.4</ele>
        <time>2020-06-07T15:26:39Z</time>
      </trkpt>
      <trkpt lat="47.98858" lon="-3.71809">
        <ele>168.5</ele>
        <time>2020-06-07T15:26:40Z</time>
      </trkpt>
      <trkpt lat="47.98862" lon="-3.71813">
        <ele>168.6</ele>
        <time>2020-06-07T15:26:41Z</time>
      </trkpt>
      <trkpt lat="47.98865" lon="-3.71816">
        <ele>168.6</ele>
        <time>2020-06-07T15:26:42Z</time>
      </trkpt>
      <trkpt lat="47.9887" lon="-3.71819">
        <ele>168.7</ele>
        <time>2020-06-07T15:26:43Z</time>
      </trkpt>
      <trkpt lat="47.98874" lon="-3.71823">
        <ele>168.7</ele>
        <time>2020-06-07T15:26:44Z</time>
      </trkpt>
      <trkpt lat="47.98877" lon="-3.71827">
        <ele>168.8</ele>
        <time>2020-06-07T15:26:45Z</time>
      </trkpt>
      <trkpt lat="47.9888" lon="-3.71829">
        <ele>168.9</ele>
        <time>2020-06-07T15:26:46Z</time>
      </trkpt>
      <trkpt lat="47.98883" lon="-3.71832">
        <ele>168.9</ele>
        <time>2020-06-07T15:26:47Z</time>
      </trkpt>
      <trkpt lat="47.98888" lon="-3.71835">
        <ele>169.1</ele>
        <time>2020-06-07T15:26:48Z</time>
      </trkpt>
      <trkpt lat="47.98892" lon="-3.71839">
        <ele>169.3</ele>
        <time>2020-06-07T15:26:49Z</time>
      </trkpt>
      <trkpt lat="47.98896" lon="-3.71843">
        <ele>169.4</ele>
        <time>2020-06-07T15:26:50Z</time>
      </trkpt>
      <trkpt lat="47.98899" lon="-3.71844">
        <ele>169.6</ele>
        <time>2020-06-07T15:26:51Z</time>
      </trkpt>
      <trkpt lat="47.98903" lon="-3.71846">
        <ele>169.7</ele>
        <time>2020-06-07T15:26:52Z</time>
      </trkpt>
      <trkpt lat="47.98907" lon="-3.71849">
        <ele>169.8</ele>
        <time>2020-06-07T15:26:53Z</time>
      </trkpt>
      <trkpt lat="47.98909" lon="-3.71852">
        <ele>169.8</ele>
        <time>2020-06-07T15:26:54Z</time>
      </trkpt>
      <trkpt lat="47.98913" lon="-3.71855">
        <ele>169.9</ele>
        <time>2020-06-07T15:26:55Z</time>
      </trkpt>
      <trkpt lat="47.98916" lon="-3.71857">
        <ele>170</ele>
        <time>2020-06-07T15:26:56Z</time>
      </trkpt>
      <trkpt lat="47.9892" lon="-3.7186">
        <ele>170.2</ele>
        <time>2020-06-07T15:26:57Z</time>
      </trkpt>
      <trkpt lat="47.98924" lon="-3.71863">
        <ele>170.3</ele>
        <time>2020-06-07T15:26:58Z</time>
      </trkpt>
      <trkpt lat="47.98928" lon="-3.71865">
        <ele>170.4</ele>
        <time>2020-06-07T15:26:59Z</time>
      </trkpt>
      <trkpt lat="47.98931" lon="-3.71868">
        <ele>170.5</ele>
        <time>2020-06-07T15:27:00Z</time>
      </trkpt>
      <trkpt lat="47.98934" lon="-3.71871">
        <ele>170.5</ele>
        <time>2020-06-07T15:27:01Z</time>
      </trkpt>
      <trkpt lat="47.98937" lon="-3.71874">
        <ele>170.6</ele>
        <time>2020-06-07T15:27:02Z</time>
      </trkpt>
      <trkpt lat="47.9894" lon="-3.71875">
        <ele>170.7</ele>
        <time>2020-06-07T15:27:03Z</time>
      </trkpt>
      <trkpt lat="47.98944" lon="-3.71877">
        <ele>170.8</ele>
        <time>2020-06-07T15:27:04Z</time>
      </trkpt>
      <trkpt lat="47.98948" lon="-3.71878">
        <ele>170.9</ele>
        <time>2020-06-07T15:27:05Z</time>
      </trkpt>
      <trkpt lat="47.98952" lon="-3.71881">
        <ele>171</ele>
        <time>2020-06-07T15:27:06Z</time>
      </trkpt>
      <trkpt lat="47.98955" lon="-3.71883">
        <ele>171</ele>
        <time>2020-06-07T15:27:07Z</time>
      </trkpt>
      <trkpt lat="47.98959" lon="-3.71886">
        <ele>171.1</ele>
        <time>2020-06-07T15:27:08Z</time>
      </trkpt>
      <trkpt lat="47.98963" lon="-3.71888">
        <ele>171.2</ele>
        <time>2020-06-07T15:27:09Z</time>
      </trkpt>
      <trkpt lat="47.98967" lon="-3.7189">
        <ele>171.3</ele>
        <time>2020-06-07T15:27:10Z</time>
      </trkpt>
      <trkpt lat="47.98971" lon="-3.71892">
        <ele>171.4</ele>
        <time>2020-06-07T15:27:11Z</time>
      </trkpt>
      <trkpt lat="47.98975" lon="-3.71894">
        <ele>171.5</ele>
        <time>2020-06-07T15:27:12Z</time>
      </trkpt>
      <trkpt lat="47.9898" lon="-3.71895">
        <ele>171.6</ele>
        <time>2020-06-07T15:27:13Z</time>
      </trkpt>
      <trkpt lat="47.98984" lon="-3.71897">
        <ele>171.7</ele>
        <time>2020-06-07T15:27:14Z</time>
      </trkpt>
      <trkpt lat="47.98988" lon="-3.71899">
        <ele>171.8</ele>
        <time>2020-06-07T15:27:15Z</time>
      </trkpt>
      <trkpt lat="47.98993" lon="-3.719">
        <ele>171.8</ele>
        <time>2020-06-07T15:27:16Z</time>
      </trkpt>
      <trkpt lat="47.98997" lon="-3.71902">
        <ele>171.9</ele>
        <time>2020-06-07T15:27:17Z</time>
      </trkpt>
      <trkpt lat="47.99001" lon="-3.71904">
        <ele>172</ele>
        <time>2020-06-07T15:27:18Z</time>
      </trkpt>
      <trkpt lat="47.99005" lon="-3.71905">
        <ele>172.1</ele>
        <time>2020-06-07T15:27:19Z</time>
      </trkpt>
      <trkpt lat="47.99009" lon="-3.71907">
        <ele>172.1</ele>
        <time>2020-06-07T15:27:20Z</time>
      </trkpt>
      <trkpt lat="47.99013" lon="-3.71907">
        <ele>172.2</ele>
        <time>2020-06-07T15:27:21Z</time>
      </trkpt>
      <trkpt lat="47.99017" lon="-3.71907">
        <ele>172.3</ele>
        <time>2020-06-07T15:27:22Z</time>
      </trkpt>
      <trkpt lat="47.99021" lon="-3.71908">
        <ele>172.4</ele>
        <time>2020-06-07T15:27:23Z</time>
      </trkpt>
      <trkpt lat="47.99025" lon="-3.71909">
        <ele>172.4</ele>
        <time>2020-06-07T15:27:24Z</time>
      </trkpt>
      <trkpt lat="47.99029" lon="-3.71911">
        <ele>172.5</ele>
        <time>2020-06-07T15:27:25Z</time>
      </trkpt>
      <trkpt lat="47.99033" lon="-3.71912">
        <ele>172.6</ele>
        <time>2020-06-07T15:27:26Z</time>
      </trkpt>
      <trkpt lat="47.99037" lon="-3.71912">
        <ele>172.7</ele>
        <time>2020-06-07T15:27:27Z</time>
      </trkpt>
      <trkpt lat="47.9904" lon="-3.71912">
        <ele>172.7</ele>
        <time>2020-06-07T15:27:28Z</time>
      </trkpt>
      <trkpt lat="47.99043" lon="-3.71912">
        <ele>172.8</ele>
        <time>2020-06-07T15:27:29Z</time>
      </trkpt>
      <trkpt lat="47.99047" lon="-3.71912">
        <ele>172.8</ele>
        <time>2020-06-07T15:27:30Z</time>
      </trkpt>
      <trkpt lat="47.9905" lon="-3.71913">
        <ele>172.9</ele>
        <time>2020-06-07T15:27:31Z</time>
      </trkpt>
      <trkpt lat="47.99056" lon="-3.71913">
        <ele>173</ele>
        <time>2020-06-07T15:27:32Z</time>
      </trkpt>
      <trkpt lat="47.99061" lon="-3.71914">
        <ele>173</ele>
        <time>2020-06-07T15:27:33Z</time>
      </trkpt>
      <trkpt lat="47.99065" lon="-3.71913">
        <ele>173.1</ele>
        <time>2020-06-07T15:27:34Z</time>
      </trkpt>
      <trkpt lat="47.99069" lon="-3.71913">
        <ele>173.2</ele>
        <time>2020-06-07T15:27:35Z</time>
      </trkpt>
      <trkpt lat="47.99072" lon="-3.71913">
        <ele>173.2</ele>
        <time>2020-06-07T15:27:36Z</time>
      </trkpt>
      <trkpt lat="47.99075" lon="-3.71913">
        <ele>173.2</ele>
        <time>2020-06-07T15:27:37Z</time>
      </trkpt>
      <trkpt lat="47.99078" lon="-3.71913">
        <ele>173.2</ele>
        <time>2020-06-07T15:27:38Z</time>
      </trkpt>
      <trkpt lat="47.99082" lon="-3.71912">
        <ele>173.3</ele>
        <time>2020-06-07T15:27:39Z</time>
      </trkpt>
      <trkpt lat="47.99084" lon="-3.71912">
        <ele>173.3</ele>
        <time>2020-06-07T15:27:40Z</time>
      </trkpt>
      <trkpt lat="47.99086" lon="-3.71915">
        <ele>173.3</ele>
        <time>2020-06-07T15:27:41Z</time>
      </trkpt>
      <trkpt lat="47.99086" lon="-3.71917">
        <ele>173.3</ele>
        <time>2020-06-07T15:27:42Z</time>
      </trkpt>
      <trkpt lat="47.99085" lon="-3.71921">
        <ele>173.3</ele>
        <time>2020-06-07T15:27:43Z</time>
      </trkpt>
      <trkpt lat="47.99085" lon="-3.71922">
        <ele>173.3</ele>
        <time>2020-06-07T15:27:44Z</time>
      </trkpt>
      <trkpt lat="47.99085" lon="-3.71925">
        <ele>173.3</ele>
        <time>2020-06-07T15:27:45Z</time>
      </trkpt>
      <trkpt lat="47.99085" lon="-3.71925">
        <ele>173.3</ele>
        <time>2020-06-07T15:27:46Z</time>
      </trkpt>
      <trkpt lat="47.99085" lon="-3.71927">
        <ele>173.3</ele>
        <time>2020-06-07T15:27:47Z</time>
      </trkpt>
      <trkpt lat="47.99084" lon="-3.71927">
        <ele>173.3</ele>
        <time>2020-06-07T15:27:48Z</time>
      </trkpt>
      <trkpt lat="47.99084" lon="-3.71928">
        <ele>173.3</ele>
        <time>2020-06-07T15:27:49Z</time>
      </trkpt>
      <trkpt lat="47.99084" lon="-3.71928">
        <ele>173.3</ele>
        <time>2020-06-07T15:27:50Z</time>
      </trkpt>
      <trkpt lat="47.99084" lon="-3.71929">
        <ele>173.3</ele>
        <time>2020-06-07T15:27:51Z</time>
      </trkpt>
      <trkpt lat="47.99083" lon="-3.71929">
        <ele>173.3</ele>
        <time>2020-06-07T15:27:52Z</time>
      </trkpt>
      <trkpt lat="47.99083" lon="-3.71929">
        <ele>173.3</ele>
        <time>2020-06-07T15:27:53Z</time>
      </trkpt>
      <trkpt lat="47.99083" lon="-3.71929">
        <ele>173.3</ele>
        <time>2020-06-07T15:27:54Z</time>
      </trkpt>
      <trkpt lat="47.99083" lon="-3.71929">
        <ele>173.3</ele>
        <time>2020-06-07T15:27:55Z</time>
      </trkpt>
      <trkpt lat="47.99083" lon="-3.71929">
        <ele>173.3</ele>
        <time>2020-06-07T15:27:56Z</time>
      </trkpt>
      <trkpt lat="47.99084" lon="-3.71929">
        <ele>173.3</ele>
        <time>2020-06-07T15:27:57Z</time>
      </trkpt>
      <trkpt lat="47.99084" lon="-3.71928">
        <ele>173.3</ele>
        <time>2020-06-07T15:27:58Z</time>
      </trkpt>
      <trkpt lat="47.99084" lon="-3.71928">
        <ele>173.3</ele>
        <time>2020-06-07T15:27:59Z</time>
      </trkpt>
      <trkpt lat="47.99084" lon="-3.71929">
        <ele>173.3</ele>
        <time>2020-06-07T15:28:00Z</time>
      </trkpt>
      <trkpt lat="47.99084" lon="-3.71929">
        <ele>173.3</ele>
        <time>2020-06-07T15:28:01Z</time>
      </trkpt>
      <trkpt lat="47.99084" lon="-3.7193">
        <ele>173.3</ele>
        <time>2020-06-07T15:28:02Z</time>
      </trkpt>
      <trkpt lat="47.99084" lon="-3.71931">
        <ele>173.3</ele>
        <time>2020-06-07T15:28:03Z</time>
      </trkpt>
      <trkpt lat="47.99084" lon="-3.7193">
        <ele>173.3</ele>
        <time>2020-06-07T15:28:04Z</time>
      </trkpt>
      <trkpt lat="47.99084" lon="-3.7193">
        <ele>173.3</ele>
        <time>2020-06-07T15:28:05Z</time>
      </trkpt>
      <trkpt lat="47.99084" lon="-3.7193">
        <ele>173.3</ele>
        <time>2020-06-07T15:28:06Z</time>
      </trkpt>
      <trkpt lat="47.99084" lon="-3.7193">
        <ele>173.3</ele>
        <time>2020-06-07T15:28:07Z</time>
      </trkpt>
      <trkpt lat="47.99084" lon="-3.7193">
        <ele>173.3</ele>
        <time>2020-06-07T15:28:08Z</time>
      </trkpt>
      <trkpt lat="47.99084" lon="-3.7193">
        <ele>173.3</ele>
        <time>2020-06-07T15:28:09Z</time>
      </trkpt>
      <trkpt lat="47.99084" lon="-3.71931">
        <ele>173.3</ele>
        <time>2020-06-07T15:28:10Z</time>
      </trkpt>
      <trkpt lat="47.99084" lon="-3.71931">
        <ele>173.3</ele>
        <time>2020-06-07T15:28:11Z</time>
      </trkpt>
      <trkpt lat="47.99084" lon="-3.71931">
        <ele>173.3</ele>
        <time>2020-06-07T15:28:12Z</time>
      </trkpt>
      <trkpt lat="47.99084" lon="-3.71931">
        <ele>173.3</ele>
        <time>2020-06-07T15:28:13Z</time>
      </trkpt>
      <trkpt lat="47.99084" lon="-3.71931">
        <ele>173.3</ele>
        <time>2020-06-07T15:28:14Z</time>
      </trkpt>
      <trkpt lat="47.99084" lon="-3.71931">
        <ele>173.3</ele>
        <time>2020-06-07T15:28:15Z</time>
      </trkpt>
      <trkpt lat="47.99084" lon="-3.71932">
        <ele>173.3</ele>
        <time>2020-06-07T15:28:16Z</time>
      </trkpt>
      <trkpt lat="47.99084" lon="-3.71933">
        <ele>173.3</ele>
        <time>2020-06-07T15:28:17Z</time>
      </trkpt>
      <trkpt lat="47.99084" lon="-3.71935">
        <ele>173.3</ele>
        <time>2020-06-07T15:28:18Z</time>
      </trkpt>
      <trkpt lat="47.99084" lon="-3.71939">
        <ele>173.3</ele>
        <time>2020-06-07T15:28:19Z</time>
      </trkpt>
      <trkpt lat="47.99084" lon="-3.71941">
        <ele>173.3</ele>
        <time>2020-06-07T15:28:20Z</time>
      </trkpt>
      <trkpt lat="47.99085" lon="-3.71943">
        <ele>173.3</ele>
        <time>2020-06-07T15:28:21Z</time>
      </trkpt>
      <trkpt lat="47.99085" lon="-3.71946">
        <ele>173.3</ele>
        <time>2020-06-07T15:28:22Z</time>
      </trkpt>
      <trkpt lat="47.99085" lon="-3.71945">
        <ele>173.3</ele>
        <time>2020-06-07T15:28:23Z</time>
      </trkpt>
      <trkpt lat="47.99086" lon="-3.71944">
        <ele>173.3</ele>
        <time>2020-06-07T15:28:24Z</time>
      </trkpt>
      <trkpt lat="47.99087" lon="-3.71944">
        <ele>173.3</ele>
        <time>2020-06-07T15:28:25Z</time>
      </trkpt>
      <trkpt lat="47.99088" lon="-3.71943">
        <ele>173.3</ele>
        <time>2020-06-07T15:28:26Z</time>
      </trkpt>
      <trkpt lat="47.99088" lon="-3.71942">
        <ele>173.3</ele>
        <time>2020-06-07T15:28:27Z</time>
      </trkpt>
      <trkpt lat="47.99089" lon="-3.71942">
        <ele>173.3</ele>
        <time>2020-06-07T15:28:28Z</time>
      </trkpt>
      <trkpt lat="47.9909" lon="-3.71941">
        <ele>173.3</ele>
        <time>2020-06-07T15:28:29Z</time>
      </trkpt>
      <trkpt lat="47.9909" lon="-3.7194">
        <ele>173.3</ele>
        <time>2020-06-07T15:28:30Z</time>
      </trkpt>
      <trkpt lat="47.99091" lon="-3.7194">
        <ele>173.3</ele>
        <time>2020-06-07T15:28:31Z</time>
      </trkpt>
      <trkpt lat="47.99092" lon="-3.71939">
        <ele>173.3</ele>
        <time>2020-06-07T15:28:32Z</time>
      </trkpt>
      <trkpt lat="47.99092" lon="-3.71938">
        <ele>173.3</ele>
        <time>2020-06-07T15:28:33Z</time>
      </trkpt>
      <trkpt lat="47.99093" lon="-3.71938">
        <ele>173.3</ele>
        <time>2020-06-07T15:30:02Z</time>
      </trkpt>
      <trkpt lat="47.99094" lon="-3.71937">
        <ele>173.3</ele>
        <time>2020-06-07T15:30:03Z</time>
      </trkpt>
      <trkpt lat="47.99095" lon="-3.71936">
        <ele>173.3</ele>
        <time>2020-06-07T15:30:04Z</time>
      </trkpt>
      <trkpt lat="47.99097" lon="-3.71936">
        <ele>173.3</ele>
        <time>2020-06-07T15:30:05Z</time>
      </trkpt>
      <trkpt lat="47.99098" lon="-3.71936">
        <ele>173.3</ele>
        <time>2020-06-07T15:30:06Z</time>
      </trkpt>
      <trkpt lat="47.991" lon="-3.71933">
        <ele>173.3</ele>
        <time>2020-06-07T15:30:07Z</time>
      </trkpt>
      <trkpt lat="47.99103" lon="-3.71932">
        <ele>173.3</ele>
        <time>2020-06-07T15:30:08Z</time>
      </trkpt>
      <trkpt lat="47.99104" lon="-3.71932">
        <ele>173.3</ele>
        <time>2020-06-07T15:30:09Z</time>
      </trkpt>
      <trkpt lat="47.99108" lon="-3.71933">
        <ele>173.3</ele>
        <time>2020-06-07T15:30:10Z</time>
      </trkpt>
      <trkpt lat="47.99109" lon="-3.71935">
        <ele>173.3</ele>
        <time>2020-06-07T15:30:11Z</time>
      </trkpt>
      <trkpt lat="47.99113" lon="-3.71936">
        <ele>173.3</ele>
        <time>2020-06-07T15:30:12Z</time>
      </trkpt>
      <trkpt lat="47.99114" lon="-3.71936">
        <ele>173.3</ele>
        <time>2020-06-07T15:30:13Z</time>
      </trkpt>
      <trkpt lat="47.99117" lon="-3.71936">
        <ele>173.3</ele>
        <time>2020-06-07T15:30:14Z</time>
      </trkpt>
      <trkpt lat="47.9912" lon="-3.71937">
        <ele>173.4</ele>
        <time>2020-06-07T15:30:15Z</time>
      </trkpt>
      <trkpt lat="47.99123" lon="-3.71937">
        <ele>173.4</ele>
        <time>2020-06-07T15:30:16Z</time>
      </trkpt>
      <trkpt lat="47.99126" lon="-3.71938">
        <ele>173.4</ele>
        <time>2020-06-07T15:30:17Z</time>
      </trkpt>
      <trkpt lat="47.99128" lon="-3.71938">
        <ele>173.4</ele>
        <time>2020-06-07T15:30:18Z</time>
      </trkpt>
      <trkpt lat="47.99129" lon="-3.71937">
        <ele>173.4</ele>
        <time>2020-06-07T15:30:19Z</time>
      </trkpt>
      <trkpt lat="47.99129" lon="-3.71936">
        <ele>173.4</ele>
        <time>2020-06-07T15:30:20Z</time>
      </trkpt>
      <trkpt lat="47.99129" lon="-3.71936">
        <ele>173.4</ele>
        <time>2020-06-07T15:30:21Z</time>
      </trkpt>
      <trkpt lat="47.99129" lon="-3.71936">
        <ele>173.4</ele>
        <time>2020-06-07T15:30:22Z</time>
      </trkpt>
      <trkpt lat="47.99129" lon="-3.71937">
        <ele>173.4</ele>
        <time>2020-06-07T15:30:23Z</time>
      </trkpt>
      <trkpt lat="47.99129" lon="-3.71937">
        <ele>173.4</ele>
        <time>2020-06-07T15:30:24Z</time>
      </trkpt>
      <trkpt lat="47.99129" lon="-3.71937">
        <ele>173.4</ele>
        <time>2020-06-07T15:30:25Z</time>
      </trkpt>
      <trkpt lat="47.99129" lon="-3.71937">
        <ele>173.4</ele>
        <time>2020-06-07T15:30:26Z</time>
      </trkpt>
      <trkpt lat="47.99129" lon="-3.71937">
        <ele>173.4</ele>
        <time>2020-06-07T15:30:27Z</time>
      </trkpt>
      <trkpt lat="47.99129" lon="-3.71937">
        <ele>173.4</ele>
        <time>2020-06-07T15:30:28Z</time>
      </trkpt>
      <trkpt lat="47.99129" lon="-3.71937">
        <ele>173.4</ele>
        <time>2020-06-07T15:30:29Z</time>
      </trkpt>
      <trkpt lat="47.99129" lon="-3.71937">
        <ele>173.4</ele>
        <time>2020-06-07T15:30:30Z</time>
      </trkpt>
      <trkpt lat="47.99129" lon="-3.71937">
        <ele>173.4</ele>
        <time>2020-06-07T15:30:31Z</time>
      </trkpt>
      <trkpt lat="47.99129" lon="-3.71937">
        <ele>173.4</ele>
        <time>2020-06-07T15:30:32Z</time>
      </trkpt>
      <trkpt lat="47.99129" lon="-3.71937">
        <ele>173.4</ele>
        <time>2020-06-07T15:30:33Z</time>
      </trkpt>
      <trkpt lat="47.99129" lon="-3.71937">
        <ele>173.4</ele>
        <time>2020-06-07T15:30:34Z</time>
      </trkpt>
      <trkpt lat="47.99129" lon="-3.71937">
        <ele>173.4</ele>
        <time>2020-06-07T15:30:35Z</time>
      </trkpt>
      <trkpt lat="47.99129" lon="-3.71924">
        <ele>173.4</ele>
        <time>2020-06-07T15:37:04Z</time>
      </trkpt>
      <trkpt lat="47.9913" lon="-3.71924">
        <ele>173.4</ele>
        <time>2020-06-07T15:37:05Z</time>
      </trkpt>
      <trkpt lat="47.9913" lon="-3.71923">
        <ele>173.4</ele>
        <time>2020-06-07T15:37:06Z</time>
      </trkpt>
      <trkpt lat="47.9913" lon="-3.71922">
        <ele>173.4</ele>
        <time>2020-06-07T15:37:07Z</time>
      </trkpt>
      <trkpt lat="47.9913" lon="-3.71921">
        <ele>173.4</ele>
        <time>2020-06-07T15:37:08Z</time>
      </trkpt>
      <trkpt lat="47.9913" lon="-3.71918">
        <ele>173.4</ele>
        <time>2020-06-07T15:37:09Z</time>
      </trkpt>
      <trkpt lat="47.99131" lon="-3.71917">
        <ele>173.4</ele>
        <time>2020-06-07T15:37:10Z</time>
      </trkpt>
      <trkpt lat="47.99131" lon="-3.71915">
        <ele>173.4</ele>
        <time>2020-06-07T15:37:11Z</time>
      </trkpt>
      <trkpt lat="47.99134" lon="-3.71912">
        <ele>173.4</ele>
        <time>2020-06-07T15:37:12Z</time>
      </trkpt>
      <trkpt lat="47.99135" lon="-3.7191">
        <ele>173.4</ele>
        <time>2020-06-07T15:37:13Z</time>
      </trkpt>
      <trkpt lat="47.99137" lon="-3.71905">
        <ele>173.4</ele>
        <time>2020-06-07T15:37:14Z</time>
      </trkpt>
      <trkpt lat="47.9914" lon="-3.71902">
        <ele>173.4</ele>
        <time>2020-06-07T15:37:15Z</time>
      </trkpt>
      <trkpt lat="47.99142" lon="-3.719">
        <ele>173.4</ele>
        <time>2020-06-07T15:37:16Z</time>
      </trkpt>
      <trkpt lat="47.99145" lon="-3.71898">
        <ele>173.4</ele>
        <time>2020-06-07T15:37:17Z</time>
      </trkpt>
      <trkpt lat="47.99149" lon="-3.71893">
        <ele>173.5</ele>
        <time>2020-06-07T15:37:18Z</time>
      </trkpt>
      <trkpt lat="47.99153" lon="-3.71891">
        <ele>173.5</ele>
        <time>2020-06-07T15:37:19Z</time>
      </trkpt>
      <trkpt lat="47.99157" lon="-3.71888">
        <ele>173.5</ele>
        <time>2020-06-07T15:37:20Z</time>
      </trkpt>
      <trkpt lat="47.99161" lon="-3.71886">
        <ele>173.5</ele>
        <time>2020-06-07T15:37:21Z</time>
      </trkpt>
      <trkpt lat="47.99165" lon="-3.71884">
        <ele>173.5</ele>
        <time>2020-06-07T15:37:22Z</time>
      </trkpt>
      <trkpt lat="47.99169" lon="-3.71881">
        <ele>173.5</ele>
        <time>2020-06-07T15:37:23Z</time>
      </trkpt>
      <trkpt lat="47.99172" lon="-3.7188">
        <ele>173.5</ele>
        <time>2020-06-07T15:37:24Z</time>
      </trkpt>
      <trkpt lat="47.99177" lon="-3.71878">
        <ele>173.5</ele>
        <time>2020-06-07T15:37:25Z</time>
      </trkpt>
      <trkpt lat="47.9918" lon="-3.71875">
        <ele>173.5</ele>
        <time>2020-06-07T15:37:26Z</time>
      </trkpt>
      <trkpt lat="47.99186" lon="-3.71873">
        <ele>173.6</ele>
        <time>2020-06-07T15:37:27Z</time>
      </trkpt>
      <trkpt lat="47.9919" lon="-3.7187">
        <ele>173.6</ele>
        <time>2020-06-07T15:37:28Z</time>
      </trkpt>
      <trkpt lat="47.99195" lon="-3.71867">
        <ele>173.6</ele>
        <time>2020-06-07T15:37:29Z</time>
      </trkpt>
      <trkpt lat="47.99199" lon="-3.71863">
        <ele>173.6</ele>
        <time>2020-06-07T15:37:30Z</time>
      </trkpt>
      <trkpt lat="47.99204" lon="-3.71859">
        <ele>173.6</ele>
        <time>2020-06-07T15:37:31Z</time>
      </trkpt>
      <trkpt lat="47.99209" lon="-3.71856">
        <ele>173.6</ele>
        <time>2020-06-07T15:37:32Z</time>
      </trkpt>
      <trkpt lat="47.99213" lon="-3.71854">
        <ele>173.5</ele>
        <time>2020-06-07T15:37:33Z</time>
      </trkpt>
      <trkpt lat="47.99217" lon="-3.71852">
        <ele>173.5</ele>
        <time>2020-06-07T15:37:34Z</time>
      </trkpt>
      <trkpt lat="47.99221" lon="-3.7185">
        <ele>173.5</ele>
        <time>2020-06-07T15:37:35Z</time>
      </trkpt>
      <trkpt lat="47.99225" lon="-3.71846">
        <ele>173.6</ele>
        <time>2020-06-07T15:37:36Z</time>
      </trkpt>
      <trkpt lat="47.99228" lon="-3.71843">
        <ele>173.6</ele>
        <time>2020-06-07T15:37:37Z</time>
      </trkpt>
      <trkpt lat="47.99232" lon="-3.7184">
        <ele>173.7</ele>
        <time>2020-06-07T15:37:38Z</time>
      </trkpt>
      <trkpt lat="47.99237" lon="-3.71837">
        <ele>173.7</ele>
        <time>2020-06-07T15:37:39Z</time>
      </trkpt>
      <trkpt lat="47.9924" lon="-3.71834">
        <ele>173.7</ele>
        <time>2020-06-07T15:37:40Z</time>
      </trkpt>
      <trkpt lat="47.99244" lon="-3.71832">
        <ele>173.7</ele>
        <time>2020-06-07T15:37:41Z</time>
      </trkpt>
      <trkpt lat="47.99248" lon="-3.71829">
        <ele>173.7</ele>
        <time>2020-06-07T15:37:42Z</time>
      </trkpt>
      <trkpt lat="47.99252" lon="-3.71827">
        <ele>173.7</ele>
        <time>2020-06-07T15:37:43Z</time>
      </trkpt>
      <trkpt lat="47.99256" lon="-3.71824">
        <ele>173.7</ele>
        <time>2020-06-07T15:37:44Z</time>
      </trkpt>
      <trkpt lat="47.9926" lon="-3.71821">
        <ele>173.7</ele>
        <time>2020-06-07T15:37:45Z</time>
      </trkpt>
      <trkpt lat="47.99264" lon="-3.71818">
        <ele>173.6</ele>
        <time>2020-06-07T15:37:46Z</time>
      </trkpt>
      <trkpt lat="47.99269" lon="-3.71814">
        <ele>173.6</ele>
        <time>2020-06-07T15:37:47Z</time>
      </trkpt>
      <trkpt lat="47.99273" lon="-3.71812">
        <ele>173.6</ele>
        <time>2020-06-07T15:37:48Z</time>
      </trkpt>
      <trkpt lat="47.99277" lon="-3.71809">
        <ele>173.6</ele>
        <time>2020-06-07T15:37:49Z</time>
      </trkpt>
      <trkpt lat="47.9928" lon="-3.71806">
        <ele>173.6</ele>
        <time>2020-06-07T15:37:50Z</time>
      </trkpt>
      <trkpt lat="47.99284" lon="-3.71803">
        <ele>173.6</ele>
        <time>2020-06-07T15:37:51Z</time>
      </trkpt>
      <trkpt lat="47.99289" lon="-3.718">
        <ele>173.6</ele>
        <time>2020-06-07T15:37:52Z</time>
      </trkpt>
      <trkpt lat="47.99295" lon="-3.71797">
        <ele>173.5</ele>
        <time>2020-06-07T15:37:53Z</time>
      </trkpt>
      <trkpt lat="47.993" lon="-3.71794">
        <ele>173.5</ele>
        <time>2020-06-07T15:37:54Z</time>
      </trkpt>
      <trkpt lat="47.99305" lon="-3.7179">
        <ele>173.5</ele>
        <time>2020-06-07T15:37:55Z</time>
      </trkpt>
      <trkpt lat="47.9931" lon="-3.71787">
        <ele>173.4</ele>
        <time>2020-06-07T15:37:56Z</time>
      </trkpt>
      <trkpt lat="47.99315" lon="-3.71783">
        <ele>173.3</ele>
        <time>2020-06-07T15:37:57Z</time>
      </trkpt>
      <trkpt lat="47.9932" lon="-3.7178">
        <ele>173.3</ele>
        <time>2020-06-07T15:37:58Z</time>
      </trkpt>
      <trkpt lat="47.99324" lon="-3.71776">
        <ele>173.2</ele>
        <time>2020-06-07T15:37:59Z</time>
      </trkpt>
      <trkpt lat="47.99329" lon="-3.71773">
        <ele>173.1</ele>
        <time>2020-06-07T15:38:00Z</time>
      </trkpt>
      <trkpt lat="47.99333" lon="-3.7177">
        <ele>173</ele>
        <time>2020-06-07T15:38:01Z</time>
      </trkpt>
      <trkpt lat="47.99338" lon="-3.71766">
        <ele>172.9</ele>
        <time>2020-06-07T15:38:02Z</time>
      </trkpt>
      <trkpt lat="47.99343" lon="-3.71762">
        <ele>172.8</ele>
        <time>2020-06-07T15:38:03Z</time>
      </trkpt>
      <trkpt lat="47.99349" lon="-3.71758">
        <ele>172.6</ele>
        <time>2020-06-07T15:38:04Z</time>
      </trkpt>
      <trkpt lat="47.99356" lon="-3.71754">
        <ele>172.5</ele>
        <time>2020-06-07T15:38:05Z</time>
      </trkpt>
      <trkpt lat="47.99363" lon="-3.71752">
        <ele>172.3</ele>
        <time>2020-06-07T15:38:06Z</time>
      </trkpt>
      <trkpt lat="47.99368" lon="-3.71748">
        <ele>172.2</ele>
        <time>2020-06-07T15:38:07Z</time>
      </trkpt>
      <trkpt lat="47.99375" lon="-3.71745">
        <ele>172</ele>
        <time>2020-06-07T15:38:08Z</time>
      </trkpt>
      <trkpt lat="47.9938" lon="-3.71742">
        <ele>171.9</ele>
        <time>2020-06-07T15:38:09Z</time>
      </trkpt>
      <trkpt lat="47.99386" lon="-3.71739">
        <ele>171.8</ele>
        <time>2020-06-07T15:38:10Z</time>
      </trkpt>
      <trkpt lat="47.99392" lon="-3.71735">
        <ele>171.6</ele>
        <time>2020-06-07T15:38:11Z</time>
      </trkpt>
      <trkpt lat="47.99398" lon="-3.71731">
        <ele>171.5</ele>
        <time>2020-06-07T15:38:12Z</time>
      </trkpt>
      <trkpt lat="47.99403" lon="-3.71727">
        <ele>171.4</ele>
        <time>2020-06-07T15:38:13Z</time>
      </trkpt>
      <trkpt lat="47.99409" lon="-3.71724">
        <ele>171.2</ele>
        <time>2020-06-07T15:38:14Z</time>
      </trkpt>
      <trkpt lat="47.99415" lon="-3.71721">
        <ele>171</ele>
        <time>2020-06-07T15:38:15Z</time>
      </trkpt>
      <trkpt lat="47.99422" lon="-3.71717">
        <ele>170.9</ele>
        <time>2020-06-07T15:38:16Z</time>
      </trkpt>
      <trkpt lat="47.99427" lon="-3.71714">
        <ele>170.7</ele>
        <time>2020-06-07T15:38:17Z</time>
      </trkpt>
      <trkpt lat="47.99433" lon="-3.71711">
        <ele>170.6</ele>
        <time>2020-06-07T15:38:18Z</time>
      </trkpt>
      <trkpt lat="47.99439" lon="-3.71709">
        <ele>170.4</ele>
        <time>2020-06-07T15:38:19Z</time>
      </trkpt>
      <trkpt lat="47.99445" lon="-3.71706">
        <ele>170.2</ele>
        <time>2020-06-07T15:38:20Z</time>
      </trkpt>
      <trkpt lat="47.99451" lon="-3.71703">
        <ele>170.1</ele>
        <time>2020-06-07T15:38:21Z</time>
      </trkpt>
      <trkpt lat="47.99457" lon="-3.71701">
        <ele>169.9</ele>
        <time>2020-06-07T15:38:22Z</time>
      </trkpt>
      <trkpt lat="47.99463" lon="-3.71699">
        <ele>169.7</ele>
        <time>2020-06-07T15:38:23Z</time>
      </trkpt>
      <trkpt lat="47.9947" lon="-3.71697">
        <ele>169.5</ele>
        <time>2020-06-07T15:38:24Z</time>
      </trkpt>
      <trkpt lat="47.99476" lon="-3.71695">
        <ele>169.3</ele>
        <time>2020-06-07T15:38:25Z</time>
      </trkpt>
      <trkpt lat="47.99481" lon="-3.71692">
        <ele>169.1</ele>
        <time>2020-06-07T15:38:26Z</time>
      </trkpt>
      <trkpt lat="47.99488" lon="-3.7169">
        <ele>169</ele>
        <time>2020-06-07T15:38:27Z</time>
      </trkpt>
      <trkpt lat="47.99494" lon="-3.71689">
        <ele>168.8</ele>
        <time>2020-06-07T15:38:28Z</time>
      </trkpt>
      <trkpt lat="47.995" lon="-3.71687">
        <ele>168.7</ele>
        <time>2020-06-07T15:38:29Z</time>
      </trkpt>
      <trkpt lat="47.99506" lon="-3.71686">
        <ele>168.5</ele>
        <time>2020-06-07T15:38:30Z</time>
      </trkpt>
      <trkpt lat="47.99512" lon="-3.71685">
        <ele>168.3</ele>
        <time>2020-06-07T15:38:31Z</time>
      </trkpt>
      <trkpt lat="47.99518" lon="-3.71684">
        <ele>168.1</ele>
        <time>2020-06-07T15:38:32Z</time>
      </trkpt>
      <trkpt lat="47.99525" lon="-3.71684">
        <ele>167.8</ele>
        <time>2020-06-07T15:38:33Z</time>
      </trkpt>
      <trkpt lat="47.99531" lon="-3.71685">
        <ele>167.6</ele>
        <time>2020-06-07T15:38:34Z</time>
      </trkpt>
      <trkpt lat="47.99539" lon="-3.71685">
        <ele>167.4</ele>
        <time>2020-06-07T15:38:35Z</time>
      </trkpt>
      <trkpt lat="47.99546" lon="-3.71687">
        <ele>167.2</ele>
        <time>2020-06-07T15:38:36Z</time>
      </trkpt>
      <trkpt lat="47.99553" lon="-3.71689">
        <ele>167</ele>
        <time>2020-06-07T15:38:37Z</time>
      </trkpt>
      <trkpt lat="47.99561" lon="-3.71692">
        <ele>166.8</ele>
        <time>2020-06-07T15:38:38Z</time>
      </trkpt>
      <trkpt lat="47.99568" lon="-3.71694">
        <ele>166.6</ele>
        <time>2020-06-07T15:38:39Z</time>
      </trkpt>
      <trkpt lat="47.99574" lon="-3.71695">
        <ele>166.5</ele>
        <time>2020-06-07T15:38:40Z</time>
      </trkpt>
      <trkpt lat="47.99581" lon="-3.71696">
        <ele>166.3</ele>
        <time>2020-06-07T15:38:41Z</time>
      </trkpt>
      <trkpt lat="47.99588" lon="-3.71699">
        <ele>166.1</ele>
        <time>2020-06-07T15:38:42Z</time>
      </trkpt>
      <trkpt lat="47.99594" lon="-3.71701">
        <ele>165.9</ele>
        <time>2020-06-07T15:38:43Z</time>
      </trkpt>
      <trkpt lat="47.99602" lon="-3.71704">
        <ele>165.7</ele>
        <time>2020-06-07T15:38:44Z</time>
      </trkpt>
      <trkpt lat="47.99608" lon="-3.71707">
        <ele>165.6</ele>
        <time>2020-06-07T15:38:45Z</time>
      </trkpt>
      <trkpt lat="47.99615" lon="-3.71709">
        <ele>165.4</ele>
        <time>2020-06-07T15:38:46Z</time>
      </trkpt>
      <trkpt lat="47.99621" lon="-3.71711">
        <ele>165.2</ele>
        <time>2020-06-07T15:38:47Z</time>
      </trkpt>
      <trkpt lat="47.99626" lon="-3.71714">
        <ele>165.1</ele>
        <time>2020-06-07T15:38:48Z</time>
      </trkpt>
      <trkpt lat="47.99633" lon="-3.71718">
        <ele>164.9</ele>
        <time>2020-06-07T15:38:49Z</time>
      </trkpt>
      <trkpt lat="47.99639" lon="-3.71721">
        <ele>164.8</ele>
        <time>2020-06-07T15:38:50Z</time>
      </trkpt>
      <trkpt lat="47.99645" lon="-3.71724">
        <ele>164.6</ele>
        <time>2020-06-07T15:38:51Z</time>
      </trkpt>
      <trkpt lat="47.99651" lon="-3.71728">
        <ele>164.4</ele>
        <time>2020-06-07T15:38:52Z</time>
      </trkpt>
      <trkpt lat="47.99657" lon="-3.71732">
        <ele>164.3</ele>
        <time>2020-06-07T15:38:53Z</time>
      </trkpt>
      <trkpt lat="47.99663" lon="-3.71737">
        <ele>164.1</ele>
        <time>2020-06-07T15:38:54Z</time>
      </trkpt>
      <trkpt lat="47.9967" lon="-3.7174">
        <ele>164</ele>
        <time>2020-06-07T15:38:55Z</time>
      </trkpt>
      <trkpt lat="47.99676" lon="-3.71745">
        <ele>163.8</ele>
        <time>2020-06-07T15:38:56Z</time>
      </trkpt>
      <trkpt lat="47.99681" lon="-3.71751">
        <ele>163.7</ele>
        <time>2020-06-07T15:38:57Z</time>
      </trkpt>
      <trkpt lat="47.99687" lon="-3.71756">
        <ele>163.5</ele>
        <time>2020-06-07T15:38:58Z</time>
      </trkpt>
      <trkpt lat="47.99692" lon="-3.71761">
        <ele>163.4</ele>
        <time>2020-06-07T15:38:59Z</time>
      </trkpt>
      <trkpt lat="47.99698" lon="-3.71767">
        <ele>163.3</ele>
        <time>2020-06-07T15:39:00Z</time>
      </trkpt>
      <trkpt lat="47.99704" lon="-3.71771">
        <ele>163.1</ele>
        <time>2020-06-07T15:39:01Z</time>
      </trkpt>
      <trkpt lat="47.99709" lon="-3.71777">
        <ele>163</ele>
        <time>2020-06-07T15:39:02Z</time>
      </trkpt>
      <trkpt lat="47.99714" lon="-3.71783">
        <ele>162.9</ele>
        <time>2020-06-07T15:39:03Z</time>
      </trkpt>
      <trkpt lat="47.9972" lon="-3.71788">
        <ele>162.7</ele>
        <time>2020-06-07T15:39:04Z</time>
      </trkpt>
      <trkpt lat="47.99725" lon="-3.71794">
        <ele>162.6</ele>
        <time>2020-06-07T15:39:05Z</time>
      </trkpt>
      <trkpt lat="47.9973" lon="-3.718">
        <ele>162.4</ele>
        <time>2020-06-07T15:39:06Z</time>
      </trkpt>
      <trkpt lat="47.99736" lon="-3.71805">
        <ele>162.3</ele>
        <time>2020-06-07T15:39:07Z</time>
      </trkpt>
      <trkpt lat="47.99741" lon="-3.71812">
        <ele>162.1</ele>
        <time>2020-06-07T15:39:08Z</time>
      </trkpt>
      <trkpt lat="47.99747" lon="-3.71817">
        <ele>161.9</ele>
        <time>2020-06-07T15:39:09Z</time>
      </trkpt>
      <trkpt lat="47.99752" lon="-3.71823">
        <ele>161.8</ele>
        <time>2020-06-07T15:39:10Z</time>
      </trkpt>
      <trkpt lat="47.99758" lon="-3.71828">
        <ele>161.6</ele>
        <time>2020-06-07T15:39:11Z</time>
      </trkpt>
      <trkpt lat="47.99762" lon="-3.71833">
        <ele>161.5</ele>
        <time>2020-06-07T15:39:12Z</time>
      </trkpt>
      <trkpt lat="47.99767" lon="-3.71838">
        <ele>161.4</ele>
        <time>2020-06-07T15:39:13Z</time>
      </trkpt>
      <trkpt lat="47.99773" lon="-3.71843">
        <ele>161.2</ele>
        <time>2020-06-07T15:39:14Z</time>
      </trkpt>
      <trkpt lat="47.99778" lon="-3.71849">
        <ele>161.1</ele>
        <time>2020-06-07T15:39:15Z</time>
      </trkpt>
      <trkpt lat="47.99783" lon="-3.71855">
        <ele>160.9</ele>
        <time>2020-06-07T15:39:16Z</time>
      </trkpt>
      <trkpt lat="47.99788" lon="-3.7186">
        <ele>160.7</ele>
        <time>2020-06-07T15:39:17Z</time>
      </trkpt>
      <trkpt lat="47.99793" lon="-3.71865">
        <ele>160.6</ele>
        <time>2020-06-07T15:39:18Z</time>
      </trkpt>
      <trkpt lat="47.99799" lon="-3.7187">
        <ele>160.5</ele>
        <time>2020-06-07T15:39:19Z</time>
      </trkpt>
      <trkpt lat="47.99804" lon="-3.71875">
        <ele>160.3</ele>
        <time>2020-06-07T15:39:20Z</time>
      </trkpt>
      <trkpt lat="47.9981" lon="-3.71879">
        <ele>160.2</ele>
        <time>2020-06-07T15:39:21Z</time>
      </trkpt>
      <trkpt lat="47.99817" lon="-3.71883">
        <ele>160.1</ele>
        <time>2020-06-07T15:39:22Z</time>
      </trkpt>
      <trkpt lat="47.99822" lon="-3.71886">
        <ele>160</ele>
        <time>2020-06-07T15:39:23Z</time>
      </trkpt>
      <trkpt lat="47.99829" lon="-3.71889">
        <ele>159.9</ele>
        <time>2020-06-07T15:39:24Z</time>
      </trkpt>
      <trkpt lat="47.99835" lon="-3.71893">
        <ele>159.9</ele>
        <time>2020-06-07T15:39:25Z</time>
      </trkpt>
      <trkpt lat="47.9984" lon="-3.71897">
        <ele>159.9</ele>
        <time>2020-06-07T15:39:26Z</time>
      </trkpt>
      <trkpt lat="47.99846" lon="-3.719">
        <ele>159.9</ele>
        <time>2020-06-07T15:39:27Z</time>
      </trkpt>
      <trkpt lat="47.99852" lon="-3.71904">
        <ele>159.8</ele>
        <time>2020-06-07T15:39:28Z</time>
      </trkpt>
      <trkpt lat="47.99858" lon="-3.71907">
        <ele>159.8</ele>
        <time>2020-06-07T15:39:29Z</time>
      </trkpt>
      <trkpt lat="47.99864" lon="-3.7191">
        <ele>159.7</ele>
        <time>2020-06-07T15:39:30Z</time>
      </trkpt>
      <trkpt lat="47.9987" lon="-3.71913">
        <ele>159.7</ele>
        <time>2020-06-07T15:39:31Z</time>
      </trkpt>
      <trkpt lat="47.99876" lon="-3.71915">
        <ele>159.6</ele>
        <time>2020-06-07T15:39:32Z</time>
      </trkpt>
      <trkpt lat="47.99882" lon="-3.71918">
        <ele>159.5</ele>
        <time>2020-06-07T15:39:33Z</time>
      </trkpt>
      <trkpt lat="47.99887" lon="-3.71921">
        <ele>159.4</ele>
        <time>2020-06-07T15:39:34Z</time>
      </trkpt>
      <trkpt lat="47.99893" lon="-3.71922">
        <ele>159.4</ele>
        <time>2020-06-07T15:39:35Z</time>
      </trkpt>
      <trkpt lat="47.99899" lon="-3.71923">
        <ele>159.3</ele>
        <time>2020-06-07T15:39:36Z</time>
      </trkpt>
      <trkpt lat="47.99905" lon="-3.71925">
        <ele>159.2</ele>
        <time>2020-06-07T15:39:37Z</time>
      </trkpt>
      <trkpt lat="47.9991" lon="-3.71928">
        <ele>159.2</ele>
        <time>2020-06-07T15:39:38Z</time>
      </trkpt>
      <trkpt lat="47.99916" lon="-3.7193">
        <ele>159.1</ele>
        <time>2020-06-07T15:39:39Z</time>
      </trkpt>
      <trkpt lat="47.99922" lon="-3.71932">
        <ele>159.1</ele>
        <time>2020-06-07T15:39:40Z</time>
      </trkpt>
      <trkpt lat="47.99928" lon="-3.71935">
        <ele>159.1</ele>
        <time>2020-06-07T15:39:41Z</time>
      </trkpt>
      <trkpt lat="47.99933" lon="-3.71936">
        <ele>159.1</ele>
        <time>2020-06-07T15:39:42Z</time>
      </trkpt>
      <trkpt lat="47.99939" lon="-3.71939">
        <ele>159.1</ele>
        <time>2020-06-07T15:39:43Z</time>
      </trkpt>
      <trkpt lat="47.99945" lon="-3.7194">
        <ele>159.1</ele>
        <time>2020-06-07T15:39:44Z</time>
      </trkpt>
      <trkpt lat="47.9995" lon="-3.71943">
        <ele>159.1</ele>
        <time>2020-06-07T15:39:45Z</time>
      </trkpt>
      <trkpt lat="47.99956" lon="-3.71945">
        <ele>159.2</ele>
        <time>2020-06-07T15:39:46Z</time>
      </trkpt>
      <trkpt lat="47.99961" lon="-3.71947">
        <ele>159.2</ele>
        <time>2020-06-07T15:39:47Z</time>
      </trkpt>
      <trkpt lat="47.99966" lon="-3.71949">
        <ele>159.2</ele>
        <time>2020-06-07T15:39:48Z</time>
      </trkpt>
      <trkpt lat="47.99972" lon="-3.71951">
        <ele>159.1</ele>
        <time>2020-06-07T15:39:49Z</time>
      </trkpt>
      <trkpt lat="47.99977" lon="-3.71953">
        <ele>159.1</ele>
        <time>2020-06-07T15:39:50Z</time>
      </trkpt>
      <trkpt lat="47.99982" lon="-3.71955">
        <ele>159.1</ele>
        <time>2020-06-07T15:39:51Z</time>
      </trkpt>
      <trkpt lat="47.99987" lon="-3.71957">
        <ele>159.1</ele>
        <time>2020-06-07T15:39:52Z</time>
      </trkpt>
      <trkpt lat="47.99992" lon="-3.71959">
        <ele>159.2</ele>
        <time>2020-06-07T15:39:53Z</time>
      </trkpt>
      <trkpt lat="47.99997" lon="-3.71959">
        <ele>159.2</ele>
        <time>2020-06-07T15:39:54Z</time>
      </trkpt>
      <trkpt lat="48.00002" lon="-3.7196">
        <ele>159.3</ele>
        <time>2020-06-07T15:39:55Z</time>
      </trkpt>
      <trkpt lat="48.00007" lon="-3.71962">
        <ele>159.3</ele>
        <time>2020-06-07T15:39:56Z</time>
      </trkpt>
      <trkpt lat="48.00012" lon="-3.71964">
        <ele>159.4</ele>
        <time>2020-06-07T15:39:57Z</time>
      </trkpt>
      <trkpt lat="48.00017" lon="-3.71965">
        <ele>159.4</ele>
        <time>2020-06-07T15:39:58Z</time>
      </trkpt>
      <trkpt lat="48.00022" lon="-3.71965">
        <ele>159.5</ele>
        <time>2020-06-07T15:39:59Z</time>
      </trkpt>
      <trkpt lat="48.00027" lon="-3.71966">
        <ele>159.5</ele>
        <time>2020-06-07T15:40:00Z</time>
      </trkpt>
      <trkpt lat="48.00033" lon="-3.71967">
        <ele>159.6</ele>
        <time>2020-06-07T15:40:01Z</time>
      </trkpt>
      <trkpt lat="48.00038" lon="-3.71967">
        <ele>159.6</ele>
        <time>2020-06-07T15:40:02Z</time>
      </trkpt>
      <trkpt lat="48.00043" lon="-3.71967">
        <ele>159.6</ele>
        <time>2020-06-07T15:40:03Z</time>
      </trkpt>
      <trkpt lat="48.00048" lon="-3.71968">
        <ele>159.6</ele>
        <time>2020-06-07T15:40:04Z</time>
      </trkpt>
      <trkpt lat="48.00053" lon="-3.71969">
        <ele>159.7</ele>
        <time>2020-06-07T15:40:05Z</time>
      </trkpt>
      <trkpt lat="48.00058" lon="-3.7197">
        <ele>159.7</ele>
        <time>2020-06-07T15:40:06Z</time>
      </trkpt>
      <trkpt lat="48.00064" lon="-3.71971">
        <ele>159.8</ele>
        <time>2020-06-07T15:40:07Z</time>
      </trkpt>
      <trkpt lat="48.00069" lon="-3.71972">
        <ele>159.8</ele>
        <time>2020-06-07T15:40:08Z</time>
      </trkpt>
      <trkpt lat="48.00073" lon="-3.71973">
        <ele>159.8</ele>
        <time>2020-06-07T15:40:09Z</time>
      </trkpt>
      <trkpt lat="48.00078" lon="-3.71975">
        <ele>159.9</ele>
        <time>2020-06-07T15:40:10Z</time>
      </trkpt>
      <trkpt lat="48.00084" lon="-3.71977">
        <ele>159.9</ele>
        <time>2020-06-07T15:40:11Z</time>
      </trkpt>
      <trkpt lat="48.00089" lon="-3.71977">
        <ele>160</ele>
        <time>2020-06-07T15:40:12Z</time>
      </trkpt>
      <trkpt lat="48.00093" lon="-3.71979">
        <ele>160</ele>
        <time>2020-06-07T15:40:13Z</time>
      </trkpt>
      <trkpt lat="48.00098" lon="-3.7198">
        <ele>160</ele>
        <time>2020-06-07T15:40:14Z</time>
      </trkpt>
      <trkpt lat="48.00103" lon="-3.7198">
        <ele>160</ele>
        <time>2020-06-07T15:40:15Z</time>
      </trkpt>
      <trkpt lat="48.00108" lon="-3.71981">
        <ele>160</ele>
        <time>2020-06-07T15:40:16Z</time>
      </trkpt>
      <trkpt lat="48.00114" lon="-3.71983">
        <ele>160</ele>
        <time>2020-06-07T15:40:17Z</time>
      </trkpt>
      <trkpt lat="48.00119" lon="-3.71985">
        <ele>160</ele>
        <time>2020-06-07T15:40:18Z</time>
      </trkpt>
      <trkpt lat="48.00124" lon="-3.71986">
        <ele>160</ele>
        <time>2020-06-07T15:40:19Z</time>
      </trkpt>
      <trkpt lat="48.00129" lon="-3.71987">
        <ele>160.1</ele>
        <time>2020-06-07T15:40:20Z</time>
      </trkpt>
      <trkpt lat="48.00135" lon="-3.71988">
        <ele>160.1</ele>
        <time>2020-06-07T15:40:21Z</time>
      </trkpt>
      <trkpt lat="48.0014" lon="-3.7199">
        <ele>160.1</ele>
        <time>2020-06-07T15:40:22Z</time>
      </trkpt>
      <trkpt lat="48.00146" lon="-3.71991">
        <ele>160.1</ele>
        <time>2020-06-07T15:40:23Z</time>
      </trkpt>
      <trkpt lat="48.00151" lon="-3.71993">
        <ele>160.1</ele>
        <time>2020-06-07T15:40:24Z</time>
      </trkpt>
      <trkpt lat="48.00156" lon="-3.71994">
        <ele>160.2</ele>
        <time>2020-06-07T15:40:25Z</time>
      </trkpt>
      <trkpt lat="48.00161" lon="-3.71995">
        <ele>160.2</ele>
        <time>2020-06-07T15:40:26Z</time>
      </trkpt>
      <trkpt lat="48.00167" lon="-3.71997">
        <ele>160.2</ele>
        <time>2020-06-07T15:40:27Z</time>
      </trkpt>
      <trkpt lat="48.00172" lon="-3.71998">
        <ele>160.2</ele>
        <time>2020-06-07T15:40:28Z</time>
      </trkpt>
      <trkpt lat="48.00178" lon="-3.72">
        <ele>160.2</ele>
        <time>2020-06-07T15:40:29Z</time>
      </trkpt>
      <trkpt lat="48.00183" lon="-3.72001">
        <ele>160.2</ele>
        <time>2020-06-07T15:40:30Z</time>
      </trkpt>
      <trkpt lat="48.00188" lon="-3.72003">
        <ele>160.3</ele>
        <time>2020-06-07T15:40:31Z</time>
      </trkpt>
      <trkpt lat="48.00194" lon="-3.72004">
        <ele>160.3</ele>
        <time>2020-06-07T15:40:32Z</time>
      </trkpt>
      <trkpt lat="48.002" lon="-3.72004">
        <ele>160.2</ele>
        <time>2020-06-07T15:40:33Z</time>
      </trkpt>
      <trkpt lat="48.00205" lon="-3.72006">
        <ele>160.2</ele>
        <time>2020-06-07T15:40:34Z</time>
      </trkpt>
      <trkpt lat="48.00211" lon="-3.72008">
        <ele>160.2</ele>
        <time>2020-06-07T15:40:35Z</time>
      </trkpt>
      <trkpt lat="48.00217" lon="-3.7201">
        <ele>160.2</ele>
        <time>2020-06-07T15:40:36Z</time>
      </trkpt>
      <trkpt lat="48.00222" lon="-3.72011">
        <ele>160.2</ele>
        <time>2020-06-07T15:40:37Z</time>
      </trkpt>
      <trkpt lat="48.00228" lon="-3.72013">
        <ele>160.2</ele>
        <time>2020-06-07T15:40:38Z</time>
      </trkpt>
      <trkpt lat="48.00233" lon="-3.72014">
        <ele>160.2</ele>
        <time>2020-06-07T15:40:39Z</time>
      </trkpt>
      <trkpt lat="48.00239" lon="-3.72015">
        <ele>160.2</ele>
        <time>2020-06-07T15:40:40Z</time>
      </trkpt>
      <trkpt lat="48.00245" lon="-3.72015">
        <ele>160.2</ele>
        <time>2020-06-07T15:40:41Z</time>
      </trkpt>
      <trkpt lat="48.0025" lon="-3.72016">
        <ele>160.3</ele>
        <time>2020-06-07T15:40:42Z</time>
      </trkpt>
      <trkpt lat="48.00255" lon="-3.72018">
        <ele>160.3</ele>
        <time>2020-06-07T15:40:43Z</time>
      </trkpt>
      <trkpt lat="48.00261" lon="-3.7202">
        <ele>160.4</ele>
        <time>2020-06-07T15:40:44Z</time>
      </trkpt>
      <trkpt lat="48.00266" lon="-3.72022">
        <ele>160.4</ele>
        <time>2020-06-07T15:40:45Z</time>
      </trkpt>
      <trkpt lat="48.00272" lon="-3.72024">
        <ele>160.5</ele>
        <time>2020-06-07T15:40:46Z</time>
      </trkpt>
      <trkpt lat="48.00277" lon="-3.72025">
        <ele>160.5</ele>
        <time>2020-06-07T15:40:47Z</time>
      </trkpt>
      <trkpt lat="48.00283" lon="-3.72027">
        <ele>160.6</ele>
        <time>2020-06-07T15:40:48Z</time>
      </trkpt>
      <trkpt lat="48.00288" lon="-3.72028">
        <ele>160.6</ele>
        <time>2020-06-07T15:40:49Z</time>
      </trkpt>
      <trkpt lat="48.00294" lon="-3.7203">
        <ele>160.7</ele>
        <time>2020-06-07T15:40:50Z</time>
      </trkpt>
      <trkpt lat="48.00299" lon="-3.72031">
        <ele>160.8</ele>
        <time>2020-06-07T15:40:51Z</time>
      </trkpt>
      <trkpt lat="48.00305" lon="-3.72032">
        <ele>160.8</ele>
        <time>2020-06-07T15:40:52Z</time>
      </trkpt>
      <trkpt lat="48.0031" lon="-3.72033">
        <ele>160.8</ele>
        <time>2020-06-07T15:40:53Z</time>
      </trkpt>
      <trkpt lat="48.00316" lon="-3.72034">
        <ele>160.8</ele>
        <time>2020-06-07T15:40:54Z</time>
      </trkpt>
      <trkpt lat="48.00321" lon="-3.72035">
        <ele>160.8</ele>
        <time>2020-06-07T15:40:55Z</time>
      </trkpt>
      <trkpt lat="48.00327" lon="-3.72036">
        <ele>160.8</ele>
        <time>2020-06-07T15:40:56Z</time>
      </trkpt>
      <trkpt lat="48.00332" lon="-3.72036">
        <ele>160.8</ele>
        <time>2020-06-07T15:40:57Z</time>
      </trkpt>
      <trkpt lat="48.00338" lon="-3.72037">
        <ele>160.8</ele>
        <time>2020-06-07T15:40:58Z</time>
      </trkpt>
      <trkpt lat="48.00343" lon="-3.72039">
        <ele>160.8</ele>
        <time>2020-06-07T15:40:59Z</time>
      </trkpt>
      <trkpt lat="48.00349" lon="-3.7204">
        <ele>160.9</ele>
        <time>2020-06-07T15:41:00Z</time>
      </trkpt>
      <trkpt lat="48.00354" lon="-3.72042">
        <ele>160.9</ele>
        <time>2020-06-07T15:41:01Z</time>
      </trkpt>
      <trkpt lat="48.0036" lon="-3.72043">
        <ele>160.9</ele>
        <time>2020-06-07T15:41:02Z</time>
      </trkpt>
      <trkpt lat="48.00365" lon="-3.72045">
        <ele>160.9</ele>
        <time>2020-06-07T15:41:03Z</time>
      </trkpt>
      <trkpt lat="48.00371" lon="-3.72046">
        <ele>161</ele>
        <time>2020-06-07T15:41:04Z</time>
      </trkpt>
      <trkpt lat="48.00376" lon="-3.72047">
        <ele>161</ele>
        <time>2020-06-07T15:41:05Z</time>
      </trkpt>
      <trkpt lat="48.00382" lon="-3.72046">
        <ele>161</ele>
        <time>2020-06-07T15:41:06Z</time>
      </trkpt>
      <trkpt lat="48.00387" lon="-3.72047">
        <ele>161.1</ele>
        <time>2020-06-07T15:41:07Z</time>
      </trkpt>
      <trkpt lat="48.00393" lon="-3.72047">
        <ele>161.1</ele>
        <time>2020-06-07T15:41:08Z</time>
      </trkpt>
      <trkpt lat="48.00398" lon="-3.72048">
        <ele>161.1</ele>
        <time>2020-06-07T15:41:09Z</time>
      </trkpt>
      <trkpt lat="48.00404" lon="-3.72048">
        <ele>161.1</ele>
        <time>2020-06-07T15:41:10Z</time>
      </trkpt>
      <trkpt lat="48.00409" lon="-3.72049">
        <ele>161.1</ele>
        <time>2020-06-07T15:41:11Z</time>
      </trkpt>
      <trkpt lat="48.00415" lon="-3.7205">
        <ele>161.1</ele>
        <time>2020-06-07T15:41:12Z</time>
      </trkpt>
      <trkpt lat="48.0042" lon="-3.72051">
        <ele>161.1</ele>
        <time>2020-06-07T15:41:13Z</time>
      </trkpt>
      <trkpt lat="48.00426" lon="-3.72052">
        <ele>161.1</ele>
        <time>2020-06-07T15:41:14Z</time>
      </trkpt>
      <trkpt lat="48.00431" lon="-3.72053">
        <ele>161.2</ele>
        <time>2020-06-07T15:41:15Z</time>
      </trkpt>
      <trkpt lat="48.00436" lon="-3.72053">
        <ele>161.2</ele>
        <time>2020-06-07T15:41:16Z</time>
      </trkpt>
      <trkpt lat="48.00442" lon="-3.72054">
        <ele>161.2</ele>
        <time>2020-06-07T15:41:17Z</time>
      </trkpt>
      <trkpt lat="48.00447" lon="-3.72054">
        <ele>161.2</ele>
        <time>2020-06-07T15:41:18Z</time>
      </trkpt>
      <trkpt lat="48.00453" lon="-3.72055">
        <ele>161.2</ele>
        <time>2020-06-07T15:41:19Z</time>
      </trkpt>
      <trkpt lat="48.00458" lon="-3.72056">
        <ele>161.2</ele>
        <time>2020-06-07T15:41:20Z</time>
      </trkpt>
      <trkpt lat="48.00464" lon="-3.72057">
        <ele>161.3</ele>
        <time>2020-06-07T15:41:21Z</time>
      </trkpt>
      <trkpt lat="48.00469" lon="-3.72058">
        <ele>161.3</ele>
        <time>2020-06-07T15:41:22Z</time>
      </trkpt>
      <trkpt lat="48.00475" lon="-3.72059">
        <ele>161.4</ele>
        <time>2020-06-07T15:41:23Z</time>
      </trkpt>
      <trkpt lat="48.00481" lon="-3.7206">
        <ele>161.4</ele>
        <time>2020-06-07T15:41:24Z</time>
      </trkpt>
      <trkpt lat="48.00486" lon="-3.7206">
        <ele>161.5</ele>
        <time>2020-06-07T15:41:25Z</time>
      </trkpt>
      <trkpt lat="48.00492" lon="-3.72059">
        <ele>161.5</ele>
        <time>2020-06-07T15:41:26Z</time>
      </trkpt>
      <trkpt lat="48.00497" lon="-3.72059">
        <ele>161.6</ele>
        <time>2020-06-07T15:41:27Z</time>
      </trkpt>
      <trkpt lat="48.00503" lon="-3.72059">
        <ele>161.7</ele>
        <time>2020-06-07T15:41:28Z</time>
      </trkpt>
      <trkpt lat="48.00508" lon="-3.7206">
        <ele>161.7</ele>
        <time>2020-06-07T15:41:29Z</time>
      </trkpt>
      <trkpt lat="48.00514" lon="-3.7206">
        <ele>161.8</ele>
        <time>2020-06-07T15:41:30Z</time>
      </trkpt>
      <trkpt lat="48.00519" lon="-3.72061">
        <ele>161.8</ele>
        <time>2020-06-07T15:41:31Z</time>
      </trkpt>
      <trkpt lat="48.00524" lon="-3.72061">
        <ele>161.9</ele>
        <time>2020-06-07T15:41:32Z</time>
      </trkpt>
      <trkpt lat="48.00528" lon="-3.72061">
        <ele>161.9</ele>
        <time>2020-06-07T15:41:33Z</time>
      </trkpt>
      <trkpt lat="48.00533" lon="-3.7206">
        <ele>161.9</ele>
        <time>2020-06-07T15:41:34Z</time>
      </trkpt>
      <trkpt lat="48.00538" lon="-3.72061">
        <ele>162</ele>
        <time>2020-06-07T15:41:35Z</time>
      </trkpt>
      <trkpt lat="48.00542" lon="-3.7206">
        <ele>162</ele>
        <time>2020-06-07T15:41:36Z</time>
      </trkpt>
      <trkpt lat="48.00547" lon="-3.72061">
        <ele>162.1</ele>
        <time>2020-06-07T15:41:37Z</time>
      </trkpt>
      <trkpt lat="48.00552" lon="-3.72061">
        <ele>162.2</ele>
        <time>2020-06-07T15:41:38Z</time>
      </trkpt>
      <trkpt lat="48.00557" lon="-3.7206">
        <ele>162.2</ele>
        <time>2020-06-07T15:41:39Z</time>
      </trkpt>
      <trkpt lat="48.00562" lon="-3.72061">
        <ele>162.3</ele>
        <time>2020-06-07T15:41:40Z</time>
      </trkpt>
      <trkpt lat="48.00567" lon="-3.72061">
        <ele>162.3</ele>
        <time>2020-06-07T15:41:41Z</time>
      </trkpt>
      <trkpt lat="48.00572" lon="-3.7206">
        <ele>162.4</ele>
        <time>2020-06-07T15:41:42Z</time>
      </trkpt>
      <trkpt lat="48.00576" lon="-3.7206">
        <ele>162.4</ele>
        <time>2020-06-07T15:41:43Z</time>
      </trkpt>
      <trkpt lat="48.00581" lon="-3.7206">
        <ele>162.5</ele>
        <time>2020-06-07T15:41:44Z</time>
      </trkpt>
      <trkpt lat="48.00586" lon="-3.7206">
        <ele>162.6</ele>
        <time>2020-06-07T15:41:45Z</time>
      </trkpt>
      <trkpt lat="48.00591" lon="-3.72059">
        <ele>162.6</ele>
        <time>2020-06-07T15:41:46Z</time>
      </trkpt>
      <trkpt lat="48.00596" lon="-3.7206">
        <ele>162.7</ele>
        <time>2020-06-07T15:41:47Z</time>
      </trkpt>
      <trkpt lat="48.00601" lon="-3.72061">
        <ele>162.9</ele>
        <time>2020-06-07T15:41:48Z</time>
      </trkpt>
      <trkpt lat="48.00606" lon="-3.72062">
        <ele>163</ele>
        <time>2020-06-07T15:41:49Z</time>
      </trkpt>
      <trkpt lat="48.0061" lon="-3.72063">
        <ele>163.1</ele>
        <time>2020-06-07T15:41:50Z</time>
      </trkpt>
      <trkpt lat="48.00614" lon="-3.72064">
        <ele>163.2</ele>
        <time>2020-06-07T15:41:51Z</time>
      </trkpt>
      <trkpt lat="48.00618" lon="-3.72063">
        <ele>163.3</ele>
        <time>2020-06-07T15:41:52Z</time>
      </trkpt>
      <trkpt lat="48.00623" lon="-3.72062">
        <ele>163.5</ele>
        <time>2020-06-07T15:41:53Z</time>
      </trkpt>
      <trkpt lat="48.00628" lon="-3.72062">
        <ele>163.6</ele>
        <time>2020-06-07T15:41:54Z</time>
      </trkpt>
      <trkpt lat="48.00633" lon="-3.7206">
        <ele>163.7</ele>
        <time>2020-06-07T15:41:55Z</time>
      </trkpt>
      <trkpt lat="48.00638" lon="-3.7206">
        <ele>163.8</ele>
        <time>2020-06-07T15:41:56Z</time>
      </trkpt>
      <trkpt lat="48.00642" lon="-3.7206">
        <ele>164</ele>
        <time>2020-06-07T15:41:57Z</time>
      </trkpt>
      <trkpt lat="48.00647" lon="-3.7206">
        <ele>164.1</ele>
        <time>2020-06-07T15:41:58Z</time>
      </trkpt>
      <trkpt lat="48.00651" lon="-3.7206">
        <ele>164.2</ele>
        <time>2020-06-07T15:41:59Z</time>
      </trkpt>
      <trkpt lat="48.00655" lon="-3.72059">
        <ele>164.3</ele>
        <time>2020-06-07T15:42:00Z</time>
      </trkpt>
      <trkpt lat="48.0066" lon="-3.72058">
        <ele>164.4</ele>
        <time>2020-06-07T15:42:01Z</time>
      </trkpt>
      <trkpt lat="48.00664" lon="-3.72057">
        <ele>164.5</ele>
        <time>2020-06-07T15:42:02Z</time>
      </trkpt>
      <trkpt lat="48.00669" lon="-3.72056">
        <ele>164.6</ele>
        <time>2020-06-07T15:42:03Z</time>
      </trkpt>
      <trkpt lat="48.00673" lon="-3.72056">
        <ele>164.6</ele>
        <time>2020-06-07T15:42:04Z</time>
      </trkpt>
      <trkpt lat="48.00678" lon="-3.72056">
        <ele>164.7</ele>
        <time>2020-06-07T15:42:05Z</time>
      </trkpt>
      <trkpt lat="48.00683" lon="-3.72056">
        <ele>164.8</ele>
        <time>2020-06-07T15:42:06Z</time>
      </trkpt>
      <trkpt lat="48.00687" lon="-3.72058">
        <ele>164.8</ele>
        <time>2020-06-07T15:42:07Z</time>
      </trkpt>
      <trkpt lat="48.00692" lon="-3.72055">
        <ele>164.9</ele>
        <time>2020-06-07T15:42:08Z</time>
      </trkpt>
      <trkpt lat="48.00696" lon="-3.72051">
        <ele>165</ele>
        <time>2020-06-07T15:42:09Z</time>
      </trkpt>
      <trkpt lat="48.007" lon="-3.72047">
        <ele>165.1</ele>
        <time>2020-06-07T15:42:10Z</time>
      </trkpt>
      <trkpt lat="48.00705" lon="-3.72045">
        <ele>165.2</ele>
        <time>2020-06-07T15:42:11Z</time>
      </trkpt>
      <trkpt lat="48.00709" lon="-3.72046">
        <ele>165.3</ele>
        <time>2020-06-07T15:42:12Z</time>
      </trkpt>
      <trkpt lat="48.00714" lon="-3.72046">
        <ele>165.4</ele>
        <time>2020-06-07T15:42:13Z</time>
      </trkpt>
      <trkpt lat="48.00718" lon="-3.72047">
        <ele>165.5</ele>
        <time>2020-06-07T15:42:14Z</time>
      </trkpt>
      <trkpt lat="48.00721" lon="-3.72048">
        <ele>165.6</ele>
        <time>2020-06-07T15:42:15Z</time>
      </trkpt>
      <trkpt lat="48.00726" lon="-3.72048">
        <ele>165.8</ele>
        <time>2020-06-07T15:42:16Z</time>
      </trkpt>
      <trkpt lat="48.0073" lon="-3.72049">
        <ele>165.9</ele>
        <time>2020-06-07T15:42:17Z</time>
      </trkpt>
      <trkpt lat="48.00736" lon="-3.7205">
        <ele>166</ele>
        <time>2020-06-07T15:42:18Z</time>
      </trkpt>
      <trkpt lat="48.00742" lon="-3.7205">
        <ele>166.2</ele>
        <time>2020-06-07T15:42:19Z</time>
      </trkpt>
      <trkpt lat="48.00746" lon="-3.72051">
        <ele>166.3</ele>
        <time>2020-06-07T15:42:20Z</time>
      </trkpt>
      <trkpt lat="48.00752" lon="-3.72052">
        <ele>166.5</ele>
        <time>2020-06-07T15:42:21Z</time>
      </trkpt>
      <trkpt lat="48.00759" lon="-3.72053">
        <ele>166.6</ele>
        <time>2020-06-07T15:42:22Z</time>
      </trkpt>
      <trkpt lat="48.00766" lon="-3.72055">
        <ele>166.8</ele>
        <time>2020-06-07T15:42:23Z</time>
      </trkpt>
      <trkpt lat="48.00772" lon="-3.72056">
        <ele>167</ele>
        <time>2020-06-07T15:42:24Z</time>
      </trkpt>
      <trkpt lat="48.00779" lon="-3.72055">
        <ele>167.1</ele>
        <time>2020-06-07T15:42:25Z</time>
      </trkpt>
      <trkpt lat="48.00786" lon="-3.72055">
        <ele>167.3</ele>
        <time>2020-06-07T15:42:26Z</time>
      </trkpt>
      <trkpt lat="48.00791" lon="-3.72054">
        <ele>167.4</ele>
        <time>2020-06-07T15:42:27Z</time>
      </trkpt>
      <trkpt lat="48.00796" lon="-3.72053">
        <ele>167.6</ele>
        <time>2020-06-07T15:42:28Z</time>
      </trkpt>
      <trkpt lat="48.00801" lon="-3.72052">
        <ele>167.7</ele>
        <time>2020-06-07T15:42:29Z</time>
      </trkpt>
      <trkpt lat="48.00807" lon="-3.72052">
        <ele>167.8</ele>
        <time>2020-06-07T15:42:30Z</time>
      </trkpt>
      <trkpt lat="48.00811" lon="-3.72051">
        <ele>168</ele>
        <time>2020-06-07T15:42:31Z</time>
      </trkpt>
      <trkpt lat="48.00815" lon="-3.7205">
        <ele>168.1</ele>
        <time>2020-06-07T15:42:32Z</time>
      </trkpt>
      <trkpt lat="48.00819" lon="-3.72049">
        <ele>168.2</ele>
        <time>2020-06-07T15:42:33Z</time>
      </trkpt>
      <trkpt lat="48.00825" lon="-3.72049">
        <ele>168.4</ele>
        <time>2020-06-07T15:42:34Z</time>
      </trkpt>
      <trkpt lat="48.00829" lon="-3.72049">
        <ele>168.5</ele>
        <time>2020-06-07T15:42:35Z</time>
      </trkpt>
      <trkpt lat="48.00834" lon="-3.72049">
        <ele>168.6</ele>
        <time>2020-06-07T15:42:36Z</time>
      </trkpt>
      <trkpt lat="48.00839" lon="-3.7205">
        <ele>168.8</ele>
        <time>2020-06-07T15:42:37Z</time>
      </trkpt>
      <trkpt lat="48.00844" lon="-3.7205">
        <ele>168.9</ele>
        <time>2020-06-07T15:42:38Z</time>
      </trkpt>
      <trkpt lat="48.00848" lon="-3.72049">
        <ele>169</ele>
        <time>2020-06-07T15:42:39Z</time>
      </trkpt>
      <trkpt lat="48.00853" lon="-3.72049">
        <ele>169.1</ele>
        <time>2020-06-07T15:42:40Z</time>
      </trkpt>
      <trkpt lat="48.00857" lon="-3.7205">
        <ele>169.2</ele>
        <time>2020-06-07T15:42:41Z</time>
      </trkpt>
      <trkpt lat="48.00863" lon="-3.72051">
        <ele>169.3</ele>
        <time>2020-06-07T15:42:42Z</time>
      </trkpt>
      <trkpt lat="48.00867" lon="-3.7205">
        <ele>169.4</ele>
        <time>2020-06-07T15:42:43Z</time>
      </trkpt>
      <trkpt lat="48.00873" lon="-3.7205">
        <ele>169.6</ele>
        <time>2020-06-07T15:42:44Z</time>
      </trkpt>
      <trkpt lat="48.00878" lon="-3.72051">
        <ele>169.7</ele>
        <time>2020-06-07T15:42:45Z</time>
      </trkpt>
      <trkpt lat="48.00884" lon="-3.7205">
        <ele>169.9</ele>
        <time>2020-06-07T15:42:46Z</time>
      </trkpt>
      <trkpt lat="48.00889" lon="-3.72051">
        <ele>170.1</ele>
        <time>2020-06-07T15:42:47Z</time>
      </trkpt>
      <trkpt lat="48.00894" lon="-3.7205">
        <ele>170.2</ele>
        <time>2020-06-07T15:42:48Z</time>
      </trkpt>
      <trkpt lat="48.00898" lon="-3.7205">
        <ele>170.3</ele>
        <time>2020-06-07T15:42:49Z</time>
      </trkpt>
      <trkpt lat="48.00902" lon="-3.7205">
        <ele>170.4</ele>
        <time>2020-06-07T15:42:50Z</time>
      </trkpt>
      <trkpt lat="48.00906" lon="-3.7205">
        <ele>170.5</ele>
        <time>2020-06-07T15:42:51Z</time>
      </trkpt>
      <trkpt lat="48.00911" lon="-3.7205">
        <ele>170.7</ele>
        <time>2020-06-07T15:42:52Z</time>
      </trkpt>
      <trkpt lat="48.00915" lon="-3.7205">
        <ele>170.8</ele>
        <time>2020-06-07T15:42:53Z</time>
      </trkpt>
      <trkpt lat="48.0092" lon="-3.7205">
        <ele>170.9</ele>
        <time>2020-06-07T15:42:54Z</time>
      </trkpt>
      <trkpt lat="48.00924" lon="-3.7205">
        <ele>171</ele>
        <time>2020-06-07T15:42:55Z</time>
      </trkpt>
      <trkpt lat="48.00928" lon="-3.72051">
        <ele>171.1</ele>
        <time>2020-06-07T15:42:56Z</time>
      </trkpt>
      <trkpt lat="48.00931" lon="-3.72051">
        <ele>171.2</ele>
        <time>2020-06-07T15:42:57Z</time>
      </trkpt>
      <trkpt lat="48.00935" lon="-3.72051">
        <ele>171.3</ele>
        <time>2020-06-07T15:42:58Z</time>
      </trkpt>
      <trkpt lat="48.0094" lon="-3.72052">
        <ele>171.4</ele>
        <time>2020-06-07T15:42:59Z</time>
      </trkpt>
      <trkpt lat="48.00944" lon="-3.72053">
        <ele>171.5</ele>
        <time>2020-06-07T15:43:00Z</time>
      </trkpt>
      <trkpt lat="48.00946" lon="-3.72054">
        <ele>171.6</ele>
        <time>2020-06-07T15:43:01Z</time>
      </trkpt>
      <trkpt lat="48.00951" lon="-3.72054">
        <ele>171.7</ele>
        <time>2020-06-07T15:43:02Z</time>
      </trkpt>
      <trkpt lat="48.00955" lon="-3.72052">
        <ele>171.8</ele>
        <time>2020-06-07T15:43:03Z</time>
      </trkpt>
      <trkpt lat="48.00959" lon="-3.72053">
        <ele>171.9</ele>
        <time>2020-06-07T15:43:04Z</time>
      </trkpt>
      <trkpt lat="48.00964" lon="-3.72053">
        <ele>171.9</ele>
        <time>2020-06-07T15:43:05Z</time>
      </trkpt>
      <trkpt lat="48.00969" lon="-3.72053">
        <ele>172</ele>
        <time>2020-06-07T15:43:06Z</time>
      </trkpt>
      <trkpt lat="48.00975" lon="-3.72053">
        <ele>172.1</ele>
        <time>2020-06-07T15:43:07Z</time>
      </trkpt>
      <trkpt lat="48.00979" lon="-3.72053">
        <ele>172.2</ele>
        <time>2020-06-07T15:43:08Z</time>
      </trkpt>
      <trkpt lat="48.00983" lon="-3.72052">
        <ele>172.3</ele>
        <time>2020-06-07T15:43:09Z</time>
      </trkpt>
      <trkpt lat="48.00989" lon="-3.72052">
        <ele>172.5</ele>
        <time>2020-06-07T15:43:10Z</time>
      </trkpt>
      <trkpt lat="48.00993" lon="-3.72052">
        <ele>172.6</ele>
        <time>2020-06-07T15:43:11Z</time>
      </trkpt>
      <trkpt lat="48.00997" lon="-3.72052">
        <ele>172.7</ele>
        <time>2020-06-07T15:43:12Z</time>
      </trkpt>
      <trkpt lat="48.01001" lon="-3.72052">
        <ele>172.8</ele>
        <time>2020-06-07T15:43:13Z</time>
      </trkpt>
      <trkpt lat="48.01005" lon="-3.72053">
        <ele>172.9</ele>
        <time>2020-06-07T15:43:14Z</time>
      </trkpt>
      <trkpt lat="48.01009" lon="-3.72053">
        <ele>173.1</ele>
        <time>2020-06-07T15:43:15Z</time>
      </trkpt>
      <trkpt lat="48.01014" lon="-3.72053">
        <ele>173.2</ele>
        <time>2020-06-07T15:43:16Z</time>
      </trkpt>
      <trkpt lat="48.01018" lon="-3.72052">
        <ele>173.3</ele>
        <time>2020-06-07T15:43:17Z</time>
      </trkpt>
      <trkpt lat="48.01022" lon="-3.72052">
        <ele>173.5</ele>
        <time>2020-06-07T15:43:18Z</time>
      </trkpt>
      <trkpt lat="48.01026" lon="-3.72052">
        <ele>173.6</ele>
        <time>2020-06-07T15:43:19Z</time>
      </trkpt>
      <trkpt lat="48.01031" lon="-3.72052">
        <ele>173.9</ele>
        <time>2020-06-07T15:43:20Z</time>
      </trkpt>
      <trkpt lat="48.01036" lon="-3.72052">
        <ele>174</ele>
        <time>2020-06-07T15:43:21Z</time>
      </trkpt>
      <trkpt lat="48.0104" lon="-3.72052">
        <ele>174</ele>
        <time>2020-06-07T15:43:22Z</time>
      </trkpt>
      <trkpt lat="48.01044" lon="-3.72052">
        <ele>174.1</ele>
        <time>2020-06-07T15:43:23Z</time>
      </trkpt>
      <trkpt lat="48.01049" lon="-3.72052">
        <ele>174.2</ele>
        <time>2020-06-07T15:43:24Z</time>
      </trkpt>
      <trkpt lat="48.01053" lon="-3.72053">
        <ele>174.3</ele>
        <time>2020-06-07T15:43:25Z</time>
      </trkpt>
      <trkpt lat="48.01058" lon="-3.72054">
        <ele>174.4</ele>
        <time>2020-06-07T15:43:26Z</time>
      </trkpt>
      <trkpt lat="48.01062" lon="-3.72054">
        <ele>174.5</ele>
        <time>2020-06-07T15:43:27Z</time>
      </trkpt>
      <trkpt lat="48.01066" lon="-3.72054">
        <ele>174.6</ele>
        <time>2020-06-07T15:43:28Z</time>
      </trkpt>
      <trkpt lat="48.01071" lon="-3.72054">
        <ele>174.7</ele>
        <time>2020-06-07T15:43:29Z</time>
      </trkpt>
      <trkpt lat="48.01075" lon="-3.72054">
        <ele>174.8</ele>
        <time>2020-06-07T15:43:30Z</time>
      </trkpt>
      <trkpt lat="48.01078" lon="-3.72052">
        <ele>174.9</ele>
        <time>2020-06-07T15:43:31Z</time>
      </trkpt>
      <trkpt lat="48.01083" lon="-3.72052">
        <ele>175</ele>
        <time>2020-06-07T15:43:32Z</time>
      </trkpt>
      <trkpt lat="48.01087" lon="-3.72052">
        <ele>175.1</ele>
        <time>2020-06-07T15:43:33Z</time>
      </trkpt>
      <trkpt lat="48.01091" lon="-3.72051">
        <ele>175.3</ele>
        <time>2020-06-07T15:43:34Z</time>
      </trkpt>
      <trkpt lat="48.01096" lon="-3.72051">
        <ele>175.4</ele>
        <time>2020-06-07T15:43:35Z</time>
      </trkpt>
      <trkpt lat="48.011" lon="-3.72051">
        <ele>175.5</ele>
        <time>2020-06-07T15:43:36Z</time>
      </trkpt>
      <trkpt lat="48.01103" lon="-3.72049">
        <ele>175.6</ele>
        <time>2020-06-07T15:43:37Z</time>
      </trkpt>
      <trkpt lat="48.01108" lon="-3.72048">
        <ele>175.7</ele>
        <time>2020-06-07T15:43:38Z</time>
      </trkpt>
      <trkpt lat="48.01114" lon="-3.72049">
        <ele>175.8</ele>
        <time>2020-06-07T15:43:39Z</time>
      </trkpt>
      <trkpt lat="48.0112" lon="-3.7205">
        <ele>176</ele>
        <time>2020-06-07T15:43:40Z</time>
      </trkpt>
      <trkpt lat="48.01125" lon="-3.7205">
        <ele>176.1</ele>
        <time>2020-06-07T15:43:41Z</time>
      </trkpt>
      <trkpt lat="48.01129" lon="-3.72052">
        <ele>176.2</ele>
        <time>2020-06-07T15:43:42Z</time>
      </trkpt>
      <trkpt lat="48.01133" lon="-3.72052">
        <ele>176.2</ele>
        <time>2020-06-07T15:43:43Z</time>
      </trkpt>
      <trkpt lat="48.01138" lon="-3.72051">
        <ele>176.3</ele>
        <time>2020-06-07T15:43:44Z</time>
      </trkpt>
      <trkpt lat="48.01142" lon="-3.7205">
        <ele>176.4</ele>
        <time>2020-06-07T15:43:45Z</time>
      </trkpt>
      <trkpt lat="48.01145" lon="-3.72049">
        <ele>176.5</ele>
        <time>2020-06-07T15:43:46Z</time>
      </trkpt>
      <trkpt lat="48.01148" lon="-3.72048">
        <ele>176.5</ele>
        <time>2020-06-07T15:43:47Z</time>
      </trkpt>
      <trkpt lat="48.01152" lon="-3.72047">
        <ele>176.6</ele>
        <time>2020-06-07T15:43:48Z</time>
      </trkpt>
      <trkpt lat="48.01156" lon="-3.72046">
        <ele>176.7</ele>
        <time>2020-06-07T15:43:49Z</time>
      </trkpt>
      <trkpt lat="48.0116" lon="-3.72047">
        <ele>176.7</ele>
        <time>2020-06-07T15:43:50Z</time>
      </trkpt>
      <trkpt lat="48.01165" lon="-3.72048">
        <ele>176.8</ele>
        <time>2020-06-07T15:43:51Z</time>
      </trkpt>
      <trkpt lat="48.0117" lon="-3.72048">
        <ele>176.9</ele>
        <time>2020-06-07T15:43:52Z</time>
      </trkpt>
      <trkpt lat="48.01174" lon="-3.72048">
        <ele>177</ele>
        <time>2020-06-07T15:43:53Z</time>
      </trkpt>
      <trkpt lat="48.01178" lon="-3.72048">
        <ele>177</ele>
        <time>2020-06-07T15:43:54Z</time>
      </trkpt>
      <trkpt lat="48.01182" lon="-3.72048">
        <ele>177.1</ele>
        <time>2020-06-07T15:43:55Z</time>
      </trkpt>
      <trkpt lat="48.01186" lon="-3.72048">
        <ele>177.2</ele>
        <time>2020-06-07T15:43:56Z</time>
      </trkpt>
      <trkpt lat="48.01191" lon="-3.72047">
        <ele>177.3</ele>
        <time>2020-06-07T15:43:57Z</time>
      </trkpt>
      <trkpt lat="48.01196" lon="-3.72046">
        <ele>177.4</ele>
        <time>2020-06-07T15:43:58Z</time>
      </trkpt>
      <trkpt lat="48.01201" lon="-3.72046">
        <ele>177.5</ele>
        <time>2020-06-07T15:43:59Z</time>
      </trkpt>
      <trkpt lat="48.01205" lon="-3.72045">
        <ele>177.6</ele>
        <time>2020-06-07T15:44:00Z</time>
      </trkpt>
      <trkpt lat="48.0121" lon="-3.72045">
        <ele>177.7</ele>
        <time>2020-06-07T15:44:01Z</time>
      </trkpt>
      <trkpt lat="48.01214" lon="-3.72045">
        <ele>177.8</ele>
        <time>2020-06-07T15:44:02Z</time>
      </trkpt>
      <trkpt lat="48.0122" lon="-3.72045">
        <ele>177.9</ele>
        <time>2020-06-07T15:44:03Z</time>
      </trkpt>
      <trkpt lat="48.01224" lon="-3.72045">
        <ele>178</ele>
        <time>2020-06-07T15:44:04Z</time>
      </trkpt>
      <trkpt lat="48.01228" lon="-3.72043">
        <ele>178</ele>
        <time>2020-06-07T15:44:05Z</time>
      </trkpt>
      <trkpt lat="48.01231" lon="-3.72043">
        <ele>178.1</ele>
        <time>2020-06-07T15:44:06Z</time>
      </trkpt>
      <trkpt lat="48.01236" lon="-3.72043">
        <ele>178.2</ele>
        <time>2020-06-07T15:44:07Z</time>
      </trkpt>
      <trkpt lat="48.01242" lon="-3.72043">
        <ele>178.3</ele>
        <time>2020-06-07T15:44:08Z</time>
      </trkpt>
      <trkpt lat="48.01246" lon="-3.72044">
        <ele>178.4</ele>
        <time>2020-06-07T15:44:09Z</time>
      </trkpt>
      <trkpt lat="48.01251" lon="-3.72044">
        <ele>178.5</ele>
        <time>2020-06-07T15:44:10Z</time>
      </trkpt>
      <trkpt lat="48.01257" lon="-3.72044">
        <ele>178.7</ele>
        <time>2020-06-07T15:44:11Z</time>
      </trkpt>
      <trkpt lat="48.01262" lon="-3.72042">
        <ele>178.8</ele>
        <time>2020-06-07T15:44:12Z</time>
      </trkpt>
      <trkpt lat="48.01266" lon="-3.72043">
        <ele>178.9</ele>
        <time>2020-06-07T15:44:13Z</time>
      </trkpt>
      <trkpt lat="48.0127" lon="-3.72043">
        <ele>179</ele>
        <time>2020-06-07T15:44:14Z</time>
      </trkpt>
      <trkpt lat="48.01275" lon="-3.72043">
        <ele>179.1</ele>
        <time>2020-06-07T15:44:15Z</time>
      </trkpt>
      <trkpt lat="48.01279" lon="-3.72044">
        <ele>179.2</ele>
        <time>2020-06-07T15:44:16Z</time>
      </trkpt>
      <trkpt lat="48.01282" lon="-3.72044">
        <ele>179.2</ele>
        <time>2020-06-07T15:44:17Z</time>
      </trkpt>
      <trkpt lat="48.01287" lon="-3.72044">
        <ele>179.3</ele>
        <time>2020-06-07T15:44:18Z</time>
      </trkpt>
      <trkpt lat="48.01291" lon="-3.72044">
        <ele>179.4</ele>
        <time>2020-06-07T15:44:19Z</time>
      </trkpt>
      <trkpt lat="48.01294" lon="-3.72045">
        <ele>179.5</ele>
        <time>2020-06-07T15:44:20Z</time>
      </trkpt>
      <trkpt lat="48.01298" lon="-3.72045">
        <ele>179.6</ele>
        <time>2020-06-07T15:44:21Z</time>
      </trkpt>
      <trkpt lat="48.01303" lon="-3.72045">
        <ele>179.8</ele>
        <time>2020-06-07T15:44:22Z</time>
      </trkpt>
      <trkpt lat="48.01308" lon="-3.72045">
        <ele>179.9</ele>
        <time>2020-06-07T15:44:23Z</time>
      </trkpt>
      <trkpt lat="48.01313" lon="-3.72044">
        <ele>180</ele>
        <time>2020-06-07T15:44:24Z</time>
      </trkpt>
      <trkpt lat="48.01317" lon="-3.72044">
        <ele>180.1</ele>
        <time>2020-06-07T15:44:25Z</time>
      </trkpt>
      <trkpt lat="48.01322" lon="-3.72045">
        <ele>180.3</ele>
        <time>2020-06-07T15:44:26Z</time>
      </trkpt>
      <trkpt lat="48.01327" lon="-3.72046">
        <ele>180.4</ele>
        <time>2020-06-07T15:44:27Z</time>
      </trkpt>
      <trkpt lat="48.01333" lon="-3.72046">
        <ele>180.5</ele>
        <time>2020-06-07T15:44:28Z</time>
      </trkpt>
      <trkpt lat="48.01337" lon="-3.72046">
        <ele>180.6</ele>
        <time>2020-06-07T15:44:29Z</time>
      </trkpt>
      <trkpt lat="48.01341" lon="-3.72046">
        <ele>180.7</ele>
        <time>2020-06-07T15:44:30Z</time>
      </trkpt>
      <trkpt lat="48.01344" lon="-3.72046">
        <ele>180.8</ele>
        <time>2020-06-07T15:44:31Z</time>
      </trkpt>
      <trkpt lat="48.01349" lon="-3.72046">
        <ele>180.9</ele>
        <time>2020-06-07T15:44:32Z</time>
      </trkpt>
      <trkpt lat="48.01352" lon="-3.72047">
        <ele>181</ele>
        <time>2020-06-07T15:44:33Z</time>
      </trkpt>
      <trkpt lat="48.01354" lon="-3.72047">
        <ele>181</ele>
        <time>2020-06-07T15:44:34Z</time>
      </trkpt>
      <trkpt lat="48.01357" lon="-3.72047">
        <ele>181.1</ele>
        <time>2020-06-07T15:44:35Z</time>
      </trkpt>
      <trkpt lat="48.01361" lon="-3.72047">
        <ele>181.1</ele>
        <time>2020-06-07T15:44:36Z</time>
      </trkpt>
      <trkpt lat="48.01366" lon="-3.72047">
        <ele>181.2</ele>
        <time>2020-06-07T15:44:37Z</time>
      </trkpt>
      <trkpt lat="48.01372" lon="-3.72047">
        <ele>181.3</ele>
        <time>2020-06-07T15:44:38Z</time>
      </trkpt>
      <trkpt lat="48.01376" lon="-3.72046">
        <ele>181.4</ele>
        <time>2020-06-07T15:44:39Z</time>
      </trkpt>
      <trkpt lat="48.01381" lon="-3.72046">
        <ele>181.5</ele>
        <time>2020-06-07T15:44:40Z</time>
      </trkpt>
      <trkpt lat="48.01387" lon="-3.72044">
        <ele>181.7</ele>
        <time>2020-06-07T15:44:41Z</time>
      </trkpt>
      <trkpt lat="48.0139" lon="-3.72045">
        <ele>181.8</ele>
        <time>2020-06-07T15:44:42Z</time>
      </trkpt>
      <trkpt lat="48.01395" lon="-3.72046">
        <ele>182</ele>
        <time>2020-06-07T15:44:43Z</time>
      </trkpt>
      <trkpt lat="48.014" lon="-3.72046">
        <ele>182.1</ele>
        <time>2020-06-07T15:44:44Z</time>
      </trkpt>
      <trkpt lat="48.01403" lon="-3.72047">
        <ele>182.2</ele>
        <time>2020-06-07T15:44:45Z</time>
      </trkpt>
      <trkpt lat="48.01408" lon="-3.72047">
        <ele>182.5</ele>
        <time>2020-06-07T15:44:46Z</time>
      </trkpt>
      <trkpt lat="48.01414" lon="-3.72047">
        <ele>182.6</ele>
        <time>2020-06-07T15:44:47Z</time>
      </trkpt>
      <trkpt lat="48.01418" lon="-3.72049">
        <ele>182.7</ele>
        <time>2020-06-07T15:44:48Z</time>
      </trkpt>
      <trkpt lat="48.01423" lon="-3.7205">
        <ele>182.8</ele>
        <time>2020-06-07T15:44:49Z</time>
      </trkpt>
      <trkpt lat="48.01427" lon="-3.72051">
        <ele>182.9</ele>
        <time>2020-06-07T15:44:50Z</time>
      </trkpt>
      <trkpt lat="48.01432" lon="-3.72052">
        <ele>183</ele>
        <time>2020-06-07T15:44:51Z</time>
      </trkpt>
      <trkpt lat="48.01436" lon="-3.72054">
        <ele>183.1</ele>
        <time>2020-06-07T15:44:52Z</time>
      </trkpt>
      <trkpt lat="48.0144" lon="-3.72055">
        <ele>183.2</ele>
        <time>2020-06-07T15:44:53Z</time>
      </trkpt>
      <trkpt lat="48.01443" lon="-3.72057">
        <ele>183.3</ele>
        <time>2020-06-07T15:44:54Z</time>
      </trkpt>
      <trkpt lat="48.01447" lon="-3.72059">
        <ele>183.4</ele>
        <time>2020-06-07T15:44:55Z</time>
      </trkpt>
      <trkpt lat="48.01451" lon="-3.7206">
        <ele>183.5</ele>
        <time>2020-06-07T15:44:56Z</time>
      </trkpt>
      <trkpt lat="48.01454" lon="-3.7206">
        <ele>183.6</ele>
        <time>2020-06-07T15:44:57Z</time>
      </trkpt>
      <trkpt lat="48.01457" lon="-3.7206">
        <ele>183.6</ele>
        <time>2020-06-07T15:44:58Z</time>
      </trkpt>
      <trkpt lat="48.01461" lon="-3.72061">
        <ele>183.7</ele>
        <time>2020-06-07T15:44:59Z</time>
      </trkpt>
      <trkpt lat="48.01462" lon="-3.72061">
        <ele>183.8</ele>
        <time>2020-06-07T15:45:00Z</time>
      </trkpt>
      <trkpt lat="48.01468" lon="-3.7206">
        <ele>183.9</ele>
        <time>2020-06-07T15:45:01Z</time>
      </trkpt>
      <trkpt lat="48.01471" lon="-3.72063">
        <ele>184</ele>
        <time>2020-06-07T15:45:02Z</time>
      </trkpt>
      <trkpt lat="48.01472" lon="-3.72065">
        <ele>184.1</ele>
        <time>2020-06-07T15:45:03Z</time>
      </trkpt>
      <trkpt lat="48.01473" lon="-3.7207">
        <ele>184.1</ele>
        <time>2020-06-07T15:45:04Z</time>
      </trkpt>
      <trkpt lat="48.01474" lon="-3.72073">
        <ele>184.2</ele>
        <time>2020-06-07T15:45:05Z</time>
      </trkpt>
      <trkpt lat="48.01476" lon="-3.72077">
        <ele>184.3</ele>
        <time>2020-06-07T15:45:06Z</time>
      </trkpt>
      <trkpt lat="48.01478" lon="-3.72081">
        <ele>184.3</ele>
        <time>2020-06-07T15:45:07Z</time>
      </trkpt>
      <trkpt lat="48.01481" lon="-3.72085">
        <ele>184.4</ele>
        <time>2020-06-07T15:45:08Z</time>
      </trkpt>
      <trkpt lat="48.01483" lon="-3.72089">
        <ele>184.5</ele>
        <time>2020-06-07T15:45:09Z</time>
      </trkpt>
      <trkpt lat="48.01485" lon="-3.72093">
        <ele>184.6</ele>
        <time>2020-06-07T15:45:10Z</time>
      </trkpt>
      <trkpt lat="48.01486" lon="-3.72096">
        <ele>184.7</ele>
        <time>2020-06-07T15:45:11Z</time>
      </trkpt>
      <trkpt lat="48.01488" lon="-3.72101">
        <ele>184.8</ele>
        <time>2020-06-07T15:45:12Z</time>
      </trkpt>
      <trkpt lat="48.01492" lon="-3.72105">
        <ele>185</ele>
        <time>2020-06-07T15:45:13Z</time>
      </trkpt>
      <trkpt lat="48.01495" lon="-3.72108">
        <ele>185.1</ele>
        <time>2020-06-07T15:45:14Z</time>
      </trkpt>
      <trkpt lat="48.01499" lon="-3.72112">
        <ele>185.3</ele>
        <time>2020-06-07T15:45:15Z</time>
      </trkpt>
      <trkpt lat="48.01502" lon="-3.72116">
        <ele>185.5</ele>
        <time>2020-06-07T15:45:16Z</time>
      </trkpt>
      <trkpt lat="48.01505" lon="-3.72119">
        <ele>185.6</ele>
        <time>2020-06-07T15:45:17Z</time>
      </trkpt>
      <trkpt lat="48.01507" lon="-3.72122">
        <ele>185.8</ele>
        <time>2020-06-07T15:45:18Z</time>
      </trkpt>
      <trkpt lat="48.01511" lon="-3.72126">
        <ele>185.9</ele>
        <time>2020-06-07T15:45:19Z</time>
      </trkpt>
      <trkpt lat="48.01514" lon="-3.72129">
        <ele>186.1</ele>
        <time>2020-06-07T15:45:20Z</time>
      </trkpt>
      <trkpt lat="48.01517" lon="-3.72133">
        <ele>186.2</ele>
        <time>2020-06-07T15:45:21Z</time>
      </trkpt>
      <trkpt lat="48.0152" lon="-3.72137">
        <ele>186.3</ele>
        <time>2020-06-07T15:45:22Z</time>
      </trkpt>
      <trkpt lat="48.01523" lon="-3.72141">
        <ele>186.5</ele>
        <time>2020-06-07T15:45:23Z</time>
      </trkpt>
      <trkpt lat="48.01525" lon="-3.72144">
        <ele>186.6</ele>
        <time>2020-06-07T15:45:24Z</time>
      </trkpt>
      <trkpt lat="48.01528" lon="-3.72147">
        <ele>186.7</ele>
        <time>2020-06-07T15:45:25Z</time>
      </trkpt>
      <trkpt lat="48.01531" lon="-3.72151">
        <ele>186.7</ele>
        <time>2020-06-07T15:45:26Z</time>
      </trkpt>
      <trkpt lat="48.01533" lon="-3.72155">
        <ele>186.8</ele>
        <time>2020-06-07T15:45:27Z</time>
      </trkpt>
      <trkpt lat="48.01536" lon="-3.72158">
        <ele>187</ele>
        <time>2020-06-07T15:45:28Z</time>
      </trkpt>
      <trkpt lat="48.01539" lon="-3.72162">
        <ele>187.1</ele>
        <time>2020-06-07T15:45:29Z</time>
      </trkpt>
      <trkpt lat="48.01543" lon="-3.72165">
        <ele>187.3</ele>
        <time>2020-06-07T15:45:30Z</time>
      </trkpt>
      <trkpt lat="48.01546" lon="-3.72168">
        <ele>187.4</ele>
        <time>2020-06-07T15:45:31Z</time>
      </trkpt>
      <trkpt lat="48.01547" lon="-3.72172">
        <ele>187.6</ele>
        <time>2020-06-07T15:45:32Z</time>
      </trkpt>
      <trkpt lat="48.0155" lon="-3.72174">
        <ele>187.7</ele>
        <time>2020-06-07T15:45:33Z</time>
      </trkpt>
      <trkpt lat="48.01553" lon="-3.72179">
        <ele>187.9</ele>
        <time>2020-06-07T15:45:34Z</time>
      </trkpt>
      <trkpt lat="48.01556" lon="-3.72182">
        <ele>188.1</ele>
        <time>2020-06-07T15:45:35Z</time>
      </trkpt>
      <trkpt lat="48.0156" lon="-3.72186">
        <ele>188.3</ele>
        <time>2020-06-07T15:45:36Z</time>
      </trkpt>
      <trkpt lat="48.01563" lon="-3.7219">
        <ele>188.4</ele>
        <time>2020-06-07T15:45:37Z</time>
      </trkpt>
      <trkpt lat="48.01565" lon="-3.72192">
        <ele>188.5</ele>
        <time>2020-06-07T15:45:38Z</time>
      </trkpt>
      <trkpt lat="48.01568" lon="-3.72195">
        <ele>188.6</ele>
        <time>2020-06-07T15:45:39Z</time>
      </trkpt>
      <trkpt lat="48.0157" lon="-3.72199">
        <ele>188.7</ele>
        <time>2020-06-07T15:45:40Z</time>
      </trkpt>
      <trkpt lat="48.01572" lon="-3.72202">
        <ele>188.8</ele>
        <time>2020-06-07T15:45:41Z</time>
      </trkpt>
      <trkpt lat="48.01575" lon="-3.72205">
        <ele>188.9</ele>
        <time>2020-06-07T15:45:42Z</time>
      </trkpt>
      <trkpt lat="48.01579" lon="-3.72208">
        <ele>189</ele>
        <time>2020-06-07T15:45:43Z</time>
      </trkpt>
      <trkpt lat="48.01583" lon="-3.72211">
        <ele>189.1</ele>
        <time>2020-06-07T15:45:44Z</time>
      </trkpt>
      <trkpt lat="48.01587" lon="-3.72214">
        <ele>189.3</ele>
        <time>2020-06-07T15:45:45Z</time>
      </trkpt>
      <trkpt lat="48.0159" lon="-3.72218">
        <ele>189.4</ele>
        <time>2020-06-07T15:45:46Z</time>
      </trkpt>
      <trkpt lat="48.01593" lon="-3.72221">
        <ele>189.5</ele>
        <time>2020-06-07T15:45:47Z</time>
      </trkpt>
      <trkpt lat="48.01597" lon="-3.72225">
        <ele>189.6</ele>
        <time>2020-06-07T15:45:48Z</time>
      </trkpt>
      <trkpt lat="48.01601" lon="-3.72228">
        <ele>189.7</ele>
        <time>2020-06-07T15:45:49Z</time>
      </trkpt>
      <trkpt lat="48.01604" lon="-3.72231">
        <ele>189.8</ele>
        <time>2020-06-07T15:45:50Z</time>
      </trkpt>
      <trkpt lat="48.01608" lon="-3.72234">
        <ele>189.9</ele>
        <time>2020-06-07T15:45:51Z</time>
      </trkpt>
      <trkpt lat="48.01611" lon="-3.72237">
        <ele>189.9</ele>
        <time>2020-06-07T15:45:52Z</time>
      </trkpt>
      <trkpt lat="48.01615" lon="-3.7224">
        <ele>190</ele>
        <time>2020-06-07T15:45:53Z</time>
      </trkpt>
      <trkpt lat="48.01619" lon="-3.72243">
        <ele>190</ele>
        <time>2020-06-07T15:45:54Z</time>
      </trkpt>
      <trkpt lat="48.01623" lon="-3.72246">
        <ele>190.1</ele>
        <time>2020-06-07T15:45:55Z</time>
      </trkpt>
      <trkpt lat="48.01627" lon="-3.72249">
        <ele>190.1</ele>
        <time>2020-06-07T15:45:56Z</time>
      </trkpt>
      <trkpt lat="48.01631" lon="-3.72252">
        <ele>190.2</ele>
        <time>2020-06-07T15:45:57Z</time>
      </trkpt>
      <trkpt lat="48.01635" lon="-3.72257">
        <ele>190.2</ele>
        <time>2020-06-07T15:45:58Z</time>
      </trkpt>
      <trkpt lat="48.01639" lon="-3.72261">
        <ele>190.3</ele>
        <time>2020-06-07T15:45:59Z</time>
      </trkpt>
      <trkpt lat="48.01643" lon="-3.72263">
        <ele>190.3</ele>
        <time>2020-06-07T15:46:00Z</time>
      </trkpt>
      <trkpt lat="48.01648" lon="-3.72266">
        <ele>190.3</ele>
        <time>2020-06-07T15:46:01Z</time>
      </trkpt>
      <trkpt lat="48.01652" lon="-3.72269">
        <ele>190.3</ele>
        <time>2020-06-07T15:46:02Z</time>
      </trkpt>
      <trkpt lat="48.01656" lon="-3.72271">
        <ele>190.3</ele>
        <time>2020-06-07T15:46:03Z</time>
      </trkpt>
      <trkpt lat="48.01661" lon="-3.72275">
        <ele>190.2</ele>
        <time>2020-06-07T15:46:04Z</time>
      </trkpt>
      <trkpt lat="48.01665" lon="-3.72278">
        <ele>190.2</ele>
        <time>2020-06-07T15:46:05Z</time>
      </trkpt>
      <trkpt lat="48.0167" lon="-3.72282">
        <ele>190.1</ele>
        <time>2020-06-07T15:46:06Z</time>
      </trkpt>
      <trkpt lat="48.01675" lon="-3.72286">
        <ele>190</ele>
        <time>2020-06-07T15:46:07Z</time>
      </trkpt>
      <trkpt lat="48.0168" lon="-3.72288">
        <ele>189.9</ele>
        <time>2020-06-07T15:46:08Z</time>
      </trkpt>
      <trkpt lat="48.01685" lon="-3.72291">
        <ele>189.9</ele>
        <time>2020-06-07T15:46:09Z</time>
      </trkpt>
      <trkpt lat="48.0169" lon="-3.72294">
        <ele>189.8</ele>
        <time>2020-06-07T15:46:10Z</time>
      </trkpt>
      <trkpt lat="48.01694" lon="-3.72298">
        <ele>189.7</ele>
        <time>2020-06-07T15:46:11Z</time>
      </trkpt>
      <trkpt lat="48.01699" lon="-3.72302">
        <ele>189.6</ele>
        <time>2020-06-07T15:46:12Z</time>
      </trkpt>
      <trkpt lat="48.01704" lon="-3.72304">
        <ele>189.5</ele>
        <time>2020-06-07T15:46:13Z</time>
      </trkpt>
      <trkpt lat="48.01709" lon="-3.72307">
        <ele>189.4</ele>
        <time>2020-06-07T15:46:14Z</time>
      </trkpt>
      <trkpt lat="48.01713" lon="-3.72311">
        <ele>189.3</ele>
        <time>2020-06-07T15:46:15Z</time>
      </trkpt>
      <trkpt lat="48.01719" lon="-3.72314">
        <ele>189.1</ele>
        <time>2020-06-07T15:46:16Z</time>
      </trkpt>
      <trkpt lat="48.01724" lon="-3.72319">
        <ele>189</ele>
        <time>2020-06-07T15:46:17Z</time>
      </trkpt>
      <trkpt lat="48.01731" lon="-3.72322">
        <ele>188.8</ele>
        <time>2020-06-07T15:46:18Z</time>
      </trkpt>
      <trkpt lat="48.01737" lon="-3.72324">
        <ele>188.7</ele>
        <time>2020-06-07T15:46:19Z</time>
      </trkpt>
      <trkpt lat="48.01743" lon="-3.72327">
        <ele>188.5</ele>
        <time>2020-06-07T15:46:20Z</time>
      </trkpt>
      <trkpt lat="48.01749" lon="-3.72329">
        <ele>188.5</ele>
        <time>2020-06-07T15:46:21Z</time>
      </trkpt>
      <trkpt lat="48.01755" lon="-3.72331">
        <ele>188.5</ele>
        <time>2020-06-07T15:46:22Z</time>
      </trkpt>
      <trkpt lat="48.01761" lon="-3.72334">
        <ele>188.5</ele>
        <time>2020-06-07T15:46:23Z</time>
      </trkpt>
      <trkpt lat="48.01768" lon="-3.72336">
        <ele>188.4</ele>
        <time>2020-06-07T15:46:24Z</time>
      </trkpt>
      <trkpt lat="48.01773" lon="-3.72341">
        <ele>188.4</ele>
        <time>2020-06-07T15:46:25Z</time>
      </trkpt>
      <trkpt lat="48.01778" lon="-3.72343">
        <ele>188.3</ele>
        <time>2020-06-07T15:46:26Z</time>
      </trkpt>
      <trkpt lat="48.01784" lon="-3.72345">
        <ele>188.3</ele>
        <time>2020-06-07T15:46:27Z</time>
      </trkpt>
      <trkpt lat="48.01789" lon="-3.72347">
        <ele>188.4</ele>
        <time>2020-06-07T15:46:28Z</time>
      </trkpt>
      <trkpt lat="48.01795" lon="-3.72349">
        <ele>188.4</ele>
        <time>2020-06-07T15:46:29Z</time>
      </trkpt>
      <trkpt lat="48.01799" lon="-3.72352">
        <ele>188.4</ele>
        <time>2020-06-07T15:46:30Z</time>
      </trkpt>
      <trkpt lat="48.01804" lon="-3.72354">
        <ele>188.5</ele>
        <time>2020-06-07T15:46:31Z</time>
      </trkpt>
      <trkpt lat="48.01809" lon="-3.72355">
        <ele>188.5</ele>
        <time>2020-06-07T15:46:32Z</time>
      </trkpt>
      <trkpt lat="48.01814" lon="-3.72357">
        <ele>188.6</ele>
        <time>2020-06-07T15:46:33Z</time>
      </trkpt>
      <trkpt lat="48.01819" lon="-3.72359">
        <ele>188.6</ele>
        <time>2020-06-07T15:46:34Z</time>
      </trkpt>
      <trkpt lat="48.01824" lon="-3.72361">
        <ele>188.7</ele>
        <time>2020-06-07T15:46:35Z</time>
      </trkpt>
      <trkpt lat="48.01829" lon="-3.72362">
        <ele>188.8</ele>
        <time>2020-06-07T15:46:36Z</time>
      </trkpt>
      <trkpt lat="48.01834" lon="-3.72364">
        <ele>188.8</ele>
        <time>2020-06-07T15:46:37Z</time>
      </trkpt>
      <trkpt lat="48.01839" lon="-3.72366">
        <ele>188.9</ele>
        <time>2020-06-07T15:46:38Z</time>
      </trkpt>
      <trkpt lat="48.01844" lon="-3.72367">
        <ele>189</ele>
        <time>2020-06-07T15:46:39Z</time>
      </trkpt>
      <trkpt lat="48.01849" lon="-3.72369">
        <ele>189.1</ele>
        <time>2020-06-07T15:46:40Z</time>
      </trkpt>
      <trkpt lat="48.01853" lon="-3.72371">
        <ele>189.2</ele>
        <time>2020-06-07T15:46:41Z</time>
      </trkpt>
      <trkpt lat="48.01858" lon="-3.72374">
        <ele>189.3</ele>
        <time>2020-06-07T15:46:42Z</time>
      </trkpt>
      <trkpt lat="48.01862" lon="-3.72375">
        <ele>189.4</ele>
        <time>2020-06-07T15:46:43Z</time>
      </trkpt>
      <trkpt lat="48.01867" lon="-3.72377">
        <ele>189.5</ele>
        <time>2020-06-07T15:46:44Z</time>
      </trkpt>
      <trkpt lat="48.01872" lon="-3.7238">
        <ele>189.6</ele>
        <time>2020-06-07T15:46:45Z</time>
      </trkpt>
      <trkpt lat="48.01876" lon="-3.72381">
        <ele>189.7</ele>
        <time>2020-06-07T15:46:46Z</time>
      </trkpt>
      <trkpt lat="48.01881" lon="-3.72383">
        <ele>189.8</ele>
        <time>2020-06-07T15:46:47Z</time>
      </trkpt>
      <trkpt lat="48.01886" lon="-3.72385">
        <ele>189.9</ele>
        <time>2020-06-07T15:46:48Z</time>
      </trkpt>
      <trkpt lat="48.01891" lon="-3.72387">
        <ele>190</ele>
        <time>2020-06-07T15:46:49Z</time>
      </trkpt>
      <trkpt lat="48.01895" lon="-3.72389">
        <ele>190.1</ele>
        <time>2020-06-07T15:46:50Z</time>
      </trkpt>
      <trkpt lat="48.019" lon="-3.7239">
        <ele>190.2</ele>
        <time>2020-06-07T15:46:51Z</time>
      </trkpt>
      <trkpt lat="48.01904" lon="-3.72391">
        <ele>190.3</ele>
        <time>2020-06-07T15:46:52Z</time>
      </trkpt>
      <trkpt lat="48.01907" lon="-3.72394">
        <ele>190.4</ele>
        <time>2020-06-07T15:46:53Z</time>
      </trkpt>
      <trkpt lat="48.01912" lon="-3.72394">
        <ele>190.5</ele>
        <time>2020-06-07T15:46:54Z</time>
      </trkpt>
      <trkpt lat="48.01916" lon="-3.72395">
        <ele>190.6</ele>
        <time>2020-06-07T15:46:55Z</time>
      </trkpt>
      <trkpt lat="48.0192" lon="-3.72397">
        <ele>190.7</ele>
        <time>2020-06-07T15:46:56Z</time>
      </trkpt>
      <trkpt lat="48.01923" lon="-3.72399">
        <ele>190.8</ele>
        <time>2020-06-07T15:46:57Z</time>
      </trkpt>
      <trkpt lat="48.01928" lon="-3.72401">
        <ele>190.9</ele>
        <time>2020-06-07T15:46:58Z</time>
      </trkpt>
      <trkpt lat="48.01931" lon="-3.72402">
        <ele>191</ele>
        <time>2020-06-07T15:46:59Z</time>
      </trkpt>
      <trkpt lat="48.01935" lon="-3.72404">
        <ele>191.1</ele>
        <time>2020-06-07T15:47:00Z</time>
      </trkpt>
      <trkpt lat="48.01939" lon="-3.72405">
        <ele>191.2</ele>
        <time>2020-06-07T15:47:01Z</time>
      </trkpt>
      <trkpt lat="48.01943" lon="-3.72407">
        <ele>191.3</ele>
        <time>2020-06-07T15:47:02Z</time>
      </trkpt>
      <trkpt lat="48.01949" lon="-3.72406">
        <ele>191.4</ele>
        <time>2020-06-07T15:47:03Z</time>
      </trkpt>
      <trkpt lat="48.01954" lon="-3.72407">
        <ele>191.5</ele>
        <time>2020-06-07T15:47:04Z</time>
      </trkpt>
      <trkpt lat="48.01957" lon="-3.72408">
        <ele>191.6</ele>
        <time>2020-06-07T15:47:05Z</time>
      </trkpt>
      <trkpt lat="48.01962" lon="-3.72409">
        <ele>191.7</ele>
        <time>2020-06-07T15:47:06Z</time>
      </trkpt>
      <trkpt lat="48.01966" lon="-3.7241">
        <ele>191.8</ele>
        <time>2020-06-07T15:47:07Z</time>
      </trkpt>
      <trkpt lat="48.0197" lon="-3.72411">
        <ele>191.9</ele>
        <time>2020-06-07T15:47:08Z</time>
      </trkpt>
      <trkpt lat="48.01974" lon="-3.72411">
        <ele>191.9</ele>
        <time>2020-06-07T15:47:09Z</time>
      </trkpt>
      <trkpt lat="48.01978" lon="-3.72411">
        <ele>191.9</ele>
        <time>2020-06-07T15:47:10Z</time>
      </trkpt>
      <trkpt lat="48.01982" lon="-3.72409">
        <ele>191.8</ele>
        <time>2020-06-07T15:47:11Z</time>
      </trkpt>
      <trkpt lat="48.01987" lon="-3.72408">
        <ele>191.9</ele>
        <time>2020-06-07T15:47:12Z</time>
      </trkpt>
      <trkpt lat="48.0199" lon="-3.72408">
        <ele>192</ele>
        <time>2020-06-07T15:47:13Z</time>
      </trkpt>
      <trkpt lat="48.01994" lon="-3.72406">
        <ele>192.1</ele>
        <time>2020-06-07T15:47:14Z</time>
      </trkpt>
      <trkpt lat="48.01998" lon="-3.72404">
        <ele>192.2</ele>
        <time>2020-06-07T15:47:15Z</time>
      </trkpt>
      <trkpt lat="48.02003" lon="-3.72404">
        <ele>192.2</ele>
        <time>2020-06-07T15:47:16Z</time>
      </trkpt>
      <trkpt lat="48.02007" lon="-3.72403">
        <ele>192.3</ele>
        <time>2020-06-07T15:47:17Z</time>
      </trkpt>
      <trkpt lat="48.02012" lon="-3.72402">
        <ele>192.4</ele>
        <time>2020-06-07T15:47:18Z</time>
      </trkpt>
      <trkpt lat="48.02016" lon="-3.72404">
        <ele>192.4</ele>
        <time>2020-06-07T15:47:19Z</time>
      </trkpt>
      <trkpt lat="48.0202" lon="-3.72407">
        <ele>192.5</ele>
        <time>2020-06-07T15:47:20Z</time>
      </trkpt>
      <trkpt lat="48.02023" lon="-3.7241">
        <ele>192.5</ele>
        <time>2020-06-07T15:47:21Z</time>
      </trkpt>
      <trkpt lat="48.02027" lon="-3.72414">
        <ele>192.5</ele>
        <time>2020-06-07T15:47:22Z</time>
      </trkpt>
      <trkpt lat="48.0203" lon="-3.72415">
        <ele>192.5</ele>
        <time>2020-06-07T15:47:23Z</time>
      </trkpt>
      <trkpt lat="48.02034" lon="-3.72416">
        <ele>192.6</ele>
        <time>2020-06-07T15:47:24Z</time>
      </trkpt>
      <trkpt lat="48.02038" lon="-3.72417">
        <ele>192.6</ele>
        <time>2020-06-07T15:47:25Z</time>
      </trkpt>
      <trkpt lat="48.02042" lon="-3.72418">
        <ele>192.6</ele>
        <time>2020-06-07T15:47:26Z</time>
      </trkpt>
      <trkpt lat="48.02047" lon="-3.72417">
        <ele>192.7</ele>
        <time>2020-06-07T15:47:27Z</time>
      </trkpt>
      <trkpt lat="48.02051" lon="-3.72417">
        <ele>192.7</ele>
        <time>2020-06-07T15:47:28Z</time>
      </trkpt>
      <trkpt lat="48.02055" lon="-3.72418">
        <ele>192.7</ele>
        <time>2020-06-07T15:47:29Z</time>
      </trkpt>
      <trkpt lat="48.0206" lon="-3.72417">
        <ele>192.8</ele>
        <time>2020-06-07T15:47:30Z</time>
      </trkpt>
      <trkpt lat="48.02064" lon="-3.72416">
        <ele>192.9</ele>
        <time>2020-06-07T15:47:31Z</time>
      </trkpt>
      <trkpt lat="48.02067" lon="-3.72415">
        <ele>192.9</ele>
        <time>2020-06-07T15:47:32Z</time>
      </trkpt>
      <trkpt lat="48.02071" lon="-3.72414">
        <ele>193</ele>
        <time>2020-06-07T15:47:33Z</time>
      </trkpt>
      <trkpt lat="48.02075" lon="-3.72413">
        <ele>193.1</ele>
        <time>2020-06-07T15:47:34Z</time>
      </trkpt>
      <trkpt lat="48.02079" lon="-3.72412">
        <ele>193.2</ele>
        <time>2020-06-07T15:47:35Z</time>
      </trkpt>
      <trkpt lat="48.02084" lon="-3.7241">
        <ele>193.3</ele>
        <time>2020-06-07T15:47:36Z</time>
      </trkpt>
      <trkpt lat="48.02088" lon="-3.72411">
        <ele>193.4</ele>
        <time>2020-06-07T15:47:37Z</time>
      </trkpt>
      <trkpt lat="48.02091" lon="-3.72412">
        <ele>193.5</ele>
        <time>2020-06-07T15:47:38Z</time>
      </trkpt>
      <trkpt lat="48.02094" lon="-3.72414">
        <ele>193.6</ele>
        <time>2020-06-07T15:47:39Z</time>
      </trkpt>
      <trkpt lat="48.02099" lon="-3.72415">
        <ele>193.7</ele>
        <time>2020-06-07T15:47:40Z</time>
      </trkpt>
      <trkpt lat="48.02103" lon="-3.72416">
        <ele>193.8</ele>
        <time>2020-06-07T15:47:41Z</time>
      </trkpt>
      <trkpt lat="48.02107" lon="-3.72417">
        <ele>193.9</ele>
        <time>2020-06-07T15:47:42Z</time>
      </trkpt>
      <trkpt lat="48.02111" lon="-3.72418">
        <ele>194</ele>
        <time>2020-06-07T15:47:43Z</time>
      </trkpt>
      <trkpt lat="48.02115" lon="-3.72421">
        <ele>194.1</ele>
        <time>2020-06-07T15:47:44Z</time>
      </trkpt>
      <trkpt lat="48.02119" lon="-3.72422">
        <ele>194.3</ele>
        <time>2020-06-07T15:47:45Z</time>
      </trkpt>
      <trkpt lat="48.02123" lon="-3.72425">
        <ele>194.4</ele>
        <time>2020-06-07T15:47:46Z</time>
      </trkpt>
      <trkpt lat="48.02127" lon="-3.72427">
        <ele>194.5</ele>
        <time>2020-06-07T15:47:47Z</time>
      </trkpt>
      <trkpt lat="48.0213" lon="-3.72428">
        <ele>194.7</ele>
        <time>2020-06-07T15:47:48Z</time>
      </trkpt>
      <trkpt lat="48.02134" lon="-3.72429">
        <ele>194.8</ele>
        <time>2020-06-07T15:47:49Z</time>
      </trkpt>
      <trkpt lat="48.02138" lon="-3.7243">
        <ele>195</ele>
        <time>2020-06-07T15:47:50Z</time>
      </trkpt>
      <trkpt lat="48.02142" lon="-3.72432">
        <ele>195.1</ele>
        <time>2020-06-07T15:47:51Z</time>
      </trkpt>
      <trkpt lat="48.02145" lon="-3.72433">
        <ele>195.3</ele>
        <time>2020-06-07T15:47:52Z</time>
      </trkpt>
      <trkpt lat="48.02149" lon="-3.72435">
        <ele>195.4</ele>
        <time>2020-06-07T15:47:53Z</time>
      </trkpt>
      <trkpt lat="48.02152" lon="-3.72437">
        <ele>195.6</ele>
        <time>2020-06-07T15:47:54Z</time>
      </trkpt>
      <trkpt lat="48.02156" lon="-3.72438">
        <ele>195.7</ele>
        <time>2020-06-07T15:47:55Z</time>
      </trkpt>
      <trkpt lat="48.0216" lon="-3.7244">
        <ele>195.9</ele>
        <time>2020-06-07T15:47:56Z</time>
      </trkpt>
      <trkpt lat="48.02163" lon="-3.72442">
        <ele>196</ele>
        <time>2020-06-07T15:47:57Z</time>
      </trkpt>
      <trkpt lat="48.02168" lon="-3.72444">
        <ele>196.2</ele>
        <time>2020-06-07T15:47:58Z</time>
      </trkpt>
      <trkpt lat="48.02171" lon="-3.72446">
        <ele>196.3</ele>
        <time>2020-06-07T15:47:59Z</time>
      </trkpt>
      <trkpt lat="48.02174" lon="-3.72447">
        <ele>196.4</ele>
        <time>2020-06-07T15:48:00Z</time>
      </trkpt>
      <trkpt lat="48.02178" lon="-3.72448">
        <ele>196.5</ele>
        <time>2020-06-07T15:48:01Z</time>
      </trkpt>
      <trkpt lat="48.02181" lon="-3.7245">
        <ele>196.7</ele>
        <time>2020-06-07T15:48:02Z</time>
      </trkpt>
      <trkpt lat="48.02185" lon="-3.72452">
        <ele>196.8</ele>
        <time>2020-06-07T15:48:03Z</time>
      </trkpt>
      <trkpt lat="48.02189" lon="-3.72453">
        <ele>196.9</ele>
        <time>2020-06-07T15:48:04Z</time>
      </trkpt>
      <trkpt lat="48.02193" lon="-3.72455">
        <ele>197.1</ele>
        <time>2020-06-07T15:48:05Z</time>
      </trkpt>
      <trkpt lat="48.02197" lon="-3.72458">
        <ele>197.2</ele>
        <time>2020-06-07T15:48:06Z</time>
      </trkpt>
      <trkpt lat="48.022" lon="-3.72461">
        <ele>197.3</ele>
        <time>2020-06-07T15:48:07Z</time>
      </trkpt>
      <trkpt lat="48.02204" lon="-3.72462">
        <ele>197.4</ele>
        <time>2020-06-07T15:48:08Z</time>
      </trkpt>
      <trkpt lat="48.02208" lon="-3.72465">
        <ele>197.5</ele>
        <time>2020-06-07T15:48:09Z</time>
      </trkpt>
      <trkpt lat="48.02212" lon="-3.72467">
        <ele>197.6</ele>
        <time>2020-06-07T15:48:10Z</time>
      </trkpt>
      <trkpt lat="48.02215" lon="-3.72468">
        <ele>197.7</ele>
        <time>2020-06-07T15:48:11Z</time>
      </trkpt>
      <trkpt lat="48.02219" lon="-3.7247">
        <ele>197.7</ele>
        <time>2020-06-07T15:48:12Z</time>
      </trkpt>
      <trkpt lat="48.02223" lon="-3.72471">
        <ele>197.9</ele>
        <time>2020-06-07T15:48:13Z</time>
      </trkpt>
      <trkpt lat="48.02226" lon="-3.72473">
        <ele>198</ele>
        <time>2020-06-07T15:48:14Z</time>
      </trkpt>
      <trkpt lat="48.0223" lon="-3.72475">
        <ele>198.1</ele>
        <time>2020-06-07T15:48:15Z</time>
      </trkpt>
      <trkpt lat="48.02233" lon="-3.72477">
        <ele>198.2</ele>
        <time>2020-06-07T15:48:16Z</time>
      </trkpt>
      <trkpt lat="48.02237" lon="-3.72479">
        <ele>198.3</ele>
        <time>2020-06-07T15:48:17Z</time>
      </trkpt>
      <trkpt lat="48.02241" lon="-3.7248">
        <ele>198.4</ele>
        <time>2020-06-07T15:48:18Z</time>
      </trkpt>
      <trkpt lat="48.02245" lon="-3.72481">
        <ele>198.5</ele>
        <time>2020-06-07T15:48:19Z</time>
      </trkpt>
      <trkpt lat="48.02249" lon="-3.72483">
        <ele>198.6</ele>
        <time>2020-06-07T15:48:20Z</time>
      </trkpt>
      <trkpt lat="48.02253" lon="-3.72484">
        <ele>198.7</ele>
        <time>2020-06-07T15:48:21Z</time>
      </trkpt>
      <trkpt lat="48.02256" lon="-3.72485">
        <ele>198.7</ele>
        <time>2020-06-07T15:48:22Z</time>
      </trkpt>
      <trkpt lat="48.0226" lon="-3.72486">
        <ele>198.8</ele>
        <time>2020-06-07T15:48:23Z</time>
      </trkpt>
      <trkpt lat="48.02264" lon="-3.72489">
        <ele>198.9</ele>
        <time>2020-06-07T15:48:24Z</time>
      </trkpt>
      <trkpt lat="48.02268" lon="-3.7249">
        <ele>199</ele>
        <time>2020-06-07T15:48:25Z</time>
      </trkpt>
      <trkpt lat="48.02272" lon="-3.72492">
        <ele>199.1</ele>
        <time>2020-06-07T15:48:26Z</time>
      </trkpt>
      <trkpt lat="48.02276" lon="-3.72494">
        <ele>199.2</ele>
        <time>2020-06-07T15:48:27Z</time>
      </trkpt>
      <trkpt lat="48.02279" lon="-3.72496">
        <ele>199.3</ele>
        <time>2020-06-07T15:48:28Z</time>
      </trkpt>
      <trkpt lat="48.02282" lon="-3.72498">
        <ele>199.4</ele>
        <time>2020-06-07T15:48:29Z</time>
      </trkpt>
      <trkpt lat="48.02287" lon="-3.725">
        <ele>199.5</ele>
        <time>2020-06-07T15:48:30Z</time>
      </trkpt>
      <trkpt lat="48.0229" lon="-3.72501">
        <ele>199.6</ele>
        <time>2020-06-07T15:48:31Z</time>
      </trkpt>
      <trkpt lat="48.02293" lon="-3.72502">
        <ele>199.7</ele>
        <time>2020-06-07T15:48:32Z</time>
      </trkpt>
      <trkpt lat="48.02296" lon="-3.72505">
        <ele>199.7</ele>
        <time>2020-06-07T15:48:33Z</time>
      </trkpt>
      <trkpt lat="48.023" lon="-3.72506">
        <ele>199.8</ele>
        <time>2020-06-07T15:48:34Z</time>
      </trkpt>
      <trkpt lat="48.02304" lon="-3.72508">
        <ele>199.8</ele>
        <time>2020-06-07T15:48:35Z</time>
      </trkpt>
      <trkpt lat="48.02308" lon="-3.72509">
        <ele>199.9</ele>
        <time>2020-06-07T15:48:36Z</time>
      </trkpt>
      <trkpt lat="48.02312" lon="-3.7251">
        <ele>200</ele>
        <time>2020-06-07T15:48:37Z</time>
      </trkpt>
      <trkpt lat="48.02315" lon="-3.72513">
        <ele>200</ele>
        <time>2020-06-07T15:48:38Z</time>
      </trkpt>
      <trkpt lat="48.02319" lon="-3.72515">
        <ele>200</ele>
        <time>2020-06-07T15:48:39Z</time>
      </trkpt>
      <trkpt lat="48.02323" lon="-3.72517">
        <ele>200.1</ele>
        <time>2020-06-07T15:48:40Z</time>
      </trkpt>
      <trkpt lat="48.02326" lon="-3.72518">
        <ele>200.1</ele>
        <time>2020-06-07T15:48:41Z</time>
      </trkpt>
      <trkpt lat="48.02329" lon="-3.7252">
        <ele>200.1</ele>
        <time>2020-06-07T15:48:42Z</time>
      </trkpt>
      <trkpt lat="48.02332" lon="-3.72521">
        <ele>200.1</ele>
        <time>2020-06-07T15:48:43Z</time>
      </trkpt>
      <trkpt lat="48.02335" lon="-3.72523">
        <ele>200.2</ele>
        <time>2020-06-07T15:48:44Z</time>
      </trkpt>
      <trkpt lat="48.02339" lon="-3.72525">
        <ele>200.2</ele>
        <time>2020-06-07T15:48:45Z</time>
      </trkpt>
      <trkpt lat="48.02342" lon="-3.72527">
        <ele>200.2</ele>
        <time>2020-06-07T15:48:46Z</time>
      </trkpt>
      <trkpt lat="48.02345" lon="-3.72529">
        <ele>200.2</ele>
        <time>2020-06-07T15:48:47Z</time>
      </trkpt>
      <trkpt lat="48.02348" lon="-3.72532">
        <ele>200.2</ele>
        <time>2020-06-07T15:48:48Z</time>
      </trkpt>
      <trkpt lat="48.02352" lon="-3.72533">
        <ele>200.2</ele>
        <time>2020-06-07T15:48:49Z</time>
      </trkpt>
      <trkpt lat="48.02356" lon="-3.72535">
        <ele>200.2</ele>
        <time>2020-06-07T15:48:50Z</time>
      </trkpt>
      <trkpt lat="48.02359" lon="-3.72537">
        <ele>200.1</ele>
        <time>2020-06-07T15:48:51Z</time>
      </trkpt>
      <trkpt lat="48.02364" lon="-3.72538">
        <ele>200.1</ele>
        <time>2020-06-07T15:48:52Z</time>
      </trkpt>
      <trkpt lat="48.02367" lon="-3.7254">
        <ele>200.1</ele>
        <time>2020-06-07T15:48:53Z</time>
      </trkpt>
      <trkpt lat="48.0237" lon="-3.72542">
        <ele>200</ele>
        <time>2020-06-07T15:48:54Z</time>
      </trkpt>
      <trkpt lat="48.02374" lon="-3.72544">
        <ele>200</ele>
        <time>2020-06-07T15:48:55Z</time>
      </trkpt>
      <trkpt lat="48.02378" lon="-3.72547">
        <ele>199.9</ele>
        <time>2020-06-07T15:48:56Z</time>
      </trkpt>
      <trkpt lat="48.02382" lon="-3.7255">
        <ele>199.9</ele>
        <time>2020-06-07T15:48:57Z</time>
      </trkpt>
      <trkpt lat="48.02387" lon="-3.72553">
        <ele>199.8</ele>
        <time>2020-06-07T15:48:58Z</time>
      </trkpt>
      <trkpt lat="48.02393" lon="-3.72554">
        <ele>199.7</ele>
        <time>2020-06-07T15:48:59Z</time>
      </trkpt>
      <trkpt lat="48.02397" lon="-3.72558">
        <ele>199.6</ele>
        <time>2020-06-07T15:49:00Z</time>
      </trkpt>
      <trkpt lat="48.02402" lon="-3.72562">
        <ele>199.6</ele>
        <time>2020-06-07T15:49:01Z</time>
      </trkpt>
      <trkpt lat="48.02406" lon="-3.72566">
        <ele>199.5</ele>
        <time>2020-06-07T15:49:02Z</time>
      </trkpt>
      <trkpt lat="48.02411" lon="-3.72569">
        <ele>199.4</ele>
        <time>2020-06-07T15:49:03Z</time>
      </trkpt>
      <trkpt lat="48.02415" lon="-3.72573">
        <ele>199.4</ele>
        <time>2020-06-07T15:49:04Z</time>
      </trkpt>
      <trkpt lat="48.02421" lon="-3.72577">
        <ele>199.3</ele>
        <time>2020-06-07T15:49:05Z</time>
      </trkpt>
      <trkpt lat="48.02426" lon="-3.7258">
        <ele>199.2</ele>
        <time>2020-06-07T15:49:06Z</time>
      </trkpt>
      <trkpt lat="48.02431" lon="-3.72583">
        <ele>199.1</ele>
        <time>2020-06-07T15:49:07Z</time>
      </trkpt>
      <trkpt lat="48.02435" lon="-3.72586">
        <ele>199</ele>
        <time>2020-06-07T15:49:08Z</time>
      </trkpt>
      <trkpt lat="48.0244" lon="-3.72589">
        <ele>198.9</ele>
        <time>2020-06-07T15:49:09Z</time>
      </trkpt>
      <trkpt lat="48.02445" lon="-3.72593">
        <ele>198.8</ele>
        <time>2020-06-07T15:49:10Z</time>
      </trkpt>
      <trkpt lat="48.0245" lon="-3.72596">
        <ele>198.7</ele>
        <time>2020-06-07T15:49:11Z</time>
      </trkpt>
      <trkpt lat="48.02454" lon="-3.72601">
        <ele>198.7</ele>
        <time>2020-06-07T15:49:12Z</time>
      </trkpt>
      <trkpt lat="48.0246" lon="-3.72605">
        <ele>198.6</ele>
        <time>2020-06-07T15:49:13Z</time>
      </trkpt>
      <trkpt lat="48.02465" lon="-3.72611">
        <ele>198.5</ele>
        <time>2020-06-07T15:49:14Z</time>
      </trkpt>
      <trkpt lat="48.02469" lon="-3.72615">
        <ele>198.5</ele>
        <time>2020-06-07T15:49:15Z</time>
      </trkpt>
      <trkpt lat="48.02474" lon="-3.72621">
        <ele>198.4</ele>
        <time>2020-06-07T15:49:16Z</time>
      </trkpt>
      <trkpt lat="48.02479" lon="-3.72626">
        <ele>198.3</ele>
        <time>2020-06-07T15:49:17Z</time>
      </trkpt>
      <trkpt lat="48.02483" lon="-3.72631">
        <ele>198.2</ele>
        <time>2020-06-07T15:49:18Z</time>
      </trkpt>
      <trkpt lat="48.02489" lon="-3.72635">
        <ele>198.2</ele>
        <time>2020-06-07T15:49:19Z</time>
      </trkpt>
      <trkpt lat="48.02494" lon="-3.7264">
        <ele>198.1</ele>
        <time>2020-06-07T15:49:20Z</time>
      </trkpt>
      <trkpt lat="48.025" lon="-3.72644">
        <ele>198.1</ele>
        <time>2020-06-07T15:49:21Z</time>
      </trkpt>
      <trkpt lat="48.02505" lon="-3.72648">
        <ele>198.1</ele>
        <time>2020-06-07T15:49:22Z</time>
      </trkpt>
      <trkpt lat="48.02511" lon="-3.72652">
        <ele>198.2</ele>
        <time>2020-06-07T15:49:23Z</time>
      </trkpt>
      <trkpt lat="48.02516" lon="-3.72656">
        <ele>198.3</ele>
        <time>2020-06-07T15:49:24Z</time>
      </trkpt>
      <trkpt lat="48.0252" lon="-3.7266">
        <ele>198.4</ele>
        <time>2020-06-07T15:49:25Z</time>
      </trkpt>
      <trkpt lat="48.02525" lon="-3.72664">
        <ele>198.5</ele>
        <time>2020-06-07T15:49:26Z</time>
      </trkpt>
      <trkpt lat="48.0253" lon="-3.72668">
        <ele>198.6</ele>
        <time>2020-06-07T15:49:27Z</time>
      </trkpt>
      <trkpt lat="48.02533" lon="-3.72672">
        <ele>198.7</ele>
        <time>2020-06-07T15:49:28Z</time>
      </trkpt>
      <trkpt lat="48.02538" lon="-3.72676">
        <ele>198.8</ele>
        <time>2020-06-07T15:49:29Z</time>
      </trkpt>
      <trkpt lat="48.02544" lon="-3.7268">
        <ele>198.9</ele>
        <time>2020-06-07T15:49:30Z</time>
      </trkpt>
      <trkpt lat="48.02548" lon="-3.72684">
        <ele>199</ele>
        <time>2020-06-07T15:49:31Z</time>
      </trkpt>
      <trkpt lat="48.02553" lon="-3.72689">
        <ele>198.9</ele>
        <time>2020-06-07T15:49:32Z</time>
      </trkpt>
      <trkpt lat="48.02558" lon="-3.72692">
        <ele>199</ele>
        <time>2020-06-07T15:49:33Z</time>
      </trkpt>
      <trkpt lat="48.02562" lon="-3.72693">
        <ele>199</ele>
        <time>2020-06-07T15:49:34Z</time>
      </trkpt>
      <trkpt lat="48.02566" lon="-3.72697">
        <ele>199</ele>
        <time>2020-06-07T15:49:35Z</time>
      </trkpt>
      <trkpt lat="48.0257" lon="-3.72701">
        <ele>199.1</ele>
        <time>2020-06-07T15:49:36Z</time>
      </trkpt>
      <trkpt lat="48.02575" lon="-3.72704">
        <ele>199.1</ele>
        <time>2020-06-07T15:49:37Z</time>
      </trkpt>
      <trkpt lat="48.02579" lon="-3.72708">
        <ele>199.2</ele>
        <time>2020-06-07T15:49:38Z</time>
      </trkpt>
      <trkpt lat="48.02583" lon="-3.7271">
        <ele>199.2</ele>
        <time>2020-06-07T15:49:39Z</time>
      </trkpt>
      <trkpt lat="48.02588" lon="-3.72713">
        <ele>199.3</ele>
        <time>2020-06-07T15:49:40Z</time>
      </trkpt>
      <trkpt lat="48.02593" lon="-3.72716">
        <ele>199.4</ele>
        <time>2020-06-07T15:49:41Z</time>
      </trkpt>
      <trkpt lat="48.02597" lon="-3.7272">
        <ele>199.5</ele>
        <time>2020-06-07T15:49:42Z</time>
      </trkpt>
      <trkpt lat="48.02601" lon="-3.72723">
        <ele>199.6</ele>
        <time>2020-06-07T15:49:43Z</time>
      </trkpt>
      <trkpt lat="48.02605" lon="-3.72726">
        <ele>199.7</ele>
        <time>2020-06-07T15:49:44Z</time>
      </trkpt>
      <trkpt lat="48.0261" lon="-3.72729">
        <ele>199.8</ele>
        <time>2020-06-07T15:49:45Z</time>
      </trkpt>
      <trkpt lat="48.02614" lon="-3.72732">
        <ele>199.9</ele>
        <time>2020-06-07T15:49:46Z</time>
      </trkpt>
      <trkpt lat="48.02619" lon="-3.72735">
        <ele>200</ele>
        <time>2020-06-07T15:49:47Z</time>
      </trkpt>
      <trkpt lat="48.02624" lon="-3.72738">
        <ele>200.2</ele>
        <time>2020-06-07T15:49:48Z</time>
      </trkpt>
      <trkpt lat="48.0263" lon="-3.72741">
        <ele>200.4</ele>
        <time>2020-06-07T15:49:49Z</time>
      </trkpt>
      <trkpt lat="48.02635" lon="-3.72744">
        <ele>200.7</ele>
        <time>2020-06-07T15:49:50Z</time>
      </trkpt>
      <trkpt lat="48.02639" lon="-3.72747">
        <ele>200.9</ele>
        <time>2020-06-07T15:49:51Z</time>
      </trkpt>
      <trkpt lat="48.02644" lon="-3.7275">
        <ele>201.2</ele>
        <time>2020-06-07T15:49:52Z</time>
      </trkpt>
      <trkpt lat="48.02649" lon="-3.72753">
        <ele>201.4</ele>
        <time>2020-06-07T15:49:53Z</time>
      </trkpt>
      <trkpt lat="48.02653" lon="-3.72755">
        <ele>201.6</ele>
        <time>2020-06-07T15:49:54Z</time>
      </trkpt>
      <trkpt lat="48.02656" lon="-3.72759">
        <ele>201.8</ele>
        <time>2020-06-07T15:49:55Z</time>
      </trkpt>
      <trkpt lat="48.02659" lon="-3.72761">
        <ele>202</ele>
        <time>2020-06-07T15:49:56Z</time>
      </trkpt>
      <trkpt lat="48.02661" lon="-3.72765">
        <ele>202.2</ele>
        <time>2020-06-07T15:49:57Z</time>
      </trkpt>
      <trkpt lat="48.02667" lon="-3.72767">
        <ele>202.6</ele>
        <time>2020-06-07T15:49:58Z</time>
      </trkpt>
      <trkpt lat="48.02669" lon="-3.72769">
        <ele>202.8</ele>
        <time>2020-06-07T15:49:59Z</time>
      </trkpt>
      <trkpt lat="48.02672" lon="-3.72771">
        <ele>203.1</ele>
        <time>2020-06-07T15:50:00Z</time>
      </trkpt>
      <trkpt lat="48.02676" lon="-3.72772">
        <ele>203.4</ele>
        <time>2020-06-07T15:50:01Z</time>
      </trkpt>
      <trkpt lat="48.02677" lon="-3.72774">
        <ele>203.5</ele>
        <time>2020-06-07T15:50:02Z</time>
      </trkpt>
      <trkpt lat="48.0268" lon="-3.72775">
        <ele>203.7</ele>
        <time>2020-06-07T15:50:03Z</time>
      </trkpt>
      <trkpt lat="48.02684" lon="-3.72776">
        <ele>204</ele>
        <time>2020-06-07T15:50:04Z</time>
      </trkpt>
      <trkpt lat="48.02687" lon="-3.72778">
        <ele>204.3</ele>
        <time>2020-06-07T15:50:05Z</time>
      </trkpt>
      <trkpt lat="48.02689" lon="-3.72779">
        <ele>204.4</ele>
        <time>2020-06-07T15:50:06Z</time>
      </trkpt>
      <trkpt lat="48.02692" lon="-3.72781">
        <ele>204.6</ele>
        <time>2020-06-07T15:50:07Z</time>
      </trkpt>
      <trkpt lat="48.02695" lon="-3.72784">
        <ele>204.9</ele>
        <time>2020-06-07T15:50:08Z</time>
      </trkpt>
      <trkpt lat="48.02698" lon="-3.72785">
        <ele>205.1</ele>
        <time>2020-06-07T15:50:09Z</time>
      </trkpt>
      <trkpt lat="48.02701" lon="-3.72788">
        <ele>205.3</ele>
        <time>2020-06-07T15:50:10Z</time>
      </trkpt>
      <trkpt lat="48.02704" lon="-3.72789">
        <ele>205.5</ele>
        <time>2020-06-07T15:50:11Z</time>
      </trkpt>
      <trkpt lat="48.02707" lon="-3.7279">
        <ele>205.7</ele>
        <time>2020-06-07T15:50:12Z</time>
      </trkpt>
      <trkpt lat="48.0271" lon="-3.72792">
        <ele>206</ele>
        <time>2020-06-07T15:50:13Z</time>
      </trkpt>
      <trkpt lat="48.02714" lon="-3.72795">
        <ele>206.2</ele>
        <time>2020-06-07T15:50:14Z</time>
      </trkpt>
      <trkpt lat="48.02715" lon="-3.72796">
        <ele>206.3</ele>
        <time>2020-06-07T15:50:15Z</time>
      </trkpt>
      <trkpt lat="48.02718" lon="-3.72798">
        <ele>206.5</ele>
        <time>2020-06-07T15:50:16Z</time>
      </trkpt>
      <trkpt lat="48.0272" lon="-3.728">
        <ele>206.7</ele>
        <time>2020-06-07T15:50:17Z</time>
      </trkpt>
      <trkpt lat="48.02723" lon="-3.72801">
        <ele>206.9</ele>
        <time>2020-06-07T15:50:18Z</time>
      </trkpt>
      <trkpt lat="48.02726" lon="-3.72803">
        <ele>207.1</ele>
        <time>2020-06-07T15:50:19Z</time>
      </trkpt>
      <trkpt lat="48.02729" lon="-3.72806">
        <ele>207.3</ele>
        <time>2020-06-07T15:50:20Z</time>
      </trkpt>
      <trkpt lat="48.0273" lon="-3.72807">
        <ele>207.3</ele>
        <time>2020-06-07T15:50:21Z</time>
      </trkpt>
      <trkpt lat="48.02733" lon="-3.72809">
        <ele>207.5</ele>
        <time>2020-06-07T15:50:22Z</time>
      </trkpt>
      <trkpt lat="48.02736" lon="-3.72811">
        <ele>207.6</ele>
        <time>2020-06-07T15:50:23Z</time>
      </trkpt>
      <trkpt lat="48.02738" lon="-3.72813">
        <ele>207.7</ele>
        <time>2020-06-07T15:50:24Z</time>
      </trkpt>
      <trkpt lat="48.02741" lon="-3.72814">
        <ele>207.7</ele>
        <time>2020-06-07T15:50:25Z</time>
      </trkpt>
      <trkpt lat="48.02744" lon="-3.72815">
        <ele>207.7</ele>
        <time>2020-06-07T15:50:26Z</time>
      </trkpt>
      <trkpt lat="48.02747" lon="-3.72817">
        <ele>207.6</ele>
        <time>2020-06-07T15:50:27Z</time>
      </trkpt>
      <trkpt lat="48.02748" lon="-3.72818">
        <ele>207.6</ele>
        <time>2020-06-07T15:50:28Z</time>
      </trkpt>
      <trkpt lat="48.02751" lon="-3.7282">
        <ele>207.4</ele>
        <time>2020-06-07T15:50:29Z</time>
      </trkpt>
      <trkpt lat="48.02754" lon="-3.72822">
        <ele>207.3</ele>
        <time>2020-06-07T15:50:30Z</time>
      </trkpt>
      <trkpt lat="48.02756" lon="-3.72824">
        <ele>207.4</ele>
        <time>2020-06-07T15:50:31Z</time>
      </trkpt>
      <trkpt lat="48.0276" lon="-3.72825">
        <ele>207.5</ele>
        <time>2020-06-07T15:50:32Z</time>
      </trkpt>
      <trkpt lat="48.02762" lon="-3.72828">
        <ele>207.5</ele>
        <time>2020-06-07T15:50:33Z</time>
      </trkpt>
      <trkpt lat="48.02765" lon="-3.7283">
        <ele>207.6</ele>
        <time>2020-06-07T15:50:34Z</time>
      </trkpt>
      <trkpt lat="48.02769" lon="-3.72832">
        <ele>207.7</ele>
        <time>2020-06-07T15:50:35Z</time>
      </trkpt>
      <trkpt lat="48.02772" lon="-3.72833">
        <ele>207.8</ele>
        <time>2020-06-07T15:50:36Z</time>
      </trkpt>
      <trkpt lat="48.02775" lon="-3.72835">
        <ele>207.8</ele>
        <time>2020-06-07T15:50:37Z</time>
      </trkpt>
      <trkpt lat="48.0278" lon="-3.72837">
        <ele>207.9</ele>
        <time>2020-06-07T15:50:38Z</time>
      </trkpt>
      <trkpt lat="48.02783" lon="-3.72838">
        <ele>207.9</ele>
        <time>2020-06-07T15:50:39Z</time>
      </trkpt>
      <trkpt lat="48.02786" lon="-3.72839">
        <ele>208</ele>
        <time>2020-06-07T15:50:40Z</time>
      </trkpt>
      <trkpt lat="48.0279" lon="-3.7284">
        <ele>208</ele>
        <time>2020-06-07T15:50:41Z</time>
      </trkpt>
      <trkpt lat="48.02794" lon="-3.72843">
        <ele>208</ele>
        <time>2020-06-07T15:50:42Z</time>
      </trkpt>
      <trkpt lat="48.02797" lon="-3.72845">
        <ele>208.1</ele>
        <time>2020-06-07T15:50:43Z</time>
      </trkpt>
      <trkpt lat="48.028" lon="-3.72847">
        <ele>208.1</ele>
        <time>2020-06-07T15:50:44Z</time>
      </trkpt>
      <trkpt lat="48.02805" lon="-3.72848">
        <ele>208.1</ele>
        <time>2020-06-07T15:50:45Z</time>
      </trkpt>
      <trkpt lat="48.0281" lon="-3.72852">
        <ele>208.1</ele>
        <time>2020-06-07T15:50:46Z</time>
      </trkpt>
      <trkpt lat="48.02815" lon="-3.72856">
        <ele>208</ele>
        <time>2020-06-07T15:50:47Z</time>
      </trkpt>
      <trkpt lat="48.02819" lon="-3.72858">
        <ele>208</ele>
        <time>2020-06-07T15:50:48Z</time>
      </trkpt>
      <trkpt lat="48.02824" lon="-3.7286">
        <ele>208</ele>
        <time>2020-06-07T15:50:49Z</time>
      </trkpt>
      <trkpt lat="48.02828" lon="-3.72863">
        <ele>208</ele>
        <time>2020-06-07T15:50:50Z</time>
      </trkpt>
      <trkpt lat="48.02835" lon="-3.72865">
        <ele>207.9</ele>
        <time>2020-06-07T15:50:51Z</time>
      </trkpt>
      <trkpt lat="48.0284" lon="-3.72867">
        <ele>207.8</ele>
        <time>2020-06-07T15:50:52Z</time>
      </trkpt>
      <trkpt lat="48.02845" lon="-3.72868">
        <ele>207.8</ele>
        <time>2020-06-07T15:50:53Z</time>
      </trkpt>
      <trkpt lat="48.0285" lon="-3.7287">
        <ele>207.8</ele>
        <time>2020-06-07T15:50:54Z</time>
      </trkpt>
      <trkpt lat="48.02854" lon="-3.7287">
        <ele>207.8</ele>
        <time>2020-06-07T15:50:55Z</time>
      </trkpt>
      <trkpt lat="48.02858" lon="-3.72871">
        <ele>207.8</ele>
        <time>2020-06-07T15:50:56Z</time>
      </trkpt>
      <trkpt lat="48.02863" lon="-3.72871">
        <ele>207.8</ele>
        <time>2020-06-07T15:50:57Z</time>
      </trkpt>
      <trkpt lat="48.02868" lon="-3.72871">
        <ele>207.8</ele>
        <time>2020-06-07T15:50:58Z</time>
      </trkpt>
      <trkpt lat="48.02873" lon="-3.72871">
        <ele>207.9</ele>
        <time>2020-06-07T15:50:59Z</time>
      </trkpt>
      <trkpt lat="48.02878" lon="-3.7287">
        <ele>207.9</ele>
        <time>2020-06-07T15:51:00Z</time>
      </trkpt>
      <trkpt lat="48.02883" lon="-3.7287">
        <ele>207.9</ele>
        <time>2020-06-07T15:51:01Z</time>
      </trkpt>
      <trkpt lat="48.02887" lon="-3.72869">
        <ele>207.9</ele>
        <time>2020-06-07T15:51:02Z</time>
      </trkpt>
      <trkpt lat="48.02891" lon="-3.72869">
        <ele>208</ele>
        <time>2020-06-07T15:51:03Z</time>
      </trkpt>
      <trkpt lat="48.02895" lon="-3.72869">
        <ele>208</ele>
        <time>2020-06-07T15:51:04Z</time>
      </trkpt>
      <trkpt lat="48.029" lon="-3.72869">
        <ele>208.1</ele>
        <time>2020-06-07T15:51:05Z</time>
      </trkpt>
      <trkpt lat="48.02905" lon="-3.7287">
        <ele>208.1</ele>
        <time>2020-06-07T15:51:06Z</time>
      </trkpt>
      <trkpt lat="48.0291" lon="-3.72869">
        <ele>208.2</ele>
        <time>2020-06-07T15:51:07Z</time>
      </trkpt>
      <trkpt lat="48.02914" lon="-3.72869">
        <ele>208.2</ele>
        <time>2020-06-07T15:51:08Z</time>
      </trkpt>
      <trkpt lat="48.02919" lon="-3.7287">
        <ele>208.3</ele>
        <time>2020-06-07T15:51:09Z</time>
      </trkpt>
      <trkpt lat="48.02923" lon="-3.72871">
        <ele>208.4</ele>
        <time>2020-06-07T15:51:10Z</time>
      </trkpt>
      <trkpt lat="48.02927" lon="-3.7287">
        <ele>208.5</ele>
        <time>2020-06-07T15:51:11Z</time>
      </trkpt>
      <trkpt lat="48.02932" lon="-3.7287">
        <ele>208.6</ele>
        <time>2020-06-07T15:51:12Z</time>
      </trkpt>
      <trkpt lat="48.02936" lon="-3.7287">
        <ele>208.7</ele>
        <time>2020-06-07T15:51:13Z</time>
      </trkpt>
      <trkpt lat="48.02941" lon="-3.72869">
        <ele>208.8</ele>
        <time>2020-06-07T15:51:14Z</time>
      </trkpt>
      <trkpt lat="48.02945" lon="-3.72869">
        <ele>208.9</ele>
        <time>2020-06-07T15:51:15Z</time>
      </trkpt>
      <trkpt lat="48.02949" lon="-3.72868">
        <ele>209</ele>
        <time>2020-06-07T15:51:16Z</time>
      </trkpt>
      <trkpt lat="48.02953" lon="-3.72868">
        <ele>209.2</ele>
        <time>2020-06-07T15:51:17Z</time>
      </trkpt>
      <trkpt lat="48.02957" lon="-3.72868">
        <ele>209.3</ele>
        <time>2020-06-07T15:51:18Z</time>
      </trkpt>
      <trkpt lat="48.02961" lon="-3.72868">
        <ele>209.5</ele>
        <time>2020-06-07T15:51:19Z</time>
      </trkpt>
      <trkpt lat="48.02965" lon="-3.72868">
        <ele>209.6</ele>
        <time>2020-06-07T15:51:20Z</time>
      </trkpt>
      <trkpt lat="48.02969" lon="-3.72868">
        <ele>209.8</ele>
        <time>2020-06-07T15:51:21Z</time>
      </trkpt>
      <trkpt lat="48.02974" lon="-3.72867">
        <ele>210</ele>
        <time>2020-06-07T15:51:22Z</time>
      </trkpt>
      <trkpt lat="48.02978" lon="-3.72866">
        <ele>210.2</ele>
        <time>2020-06-07T15:51:23Z</time>
      </trkpt>
      <trkpt lat="48.02982" lon="-3.72866">
        <ele>210.4</ele>
        <time>2020-06-07T15:51:24Z</time>
      </trkpt>
      <trkpt lat="48.02986" lon="-3.72866">
        <ele>210.6</ele>
        <time>2020-06-07T15:51:25Z</time>
      </trkpt>
      <trkpt lat="48.0299" lon="-3.72868">
        <ele>210.8</ele>
        <time>2020-06-07T15:51:26Z</time>
      </trkpt>
      <trkpt lat="48.02993" lon="-3.72868">
        <ele>211</ele>
        <time>2020-06-07T15:51:27Z</time>
      </trkpt>
      <trkpt lat="48.02997" lon="-3.7287">
        <ele>211.2</ele>
        <time>2020-06-07T15:51:28Z</time>
      </trkpt>
      <trkpt lat="48.03001" lon="-3.7287">
        <ele>211.4</ele>
        <time>2020-06-07T15:51:29Z</time>
      </trkpt>
      <trkpt lat="48.03005" lon="-3.7287">
        <ele>211.7</ele>
        <time>2020-06-07T15:51:30Z</time>
      </trkpt>
      <trkpt lat="48.03009" lon="-3.7287">
        <ele>212</ele>
        <time>2020-06-07T15:51:31Z</time>
      </trkpt>
      <trkpt lat="48.03012" lon="-3.72871">
        <ele>212.2</ele>
        <time>2020-06-07T15:51:32Z</time>
      </trkpt>
      <trkpt lat="48.03016" lon="-3.72871">
        <ele>212.4</ele>
        <time>2020-06-07T15:51:33Z</time>
      </trkpt>
      <trkpt lat="48.03017" lon="-3.72871">
        <ele>212.5</ele>
        <time>2020-06-07T15:51:34Z</time>
      </trkpt>
      <trkpt lat="48.03021" lon="-3.72872">
        <ele>212.8</ele>
        <time>2020-06-07T15:51:35Z</time>
      </trkpt>
      <trkpt lat="48.03022" lon="-3.72874">
        <ele>212.9</ele>
        <time>2020-06-07T15:51:36Z</time>
      </trkpt>
      <trkpt lat="48.03025" lon="-3.72875">
        <ele>213.1</ele>
        <time>2020-06-07T15:51:37Z</time>
      </trkpt>
      <trkpt lat="48.03028" lon="-3.72876">
        <ele>213.3</ele>
        <time>2020-06-07T15:51:38Z</time>
      </trkpt>
      <trkpt lat="48.0303" lon="-3.72877">
        <ele>213.5</ele>
        <time>2020-06-07T15:51:39Z</time>
      </trkpt>
      <trkpt lat="48.03033" lon="-3.72878">
        <ele>213.6</ele>
        <time>2020-06-07T15:51:40Z</time>
      </trkpt>
      <trkpt lat="48.03036" lon="-3.72879">
        <ele>213.8</ele>
        <time>2020-06-07T15:51:41Z</time>
      </trkpt>
      <trkpt lat="48.0304" lon="-3.72879">
        <ele>214</ele>
        <time>2020-06-07T15:51:42Z</time>
      </trkpt>
      <trkpt lat="48.03043" lon="-3.72879">
        <ele>214.2</ele>
        <time>2020-06-07T15:51:43Z</time>
      </trkpt>
      <trkpt lat="48.03046" lon="-3.7288">
        <ele>214.4</ele>
        <time>2020-06-07T15:51:44Z</time>
      </trkpt>
      <trkpt lat="48.03048" lon="-3.7288">
        <ele>214.5</ele>
        <time>2020-06-07T15:51:45Z</time>
      </trkpt>
      <trkpt lat="48.03051" lon="-3.7288">
        <ele>214.7</ele>
        <time>2020-06-07T15:51:46Z</time>
      </trkpt>
      <trkpt lat="48.03052" lon="-3.7288">
        <ele>214.8</ele>
        <time>2020-06-07T15:51:47Z</time>
      </trkpt>
      <trkpt lat="48.03056" lon="-3.72881">
        <ele>215</ele>
        <time>2020-06-07T15:51:48Z</time>
      </trkpt>
      <trkpt lat="48.03057" lon="-3.72881">
        <ele>215</ele>
        <time>2020-06-07T15:51:49Z</time>
      </trkpt>
      <trkpt lat="48.0306" lon="-3.72882">
        <ele>215.2</ele>
        <time>2020-06-07T15:51:50Z</time>
      </trkpt>
      <trkpt lat="48.03064" lon="-3.72883">
        <ele>215.4</ele>
        <time>2020-06-07T15:51:51Z</time>
      </trkpt>
      <trkpt lat="48.03065" lon="-3.72883">
        <ele>215.4</ele>
        <time>2020-06-07T15:51:52Z</time>
      </trkpt>
      <trkpt lat="48.03068" lon="-3.72884">
        <ele>215.5</ele>
        <time>2020-06-07T15:51:53Z</time>
      </trkpt>
      <trkpt lat="48.03072" lon="-3.72885">
        <ele>215.7</ele>
        <time>2020-06-07T15:51:54Z</time>
      </trkpt>
      <trkpt lat="48.03076" lon="-3.72886">
        <ele>215.9</ele>
        <time>2020-06-07T15:51:55Z</time>
      </trkpt>
      <trkpt lat="48.0308" lon="-3.72887">
        <ele>216</ele>
        <time>2020-06-07T15:51:56Z</time>
      </trkpt>
      <trkpt lat="48.03082" lon="-3.72888">
        <ele>216.1</ele>
        <time>2020-06-07T15:51:57Z</time>
      </trkpt>
      <trkpt lat="48.03085" lon="-3.72889">
        <ele>216.2</ele>
        <time>2020-06-07T15:51:58Z</time>
      </trkpt>
      <trkpt lat="48.03088" lon="-3.7289">
        <ele>216.3</ele>
        <time>2020-06-07T15:51:59Z</time>
      </trkpt>
      <trkpt lat="48.03092" lon="-3.72892">
        <ele>216.4</ele>
        <time>2020-06-07T15:52:00Z</time>
      </trkpt>
      <trkpt lat="48.03096" lon="-3.72895">
        <ele>216.6</ele>
        <time>2020-06-07T15:52:01Z</time>
      </trkpt>
      <trkpt lat="48.03099" lon="-3.72896">
        <ele>216.7</ele>
        <time>2020-06-07T15:52:02Z</time>
      </trkpt>
      <trkpt lat="48.03103" lon="-3.72897">
        <ele>216.8</ele>
        <time>2020-06-07T15:52:03Z</time>
      </trkpt>
      <trkpt lat="48.03106" lon="-3.72899">
        <ele>216.9</ele>
        <time>2020-06-07T15:52:04Z</time>
      </trkpt>
      <trkpt lat="48.0311" lon="-3.72901">
        <ele>217.1</ele>
        <time>2020-06-07T15:52:05Z</time>
      </trkpt>
      <trkpt lat="48.03113" lon="-3.72901">
        <ele>217.2</ele>
        <time>2020-06-07T15:52:06Z</time>
      </trkpt>
      <trkpt lat="48.03116" lon="-3.72901">
        <ele>217.2</ele>
        <time>2020-06-07T15:52:07Z</time>
      </trkpt>
      <trkpt lat="48.03119" lon="-3.72901">
        <ele>217.3</ele>
        <time>2020-06-07T15:52:08Z</time>
      </trkpt>
      <trkpt lat="48.03123" lon="-3.72904">
        <ele>217.4</ele>
        <time>2020-06-07T15:52:09Z</time>
      </trkpt>
      <trkpt lat="48.03124" lon="-3.72904">
        <ele>217.5</ele>
        <time>2020-06-07T15:52:10Z</time>
      </trkpt>
      <trkpt lat="48.03128" lon="-3.72904">
        <ele>217.6</ele>
        <time>2020-06-07T15:52:11Z</time>
      </trkpt>
      <trkpt lat="48.03131" lon="-3.72905">
        <ele>217.6</ele>
        <time>2020-06-07T15:52:12Z</time>
      </trkpt>
      <trkpt lat="48.03134" lon="-3.72906">
        <ele>217.7</ele>
        <time>2020-06-07T15:52:13Z</time>
      </trkpt>
      <trkpt lat="48.03138" lon="-3.72907">
        <ele>217.8</ele>
        <time>2020-06-07T15:52:14Z</time>
      </trkpt>
      <trkpt lat="48.03141" lon="-3.72908">
        <ele>217.9</ele>
        <time>2020-06-07T15:52:15Z</time>
      </trkpt>
      <trkpt lat="48.03146" lon="-3.7291">
        <ele>218.1</ele>
        <time>2020-06-07T15:52:16Z</time>
      </trkpt>
      <trkpt lat="48.0315" lon="-3.72911">
        <ele>218.2</ele>
        <time>2020-06-07T15:52:17Z</time>
      </trkpt>
      <trkpt lat="48.03153" lon="-3.72913">
        <ele>218.3</ele>
        <time>2020-06-07T15:52:18Z</time>
      </trkpt>
      <trkpt lat="48.03157" lon="-3.72914">
        <ele>218.4</ele>
        <time>2020-06-07T15:52:19Z</time>
      </trkpt>
      <trkpt lat="48.03161" lon="-3.72915">
        <ele>218.5</ele>
        <time>2020-06-07T15:52:20Z</time>
      </trkpt>
      <trkpt lat="48.03165" lon="-3.72916">
        <ele>218.6</ele>
        <time>2020-06-07T15:52:21Z</time>
      </trkpt>
      <trkpt lat="48.03168" lon="-3.72916">
        <ele>218.6</ele>
        <time>2020-06-07T15:52:22Z</time>
      </trkpt>
      <trkpt lat="48.03171" lon="-3.72918">
        <ele>218.7</ele>
        <time>2020-06-07T15:52:23Z</time>
      </trkpt>
      <trkpt lat="48.03175" lon="-3.72919">
        <ele>218.7</ele>
        <time>2020-06-07T15:52:24Z</time>
      </trkpt>
      <trkpt lat="48.03178" lon="-3.72919">
        <ele>218.7</ele>
        <time>2020-06-07T15:52:25Z</time>
      </trkpt>
      <trkpt lat="48.03182" lon="-3.7292">
        <ele>218.8</ele>
        <time>2020-06-07T15:52:26Z</time>
      </trkpt>
      <trkpt lat="48.03187" lon="-3.72922">
        <ele>218.9</ele>
        <time>2020-06-07T15:52:27Z</time>
      </trkpt>
      <trkpt lat="48.03191" lon="-3.72924">
        <ele>219</ele>
        <time>2020-06-07T15:52:28Z</time>
      </trkpt>
      <trkpt lat="48.03195" lon="-3.72926">
        <ele>219.1</ele>
        <time>2020-06-07T15:52:29Z</time>
      </trkpt>
      <trkpt lat="48.03198" lon="-3.72927">
        <ele>219.2</ele>
        <time>2020-06-07T15:52:30Z</time>
      </trkpt>
      <trkpt lat="48.03202" lon="-3.72929">
        <ele>219.2</ele>
        <time>2020-06-07T15:52:31Z</time>
      </trkpt>
      <trkpt lat="48.03206" lon="-3.7293">
        <ele>219.3</ele>
        <time>2020-06-07T15:52:32Z</time>
      </trkpt>
      <trkpt lat="48.03211" lon="-3.72931">
        <ele>219.4</ele>
        <time>2020-06-07T15:52:33Z</time>
      </trkpt>
      <trkpt lat="48.03214" lon="-3.72933">
        <ele>219.5</ele>
        <time>2020-06-07T15:52:34Z</time>
      </trkpt>
      <trkpt lat="48.03218" lon="-3.72935">
        <ele>219.6</ele>
        <time>2020-06-07T15:52:35Z</time>
      </trkpt>
      <trkpt lat="48.03222" lon="-3.72936">
        <ele>219.6</ele>
        <time>2020-06-07T15:52:36Z</time>
      </trkpt>
      <trkpt lat="48.03225" lon="-3.72937">
        <ele>219.7</ele>
        <time>2020-06-07T15:52:37Z</time>
      </trkpt>
      <trkpt lat="48.03228" lon="-3.72939">
        <ele>219.8</ele>
        <time>2020-06-07T15:52:38Z</time>
      </trkpt>
      <trkpt lat="48.03231" lon="-3.7294">
        <ele>219.8</ele>
        <time>2020-06-07T15:52:39Z</time>
      </trkpt>
      <trkpt lat="48.03235" lon="-3.72938">
        <ele>219.9</ele>
        <time>2020-06-07T15:52:40Z</time>
      </trkpt>
      <trkpt lat="48.03237" lon="-3.72938">
        <ele>219.9</ele>
        <time>2020-06-07T15:52:41Z</time>
      </trkpt>
      <trkpt lat="48.03239" lon="-3.72938">
        <ele>219.9</ele>
        <time>2020-06-07T15:52:42Z</time>
      </trkpt>
      <trkpt lat="48.03242" lon="-3.72938">
        <ele>220</ele>
        <time>2020-06-07T15:52:43Z</time>
      </trkpt>
      <trkpt lat="48.03245" lon="-3.72938">
        <ele>220</ele>
        <time>2020-06-07T15:52:44Z</time>
      </trkpt>
      <trkpt lat="48.03248" lon="-3.7294">
        <ele>220.1</ele>
        <time>2020-06-07T15:52:45Z</time>
      </trkpt>
      <trkpt lat="48.03252" lon="-3.7294">
        <ele>220.2</ele>
        <time>2020-06-07T15:52:46Z</time>
      </trkpt>
      <trkpt lat="48.03255" lon="-3.72941">
        <ele>220.2</ele>
        <time>2020-06-07T15:52:47Z</time>
      </trkpt>
      <trkpt lat="48.03258" lon="-3.72942">
        <ele>220.3</ele>
        <time>2020-06-07T15:52:48Z</time>
      </trkpt>
      <trkpt lat="48.03262" lon="-3.72943">
        <ele>220.4</ele>
        <time>2020-06-07T15:52:49Z</time>
      </trkpt>
      <trkpt lat="48.03265" lon="-3.72943">
        <ele>220.5</ele>
        <time>2020-06-07T15:52:50Z</time>
      </trkpt>
      <trkpt lat="48.03268" lon="-3.72942">
        <ele>220.6</ele>
        <time>2020-06-07T15:52:51Z</time>
      </trkpt>
      <trkpt lat="48.03271" lon="-3.72942">
        <ele>220.7</ele>
        <time>2020-06-07T15:52:52Z</time>
      </trkpt>
      <trkpt lat="48.03274" lon="-3.72941">
        <ele>220.8</ele>
        <time>2020-06-07T15:52:53Z</time>
      </trkpt>
      <trkpt lat="48.03278" lon="-3.7294">
        <ele>220.9</ele>
        <time>2020-06-07T15:52:54Z</time>
      </trkpt>
      <trkpt lat="48.03282" lon="-3.7294">
        <ele>221.1</ele>
        <time>2020-06-07T15:52:55Z</time>
      </trkpt>
      <trkpt lat="48.03285" lon="-3.7294">
        <ele>221.2</ele>
        <time>2020-06-07T15:52:56Z</time>
      </trkpt>
      <trkpt lat="48.03289" lon="-3.72939">
        <ele>221.4</ele>
        <time>2020-06-07T15:52:57Z</time>
      </trkpt>
      <trkpt lat="48.0329" lon="-3.72939">
        <ele>221.4</ele>
        <time>2020-06-07T15:52:58Z</time>
      </trkpt>
      <trkpt lat="48.03293" lon="-3.72937">
        <ele>221.5</ele>
        <time>2020-06-07T15:52:59Z</time>
      </trkpt>
      <trkpt lat="48.03296" lon="-3.72936">
        <ele>221.6</ele>
        <time>2020-06-07T15:53:00Z</time>
      </trkpt>
      <trkpt lat="48.03298" lon="-3.72936">
        <ele>221.8</ele>
        <time>2020-06-07T15:53:01Z</time>
      </trkpt>
      <trkpt lat="48.03298" lon="-3.72936">
        <ele>221.8</ele>
        <time>2020-06-07T15:53:02Z</time>
      </trkpt>
      <trkpt lat="48.03299" lon="-3.72937">
        <ele>221.7</ele>
        <time>2020-06-07T15:53:03Z</time>
      </trkpt>
      <trkpt lat="48.03299" lon="-3.72937">
        <ele>221.7</ele>
        <time>2020-06-07T15:53:04Z</time>
      </trkpt>
      <trkpt lat="48.03299" lon="-3.72937">
        <ele>221.7</ele>
        <time>2020-06-07T15:53:05Z</time>
      </trkpt>
      <trkpt lat="48.03299" lon="-3.72937">
        <ele>221.7</ele>
        <time>2020-06-07T15:53:06Z</time>
      </trkpt>
      <trkpt lat="48.033" lon="-3.72937">
        <ele>221.7</ele>
        <time>2020-06-07T15:53:07Z</time>
      </trkpt>
      <trkpt lat="48.033" lon="-3.72937">
        <ele>221.7</ele>
        <time>2020-06-07T15:53:08Z</time>
      </trkpt>
      <trkpt lat="48.033" lon="-3.72938">
        <ele>221.7</ele>
        <time>2020-06-07T15:53:09Z</time>
      </trkpt>
      <trkpt lat="48.03301" lon="-3.72938">
        <ele>221.7</ele>
        <time>2020-06-07T15:53:10Z</time>
      </trkpt>
      <trkpt lat="48.03301" lon="-3.72938">
        <ele>221.7</ele>
        <time>2020-06-07T15:53:11Z</time>
      </trkpt>
      <trkpt lat="48.03301" lon="-3.72938">
        <ele>221.7</ele>
        <time>2020-06-07T15:53:12Z</time>
      </trkpt>
      <trkpt lat="48.03302" lon="-3.72938">
        <ele>221.7</ele>
        <time>2020-06-07T15:53:13Z</time>
      </trkpt>
      <trkpt lat="48.03302" lon="-3.72938">
        <ele>221.7</ele>
        <time>2020-06-07T15:53:14Z</time>
      </trkpt>
      <trkpt lat="48.03302" lon="-3.72939">
        <ele>221.7</ele>
        <time>2020-06-07T15:53:15Z</time>
      </trkpt>
      <trkpt lat="48.03303" lon="-3.72939">
        <ele>221.7</ele>
        <time>2020-06-07T15:54:37Z</time>
      </trkpt>
      <trkpt lat="48.03303" lon="-3.72939">
        <ele>221.7</ele>
        <time>2020-06-07T15:54:38Z</time>
      </trkpt>
      <trkpt lat="48.03303" lon="-3.72939">
        <ele>221.7</ele>
        <time>2020-06-07T15:54:39Z</time>
      </trkpt>
      <trkpt lat="48.03304" lon="-3.72944">
        <ele>221.6</ele>
        <time>2020-06-07T15:54:40Z</time>
      </trkpt>
      <trkpt lat="48.03305" lon="-3.72948">
        <ele>221.6</ele>
        <time>2020-06-07T15:54:41Z</time>
      </trkpt>
      <trkpt lat="48.03305" lon="-3.72953">
        <ele>221.5</ele>
        <time>2020-06-07T15:54:42Z</time>
      </trkpt>
      <trkpt lat="48.03306" lon="-3.72958">
        <ele>221.5</ele>
        <time>2020-06-07T15:54:43Z</time>
      </trkpt>
      <trkpt lat="48.03307" lon="-3.72962">
        <ele>221.4</ele>
        <time>2020-06-07T15:54:44Z</time>
      </trkpt>
      <trkpt lat="48.03308" lon="-3.72967">
        <ele>221.3</ele>
        <time>2020-06-07T15:54:45Z</time>
      </trkpt>
      <trkpt lat="48.0331" lon="-3.72972">
        <ele>221.3</ele>
        <time>2020-06-07T15:54:46Z</time>
      </trkpt>
      <trkpt lat="48.03311" lon="-3.72977">
        <ele>221.2</ele>
        <time>2020-06-07T15:54:47Z</time>
      </trkpt>
      <trkpt lat="48.03312" lon="-3.72982">
        <ele>221.1</ele>
        <time>2020-06-07T15:54:48Z</time>
      </trkpt>
      <trkpt lat="48.03313" lon="-3.72987">
        <ele>221.1</ele>
        <time>2020-06-07T15:54:49Z</time>
      </trkpt>
      <trkpt lat="48.03314" lon="-3.72993">
        <ele>221</ele>
        <time>2020-06-07T15:54:50Z</time>
      </trkpt>
      <trkpt lat="48.03314" lon="-3.72999">
        <ele>220.9</ele>
        <time>2020-06-07T15:54:51Z</time>
      </trkpt>
      <trkpt lat="48.03315" lon="-3.73006">
        <ele>220.7</ele>
        <time>2020-06-07T15:54:52Z</time>
      </trkpt>
      <trkpt lat="48.03317" lon="-3.73011">
        <ele>220.6</ele>
        <time>2020-06-07T15:54:53Z</time>
      </trkpt>
      <trkpt lat="48.03318" lon="-3.73017">
        <ele>220.5</ele>
        <time>2020-06-07T15:54:54Z</time>
      </trkpt>
      <trkpt lat="48.0332" lon="-3.73023">
        <ele>220.3</ele>
        <time>2020-06-07T15:54:55Z</time>
      </trkpt>
      <trkpt lat="48.03321" lon="-3.73029">
        <ele>220.2</ele>
        <time>2020-06-07T15:54:56Z</time>
      </trkpt>
      <trkpt lat="48.03322" lon="-3.73035">
        <ele>220</ele>
        <time>2020-06-07T15:54:57Z</time>
      </trkpt>
      <trkpt lat="48.03324" lon="-3.73043">
        <ele>219.8</ele>
        <time>2020-06-07T15:54:58Z</time>
      </trkpt>
      <trkpt lat="48.03325" lon="-3.73051">
        <ele>219.6</ele>
        <time>2020-06-07T15:54:59Z</time>
      </trkpt>
      <trkpt lat="48.03326" lon="-3.7306">
        <ele>219.3</ele>
        <time>2020-06-07T15:55:00Z</time>
      </trkpt>
      <trkpt lat="48.03328" lon="-3.73069">
        <ele>219.1</ele>
        <time>2020-06-07T15:55:01Z</time>
      </trkpt>
      <trkpt lat="48.0333" lon="-3.73079">
        <ele>218.9</ele>
        <time>2020-06-07T15:55:02Z</time>
      </trkpt>
      <trkpt lat="48.03331" lon="-3.73088">
        <ele>218.6</ele>
        <time>2020-06-07T15:55:03Z</time>
      </trkpt>
      <trkpt lat="48.03333" lon="-3.73097">
        <ele>218.4</ele>
        <time>2020-06-07T15:55:04Z</time>
      </trkpt>
      <trkpt lat="48.03335" lon="-3.73106">
        <ele>218.2</ele>
        <time>2020-06-07T15:55:05Z</time>
      </trkpt>
      <trkpt lat="48.03336" lon="-3.73116">
        <ele>217.9</ele>
        <time>2020-06-07T15:55:06Z</time>
      </trkpt>
      <trkpt lat="48.03338" lon="-3.73126">
        <ele>217.7</ele>
        <time>2020-06-07T15:55:07Z</time>
      </trkpt>
      <trkpt lat="48.0334" lon="-3.73136">
        <ele>217.5</ele>
        <time>2020-06-07T15:55:08Z</time>
      </trkpt>
      <trkpt lat="48.03342" lon="-3.73146">
        <ele>217.3</ele>
        <time>2020-06-07T15:55:09Z</time>
      </trkpt>
      <trkpt lat="48.03344" lon="-3.73156">
        <ele>217</ele>
        <time>2020-06-07T15:55:10Z</time>
      </trkpt>
      <trkpt lat="48.03346" lon="-3.73167">
        <ele>216.8</ele>
        <time>2020-06-07T15:55:11Z</time>
      </trkpt>
      <trkpt lat="48.03348" lon="-3.73178">
        <ele>216.5</ele>
        <time>2020-06-07T15:55:12Z</time>
      </trkpt>
      <trkpt lat="48.0335" lon="-3.73189">
        <ele>216.3</ele>
        <time>2020-06-07T15:55:13Z</time>
      </trkpt>
      <trkpt lat="48.03352" lon="-3.732">
        <ele>216.1</ele>
        <time>2020-06-07T15:55:14Z</time>
      </trkpt>
      <trkpt lat="48.03354" lon="-3.73211">
        <ele>215.9</ele>
        <time>2020-06-07T15:55:15Z</time>
      </trkpt>
      <trkpt lat="48.03356" lon="-3.73221">
        <ele>215.8</ele>
        <time>2020-06-07T15:55:16Z</time>
      </trkpt>
      <trkpt lat="48.03358" lon="-3.73232">
        <ele>215.6</ele>
        <time>2020-06-07T15:55:17Z</time>
      </trkpt>
      <trkpt lat="48.0336" lon="-3.73241">
        <ele>215.4</ele>
        <time>2020-06-07T15:55:18Z</time>
      </trkpt>
      <trkpt lat="48.03362" lon="-3.7325">
        <ele>215.3</ele>
        <time>2020-06-07T15:55:19Z</time>
      </trkpt>
      <trkpt lat="48.03363" lon="-3.73261">
        <ele>215.2</ele>
        <time>2020-06-07T15:55:20Z</time>
      </trkpt>
      <trkpt lat="48.03365" lon="-3.73271">
        <ele>215.1</ele>
        <time>2020-06-07T15:55:21Z</time>
      </trkpt>
      <trkpt lat="48.03367" lon="-3.73281">
        <ele>214.9</ele>
        <time>2020-06-07T15:55:22Z</time>
      </trkpt>
      <trkpt lat="48.03369" lon="-3.73292">
        <ele>214.8</ele>
        <time>2020-06-07T15:55:23Z</time>
      </trkpt>
      <trkpt lat="48.03371" lon="-3.73303">
        <ele>214.8</ele>
        <time>2020-06-07T15:55:24Z</time>
      </trkpt>
      <trkpt lat="48.03373" lon="-3.73313">
        <ele>214.7</ele>
        <time>2020-06-07T15:55:25Z</time>
      </trkpt>
      <trkpt lat="48.03375" lon="-3.73322">
        <ele>214.7</ele>
        <time>2020-06-07T15:55:26Z</time>
      </trkpt>
      <trkpt lat="48.03377" lon="-3.73332">
        <ele>214.7</ele>
        <time>2020-06-07T15:55:27Z</time>
      </trkpt>
      <trkpt lat="48.03379" lon="-3.73342">
        <ele>214.7</ele>
        <time>2020-06-07T15:55:28Z</time>
      </trkpt>
      <trkpt lat="48.03381" lon="-3.73351">
        <ele>214.7</ele>
        <time>2020-06-07T15:55:29Z</time>
      </trkpt>
      <trkpt lat="48.03382" lon="-3.7336">
        <ele>214.7</ele>
        <time>2020-06-07T15:55:30Z</time>
      </trkpt>
      <trkpt lat="48.03384" lon="-3.7337">
        <ele>214.7</ele>
        <time>2020-06-07T15:55:31Z</time>
      </trkpt>
      <trkpt lat="48.03386" lon="-3.73379">
        <ele>214.7</ele>
        <time>2020-06-07T15:55:32Z</time>
      </trkpt>
      <trkpt lat="48.03388" lon="-3.73388">
        <ele>214.7</ele>
        <time>2020-06-07T15:55:33Z</time>
      </trkpt>
      <trkpt lat="48.03389" lon="-3.73397">
        <ele>214.7</ele>
        <time>2020-06-07T15:55:34Z</time>
      </trkpt>
      <trkpt lat="48.03391" lon="-3.73406">
        <ele>214.7</ele>
        <time>2020-06-07T15:55:35Z</time>
      </trkpt>
      <trkpt lat="48.03392" lon="-3.73415">
        <ele>214.6</ele>
        <time>2020-06-07T15:55:36Z</time>
      </trkpt>
      <trkpt lat="48.03394" lon="-3.73424">
        <ele>214.6</ele>
        <time>2020-06-07T15:55:37Z</time>
      </trkpt>
      <trkpt lat="48.03395" lon="-3.73433">
        <ele>214.6</ele>
        <time>2020-06-07T15:55:38Z</time>
      </trkpt>
      <trkpt lat="48.03397" lon="-3.73442">
        <ele>214.6</ele>
        <time>2020-06-07T15:55:39Z</time>
      </trkpt>
      <trkpt lat="48.03399" lon="-3.73451">
        <ele>214.5</ele>
        <time>2020-06-07T15:55:40Z</time>
      </trkpt>
      <trkpt lat="48.034" lon="-3.73459">
        <ele>214.5</ele>
        <time>2020-06-07T15:55:41Z</time>
      </trkpt>
      <trkpt lat="48.03402" lon="-3.73468">
        <ele>214.5</ele>
        <time>2020-06-07T15:55:42Z</time>
      </trkpt>
      <trkpt lat="48.03404" lon="-3.73477">
        <ele>214.5</ele>
        <time>2020-06-07T15:55:43Z</time>
      </trkpt>
      <trkpt lat="48.03406" lon="-3.73485">
        <ele>214.5</ele>
        <time>2020-06-07T15:55:44Z</time>
      </trkpt>
      <trkpt lat="48.03407" lon="-3.73494">
        <ele>214.5</ele>
        <time>2020-06-07T15:55:45Z</time>
      </trkpt>
      <trkpt lat="48.03409" lon="-3.73503">
        <ele>214.5</ele>
        <time>2020-06-07T15:55:46Z</time>
      </trkpt>
      <trkpt lat="48.03411" lon="-3.73511">
        <ele>214.5</ele>
        <time>2020-06-07T15:55:47Z</time>
      </trkpt>
      <trkpt lat="48.03412" lon="-3.7352">
        <ele>214.4</ele>
        <time>2020-06-07T15:55:48Z</time>
      </trkpt>
      <trkpt lat="48.03414" lon="-3.73528">
        <ele>214.3</ele>
        <time>2020-06-07T15:55:49Z</time>
      </trkpt>
      <trkpt lat="48.03415" lon="-3.73537">
        <ele>214.3</ele>
        <time>2020-06-07T15:55:50Z</time>
      </trkpt>
      <trkpt lat="48.03416" lon="-3.73545">
        <ele>214.3</ele>
        <time>2020-06-07T15:55:51Z</time>
      </trkpt>
      <trkpt lat="48.03418" lon="-3.73554">
        <ele>214.2</ele>
        <time>2020-06-07T15:55:52Z</time>
      </trkpt>
      <trkpt lat="48.03419" lon="-3.73562">
        <ele>214.1</ele>
        <time>2020-06-07T15:55:53Z</time>
      </trkpt>
      <trkpt lat="48.0342" lon="-3.73571">
        <ele>214</ele>
        <time>2020-06-07T15:55:54Z</time>
      </trkpt>
      <trkpt lat="48.03421" lon="-3.7358">
        <ele>213.9</ele>
        <time>2020-06-07T15:55:55Z</time>
      </trkpt>
      <trkpt lat="48.03423" lon="-3.73588">
        <ele>213.8</ele>
        <time>2020-06-07T15:55:56Z</time>
      </trkpt>
      <trkpt lat="48.03424" lon="-3.73597">
        <ele>213.7</ele>
        <time>2020-06-07T15:55:57Z</time>
      </trkpt>
      <trkpt lat="48.03426" lon="-3.73606">
        <ele>213.6</ele>
        <time>2020-06-07T15:55:58Z</time>
      </trkpt>
      <trkpt lat="48.03428" lon="-3.73614">
        <ele>213.5</ele>
        <time>2020-06-07T15:55:59Z</time>
      </trkpt>
      <trkpt lat="48.03429" lon="-3.73623">
        <ele>213.4</ele>
        <time>2020-06-07T15:56:00Z</time>
      </trkpt>
      <trkpt lat="48.03431" lon="-3.73632">
        <ele>213.3</ele>
        <time>2020-06-07T15:56:01Z</time>
      </trkpt>
      <trkpt lat="48.03433" lon="-3.73641">
        <ele>213.1</ele>
        <time>2020-06-07T15:56:02Z</time>
      </trkpt>
      <trkpt lat="48.03435" lon="-3.7365">
        <ele>213</ele>
        <time>2020-06-07T15:56:03Z</time>
      </trkpt>
      <trkpt lat="48.03436" lon="-3.7366">
        <ele>212.8</ele>
        <time>2020-06-07T15:56:04Z</time>
      </trkpt>
      <trkpt lat="48.03438" lon="-3.73669">
        <ele>212.6</ele>
        <time>2020-06-07T15:56:05Z</time>
      </trkpt>
      <trkpt lat="48.0344" lon="-3.73678">
        <ele>212.4</ele>
        <time>2020-06-07T15:56:06Z</time>
      </trkpt>
      <trkpt lat="48.03442" lon="-3.73688">
        <ele>212.2</ele>
        <time>2020-06-07T15:56:07Z</time>
      </trkpt>
      <trkpt lat="48.03443" lon="-3.73698">
        <ele>212</ele>
        <time>2020-06-07T15:56:08Z</time>
      </trkpt>
      <trkpt lat="48.03446" lon="-3.73708">
        <ele>211.8</ele>
        <time>2020-06-07T15:56:09Z</time>
      </trkpt>
      <trkpt lat="48.03447" lon="-3.73718">
        <ele>211.6</ele>
        <time>2020-06-07T15:56:10Z</time>
      </trkpt>
      <trkpt lat="48.03449" lon="-3.73728">
        <ele>211.4</ele>
        <time>2020-06-07T15:56:11Z</time>
      </trkpt>
      <trkpt lat="48.03451" lon="-3.73739">
        <ele>211.1</ele>
        <time>2020-06-07T15:56:12Z</time>
      </trkpt>
      <trkpt lat="48.03453" lon="-3.73749">
        <ele>210.9</ele>
        <time>2020-06-07T15:56:13Z</time>
      </trkpt>
      <trkpt lat="48.03455" lon="-3.73759">
        <ele>210.7</ele>
        <time>2020-06-07T15:56:14Z</time>
      </trkpt>
      <trkpt lat="48.03457" lon="-3.7377">
        <ele>210.4</ele>
        <time>2020-06-07T15:56:15Z</time>
      </trkpt>
      <trkpt lat="48.03459" lon="-3.73781">
        <ele>210.2</ele>
        <time>2020-06-07T15:56:16Z</time>
      </trkpt>
      <trkpt lat="48.03461" lon="-3.73792">
        <ele>210</ele>
        <time>2020-06-07T15:56:17Z</time>
      </trkpt>
      <trkpt lat="48.03463" lon="-3.73803">
        <ele>209.8</ele>
        <time>2020-06-07T15:56:18Z</time>
      </trkpt>
      <trkpt lat="48.03466" lon="-3.73814">
        <ele>209.6</ele>
        <time>2020-06-07T15:56:19Z</time>
      </trkpt>
      <trkpt lat="48.03468" lon="-3.73825">
        <ele>209.4</ele>
        <time>2020-06-07T15:56:20Z</time>
      </trkpt>
      <trkpt lat="48.03469" lon="-3.73836">
        <ele>209.3</ele>
        <time>2020-06-07T15:56:21Z</time>
      </trkpt>
      <trkpt lat="48.03471" lon="-3.73847">
        <ele>209.2</ele>
        <time>2020-06-07T15:56:22Z</time>
      </trkpt>
      <trkpt lat="48.03473" lon="-3.73858">
        <ele>209.1</ele>
        <time>2020-06-07T15:56:23Z</time>
      </trkpt>
      <trkpt lat="48.03475" lon="-3.73868">
        <ele>209</ele>
        <time>2020-06-07T15:56:24Z</time>
      </trkpt>
      <trkpt lat="48.03477" lon="-3.73879">
        <ele>208.9</ele>
        <time>2020-06-07T15:56:25Z</time>
      </trkpt>
      <trkpt lat="48.03479" lon="-3.73889">
        <ele>208.9</ele>
        <time>2020-06-07T15:56:26Z</time>
      </trkpt>
      <trkpt lat="48.03481" lon="-3.739">
        <ele>208.9</ele>
        <time>2020-06-07T15:56:27Z</time>
      </trkpt>
      <trkpt lat="48.03483" lon="-3.73909">
        <ele>208.8</ele>
        <time>2020-06-07T15:56:28Z</time>
      </trkpt>
      <trkpt lat="48.03485" lon="-3.73919">
        <ele>208.9</ele>
        <time>2020-06-07T15:56:29Z</time>
      </trkpt>
      <trkpt lat="48.03487" lon="-3.73929">
        <ele>208.9</ele>
        <time>2020-06-07T15:56:30Z</time>
      </trkpt>
      <trkpt lat="48.03489" lon="-3.73938">
        <ele>209</ele>
        <time>2020-06-07T15:56:31Z</time>
      </trkpt>
      <trkpt lat="48.03491" lon="-3.73948">
        <ele>209</ele>
        <time>2020-06-07T15:56:32Z</time>
      </trkpt>
      <trkpt lat="48.03493" lon="-3.73957">
        <ele>209.1</ele>
        <time>2020-06-07T15:56:33Z</time>
      </trkpt>
      <trkpt lat="48.03494" lon="-3.73967">
        <ele>209.2</ele>
        <time>2020-06-07T15:56:34Z</time>
      </trkpt>
      <trkpt lat="48.03495" lon="-3.73976">
        <ele>209.2</ele>
        <time>2020-06-07T15:56:35Z</time>
      </trkpt>
      <trkpt lat="48.03497" lon="-3.73984">
        <ele>209.3</ele>
        <time>2020-06-07T15:56:36Z</time>
      </trkpt>
      <trkpt lat="48.03499" lon="-3.73993">
        <ele>209.3</ele>
        <time>2020-06-07T15:56:37Z</time>
      </trkpt>
      <trkpt lat="48.03501" lon="-3.74002">
        <ele>209.3</ele>
        <time>2020-06-07T15:56:38Z</time>
      </trkpt>
      <trkpt lat="48.03503" lon="-3.7401">
        <ele>209.4</ele>
        <time>2020-06-07T15:56:39Z</time>
      </trkpt>
      <trkpt lat="48.03505" lon="-3.74019">
        <ele>209.4</ele>
        <time>2020-06-07T15:56:40Z</time>
      </trkpt>
      <trkpt lat="48.03506" lon="-3.74028">
        <ele>209.4</ele>
        <time>2020-06-07T15:56:41Z</time>
      </trkpt>
      <trkpt lat="48.03509" lon="-3.74037">
        <ele>209.3</ele>
        <time>2020-06-07T15:56:42Z</time>
      </trkpt>
      <trkpt lat="48.03511" lon="-3.74046">
        <ele>209.3</ele>
        <time>2020-06-07T15:56:43Z</time>
      </trkpt>
      <trkpt lat="48.03513" lon="-3.74055">
        <ele>209.3</ele>
        <time>2020-06-07T15:56:44Z</time>
      </trkpt>
      <trkpt lat="48.03514" lon="-3.74064">
        <ele>209.2</ele>
        <time>2020-06-07T15:56:45Z</time>
      </trkpt>
      <trkpt lat="48.03517" lon="-3.74073">
        <ele>209.2</ele>
        <time>2020-06-07T15:56:46Z</time>
      </trkpt>
      <trkpt lat="48.03519" lon="-3.74082">
        <ele>209.1</ele>
        <time>2020-06-07T15:56:47Z</time>
      </trkpt>
      <trkpt lat="48.03521" lon="-3.74091">
        <ele>209</ele>
        <time>2020-06-07T15:56:48Z</time>
      </trkpt>
      <trkpt lat="48.03523" lon="-3.741">
        <ele>209</ele>
        <time>2020-06-07T15:56:49Z</time>
      </trkpt>
      <trkpt lat="48.03525" lon="-3.74109">
        <ele>208.9</ele>
        <time>2020-06-07T15:56:50Z</time>
      </trkpt>
      <trkpt lat="48.03527" lon="-3.74119">
        <ele>208.8</ele>
        <time>2020-06-07T15:56:51Z</time>
      </trkpt>
      <trkpt lat="48.03528" lon="-3.74128">
        <ele>208.7</ele>
        <time>2020-06-07T15:56:52Z</time>
      </trkpt>
      <trkpt lat="48.0353" lon="-3.74138">
        <ele>208.5</ele>
        <time>2020-06-07T15:56:53Z</time>
      </trkpt>
      <trkpt lat="48.03532" lon="-3.74147">
        <ele>208.4</ele>
        <time>2020-06-07T15:56:54Z</time>
      </trkpt>
      <trkpt lat="48.03534" lon="-3.74157">
        <ele>208.3</ele>
        <time>2020-06-07T15:56:55Z</time>
      </trkpt>
      <trkpt lat="48.03535" lon="-3.74166">
        <ele>208.2</ele>
        <time>2020-06-07T15:56:56Z</time>
      </trkpt>
      <trkpt lat="48.03537" lon="-3.74176">
        <ele>208.1</ele>
        <time>2020-06-07T15:56:57Z</time>
      </trkpt>
      <trkpt lat="48.03538" lon="-3.74186">
        <ele>208</ele>
        <time>2020-06-07T15:56:58Z</time>
      </trkpt>
      <trkpt lat="48.0354" lon="-3.74195">
        <ele>208</ele>
        <time>2020-06-07T15:56:59Z</time>
      </trkpt>
      <trkpt lat="48.03542" lon="-3.74205">
        <ele>207.9</ele>
        <time>2020-06-07T15:57:00Z</time>
      </trkpt>
      <trkpt lat="48.03544" lon="-3.74214">
        <ele>207.8</ele>
        <time>2020-06-07T15:57:01Z</time>
      </trkpt>
      <trkpt lat="48.03545" lon="-3.74224">
        <ele>207.7</ele>
        <time>2020-06-07T15:57:02Z</time>
      </trkpt>
      <trkpt lat="48.03547" lon="-3.74233">
        <ele>207.7</ele>
        <time>2020-06-07T15:57:03Z</time>
      </trkpt>
      <trkpt lat="48.03549" lon="-3.74242">
        <ele>207.6</ele>
        <time>2020-06-07T15:57:04Z</time>
      </trkpt>
      <trkpt lat="48.03551" lon="-3.74251">
        <ele>207.6</ele>
        <time>2020-06-07T15:57:05Z</time>
      </trkpt>
      <trkpt lat="48.03552" lon="-3.7426">
        <ele>207.5</ele>
        <time>2020-06-07T15:57:06Z</time>
      </trkpt>
      <trkpt lat="48.03554" lon="-3.74269">
        <ele>207.5</ele>
        <time>2020-06-07T15:57:07Z</time>
      </trkpt>
      <trkpt lat="48.03555" lon="-3.74278">
        <ele>207.5</ele>
        <time>2020-06-07T15:57:08Z</time>
      </trkpt>
      <trkpt lat="48.03557" lon="-3.74287">
        <ele>207.4</ele>
        <time>2020-06-07T15:57:09Z</time>
      </trkpt>
      <trkpt lat="48.03559" lon="-3.74297">
        <ele>207.4</ele>
        <time>2020-06-07T15:57:10Z</time>
      </trkpt>
      <trkpt lat="48.0356" lon="-3.74306">
        <ele>207.4</ele>
        <time>2020-06-07T15:57:11Z</time>
      </trkpt>
      <trkpt lat="48.03562" lon="-3.74315">
        <ele>207.3</ele>
        <time>2020-06-07T15:57:12Z</time>
      </trkpt>
      <trkpt lat="48.03564" lon="-3.74324">
        <ele>207.3</ele>
        <time>2020-06-07T15:57:13Z</time>
      </trkpt>
      <trkpt lat="48.03565" lon="-3.74333">
        <ele>207.3</ele>
        <time>2020-06-07T15:57:14Z</time>
      </trkpt>
      <trkpt lat="48.03567" lon="-3.74342">
        <ele>207.3</ele>
        <time>2020-06-07T15:57:15Z</time>
      </trkpt>
      <trkpt lat="48.03569" lon="-3.74351">
        <ele>207.3</ele>
        <time>2020-06-07T15:57:16Z</time>
      </trkpt>
      <trkpt lat="48.0357" lon="-3.7436">
        <ele>207.3</ele>
        <time>2020-06-07T15:57:17Z</time>
      </trkpt>
      <trkpt lat="48.03572" lon="-3.74369">
        <ele>207.3</ele>
        <time>2020-06-07T15:57:18Z</time>
      </trkpt>
      <trkpt lat="48.03574" lon="-3.74378">
        <ele>207.4</ele>
        <time>2020-06-07T15:57:19Z</time>
      </trkpt>
      <trkpt lat="48.03575" lon="-3.74387">
        <ele>207.4</ele>
        <time>2020-06-07T15:57:20Z</time>
      </trkpt>
      <trkpt lat="48.03576" lon="-3.74395">
        <ele>207.3</ele>
        <time>2020-06-07T15:57:21Z</time>
      </trkpt>
      <trkpt lat="48.03578" lon="-3.74404">
        <ele>207.3</ele>
        <time>2020-06-07T15:57:22Z</time>
      </trkpt>
      <trkpt lat="48.0358" lon="-3.74412">
        <ele>207.3</ele>
        <time>2020-06-07T15:57:23Z</time>
      </trkpt>
      <trkpt lat="48.03581" lon="-3.74421">
        <ele>207.4</ele>
        <time>2020-06-07T15:57:24Z</time>
      </trkpt>
      <trkpt lat="48.03583" lon="-3.74429">
        <ele>207.4</ele>
        <time>2020-06-07T15:57:25Z</time>
      </trkpt>
      <trkpt lat="48.03585" lon="-3.74438">
        <ele>207.4</ele>
        <time>2020-06-07T15:57:26Z</time>
      </trkpt>
      <trkpt lat="48.03587" lon="-3.74446">
        <ele>207.5</ele>
        <time>2020-06-07T15:57:27Z</time>
      </trkpt>
      <trkpt lat="48.03588" lon="-3.74455">
        <ele>207.5</ele>
        <time>2020-06-07T15:57:28Z</time>
      </trkpt>
      <trkpt lat="48.03589" lon="-3.74463">
        <ele>207.5</ele>
        <time>2020-06-07T15:57:29Z</time>
      </trkpt>
      <trkpt lat="48.03591" lon="-3.74472">
        <ele>207.6</ele>
        <time>2020-06-07T15:57:30Z</time>
      </trkpt>
      <trkpt lat="48.03592" lon="-3.7448">
        <ele>207.7</ele>
        <time>2020-06-07T15:57:31Z</time>
      </trkpt>
      <trkpt lat="48.03594" lon="-3.74488">
        <ele>207.7</ele>
        <time>2020-06-07T15:57:32Z</time>
      </trkpt>
      <trkpt lat="48.03596" lon="-3.74497">
        <ele>207.8</ele>
        <time>2020-06-07T15:57:33Z</time>
      </trkpt>
      <trkpt lat="48.03597" lon="-3.74505">
        <ele>207.9</ele>
        <time>2020-06-07T15:57:34Z</time>
      </trkpt>
      <trkpt lat="48.03598" lon="-3.74514">
        <ele>208</ele>
        <time>2020-06-07T15:57:35Z</time>
      </trkpt>
      <trkpt lat="48.036" lon="-3.74522">
        <ele>208.1</ele>
        <time>2020-06-07T15:57:36Z</time>
      </trkpt>
      <trkpt lat="48.03601" lon="-3.7453">
        <ele>208.3</ele>
        <time>2020-06-07T15:57:37Z</time>
      </trkpt>
      <trkpt lat="48.03603" lon="-3.74539">
        <ele>208.4</ele>
        <time>2020-06-07T15:57:38Z</time>
      </trkpt>
      <trkpt lat="48.03604" lon="-3.74547">
        <ele>208.5</ele>
        <time>2020-06-07T15:57:39Z</time>
      </trkpt>
      <trkpt lat="48.03606" lon="-3.74554">
        <ele>208.5</ele>
        <time>2020-06-07T15:57:40Z</time>
      </trkpt>
      <trkpt lat="48.03607" lon="-3.74562">
        <ele>208.6</ele>
        <time>2020-06-07T15:57:41Z</time>
      </trkpt>
      <trkpt lat="48.03609" lon="-3.74569">
        <ele>208.6</ele>
        <time>2020-06-07T15:57:42Z</time>
      </trkpt>
      <trkpt lat="48.0361" lon="-3.74577">
        <ele>208.7</ele>
        <time>2020-06-07T15:57:43Z</time>
      </trkpt>
      <trkpt lat="48.03611" lon="-3.74584">
        <ele>208.7</ele>
        <time>2020-06-07T15:57:44Z</time>
      </trkpt>
      <trkpt lat="48.03612" lon="-3.74592">
        <ele>208.8</ele>
        <time>2020-06-07T15:57:45Z</time>
      </trkpt>
      <trkpt lat="48.03613" lon="-3.746">
        <ele>208.9</ele>
        <time>2020-06-07T15:57:46Z</time>
      </trkpt>
      <trkpt lat="48.03614" lon="-3.74609">
        <ele>208.9</ele>
        <time>2020-06-07T15:57:47Z</time>
      </trkpt>
      <trkpt lat="48.03616" lon="-3.74617">
        <ele>209.1</ele>
        <time>2020-06-07T15:57:48Z</time>
      </trkpt>
      <trkpt lat="48.03617" lon="-3.74625">
        <ele>209.2</ele>
        <time>2020-06-07T15:57:49Z</time>
      </trkpt>
      <trkpt lat="48.03618" lon="-3.74632">
        <ele>209.3</ele>
        <time>2020-06-07T15:57:50Z</time>
      </trkpt>
      <trkpt lat="48.0362" lon="-3.7464">
        <ele>209.5</ele>
        <time>2020-06-07T15:57:51Z</time>
      </trkpt>
      <trkpt lat="48.03622" lon="-3.74647">
        <ele>209.6</ele>
        <time>2020-06-07T15:57:52Z</time>
      </trkpt>
      <trkpt lat="48.03623" lon="-3.74655">
        <ele>209.7</ele>
        <time>2020-06-07T15:57:53Z</time>
      </trkpt>
      <trkpt lat="48.03624" lon="-3.74662">
        <ele>209.9</ele>
        <time>2020-06-07T15:57:54Z</time>
      </trkpt>
      <trkpt lat="48.03625" lon="-3.74668">
        <ele>210</ele>
        <time>2020-06-07T15:57:55Z</time>
      </trkpt>
      <trkpt lat="48.03627" lon="-3.74675">
        <ele>210.2</ele>
        <time>2020-06-07T15:57:56Z</time>
      </trkpt>
      <trkpt lat="48.03628" lon="-3.74682">
        <ele>210.3</ele>
        <time>2020-06-07T15:57:57Z</time>
      </trkpt>
      <trkpt lat="48.0363" lon="-3.74689">
        <ele>210.5</ele>
        <time>2020-06-07T15:57:58Z</time>
      </trkpt>
      <trkpt lat="48.03632" lon="-3.74697">
        <ele>210.6</ele>
        <time>2020-06-07T15:57:59Z</time>
      </trkpt>
      <trkpt lat="48.03633" lon="-3.74705">
        <ele>210.8</ele>
        <time>2020-06-07T15:58:00Z</time>
      </trkpt>
      <trkpt lat="48.03635" lon="-3.74712">
        <ele>211</ele>
        <time>2020-06-07T15:58:01Z</time>
      </trkpt>
      <trkpt lat="48.03637" lon="-3.74719">
        <ele>211.1</ele>
        <time>2020-06-07T15:58:02Z</time>
      </trkpt>
      <trkpt lat="48.03639" lon="-3.74726">
        <ele>211.3</ele>
        <time>2020-06-07T15:58:03Z</time>
      </trkpt>
      <trkpt lat="48.0364" lon="-3.74732">
        <ele>211.5</ele>
        <time>2020-06-07T15:58:04Z</time>
      </trkpt>
      <trkpt lat="48.03642" lon="-3.74738">
        <ele>211.7</ele>
        <time>2020-06-07T15:58:05Z</time>
      </trkpt>
      <trkpt lat="48.03645" lon="-3.74746">
        <ele>212</ele>
        <time>2020-06-07T15:58:06Z</time>
      </trkpt>
      <trkpt lat="48.03648" lon="-3.74751">
        <ele>212.2</ele>
        <time>2020-06-07T15:58:07Z</time>
      </trkpt>
      <trkpt lat="48.0365" lon="-3.74756">
        <ele>212.3</ele>
        <time>2020-06-07T15:58:08Z</time>
      </trkpt>
      <trkpt lat="48.03652" lon="-3.74762">
        <ele>212.5</ele>
        <time>2020-06-07T15:58:09Z</time>
      </trkpt>
      <trkpt lat="48.03655" lon="-3.74767">
        <ele>212.6</ele>
        <time>2020-06-07T15:58:10Z</time>
      </trkpt>
      <trkpt lat="48.03656" lon="-3.74772">
        <ele>212.8</ele>
        <time>2020-06-07T15:58:11Z</time>
      </trkpt>
      <trkpt lat="48.03659" lon="-3.74777">
        <ele>212.9</ele>
        <time>2020-06-07T15:58:12Z</time>
      </trkpt>
      <trkpt lat="48.03661" lon="-3.74782">
        <ele>213.1</ele>
        <time>2020-06-07T15:58:13Z</time>
      </trkpt>
      <trkpt lat="48.03663" lon="-3.74787">
        <ele>213.2</ele>
        <time>2020-06-07T15:58:14Z</time>
      </trkpt>
      <trkpt lat="48.03666" lon="-3.74792">
        <ele>213.3</ele>
        <time>2020-06-07T15:58:15Z</time>
      </trkpt>
      <trkpt lat="48.03669" lon="-3.74799">
        <ele>213.5</ele>
        <time>2020-06-07T15:58:16Z</time>
      </trkpt>
      <trkpt lat="48.03672" lon="-3.74804">
        <ele>213.6</ele>
        <time>2020-06-07T15:58:17Z</time>
      </trkpt>
      <trkpt lat="48.03674" lon="-3.7481">
        <ele>213.8</ele>
        <time>2020-06-07T15:58:18Z</time>
      </trkpt>
      <trkpt lat="48.03678" lon="-3.74816">
        <ele>213.9</ele>
        <time>2020-06-07T15:58:19Z</time>
      </trkpt>
      <trkpt lat="48.03681" lon="-3.74821">
        <ele>214.1</ele>
        <time>2020-06-07T15:58:20Z</time>
      </trkpt>
      <trkpt lat="48.03684" lon="-3.74827">
        <ele>214.3</ele>
        <time>2020-06-07T15:58:21Z</time>
      </trkpt>
      <trkpt lat="48.03686" lon="-3.74832">
        <ele>214.4</ele>
        <time>2020-06-07T15:58:22Z</time>
      </trkpt>
      <trkpt lat="48.03688" lon="-3.74837">
        <ele>214.5</ele>
        <time>2020-06-07T15:58:23Z</time>
      </trkpt>
      <trkpt lat="48.03691" lon="-3.7484">
        <ele>214.5</ele>
        <time>2020-06-07T15:58:24Z</time>
      </trkpt>
      <trkpt lat="48.03694" lon="-3.74845">
        <ele>214.6</ele>
        <time>2020-06-07T15:58:25Z</time>
      </trkpt>
      <trkpt lat="48.03697" lon="-3.74849">
        <ele>214.7</ele>
        <time>2020-06-07T15:58:26Z</time>
      </trkpt>
      <trkpt lat="48.03699" lon="-3.74853">
        <ele>214.8</ele>
        <time>2020-06-07T15:58:27Z</time>
      </trkpt>
      <trkpt lat="48.03704" lon="-3.7486">
        <ele>214.9</ele>
        <time>2020-06-07T15:58:28Z</time>
      </trkpt>
      <trkpt lat="48.03707" lon="-3.74864">
        <ele>214.9</ele>
        <time>2020-06-07T15:58:29Z</time>
      </trkpt>
      <trkpt lat="48.0371" lon="-3.74867">
        <ele>215</ele>
        <time>2020-06-07T15:58:30Z</time>
      </trkpt>
      <trkpt lat="48.03714" lon="-3.74872">
        <ele>215.1</ele>
        <time>2020-06-07T15:58:31Z</time>
      </trkpt>
      <trkpt lat="48.03716" lon="-3.74877">
        <ele>215.1</ele>
        <time>2020-06-07T15:58:32Z</time>
      </trkpt>
      <trkpt lat="48.03719" lon="-3.74882">
        <ele>215.2</ele>
        <time>2020-06-07T15:58:33Z</time>
      </trkpt>
      <trkpt lat="48.03723" lon="-3.74887">
        <ele>215.2</ele>
        <time>2020-06-07T15:58:34Z</time>
      </trkpt>
      <trkpt lat="48.03726" lon="-3.74892">
        <ele>215.3</ele>
        <time>2020-06-07T15:58:35Z</time>
      </trkpt>
      <trkpt lat="48.0373" lon="-3.74897">
        <ele>215.3</ele>
        <time>2020-06-07T15:58:36Z</time>
      </trkpt>
      <trkpt lat="48.03733" lon="-3.74902">
        <ele>215.3</ele>
        <time>2020-06-07T15:58:37Z</time>
      </trkpt>
      <trkpt lat="48.03736" lon="-3.74906">
        <ele>215.4</ele>
        <time>2020-06-07T15:58:38Z</time>
      </trkpt>
      <trkpt lat="48.03739" lon="-3.74911">
        <ele>215.4</ele>
        <time>2020-06-07T15:58:39Z</time>
      </trkpt>
      <trkpt lat="48.03741" lon="-3.74915">
        <ele>215.4</ele>
        <time>2020-06-07T15:58:40Z</time>
      </trkpt>
      <trkpt lat="48.03744" lon="-3.7492">
        <ele>215.4</ele>
        <time>2020-06-07T15:58:41Z</time>
      </trkpt>
      <trkpt lat="48.03747" lon="-3.74926">
        <ele>215.5</ele>
        <time>2020-06-07T15:58:42Z</time>
      </trkpt>
      <trkpt lat="48.0375" lon="-3.74931">
        <ele>215.5</ele>
        <time>2020-06-07T15:58:43Z</time>
      </trkpt>
      <trkpt lat="48.03753" lon="-3.74937">
        <ele>215.5</ele>
        <time>2020-06-07T15:58:44Z</time>
      </trkpt>
      <trkpt lat="48.03757" lon="-3.74943">
        <ele>215.5</ele>
        <time>2020-06-07T15:58:45Z</time>
      </trkpt>
      <trkpt lat="48.0376" lon="-3.74949">
        <ele>215.4</ele>
        <time>2020-06-07T15:58:46Z</time>
      </trkpt>
      <trkpt lat="48.03764" lon="-3.74955">
        <ele>215.4</ele>
        <time>2020-06-07T15:58:47Z</time>
      </trkpt>
      <trkpt lat="48.03767" lon="-3.74961">
        <ele>215.4</ele>
        <time>2020-06-07T15:58:48Z</time>
      </trkpt>
      <trkpt lat="48.0377" lon="-3.74967">
        <ele>215.4</ele>
        <time>2020-06-07T15:58:49Z</time>
      </trkpt>
      <trkpt lat="48.03773" lon="-3.74973">
        <ele>215.4</ele>
        <time>2020-06-07T15:58:50Z</time>
      </trkpt>
      <trkpt lat="48.03778" lon="-3.74979">
        <ele>215.3</ele>
        <time>2020-06-07T15:58:51Z</time>
      </trkpt>
      <trkpt lat="48.03781" lon="-3.74985">
        <ele>215.3</ele>
        <time>2020-06-07T15:58:52Z</time>
      </trkpt>
      <trkpt lat="48.03786" lon="-3.74989">
        <ele>215.3</ele>
        <time>2020-06-07T15:58:53Z</time>
      </trkpt>
      <trkpt lat="48.0379" lon="-3.74996">
        <ele>215.3</ele>
        <time>2020-06-07T15:58:54Z</time>
      </trkpt>
      <trkpt lat="48.03794" lon="-3.75002">
        <ele>215.3</ele>
        <time>2020-06-07T15:58:55Z</time>
      </trkpt>
      <trkpt lat="48.03797" lon="-3.75007">
        <ele>215.2</ele>
        <time>2020-06-07T15:58:56Z</time>
      </trkpt>
      <trkpt lat="48.03801" lon="-3.75012">
        <ele>215.2</ele>
        <time>2020-06-07T15:58:57Z</time>
      </trkpt>
      <trkpt lat="48.03805" lon="-3.75018">
        <ele>215.2</ele>
        <time>2020-06-07T15:58:58Z</time>
      </trkpt>
      <trkpt lat="48.03809" lon="-3.75024">
        <ele>215.2</ele>
        <time>2020-06-07T15:58:59Z</time>
      </trkpt>
      <trkpt lat="48.03813" lon="-3.7503">
        <ele>215.1</ele>
        <time>2020-06-07T15:59:00Z</time>
      </trkpt>
      <trkpt lat="48.03817" lon="-3.75035">
        <ele>215.1</ele>
        <time>2020-06-07T15:59:01Z</time>
      </trkpt>
      <trkpt lat="48.03822" lon="-3.75041">
        <ele>215.1</ele>
        <time>2020-06-07T15:59:02Z</time>
      </trkpt>
      <trkpt lat="48.03826" lon="-3.75046">
        <ele>215.1</ele>
        <time>2020-06-07T15:59:03Z</time>
      </trkpt>
      <trkpt lat="48.03831" lon="-3.75051">
        <ele>215.1</ele>
        <time>2020-06-07T15:59:04Z</time>
      </trkpt>
      <trkpt lat="48.03835" lon="-3.75056">
        <ele>215.2</ele>
        <time>2020-06-07T15:59:05Z</time>
      </trkpt>
      <trkpt lat="48.0384" lon="-3.75061">
        <ele>215.2</ele>
        <time>2020-06-07T15:59:06Z</time>
      </trkpt>
      <trkpt lat="48.03845" lon="-3.75066">
        <ele>215.2</ele>
        <time>2020-06-07T15:59:07Z</time>
      </trkpt>
      <trkpt lat="48.0385" lon="-3.75071">
        <ele>215.2</ele>
        <time>2020-06-07T15:59:08Z</time>
      </trkpt>
      <trkpt lat="48.03855" lon="-3.75074">
        <ele>215.3</ele>
        <time>2020-06-07T15:59:09Z</time>
      </trkpt>
      <trkpt lat="48.0386" lon="-3.75079">
        <ele>215.3</ele>
        <time>2020-06-07T15:59:10Z</time>
      </trkpt>
      <trkpt lat="48.03865" lon="-3.75083">
        <ele>215.3</ele>
        <time>2020-06-07T15:59:11Z</time>
      </trkpt>
      <trkpt lat="48.0387" lon="-3.75089">
        <ele>215.4</ele>
        <time>2020-06-07T15:59:12Z</time>
      </trkpt>
      <trkpt lat="48.03875" lon="-3.75094">
        <ele>215.4</ele>
        <time>2020-06-07T15:59:13Z</time>
      </trkpt>
      <trkpt lat="48.03879" lon="-3.75098">
        <ele>215.5</ele>
        <time>2020-06-07T15:59:14Z</time>
      </trkpt>
      <trkpt lat="48.03883" lon="-3.75102">
        <ele>215.5</ele>
        <time>2020-06-07T15:59:15Z</time>
      </trkpt>
      <trkpt lat="48.03888" lon="-3.75107">
        <ele>215.8</ele>
        <time>2020-06-07T15:59:16Z</time>
      </trkpt>
      <trkpt lat="48.03893" lon="-3.75111">
        <ele>216</ele>
        <time>2020-06-07T15:59:17Z</time>
      </trkpt>
      <trkpt lat="48.03898" lon="-3.75116">
        <ele>216.2</ele>
        <time>2020-06-07T15:59:18Z</time>
      </trkpt>
      <trkpt lat="48.03903" lon="-3.7512">
        <ele>216.3</ele>
        <time>2020-06-07T15:59:19Z</time>
      </trkpt>
      <trkpt lat="48.03907" lon="-3.75124">
        <ele>216.4</ele>
        <time>2020-06-07T15:59:20Z</time>
      </trkpt>
      <trkpt lat="48.03912" lon="-3.75129">
        <ele>216.5</ele>
        <time>2020-06-07T15:59:21Z</time>
      </trkpt>
      <trkpt lat="48.03916" lon="-3.75134">
        <ele>216.6</ele>
        <time>2020-06-07T15:59:22Z</time>
      </trkpt>
      <trkpt lat="48.0392" lon="-3.75138">
        <ele>216.7</ele>
        <time>2020-06-07T15:59:23Z</time>
      </trkpt>
      <trkpt lat="48.03925" lon="-3.75143">
        <ele>216.8</ele>
        <time>2020-06-07T15:59:24Z</time>
      </trkpt>
      <trkpt lat="48.03929" lon="-3.75147">
        <ele>216.9</ele>
        <time>2020-06-07T15:59:25Z</time>
      </trkpt>
      <trkpt lat="48.03933" lon="-3.75151">
        <ele>217</ele>
        <time>2020-06-07T15:59:26Z</time>
      </trkpt>
      <trkpt lat="48.03938" lon="-3.75154">
        <ele>217.2</ele>
        <time>2020-06-07T15:59:27Z</time>
      </trkpt>
      <trkpt lat="48.03943" lon="-3.75158">
        <ele>217.3</ele>
        <time>2020-06-07T15:59:28Z</time>
      </trkpt>
      <trkpt lat="48.03947" lon="-3.75162">
        <ele>217.4</ele>
        <time>2020-06-07T15:59:29Z</time>
      </trkpt>
      <trkpt lat="48.03952" lon="-3.75167">
        <ele>217.6</ele>
        <time>2020-06-07T15:59:30Z</time>
      </trkpt>
      <trkpt lat="48.03955" lon="-3.75171">
        <ele>217.7</ele>
        <time>2020-06-07T15:59:31Z</time>
      </trkpt>
      <trkpt lat="48.03959" lon="-3.75175">
        <ele>217.8</ele>
        <time>2020-06-07T15:59:32Z</time>
      </trkpt>
      <trkpt lat="48.03964" lon="-3.75178">
        <ele>217.9</ele>
        <time>2020-06-07T15:59:33Z</time>
      </trkpt>
      <trkpt lat="48.03968" lon="-3.75182">
        <ele>218</ele>
        <time>2020-06-07T15:59:34Z</time>
      </trkpt>
      <trkpt lat="48.03972" lon="-3.75185">
        <ele>218.1</ele>
        <time>2020-06-07T15:59:35Z</time>
      </trkpt>
      <trkpt lat="48.03976" lon="-3.75188">
        <ele>218.3</ele>
        <time>2020-06-07T15:59:36Z</time>
      </trkpt>
      <trkpt lat="48.0398" lon="-3.75192">
        <ele>218.4</ele>
        <time>2020-06-07T15:59:37Z</time>
      </trkpt>
      <trkpt lat="48.03985" lon="-3.75194">
        <ele>218.5</ele>
        <time>2020-06-07T15:59:38Z</time>
      </trkpt>
      <trkpt lat="48.03989" lon="-3.75198">
        <ele>218.7</ele>
        <time>2020-06-07T15:59:39Z</time>
      </trkpt>
      <trkpt lat="48.03993" lon="-3.75201">
        <ele>218.8</ele>
        <time>2020-06-07T15:59:40Z</time>
      </trkpt>
      <trkpt lat="48.03996" lon="-3.75203">
        <ele>218.9</ele>
        <time>2020-06-07T15:59:41Z</time>
      </trkpt>
      <trkpt lat="48.03999" lon="-3.75206">
        <ele>219</ele>
        <time>2020-06-07T15:59:42Z</time>
      </trkpt>
      <trkpt lat="48.04003" lon="-3.75211">
        <ele>219.1</ele>
        <time>2020-06-07T15:59:43Z</time>
      </trkpt>
      <trkpt lat="48.04008" lon="-3.75214">
        <ele>219.3</ele>
        <time>2020-06-07T15:59:44Z</time>
      </trkpt>
      <trkpt lat="48.04012" lon="-3.75217">
        <ele>219.4</ele>
        <time>2020-06-07T15:59:45Z</time>
      </trkpt>
      <trkpt lat="48.04015" lon="-3.7522">
        <ele>219.5</ele>
        <time>2020-06-07T15:59:46Z</time>
      </trkpt>
      <trkpt lat="48.04019" lon="-3.75223">
        <ele>219.6</ele>
        <time>2020-06-07T15:59:47Z</time>
      </trkpt>
      <trkpt lat="48.04022" lon="-3.75227">
        <ele>219.7</ele>
        <time>2020-06-07T15:59:48Z</time>
      </trkpt>
      <trkpt lat="48.04026" lon="-3.75231">
        <ele>219.8</ele>
        <time>2020-06-07T15:59:49Z</time>
      </trkpt>
      <trkpt lat="48.0403" lon="-3.75235">
        <ele>219.9</ele>
        <time>2020-06-07T15:59:50Z</time>
      </trkpt>
      <trkpt lat="48.04034" lon="-3.75238">
        <ele>220</ele>
        <time>2020-06-07T15:59:51Z</time>
      </trkpt>
      <trkpt lat="48.04038" lon="-3.75242">
        <ele>220.2</ele>
        <time>2020-06-07T15:59:52Z</time>
      </trkpt>
      <trkpt lat="48.04042" lon="-3.75246">
        <ele>220.3</ele>
        <time>2020-06-07T15:59:53Z</time>
      </trkpt>
      <trkpt lat="48.04046" lon="-3.7525">
        <ele>220.4</ele>
        <time>2020-06-07T15:59:54Z</time>
      </trkpt>
      <trkpt lat="48.04049" lon="-3.75254">
        <ele>220.5</ele>
        <time>2020-06-07T15:59:55Z</time>
      </trkpt>
      <trkpt lat="48.04052" lon="-3.75257">
        <ele>220.7</ele>
        <time>2020-06-07T15:59:56Z</time>
      </trkpt>
      <trkpt lat="48.04055" lon="-3.75261">
        <ele>220.8</ele>
        <time>2020-06-07T15:59:57Z</time>
      </trkpt>
      <trkpt lat="48.04059" lon="-3.75264">
        <ele>220.9</ele>
        <time>2020-06-07T15:59:58Z</time>
      </trkpt>
      <trkpt lat="48.04061" lon="-3.75268">
        <ele>221</ele>
        <time>2020-06-07T15:59:59Z</time>
      </trkpt>
      <trkpt lat="48.04065" lon="-3.75272">
        <ele>221.1</ele>
        <time>2020-06-07T16:00:00Z</time>
      </trkpt>
      <trkpt lat="48.04068" lon="-3.75275">
        <ele>221.1</ele>
        <time>2020-06-07T16:00:01Z</time>
      </trkpt>
      <trkpt lat="48.04071" lon="-3.75278">
        <ele>221.2</ele>
        <time>2020-06-07T16:00:02Z</time>
      </trkpt>
      <trkpt lat="48.04075" lon="-3.75282">
        <ele>221.3</ele>
        <time>2020-06-07T16:00:03Z</time>
      </trkpt>
      <trkpt lat="48.04079" lon="-3.75287">
        <ele>221.3</ele>
        <time>2020-06-07T16:00:04Z</time>
      </trkpt>
      <trkpt lat="48.04082" lon="-3.75291">
        <ele>221.4</ele>
        <time>2020-06-07T16:00:05Z</time>
      </trkpt>
      <trkpt lat="48.04086" lon="-3.75295">
        <ele>221.4</ele>
        <time>2020-06-07T16:00:06Z</time>
      </trkpt>
      <trkpt lat="48.04089" lon="-3.75299">
        <ele>221.5</ele>
        <time>2020-06-07T16:00:07Z</time>
      </trkpt>
      <trkpt lat="48.04092" lon="-3.75304">
        <ele>221.5</ele>
        <time>2020-06-07T16:00:08Z</time>
      </trkpt>
      <trkpt lat="48.04095" lon="-3.75309">
        <ele>221.5</ele>
        <time>2020-06-07T16:00:09Z</time>
      </trkpt>
      <trkpt lat="48.04098" lon="-3.75313">
        <ele>221.5</ele>
        <time>2020-06-07T16:00:10Z</time>
      </trkpt>
      <trkpt lat="48.04102" lon="-3.75317">
        <ele>221.5</ele>
        <time>2020-06-07T16:00:11Z</time>
      </trkpt>
      <trkpt lat="48.04106" lon="-3.75322">
        <ele>221.5</ele>
        <time>2020-06-07T16:00:12Z</time>
      </trkpt>
      <trkpt lat="48.0411" lon="-3.75327">
        <ele>221.5</ele>
        <time>2020-06-07T16:00:13Z</time>
      </trkpt>
      <trkpt lat="48.04113" lon="-3.75331">
        <ele>221.5</ele>
        <time>2020-06-07T16:00:14Z</time>
      </trkpt>
      <trkpt lat="48.04116" lon="-3.75336">
        <ele>221.6</ele>
        <time>2020-06-07T16:00:15Z</time>
      </trkpt>
      <trkpt lat="48.0412" lon="-3.75342">
        <ele>221.6</ele>
        <time>2020-06-07T16:00:16Z</time>
      </trkpt>
      <trkpt lat="48.04124" lon="-3.75346">
        <ele>221.6</ele>
        <time>2020-06-07T16:00:17Z</time>
      </trkpt>
      <trkpt lat="48.04128" lon="-3.75352">
        <ele>221.6</ele>
        <time>2020-06-07T16:00:18Z</time>
      </trkpt>
      <trkpt lat="48.04131" lon="-3.75357">
        <ele>221.6</ele>
        <time>2020-06-07T16:00:19Z</time>
      </trkpt>
      <trkpt lat="48.04134" lon="-3.75364">
        <ele>221.6</ele>
        <time>2020-06-07T16:00:20Z</time>
      </trkpt>
      <trkpt lat="48.04138" lon="-3.75371">
        <ele>221.6</ele>
        <time>2020-06-07T16:00:21Z</time>
      </trkpt>
      <trkpt lat="48.04141" lon="-3.75377">
        <ele>221.6</ele>
        <time>2020-06-07T16:00:22Z</time>
      </trkpt>
      <trkpt lat="48.04145" lon="-3.75383">
        <ele>221.6</ele>
        <time>2020-06-07T16:00:23Z</time>
      </trkpt>
      <trkpt lat="48.04148" lon="-3.75389">
        <ele>221.6</ele>
        <time>2020-06-07T16:00:24Z</time>
      </trkpt>
      <trkpt lat="48.04154" lon="-3.75393">
        <ele>221.7</ele>
        <time>2020-06-07T16:00:25Z</time>
      </trkpt>
      <trkpt lat="48.04157" lon="-3.75397">
        <ele>221.7</ele>
        <time>2020-06-07T16:00:26Z</time>
      </trkpt>
      <trkpt lat="48.0416" lon="-3.75402">
        <ele>221.7</ele>
        <time>2020-06-07T16:00:27Z</time>
      </trkpt>
      <trkpt lat="48.04164" lon="-3.75408">
        <ele>221.7</ele>
        <time>2020-06-07T16:00:28Z</time>
      </trkpt>
      <trkpt lat="48.04167" lon="-3.75414">
        <ele>221.7</ele>
        <time>2020-06-07T16:00:29Z</time>
      </trkpt>
      <trkpt lat="48.04171" lon="-3.75421">
        <ele>221.7</ele>
        <time>2020-06-07T16:00:30Z</time>
      </trkpt>
      <trkpt lat="48.04175" lon="-3.75427">
        <ele>221.7</ele>
        <time>2020-06-07T16:00:31Z</time>
      </trkpt>
      <trkpt lat="48.04179" lon="-3.75432">
        <ele>221.7</ele>
        <time>2020-06-07T16:00:32Z</time>
      </trkpt>
      <trkpt lat="48.04182" lon="-3.75437">
        <ele>221.6</ele>
        <time>2020-06-07T16:00:33Z</time>
      </trkpt>
      <trkpt lat="48.04186" lon="-3.75443">
        <ele>221.6</ele>
        <time>2020-06-07T16:00:34Z</time>
      </trkpt>
      <trkpt lat="48.04189" lon="-3.7545">
        <ele>221.6</ele>
        <time>2020-06-07T16:00:35Z</time>
      </trkpt>
      <trkpt lat="48.04192" lon="-3.75455">
        <ele>221.6</ele>
        <time>2020-06-07T16:00:36Z</time>
      </trkpt>
      <trkpt lat="48.04197" lon="-3.7546">
        <ele>221.6</ele>
        <time>2020-06-07T16:00:37Z</time>
      </trkpt>
      <trkpt lat="48.042" lon="-3.75466">
        <ele>221.6</ele>
        <time>2020-06-07T16:00:38Z</time>
      </trkpt>
      <trkpt lat="48.04204" lon="-3.75473">
        <ele>221.6</ele>
        <time>2020-06-07T16:00:39Z</time>
      </trkpt>
      <trkpt lat="48.04208" lon="-3.7548">
        <ele>221.6</ele>
        <time>2020-06-07T16:00:40Z</time>
      </trkpt>
      <trkpt lat="48.04212" lon="-3.75484">
        <ele>221.6</ele>
        <time>2020-06-07T16:00:41Z</time>
      </trkpt>
      <trkpt lat="48.04217" lon="-3.75491">
        <ele>221.6</ele>
        <time>2020-06-07T16:00:42Z</time>
      </trkpt>
      <trkpt lat="48.04222" lon="-3.75495">
        <ele>221.5</ele>
        <time>2020-06-07T16:00:43Z</time>
      </trkpt>
      <trkpt lat="48.04226" lon="-3.75501">
        <ele>221.5</ele>
        <time>2020-06-07T16:00:44Z</time>
      </trkpt>
      <trkpt lat="48.0423" lon="-3.75507">
        <ele>221.4</ele>
        <time>2020-06-07T16:00:45Z</time>
      </trkpt>
      <trkpt lat="48.04234" lon="-3.75513">
        <ele>221.4</ele>
        <time>2020-06-07T16:00:46Z</time>
      </trkpt>
      <trkpt lat="48.04238" lon="-3.75519">
        <ele>221.4</ele>
        <time>2020-06-07T16:00:47Z</time>
      </trkpt>
      <trkpt lat="48.04242" lon="-3.75526">
        <ele>221.3</ele>
        <time>2020-06-07T16:00:48Z</time>
      </trkpt>
      <trkpt lat="48.04245" lon="-3.75532">
        <ele>221.3</ele>
        <time>2020-06-07T16:00:49Z</time>
      </trkpt>
      <trkpt lat="48.04249" lon="-3.75537">
        <ele>221.3</ele>
        <time>2020-06-07T16:00:50Z</time>
      </trkpt>
      <trkpt lat="48.04253" lon="-3.75543">
        <ele>221.3</ele>
        <time>2020-06-07T16:00:51Z</time>
      </trkpt>
      <trkpt lat="48.04255" lon="-3.7555">
        <ele>221.3</ele>
        <time>2020-06-07T16:00:52Z</time>
      </trkpt>
      <trkpt lat="48.04259" lon="-3.75555">
        <ele>221.3</ele>
        <time>2020-06-07T16:00:53Z</time>
      </trkpt>
      <trkpt lat="48.04264" lon="-3.75562">
        <ele>221.3</ele>
        <time>2020-06-07T16:00:54Z</time>
      </trkpt>
      <trkpt lat="48.04267" lon="-3.75568">
        <ele>221.3</ele>
        <time>2020-06-07T16:00:55Z</time>
      </trkpt>
      <trkpt lat="48.04271" lon="-3.75574">
        <ele>221.2</ele>
        <time>2020-06-07T16:00:56Z</time>
      </trkpt>
      <trkpt lat="48.04275" lon="-3.7558">
        <ele>221.2</ele>
        <time>2020-06-07T16:00:57Z</time>
      </trkpt>
      <trkpt lat="48.04279" lon="-3.75585">
        <ele>221.2</ele>
        <time>2020-06-07T16:00:58Z</time>
      </trkpt>
      <trkpt lat="48.04282" lon="-3.75591">
        <ele>221.2</ele>
        <time>2020-06-07T16:00:59Z</time>
      </trkpt>
      <trkpt lat="48.04286" lon="-3.75596">
        <ele>221.1</ele>
        <time>2020-06-07T16:01:00Z</time>
      </trkpt>
      <trkpt lat="48.04289" lon="-3.75602">
        <ele>221.1</ele>
        <time>2020-06-07T16:01:01Z</time>
      </trkpt>
      <trkpt lat="48.04293" lon="-3.75609">
        <ele>221.1</ele>
        <time>2020-06-07T16:01:02Z</time>
      </trkpt>
      <trkpt lat="48.04296" lon="-3.75615">
        <ele>221</ele>
        <time>2020-06-07T16:01:03Z</time>
      </trkpt>
      <trkpt lat="48.043" lon="-3.75622">
        <ele>221</ele>
        <time>2020-06-07T16:01:04Z</time>
      </trkpt>
      <trkpt lat="48.04304" lon="-3.75627">
        <ele>221</ele>
        <time>2020-06-07T16:01:05Z</time>
      </trkpt>
      <trkpt lat="48.04308" lon="-3.75632">
        <ele>221</ele>
        <time>2020-06-07T16:01:06Z</time>
      </trkpt>
      <trkpt lat="48.04312" lon="-3.7564">
        <ele>220.9</ele>
        <time>2020-06-07T16:01:07Z</time>
      </trkpt>
      <trkpt lat="48.04316" lon="-3.75647">
        <ele>220.9</ele>
        <time>2020-06-07T16:01:08Z</time>
      </trkpt>
      <trkpt lat="48.0432" lon="-3.75653">
        <ele>220.8</ele>
        <time>2020-06-07T16:01:09Z</time>
      </trkpt>
      <trkpt lat="48.04324" lon="-3.7566">
        <ele>220.8</ele>
        <time>2020-06-07T16:01:10Z</time>
      </trkpt>
      <trkpt lat="48.04328" lon="-3.75667">
        <ele>220.7</ele>
        <time>2020-06-07T16:01:11Z</time>
      </trkpt>
      <trkpt lat="48.04331" lon="-3.75674">
        <ele>220.7</ele>
        <time>2020-06-07T16:01:12Z</time>
      </trkpt>
      <trkpt lat="48.04334" lon="-3.75682">
        <ele>220.7</ele>
        <time>2020-06-07T16:01:13Z</time>
      </trkpt>
      <trkpt lat="48.04337" lon="-3.75688">
        <ele>220.7</ele>
        <time>2020-06-07T16:01:14Z</time>
      </trkpt>
      <trkpt lat="48.0434" lon="-3.75696">
        <ele>220.7</ele>
        <time>2020-06-07T16:01:15Z</time>
      </trkpt>
      <trkpt lat="48.04343" lon="-3.75703">
        <ele>220.7</ele>
        <time>2020-06-07T16:01:16Z</time>
      </trkpt>
      <trkpt lat="48.04346" lon="-3.75709">
        <ele>220.7</ele>
        <time>2020-06-07T16:01:17Z</time>
      </trkpt>
      <trkpt lat="48.0435" lon="-3.75715">
        <ele>220.7</ele>
        <time>2020-06-07T16:01:18Z</time>
      </trkpt>
      <trkpt lat="48.04353" lon="-3.75721">
        <ele>220.7</ele>
        <time>2020-06-07T16:01:19Z</time>
      </trkpt>
      <trkpt lat="48.04357" lon="-3.75728">
        <ele>220.7</ele>
        <time>2020-06-07T16:01:20Z</time>
      </trkpt>
      <trkpt lat="48.04361" lon="-3.75734">
        <ele>220.7</ele>
        <time>2020-06-07T16:01:21Z</time>
      </trkpt>
      <trkpt lat="48.04364" lon="-3.75741">
        <ele>220.7</ele>
        <time>2020-06-07T16:01:22Z</time>
      </trkpt>
      <trkpt lat="48.04367" lon="-3.75748">
        <ele>220.7</ele>
        <time>2020-06-07T16:01:23Z</time>
      </trkpt>
      <trkpt lat="48.04371" lon="-3.75753">
        <ele>220.7</ele>
        <time>2020-06-07T16:01:24Z</time>
      </trkpt>
      <trkpt lat="48.04374" lon="-3.75759">
        <ele>220.8</ele>
        <time>2020-06-07T16:01:25Z</time>
      </trkpt>
      <trkpt lat="48.04378" lon="-3.75765">
        <ele>220.8</ele>
        <time>2020-06-07T16:01:26Z</time>
      </trkpt>
      <trkpt lat="48.04381" lon="-3.75771">
        <ele>220.8</ele>
        <time>2020-06-07T16:01:27Z</time>
      </trkpt>
      <trkpt lat="48.04385" lon="-3.75777">
        <ele>220.8</ele>
        <time>2020-06-07T16:01:28Z</time>
      </trkpt>
      <trkpt lat="48.04389" lon="-3.75783">
        <ele>220.9</ele>
        <time>2020-06-07T16:01:29Z</time>
      </trkpt>
      <trkpt lat="48.04392" lon="-3.7579">
        <ele>220.9</ele>
        <time>2020-06-07T16:01:30Z</time>
      </trkpt>
      <trkpt lat="48.04395" lon="-3.75796">
        <ele>220.9</ele>
        <time>2020-06-07T16:01:31Z</time>
      </trkpt>
      <trkpt lat="48.04398" lon="-3.75804">
        <ele>220.9</ele>
        <time>2020-06-07T16:01:32Z</time>
      </trkpt>
      <trkpt lat="48.044" lon="-3.75811">
        <ele>221</ele>
        <time>2020-06-07T16:01:33Z</time>
      </trkpt>
      <trkpt lat="48.04402" lon="-3.75818">
        <ele>221</ele>
        <time>2020-06-07T16:01:34Z</time>
      </trkpt>
      <trkpt lat="48.04405" lon="-3.75824">
        <ele>221</ele>
        <time>2020-06-07T16:01:35Z</time>
      </trkpt>
      <trkpt lat="48.04409" lon="-3.7583">
        <ele>221.1</ele>
        <time>2020-06-07T16:01:36Z</time>
      </trkpt>
      <trkpt lat="48.04412" lon="-3.75837">
        <ele>221.2</ele>
        <time>2020-06-07T16:01:37Z</time>
      </trkpt>
      <trkpt lat="48.04416" lon="-3.75844">
        <ele>221.2</ele>
        <time>2020-06-07T16:01:38Z</time>
      </trkpt>
      <trkpt lat="48.04419" lon="-3.75851">
        <ele>221.3</ele>
        <time>2020-06-07T16:01:39Z</time>
      </trkpt>
      <trkpt lat="48.04422" lon="-3.75857">
        <ele>221.4</ele>
        <time>2020-06-07T16:01:40Z</time>
      </trkpt>
      <trkpt lat="48.04425" lon="-3.75864">
        <ele>221.5</ele>
        <time>2020-06-07T16:01:41Z</time>
      </trkpt>
      <trkpt lat="48.04429" lon="-3.7587">
        <ele>221.6</ele>
        <time>2020-06-07T16:01:42Z</time>
      </trkpt>
      <trkpt lat="48.04433" lon="-3.75877">
        <ele>221.7</ele>
        <time>2020-06-07T16:01:43Z</time>
      </trkpt>
      <trkpt lat="48.04437" lon="-3.75883">
        <ele>221.8</ele>
        <time>2020-06-07T16:01:44Z</time>
      </trkpt>
      <trkpt lat="48.0444" lon="-3.75888">
        <ele>222</ele>
        <time>2020-06-07T16:01:45Z</time>
      </trkpt>
      <trkpt lat="48.04443" lon="-3.75894">
        <ele>222</ele>
        <time>2020-06-07T16:01:46Z</time>
      </trkpt>
      <trkpt lat="48.04445" lon="-3.759">
        <ele>222</ele>
        <time>2020-06-07T16:01:47Z</time>
      </trkpt>
      <trkpt lat="48.04449" lon="-3.75906">
        <ele>222</ele>
        <time>2020-06-07T16:01:48Z</time>
      </trkpt>
      <trkpt lat="48.04453" lon="-3.75912">
        <ele>222</ele>
        <time>2020-06-07T16:01:49Z</time>
      </trkpt>
      <trkpt lat="48.04457" lon="-3.75918">
        <ele>222.1</ele>
        <time>2020-06-07T16:01:50Z</time>
      </trkpt>
      <trkpt lat="48.0446" lon="-3.75925">
        <ele>222.1</ele>
        <time>2020-06-07T16:01:51Z</time>
      </trkpt>
      <trkpt lat="48.04463" lon="-3.75931">
        <ele>222.2</ele>
        <time>2020-06-07T16:01:52Z</time>
      </trkpt>
      <trkpt lat="48.04465" lon="-3.75936">
        <ele>222.2</ele>
        <time>2020-06-07T16:01:53Z</time>
      </trkpt>
      <trkpt lat="48.04468" lon="-3.75941">
        <ele>222.3</ele>
        <time>2020-06-07T16:01:54Z</time>
      </trkpt>
      <trkpt lat="48.04471" lon="-3.75946">
        <ele>222.4</ele>
        <time>2020-06-07T16:01:55Z</time>
      </trkpt>
      <trkpt lat="48.04474" lon="-3.75951">
        <ele>222.5</ele>
        <time>2020-06-07T16:01:56Z</time>
      </trkpt>
      <trkpt lat="48.04477" lon="-3.75956">
        <ele>222.6</ele>
        <time>2020-06-07T16:01:57Z</time>
      </trkpt>
      <trkpt lat="48.0448" lon="-3.75961">
        <ele>222.7</ele>
        <time>2020-06-07T16:01:58Z</time>
      </trkpt>
      <trkpt lat="48.04483" lon="-3.75965">
        <ele>222.8</ele>
        <time>2020-06-07T16:01:59Z</time>
      </trkpt>
      <trkpt lat="48.04485" lon="-3.75969">
        <ele>222.9</ele>
        <time>2020-06-07T16:02:00Z</time>
      </trkpt>
      <trkpt lat="48.04486" lon="-3.75973">
        <ele>223</ele>
        <time>2020-06-07T16:02:01Z</time>
      </trkpt>
      <trkpt lat="48.04489" lon="-3.75977">
        <ele>223.1</ele>
        <time>2020-06-07T16:02:02Z</time>
      </trkpt>
      <trkpt lat="48.0449" lon="-3.75982">
        <ele>223.2</ele>
        <time>2020-06-07T16:02:03Z</time>
      </trkpt>
      <trkpt lat="48.04491" lon="-3.75983">
        <ele>223.2</ele>
        <time>2020-06-07T16:02:04Z</time>
      </trkpt>
      <trkpt lat="48.04489" lon="-3.75984">
        <ele>223.3</ele>
        <time>2020-06-07T16:02:05Z</time>
      </trkpt>
      <trkpt lat="48.04488" lon="-3.75984">
        <ele>223.3</ele>
        <time>2020-06-07T16:02:06Z</time>
      </trkpt>
      <trkpt lat="48.04487" lon="-3.75984">
        <ele>223.3</ele>
        <time>2020-06-07T16:02:07Z</time>
      </trkpt>
      <trkpt lat="48.04486" lon="-3.75984">
        <ele>223.4</ele>
        <time>2020-06-07T16:02:08Z</time>
      </trkpt>
      <trkpt lat="48.04485" lon="-3.75983">
        <ele>223.4</ele>
        <time>2020-06-07T16:02:09Z</time>
      </trkpt>
      <trkpt lat="48.04484" lon="-3.75982">
        <ele>223.4</ele>
        <time>2020-06-07T16:02:10Z</time>
      </trkpt>
      <trkpt lat="48.04484" lon="-3.75982">
        <ele>223.5</ele>
        <time>2020-06-07T16:02:11Z</time>
      </trkpt>
      <trkpt lat="48.04483" lon="-3.75981">
        <ele>223.5</ele>
        <time>2020-06-07T16:02:12Z</time>
      </trkpt>
      <trkpt lat="48.04483" lon="-3.7598">
        <ele>223.5</ele>
        <time>2020-06-07T16:02:13Z</time>
      </trkpt>
      <trkpt lat="48.04482" lon="-3.7598">
        <ele>223.6</ele>
        <time>2020-06-07T16:02:14Z</time>
      </trkpt>
      <trkpt lat="48.04482" lon="-3.75981">
        <ele>223.6</ele>
        <time>2020-06-07T16:02:15Z</time>
      </trkpt>
      <trkpt lat="48.04482" lon="-3.75982">
        <ele>223.6</ele>
        <time>2020-06-07T16:02:16Z</time>
      </trkpt>
      <trkpt lat="48.04482" lon="-3.75983">
        <ele>223.6</ele>
        <time>2020-06-07T16:02:17Z</time>
      </trkpt>
      <trkpt lat="48.04482" lon="-3.75983">
        <ele>223.7</ele>
        <time>2020-06-07T16:02:18Z</time>
      </trkpt>
      <trkpt lat="48.04482" lon="-3.75984">
        <ele>223.7</ele>
        <time>2020-06-07T16:02:19Z</time>
      </trkpt>
      <trkpt lat="48.04482" lon="-3.75985">
        <ele>223.7</ele>
        <time>2020-06-07T16:02:20Z</time>
      </trkpt>
      <trkpt lat="48.04482" lon="-3.75986">
        <ele>223.7</ele>
        <time>2020-06-07T16:02:21Z</time>
      </trkpt>
      <trkpt lat="48.04482" lon="-3.75987">
        <ele>223.8</ele>
        <time>2020-06-07T16:02:22Z</time>
      </trkpt>
      <trkpt lat="48.04482" lon="-3.75988">
        <ele>223.8</ele>
        <time>2020-06-07T16:02:23Z</time>
      </trkpt>
      <trkpt lat="48.04482" lon="-3.75988">
        <ele>223.8</ele>
        <time>2020-06-07T16:02:24Z</time>
      </trkpt>
      <trkpt lat="48.04482" lon="-3.75989">
        <ele>223.8</ele>
        <time>2020-06-07T16:02:25Z</time>
      </trkpt>
      <trkpt lat="48.04482" lon="-3.7599">
        <ele>223.8</ele>
        <time>2020-06-07T16:06:11Z</time>
      </trkpt>
      <trkpt lat="48.04482" lon="-3.75991">
        <ele>223.9</ele>
        <time>2020-06-07T16:06:12Z</time>
      </trkpt>
      <trkpt lat="48.04482" lon="-3.75993">
        <ele>223.9</ele>
        <time>2020-06-07T16:06:13Z</time>
      </trkpt>
      <trkpt lat="48.04482" lon="-3.75995">
        <ele>224</ele>
        <time>2020-06-07T16:06:14Z</time>
      </trkpt>
      <trkpt lat="48.04481" lon="-3.75998">
        <ele>224.1</ele>
        <time>2020-06-07T16:06:15Z</time>
      </trkpt>
      <trkpt lat="48.04481" lon="-3.76">
        <ele>224.2</ele>
        <time>2020-06-07T16:06:16Z</time>
      </trkpt>
      <trkpt lat="48.0448" lon="-3.76005">
        <ele>224.3</ele>
        <time>2020-06-07T16:06:17Z</time>
      </trkpt>
      <trkpt lat="48.0448" lon="-3.76006">
        <ele>224.4</ele>
        <time>2020-06-07T16:06:18Z</time>
      </trkpt>
      <trkpt lat="48.04479" lon="-3.76007">
        <ele>224.5</ele>
        <time>2020-06-07T16:06:19Z</time>
      </trkpt>
      <trkpt lat="48.04479" lon="-3.76009">
        <ele>224.5</ele>
        <time>2020-06-07T16:06:20Z</time>
      </trkpt>
      <trkpt lat="48.04479" lon="-3.7601">
        <ele>224.5</ele>
        <time>2020-06-07T16:06:21Z</time>
      </trkpt>
      <trkpt lat="48.04478" lon="-3.76011">
        <ele>224.6</ele>
        <time>2020-06-07T16:06:22Z</time>
      </trkpt>
      <trkpt lat="48.04477" lon="-3.76012">
        <ele>224.6</ele>
        <time>2020-06-07T16:06:23Z</time>
      </trkpt>
      <trkpt lat="48.04477" lon="-3.76012">
        <ele>224.6</ele>
        <time>2020-06-07T16:06:24Z</time>
      </trkpt>
      <trkpt lat="48.04477" lon="-3.76012">
        <ele>224.6</ele>
        <time>2020-06-07T16:06:25Z</time>
      </trkpt>
      <trkpt lat="48.04477" lon="-3.76013">
        <ele>224.6</ele>
        <time>2020-06-07T16:06:26Z</time>
      </trkpt>
      <trkpt lat="48.04478" lon="-3.76012">
        <ele>224.6</ele>
        <time>2020-06-07T16:06:27Z</time>
      </trkpt>
      <trkpt lat="48.04478" lon="-3.76014">
        <ele>224.7</ele>
        <time>2020-06-07T16:06:28Z</time>
      </trkpt>
      <trkpt lat="48.04478" lon="-3.76015">
        <ele>224.7</ele>
        <time>2020-06-07T16:06:29Z</time>
      </trkpt>
      <trkpt lat="48.04478" lon="-3.76016">
        <ele>224.7</ele>
        <time>2020-06-07T16:06:30Z</time>
      </trkpt>
      <trkpt lat="48.04478" lon="-3.76017">
        <ele>224.8</ele>
        <time>2020-06-07T16:06:31Z</time>
      </trkpt>
      <trkpt lat="48.04478" lon="-3.76019">
        <ele>224.8</ele>
        <time>2020-06-07T16:06:32Z</time>
      </trkpt>
      <trkpt lat="48.04478" lon="-3.7602">
        <ele>224.8</ele>
        <time>2020-06-07T16:06:33Z</time>
      </trkpt>
      <trkpt lat="48.04478" lon="-3.76021">
        <ele>224.9</ele>
        <time>2020-06-07T16:06:56Z</time>
      </trkpt>
      <trkpt lat="48.04478" lon="-3.76023">
        <ele>224.9</ele>
        <time>2020-06-07T16:06:57Z</time>
      </trkpt>
      <trkpt lat="48.04478" lon="-3.76024">
        <ele>224.9</ele>
        <time>2020-06-07T16:06:58Z</time>
      </trkpt>
      <trkpt lat="48.04478" lon="-3.76025">
        <ele>224.9</ele>
        <time>2020-06-07T16:06:59Z</time>
      </trkpt>
      <trkpt lat="48.04478" lon="-3.76026">
        <ele>225</ele>
        <time>2020-06-07T16:07:00Z</time>
      </trkpt>
      <trkpt lat="48.04479" lon="-3.76027">
        <ele>225</ele>
        <time>2020-06-07T16:07:01Z</time>
      </trkpt>
      <trkpt lat="48.04479" lon="-3.76027">
        <ele>225</ele>
        <time>2020-06-07T16:07:02Z</time>
      </trkpt>
      <trkpt lat="48.04479" lon="-3.76027">
        <ele>225</ele>
        <time>2020-06-07T16:07:03Z</time>
      </trkpt>
      <trkpt lat="48.04479" lon="-3.76027">
        <ele>225</ele>
        <time>2020-06-07T16:07:04Z</time>
      </trkpt>
      <trkpt lat="48.04479" lon="-3.76027">
        <ele>225</ele>
        <time>2020-06-07T16:07:05Z</time>
      </trkpt>
      <trkpt lat="48.0448" lon="-3.76028">
        <ele>225.1</ele>
        <time>2020-06-07T16:07:06Z</time>
      </trkpt>
      <trkpt lat="48.0448" lon="-3.76029">
        <ele>225.1</ele>
        <time>2020-06-07T16:07:07Z</time>
      </trkpt>
      <trkpt lat="48.0448" lon="-3.76029">
        <ele>225.1</ele>
        <time>2020-06-07T16:07:08Z</time>
      </trkpt>
      <trkpt lat="48.0448" lon="-3.76029">
        <ele>225.1</ele>
        <time>2020-06-07T16:07:09Z</time>
      </trkpt>
      <trkpt lat="48.0448" lon="-3.76029">
        <ele>225.1</ele>
        <time>2020-06-07T16:07:10Z</time>
      </trkpt>
      <trkpt lat="48.0448" lon="-3.76029">
        <ele>225.1</ele>
        <time>2020-06-07T16:07:11Z</time>
      </trkpt>
      <trkpt lat="48.0448" lon="-3.76029">
        <ele>225.1</ele>
        <time>2020-06-07T16:07:12Z</time>
      </trkpt>
      <trkpt lat="48.0448" lon="-3.76029">
        <ele>225.1</ele>
        <time>2020-06-07T16:07:13Z</time>
      </trkpt>
      <trkpt lat="48.04481" lon="-3.76032">
        <ele>225.2</ele>
        <time>2020-06-07T16:07:50Z</time>
      </trkpt>
      <trkpt lat="48.04482" lon="-3.76033">
        <ele>225.2</ele>
        <time>2020-06-07T16:07:51Z</time>
      </trkpt>
      <trkpt lat="48.04485" lon="-3.76036">
        <ele>225.4</ele>
        <time>2020-06-07T16:07:52Z</time>
      </trkpt>
      <trkpt lat="48.04487" lon="-3.76038">
        <ele>225.5</ele>
        <time>2020-06-07T16:07:53Z</time>
      </trkpt>
      <trkpt lat="48.04489" lon="-3.7604">
        <ele>225.5</ele>
        <time>2020-06-07T16:07:54Z</time>
      </trkpt>
      <trkpt lat="48.04491" lon="-3.76042">
        <ele>225.6</ele>
        <time>2020-06-07T16:07:55Z</time>
      </trkpt>
      <trkpt lat="48.04493" lon="-3.76043">
        <ele>225.7</ele>
        <time>2020-06-07T16:07:56Z</time>
      </trkpt>
      <trkpt lat="48.04494" lon="-3.76045">
        <ele>225.8</ele>
        <time>2020-06-07T16:07:57Z</time>
      </trkpt>
      <trkpt lat="48.04495" lon="-3.76046">
        <ele>225.8</ele>
        <time>2020-06-07T16:07:58Z</time>
      </trkpt>
      <trkpt lat="48.04497" lon="-3.76048">
        <ele>225.9</ele>
        <time>2020-06-07T16:07:59Z</time>
      </trkpt>
      <trkpt lat="48.045" lon="-3.7605">
        <ele>226</ele>
        <time>2020-06-07T16:08:00Z</time>
      </trkpt>
      <trkpt lat="48.04501" lon="-3.76051">
        <ele>226.1</ele>
        <time>2020-06-07T16:08:01Z</time>
      </trkpt>
      <trkpt lat="48.04504" lon="-3.76052">
        <ele>226.2</ele>
        <time>2020-06-07T16:08:02Z</time>
      </trkpt>
      <trkpt lat="48.04507" lon="-3.76054">
        <ele>226.4</ele>
        <time>2020-06-07T16:08:03Z</time>
      </trkpt>
      <trkpt lat="48.0451" lon="-3.76056">
        <ele>226.5</ele>
        <time>2020-06-07T16:08:04Z</time>
      </trkpt>
      <trkpt lat="48.04512" lon="-3.76058">
        <ele>226.6</ele>
        <time>2020-06-07T16:08:05Z</time>
      </trkpt>
      <trkpt lat="48.04517" lon="-3.76061">
        <ele>226.8</ele>
        <time>2020-06-07T16:08:06Z</time>
      </trkpt>
      <trkpt lat="48.0452" lon="-3.76064">
        <ele>226.9</ele>
        <time>2020-06-07T16:08:07Z</time>
      </trkpt>
      <trkpt lat="48.04524" lon="-3.76066">
        <ele>227.1</ele>
        <time>2020-06-07T16:08:08Z</time>
      </trkpt>
      <trkpt lat="48.04526" lon="-3.76068">
        <ele>227.2</ele>
        <time>2020-06-07T16:08:09Z</time>
      </trkpt>
      <trkpt lat="48.04529" lon="-3.76069">
        <ele>227.3</ele>
        <time>2020-06-07T16:08:10Z</time>
      </trkpt>
      <trkpt lat="48.04531" lon="-3.7607">
        <ele>227.4</ele>
        <time>2020-06-07T16:08:11Z</time>
      </trkpt>
      <trkpt lat="48.04533" lon="-3.76071">
        <ele>227.5</ele>
        <time>2020-06-07T16:08:12Z</time>
      </trkpt>
      <trkpt lat="48.04531" lon="-3.7607">
        <ele>227.6</ele>
        <time>2020-06-07T16:08:13Z</time>
      </trkpt>
      <trkpt lat="48.04549" lon="-3.76077">
        <ele>228.3</ele>
        <time>2020-06-07T16:08:21Z</time>
      </trkpt>
      <trkpt lat="48.04552" lon="-3.76078">
        <ele>228.4</ele>
        <time>2020-06-07T16:08:22Z</time>
      </trkpt>
      <trkpt lat="48.04556" lon="-3.76079">
        <ele>228.6</ele>
        <time>2020-06-07T16:08:23Z</time>
      </trkpt>
      <trkpt lat="48.04558" lon="-3.76082">
        <ele>228.7</ele>
        <time>2020-06-07T16:08:24Z</time>
      </trkpt>
      <trkpt lat="48.04559" lon="-3.76082">
        <ele>228.7</ele>
        <time>2020-06-07T16:08:25Z</time>
      </trkpt>
      <trkpt lat="48.04559" lon="-3.76083">
        <ele>228.8</ele>
        <time>2020-06-07T16:08:26Z</time>
      </trkpt>
      <trkpt lat="48.0456" lon="-3.76083">
        <ele>228.8</ele>
        <time>2020-06-07T16:08:27Z</time>
      </trkpt>
      <trkpt lat="48.04561" lon="-3.76083">
        <ele>228.8</ele>
        <time>2020-06-07T16:08:28Z</time>
      </trkpt>
      <trkpt lat="48.04562" lon="-3.76083">
        <ele>228.9</ele>
        <time>2020-06-07T16:08:29Z</time>
      </trkpt>
      <trkpt lat="48.04562" lon="-3.76084">
        <ele>228.9</ele>
        <time>2020-06-07T16:08:30Z</time>
      </trkpt>
      <trkpt lat="48.04563" lon="-3.76084">
        <ele>228.9</ele>
        <time>2020-06-07T16:08:31Z</time>
      </trkpt>
      <trkpt lat="48.04564" lon="-3.76084">
        <ele>229</ele>
        <time>2020-06-07T16:08:32Z</time>
      </trkpt>
      <trkpt lat="48.04566" lon="-3.76086">
        <ele>229.1</ele>
        <time>2020-06-07T16:08:33Z</time>
      </trkpt>
      <trkpt lat="48.04564" lon="-3.7609">
        <ele>229.2</ele>
        <time>2020-06-07T16:08:34Z</time>
      </trkpt>
      <trkpt lat="48.04561" lon="-3.76092">
        <ele>229.3</ele>
        <time>2020-06-07T16:08:35Z</time>
      </trkpt>
      <trkpt lat="48.04563" lon="-3.76097">
        <ele>229.5</ele>
        <time>2020-06-07T16:08:36Z</time>
      </trkpt>
      <trkpt lat="48.04565" lon="-3.76099">
        <ele>229.6</ele>
        <time>2020-06-07T16:08:37Z</time>
      </trkpt>
      <trkpt lat="48.04568" lon="-3.76104">
        <ele>229.8</ele>
        <time>2020-06-07T16:08:38Z</time>
      </trkpt>
      <trkpt lat="48.04569" lon="-3.76105">
        <ele>229.7</ele>
        <time>2020-06-07T16:08:39Z</time>
      </trkpt>
      <trkpt lat="48.0457" lon="-3.76106">
        <ele>229.7</ele>
        <time>2020-06-07T16:08:40Z</time>
      </trkpt>
      <trkpt lat="48.0457" lon="-3.76108">
        <ele>229.7</ele>
        <time>2020-06-07T16:08:41Z</time>
      </trkpt>
      <trkpt lat="48.04568" lon="-3.76108">
        <ele>229.6</ele>
        <time>2020-06-07T16:08:42Z</time>
      </trkpt>
      <trkpt lat="48.04567" lon="-3.76109">
        <ele>229.6</ele>
        <time>2020-06-07T16:08:43Z</time>
      </trkpt>
      <trkpt lat="48.04564" lon="-3.7611">
        <ele>229.6</ele>
        <time>2020-06-07T16:08:44Z</time>
      </trkpt>
      <trkpt lat="48.04561" lon="-3.7611">
        <ele>229.5</ele>
        <time>2020-06-07T16:08:45Z</time>
      </trkpt>
      <trkpt lat="48.04558" lon="-3.76111">
        <ele>229.4</ele>
        <time>2020-06-07T16:08:46Z</time>
      </trkpt>
      <trkpt lat="48.04559" lon="-3.7611">
        <ele>229.4</ele>
        <time>2020-06-07T16:08:47Z</time>
      </trkpt>
      <trkpt lat="48.0456" lon="-3.76109">
        <ele>229.3</ele>
        <time>2020-06-07T16:08:48Z</time>
      </trkpt>
      <trkpt lat="48.04561" lon="-3.76109">
        <ele>229.3</ele>
        <time>2020-06-07T16:08:49Z</time>
      </trkpt>
      <trkpt lat="48.04561" lon="-3.76108">
        <ele>229.3</ele>
        <time>2020-06-07T16:08:50Z</time>
      </trkpt>
      <trkpt lat="48.04562" lon="-3.76108">
        <ele>229.3</ele>
        <time>2020-06-07T16:08:51Z</time>
      </trkpt>
      <trkpt lat="48.04562" lon="-3.76108">
        <ele>229.3</ele>
        <time>2020-06-07T16:08:52Z</time>
      </trkpt>
      <trkpt lat="48.04563" lon="-3.76107">
        <ele>229.3</ele>
        <time>2020-06-07T16:08:53Z</time>
      </trkpt>
      <trkpt lat="48.04562" lon="-3.76107">
        <ele>229.2</ele>
        <time>2020-06-07T16:08:54Z</time>
      </trkpt>
      <trkpt lat="48.04561" lon="-3.76107">
        <ele>229.2</ele>
        <time>2020-06-07T16:08:55Z</time>
      </trkpt>
      <trkpt lat="48.04559" lon="-3.76108">
        <ele>229.2</ele>
        <time>2020-06-07T16:08:56Z</time>
      </trkpt>
      <trkpt lat="48.04558" lon="-3.76108">
        <ele>229.2</ele>
        <time>2020-06-07T16:08:57Z</time>
      </trkpt>
      <trkpt lat="48.04558" lon="-3.76106">
        <ele>229.1</ele>
        <time>2020-06-07T16:08:58Z</time>
      </trkpt>
      <trkpt lat="48.04556" lon="-3.76108">
        <ele>229.1</ele>
        <time>2020-06-07T16:08:59Z</time>
      </trkpt>
      <trkpt lat="48.04554" lon="-3.76107">
        <ele>229</ele>
        <time>2020-06-07T16:09:00Z</time>
      </trkpt>
      <trkpt lat="48.04553" lon="-3.76106">
        <ele>229</ele>
        <time>2020-06-07T16:09:01Z</time>
      </trkpt>
      <trkpt lat="48.04552" lon="-3.76105">
        <ele>229</ele>
        <time>2020-06-07T16:09:02Z</time>
      </trkpt>
      <trkpt lat="48.04551" lon="-3.76104">
        <ele>228.9</ele>
        <time>2020-06-07T16:09:03Z</time>
      </trkpt>
      <trkpt lat="48.04549" lon="-3.76103">
        <ele>228.9</ele>
        <time>2020-06-07T16:09:04Z</time>
      </trkpt>
      <trkpt lat="48.04548" lon="-3.76102">
        <ele>228.9</ele>
        <time>2020-06-07T16:09:05Z</time>
      </trkpt>
      <trkpt lat="48.04544" lon="-3.76101">
        <ele>228.8</ele>
        <time>2020-06-07T16:09:06Z</time>
      </trkpt>
      <trkpt lat="48.04543" lon="-3.761">
        <ele>228.7</ele>
        <time>2020-06-07T16:09:07Z</time>
      </trkpt>
      <trkpt lat="48.0454" lon="-3.76098">
        <ele>228.7</ele>
        <time>2020-06-07T16:09:08Z</time>
      </trkpt>
      <trkpt lat="48.0454" lon="-3.76099">
        <ele>228.6</ele>
        <time>2020-06-07T16:09:09Z</time>
      </trkpt>
      <trkpt lat="48.04539" lon="-3.76099">
        <ele>228.6</ele>
        <time>2020-06-07T16:09:10Z</time>
      </trkpt>
      <trkpt lat="48.04537" lon="-3.76098">
        <ele>228.6</ele>
        <time>2020-06-07T16:09:11Z</time>
      </trkpt>
      <trkpt lat="48.04535" lon="-3.76096">
        <ele>228.5</ele>
        <time>2020-06-07T16:09:12Z</time>
      </trkpt>
      <trkpt lat="48.04534" lon="-3.76096">
        <ele>228.5</ele>
        <time>2020-06-07T16:09:13Z</time>
      </trkpt>
      <trkpt lat="48.04533" lon="-3.76095">
        <ele>228.5</ele>
        <time>2020-06-07T16:09:14Z</time>
      </trkpt>
      <trkpt lat="48.04531" lon="-3.76093">
        <ele>228.4</ele>
        <time>2020-06-07T16:09:15Z</time>
      </trkpt>
      <trkpt lat="48.0453" lon="-3.76092">
        <ele>228.4</ele>
        <time>2020-06-07T16:09:16Z</time>
      </trkpt>
      <trkpt lat="48.04528" lon="-3.76091">
        <ele>228.3</ele>
        <time>2020-06-07T16:09:17Z</time>
      </trkpt>
      <trkpt lat="48.04527" lon="-3.76088">
        <ele>228.3</ele>
        <time>2020-06-07T16:09:18Z</time>
      </trkpt>
      <trkpt lat="48.04526" lon="-3.76087">
        <ele>228.3</ele>
        <time>2020-06-07T16:09:19Z</time>
      </trkpt>
      <trkpt lat="48.04525" lon="-3.76086">
        <ele>228.2</ele>
        <time>2020-06-07T16:09:20Z</time>
      </trkpt>
      <trkpt lat="48.0452" lon="-3.76078">
        <ele>228.1</ele>
        <time>2020-06-07T16:09:46Z</time>
      </trkpt>
      <trkpt lat="48.04522" lon="-3.76077">
        <ele>228</ele>
        <time>2020-06-07T16:09:47Z</time>
      </trkpt>
      <trkpt lat="48.04524" lon="-3.76077">
        <ele>228</ele>
        <time>2020-06-07T16:09:48Z</time>
      </trkpt>
      <trkpt lat="48.04525" lon="-3.76079">
        <ele>228</ele>
        <time>2020-06-07T16:09:49Z</time>
      </trkpt>
      <trkpt lat="48.04526" lon="-3.76079">
        <ele>227.9</ele>
        <time>2020-06-07T16:09:50Z</time>
      </trkpt>
      <trkpt lat="48.04526" lon="-3.76076">
        <ele>227.9</ele>
        <time>2020-06-07T16:09:51Z</time>
      </trkpt>
      <trkpt lat="48.04526" lon="-3.76074">
        <ele>227.9</ele>
        <time>2020-06-07T16:09:52Z</time>
      </trkpt>
      <trkpt lat="48.04526" lon="-3.76072">
        <ele>227.9</ele>
        <time>2020-06-07T16:09:53Z</time>
      </trkpt>
      <trkpt lat="48.04526" lon="-3.7607">
        <ele>227.8</ele>
        <time>2020-06-07T16:09:54Z</time>
      </trkpt>
      <trkpt lat="48.04525" lon="-3.7607">
        <ele>227.8</ele>
        <time>2020-06-07T16:09:55Z</time>
      </trkpt>
      <trkpt lat="48.04525" lon="-3.7607">
        <ele>227.8</ele>
        <time>2020-06-07T16:09:56Z</time>
      </trkpt>
      <trkpt lat="48.04524" lon="-3.76071">
        <ele>227.8</ele>
        <time>2020-06-07T16:09:57Z</time>
      </trkpt>
      <trkpt lat="48.04524" lon="-3.76071">
        <ele>227.8</ele>
        <time>2020-06-07T16:09:58Z</time>
      </trkpt>
      <trkpt lat="48.04524" lon="-3.76071">
        <ele>227.8</ele>
        <time>2020-06-07T16:09:59Z</time>
      </trkpt>
      <trkpt lat="48.04524" lon="-3.76071">
        <ele>227.8</ele>
        <time>2020-06-07T16:10:00Z</time>
      </trkpt>
      <trkpt lat="48.04525" lon="-3.7607">
        <ele>227.8</ele>
        <time>2020-06-07T16:10:01Z</time>
      </trkpt>
      <trkpt lat="48.04525" lon="-3.7607">
        <ele>227.8</ele>
        <time>2020-06-07T16:10:02Z</time>
      </trkpt>
      <trkpt lat="48.04526" lon="-3.7607">
        <ele>227.7</ele>
        <time>2020-06-07T16:10:03Z</time>
      </trkpt>
      <trkpt lat="48.04525" lon="-3.76069">
        <ele>227.7</ele>
        <time>2020-06-07T16:10:04Z</time>
      </trkpt>
      <trkpt lat="48.04526" lon="-3.76068">
        <ele>227.7</ele>
        <time>2020-06-07T16:10:05Z</time>
      </trkpt>
      <trkpt lat="48.04527" lon="-3.76068">
        <ele>227.7</ele>
        <time>2020-06-07T16:10:06Z</time>
      </trkpt>
      <trkpt lat="48.04528" lon="-3.76068">
        <ele>227.7</ele>
        <time>2020-06-07T16:10:07Z</time>
      </trkpt>
      <trkpt lat="48.04529" lon="-3.76067">
        <ele>227.6</ele>
        <time>2020-06-07T16:10:08Z</time>
      </trkpt>
      <trkpt lat="48.04529" lon="-3.76067">
        <ele>227.6</ele>
        <time>2020-06-07T16:10:09Z</time>
      </trkpt>
      <trkpt lat="48.04529" lon="-3.76067">
        <ele>227.6</ele>
        <time>2020-06-07T16:10:10Z</time>
      </trkpt>
      <trkpt lat="48.04529" lon="-3.76066">
        <ele>227.6</ele>
        <time>2020-06-07T16:10:11Z</time>
      </trkpt>
      <trkpt lat="48.0453" lon="-3.76066">
        <ele>227.6</ele>
        <time>2020-06-07T16:10:12Z</time>
      </trkpt>
      <trkpt lat="48.0453" lon="-3.76066">
        <ele>227.6</ele>
        <time>2020-06-07T16:10:13Z</time>
      </trkpt>
      <trkpt lat="48.04531" lon="-3.76065">
        <ele>227.6</ele>
        <time>2020-06-07T16:10:14Z</time>
      </trkpt>
      <trkpt lat="48.0453" lon="-3.76065">
        <ele>227.6</ele>
        <time>2020-06-07T16:10:15Z</time>
      </trkpt>
      <trkpt lat="48.04531" lon="-3.76065">
        <ele>227.6</ele>
        <time>2020-06-07T16:10:16Z</time>
      </trkpt>
      <trkpt lat="48.04531" lon="-3.76065">
        <ele>227.6</ele>
        <time>2020-06-07T16:10:17Z</time>
      </trkpt>
      <trkpt lat="48.04531" lon="-3.76064">
        <ele>227.6</ele>
        <time>2020-06-07T16:10:18Z</time>
      </trkpt>
      <trkpt lat="48.04531" lon="-3.76064">
        <ele>227.6</ele>
        <time>2020-06-07T16:10:19Z</time>
      </trkpt>
      <trkpt lat="48.04531" lon="-3.76064">
        <ele>227.6</ele>
        <time>2020-06-07T16:10:20Z</time>
      </trkpt>
      <trkpt lat="48.04531" lon="-3.76064">
        <ele>227.6</ele>
        <time>2020-06-07T16:10:21Z</time>
      </trkpt>
      <trkpt lat="48.04532" lon="-3.76064">
        <ele>227.5</ele>
        <time>2020-06-07T16:10:22Z</time>
      </trkpt>
      <trkpt lat="48.04532" lon="-3.76065">
        <ele>227.5</ele>
        <time>2020-06-07T16:10:23Z</time>
      </trkpt>
      <trkpt lat="48.04533" lon="-3.76066">
        <ele>227.8</ele>
        <time>2020-06-07T16:10:24Z</time>
      </trkpt>
      <trkpt lat="48.04533" lon="-3.76066">
        <ele>227.8</ele>
        <time>2020-06-07T16:10:25Z</time>
      </trkpt>
      <trkpt lat="48.04533" lon="-3.76066">
        <ele>227.8</ele>
        <time>2020-06-07T16:10:26Z</time>
      </trkpt>
      <trkpt lat="48.04532" lon="-3.76066">
        <ele>227.5</ele>
        <time>2020-06-07T16:10:27Z</time>
      </trkpt>
      <trkpt lat="48.04533" lon="-3.76066">
        <ele>227.8</ele>
        <time>2020-06-07T16:10:28Z</time>
      </trkpt>
      <trkpt lat="48.04533" lon="-3.76066">
        <ele>227.8</ele>
        <time>2020-06-07T16:10:29Z</time>
      </trkpt>
      <trkpt lat="48.04534" lon="-3.76066">
        <ele>227.8</ele>
        <time>2020-06-07T16:10:30Z</time>
      </trkpt>
      <trkpt lat="48.04534" lon="-3.76066">
        <ele>227.8</ele>
        <time>2020-06-07T16:10:31Z</time>
      </trkpt>
      <trkpt lat="48.04535" lon="-3.76066">
        <ele>227.8</ele>
        <time>2020-06-07T16:10:32Z</time>
      </trkpt>
      <trkpt lat="48.04535" lon="-3.76067">
        <ele>227.8</ele>
        <time>2020-06-07T16:10:33Z</time>
      </trkpt>
      <trkpt lat="48.04536" lon="-3.76067">
        <ele>228.1</ele>
        <time>2020-06-07T16:10:34Z</time>
      </trkpt>
      <trkpt lat="48.04549" lon="-3.7606">
        <ele>228.8</ele>
        <time>2020-06-07T16:10:52Z</time>
      </trkpt>
      <trkpt lat="48.0455" lon="-3.76061">
        <ele>229.1</ele>
        <time>2020-06-07T16:10:53Z</time>
      </trkpt>
      <trkpt lat="48.04551" lon="-3.76061">
        <ele>229.1</ele>
        <time>2020-06-07T16:10:54Z</time>
      </trkpt>
      <trkpt lat="48.04552" lon="-3.76061">
        <ele>229.1</ele>
        <time>2020-06-07T16:10:55Z</time>
      </trkpt>
      <trkpt lat="48.04551" lon="-3.76061">
        <ele>229.1</ele>
        <time>2020-06-07T16:10:56Z</time>
      </trkpt>
      <trkpt lat="48.04551" lon="-3.76061">
        <ele>229.1</ele>
        <time>2020-06-07T16:10:57Z</time>
      </trkpt>
      <trkpt lat="48.04552" lon="-3.76061">
        <ele>229.1</ele>
        <time>2020-06-07T16:10:58Z</time>
      </trkpt>
      <trkpt lat="48.04552" lon="-3.76061">
        <ele>229.1</ele>
        <time>2020-06-07T16:10:59Z</time>
      </trkpt>
      <trkpt lat="48.04552" lon="-3.76061">
        <ele>229.1</ele>
        <time>2020-06-07T16:11:00Z</time>
      </trkpt>
      <trkpt lat="48.04551" lon="-3.76061">
        <ele>229.1</ele>
        <time>2020-06-07T16:11:01Z</time>
      </trkpt>
      <trkpt lat="48.04551" lon="-3.76061">
        <ele>229.1</ele>
        <time>2020-06-07T16:11:02Z</time>
      </trkpt>
      <trkpt lat="48.04551" lon="-3.76061">
        <ele>229.1</ele>
        <time>2020-06-07T16:11:03Z</time>
      </trkpt>
      <trkpt lat="48.04551" lon="-3.76061">
        <ele>229.1</ele>
        <time>2020-06-07T16:11:04Z</time>
      </trkpt>
      <trkpt lat="48.04552" lon="-3.76062">
        <ele>229.1</ele>
        <time>2020-06-07T16:11:05Z</time>
      </trkpt>
      <trkpt lat="48.04552" lon="-3.76062">
        <ele>229.1</ele>
        <time>2020-06-07T16:11:06Z</time>
      </trkpt>
      <trkpt lat="48.04552" lon="-3.76062">
        <ele>229.1</ele>
        <time>2020-06-07T16:11:07Z</time>
      </trkpt>
      <trkpt lat="48.04552" lon="-3.76062">
        <ele>229.1</ele>
        <time>2020-06-07T16:11:08Z</time>
      </trkpt>
      <trkpt lat="48.04552" lon="-3.76062">
        <ele>229.1</ele>
        <time>2020-06-07T16:11:09Z</time>
      </trkpt>
      <trkpt lat="48.04552" lon="-3.76062">
        <ele>229.1</ele>
        <time>2020-06-07T16:11:10Z</time>
      </trkpt>
      <trkpt lat="48.04484" lon="-3.76053">
        <ele>225.1</ele>
        <time>2020-06-07T16:13:15Z</time>
      </trkpt>
      <trkpt lat="48.04484" lon="-3.76054">
        <ele>225.1</ele>
        <time>2020-06-07T16:13:16Z</time>
      </trkpt>
      <trkpt lat="48.04484" lon="-3.76053">
        <ele>225.1</ele>
        <time>2020-06-07T16:13:17Z</time>
      </trkpt>
      <trkpt lat="48.04484" lon="-3.76053">
        <ele>225.1</ele>
        <time>2020-06-07T16:13:18Z</time>
      </trkpt>
      <trkpt lat="48.04484" lon="-3.76054">
        <ele>225</ele>
        <time>2020-06-07T16:13:19Z</time>
      </trkpt>
      <trkpt lat="48.04483" lon="-3.76054">
        <ele>225</ele>
        <time>2020-06-07T16:13:20Z</time>
      </trkpt>
      <trkpt lat="48.04483" lon="-3.76055">
        <ele>225.1</ele>
        <time>2020-06-07T16:13:21Z</time>
      </trkpt>
      <trkpt lat="48.04483" lon="-3.76055">
        <ele>225.1</ele>
        <time>2020-06-07T16:13:22Z</time>
      </trkpt>
      <trkpt lat="48.04482" lon="-3.76056">
        <ele>225.1</ele>
        <time>2020-06-07T16:13:23Z</time>
      </trkpt>
      <trkpt lat="48.04482" lon="-3.76056">
        <ele>225.1</ele>
        <time>2020-06-07T16:13:24Z</time>
      </trkpt>
      <trkpt lat="48.04481" lon="-3.76057">
        <ele>225.1</ele>
        <time>2020-06-07T16:13:25Z</time>
      </trkpt>
      <trkpt lat="48.04481" lon="-3.76057">
        <ele>225</ele>
        <time>2020-06-07T16:13:26Z</time>
      </trkpt>
      <trkpt lat="48.04481" lon="-3.76057">
        <ele>225</ele>
        <time>2020-06-07T16:13:27Z</time>
      </trkpt>
      <trkpt lat="48.0448" lon="-3.76057">
        <ele>225</ele>
        <time>2020-06-07T16:13:28Z</time>
      </trkpt>
      <trkpt lat="48.0448" lon="-3.76057">
        <ele>225</ele>
        <time>2020-06-07T16:13:29Z</time>
      </trkpt>
      <trkpt lat="48.04481" lon="-3.76056">
        <ele>225</ele>
        <time>2020-06-07T16:13:30Z</time>
      </trkpt>
      <trkpt lat="48.04481" lon="-3.76055">
        <ele>225</ele>
        <time>2020-06-07T16:13:31Z</time>
      </trkpt>
      <trkpt lat="48.04481" lon="-3.76055">
        <ele>225</ele>
        <time>2020-06-07T16:13:32Z</time>
      </trkpt>
      <trkpt lat="48.04481" lon="-3.76055">
        <ele>225</ele>
        <time>2020-06-07T16:13:33Z</time>
      </trkpt>
      <trkpt lat="48.0448" lon="-3.76054">
        <ele>225</ele>
        <time>2020-06-07T16:13:34Z</time>
      </trkpt>
      <trkpt lat="48.04481" lon="-3.76054">
        <ele>225</ele>
        <time>2020-06-07T16:13:35Z</time>
      </trkpt>
      <trkpt lat="48.0448" lon="-3.76052">
        <ele>225</ele>
        <time>2020-06-07T16:13:36Z</time>
      </trkpt>
      <trkpt lat="48.04479" lon="-3.76052">
        <ele>225</ele>
        <time>2020-06-07T16:13:37Z</time>
      </trkpt>
      <trkpt lat="48.04479" lon="-3.76052">
        <ele>225</ele>
        <time>2020-06-07T16:13:38Z</time>
      </trkpt>
      <trkpt lat="48.04478" lon="-3.76051">
        <ele>225</ele>
        <time>2020-06-07T16:13:39Z</time>
      </trkpt>
      <trkpt lat="48.04476" lon="-3.76052">
        <ele>225</ele>
        <time>2020-06-07T16:13:40Z</time>
      </trkpt>
      <trkpt lat="48.04476" lon="-3.76053">
        <ele>225</ele>
        <time>2020-06-07T16:13:41Z</time>
      </trkpt>
      <trkpt lat="48.04475" lon="-3.76053">
        <ele>224.9</ele>
        <time>2020-06-07T16:13:42Z</time>
      </trkpt>
      <trkpt lat="48.04473" lon="-3.76054">
        <ele>224.9</ele>
        <time>2020-06-07T16:13:43Z</time>
      </trkpt>
      <trkpt lat="48.04472" lon="-3.76054">
        <ele>224.9</ele>
        <time>2020-06-07T16:13:44Z</time>
      </trkpt>
      <trkpt lat="48.04472" lon="-3.76054">
        <ele>224.8</ele>
        <time>2020-06-07T16:13:45Z</time>
      </trkpt>
      <trkpt lat="48.04471" lon="-3.76054">
        <ele>224.8</ele>
        <time>2020-06-07T16:13:46Z</time>
      </trkpt>
      <trkpt lat="48.0447" lon="-3.76054">
        <ele>224.8</ele>
        <time>2020-06-07T16:13:47Z</time>
      </trkpt>
      <trkpt lat="48.04468" lon="-3.76054">
        <ele>224.8</ele>
        <time>2020-06-07T16:13:48Z</time>
      </trkpt>
      <trkpt lat="48.04467" lon="-3.76054">
        <ele>224.8</ele>
        <time>2020-06-07T16:13:49Z</time>
      </trkpt>
      <trkpt lat="48.04466" lon="-3.76053">
        <ele>224.7</ele>
        <time>2020-06-07T16:13:50Z</time>
      </trkpt>
      <trkpt lat="48.04465" lon="-3.76053">
        <ele>224.7</ele>
        <time>2020-06-07T16:13:51Z</time>
      </trkpt>
      <trkpt lat="48.04464" lon="-3.76053">
        <ele>224.7</ele>
        <time>2020-06-07T16:13:52Z</time>
      </trkpt>
      <trkpt lat="48.04463" lon="-3.76053">
        <ele>224.7</ele>
        <time>2020-06-07T16:13:53Z</time>
      </trkpt>
      <trkpt lat="48.04462" lon="-3.76053">
        <ele>224.7</ele>
        <time>2020-06-07T16:13:54Z</time>
      </trkpt>
      <trkpt lat="48.04461" lon="-3.76053">
        <ele>224.7</ele>
        <time>2020-06-07T16:13:55Z</time>
      </trkpt>
      <trkpt lat="48.0446" lon="-3.76053">
        <ele>224.7</ele>
        <time>2020-06-07T16:13:56Z</time>
      </trkpt>
      <trkpt lat="48.04459" lon="-3.76053">
        <ele>224.7</ele>
        <time>2020-06-07T16:13:57Z</time>
      </trkpt>
      <trkpt lat="48.04457" lon="-3.76052">
        <ele>224.6</ele>
        <time>2020-06-07T16:13:58Z</time>
      </trkpt>
      <trkpt lat="48.04456" lon="-3.76052">
        <ele>224.6</ele>
        <time>2020-06-07T16:13:59Z</time>
      </trkpt>
      <trkpt lat="48.04455" lon="-3.76051">
        <ele>224.6</ele>
        <time>2020-06-07T16:14:00Z</time>
      </trkpt>
      <trkpt lat="48.04456" lon="-3.76049">
        <ele>224.6</ele>
        <time>2020-06-07T16:14:01Z</time>
      </trkpt>
      <trkpt lat="48.04457" lon="-3.76048">
        <ele>224.6</ele>
        <time>2020-06-07T16:14:02Z</time>
      </trkpt>
      <trkpt lat="48.04458" lon="-3.76047">
        <ele>224.6</ele>
        <time>2020-06-07T16:14:03Z</time>
      </trkpt>
      <trkpt lat="48.0446" lon="-3.76046">
        <ele>224.6</ele>
        <time>2020-06-07T16:14:04Z</time>
      </trkpt>
      <trkpt lat="48.04461" lon="-3.76045">
        <ele>224.6</ele>
        <time>2020-06-07T16:14:05Z</time>
      </trkpt>
      <trkpt lat="48.04463" lon="-3.76044">
        <ele>224.6</ele>
        <time>2020-06-07T16:14:06Z</time>
      </trkpt>
      <trkpt lat="48.04464" lon="-3.76043">
        <ele>224.6</ele>
        <time>2020-06-07T16:14:07Z</time>
      </trkpt>
      <trkpt lat="48.04465" lon="-3.76042">
        <ele>224.6</ele>
        <time>2020-06-07T16:14:08Z</time>
      </trkpt>
      <trkpt lat="48.04467" lon="-3.76041">
        <ele>224.6</ele>
        <time>2020-06-07T16:14:09Z</time>
      </trkpt>
      <trkpt lat="48.04468" lon="-3.7604">
        <ele>224.6</ele>
        <time>2020-06-07T16:14:10Z</time>
      </trkpt>
      <trkpt lat="48.0447" lon="-3.76039">
        <ele>224.6</ele>
        <time>2020-06-07T16:14:11Z</time>
      </trkpt>
      <trkpt lat="48.04471" lon="-3.76038">
        <ele>224.6</ele>
        <time>2020-06-07T16:14:56Z</time>
      </trkpt>
      <trkpt lat="48.04473" lon="-3.76037">
        <ele>224.6</ele>
        <time>2020-06-07T16:14:57Z</time>
      </trkpt>
      <trkpt lat="48.04477" lon="-3.76035">
        <ele>224.6</ele>
        <time>2020-06-07T16:14:58Z</time>
      </trkpt>
      <trkpt lat="48.04477" lon="-3.76034">
        <ele>224.6</ele>
        <time>2020-06-07T16:14:59Z</time>
      </trkpt>
      <trkpt lat="48.04477" lon="-3.76034">
        <ele>224.6</ele>
        <time>2020-06-07T16:15:00Z</time>
      </trkpt>
      <trkpt lat="48.04474" lon="-3.76033">
        <ele>224.6</ele>
        <time>2020-06-07T16:15:01Z</time>
      </trkpt>
      <trkpt lat="48.0447" lon="-3.76032">
        <ele>224.4</ele>
        <time>2020-06-07T16:15:02Z</time>
      </trkpt>
      <trkpt lat="48.04465" lon="-3.76033">
        <ele>224.3</ele>
        <time>2020-06-07T16:15:03Z</time>
      </trkpt>
      <trkpt lat="48.04463" lon="-3.76032">
        <ele>224.3</ele>
        <time>2020-06-07T16:15:04Z</time>
      </trkpt>
      <trkpt lat="48.04463" lon="-3.76032">
        <ele>224.3</ele>
        <time>2020-06-07T16:15:05Z</time>
      </trkpt>
      <trkpt lat="48.04462" lon="-3.76032">
        <ele>224.3</ele>
        <time>2020-06-07T16:15:06Z</time>
      </trkpt>
      <trkpt lat="48.04462" lon="-3.76031">
        <ele>224.3</ele>
        <time>2020-06-07T16:15:07Z</time>
      </trkpt>
      <trkpt lat="48.04461" lon="-3.7603">
        <ele>224.3</ele>
        <time>2020-06-07T16:15:08Z</time>
      </trkpt>
      <trkpt lat="48.04461" lon="-3.76029">
        <ele>224.3</ele>
        <time>2020-06-07T16:15:09Z</time>
      </trkpt>
      <trkpt lat="48.0446" lon="-3.76029">
        <ele>224.2</ele>
        <time>2020-06-07T16:15:10Z</time>
      </trkpt>
      <trkpt lat="48.0446" lon="-3.76028">
        <ele>224.1</ele>
        <time>2020-06-07T16:15:11Z</time>
      </trkpt>
      <trkpt lat="48.0446" lon="-3.76027">
        <ele>224.1</ele>
        <time>2020-06-07T16:15:12Z</time>
      </trkpt>
      <trkpt lat="48.04458" lon="-3.76026">
        <ele>224.1</ele>
        <time>2020-06-07T16:15:13Z</time>
      </trkpt>
      <trkpt lat="48.04456" lon="-3.76025">
        <ele>224.1</ele>
        <time>2020-06-07T16:15:14Z</time>
      </trkpt>
      <trkpt lat="48.04455" lon="-3.76024">
        <ele>223.9</ele>
        <time>2020-06-07T16:15:15Z</time>
      </trkpt>
      <trkpt lat="48.04454" lon="-3.76023">
        <ele>223.9</ele>
        <time>2020-06-07T16:15:16Z</time>
      </trkpt>
      <trkpt lat="48.04451" lon="-3.76021">
        <ele>223.8</ele>
        <time>2020-06-07T16:15:17Z</time>
      </trkpt>
      <trkpt lat="48.0445" lon="-3.76021">
        <ele>223.8</ele>
        <time>2020-06-07T16:15:18Z</time>
      </trkpt>
      <trkpt lat="48.04447" lon="-3.76019">
        <ele>223.6</ele>
        <time>2020-06-07T16:15:19Z</time>
      </trkpt>
      <trkpt lat="48.04446" lon="-3.76018">
        <ele>223.6</ele>
        <time>2020-06-07T16:15:20Z</time>
      </trkpt>
      <trkpt lat="48.04446" lon="-3.76018">
        <ele>223.6</ele>
        <time>2020-06-07T16:15:21Z</time>
      </trkpt>
      <trkpt lat="48.04446" lon="-3.76015">
        <ele>223.4</ele>
        <time>2020-06-07T16:15:22Z</time>
      </trkpt>
      <trkpt lat="48.04448" lon="-3.76013">
        <ele>223.5</ele>
        <time>2020-06-07T16:15:23Z</time>
      </trkpt>
      <trkpt lat="48.04451" lon="-3.76013">
        <ele>223.5</ele>
        <time>2020-06-07T16:15:24Z</time>
      </trkpt>
      <trkpt lat="48.04452" lon="-3.76014">
        <ele>223.5</ele>
        <time>2020-06-07T16:15:25Z</time>
      </trkpt>
      <trkpt lat="48.04453" lon="-3.76014">
        <ele>223.6</ele>
        <time>2020-06-07T16:15:26Z</time>
      </trkpt>
      <trkpt lat="48.04455" lon="-3.76019">
        <ele>223.8</ele>
        <time>2020-06-07T16:15:27Z</time>
      </trkpt>
      <trkpt lat="48.04455" lon="-3.76019">
        <ele>223.8</ele>
        <time>2020-06-07T16:15:28Z</time>
      </trkpt>
      <trkpt lat="48.04455" lon="-3.76019">
        <ele>223.8</ele>
        <time>2020-06-07T16:15:29Z</time>
      </trkpt>
      <trkpt lat="48.04456" lon="-3.7602">
        <ele>223.8</ele>
        <time>2020-06-07T16:15:30Z</time>
      </trkpt>
      <trkpt lat="48.04456" lon="-3.76021">
        <ele>223.9</ele>
        <time>2020-06-07T16:15:31Z</time>
      </trkpt>
      <trkpt lat="48.04457" lon="-3.76021">
        <ele>223.9</ele>
        <time>2020-06-07T16:15:32Z</time>
      </trkpt>
      <trkpt lat="48.04458" lon="-3.76021">
        <ele>223.9</ele>
        <time>2020-06-07T16:15:33Z</time>
      </trkpt>
      <trkpt lat="48.04459" lon="-3.7603">
        <ele>224.2</ele>
        <time>2020-06-07T16:16:54Z</time>
      </trkpt>
      <trkpt lat="48.04459" lon="-3.7603">
        <ele>224.2</ele>
        <time>2020-06-07T16:16:55Z</time>
      </trkpt>
      <trkpt lat="48.04459" lon="-3.7603">
        <ele>224.2</ele>
        <time>2020-06-07T16:16:56Z</time>
      </trkpt>
      <trkpt lat="48.04459" lon="-3.7603">
        <ele>224.2</ele>
        <time>2020-06-07T16:16:57Z</time>
      </trkpt>
      <trkpt lat="48.04459" lon="-3.7603">
        <ele>224.2</ele>
        <time>2020-06-07T16:16:58Z</time>
      </trkpt>
      <trkpt lat="48.04459" lon="-3.7603">
        <ele>224.2</ele>
        <time>2020-06-07T16:16:59Z</time>
      </trkpt>
      <trkpt lat="48.04459" lon="-3.7603">
        <ele>224.2</ele>
        <time>2020-06-07T16:17:00Z</time>
      </trkpt>
      <trkpt lat="48.04459" lon="-3.7603">
        <ele>224.2</ele>
        <time>2020-06-07T16:17:01Z</time>
      </trkpt>
      <trkpt lat="48.04459" lon="-3.7603">
        <ele>224.2</ele>
        <time>2020-06-07T16:17:02Z</time>
      </trkpt>
      <trkpt lat="48.04459" lon="-3.7603">
        <ele>224.2</ele>
        <time>2020-06-07T16:17:03Z</time>
      </trkpt>
      <trkpt lat="48.04459" lon="-3.7603">
        <ele>224.2</ele>
        <time>2020-06-07T16:17:04Z</time>
      </trkpt>
      <trkpt lat="48.04459" lon="-3.7603">
        <ele>224.2</ele>
        <time>2020-06-07T16:17:05Z</time>
      </trkpt>
      <trkpt lat="48.04459" lon="-3.7603">
        <ele>224.2</ele>
        <time>2020-06-07T16:17:06Z</time>
      </trkpt>
      <trkpt lat="48.04467" lon="-3.76029">
        <ele>224.4</ele>
        <time>2020-06-07T16:17:17Z</time>
      </trkpt>
      <trkpt lat="48.04468" lon="-3.76029">
        <ele>224.4</ele>
        <time>2020-06-07T16:17:18Z</time>
      </trkpt>
      <trkpt lat="48.04468" lon="-3.76028">
        <ele>224.2</ele>
        <time>2020-06-07T16:17:19Z</time>
      </trkpt>
      <trkpt lat="48.04468" lon="-3.76028">
        <ele>224.2</ele>
        <time>2020-06-07T16:17:20Z</time>
      </trkpt>
      <trkpt lat="48.04468" lon="-3.76028">
        <ele>224.2</ele>
        <time>2020-06-07T16:17:21Z</time>
      </trkpt>
      <trkpt lat="48.04468" lon="-3.76029">
        <ele>224.4</ele>
        <time>2020-06-07T16:17:22Z</time>
      </trkpt>
      <trkpt lat="48.04468" lon="-3.76029">
        <ele>224.4</ele>
        <time>2020-06-07T16:17:23Z</time>
      </trkpt>
      <trkpt lat="48.04467" lon="-3.76029">
        <ele>224.2</ele>
        <time>2020-06-07T16:17:24Z</time>
      </trkpt>
      <trkpt lat="48.04468" lon="-3.76028">
        <ele>224.2</ele>
        <time>2020-06-07T16:17:25Z</time>
      </trkpt>
      <trkpt lat="48.04467" lon="-3.76026">
        <ele>224.2</ele>
        <time>2020-06-07T16:17:26Z</time>
      </trkpt>
      <trkpt lat="48.04469" lon="-3.76024">
        <ele>224.2</ele>
        <time>2020-06-07T16:17:27Z</time>
      </trkpt>
      <trkpt lat="48.04469" lon="-3.76024">
        <ele>224.1</ele>
        <time>2020-06-07T16:17:28Z</time>
      </trkpt>
      <trkpt lat="48.0447" lon="-3.76024">
        <ele>224.1</ele>
        <time>2020-06-07T16:17:29Z</time>
      </trkpt>
      <trkpt lat="48.04471" lon="-3.76024">
        <ele>224.1</ele>
        <time>2020-06-07T16:17:30Z</time>
      </trkpt>
      <trkpt lat="48.04471" lon="-3.76026">
        <ele>224.3</ele>
        <time>2020-06-07T16:17:31Z</time>
      </trkpt>
      <trkpt lat="48.04472" lon="-3.76027">
        <ele>224.3</ele>
        <time>2020-06-07T16:17:32Z</time>
      </trkpt>
      <trkpt lat="48.04473" lon="-3.76027">
        <ele>224.3</ele>
        <time>2020-06-07T16:17:33Z</time>
      </trkpt>
      <trkpt lat="48.04474" lon="-3.76028">
        <ele>224.3</ele>
        <time>2020-06-07T16:17:34Z</time>
      </trkpt>
      <trkpt lat="48.04474" lon="-3.76027">
        <ele>224.3</ele>
        <time>2020-06-07T16:17:35Z</time>
      </trkpt>
      <trkpt lat="48.04474" lon="-3.76028">
        <ele>224.3</ele>
        <time>2020-06-07T16:17:36Z</time>
      </trkpt>
      <trkpt lat="48.04473" lon="-3.76029">
        <ele>224.5</ele>
        <time>2020-06-07T16:17:37Z</time>
      </trkpt>
      <trkpt lat="48.04474" lon="-3.7603">
        <ele>224.5</ele>
        <time>2020-06-07T16:17:38Z</time>
      </trkpt>
      <trkpt lat="48.04474" lon="-3.7603">
        <ele>224.5</ele>
        <time>2020-06-07T16:17:39Z</time>
      </trkpt>
      <trkpt lat="48.04474" lon="-3.7603">
        <ele>224.5</ele>
        <time>2020-06-07T16:17:40Z</time>
      </trkpt>
      <trkpt lat="48.04474" lon="-3.7603">
        <ele>224.5</ele>
        <time>2020-06-07T16:17:41Z</time>
      </trkpt>
      <trkpt lat="48.04474" lon="-3.7603">
        <ele>224.5</ele>
        <time>2020-06-07T16:17:42Z</time>
      </trkpt>
      <trkpt lat="48.04474" lon="-3.76031">
        <ele>224.5</ele>
        <time>2020-06-07T16:17:43Z</time>
      </trkpt>
      <trkpt lat="48.04473" lon="-3.76032">
        <ele>224.5</ele>
        <time>2020-06-07T16:17:44Z</time>
      </trkpt>
      <trkpt lat="48.04473" lon="-3.76032">
        <ele>224.5</ele>
        <time>2020-06-07T16:17:45Z</time>
      </trkpt>
      <trkpt lat="48.04472" lon="-3.76032">
        <ele>224.4</ele>
        <time>2020-06-07T16:17:46Z</time>
      </trkpt>
      <trkpt lat="48.04473" lon="-3.76031">
        <ele>224.5</ele>
        <time>2020-06-07T16:17:47Z</time>
      </trkpt>
      <trkpt lat="48.04474" lon="-3.76031">
        <ele>224.5</ele>
        <time>2020-06-07T16:17:48Z</time>
      </trkpt>
      <trkpt lat="48.04475" lon="-3.7603">
        <ele>224.5</ele>
        <time>2020-06-07T16:17:49Z</time>
      </trkpt>
      <trkpt lat="48.04475" lon="-3.7603">
        <ele>224.5</ele>
        <time>2020-06-07T16:17:50Z</time>
      </trkpt>
      <trkpt lat="48.04475" lon="-3.7603">
        <ele>224.5</ele>
        <time>2020-06-07T16:17:51Z</time>
      </trkpt>
      <trkpt lat="48.04474" lon="-3.7603">
        <ele>224.5</ele>
        <time>2020-06-07T16:17:52Z</time>
      </trkpt>
      <trkpt lat="48.04481" lon="-3.76032">
        <ele>224.5</ele>
        <time>2020-06-07T16:23:51Z</time>
      </trkpt>
      <trkpt lat="48.04481" lon="-3.76032">
        <ele>224.6</ele>
        <time>2020-06-07T16:23:52Z</time>
      </trkpt>
      <trkpt lat="48.04482" lon="-3.76032">
        <ele>224.6</ele>
        <time>2020-06-07T16:23:53Z</time>
      </trkpt>
      <trkpt lat="48.04482" lon="-3.76032">
        <ele>224.6</ele>
        <time>2020-06-07T16:23:54Z</time>
      </trkpt>
      <trkpt lat="48.04483" lon="-3.76032">
        <ele>224.6</ele>
        <time>2020-06-07T16:23:55Z</time>
      </trkpt>
      <trkpt lat="48.04483" lon="-3.76033">
        <ele>224.6</ele>
        <time>2020-06-07T16:23:56Z</time>
      </trkpt>
      <trkpt lat="48.04484" lon="-3.76033">
        <ele>224.6</ele>
        <time>2020-06-07T16:23:57Z</time>
      </trkpt>
      <trkpt lat="48.04484" lon="-3.76033">
        <ele>224.7</ele>
        <time>2020-06-07T16:23:58Z</time>
      </trkpt>
      <trkpt lat="48.04485" lon="-3.76033">
        <ele>224.7</ele>
        <time>2020-06-07T16:23:59Z</time>
      </trkpt>
      <trkpt lat="48.04485" lon="-3.76033">
        <ele>224.7</ele>
        <time>2020-06-07T16:24:00Z</time>
      </trkpt>
      <trkpt lat="48.04486" lon="-3.76034">
        <ele>224.7</ele>
        <time>2020-06-07T16:24:01Z</time>
      </trkpt>
      <trkpt lat="48.04486" lon="-3.76034">
        <ele>224.7</ele>
        <time>2020-06-07T16:24:02Z</time>
      </trkpt>
      <trkpt lat="48.04487" lon="-3.76034">
        <ele>224.8</ele>
        <time>2020-06-07T16:24:03Z</time>
      </trkpt>
      <trkpt lat="48.04487" lon="-3.76034">
        <ele>224.8</ele>
        <time>2020-06-07T16:24:04Z</time>
      </trkpt>
      <trkpt lat="48.04488" lon="-3.76035">
        <ele>224.8</ele>
        <time>2020-06-07T16:24:05Z</time>
      </trkpt>
      <trkpt lat="48.04488" lon="-3.76035">
        <ele>224.8</ele>
        <time>2020-06-07T16:24:06Z</time>
      </trkpt>
      <trkpt lat="48.04489" lon="-3.76035">
        <ele>224.8</ele>
        <time>2020-06-07T16:24:07Z</time>
      </trkpt>
      <trkpt lat="48.04489" lon="-3.76035">
        <ele>224.8</ele>
        <time>2020-06-07T16:24:08Z</time>
      </trkpt>
      <trkpt lat="48.0449" lon="-3.76036">
        <ele>224.8</ele>
        <time>2020-06-07T16:24:09Z</time>
      </trkpt>
      <trkpt lat="48.0449" lon="-3.76036">
        <ele>224.8</ele>
        <time>2020-06-07T16:24:31Z</time>
      </trkpt>
      <trkpt lat="48.04491" lon="-3.76036">
        <ele>224.8</ele>
        <time>2020-06-07T16:24:32Z</time>
      </trkpt>
      <trkpt lat="48.04491" lon="-3.76036">
        <ele>224.8</ele>
        <time>2020-06-07T16:24:33Z</time>
      </trkpt>
      <trkpt lat="48.04493" lon="-3.76037">
        <ele>224.9</ele>
        <time>2020-06-07T16:24:34Z</time>
      </trkpt>
      <trkpt lat="48.04494" lon="-3.76037">
        <ele>225</ele>
        <time>2020-06-07T16:24:35Z</time>
      </trkpt>
      <trkpt lat="48.04495" lon="-3.76038">
        <ele>225</ele>
        <time>2020-06-07T16:24:36Z</time>
      </trkpt>
      <trkpt lat="48.04496" lon="-3.76038">
        <ele>225</ele>
        <time>2020-06-07T16:24:37Z</time>
      </trkpt>
      <trkpt lat="48.04497" lon="-3.76039">
        <ele>225</ele>
        <time>2020-06-07T16:24:38Z</time>
      </trkpt>
      <trkpt lat="48.04499" lon="-3.76039">
        <ele>225.1</ele>
        <time>2020-06-07T16:24:39Z</time>
      </trkpt>
      <trkpt lat="48.045" lon="-3.7604">
        <ele>225.1</ele>
        <time>2020-06-07T16:24:40Z</time>
      </trkpt>
      <trkpt lat="48.045" lon="-3.7604">
        <ele>225.1</ele>
        <time>2020-06-07T16:24:41Z</time>
      </trkpt>
      <trkpt lat="48.04501" lon="-3.76041">
        <ele>225.1</ele>
        <time>2020-06-07T16:24:42Z</time>
      </trkpt>
      <trkpt lat="48.045" lon="-3.76041">
        <ele>225.1</ele>
        <time>2020-06-07T16:24:43Z</time>
      </trkpt>
      <trkpt lat="48.045" lon="-3.7604">
        <ele>225.1</ele>
        <time>2020-06-07T16:24:44Z</time>
      </trkpt>
      <trkpt lat="48.04501" lon="-3.76041">
        <ele>225.2</ele>
        <time>2020-06-07T16:24:45Z</time>
      </trkpt>
      <trkpt lat="48.04502" lon="-3.76042">
        <ele>225.3</ele>
        <time>2020-06-07T16:24:46Z</time>
      </trkpt>
      <trkpt lat="48.04502" lon="-3.76042">
        <ele>225.3</ele>
        <time>2020-06-07T16:24:47Z</time>
      </trkpt>
      <trkpt lat="48.04502" lon="-3.76043">
        <ele>225.3</ele>
        <time>2020-06-07T16:24:48Z</time>
      </trkpt>
      <trkpt lat="48.04502" lon="-3.76042">
        <ele>225.3</ele>
        <time>2020-06-07T16:24:49Z</time>
      </trkpt>
      <trkpt lat="48.04502" lon="-3.76042">
        <ele>225.3</ele>
        <time>2020-06-07T16:24:50Z</time>
      </trkpt>
      <trkpt lat="48.04503" lon="-3.76042">
        <ele>225.3</ele>
        <time>2020-06-07T16:24:51Z</time>
      </trkpt>
      <trkpt lat="48.04504" lon="-3.76043">
        <ele>225.4</ele>
        <time>2020-06-07T16:24:52Z</time>
      </trkpt>
      <trkpt lat="48.04505" lon="-3.76043">
        <ele>225.4</ele>
        <time>2020-06-07T16:24:53Z</time>
      </trkpt>
      <trkpt lat="48.04506" lon="-3.76044">
        <ele>225.4</ele>
        <time>2020-06-07T16:24:54Z</time>
      </trkpt>
      <trkpt lat="48.04506" lon="-3.76043">
        <ele>225.4</ele>
        <time>2020-06-07T16:24:55Z</time>
      </trkpt>
      <trkpt lat="48.04506" lon="-3.76044">
        <ele>225.4</ele>
        <time>2020-06-07T16:24:56Z</time>
      </trkpt>
      <trkpt lat="48.04506" lon="-3.76043">
        <ele>225.4</ele>
        <time>2020-06-07T16:24:57Z</time>
      </trkpt>
      <trkpt lat="48.04507" lon="-3.76043">
        <ele>225.5</ele>
        <time>2020-06-07T16:24:58Z</time>
      </trkpt>
      <trkpt lat="48.04507" lon="-3.76043">
        <ele>225.5</ele>
        <time>2020-06-07T16:24:59Z</time>
      </trkpt>
      <trkpt lat="48.04507" lon="-3.76043">
        <ele>225.5</ele>
        <time>2020-06-07T16:25:00Z</time>
      </trkpt>
      <trkpt lat="48.04507" lon="-3.76043">
        <ele>225.5</ele>
        <time>2020-06-07T16:25:01Z</time>
      </trkpt>
      <trkpt lat="48.04507" lon="-3.76043">
        <ele>225.5</ele>
        <time>2020-06-07T16:25:02Z</time>
      </trkpt>
      <trkpt lat="48.04507" lon="-3.76043">
        <ele>225.5</ele>
        <time>2020-06-07T16:25:03Z</time>
      </trkpt>
      <trkpt lat="48.04507" lon="-3.76042">
        <ele>225.5</ele>
        <time>2020-06-07T16:25:04Z</time>
      </trkpt>
      <trkpt lat="48.04507" lon="-3.76042">
        <ele>225.5</ele>
        <time>2020-06-07T16:25:05Z</time>
      </trkpt>
      <trkpt lat="48.04506" lon="-3.7604">
        <ele>225.3</ele>
        <time>2020-06-07T16:25:06Z</time>
      </trkpt>
      <trkpt lat="48.04506" lon="-3.7604">
        <ele>225.3</ele>
        <time>2020-06-07T16:25:07Z</time>
      </trkpt>
      <trkpt lat="48.04505" lon="-3.76038">
        <ele>225.3</ele>
        <time>2020-06-07T16:25:08Z</time>
      </trkpt>
      <trkpt lat="48.04505" lon="-3.76036">
        <ele>225.2</ele>
        <time>2020-06-07T16:25:09Z</time>
      </trkpt>
      <trkpt lat="48.04504" lon="-3.76036">
        <ele>225.2</ele>
        <time>2020-06-07T16:25:10Z</time>
      </trkpt>
      <trkpt lat="48.04504" lon="-3.76038">
        <ele>225.3</ele>
        <time>2020-06-07T16:25:11Z</time>
      </trkpt>
      <trkpt lat="48.04504" lon="-3.76039">
        <ele>225.2</ele>
        <time>2020-06-07T16:25:12Z</time>
      </trkpt>
      <trkpt lat="48.04503" lon="-3.7604">
        <ele>225.2</ele>
        <time>2020-06-07T16:25:13Z</time>
      </trkpt>
      <trkpt lat="48.04503" lon="-3.76041">
        <ele>225.2</ele>
        <time>2020-06-07T16:25:14Z</time>
      </trkpt>
      <trkpt lat="48.04502" lon="-3.76041">
        <ele>225.2</ele>
        <time>2020-06-07T16:25:15Z</time>
      </trkpt>
      <trkpt lat="48.04501" lon="-3.76041">
        <ele>225.2</ele>
        <time>2020-06-07T16:25:16Z</time>
      </trkpt>
      <trkpt lat="48.045" lon="-3.7604">
        <ele>225.1</ele>
        <time>2020-06-07T16:25:17Z</time>
      </trkpt>
      <trkpt lat="48.04499" lon="-3.76038">
        <ele>225.1</ele>
        <time>2020-06-07T16:25:18Z</time>
      </trkpt>
      <trkpt lat="48.04499" lon="-3.76038">
        <ele>225.1</ele>
        <time>2020-06-07T16:25:19Z</time>
      </trkpt>
      <trkpt lat="48.04499" lon="-3.76037">
        <ele>225</ele>
        <time>2020-06-07T16:25:20Z</time>
      </trkpt>
      <trkpt lat="48.04498" lon="-3.76036">
        <ele>225</ele>
        <time>2020-06-07T16:25:21Z</time>
      </trkpt>
      <trkpt lat="48.04499" lon="-3.76035">
        <ele>225</ele>
        <time>2020-06-07T16:25:22Z</time>
      </trkpt>
      <trkpt lat="48.04498" lon="-3.76035">
        <ele>225</ele>
        <time>2020-06-07T16:25:23Z</time>
      </trkpt>
      <trkpt lat="48.04497" lon="-3.76034">
        <ele>224.9</ele>
        <time>2020-06-07T16:25:24Z</time>
      </trkpt>
      <trkpt lat="48.04497" lon="-3.76034">
        <ele>224.9</ele>
        <time>2020-06-07T16:25:25Z</time>
      </trkpt>
      <trkpt lat="48.04496" lon="-3.76034">
        <ele>224.9</ele>
        <time>2020-06-07T16:25:26Z</time>
      </trkpt>
      <trkpt lat="48.04495" lon="-3.76034">
        <ele>224.9</ele>
        <time>2020-06-07T16:25:27Z</time>
      </trkpt>
      <trkpt lat="48.04493" lon="-3.76033">
        <ele>224.9</ele>
        <time>2020-06-07T16:25:28Z</time>
      </trkpt>
      <trkpt lat="48.04492" lon="-3.76033">
        <ele>224.7</ele>
        <time>2020-06-07T16:25:29Z</time>
      </trkpt>
      <trkpt lat="48.04491" lon="-3.76032">
        <ele>224.7</ele>
        <time>2020-06-07T16:25:30Z</time>
      </trkpt>
      <trkpt lat="48.04491" lon="-3.76032">
        <ele>224.7</ele>
        <time>2020-06-07T16:25:31Z</time>
      </trkpt>
      <trkpt lat="48.04489" lon="-3.76031">
        <ele>224.7</ele>
        <time>2020-06-07T16:25:32Z</time>
      </trkpt>
      <trkpt lat="48.04488" lon="-3.76031">
        <ele>224.7</ele>
        <time>2020-06-07T16:25:33Z</time>
      </trkpt>
      <trkpt lat="48.04487" lon="-3.76031">
        <ele>224.6</ele>
        <time>2020-06-07T16:25:34Z</time>
      </trkpt>
      <trkpt lat="48.04486" lon="-3.76032">
        <ele>224.6</ele>
        <time>2020-06-07T16:25:35Z</time>
      </trkpt>
      <trkpt lat="48.04487" lon="-3.76032">
        <ele>224.7</ele>
        <time>2020-06-07T16:25:36Z</time>
      </trkpt>
      <trkpt lat="48.04486" lon="-3.76034">
        <ele>224.7</ele>
        <time>2020-06-07T16:25:37Z</time>
      </trkpt>
      <trkpt lat="48.04485" lon="-3.76035">
        <ele>224.7</ele>
        <time>2020-06-07T16:25:38Z</time>
      </trkpt>
      <trkpt lat="48.04485" lon="-3.76035">
        <ele>224.7</ele>
        <time>2020-06-07T16:25:39Z</time>
      </trkpt>
      <trkpt lat="48.04485" lon="-3.76036">
        <ele>224.7</ele>
        <time>2020-06-07T16:25:40Z</time>
      </trkpt>
      <trkpt lat="48.04484" lon="-3.76037">
        <ele>224.8</ele>
        <time>2020-06-07T16:25:41Z</time>
      </trkpt>
      <trkpt lat="48.04483" lon="-3.76037">
        <ele>224.8</ele>
        <time>2020-06-07T16:25:42Z</time>
      </trkpt>
      <trkpt lat="48.04483" lon="-3.76037">
        <ele>224.8</ele>
        <time>2020-06-07T16:25:43Z</time>
      </trkpt>
      <trkpt lat="48.04482" lon="-3.76037">
        <ele>224.8</ele>
        <time>2020-06-07T16:25:44Z</time>
      </trkpt>
      <trkpt lat="48.04481" lon="-3.76037">
        <ele>224.7</ele>
        <time>2020-06-07T16:25:45Z</time>
      </trkpt>
      <trkpt lat="48.04481" lon="-3.76037">
        <ele>224.7</ele>
        <time>2020-06-07T16:25:46Z</time>
      </trkpt>
      <trkpt lat="48.0448" lon="-3.76037">
        <ele>224.8</ele>
        <time>2020-06-07T16:25:47Z</time>
      </trkpt>
      <trkpt lat="48.04479" lon="-3.76039">
        <ele>224.8</ele>
        <time>2020-06-07T16:25:48Z</time>
      </trkpt>
      <trkpt lat="48.04479" lon="-3.76039">
        <ele>224.8</ele>
        <time>2020-06-07T16:25:49Z</time>
      </trkpt>
      <trkpt lat="48.04479" lon="-3.76039">
        <ele>224.8</ele>
        <time>2020-06-07T16:25:50Z</time>
      </trkpt>
      <trkpt lat="48.04479" lon="-3.76039">
        <ele>224.8</ele>
        <time>2020-06-07T16:25:51Z</time>
      </trkpt>
      <trkpt lat="48.04479" lon="-3.76039">
        <ele>224.8</ele>
        <time>2020-06-07T16:25:52Z</time>
      </trkpt>
      <trkpt lat="48.04479" lon="-3.76038">
        <ele>224.8</ele>
        <time>2020-06-07T16:25:53Z</time>
      </trkpt>
      <trkpt lat="48.04478" lon="-3.76038">
        <ele>224.7</ele>
        <time>2020-06-07T16:25:54Z</time>
      </trkpt>
      <trkpt lat="48.04477" lon="-3.76038">
        <ele>224.7</ele>
        <time>2020-06-07T16:25:55Z</time>
      </trkpt>
      <trkpt lat="48.04477" lon="-3.76039">
        <ele>224.7</ele>
        <time>2020-06-07T16:25:56Z</time>
      </trkpt>
      <trkpt lat="48.04476" lon="-3.76039">
        <ele>224.7</ele>
        <time>2020-06-07T16:25:57Z</time>
      </trkpt>
      <trkpt lat="48.04477" lon="-3.76038">
        <ele>224.7</ele>
        <time>2020-06-07T16:25:58Z</time>
      </trkpt>
      <trkpt lat="48.04477" lon="-3.76038">
        <ele>224.7</ele>
        <time>2020-06-07T16:25:59Z</time>
      </trkpt>
      <trkpt lat="48.04476" lon="-3.76039">
        <ele>224.7</ele>
        <time>2020-06-07T16:26:00Z</time>
      </trkpt>
      <trkpt lat="48.04476" lon="-3.76039">
        <ele>224.7</ele>
        <time>2020-06-07T16:26:01Z</time>
      </trkpt>
      <trkpt lat="48.04476" lon="-3.76039">
        <ele>224.7</ele>
        <time>2020-06-07T16:26:02Z</time>
      </trkpt>
      <trkpt lat="48.04475" lon="-3.7604">
        <ele>224.7</ele>
        <time>2020-06-07T16:26:03Z</time>
      </trkpt>
      <trkpt lat="48.04474" lon="-3.76039">
        <ele>224.7</ele>
        <time>2020-06-07T16:26:04Z</time>
      </trkpt>
      <trkpt lat="48.04474" lon="-3.76039">
        <ele>224.7</ele>
        <time>2020-06-07T16:26:05Z</time>
      </trkpt>
      <trkpt lat="48.04475" lon="-3.76038">
        <ele>224.7</ele>
        <time>2020-06-07T16:26:06Z</time>
      </trkpt>
      <trkpt lat="48.04475" lon="-3.76037">
        <ele>224.7</ele>
        <time>2020-06-07T16:26:07Z</time>
      </trkpt>
      <trkpt lat="48.04475" lon="-3.76037">
        <ele>224.6</ele>
        <time>2020-06-07T16:26:08Z</time>
      </trkpt>
      <trkpt lat="48.04476" lon="-3.76036">
        <ele>224.6</ele>
        <time>2020-06-07T16:26:09Z</time>
      </trkpt>
      <trkpt lat="48.04476" lon="-3.76035">
        <ele>224.6</ele>
        <time>2020-06-07T16:28:29Z</time>
      </trkpt>
      <trkpt lat="48.04476" lon="-3.76034">
        <ele>224.6</ele>
        <time>2020-06-07T16:28:30Z</time>
      </trkpt>
      <trkpt lat="48.04477" lon="-3.76034">
        <ele>224.6</ele>
        <time>2020-06-07T16:28:31Z</time>
      </trkpt>
      <trkpt lat="48.04477" lon="-3.76033">
        <ele>224.6</ele>
        <time>2020-06-07T16:28:32Z</time>
      </trkpt>
      <trkpt lat="48.04477" lon="-3.76032">
        <ele>224.5</ele>
        <time>2020-06-07T16:28:33Z</time>
      </trkpt>
      <trkpt lat="48.04478" lon="-3.76032">
        <ele>224.5</ele>
        <time>2020-06-07T16:28:34Z</time>
      </trkpt>
      <trkpt lat="48.04478" lon="-3.76031">
        <ele>224.5</ele>
        <time>2020-06-07T16:28:35Z</time>
      </trkpt>
      <trkpt lat="48.04478" lon="-3.7603">
        <ele>224.5</ele>
        <time>2020-06-07T16:28:36Z</time>
      </trkpt>
      <trkpt lat="48.04479" lon="-3.76029">
        <ele>224.5</ele>
        <time>2020-06-07T16:28:37Z</time>
      </trkpt>
      <trkpt lat="48.04479" lon="-3.76029">
        <ele>224.5</ele>
        <time>2020-06-07T16:28:38Z</time>
      </trkpt>
      <trkpt lat="48.04479" lon="-3.76028">
        <ele>224.4</ele>
        <time>2020-06-07T16:28:39Z</time>
      </trkpt>
      <trkpt lat="48.0448" lon="-3.76027">
        <ele>224.4</ele>
        <time>2020-06-07T16:28:40Z</time>
      </trkpt>
      <trkpt lat="48.0448" lon="-3.76026">
        <ele>224.4</ele>
        <time>2020-06-07T16:28:41Z</time>
      </trkpt>
      <trkpt lat="48.0448" lon="-3.76026">
        <ele>224.4</ele>
        <time>2020-06-07T16:28:42Z</time>
      </trkpt>
      <trkpt lat="48.04481" lon="-3.76025">
        <ele>224.4</ele>
        <time>2020-06-07T16:47:19Z</time>
      </trkpt>
      <trkpt lat="48.04481" lon="-3.76024">
        <ele>224.4</ele>
        <time>2020-06-07T16:47:20Z</time>
      </trkpt>
      <trkpt lat="48.04481" lon="-3.76024">
        <ele>224.3</ele>
        <time>2020-06-07T16:47:21Z</time>
      </trkpt>
      <trkpt lat="48.04481" lon="-3.76023">
        <ele>224.3</ele>
        <time>2020-06-07T16:47:22Z</time>
      </trkpt>
      <trkpt lat="48.04482" lon="-3.76022">
        <ele>224.3</ele>
        <time>2020-06-07T16:47:23Z</time>
      </trkpt>
      <trkpt lat="48.04482" lon="-3.76021">
        <ele>224.3</ele>
        <time>2020-06-07T16:47:24Z</time>
      </trkpt>
      <trkpt lat="48.04482" lon="-3.76021">
        <ele>224.3</ele>
        <time>2020-06-07T16:47:25Z</time>
      </trkpt>
      <trkpt lat="48.04483" lon="-3.7602">
        <ele>224.2</ele>
        <time>2020-06-07T16:47:26Z</time>
      </trkpt>
      <trkpt lat="48.04483" lon="-3.76019">
        <ele>224.2</ele>
        <time>2020-06-07T16:47:27Z</time>
      </trkpt>
      <trkpt lat="48.04483" lon="-3.76019">
        <ele>224.2</ele>
        <time>2020-06-07T16:47:28Z</time>
      </trkpt>
      <trkpt lat="48.04484" lon="-3.76018">
        <ele>224.2</ele>
        <time>2020-06-07T16:47:29Z</time>
      </trkpt>
      <trkpt lat="48.04484" lon="-3.76018">
        <ele>224.2</ele>
        <time>2020-06-07T16:47:30Z</time>
      </trkpt>
      <trkpt lat="48.04484" lon="-3.76017">
        <ele>224.2</ele>
        <time>2020-06-07T16:47:31Z</time>
      </trkpt>
      <trkpt lat="48.04484" lon="-3.76016">
        <ele>224.2</ele>
        <time>2020-06-07T16:47:32Z</time>
      </trkpt>
      <trkpt lat="48.04488" lon="-3.76014">
        <ele>224.2</ele>
        <time>2020-06-07T16:48:04Z</time>
      </trkpt>
      <trkpt lat="48.04488" lon="-3.76013">
        <ele>224.2</ele>
        <time>2020-06-07T16:48:05Z</time>
      </trkpt>
      <trkpt lat="48.04489" lon="-3.76013">
        <ele>224.2</ele>
        <time>2020-06-07T16:48:06Z</time>
      </trkpt>
      <trkpt lat="48.04489" lon="-3.76013">
        <ele>224.2</ele>
        <time>2020-06-07T16:48:07Z</time>
      </trkpt>
      <trkpt lat="48.04489" lon="-3.76013">
        <ele>224.2</ele>
        <time>2020-06-07T16:48:08Z</time>
      </trkpt>
      <trkpt lat="48.04489" lon="-3.76013">
        <ele>224.2</ele>
        <time>2020-06-07T16:48:09Z</time>
      </trkpt>
      <trkpt lat="48.0449" lon="-3.76013">
        <ele>224.2</ele>
        <time>2020-06-07T16:48:10Z</time>
      </trkpt>
      <trkpt lat="48.0449" lon="-3.76013">
        <ele>224.2</ele>
        <time>2020-06-07T16:48:11Z</time>
      </trkpt>
      <trkpt lat="48.04491" lon="-3.76014">
        <ele>224.2</ele>
        <time>2020-06-07T16:48:12Z</time>
      </trkpt>
      <trkpt lat="48.04491" lon="-3.76013">
        <ele>224.2</ele>
        <time>2020-06-07T16:48:13Z</time>
      </trkpt>
      <trkpt lat="48.04492" lon="-3.76014">
        <ele>224.2</ele>
        <time>2020-06-07T16:48:14Z</time>
      </trkpt>
      <trkpt lat="48.04492" lon="-3.76013">
        <ele>224.2</ele>
        <time>2020-06-07T16:48:15Z</time>
      </trkpt>
      <trkpt lat="48.04492" lon="-3.76013">
        <ele>224.3</ele>
        <time>2020-06-07T16:48:16Z</time>
      </trkpt>
      <trkpt lat="48.04493" lon="-3.76013">
        <ele>224.3</ele>
        <time>2020-06-07T16:48:17Z</time>
      </trkpt>
      <trkpt lat="48.04493" lon="-3.76013">
        <ele>224.3</ele>
        <time>2020-06-07T16:48:18Z</time>
      </trkpt>
      <trkpt lat="48.04493" lon="-3.76013">
        <ele>224.3</ele>
        <time>2020-06-07T16:48:19Z</time>
      </trkpt>
      <trkpt lat="48.04493" lon="-3.76013">
        <ele>224.3</ele>
        <time>2020-06-07T16:48:20Z</time>
      </trkpt>
      <trkpt lat="48.04493" lon="-3.76013">
        <ele>224.3</ele>
        <time>2020-06-07T16:48:21Z</time>
      </trkpt>
      <trkpt lat="48.04493" lon="-3.76013">
        <ele>224.3</ele>
        <time>2020-06-07T16:48:22Z</time>
      </trkpt>
      <trkpt lat="48.04493" lon="-3.76013">
        <ele>224.3</ele>
        <time>2020-06-07T16:48:23Z</time>
      </trkpt>
      <trkpt lat="48.04295" lon="-3.76115">
        <ele>216.2</ele>
        <time>2020-06-07T16:49:38Z</time>
      </trkpt>
      <trkpt lat="48.04308" lon="-3.76113">
        <ele>217.7</ele>
        <time>2020-06-07T16:49:39Z</time>
      </trkpt>
      <trkpt lat="48.04308" lon="-3.76113">
        <ele>217.7</ele>
        <time>2020-06-07T16:49:40Z</time>
      </trkpt>
      <trkpt lat="48.04308" lon="-3.76113">
        <ele>217.7</ele>
        <time>2020-06-07T16:49:41Z</time>
      </trkpt>
      <trkpt lat="48.04308" lon="-3.76113">
        <ele>217.7</ele>
        <time>2020-06-07T16:49:42Z</time>
      </trkpt>
      <trkpt lat="48.04308" lon="-3.76113">
        <ele>217.7</ele>
        <time>2020-06-07T16:49:43Z</time>
      </trkpt>
      <trkpt lat="48.04308" lon="-3.76113">
        <ele>217.7</ele>
        <time>2020-06-07T16:49:44Z</time>
      </trkpt>
      <trkpt lat="48.04308" lon="-3.76113">
        <ele>217.7</ele>
        <time>2020-06-07T16:49:45Z</time>
      </trkpt>
      <trkpt lat="48.04308" lon="-3.76113">
        <ele>217.7</ele>
        <time>2020-06-07T16:49:46Z</time>
      </trkpt>
      <trkpt lat="48.04308" lon="-3.76113">
        <ele>217.7</ele>
        <time>2020-06-07T16:49:47Z</time>
      </trkpt>
      <trkpt lat="48.04308" lon="-3.76113">
        <ele>217.7</ele>
        <time>2020-06-07T16:49:48Z</time>
      </trkpt>
      <trkpt lat="48.04308" lon="-3.76113">
        <ele>217.7</ele>
        <time>2020-06-07T16:49:49Z</time>
      </trkpt>
      <trkpt lat="48.04308" lon="-3.76113">
        <ele>217.7</ele>
        <time>2020-06-07T16:49:50Z</time>
      </trkpt>
      <trkpt lat="48.04349" lon="-3.75999">
        <ele>223.8</ele>
        <time>2020-06-07T16:50:28Z</time>
      </trkpt>
      <trkpt lat="48.04351" lon="-3.75995">
        <ele>223.6</ele>
        <time>2020-06-07T16:50:29Z</time>
      </trkpt>
      <trkpt lat="48.04353" lon="-3.75992">
        <ele>223.3</ele>
        <time>2020-06-07T16:50:30Z</time>
      </trkpt>
      <trkpt lat="48.04354" lon="-3.75989">
        <ele>223.1</ele>
        <time>2020-06-07T16:50:31Z</time>
      </trkpt>
      <trkpt lat="48.04354" lon="-3.75988">
        <ele>223.1</ele>
        <time>2020-06-07T16:50:32Z</time>
      </trkpt>
      <trkpt lat="48.04354" lon="-3.75988">
        <ele>223.1</ele>
        <time>2020-06-07T16:50:33Z</time>
      </trkpt>
      <trkpt lat="48.04355" lon="-3.75987">
        <ele>223</ele>
        <time>2020-06-07T16:50:34Z</time>
      </trkpt>
      <trkpt lat="48.04355" lon="-3.75987">
        <ele>223</ele>
        <time>2020-06-07T16:50:35Z</time>
      </trkpt>
      <trkpt lat="48.04355" lon="-3.75987">
        <ele>223</ele>
        <time>2020-06-07T16:50:36Z</time>
      </trkpt>
      <trkpt lat="48.04435" lon="-3.76059">
        <ele>224.4</ele>
        <time>2020-06-07T16:54:28Z</time>
      </trkpt>
      <trkpt lat="48.04435" lon="-3.76061">
        <ele>224.4</ele>
        <time>2020-06-07T16:54:29Z</time>
      </trkpt>
      <trkpt lat="48.04436" lon="-3.76058">
        <ele>224.4</ele>
        <time>2020-06-07T16:54:30Z</time>
      </trkpt>
      <trkpt lat="48.04432" lon="-3.7605">
        <ele>224.2</ele>
        <time>2020-06-07T16:54:31Z</time>
      </trkpt>
      <trkpt lat="48.0443" lon="-3.76047">
        <ele>224.2</ele>
        <time>2020-06-07T16:54:32Z</time>
      </trkpt>
      <trkpt lat="48.04429" lon="-3.76044">
        <ele>224.1</ele>
        <time>2020-06-07T16:54:33Z</time>
      </trkpt>
      <trkpt lat="48.04428" lon="-3.76041">
        <ele>224</ele>
        <time>2020-06-07T16:54:34Z</time>
      </trkpt>
      <trkpt lat="48.04426" lon="-3.76038">
        <ele>224</ele>
        <time>2020-06-07T16:54:35Z</time>
      </trkpt>
      <trkpt lat="48.04432" lon="-3.76036">
        <ele>223.9</ele>
        <time>2020-06-07T16:54:36Z</time>
      </trkpt>
      <trkpt lat="48.04435" lon="-3.76036">
        <ele>224</ele>
        <time>2020-06-07T16:54:37Z</time>
      </trkpt>
      <trkpt lat="48.04437" lon="-3.76037">
        <ele>224.1</ele>
        <time>2020-06-07T16:54:38Z</time>
      </trkpt>
      <trkpt lat="48.0444" lon="-3.76038">
        <ele>224.2</ele>
        <time>2020-06-07T16:54:39Z</time>
      </trkpt>
      <trkpt lat="48.04443" lon="-3.76042">
        <ele>224.3</ele>
        <time>2020-06-07T16:54:40Z</time>
      </trkpt>
      <trkpt lat="48.04446" lon="-3.76041">
        <ele>224.2</ele>
        <time>2020-06-07T16:54:41Z</time>
      </trkpt>
      <trkpt lat="48.04447" lon="-3.76041">
        <ele>224.3</ele>
        <time>2020-06-07T16:54:42Z</time>
      </trkpt>
      <trkpt lat="48.04447" lon="-3.76041">
        <ele>224.3</ele>
        <time>2020-06-07T16:54:43Z</time>
      </trkpt>
      <trkpt lat="48.04446" lon="-3.76041">
        <ele>224.3</ele>
        <time>2020-06-07T16:54:44Z</time>
      </trkpt>
      <trkpt lat="48.04446" lon="-3.7604">
        <ele>224.2</ele>
        <time>2020-06-07T16:54:45Z</time>
      </trkpt>
      <trkpt lat="48.04446" lon="-3.76039">
        <ele>224.2</ele>
        <time>2020-06-07T16:54:46Z</time>
      </trkpt>
      <trkpt lat="48.04446" lon="-3.7604">
        <ele>224.2</ele>
        <time>2020-06-07T16:54:47Z</time>
      </trkpt>
      <trkpt lat="48.04448" lon="-3.7604">
        <ele>224.3</ele>
        <time>2020-06-07T16:54:48Z</time>
      </trkpt>
      <trkpt lat="48.04447" lon="-3.76039">
        <ele>224.3</ele>
        <time>2020-06-07T16:54:49Z</time>
      </trkpt>
      <trkpt lat="48.04448" lon="-3.76038">
        <ele>224.3</ele>
        <time>2020-06-07T16:54:50Z</time>
      </trkpt>
      <trkpt lat="48.04448" lon="-3.76038">
        <ele>224.3</ele>
        <time>2020-06-07T16:54:51Z</time>
      </trkpt>
      <trkpt lat="48.04448" lon="-3.76037">
        <ele>224.3</ele>
        <time>2020-06-07T16:54:52Z</time>
      </trkpt>
      <trkpt lat="48.04448" lon="-3.76037">
        <ele>224.2</ele>
        <time>2020-06-07T16:54:53Z</time>
      </trkpt>
      <trkpt lat="48.04448" lon="-3.76036">
        <ele>224.2</ele>
        <time>2020-06-07T16:54:54Z</time>
      </trkpt>
      <trkpt lat="48.04448" lon="-3.76035">
        <ele>224.2</ele>
        <time>2020-06-07T16:54:55Z</time>
      </trkpt>
      <trkpt lat="48.04448" lon="-3.76035">
        <ele>224.2</ele>
        <time>2020-06-07T16:54:56Z</time>
      </trkpt>
      <trkpt lat="48.04448" lon="-3.76033">
        <ele>224.2</ele>
        <time>2020-06-07T16:54:57Z</time>
      </trkpt>
      <trkpt lat="48.04448" lon="-3.76033">
        <ele>224.1</ele>
        <time>2020-06-07T16:54:58Z</time>
      </trkpt>
      <trkpt lat="48.04448" lon="-3.76032">
        <ele>224.1</ele>
        <time>2020-06-07T16:54:59Z</time>
      </trkpt>
      <trkpt lat="48.04448" lon="-3.7603">
        <ele>224.1</ele>
        <time>2020-06-07T16:55:00Z</time>
      </trkpt>
      <trkpt lat="48.0445" lon="-3.7603">
        <ele>224.1</ele>
        <time>2020-06-07T16:55:01Z</time>
      </trkpt>
      <trkpt lat="48.04452" lon="-3.76029">
        <ele>224</ele>
        <time>2020-06-07T16:55:02Z</time>
      </trkpt>
      <trkpt lat="48.04452" lon="-3.76028">
        <ele>224</ele>
        <time>2020-06-07T16:55:03Z</time>
      </trkpt>
      <trkpt lat="48.04452" lon="-3.76027">
        <ele>224</ele>
        <time>2020-06-07T16:55:04Z</time>
      </trkpt>
      <trkpt lat="48.04453" lon="-3.76026">
        <ele>224</ele>
        <time>2020-06-07T16:55:05Z</time>
      </trkpt>
      <trkpt lat="48.04453" lon="-3.76025">
        <ele>224</ele>
        <time>2020-06-07T16:55:06Z</time>
      </trkpt>
      <trkpt lat="48.04454" lon="-3.76024">
        <ele>223.9</ele>
        <time>2020-06-07T16:55:07Z</time>
      </trkpt>
      <trkpt lat="48.04455" lon="-3.76023">
        <ele>223.9</ele>
        <time>2020-06-07T16:55:08Z</time>
      </trkpt>
      <trkpt lat="48.04455" lon="-3.76021">
        <ele>223.9</ele>
        <time>2020-06-07T16:55:09Z</time>
      </trkpt>
      <trkpt lat="48.04456" lon="-3.7602">
        <ele>223.9</ele>
        <time>2020-06-07T16:55:10Z</time>
      </trkpt>
      <trkpt lat="48.04457" lon="-3.76019">
        <ele>223.8</ele>
        <time>2020-06-07T16:55:11Z</time>
      </trkpt>
      <trkpt lat="48.04457" lon="-3.76018">
        <ele>223.8</ele>
        <time>2020-06-07T16:55:12Z</time>
      </trkpt>
      <trkpt lat="48.04458" lon="-3.76017">
        <ele>223.8</ele>
        <time>2020-06-07T16:55:13Z</time>
      </trkpt>
      <trkpt lat="48.04458" lon="-3.76016">
        <ele>223.8</ele>
        <time>2020-06-07T16:55:14Z</time>
      </trkpt>
      <trkpt lat="48.04459" lon="-3.76015">
        <ele>223.7</ele>
        <time>2020-06-07T16:55:15Z</time>
      </trkpt>
      <trkpt lat="48.0446" lon="-3.76014">
        <ele>223.7</ele>
        <time>2020-06-07T16:55:16Z</time>
      </trkpt>
      <trkpt lat="48.0446" lon="-3.76013">
        <ele>223.7</ele>
        <time>2020-06-07T17:12:57Z</time>
      </trkpt>
      <trkpt lat="48.04461" lon="-3.76012">
        <ele>223.7</ele>
        <time>2020-06-07T17:12:58Z</time>
      </trkpt>
      <trkpt lat="48.04462" lon="-3.76011">
        <ele>223.5</ele>
        <time>2020-06-07T17:12:59Z</time>
      </trkpt>
      <trkpt lat="48.04462" lon="-3.7601">
        <ele>223.5</ele>
        <time>2020-06-07T17:13:00Z</time>
      </trkpt>
      <trkpt lat="48.04463" lon="-3.76009">
        <ele>223.5</ele>
        <time>2020-06-07T17:13:01Z</time>
      </trkpt>
      <trkpt lat="48.04462" lon="-3.76006">
        <ele>223.4</ele>
        <time>2020-06-07T17:13:02Z</time>
      </trkpt>
      <trkpt lat="48.04461" lon="-3.76005">
        <ele>223.4</ele>
        <time>2020-06-07T17:13:03Z</time>
      </trkpt>
      <trkpt lat="48.0446" lon="-3.76004">
        <ele>223.3</ele>
        <time>2020-06-07T17:13:04Z</time>
      </trkpt>
      <trkpt lat="48.04459" lon="-3.76002">
        <ele>223.2</ele>
        <time>2020-06-07T17:13:05Z</time>
      </trkpt>
      <trkpt lat="48.04458" lon="-3.76">
        <ele>223.2</ele>
        <time>2020-06-07T17:13:06Z</time>
      </trkpt>
      <trkpt lat="48.04458" lon="-3.75999">
        <ele>223.2</ele>
        <time>2020-06-07T17:13:07Z</time>
      </trkpt>
      <trkpt lat="48.04458" lon="-3.75998">
        <ele>223</ele>
        <time>2020-06-07T17:13:08Z</time>
      </trkpt>
      <trkpt lat="48.04458" lon="-3.75997">
        <ele>223</ele>
        <time>2020-06-07T17:13:09Z</time>
      </trkpt>
      <trkpt lat="48.04457" lon="-3.75997">
        <ele>223</ele>
        <time>2020-06-07T17:13:10Z</time>
      </trkpt>
      <trkpt lat="48.04457" lon="-3.75996">
        <ele>223</ele>
        <time>2020-06-07T17:13:11Z</time>
      </trkpt>
      <trkpt lat="48.04457" lon="-3.75995">
        <ele>223</ele>
        <time>2020-06-07T17:13:12Z</time>
      </trkpt>
      <trkpt lat="48.04457" lon="-3.75994">
        <ele>223</ele>
        <time>2020-06-07T17:13:13Z</time>
      </trkpt>
      <trkpt lat="48.04457" lon="-3.75994">
        <ele>222.8</ele>
        <time>2020-06-07T17:13:14Z</time>
      </trkpt>
      <trkpt lat="48.04457" lon="-3.75994">
        <ele>222.8</ele>
        <time>2020-06-07T17:13:15Z</time>
      </trkpt>
      <trkpt lat="48.04457" lon="-3.75994">
        <ele>222.8</ele>
        <time>2020-06-07T17:13:16Z</time>
      </trkpt>
      <trkpt lat="48.04456" lon="-3.75993">
        <ele>222.8</ele>
        <time>2020-06-07T17:13:17Z</time>
      </trkpt>
      <trkpt lat="48.04455" lon="-3.75992">
        <ele>222.8</ele>
        <time>2020-06-07T17:13:18Z</time>
      </trkpt>
      <trkpt lat="48.04455" lon="-3.75991">
        <ele>222.8</ele>
        <time>2020-06-07T17:13:19Z</time>
      </trkpt>
      <trkpt lat="48.04455" lon="-3.75989">
        <ele>222.6</ele>
        <time>2020-06-07T17:13:20Z</time>
      </trkpt>
      <trkpt lat="48.04453" lon="-3.75987">
        <ele>222.6</ele>
        <time>2020-06-07T17:13:21Z</time>
      </trkpt>
      <trkpt lat="48.04453" lon="-3.75986">
        <ele>222.6</ele>
        <time>2020-06-07T17:13:22Z</time>
      </trkpt>
      <trkpt lat="48.04452" lon="-3.75984">
        <ele>222.4</ele>
        <time>2020-06-07T17:13:23Z</time>
      </trkpt>
      <trkpt lat="48.04452" lon="-3.75983">
        <ele>222.4</ele>
        <time>2020-06-07T17:13:24Z</time>
      </trkpt>
      <trkpt lat="48.04451" lon="-3.75982">
        <ele>222.4</ele>
        <time>2020-06-07T17:13:25Z</time>
      </trkpt>
      <trkpt lat="48.04449" lon="-3.75977">
        <ele>222.2</ele>
        <time>2020-06-07T17:13:26Z</time>
      </trkpt>
      <trkpt lat="48.04448" lon="-3.75975">
        <ele>221.9</ele>
        <time>2020-06-07T17:13:27Z</time>
      </trkpt>
      <trkpt lat="48.04447" lon="-3.75973">
        <ele>221.9</ele>
        <time>2020-06-07T17:13:28Z</time>
      </trkpt>
      <trkpt lat="48.04449" lon="-3.75976">
        <ele>221.9</ele>
        <time>2020-06-07T17:13:29Z</time>
      </trkpt>
      <trkpt lat="48.04449" lon="-3.75976">
        <ele>221.9</ele>
        <time>2020-06-07T17:13:30Z</time>
      </trkpt>
      <trkpt lat="48.04451" lon="-3.75979">
        <ele>222.2</ele>
        <time>2020-06-07T17:13:31Z</time>
      </trkpt>
      <trkpt lat="48.04451" lon="-3.75981">
        <ele>222.2</ele>
        <time>2020-06-07T17:13:32Z</time>
      </trkpt>
      <trkpt lat="48.04451" lon="-3.75982">
        <ele>222.4</ele>
        <time>2020-06-07T17:13:33Z</time>
      </trkpt>
      <trkpt lat="48.04451" lon="-3.75982">
        <ele>222.4</ele>
        <time>2020-06-07T17:13:34Z</time>
      </trkpt>
      <trkpt lat="48.04451" lon="-3.75982">
        <ele>222.4</ele>
        <time>2020-06-07T17:13:35Z</time>
      </trkpt>
      <trkpt lat="48.0445" lon="-3.75982">
        <ele>222.4</ele>
        <time>2020-06-07T17:13:36Z</time>
      </trkpt>
      <trkpt lat="48.0445" lon="-3.75982">
        <ele>222.4</ele>
        <time>2020-06-07T17:13:37Z</time>
      </trkpt>
      <trkpt lat="48.0445" lon="-3.75983">
        <ele>222.4</ele>
        <time>2020-06-07T17:13:38Z</time>
      </trkpt>
      <trkpt lat="48.04449" lon="-3.75983">
        <ele>222.4</ele>
        <time>2020-06-07T17:13:39Z</time>
      </trkpt>
      <trkpt lat="48.04449" lon="-3.75983">
        <ele>222.3</ele>
        <time>2020-06-07T17:13:40Z</time>
      </trkpt>
      <trkpt lat="48.04449" lon="-3.75983">
        <ele>222.3</ele>
        <time>2020-06-07T17:13:41Z</time>
      </trkpt>
      <trkpt lat="48.04448" lon="-3.75983">
        <ele>222.3</ele>
        <time>2020-06-07T17:13:42Z</time>
      </trkpt>
      <trkpt lat="48.04448" lon="-3.75983">
        <ele>222.3</ele>
        <time>2020-06-07T17:13:43Z</time>
      </trkpt>
      <trkpt lat="48.04448" lon="-3.75984">
        <ele>222.3</ele>
        <time>2020-06-07T17:13:44Z</time>
      </trkpt>
      <trkpt lat="48.04447" lon="-3.75984">
        <ele>222.3</ele>
        <time>2020-06-07T17:13:45Z</time>
      </trkpt>
      <trkpt lat="48.04447" lon="-3.75984">
        <ele>222.3</ele>
        <time>2020-06-07T17:13:46Z</time>
      </trkpt>
      <trkpt lat="48.04447" lon="-3.75984">
        <ele>222.3</ele>
        <time>2020-06-07T17:13:47Z</time>
      </trkpt>
      <trkpt lat="48.04447" lon="-3.75984">
        <ele>222.3</ele>
        <time>2020-06-07T17:13:48Z</time>
      </trkpt>
      <trkpt lat="48.04446" lon="-3.75984">
        <ele>222.3</ele>
        <time>2020-06-07T17:13:49Z</time>
      </trkpt>
      <trkpt lat="48.04446" lon="-3.75985">
        <ele>222.3</ele>
        <time>2020-06-07T17:13:50Z</time>
      </trkpt>
      <trkpt lat="48.04446" lon="-3.75985">
        <ele>222.3</ele>
        <time>2020-06-07T17:13:51Z</time>
      </trkpt>
      <trkpt lat="48.04445" lon="-3.75985">
        <ele>222.3</ele>
        <time>2020-06-07T17:13:52Z</time>
      </trkpt>
      <trkpt lat="48.04445" lon="-3.75985">
        <ele>222.3</ele>
        <time>2020-06-07T17:13:53Z</time>
      </trkpt>
      <trkpt lat="48.04445" lon="-3.75985">
        <ele>222.3</ele>
        <time>2020-06-07T17:13:54Z</time>
      </trkpt>
      <trkpt lat="48.04444" lon="-3.75985">
        <ele>222.3</ele>
        <time>2020-06-07T17:13:55Z</time>
      </trkpt>
      <trkpt lat="48.04444" lon="-3.75986">
        <ele>222.3</ele>
        <time>2020-06-07T17:13:56Z</time>
      </trkpt>
      <trkpt lat="48.04444" lon="-3.75986">
        <ele>222.4</ele>
        <time>2020-06-07T17:14:03Z</time>
      </trkpt>
      <trkpt lat="48.04443" lon="-3.75986">
        <ele>222.4</ele>
        <time>2020-06-07T17:14:04Z</time>
      </trkpt>
      <trkpt lat="48.04443" lon="-3.75986">
        <ele>222.4</ele>
        <time>2020-06-07T17:14:05Z</time>
      </trkpt>
      <trkpt lat="48.04443" lon="-3.75986">
        <ele>222.3</ele>
        <time>2020-06-07T17:14:06Z</time>
      </trkpt>
      <trkpt lat="48.04442" lon="-3.75987">
        <ele>222.3</ele>
        <time>2020-06-07T17:14:07Z</time>
      </trkpt>
      <trkpt lat="48.04442" lon="-3.75987">
        <ele>222.3</ele>
        <time>2020-06-07T17:14:08Z</time>
      </trkpt>
      <trkpt lat="48.04442" lon="-3.75987">
        <ele>222.3</ele>
        <time>2020-06-07T17:14:09Z</time>
      </trkpt>
      <trkpt lat="48.04441" lon="-3.75987">
        <ele>222.3</ele>
        <time>2020-06-07T17:14:10Z</time>
      </trkpt>
      <trkpt lat="48.04441" lon="-3.75987">
        <ele>222.3</ele>
        <time>2020-06-07T17:14:11Z</time>
      </trkpt>
      <trkpt lat="48.04442" lon="-3.75988">
        <ele>222.3</ele>
        <time>2020-06-07T17:14:12Z</time>
      </trkpt>
      <trkpt lat="48.04444" lon="-3.7599">
        <ele>222.4</ele>
        <time>2020-06-07T17:14:13Z</time>
      </trkpt>
      <trkpt lat="48.04446" lon="-3.75991">
        <ele>222.5</ele>
        <time>2020-06-07T17:14:14Z</time>
      </trkpt>
      <trkpt lat="48.04448" lon="-3.75993">
        <ele>222.6</ele>
        <time>2020-06-07T17:14:15Z</time>
      </trkpt>
      <trkpt lat="48.0445" lon="-3.75994">
        <ele>222.6</ele>
        <time>2020-06-07T17:14:16Z</time>
      </trkpt>
      <trkpt lat="48.04452" lon="-3.75995">
        <ele>222.8</ele>
        <time>2020-06-07T17:14:17Z</time>
      </trkpt>
      <trkpt lat="48.04454" lon="-3.75997">
        <ele>222.8</ele>
        <time>2020-06-07T17:14:18Z</time>
      </trkpt>
      <trkpt lat="48.04456" lon="-3.75998">
        <ele>222.9</ele>
        <time>2020-06-07T17:14:19Z</time>
      </trkpt>
      <trkpt lat="48.04458" lon="-3.76">
        <ele>223.1</ele>
        <time>2020-06-07T17:14:20Z</time>
      </trkpt>
      <trkpt lat="48.0446" lon="-3.76001">
        <ele>223.1</ele>
        <time>2020-06-07T17:14:21Z</time>
      </trkpt>
      <trkpt lat="48.04462" lon="-3.76003">
        <ele>223.1</ele>
        <time>2020-06-07T17:14:22Z</time>
      </trkpt>
      <trkpt lat="48.04464" lon="-3.76004">
        <ele>223.4</ele>
        <time>2020-06-07T17:21:10Z</time>
      </trkpt>
      <trkpt lat="48.04466" lon="-3.76005">
        <ele>223.4</ele>
        <time>2020-06-07T17:21:11Z</time>
      </trkpt>
      <trkpt lat="48.04468" lon="-3.76007">
        <ele>223.4</ele>
        <time>2020-06-07T17:21:12Z</time>
      </trkpt>
      <trkpt lat="48.0447" lon="-3.76008">
        <ele>223.6</ele>
        <time>2020-06-07T17:21:13Z</time>
      </trkpt>
      <trkpt lat="48.04472" lon="-3.7601">
        <ele>223.6</ele>
        <time>2020-06-07T17:21:14Z</time>
      </trkpt>
      <trkpt lat="48.04474" lon="-3.76011">
        <ele>223.7</ele>
        <time>2020-06-07T17:21:15Z</time>
      </trkpt>
      <trkpt lat="48.04476" lon="-3.76013">
        <ele>223.9</ele>
        <time>2020-06-07T17:21:16Z</time>
      </trkpt>
      <trkpt lat="48.04478" lon="-3.76014">
        <ele>223.9</ele>
        <time>2020-06-07T17:21:17Z</time>
      </trkpt>
      <trkpt lat="48.0448" lon="-3.76016">
        <ele>223.8</ele>
        <time>2020-06-07T17:21:18Z</time>
      </trkpt>
      <trkpt lat="48.04482" lon="-3.76017">
        <ele>224</ele>
        <time>2020-06-07T17:21:19Z</time>
      </trkpt>
      <trkpt lat="48.04484" lon="-3.76018">
        <ele>224</ele>
        <time>2020-06-07T17:21:20Z</time>
      </trkpt>
      <trkpt lat="48.04486" lon="-3.7602">
        <ele>224</ele>
        <time>2020-06-07T17:21:21Z</time>
      </trkpt>
      <trkpt lat="48.04488" lon="-3.76021">
        <ele>224.2</ele>
        <time>2020-06-07T17:21:22Z</time>
      </trkpt>
      <trkpt lat="48.0449" lon="-3.76023">
        <ele>224.3</ele>
        <time>2020-06-07T17:21:23Z</time>
      </trkpt>
      <trkpt lat="48.04492" lon="-3.76024">
        <ele>224.3</ele>
        <time>2020-06-07T17:21:24Z</time>
      </trkpt>
      <trkpt lat="48.04494" lon="-3.76026">
        <ele>224.4</ele>
        <time>2020-06-07T17:21:25Z</time>
      </trkpt>
      <trkpt lat="48.04491" lon="-3.76029">
        <ele>224.5</ele>
        <time>2020-06-07T17:21:26Z</time>
      </trkpt>
      <trkpt lat="48.04491" lon="-3.7603">
        <ele>224.5</ele>
        <time>2020-06-07T17:21:27Z</time>
      </trkpt>
      <trkpt lat="48.0449" lon="-3.76031">
        <ele>224.5</ele>
        <time>2020-06-07T17:21:28Z</time>
      </trkpt>
      <trkpt lat="48.0449" lon="-3.76031">
        <ele>224.5</ele>
        <time>2020-06-07T17:21:29Z</time>
      </trkpt>
      <trkpt lat="48.0449" lon="-3.76031">
        <ele>224.5</ele>
        <time>2020-06-07T17:21:30Z</time>
      </trkpt>
      <trkpt lat="48.04489" lon="-3.76032">
        <ele>224.5</ele>
        <time>2020-06-07T17:21:31Z</time>
      </trkpt>
      <trkpt lat="48.04488" lon="-3.76033">
        <ele>224.6</ele>
        <time>2020-06-07T17:21:32Z</time>
      </trkpt>
      <trkpt lat="48.04488" lon="-3.76031">
        <ele>224.5</ele>
        <time>2020-06-07T17:21:33Z</time>
      </trkpt>
      <trkpt lat="48.04488" lon="-3.76027">
        <ele>224.3</ele>
        <time>2020-06-07T17:22:43Z</time>
      </trkpt>
      <trkpt lat="48.04489" lon="-3.76024">
        <ele>224.2</ele>
        <time>2020-06-07T17:22:44Z</time>
      </trkpt>
      <trkpt lat="48.04489" lon="-3.76021">
        <ele>224.2</ele>
        <time>2020-06-07T17:22:45Z</time>
      </trkpt>
      <trkpt lat="48.0449" lon="-3.76017">
        <ele>224.1</ele>
        <time>2020-06-07T17:22:46Z</time>
      </trkpt>
      <trkpt lat="48.0449" lon="-3.76014">
        <ele>224</ele>
        <time>2020-06-07T17:22:47Z</time>
      </trkpt>
      <trkpt lat="48.04489" lon="-3.76015">
        <ele>224</ele>
        <time>2020-06-07T17:22:48Z</time>
      </trkpt>
      <trkpt lat="48.04488" lon="-3.76016">
        <ele>224.1</ele>
        <time>2020-06-07T17:22:49Z</time>
      </trkpt>
      <trkpt lat="48.04487" lon="-3.76017">
        <ele>224.1</ele>
        <time>2020-06-07T17:22:50Z</time>
      </trkpt>
      <trkpt lat="48.04486" lon="-3.76018">
        <ele>224</ele>
        <time>2020-06-07T17:22:51Z</time>
      </trkpt>
      <trkpt lat="48.04485" lon="-3.76018">
        <ele>223.9</ele>
        <time>2020-06-07T17:22:52Z</time>
      </trkpt>
      <trkpt lat="48.04483" lon="-3.76019">
        <ele>223.9</ele>
        <time>2020-06-07T17:22:53Z</time>
      </trkpt>
      <trkpt lat="48.04482" lon="-3.7602">
        <ele>224</ele>
        <time>2020-06-07T17:22:54Z</time>
      </trkpt>
      <trkpt lat="48.04481" lon="-3.76021">
        <ele>224</ele>
        <time>2020-06-07T17:22:55Z</time>
      </trkpt>
      <trkpt lat="48.0448" lon="-3.76022">
        <ele>224</ele>
        <time>2020-06-07T17:22:56Z</time>
      </trkpt>
      <trkpt lat="48.04479" lon="-3.76023">
        <ele>224</ele>
        <time>2020-06-07T17:22:57Z</time>
      </trkpt>
      <trkpt lat="48.04478" lon="-3.76024">
        <ele>223.9</ele>
        <time>2020-06-07T17:22:58Z</time>
      </trkpt>
      <trkpt lat="48.04477" lon="-3.76024">
        <ele>224.1</ele>
        <time>2020-06-07T17:24:20Z</time>
      </trkpt>
      <trkpt lat="48.04476" lon="-3.76025">
        <ele>224.1</ele>
        <time>2020-06-07T17:24:21Z</time>
      </trkpt>
      <trkpt lat="48.04475" lon="-3.76026">
        <ele>224</ele>
        <time>2020-06-07T17:24:22Z</time>
      </trkpt>
      <trkpt lat="48.04475" lon="-3.76022">
        <ele>223.9</ele>
        <time>2020-06-07T17:24:23Z</time>
      </trkpt>
      <trkpt lat="48.04475" lon="-3.76021">
        <ele>223.9</ele>
        <time>2020-06-07T17:24:24Z</time>
      </trkpt>
      <trkpt lat="48.04474" lon="-3.7602">
        <ele>223.8</ele>
        <time>2020-06-07T17:24:25Z</time>
      </trkpt>
      <trkpt lat="48.04474" lon="-3.76018">
        <ele>223.8</ele>
        <time>2020-06-07T17:24:26Z</time>
      </trkpt>
      <trkpt lat="48.04474" lon="-3.76017">
        <ele>223.8</ele>
        <time>2020-06-07T17:24:27Z</time>
      </trkpt>
      <trkpt lat="48.04473" lon="-3.76017">
        <ele>223.8</ele>
        <time>2020-06-07T17:24:28Z</time>
      </trkpt>
      <trkpt lat="48.04473" lon="-3.76017">
        <ele>223.8</ele>
        <time>2020-06-07T17:24:29Z</time>
      </trkpt>
      <trkpt lat="48.04473" lon="-3.76017">
        <ele>223.8</ele>
        <time>2020-06-07T17:24:30Z</time>
      </trkpt>
      <trkpt lat="48.04473" lon="-3.76018">
        <ele>223.8</ele>
        <time>2020-06-07T17:24:31Z</time>
      </trkpt>
      <trkpt lat="48.04473" lon="-3.76018">
        <ele>223.8</ele>
        <time>2020-06-07T17:24:32Z</time>
      </trkpt>
      <trkpt lat="48.04473" lon="-3.76018">
        <ele>223.8</ele>
        <time>2020-06-07T17:24:33Z</time>
      </trkpt>
      <trkpt lat="48.04473" lon="-3.76019">
        <ele>223.8</ele>
        <time>2020-06-07T17:24:34Z</time>
      </trkpt>
      <trkpt lat="48.04474" lon="-3.76019">
        <ele>223.8</ele>
        <time>2020-06-07T17:24:35Z</time>
      </trkpt>
      <trkpt lat="48.04473" lon="-3.7602">
        <ele>223.8</ele>
        <time>2020-06-07T17:24:36Z</time>
      </trkpt>
      <trkpt lat="48.04474" lon="-3.7602">
        <ele>223.9</ele>
        <time>2020-06-07T17:24:37Z</time>
      </trkpt>
      <trkpt lat="48.04474" lon="-3.7602">
        <ele>223.7</ele>
        <time>2020-06-07T17:24:38Z</time>
      </trkpt>
      <trkpt lat="48.04475" lon="-3.76018">
        <ele>223.7</ele>
        <time>2020-06-07T17:24:39Z</time>
      </trkpt>
      <trkpt lat="48.04475" lon="-3.76018">
        <ele>223.7</ele>
        <time>2020-06-07T17:24:40Z</time>
      </trkpt>
      <trkpt lat="48.04475" lon="-3.76018">
        <ele>223.7</ele>
        <time>2020-06-07T17:24:41Z</time>
      </trkpt>
      <trkpt lat="48.04474" lon="-3.76018">
        <ele>223.7</ele>
        <time>2020-06-07T17:24:42Z</time>
      </trkpt>
      <trkpt lat="48.04474" lon="-3.76018">
        <ele>223.7</ele>
        <time>2020-06-07T17:24:43Z</time>
      </trkpt>
      <trkpt lat="48.04475" lon="-3.76016">
        <ele>223.7</ele>
        <time>2020-06-07T17:24:44Z</time>
      </trkpt>
      <trkpt lat="48.04475" lon="-3.76016">
        <ele>223.7</ele>
        <time>2020-06-07T17:24:45Z</time>
      </trkpt>
      <trkpt lat="48.04475" lon="-3.76015">
        <ele>223.6</ele>
        <time>2020-06-07T17:24:46Z</time>
      </trkpt>
      <trkpt lat="48.04475" lon="-3.76016">
        <ele>223.6</ele>
        <time>2020-06-07T17:24:47Z</time>
      </trkpt>
      <trkpt lat="48.04475" lon="-3.76016">
        <ele>223.6</ele>
        <time>2020-06-07T17:24:48Z</time>
      </trkpt>
      <trkpt lat="48.04475" lon="-3.76016">
        <ele>223.7</ele>
        <time>2020-06-07T17:24:49Z</time>
      </trkpt>
      <trkpt lat="48.04475" lon="-3.76016">
        <ele>223.7</ele>
        <time>2020-06-07T17:24:50Z</time>
      </trkpt>
      <trkpt lat="48.04476" lon="-3.76015">
        <ele>223.6</ele>
        <time>2020-06-07T17:24:51Z</time>
      </trkpt>
      <trkpt lat="48.04476" lon="-3.76016">
        <ele>223.6</ele>
        <time>2020-06-07T17:24:52Z</time>
      </trkpt>
      <trkpt lat="48.04477" lon="-3.76016">
        <ele>223.6</ele>
        <time>2020-06-07T17:24:53Z</time>
      </trkpt>
      <trkpt lat="48.04478" lon="-3.76017">
        <ele>223.7</ele>
        <time>2020-06-07T17:24:54Z</time>
      </trkpt>
      <trkpt lat="48.04478" lon="-3.76017">
        <ele>223.7</ele>
        <time>2020-06-07T17:24:55Z</time>
      </trkpt>
      <trkpt lat="48.0448" lon="-3.76018">
        <ele>223.7</ele>
        <time>2020-06-07T17:24:56Z</time>
      </trkpt>
      <trkpt lat="48.04481" lon="-3.76018">
        <ele>223.7</ele>
        <time>2020-06-07T17:24:57Z</time>
      </trkpt>
      <trkpt lat="48.04482" lon="-3.76017">
        <ele>223.8</ele>
        <time>2020-06-07T17:24:58Z</time>
      </trkpt>
      <trkpt lat="48.04481" lon="-3.76018">
        <ele>223.8</ele>
        <time>2020-06-07T17:24:59Z</time>
      </trkpt>
      <trkpt lat="48.04482" lon="-3.76018">
        <ele>223.8</ele>
        <time>2020-06-07T17:25:00Z</time>
      </trkpt>
      <trkpt lat="48.04482" lon="-3.76018">
        <ele>223.8</ele>
        <time>2020-06-07T17:25:01Z</time>
      </trkpt>
      <trkpt lat="48.04482" lon="-3.76018">
        <ele>223.8</ele>
        <time>2020-06-07T17:25:02Z</time>
      </trkpt>
      <trkpt lat="48.04481" lon="-3.76018">
        <ele>223.8</ele>
        <time>2020-06-07T17:25:03Z</time>
      </trkpt>
      <trkpt lat="48.0448" lon="-3.76018">
        <ele>223.7</ele>
        <time>2020-06-07T17:25:04Z</time>
      </trkpt>
      <trkpt lat="48.04479" lon="-3.76019">
        <ele>223.7</ele>
        <time>2020-06-07T17:25:05Z</time>
      </trkpt>
      <trkpt lat="48.04478" lon="-3.76019">
        <ele>223.7</ele>
        <time>2020-06-07T17:25:06Z</time>
      </trkpt>
      <trkpt lat="48.04478" lon="-3.76019">
        <ele>223.7</ele>
        <time>2020-06-07T17:25:07Z</time>
      </trkpt>
      <trkpt lat="48.04478" lon="-3.76018">
        <ele>223.7</ele>
        <time>2020-06-07T17:25:08Z</time>
      </trkpt>
      <trkpt lat="48.04478" lon="-3.76018">
        <ele>223.7</ele>
        <time>2020-06-07T17:25:09Z</time>
      </trkpt>
      <trkpt lat="48.04477" lon="-3.76017">
        <ele>223.7</ele>
        <time>2020-06-07T17:25:10Z</time>
      </trkpt>
      <trkpt lat="48.04477" lon="-3.76017">
        <ele>223.7</ele>
        <time>2020-06-07T17:25:11Z</time>
      </trkpt>
      <trkpt lat="48.04477" lon="-3.76016">
        <ele>223.7</ele>
        <time>2020-06-07T17:25:12Z</time>
      </trkpt>
      <trkpt lat="48.04477" lon="-3.76015">
        <ele>223.6</ele>
        <time>2020-06-07T17:25:13Z</time>
      </trkpt>
      <trkpt lat="48.04476" lon="-3.76014">
        <ele>223.6</ele>
        <time>2020-06-07T17:25:14Z</time>
      </trkpt>
      <trkpt lat="48.04475" lon="-3.76014">
        <ele>223.6</ele>
        <time>2020-06-07T17:25:15Z</time>
      </trkpt>
      <trkpt lat="48.04474" lon="-3.76013">
        <ele>223.5</ele>
        <time>2020-06-07T17:25:16Z</time>
      </trkpt>
      <trkpt lat="48.04472" lon="-3.76013">
        <ele>223.5</ele>
        <time>2020-06-07T17:25:17Z</time>
      </trkpt>
      <trkpt lat="48.04471" lon="-3.76011">
        <ele>223.3</ele>
        <time>2020-06-07T17:25:18Z</time>
      </trkpt>
      <trkpt lat="48.0447" lon="-3.7601">
        <ele>223.3</ele>
        <time>2020-06-07T17:25:19Z</time>
      </trkpt>
      <trkpt lat="48.04468" lon="-3.76009">
        <ele>223.3</ele>
        <time>2020-06-07T17:25:20Z</time>
      </trkpt>
      <trkpt lat="48.04466" lon="-3.76008">
        <ele>223.2</ele>
        <time>2020-06-07T17:25:21Z</time>
      </trkpt>
      <trkpt lat="48.04465" lon="-3.76006">
        <ele>223.1</ele>
        <time>2020-06-07T17:25:22Z</time>
      </trkpt>
      <trkpt lat="48.04465" lon="-3.76004">
        <ele>223.1</ele>
        <time>2020-06-07T17:25:23Z</time>
      </trkpt>
      <trkpt lat="48.04463" lon="-3.76002">
        <ele>222.8</ele>
        <time>2020-06-07T17:25:24Z</time>
      </trkpt>
      <trkpt lat="48.0448" lon="-3.76029">
        <ele>224.1</ele>
        <time>2020-06-07T17:27:27Z</time>
      </trkpt>
      <trkpt lat="48.04478" lon="-3.7603">
        <ele>224.1</ele>
        <time>2020-06-07T17:27:28Z</time>
      </trkpt>
      <trkpt lat="48.04478" lon="-3.76032">
        <ele>224.1</ele>
        <time>2020-06-07T17:27:29Z</time>
      </trkpt>
      <trkpt lat="48.04478" lon="-3.76034">
        <ele>224.3</ele>
        <time>2020-06-07T17:27:30Z</time>
      </trkpt>
      <trkpt lat="48.04479" lon="-3.76036">
        <ele>224.3</ele>
        <time>2020-06-07T17:27:31Z</time>
      </trkpt>
      <trkpt lat="48.04476" lon="-3.76037">
        <ele>224.2</ele>
        <time>2020-06-07T17:27:32Z</time>
      </trkpt>
      <trkpt lat="48.04476" lon="-3.76037">
        <ele>224.2</ele>
        <time>2020-06-07T17:27:33Z</time>
      </trkpt>
      <trkpt lat="48.04475" lon="-3.76036">
        <ele>224.2</ele>
        <time>2020-06-07T17:27:34Z</time>
      </trkpt>
      <trkpt lat="48.04476" lon="-3.76036">
        <ele>224.2</ele>
        <time>2020-06-07T17:27:35Z</time>
      </trkpt>
      <trkpt lat="48.04476" lon="-3.76038">
        <ele>224.3</ele>
        <time>2020-06-07T17:27:36Z</time>
      </trkpt>
      <trkpt lat="48.04476" lon="-3.76037">
        <ele>224.3</ele>
        <time>2020-06-07T17:27:37Z</time>
      </trkpt>
      <trkpt lat="48.04476" lon="-3.76038">
        <ele>224.3</ele>
        <time>2020-06-07T17:27:38Z</time>
      </trkpt>
      <trkpt lat="48.04476" lon="-3.76037">
        <ele>224.3</ele>
        <time>2020-06-07T17:27:39Z</time>
      </trkpt>
      <trkpt lat="48.04475" lon="-3.76037">
        <ele>224.3</ele>
        <time>2020-06-07T17:27:40Z</time>
      </trkpt>
      <trkpt lat="48.04473" lon="-3.76038">
        <ele>224.3</ele>
        <time>2020-06-07T17:27:41Z</time>
      </trkpt>
      <trkpt lat="48.04473" lon="-3.76038">
        <ele>224.3</ele>
        <time>2020-06-07T17:27:42Z</time>
      </trkpt>
      <trkpt lat="48.04475" lon="-3.76037">
        <ele>224.2</ele>
        <time>2020-06-07T17:27:43Z</time>
      </trkpt>
      <trkpt lat="48.04475" lon="-3.76037">
        <ele>224.3</ele>
        <time>2020-06-07T17:27:44Z</time>
      </trkpt>
      <trkpt lat="48.04474" lon="-3.76038">
        <ele>224.3</ele>
        <time>2020-06-07T17:27:45Z</time>
      </trkpt>
      <trkpt lat="48.04474" lon="-3.76039">
        <ele>224.3</ele>
        <time>2020-06-07T17:27:46Z</time>
      </trkpt>
      <trkpt lat="48.04473" lon="-3.7604">
        <ele>224.3</ele>
        <time>2020-06-07T17:27:47Z</time>
      </trkpt>
      <trkpt lat="48.04473" lon="-3.7604">
        <ele>224.3</ele>
        <time>2020-06-07T17:27:48Z</time>
      </trkpt>
      <trkpt lat="48.04474" lon="-3.76041">
        <ele>224.3</ele>
        <time>2020-06-07T17:27:49Z</time>
      </trkpt>
      <trkpt lat="48.04472" lon="-3.76042">
        <ele>224.3</ele>
        <time>2020-06-07T17:27:50Z</time>
      </trkpt>
      <trkpt lat="48.04472" lon="-3.76042">
        <ele>224.3</ele>
        <time>2020-06-07T17:27:51Z</time>
      </trkpt>
      <trkpt lat="48.04472" lon="-3.76042">
        <ele>224.4</ele>
        <time>2020-06-07T17:27:52Z</time>
      </trkpt>
      <trkpt lat="48.04473" lon="-3.76041">
        <ele>224.3</ele>
        <time>2020-06-07T17:27:53Z</time>
      </trkpt>
      <trkpt lat="48.04474" lon="-3.76039">
        <ele>224.3</ele>
        <time>2020-06-07T17:27:54Z</time>
      </trkpt>
      <trkpt lat="48.04475" lon="-3.7604">
        <ele>224.3</ele>
        <time>2020-06-07T17:27:55Z</time>
      </trkpt>
      <trkpt lat="48.04475" lon="-3.76039">
        <ele>224.3</ele>
        <time>2020-06-07T17:27:56Z</time>
      </trkpt>
      <trkpt lat="48.04474" lon="-3.76037">
        <ele>224.3</ele>
        <time>2020-06-07T17:27:57Z</time>
      </trkpt>
      <trkpt lat="48.04476" lon="-3.76038">
        <ele>224.3</ele>
        <time>2020-06-07T17:27:58Z</time>
      </trkpt>
      <trkpt lat="48.04476" lon="-3.76038">
        <ele>224.3</ele>
        <time>2020-06-07T17:27:59Z</time>
      </trkpt>
      <trkpt lat="48.04476" lon="-3.76037">
        <ele>224.3</ele>
        <time>2020-06-07T17:28:00Z</time>
      </trkpt>
      <trkpt lat="48.04476" lon="-3.76038">
        <ele>224.3</ele>
        <time>2020-06-07T17:28:01Z</time>
      </trkpt>
      <trkpt lat="48.04477" lon="-3.76038">
        <ele>224.3</ele>
        <time>2020-06-07T17:28:02Z</time>
      </trkpt>
      <trkpt lat="48.04476" lon="-3.76039">
        <ele>224.3</ele>
        <time>2020-06-07T17:28:03Z</time>
      </trkpt>
      <trkpt lat="48.04476" lon="-3.7604">
        <ele>224.3</ele>
        <time>2020-06-07T17:28:04Z</time>
      </trkpt>
      <trkpt lat="48.04476" lon="-3.76042">
        <ele>224.4</ele>
        <time>2020-06-07T17:28:05Z</time>
      </trkpt>
      <trkpt lat="48.04476" lon="-3.76042">
        <ele>224.4</ele>
        <time>2020-06-07T17:28:06Z</time>
      </trkpt>
      <trkpt lat="48.04476" lon="-3.76042">
        <ele>224.4</ele>
        <time>2020-06-07T17:28:07Z</time>
      </trkpt>
      <trkpt lat="48.04476" lon="-3.76042">
        <ele>224.4</ele>
        <time>2020-06-07T17:28:08Z</time>
      </trkpt>
      <trkpt lat="48.04475" lon="-3.76042">
        <ele>224.4</ele>
        <time>2020-06-07T17:28:09Z</time>
      </trkpt>
      <trkpt lat="48.04475" lon="-3.76043">
        <ele>224.4</ele>
        <time>2020-06-07T17:28:10Z</time>
      </trkpt>
      <trkpt lat="48.04475" lon="-3.76043">
        <ele>224.4</ele>
        <time>2020-06-07T17:28:11Z</time>
      </trkpt>
      <trkpt lat="48.04475" lon="-3.76042">
        <ele>224.4</ele>
        <time>2020-06-07T17:28:12Z</time>
      </trkpt>
      <trkpt lat="48.04474" lon="-3.76042">
        <ele>224.4</ele>
        <time>2020-06-07T17:28:13Z</time>
      </trkpt>
      <trkpt lat="48.04473" lon="-3.76043">
        <ele>224.4</ele>
        <time>2020-06-07T17:28:14Z</time>
      </trkpt>
      <trkpt lat="48.04473" lon="-3.76043">
        <ele>224.4</ele>
        <time>2020-06-07T17:28:15Z</time>
      </trkpt>
      <trkpt lat="48.04473" lon="-3.76043">
        <ele>224.4</ele>
        <time>2020-06-07T17:28:16Z</time>
      </trkpt>
      <trkpt lat="48.0447" lon="-3.76042">
        <ele>224.3</ele>
        <time>2020-06-07T17:28:17Z</time>
      </trkpt>
      <trkpt lat="48.04468" lon="-3.76042">
        <ele>224.3</ele>
        <time>2020-06-07T17:28:18Z</time>
      </trkpt>
      <trkpt lat="48.04673" lon="-3.76009">
        <ele>234.4</ele>
        <time>2020-06-07T17:39:23Z</time>
      </trkpt>
      <trkpt lat="48.04674" lon="-3.7601">
        <ele>234.2</ele>
        <time>2020-06-07T17:39:24Z</time>
      </trkpt>
      <trkpt lat="48.04674" lon="-3.76012">
        <ele>234.6</ele>
        <time>2020-06-07T17:39:25Z</time>
      </trkpt>
      <trkpt lat="48.04674" lon="-3.76014">
        <ele>234.6</ele>
        <time>2020-06-07T17:39:26Z</time>
      </trkpt>
      <trkpt lat="48.04673" lon="-3.76013">
        <ele>234.6</ele>
        <time>2020-06-07T17:39:27Z</time>
      </trkpt>
      <trkpt lat="48.04673" lon="-3.76012">
        <ele>234.8</ele>
        <time>2020-06-07T17:39:28Z</time>
      </trkpt>
      <trkpt lat="48.04672" lon="-3.7601">
        <ele>234.4</ele>
        <time>2020-06-07T17:39:29Z</time>
      </trkpt>
      <trkpt lat="48.04672" lon="-3.76009">
        <ele>234.4</ele>
        <time>2020-06-07T17:39:30Z</time>
      </trkpt>
      <trkpt lat="48.04669" lon="-3.76007">
        <ele>234.6</ele>
        <time>2020-06-07T17:39:31Z</time>
      </trkpt>
      <trkpt lat="48.04668" lon="-3.76007">
        <ele>234.1</ele>
        <time>2020-06-07T17:39:32Z</time>
      </trkpt>
      <trkpt lat="48.04666" lon="-3.76005">
        <ele>234.2</ele>
        <time>2020-06-07T17:39:33Z</time>
      </trkpt>
      <trkpt lat="48.04665" lon="-3.76005">
        <ele>234.2</ele>
        <time>2020-06-07T17:39:34Z</time>
      </trkpt>
      <trkpt lat="48.04664" lon="-3.76004">
        <ele>234.4</ele>
        <time>2020-06-07T17:39:35Z</time>
      </trkpt>
      <trkpt lat="48.04663" lon="-3.76003">
        <ele>234.4</ele>
        <time>2020-06-07T17:39:36Z</time>
      </trkpt>
      <trkpt lat="48.04661" lon="-3.76003">
        <ele>234.5</ele>
        <time>2020-06-07T17:39:37Z</time>
      </trkpt>
      <trkpt lat="48.0466" lon="-3.76004">
        <ele>234.5</ele>
        <time>2020-06-07T17:39:38Z</time>
      </trkpt>
      <trkpt lat="48.04659" lon="-3.76004">
        <ele>234.5</ele>
        <time>2020-06-07T17:39:39Z</time>
      </trkpt>
      <trkpt lat="48.04659" lon="-3.76004">
        <ele>234.5</ele>
        <time>2020-06-07T17:39:40Z</time>
      </trkpt>
      <trkpt lat="48.04658" lon="-3.76004">
        <ele>234.7</ele>
        <time>2020-06-07T17:39:41Z</time>
      </trkpt>
      <trkpt lat="48.04657" lon="-3.76004">
        <ele>234.7</ele>
        <time>2020-06-07T17:39:42Z</time>
      </trkpt>
      <trkpt lat="48.04657" lon="-3.76005">
        <ele>234.7</ele>
        <time>2020-06-07T17:39:43Z</time>
      </trkpt>
      <trkpt lat="48.04657" lon="-3.76005">
        <ele>234.7</ele>
        <time>2020-06-07T17:39:44Z</time>
      </trkpt>
      <trkpt lat="48.04657" lon="-3.76005">
        <ele>234.7</ele>
        <time>2020-06-07T17:39:45Z</time>
      </trkpt>
      <trkpt lat="48.04657" lon="-3.76005">
        <ele>234.7</ele>
        <time>2020-06-07T17:39:46Z</time>
      </trkpt>
      <trkpt lat="48.04657" lon="-3.76005">
        <ele>234.7</ele>
        <time>2020-06-07T17:39:47Z</time>
      </trkpt>
      <trkpt lat="48.04657" lon="-3.76005">
        <ele>234.7</ele>
        <time>2020-06-07T17:39:48Z</time>
      </trkpt>
      <trkpt lat="48.04657" lon="-3.76005">
        <ele>234.7</ele>
        <time>2020-06-07T17:39:49Z</time>
      </trkpt>
      <trkpt lat="48.04657" lon="-3.76005">
        <ele>234.7</ele>
        <time>2020-06-07T17:39:50Z</time>
      </trkpt>
      <trkpt lat="48.04649" lon="-3.76012">
        <ele>235.7</ele>
        <time>2020-06-07T17:40:02Z</time>
      </trkpt>
      <trkpt lat="48.04649" lon="-3.76014">
        <ele>235.7</ele>
        <time>2020-06-07T17:40:03Z</time>
      </trkpt>
      <trkpt lat="48.04648" lon="-3.76015">
        <ele>235.7</ele>
        <time>2020-06-07T17:40:04Z</time>
      </trkpt>
      <trkpt lat="48.04648" lon="-3.76016">
        <ele>235.7</ele>
        <time>2020-06-07T17:40:05Z</time>
      </trkpt>
      <trkpt lat="48.04647" lon="-3.76017">
        <ele>236</ele>
        <time>2020-06-07T17:40:06Z</time>
      </trkpt>
      <trkpt lat="48.04647" lon="-3.76018">
        <ele>236</ele>
        <time>2020-06-07T17:40:07Z</time>
      </trkpt>
      <trkpt lat="48.04647" lon="-3.76018">
        <ele>236</ele>
        <time>2020-06-07T17:40:08Z</time>
      </trkpt>
      <trkpt lat="48.04646" lon="-3.76019">
        <ele>236</ele>
        <time>2020-06-07T17:40:09Z</time>
      </trkpt>
      <trkpt lat="48.04648" lon="-3.76023">
        <ele>236.2</ele>
        <time>2020-06-07T17:40:10Z</time>
      </trkpt>
      <trkpt lat="48.04649" lon="-3.76025">
        <ele>236.4</ele>
        <time>2020-06-07T17:40:11Z</time>
      </trkpt>
      <trkpt lat="48.04649" lon="-3.76026">
        <ele>236.4</ele>
        <time>2020-06-07T17:40:12Z</time>
      </trkpt>
      <trkpt lat="48.04649" lon="-3.76032">
        <ele>236.4</ele>
        <time>2020-06-07T17:40:13Z</time>
      </trkpt>
      <trkpt lat="48.04648" lon="-3.76033">
        <ele>236.5</ele>
        <time>2020-06-07T17:40:14Z</time>
      </trkpt>
      <trkpt lat="48.04648" lon="-3.76035">
        <ele>236.5</ele>
        <time>2020-06-07T17:40:15Z</time>
      </trkpt>
      <trkpt lat="48.04648" lon="-3.76038">
        <ele>236.4</ele>
        <time>2020-06-07T17:40:16Z</time>
      </trkpt>
      <trkpt lat="48.04649" lon="-3.76042">
        <ele>236.3</ele>
        <time>2020-06-07T17:40:17Z</time>
      </trkpt>
      <trkpt lat="48.0465" lon="-3.76043">
        <ele>236.3</ele>
        <time>2020-06-07T17:40:18Z</time>
      </trkpt>
      <trkpt lat="48.0465" lon="-3.76044">
        <ele>236.3</ele>
        <time>2020-06-07T17:40:19Z</time>
      </trkpt>
      <trkpt lat="48.0465" lon="-3.76044">
        <ele>236.3</ele>
        <time>2020-06-07T17:40:20Z</time>
      </trkpt>
      <trkpt lat="48.0465" lon="-3.76046">
        <ele>236.2</ele>
        <time>2020-06-07T17:40:21Z</time>
      </trkpt>
      <trkpt lat="48.0465" lon="-3.76046">
        <ele>236.2</ele>
        <time>2020-06-07T17:40:22Z</time>
      </trkpt>
      <trkpt lat="48.0465" lon="-3.76046">
        <ele>236.2</ele>
        <time>2020-06-07T17:40:23Z</time>
      </trkpt>
      <trkpt lat="48.0465" lon="-3.76046">
        <ele>236.2</ele>
        <time>2020-06-07T17:40:24Z</time>
      </trkpt>
      <trkpt lat="48.0465" lon="-3.76046">
        <ele>236.2</ele>
        <time>2020-06-07T17:40:25Z</time>
      </trkpt>
      <trkpt lat="48.0465" lon="-3.76046">
        <ele>236.2</ele>
        <time>2020-06-07T17:40:26Z</time>
      </trkpt>
      <trkpt lat="48.0465" lon="-3.76046">
        <ele>236.2</ele>
        <time>2020-06-07T17:40:27Z</time>
      </trkpt>
      <trkpt lat="48.0465" lon="-3.76046">
        <ele>236.2</ele>
        <time>2020-06-07T17:40:28Z</time>
      </trkpt>
      <trkpt lat="48.0465" lon="-3.76046">
        <ele>236.2</ele>
        <time>2020-06-07T17:40:29Z</time>
      </trkpt>
      <trkpt lat="48.04603" lon="-3.76285">
        <ele>235.3</ele>
        <time>2020-06-07T17:55:51Z</time>
      </trkpt>
      <trkpt lat="48.04591" lon="-3.76271">
        <ele>233.4</ele>
        <time>2020-06-07T17:55:52Z</time>
      </trkpt>
      <trkpt lat="48.0458" lon="-3.76266">
        <ele>231.3</ele>
        <time>2020-06-07T17:55:53Z</time>
      </trkpt>
      <trkpt lat="48.04576" lon="-3.76261">
        <ele>230.7</ele>
        <time>2020-06-07T17:55:54Z</time>
      </trkpt>
      <trkpt lat="48.04573" lon="-3.76256">
        <ele>229.6</ele>
        <time>2020-06-07T17:55:55Z</time>
      </trkpt>
      <trkpt lat="48.04565" lon="-3.76244">
        <ele>228.7</ele>
        <time>2020-06-07T17:55:56Z</time>
      </trkpt>
      <trkpt lat="48.04564" lon="-3.76239">
        <ele>228.3</ele>
        <time>2020-06-07T17:55:57Z</time>
      </trkpt>
      <trkpt lat="48.04563" lon="-3.76235">
        <ele>228.4</ele>
        <time>2020-06-07T17:55:58Z</time>
      </trkpt>
      <trkpt lat="48.04565" lon="-3.76229">
        <ele>229</ele>
        <time>2020-06-07T17:55:59Z</time>
      </trkpt>
      <trkpt lat="48.04568" lon="-3.76225">
        <ele>229.5</ele>
        <time>2020-06-07T17:56:00Z</time>
      </trkpt>
      <trkpt lat="48.04567" lon="-3.76222">
        <ele>229.5</ele>
        <time>2020-06-07T17:56:01Z</time>
      </trkpt>
      <trkpt lat="48.04566" lon="-3.76221">
        <ele>229.2</ele>
        <time>2020-06-07T17:56:02Z</time>
      </trkpt>
      <trkpt lat="48.04563" lon="-3.76219">
        <ele>228.9</ele>
        <time>2020-06-07T17:56:03Z</time>
      </trkpt>
      <trkpt lat="48.04561" lon="-3.76217">
        <ele>228.6</ele>
        <time>2020-06-07T17:56:04Z</time>
      </trkpt>
      <trkpt lat="48.04561" lon="-3.76216">
        <ele>228.6</ele>
        <time>2020-06-07T17:56:05Z</time>
      </trkpt>
      <trkpt lat="48.04561" lon="-3.76212">
        <ele>228.8</ele>
        <time>2020-06-07T17:56:06Z</time>
      </trkpt>
      <trkpt lat="48.0456" lon="-3.7621">
        <ele>228.8</ele>
        <time>2020-06-07T17:56:07Z</time>
      </trkpt>
      <trkpt lat="48.04561" lon="-3.76207">
        <ele>228.9</ele>
        <time>2020-06-07T17:56:08Z</time>
      </trkpt>
      <trkpt lat="48.04561" lon="-3.76205">
        <ele>229.2</ele>
        <time>2020-06-07T17:56:09Z</time>
      </trkpt>
      <trkpt lat="48.04561" lon="-3.76204">
        <ele>229</ele>
        <time>2020-06-07T17:56:10Z</time>
      </trkpt>
      <trkpt lat="48.04561" lon="-3.76204">
        <ele>229</ele>
        <time>2020-06-07T17:56:11Z</time>
      </trkpt>
      <trkpt lat="48.04561" lon="-3.76204">
        <ele>229</ele>
        <time>2020-06-07T17:56:12Z</time>
      </trkpt>
      <trkpt lat="48.04561" lon="-3.76204">
        <ele>229</ele>
        <time>2020-06-07T17:56:13Z</time>
      </trkpt>
      <trkpt lat="48.04561" lon="-3.76204">
        <ele>229</ele>
        <time>2020-06-07T17:56:14Z</time>
      </trkpt>
      <trkpt lat="48.04561" lon="-3.76203">
        <ele>229</ele>
        <time>2020-06-07T17:56:15Z</time>
      </trkpt>
      <trkpt lat="48.0456" lon="-3.76203">
        <ele>229</ele>
        <time>2020-06-07T17:56:16Z</time>
      </trkpt>
      <trkpt lat="48.0456" lon="-3.76203">
        <ele>229</ele>
        <time>2020-06-07T17:56:17Z</time>
      </trkpt>
      <trkpt lat="48.04559" lon="-3.76203">
        <ele>229</ele>
        <time>2020-06-07T17:56:18Z</time>
      </trkpt>
      <trkpt lat="48.04559" lon="-3.76203">
        <ele>229</ele>
        <time>2020-06-07T17:56:19Z</time>
      </trkpt>
      <trkpt lat="48.04479" lon="-3.76035">
        <ele>224.3</ele>
        <time>2020-06-07T18:10:13Z</time>
      </trkpt>
      <trkpt lat="48.04478" lon="-3.76036">
        <ele>224.2</ele>
        <time>2020-06-07T18:10:14Z</time>
      </trkpt>
      <trkpt lat="48.04476" lon="-3.76037">
        <ele>224.2</ele>
        <time>2020-06-07T18:10:15Z</time>
      </trkpt>
      <trkpt lat="48.04474" lon="-3.76036">
        <ele>224.2</ele>
        <time>2020-06-07T18:10:16Z</time>
      </trkpt>
      <trkpt lat="48.04472" lon="-3.76036">
        <ele>224.1</ele>
        <time>2020-06-07T18:10:17Z</time>
      </trkpt>
      <trkpt lat="48.04472" lon="-3.76037">
        <ele>224.2</ele>
        <time>2020-06-07T18:10:18Z</time>
      </trkpt>
      <trkpt lat="48.04471" lon="-3.76038">
        <ele>224.2</ele>
        <time>2020-06-07T18:10:19Z</time>
      </trkpt>
      <trkpt lat="48.04472" lon="-3.76039">
        <ele>224.2</ele>
        <time>2020-06-07T18:10:20Z</time>
      </trkpt>
      <trkpt lat="48.04472" lon="-3.76039">
        <ele>224.2</ele>
        <time>2020-06-07T18:10:21Z</time>
      </trkpt>
      <trkpt lat="48.04471" lon="-3.7604">
        <ele>224.2</ele>
        <time>2020-06-07T18:10:22Z</time>
      </trkpt>
      <trkpt lat="48.04471" lon="-3.76041">
        <ele>224.2</ele>
        <time>2020-06-07T18:10:23Z</time>
      </trkpt>
      <trkpt lat="48.04471" lon="-3.76042">
        <ele>224.3</ele>
        <time>2020-06-07T18:10:24Z</time>
      </trkpt>
      <trkpt lat="48.04471" lon="-3.76042">
        <ele>224.3</ele>
        <time>2020-06-07T18:10:25Z</time>
      </trkpt>
      <trkpt lat="48.04471" lon="-3.76041">
        <ele>224.2</ele>
        <time>2020-06-07T18:10:26Z</time>
      </trkpt>
      <trkpt lat="48.0447" lon="-3.7604">
        <ele>224.2</ele>
        <time>2020-06-07T18:10:27Z</time>
      </trkpt>
      <trkpt lat="48.0447" lon="-3.7604">
        <ele>224.2</ele>
        <time>2020-06-07T18:10:28Z</time>
      </trkpt>
      <trkpt lat="48.0447" lon="-3.7604">
        <ele>224.2</ele>
        <time>2020-06-07T18:10:29Z</time>
      </trkpt>
      <trkpt lat="48.0447" lon="-3.7604">
        <ele>224.2</ele>
        <time>2020-06-07T18:10:30Z</time>
      </trkpt>
      <trkpt lat="48.0447" lon="-3.7604">
        <ele>224.2</ele>
        <time>2020-06-07T18:10:31Z</time>
      </trkpt>
      <trkpt lat="48.0447" lon="-3.7604">
        <ele>224.2</ele>
        <time>2020-06-07T18:10:32Z</time>
      </trkpt>
      <trkpt lat="48.0447" lon="-3.7604">
        <ele>224.2</ele>
        <time>2020-06-07T18:10:33Z</time>
      </trkpt>
      <trkpt lat="48.0447" lon="-3.7604">
        <ele>224.2</ele>
        <time>2020-06-07T18:10:34Z</time>
      </trkpt>
      <trkpt lat="48.0447" lon="-3.7604">
        <ele>224.2</ele>
        <time>2020-06-07T18:10:35Z</time>
      </trkpt>
      <trkpt lat="48.0447" lon="-3.76039">
        <ele>224.2</ele>
        <time>2020-06-07T18:10:36Z</time>
      </trkpt>
      <trkpt lat="48.0447" lon="-3.7604">
        <ele>224.2</ele>
        <time>2020-06-07T18:10:37Z</time>
      </trkpt>
      <trkpt lat="48.04469" lon="-3.7604">
        <ele>224.2</ele>
        <time>2020-06-07T18:10:38Z</time>
      </trkpt>
      <trkpt lat="48.04468" lon="-3.76041">
        <ele>224.2</ele>
        <time>2020-06-07T18:10:39Z</time>
      </trkpt>
      <trkpt lat="48.04467" lon="-3.76041">
        <ele>224.2</ele>
        <time>2020-06-07T18:10:40Z</time>
      </trkpt>
      <trkpt lat="48.04465" lon="-3.76042">
        <ele>224.2</ele>
        <time>2020-06-07T18:10:41Z</time>
      </trkpt>
      <trkpt lat="48.04464" lon="-3.76042">
        <ele>224.2</ele>
        <time>2020-06-07T18:10:42Z</time>
      </trkpt>
      <trkpt lat="48.04463" lon="-3.76042">
        <ele>224.2</ele>
        <time>2020-06-07T18:10:43Z</time>
      </trkpt>
      <trkpt lat="48.04461" lon="-3.76041">
        <ele>224.1</ele>
        <time>2020-06-07T18:10:44Z</time>
      </trkpt>
      <trkpt lat="48.0446" lon="-3.76041">
        <ele>224</ele>
        <time>2020-06-07T18:10:45Z</time>
      </trkpt>
      <trkpt lat="48.04458" lon="-3.76041">
        <ele>224</ele>
        <time>2020-06-07T18:10:46Z</time>
      </trkpt>
      <trkpt lat="48.04457" lon="-3.76041">
        <ele>224</ele>
        <time>2020-06-07T18:10:47Z</time>
      </trkpt>
      <trkpt lat="48.04456" lon="-3.7604">
        <ele>224</ele>
        <time>2020-06-07T18:10:48Z</time>
      </trkpt>
      <trkpt lat="48.04455" lon="-3.76039">
        <ele>224</ele>
        <time>2020-06-07T18:10:49Z</time>
      </trkpt>
      <trkpt lat="48.04456" lon="-3.7604">
        <ele>224</ele>
        <time>2020-06-07T18:10:50Z</time>
      </trkpt>
      <trkpt lat="48.04455" lon="-3.7604">
        <ele>224</ele>
        <time>2020-06-07T18:10:51Z</time>
      </trkpt>
      <trkpt lat="48.04455" lon="-3.76041">
        <ele>224</ele>
        <time>2020-06-07T18:10:52Z</time>
      </trkpt>
      <trkpt lat="48.04454" lon="-3.76041">
        <ele>224</ele>
        <time>2020-06-07T18:10:53Z</time>
      </trkpt>
      <trkpt lat="48.04454" lon="-3.76041">
        <ele>224</ele>
        <time>2020-06-07T18:10:54Z</time>
      </trkpt>
      <trkpt lat="48.04454" lon="-3.76041">
        <ele>224</ele>
        <time>2020-06-07T18:10:55Z</time>
      </trkpt>
      <trkpt lat="48.04454" lon="-3.76041">
        <ele>224</ele>
        <time>2020-06-07T18:10:56Z</time>
      </trkpt>
      <trkpt lat="48.04454" lon="-3.76041">
        <ele>224</ele>
        <time>2020-06-07T18:10:57Z</time>
      </trkpt>
      <trkpt lat="48.04453" lon="-3.7604">
        <ele>224</ele>
        <time>2020-06-07T18:10:58Z</time>
      </trkpt>
      <trkpt lat="48.04453" lon="-3.7604">
        <ele>224</ele>
        <time>2020-06-07T18:10:59Z</time>
      </trkpt>
      <trkpt lat="48.04453" lon="-3.7604">
        <ele>224</ele>
        <time>2020-06-07T18:11:00Z</time>
      </trkpt>
      <trkpt lat="48.04454" lon="-3.76041">
        <ele>224</ele>
        <time>2020-06-07T18:11:01Z</time>
      </trkpt>
      <trkpt lat="48.04454" lon="-3.76041">
        <ele>224</ele>
        <time>2020-06-07T18:11:02Z</time>
      </trkpt>
      <trkpt lat="48.04453" lon="-3.7604">
        <ele>224</ele>
        <time>2020-06-07T18:11:03Z</time>
      </trkpt>
      <trkpt lat="48.04453" lon="-3.76041">
        <ele>224</ele>
        <time>2020-06-07T18:11:04Z</time>
      </trkpt>
      <trkpt lat="48.04453" lon="-3.76041">
        <ele>224</ele>
        <time>2020-06-07T18:11:05Z</time>
      </trkpt>
      <trkpt lat="48.04453" lon="-3.7604">
        <ele>224</ele>
        <time>2020-06-07T18:11:06Z</time>
      </trkpt>
      <trkpt lat="48.04453" lon="-3.7604">
        <ele>224</ele>
        <time>2020-06-07T18:11:07Z</time>
      </trkpt>
      <trkpt lat="48.04453" lon="-3.76041">
        <ele>224</ele>
        <time>2020-06-07T18:11:08Z</time>
      </trkpt>
      <trkpt lat="48.04453" lon="-3.76041">
        <ele>224</ele>
        <time>2020-06-07T18:11:09Z</time>
      </trkpt>
      <trkpt lat="48.04453" lon="-3.76041">
        <ele>224</ele>
        <time>2020-06-07T18:11:10Z</time>
      </trkpt>
      <trkpt lat="48.04453" lon="-3.76041">
        <ele>224</ele>
        <time>2020-06-07T18:11:11Z</time>
      </trkpt>
      <trkpt lat="48.04453" lon="-3.76041">
        <ele>224</ele>
        <time>2020-06-07T18:11:12Z</time>
      </trkpt>
      <trkpt lat="48.04453" lon="-3.76041">
        <ele>224</ele>
        <time>2020-06-07T18:11:13Z</time>
      </trkpt>
      <trkpt lat="48.04461" lon="-3.7604">
        <ele>224.1</ele>
        <time>2020-06-07T18:11:29Z</time>
      </trkpt>
      <trkpt lat="48.04462" lon="-3.76039">
        <ele>224.1</ele>
        <time>2020-06-07T18:11:30Z</time>
      </trkpt>
      <trkpt lat="48.04463" lon="-3.76038">
        <ele>224.1</ele>
        <time>2020-06-07T18:11:31Z</time>
      </trkpt>
      <trkpt lat="48.04465" lon="-3.76038">
        <ele>224.1</ele>
        <time>2020-06-07T18:11:32Z</time>
      </trkpt>
      <trkpt lat="48.04466" lon="-3.76038">
        <ele>224.1</ele>
        <time>2020-06-07T18:11:33Z</time>
      </trkpt>
      <trkpt lat="48.04466" lon="-3.76038">
        <ele>224.1</ele>
        <time>2020-06-07T18:11:34Z</time>
      </trkpt>
      <trkpt lat="48.04467" lon="-3.76038">
        <ele>224.2</ele>
        <time>2020-06-07T18:11:35Z</time>
      </trkpt>
      <trkpt lat="48.04468" lon="-3.76037">
        <ele>224.2</ele>
        <time>2020-06-07T18:11:36Z</time>
      </trkpt>
      <trkpt lat="48.04469" lon="-3.76037">
        <ele>224.2</ele>
        <time>2020-06-07T18:11:37Z</time>
      </trkpt>
      <trkpt lat="48.0447" lon="-3.76037">
        <ele>224.1</ele>
        <time>2020-06-07T18:11:38Z</time>
      </trkpt>
      <trkpt lat="48.0447" lon="-3.76037">
        <ele>224.1</ele>
        <time>2020-06-07T18:11:39Z</time>
      </trkpt>
      <trkpt lat="48.04471" lon="-3.76036">
        <ele>224.1</ele>
        <time>2020-06-07T18:11:40Z</time>
      </trkpt>
      <trkpt lat="48.04472" lon="-3.76036">
        <ele>224.1</ele>
        <time>2020-06-07T18:11:41Z</time>
      </trkpt>
      <trkpt lat="48.04472" lon="-3.76035">
        <ele>224.1</ele>
        <time>2020-06-07T18:11:42Z</time>
      </trkpt>
      <trkpt lat="48.04474" lon="-3.76034">
        <ele>224.2</ele>
        <time>2020-06-07T18:11:43Z</time>
      </trkpt>
      <trkpt lat="48.04474" lon="-3.76032">
        <ele>224.2</ele>
        <time>2020-06-07T18:11:44Z</time>
      </trkpt>
      <trkpt lat="48.04475" lon="-3.76031">
        <ele>224.2</ele>
        <time>2020-06-07T18:11:45Z</time>
      </trkpt>
      <trkpt lat="48.04476" lon="-3.7603">
        <ele>224.2</ele>
        <time>2020-06-07T18:11:46Z</time>
      </trkpt>
      <trkpt lat="48.04477" lon="-3.76029">
        <ele>224.2</ele>
        <time>2020-06-07T18:11:47Z</time>
      </trkpt>
      <trkpt lat="48.04477" lon="-3.76029">
        <ele>224.2</ele>
        <time>2020-06-07T18:11:48Z</time>
      </trkpt>
      <trkpt lat="48.04478" lon="-3.76029">
        <ele>224.2</ele>
        <time>2020-06-07T18:11:50Z</time>
      </trkpt>
      <trkpt lat="48.04481" lon="-3.76023">
        <ele>224.3</ele>
        <time>2020-06-07T18:11:51Z</time>
      </trkpt>
      <trkpt lat="48.04484" lon="-3.7602">
        <ele>224.3</ele>
        <time>2020-06-07T18:11:52Z</time>
      </trkpt>
      <trkpt lat="48.04486" lon="-3.76014">
        <ele>224.3</ele>
        <time>2020-06-07T18:11:53Z</time>
      </trkpt>
      <trkpt lat="48.04489" lon="-3.76007">
        <ele>224.4</ele>
        <time>2020-06-07T18:11:54Z</time>
      </trkpt>
      <trkpt lat="48.04491" lon="-3.76005">
        <ele>224.4</ele>
        <time>2020-06-07T18:11:55Z</time>
      </trkpt>
      <trkpt lat="48.04493" lon="-3.76002">
        <ele>224.4</ele>
        <time>2020-06-07T18:11:56Z</time>
      </trkpt>
      <trkpt lat="48.04494" lon="-3.75999">
        <ele>224.5</ele>
        <time>2020-06-07T18:11:57Z</time>
      </trkpt>
      <trkpt lat="48.04497" lon="-3.75997">
        <ele>224.5</ele>
        <time>2020-06-07T18:11:58Z</time>
      </trkpt>
      <trkpt lat="48.045" lon="-3.75993">
        <ele>224.5</ele>
        <time>2020-06-07T18:11:59Z</time>
      </trkpt>
      <trkpt lat="48.04502" lon="-3.7599">
        <ele>224.5</ele>
        <time>2020-06-07T18:12:00Z</time>
      </trkpt>
      <trkpt lat="48.04504" lon="-3.75987">
        <ele>224.4</ele>
        <time>2020-06-07T18:12:01Z</time>
      </trkpt>
      <trkpt lat="48.04507" lon="-3.75983">
        <ele>224.4</ele>
        <time>2020-06-07T18:12:02Z</time>
      </trkpt>
      <trkpt lat="48.04509" lon="-3.75981">
        <ele>224.4</ele>
        <time>2020-06-07T18:12:03Z</time>
      </trkpt>
      <trkpt lat="48.04511" lon="-3.75978">
        <ele>224.5</ele>
        <time>2020-06-07T18:12:04Z</time>
      </trkpt>
      <trkpt lat="48.04513" lon="-3.75976">
        <ele>224.5</ele>
        <time>2020-06-07T18:12:05Z</time>
      </trkpt>
      <trkpt lat="48.04515" lon="-3.75973">
        <ele>224.5</ele>
        <time>2020-06-07T18:12:06Z</time>
      </trkpt>
      <trkpt lat="48.04516" lon="-3.75968">
        <ele>224.5</ele>
        <time>2020-06-07T18:12:07Z</time>
      </trkpt>
      <trkpt lat="48.04518" lon="-3.75966">
        <ele>224.5</ele>
        <time>2020-06-07T18:12:08Z</time>
      </trkpt>
      <trkpt lat="48.04454" lon="-3.76032">
        <ele>224</ele>
        <time>2020-06-07T18:22:11Z</time>
      </trkpt>
      <trkpt lat="48.04454" lon="-3.76032">
        <ele>224</ele>
        <time>2020-06-07T18:22:12Z</time>
      </trkpt>
      <trkpt lat="48.04452" lon="-3.76032">
        <ele>224</ele>
        <time>2020-06-07T18:22:13Z</time>
      </trkpt>
      <trkpt lat="48.04453" lon="-3.76031">
        <ele>224</ele>
        <time>2020-06-07T18:22:14Z</time>
      </trkpt>
      <trkpt lat="48.04452" lon="-3.7603">
        <ele>224</ele>
        <time>2020-06-07T18:22:15Z</time>
      </trkpt>
      <trkpt lat="48.04452" lon="-3.76031">
        <ele>224</ele>
        <time>2020-06-07T18:22:16Z</time>
      </trkpt>
      <trkpt lat="48.04451" lon="-3.76032">
        <ele>224</ele>
        <time>2020-06-07T18:22:17Z</time>
      </trkpt>
      <trkpt lat="48.04451" lon="-3.76032">
        <ele>224</ele>
        <time>2020-06-07T18:22:18Z</time>
      </trkpt>
      <trkpt lat="48.0445" lon="-3.76032">
        <ele>224</ele>
        <time>2020-06-07T18:22:19Z</time>
      </trkpt>
      <trkpt lat="48.04449" lon="-3.76033">
        <ele>224</ele>
        <time>2020-06-07T18:22:20Z</time>
      </trkpt>
      <trkpt lat="48.04449" lon="-3.76033">
        <ele>224</ele>
        <time>2020-06-07T18:22:21Z</time>
      </trkpt>
      <trkpt lat="48.04448" lon="-3.76034">
        <ele>224</ele>
        <time>2020-06-07T18:22:22Z</time>
      </trkpt>
      <trkpt lat="48.04448" lon="-3.76034">
        <ele>224</ele>
        <time>2020-06-07T18:22:23Z</time>
      </trkpt>
      <trkpt lat="48.04448" lon="-3.76035">
        <ele>224</ele>
        <time>2020-06-07T18:22:24Z</time>
      </trkpt>
      <trkpt lat="48.04448" lon="-3.76036">
        <ele>224</ele>
        <time>2020-06-07T18:22:25Z</time>
      </trkpt>
      <trkpt lat="48.04448" lon="-3.76036">
        <ele>224</ele>
        <time>2020-06-07T18:22:26Z</time>
      </trkpt>
      <trkpt lat="48.04449" lon="-3.76036">
        <ele>223.9</ele>
        <time>2020-06-07T18:22:27Z</time>
      </trkpt>
      <trkpt lat="48.04449" lon="-3.76037">
        <ele>223.9</ele>
        <time>2020-06-07T18:22:28Z</time>
      </trkpt>
      <trkpt lat="48.04449" lon="-3.76037">
        <ele>223.9</ele>
        <time>2020-06-07T18:22:29Z</time>
      </trkpt>
      <trkpt lat="48.04449" lon="-3.76037">
        <ele>223.9</ele>
        <time>2020-06-07T18:22:30Z</time>
      </trkpt>
      <trkpt lat="48.04449" lon="-3.76037">
        <ele>223.9</ele>
        <time>2020-06-07T18:22:31Z</time>
      </trkpt>
      <trkpt lat="48.04449" lon="-3.76037">
        <ele>223.9</ele>
        <time>2020-06-07T18:22:32Z</time>
      </trkpt>
      <trkpt lat="48.04449" lon="-3.76037">
        <ele>223.9</ele>
        <time>2020-06-07T18:22:33Z</time>
      </trkpt>
      <trkpt lat="48.04465" lon="-3.76022">
        <ele>223.8</ele>
        <time>2020-06-07T18:34:04Z</time>
      </trkpt>
      <trkpt lat="48.04466" lon="-3.76023">
        <ele>223.8</ele>
        <time>2020-06-07T18:34:05Z</time>
      </trkpt>
      <trkpt lat="48.04466" lon="-3.76022">
        <ele>223.8</ele>
        <time>2020-06-07T18:34:06Z</time>
      </trkpt>
      <trkpt lat="48.04467" lon="-3.76022">
        <ele>223.7</ele>
        <time>2020-06-07T18:34:07Z</time>
      </trkpt>
      <trkpt lat="48.04468" lon="-3.76021">
        <ele>223.7</ele>
        <time>2020-06-07T18:34:08Z</time>
      </trkpt>
      <trkpt lat="48.04468" lon="-3.76021">
        <ele>223.7</ele>
        <time>2020-06-07T18:34:09Z</time>
      </trkpt>
      <trkpt lat="48.04468" lon="-3.7602">
        <ele>223.7</ele>
        <time>2020-06-07T18:34:10Z</time>
      </trkpt>
      <trkpt lat="48.04468" lon="-3.76019">
        <ele>223.7</ele>
        <time>2020-06-07T18:34:11Z</time>
      </trkpt>
      <trkpt lat="48.04468" lon="-3.76018">
        <ele>223.7</ele>
        <time>2020-06-07T18:34:12Z</time>
      </trkpt>
      <trkpt lat="48.04468" lon="-3.76017">
        <ele>223.7</ele>
        <time>2020-06-07T18:34:13Z</time>
      </trkpt>
      <trkpt lat="48.04467" lon="-3.76016">
        <ele>223.7</ele>
        <time>2020-06-07T18:34:14Z</time>
      </trkpt>
      <trkpt lat="48.04467" lon="-3.76015">
        <ele>223.7</ele>
        <time>2020-06-07T18:34:15Z</time>
      </trkpt>
      <trkpt lat="48.04468" lon="-3.7601">
        <ele>223.7</ele>
        <time>2020-06-07T18:34:16Z</time>
      </trkpt>
      <trkpt lat="48.04468" lon="-3.76008">
        <ele>223.6</ele>
        <time>2020-06-07T18:34:17Z</time>
      </trkpt>
      <trkpt lat="48.04467" lon="-3.76006">
        <ele>223.6</ele>
        <time>2020-06-07T18:34:18Z</time>
      </trkpt>
      <trkpt lat="48.04467" lon="-3.76005">
        <ele>223.6</ele>
        <time>2020-06-07T18:34:19Z</time>
      </trkpt>
      <trkpt lat="48.04467" lon="-3.76004">
        <ele>223.6</ele>
        <time>2020-06-07T18:34:20Z</time>
      </trkpt>
      <trkpt lat="48.04467" lon="-3.76004">
        <ele>223.6</ele>
        <time>2020-06-07T18:34:21Z</time>
      </trkpt>
      <trkpt lat="48.04467" lon="-3.76003">
        <ele>223.6</ele>
        <time>2020-06-07T18:34:22Z</time>
      </trkpt>
      <trkpt lat="48.04467" lon="-3.76003">
        <ele>223.6</ele>
        <time>2020-06-07T18:34:23Z</time>
      </trkpt>
      <trkpt lat="48.04467" lon="-3.76002">
        <ele>223.6</ele>
        <time>2020-06-07T18:34:24Z</time>
      </trkpt>
      <trkpt lat="48.04467" lon="-3.76">
        <ele>223.6</ele>
        <time>2020-06-07T18:34:25Z</time>
      </trkpt>
      <trkpt lat="48.04467" lon="-3.75999">
        <ele>223.6</ele>
        <time>2020-06-07T18:34:26Z</time>
      </trkpt>
      <trkpt lat="48.04467" lon="-3.75998">
        <ele>223.5</ele>
        <time>2020-06-07T18:34:27Z</time>
      </trkpt>
      <trkpt lat="48.04467" lon="-3.75996">
        <ele>223.5</ele>
        <time>2020-06-07T18:34:28Z</time>
      </trkpt>
      <trkpt lat="48.04467" lon="-3.75996">
        <ele>223.5</ele>
        <time>2020-06-07T18:34:29Z</time>
      </trkpt>
      <trkpt lat="48.04467" lon="-3.75995">
        <ele>223.5</ele>
        <time>2020-06-07T18:34:30Z</time>
      </trkpt>
      <trkpt lat="48.04467" lon="-3.75995">
        <ele>223.5</ele>
        <time>2020-06-07T18:34:31Z</time>
      </trkpt>
      <trkpt lat="48.04467" lon="-3.75994">
        <ele>223.5</ele>
        <time>2020-06-07T18:34:32Z</time>
      </trkpt>
      <trkpt lat="48.04467" lon="-3.75993">
        <ele>223.5</ele>
        <time>2020-06-07T18:34:33Z</time>
      </trkpt>
      <trkpt lat="48.04467" lon="-3.75992">
        <ele>223.5</ele>
        <time>2020-06-07T18:34:34Z</time>
      </trkpt>
      <trkpt lat="48.04467" lon="-3.75992">
        <ele>223.5</ele>
        <time>2020-06-07T18:34:35Z</time>
      </trkpt>
      <trkpt lat="48.04467" lon="-3.75992">
        <ele>223.5</ele>
        <time>2020-06-07T18:34:36Z</time>
      </trkpt>
      <trkpt lat="48.04466" lon="-3.75992">
        <ele>223.5</ele>
        <time>2020-06-07T18:34:37Z</time>
      </trkpt>
      <trkpt lat="48.04466" lon="-3.75991">
        <ele>223.5</ele>
        <time>2020-06-07T18:34:38Z</time>
      </trkpt>
      <trkpt lat="48.04466" lon="-3.75991">
        <ele>223.5</ele>
        <time>2020-06-07T18:34:39Z</time>
      </trkpt>
      <trkpt lat="48.04466" lon="-3.7599">
        <ele>223.4</ele>
        <time>2020-06-07T18:34:40Z</time>
      </trkpt>
      <trkpt lat="48.04466" lon="-3.75991">
        <ele>223.4</ele>
        <time>2020-06-07T18:34:41Z</time>
      </trkpt>
      <trkpt lat="48.04466" lon="-3.75991">
        <ele>223.4</ele>
        <time>2020-06-07T18:34:42Z</time>
      </trkpt>
      <trkpt lat="48.04466" lon="-3.75991">
        <ele>223.4</ele>
        <time>2020-06-07T18:34:43Z</time>
      </trkpt>
      <trkpt lat="48.04466" lon="-3.7599">
        <ele>223.4</ele>
        <time>2020-06-07T18:34:44Z</time>
      </trkpt>
      <trkpt lat="48.04466" lon="-3.75991">
        <ele>223.4</ele>
        <time>2020-06-07T18:34:45Z</time>
      </trkpt>
      <trkpt lat="48.04466" lon="-3.75989">
        <ele>223.4</ele>
        <time>2020-06-07T18:34:46Z</time>
      </trkpt>
      <trkpt lat="48.04466" lon="-3.75987">
        <ele>223.4</ele>
        <time>2020-06-07T18:34:47Z</time>
      </trkpt>
      <trkpt lat="48.04466" lon="-3.75985">
        <ele>223.4</ele>
        <time>2020-06-07T18:34:48Z</time>
      </trkpt>
      <trkpt lat="48.04466" lon="-3.75984">
        <ele>223.4</ele>
        <time>2020-06-07T18:34:49Z</time>
      </trkpt>
      <trkpt lat="48.04466" lon="-3.75983">
        <ele>223.3</ele>
        <time>2020-06-07T18:34:50Z</time>
      </trkpt>
      <trkpt lat="48.04466" lon="-3.75979">
        <ele>223.3</ele>
        <time>2020-06-07T18:34:51Z</time>
      </trkpt>
      <trkpt lat="48.04466" lon="-3.75977">
        <ele>223.3</ele>
        <time>2020-06-07T18:34:52Z</time>
      </trkpt>
      <trkpt lat="48.04466" lon="-3.75973">
        <ele>223.2</ele>
        <time>2020-06-07T18:34:53Z</time>
      </trkpt>
      <trkpt lat="48.04467" lon="-3.7597">
        <ele>223.2</ele>
        <time>2020-06-07T18:34:54Z</time>
      </trkpt>
      <trkpt lat="48.04467" lon="-3.75967">
        <ele>223.2</ele>
        <time>2020-06-07T18:34:55Z</time>
      </trkpt>
      <trkpt lat="48.04468" lon="-3.75964">
        <ele>223.2</ele>
        <time>2020-06-07T18:34:56Z</time>
      </trkpt>
      <trkpt lat="48.04424" lon="-3.75725">
        <ele>220.8</ele>
        <time>2020-06-07T18:48:15Z</time>
      </trkpt>
      <trkpt lat="48.04423" lon="-3.75735">
        <ele>220.8</ele>
        <time>2020-06-07T18:48:16Z</time>
      </trkpt>
      <trkpt lat="48.04422" lon="-3.75744">
        <ele>220.9</ele>
        <time>2020-06-07T18:48:17Z</time>
      </trkpt>
      <trkpt lat="48.04431" lon="-3.75777">
        <ele>221</ele>
        <time>2020-06-07T18:48:18Z</time>
      </trkpt>
      <trkpt lat="48.04442" lon="-3.75807">
        <ele>221.1</ele>
        <time>2020-06-07T18:48:19Z</time>
      </trkpt>
      <trkpt lat="48.04453" lon="-3.75837">
        <ele>221.3</ele>
        <time>2020-06-07T18:48:20Z</time>
      </trkpt>
      <trkpt lat="48.04451" lon="-3.75848">
        <ele>221.4</ele>
        <time>2020-06-07T18:48:21Z</time>
      </trkpt>
      <trkpt lat="48.04449" lon="-3.75853">
        <ele>221.4</ele>
        <time>2020-06-07T18:48:22Z</time>
      </trkpt>
      <trkpt lat="48.04446" lon="-3.75858">
        <ele>221.5</ele>
        <time>2020-06-07T18:48:23Z</time>
      </trkpt>
      <trkpt lat="48.04445" lon="-3.75861">
        <ele>221.5</ele>
        <time>2020-06-07T18:48:24Z</time>
      </trkpt>
      <trkpt lat="48.04442" lon="-3.75866">
        <ele>221.6</ele>
        <time>2020-06-07T18:48:25Z</time>
      </trkpt>
      <trkpt lat="48.04441" lon="-3.75867">
        <ele>221.6</ele>
        <time>2020-06-07T18:48:26Z</time>
      </trkpt>
      <trkpt lat="48.04438" lon="-3.75871">
        <ele>221.7</ele>
        <time>2020-06-07T18:48:27Z</time>
      </trkpt>
      <trkpt lat="48.04435" lon="-3.75878">
        <ele>221.8</ele>
        <time>2020-06-07T18:48:28Z</time>
      </trkpt>
      <trkpt lat="48.04435" lon="-3.75885">
        <ele>221.8</ele>
        <time>2020-06-07T18:48:29Z</time>
      </trkpt>
      <trkpt lat="48.04436" lon="-3.7589">
        <ele>221.9</ele>
        <time>2020-06-07T18:48:30Z</time>
      </trkpt>
      <trkpt lat="48.04437" lon="-3.75894">
        <ele>221.9</ele>
        <time>2020-06-07T18:48:31Z</time>
      </trkpt>
      <trkpt lat="48.04439" lon="-3.75905">
        <ele>222</ele>
        <time>2020-06-07T18:48:32Z</time>
      </trkpt>
      <trkpt lat="48.04442" lon="-3.75921">
        <ele>222.2</ele>
        <time>2020-06-07T18:48:33Z</time>
      </trkpt>
      <trkpt lat="48.04443" lon="-3.75926">
        <ele>222.3</ele>
        <time>2020-06-07T18:48:34Z</time>
      </trkpt>
      <trkpt lat="48.04443" lon="-3.75927">
        <ele>222.3</ele>
        <time>2020-06-07T18:48:35Z</time>
      </trkpt>
      <trkpt lat="48.04446" lon="-3.75935">
        <ele>222.4</ele>
        <time>2020-06-07T18:48:36Z</time>
      </trkpt>
      <trkpt lat="48.04448" lon="-3.7594">
        <ele>222.5</ele>
        <time>2020-06-07T18:48:37Z</time>
      </trkpt>
      <trkpt lat="48.04448" lon="-3.75941">
        <ele>222.5</ele>
        <time>2020-06-07T18:48:38Z</time>
      </trkpt>
      <trkpt lat="48.04464" lon="-3.75996">
        <ele>223.8</ele>
        <time>2020-06-07T18:48:51Z</time>
      </trkpt>
      <trkpt lat="48.04465" lon="-3.76">
        <ele>223.8</ele>
        <time>2020-06-07T18:48:52Z</time>
      </trkpt>
      <trkpt lat="48.04465" lon="-3.76002">
        <ele>223.8</ele>
        <time>2020-06-07T18:48:53Z</time>
      </trkpt>
      <trkpt lat="48.04466" lon="-3.76003">
        <ele>223.9</ele>
        <time>2020-06-07T18:48:54Z</time>
      </trkpt>
      <trkpt lat="48.04466" lon="-3.76005">
        <ele>223.9</ele>
        <time>2020-06-07T18:48:55Z</time>
      </trkpt>
      <trkpt lat="48.04467" lon="-3.76007">
        <ele>223.9</ele>
        <time>2020-06-07T18:48:56Z</time>
      </trkpt>
      <trkpt lat="48.04468" lon="-3.76009">
        <ele>224</ele>
        <time>2020-06-07T18:48:57Z</time>
      </trkpt>
      <trkpt lat="48.04468" lon="-3.76012">
        <ele>224</ele>
        <time>2020-06-07T18:48:58Z</time>
      </trkpt>
      <trkpt lat="48.04469" lon="-3.76013">
        <ele>224</ele>
        <time>2020-06-07T18:48:59Z</time>
      </trkpt>
      <trkpt lat="48.04469" lon="-3.76014">
        <ele>224</ele>
        <time>2020-06-07T18:49:00Z</time>
      </trkpt>
      <trkpt lat="48.04469" lon="-3.76016">
        <ele>224</ele>
        <time>2020-06-07T18:49:01Z</time>
      </trkpt>
      <trkpt lat="48.0447" lon="-3.76019">
        <ele>224.1</ele>
        <time>2020-06-07T18:49:02Z</time>
      </trkpt>
      <trkpt lat="48.0447" lon="-3.76023">
        <ele>224.1</ele>
        <time>2020-06-07T18:49:03Z</time>
      </trkpt>
      <trkpt lat="48.0447" lon="-3.76024">
        <ele>224.2</ele>
        <time>2020-06-07T18:49:04Z</time>
      </trkpt>
      <trkpt lat="48.04471" lon="-3.76029">
        <ele>224.2</ele>
        <time>2020-06-07T18:49:05Z</time>
      </trkpt>
      <trkpt lat="48.04471" lon="-3.76031">
        <ele>224.3</ele>
        <time>2020-06-07T18:49:06Z</time>
      </trkpt>
      <trkpt lat="48.04471" lon="-3.76035">
        <ele>224.3</ele>
        <time>2020-06-07T18:49:07Z</time>
      </trkpt>
      <trkpt lat="48.04471" lon="-3.76036">
        <ele>224.3</ele>
        <time>2020-06-07T18:49:08Z</time>
      </trkpt>
      <trkpt lat="48.04472" lon="-3.7604">
        <ele>224.4</ele>
        <time>2020-06-07T18:49:09Z</time>
      </trkpt>
      <trkpt lat="48.04472" lon="-3.76041">
        <ele>224.4</ele>
        <time>2020-06-07T18:49:10Z</time>
      </trkpt>
      <trkpt lat="48.04472" lon="-3.76042">
        <ele>224.4</ele>
        <time>2020-06-07T18:49:11Z</time>
      </trkpt>
      <trkpt lat="48.04472" lon="-3.76044">
        <ele>224.5</ele>
        <time>2020-06-07T18:49:12Z</time>
      </trkpt>
      <trkpt lat="48.04472" lon="-3.76045">
        <ele>224.5</ele>
        <time>2020-06-07T18:49:13Z</time>
      </trkpt>
      <trkpt lat="48.04471" lon="-3.76047">
        <ele>224.5</ele>
        <time>2020-06-07T18:49:14Z</time>
      </trkpt>
      <trkpt lat="48.04471" lon="-3.76049">
        <ele>224.5</ele>
        <time>2020-06-07T18:49:15Z</time>
      </trkpt>
      <trkpt lat="48.04471" lon="-3.7605">
        <ele>224.6</ele>
        <time>2020-06-07T18:49:16Z</time>
      </trkpt>
      <trkpt lat="48.04471" lon="-3.76051">
        <ele>224.6</ele>
        <time>2020-06-07T18:49:17Z</time>
      </trkpt>
      <trkpt lat="48.04471" lon="-3.76051">
        <ele>224.6</ele>
        <time>2020-06-07T18:49:18Z</time>
      </trkpt>
      <trkpt lat="48.04471" lon="-3.76052">
        <ele>224.6</ele>
        <time>2020-06-07T18:49:19Z</time>
      </trkpt>
      <trkpt lat="48.04471" lon="-3.76052">
        <ele>224.6</ele>
        <time>2020-06-07T18:49:20Z</time>
      </trkpt>
      <trkpt lat="48.04472" lon="-3.76053">
        <ele>224.6</ele>
        <time>2020-06-07T18:49:21Z</time>
      </trkpt>
      <trkpt lat="48.04471" lon="-3.76052">
        <ele>224.6</ele>
        <time>2020-06-07T18:49:22Z</time>
      </trkpt>
      <trkpt lat="48.0447" lon="-3.76052">
        <ele>224.6</ele>
        <time>2020-06-07T18:49:23Z</time>
      </trkpt>
      <trkpt lat="48.0447" lon="-3.76052">
        <ele>224.6</ele>
        <time>2020-06-07T18:49:24Z</time>
      </trkpt>
      <trkpt lat="48.04469" lon="-3.76052">
        <ele>224.5</ele>
        <time>2020-06-07T18:49:25Z</time>
      </trkpt>
      <trkpt lat="48.04468" lon="-3.76053">
        <ele>224.5</ele>
        <time>2020-06-07T18:49:26Z</time>
      </trkpt>
      <trkpt lat="48.04468" lon="-3.76053">
        <ele>224.5</ele>
        <time>2020-06-07T18:49:27Z</time>
      </trkpt>
      <trkpt lat="48.04467" lon="-3.76054">
        <ele>224.5</ele>
        <time>2020-06-07T18:49:28Z</time>
      </trkpt>
      <trkpt lat="48.04466" lon="-3.76054">
        <ele>224.5</ele>
        <time>2020-06-07T18:49:29Z</time>
      </trkpt>
      <trkpt lat="48.04464" lon="-3.76054">
        <ele>224.5</ele>
        <time>2020-06-07T18:49:30Z</time>
      </trkpt>
      <trkpt lat="48.04463" lon="-3.76054">
        <ele>224.5</ele>
        <time>2020-06-07T18:49:31Z</time>
      </trkpt>
      <trkpt lat="48.04463" lon="-3.76054">
        <ele>224.5</ele>
        <time>2020-06-07T18:49:32Z</time>
      </trkpt>
      <trkpt lat="48.04462" lon="-3.76055">
        <ele>224.5</ele>
        <time>2020-06-07T18:49:33Z</time>
      </trkpt>
      <trkpt lat="48.04461" lon="-3.76055">
        <ele>224.5</ele>
        <time>2020-06-07T18:49:34Z</time>
      </trkpt>
      <trkpt lat="48.04461" lon="-3.76055">
        <ele>224.4</ele>
        <time>2020-06-07T18:49:35Z</time>
      </trkpt>
      <trkpt lat="48.04459" lon="-3.76054">
        <ele>224.4</ele>
        <time>2020-06-07T18:49:36Z</time>
      </trkpt>
      <trkpt lat="48.04459" lon="-3.76053">
        <ele>224.4</ele>
        <time>2020-06-07T18:49:37Z</time>
      </trkpt>
      <trkpt lat="48.0446" lon="-3.76053">
        <ele>224.4</ele>
        <time>2020-06-07T18:49:38Z</time>
      </trkpt>
      <trkpt lat="48.0446" lon="-3.76053">
        <ele>224.4</ele>
        <time>2020-06-07T18:49:39Z</time>
      </trkpt>
      <trkpt lat="48.0446" lon="-3.76053">
        <ele>224.4</ele>
        <time>2020-06-07T18:49:40Z</time>
      </trkpt>
      <trkpt lat="48.0446" lon="-3.76053">
        <ele>224.4</ele>
        <time>2020-06-07T18:49:41Z</time>
      </trkpt>
      <trkpt lat="48.0446" lon="-3.76053">
        <ele>224.4</ele>
        <time>2020-06-07T18:49:42Z</time>
      </trkpt>
      <trkpt lat="48.0446" lon="-3.76052">
        <ele>224.4</ele>
        <time>2020-06-07T18:49:43Z</time>
      </trkpt>
      <trkpt lat="48.0446" lon="-3.76052">
        <ele>224.4</ele>
        <time>2020-06-07T18:49:44Z</time>
      </trkpt>
      <trkpt lat="48.0446" lon="-3.76052">
        <ele>224.4</ele>
        <time>2020-06-07T18:49:45Z</time>
      </trkpt>
      <trkpt lat="48.04459" lon="-3.76053">
        <ele>224.4</ele>
        <time>2020-06-07T18:49:46Z</time>
      </trkpt>
      <trkpt lat="48.0446" lon="-3.76052">
        <ele>224.4</ele>
        <time>2020-06-07T18:49:47Z</time>
      </trkpt>
      <trkpt lat="48.04459" lon="-3.76053">
        <ele>224.4</ele>
        <time>2020-06-07T18:49:48Z</time>
      </trkpt>
      <trkpt lat="48.04469" lon="-3.76047">
        <ele>224.5</ele>
        <time>2020-06-07T18:50:08Z</time>
      </trkpt>
      <trkpt lat="48.04469" lon="-3.76047">
        <ele>224.5</ele>
        <time>2020-06-07T18:50:09Z</time>
      </trkpt>
      <trkpt lat="48.04469" lon="-3.76047">
        <ele>224.5</ele>
        <time>2020-06-07T18:50:10Z</time>
      </trkpt>
      <trkpt lat="48.04469" lon="-3.76047">
        <ele>224.5</ele>
        <time>2020-06-07T18:50:11Z</time>
      </trkpt>
      <trkpt lat="48.04469" lon="-3.76046">
        <ele>224.5</ele>
        <time>2020-06-07T18:50:12Z</time>
      </trkpt>
      <trkpt lat="48.04469" lon="-3.76046">
        <ele>224.5</ele>
        <time>2020-06-07T18:50:13Z</time>
      </trkpt>
      <trkpt lat="48.0447" lon="-3.76045">
        <ele>224.4</ele>
        <time>2020-06-07T18:50:14Z</time>
      </trkpt>
      <trkpt lat="48.0447" lon="-3.76045">
        <ele>224.4</ele>
        <time>2020-06-07T18:50:15Z</time>
      </trkpt>
      <trkpt lat="48.0447" lon="-3.76045">
        <ele>224.4</ele>
        <time>2020-06-07T18:50:16Z</time>
      </trkpt>
      <trkpt lat="48.0447" lon="-3.76045">
        <ele>224.4</ele>
        <time>2020-06-07T18:50:17Z</time>
      </trkpt>
      <trkpt lat="48.0447" lon="-3.76045">
        <ele>224.4</ele>
        <time>2020-06-07T18:50:18Z</time>
      </trkpt>
      <trkpt lat="48.04471" lon="-3.76045">
        <ele>224.4</ele>
        <time>2020-06-07T18:50:19Z</time>
      </trkpt>
      <trkpt lat="48.04471" lon="-3.76045">
        <ele>224.4</ele>
        <time>2020-06-07T18:50:20Z</time>
      </trkpt>
      <trkpt lat="48.04471" lon="-3.76045">
        <ele>224.4</ele>
        <time>2020-06-07T18:50:21Z</time>
      </trkpt>
      <trkpt lat="48.04471" lon="-3.76045">
        <ele>224.4</ele>
        <time>2020-06-07T18:50:22Z</time>
      </trkpt>
      <trkpt lat="48.04471" lon="-3.76045">
        <ele>224.4</ele>
        <time>2020-06-07T18:50:23Z</time>
      </trkpt>
      <trkpt lat="48.04472" lon="-3.76044">
        <ele>224.4</ele>
        <time>2020-06-07T18:50:24Z</time>
      </trkpt>
      <trkpt lat="48.04472" lon="-3.76043">
        <ele>224.4</ele>
        <time>2020-06-07T18:50:25Z</time>
      </trkpt>
      <trkpt lat="48.04472" lon="-3.76042">
        <ele>224.4</ele>
        <time>2020-06-07T18:50:26Z</time>
      </trkpt>
      <trkpt lat="48.04473" lon="-3.76041">
        <ele>224.4</ele>
        <time>2020-06-07T18:50:27Z</time>
      </trkpt>
      <trkpt lat="48.04473" lon="-3.7604">
        <ele>224.4</ele>
        <time>2020-06-07T18:50:28Z</time>
      </trkpt>
      <trkpt lat="48.04474" lon="-3.76039">
        <ele>224.4</ele>
        <time>2020-06-07T18:50:29Z</time>
      </trkpt>
      <trkpt lat="48.04474" lon="-3.76038">
        <ele>224.4</ele>
        <time>2020-06-07T18:50:30Z</time>
      </trkpt>
      <trkpt lat="48.04475" lon="-3.76037">
        <ele>224.3</ele>
        <time>2020-06-07T18:50:31Z</time>
      </trkpt>
      <trkpt lat="48.04478" lon="-3.76035">
        <ele>224.4</ele>
        <time>2020-06-07T18:50:32Z</time>
      </trkpt>
      <trkpt lat="48.04479" lon="-3.76034">
        <ele>224.4</ele>
        <time>2020-06-07T18:50:33Z</time>
      </trkpt>
      <trkpt lat="48.04481" lon="-3.76033">
        <ele>224.4</ele>
        <time>2020-06-07T18:50:34Z</time>
      </trkpt>
      <trkpt lat="48.04481" lon="-3.76032">
        <ele>224.3</ele>
        <time>2020-06-07T18:50:35Z</time>
      </trkpt>
      <trkpt lat="48.04481" lon="-3.76032">
        <ele>224.3</ele>
        <time>2020-06-07T18:50:36Z</time>
      </trkpt>
      <trkpt lat="48.0448" lon="-3.76032">
        <ele>224.3</ele>
        <time>2020-06-07T18:50:37Z</time>
      </trkpt>
      <trkpt lat="48.04479" lon="-3.76033">
        <ele>224.3</ele>
        <time>2020-06-07T18:50:38Z</time>
      </trkpt>
      <trkpt lat="48.04479" lon="-3.76033">
        <ele>224.3</ele>
        <time>2020-06-07T18:50:39Z</time>
      </trkpt>
      <trkpt lat="48.04478" lon="-3.76032">
        <ele>224.3</ele>
        <time>2020-06-07T18:50:40Z</time>
      </trkpt>
      <trkpt lat="48.04479" lon="-3.76031">
        <ele>224.3</ele>
        <time>2020-06-07T18:50:41Z</time>
      </trkpt>
      <trkpt lat="48.04479" lon="-3.76031">
        <ele>224.3</ele>
        <time>2020-06-07T18:50:42Z</time>
      </trkpt>
      <trkpt lat="48.04479" lon="-3.7603">
        <ele>224.3</ele>
        <time>2020-06-07T18:50:43Z</time>
      </trkpt>
      <trkpt lat="48.04479" lon="-3.76029">
        <ele>224.3</ele>
        <time>2020-06-07T18:50:44Z</time>
      </trkpt>
      <trkpt lat="48.04479" lon="-3.76029">
        <ele>224.3</ele>
        <time>2020-06-07T18:50:45Z</time>
      </trkpt>
      <trkpt lat="48.04479" lon="-3.76028">
        <ele>224.1</ele>
        <time>2020-06-07T18:50:46Z</time>
      </trkpt>
      <trkpt lat="48.04479" lon="-3.76028">
        <ele>224.1</ele>
        <time>2020-06-07T18:50:47Z</time>
      </trkpt>
      <trkpt lat="48.0448" lon="-3.76027">
        <ele>224.1</ele>
        <time>2020-06-07T18:50:48Z</time>
      </trkpt>
      <trkpt lat="48.0448" lon="-3.76026">
        <ele>224.1</ele>
        <time>2020-06-07T18:50:49Z</time>
      </trkpt>
      <trkpt lat="48.04479" lon="-3.76026">
        <ele>224.1</ele>
        <time>2020-06-07T18:50:50Z</time>
      </trkpt>
      <trkpt lat="48.0448" lon="-3.76024">
        <ele>224.1</ele>
        <time>2020-06-07T18:50:51Z</time>
      </trkpt>
      <trkpt lat="48.0448" lon="-3.76024">
        <ele>224.1</ele>
        <time>2020-06-07T18:50:52Z</time>
      </trkpt>
      <trkpt lat="48.0448" lon="-3.76024">
        <ele>224.1</ele>
        <time>2020-06-07T18:50:53Z</time>
      </trkpt>
      <trkpt lat="48.0448" lon="-3.76024">
        <ele>224.1</ele>
        <time>2020-06-07T18:50:54Z</time>
      </trkpt>
      <trkpt lat="48.04481" lon="-3.76023">
        <ele>224.1</ele>
        <time>2020-06-07T18:50:55Z</time>
      </trkpt>
      <trkpt lat="48.04483" lon="-3.76022">
        <ele>224.1</ele>
        <time>2020-06-07T18:50:56Z</time>
      </trkpt>
      <trkpt lat="48.04484" lon="-3.76022">
        <ele>224.1</ele>
        <time>2020-06-07T18:50:57Z</time>
      </trkpt>
      <trkpt lat="48.04484" lon="-3.76023">
        <ele>224.1</ele>
        <time>2020-06-07T18:50:58Z</time>
      </trkpt>
      <trkpt lat="48.04483" lon="-3.76023">
        <ele>224.1</ele>
        <time>2020-06-07T18:50:59Z</time>
      </trkpt>
      <trkpt lat="48.04484" lon="-3.76023">
        <ele>224.1</ele>
        <time>2020-06-07T18:51:00Z</time>
      </trkpt>
      <trkpt lat="48.04482" lon="-3.76023">
        <ele>224.1</ele>
        <time>2020-06-07T18:51:01Z</time>
      </trkpt>
      <trkpt lat="48.04482" lon="-3.76024">
        <ele>224.1</ele>
        <time>2020-06-07T18:51:02Z</time>
      </trkpt>
      <trkpt lat="48.04482" lon="-3.76024">
        <ele>224.2</ele>
        <time>2020-06-07T18:51:03Z</time>
      </trkpt>
      <trkpt lat="48.04482" lon="-3.76025">
        <ele>224.2</ele>
        <time>2020-06-07T18:51:04Z</time>
      </trkpt>
      <trkpt lat="48.04482" lon="-3.76024">
        <ele>224.1</ele>
        <time>2020-06-07T18:51:05Z</time>
      </trkpt>
      <trkpt lat="48.04481" lon="-3.76023">
        <ele>224.1</ele>
        <time>2020-06-07T18:51:06Z</time>
      </trkpt>
      <trkpt lat="48.04481" lon="-3.76022">
        <ele>224</ele>
        <time>2020-06-07T18:51:07Z</time>
      </trkpt>
      <trkpt lat="48.0448" lon="-3.76021">
        <ele>224</ele>
        <time>2020-06-07T18:51:08Z</time>
      </trkpt>
      <trkpt lat="48.04479" lon="-3.7602">
        <ele>224</ele>
        <time>2020-06-07T18:51:09Z</time>
      </trkpt>
      <trkpt lat="48.04478" lon="-3.76018">
        <ele>223.8</ele>
        <time>2020-06-07T18:51:10Z</time>
      </trkpt>
      <trkpt lat="48.04477" lon="-3.76018">
        <ele>223.8</ele>
        <time>2020-06-07T18:51:11Z</time>
      </trkpt>
      <trkpt lat="48.04476" lon="-3.76017">
        <ele>223.8</ele>
        <time>2020-06-07T18:51:12Z</time>
      </trkpt>
      <trkpt lat="48.04476" lon="-3.76017">
        <ele>223.8</ele>
        <time>2020-06-07T18:51:13Z</time>
      </trkpt>
      <trkpt lat="48.04477" lon="-3.76018">
        <ele>223.8</ele>
        <time>2020-06-07T18:51:14Z</time>
      </trkpt>
      <trkpt lat="48.04477" lon="-3.76018">
        <ele>223.8</ele>
        <time>2020-06-07T18:51:15Z</time>
      </trkpt>
      <trkpt lat="48.04478" lon="-3.76019">
        <ele>223.8</ele>
        <time>2020-06-07T18:51:16Z</time>
      </trkpt>
      <trkpt lat="48.04478" lon="-3.76019">
        <ele>223.9</ele>
        <time>2020-06-07T18:51:17Z</time>
      </trkpt>
      <trkpt lat="48.04479" lon="-3.7602">
        <ele>224</ele>
        <time>2020-06-07T18:51:18Z</time>
      </trkpt>
      <trkpt lat="48.0448" lon="-3.76021">
        <ele>224</ele>
        <time>2020-06-07T18:51:19Z</time>
      </trkpt>
      <trkpt lat="48.0448" lon="-3.76021">
        <ele>224</ele>
        <time>2020-06-07T18:51:20Z</time>
      </trkpt>
      <trkpt lat="48.04481" lon="-3.76022">
        <ele>224</ele>
        <time>2020-06-07T18:51:21Z</time>
      </trkpt>
      <trkpt lat="48.04481" lon="-3.76022">
        <ele>224.1</ele>
        <time>2020-06-07T18:51:22Z</time>
      </trkpt>
      <trkpt lat="48.04482" lon="-3.76023">
        <ele>224.1</ele>
        <time>2020-06-07T18:51:23Z</time>
      </trkpt>
      <trkpt lat="48.04482" lon="-3.76023">
        <ele>224.1</ele>
        <time>2020-06-07T18:51:43Z</time>
      </trkpt>
      <trkpt lat="48.04483" lon="-3.76024">
        <ele>224.1</ele>
        <time>2020-06-07T18:51:44Z</time>
      </trkpt>
      <trkpt lat="48.04484" lon="-3.76026">
        <ele>224.2</ele>
        <time>2020-06-07T18:51:45Z</time>
      </trkpt>
      <trkpt lat="48.04485" lon="-3.76027">
        <ele>224.2</ele>
        <time>2020-06-07T18:51:46Z</time>
      </trkpt>
      <trkpt lat="48.04487" lon="-3.76029">
        <ele>224.4</ele>
        <time>2020-06-07T18:51:47Z</time>
      </trkpt>
      <trkpt lat="48.04488" lon="-3.76029">
        <ele>224.4</ele>
        <time>2020-06-07T18:51:48Z</time>
      </trkpt>
      <trkpt lat="48.04489" lon="-3.7603">
        <ele>224.4</ele>
        <time>2020-06-07T18:51:49Z</time>
      </trkpt>
      <trkpt lat="48.04489" lon="-3.76031">
        <ele>224.4</ele>
        <time>2020-06-07T18:51:50Z</time>
      </trkpt>
      <trkpt lat="48.0449" lon="-3.76032">
        <ele>224.4</ele>
        <time>2020-06-07T18:51:51Z</time>
      </trkpt>
      <trkpt lat="48.0449" lon="-3.76032">
        <ele>224.4</ele>
        <time>2020-06-07T18:51:52Z</time>
      </trkpt>
      <trkpt lat="48.0449" lon="-3.76032">
        <ele>224.4</ele>
        <time>2020-06-07T18:51:53Z</time>
      </trkpt>
      <trkpt lat="48.0449" lon="-3.76032">
        <ele>224.4</ele>
        <time>2020-06-07T18:51:54Z</time>
      </trkpt>
      <trkpt lat="48.0449" lon="-3.76032">
        <ele>224.4</ele>
        <time>2020-06-07T18:51:55Z</time>
      </trkpt>
      <trkpt lat="48.0449" lon="-3.76032">
        <ele>224.4</ele>
        <time>2020-06-07T18:51:56Z</time>
      </trkpt>
      <trkpt lat="48.0449" lon="-3.76033">
        <ele>224.5</ele>
        <time>2020-06-07T18:51:57Z</time>
      </trkpt>
      <trkpt lat="48.04489" lon="-3.76033">
        <ele>224.5</ele>
        <time>2020-06-07T18:51:58Z</time>
      </trkpt>
      <trkpt lat="48.04489" lon="-3.76034">
        <ele>224.5</ele>
        <time>2020-06-07T18:51:59Z</time>
      </trkpt>
      <trkpt lat="48.04489" lon="-3.76035">
        <ele>224.5</ele>
        <time>2020-06-07T18:52:00Z</time>
      </trkpt>
      <trkpt lat="48.04488" lon="-3.76036">
        <ele>224.5</ele>
        <time>2020-06-07T18:52:01Z</time>
      </trkpt>
      <trkpt lat="48.04488" lon="-3.76037">
        <ele>224.5</ele>
        <time>2020-06-07T18:52:02Z</time>
      </trkpt>
      <trkpt lat="48.04488" lon="-3.76037">
        <ele>224.6</ele>
        <time>2020-06-07T18:52:03Z</time>
      </trkpt>
      <trkpt lat="48.04487" lon="-3.76038">
        <ele>224.6</ele>
        <time>2020-06-07T18:52:04Z</time>
      </trkpt>
      <trkpt lat="48.04487" lon="-3.76039">
        <ele>224.6</ele>
        <time>2020-06-07T18:52:05Z</time>
      </trkpt>
      <trkpt lat="48.04487" lon="-3.7604">
        <ele>224.6</ele>
        <time>2020-06-07T18:52:06Z</time>
      </trkpt>
      <trkpt lat="48.04486" lon="-3.7604">
        <ele>224.6</ele>
        <time>2020-06-07T18:52:07Z</time>
      </trkpt>
      <trkpt lat="48.04486" lon="-3.76042">
        <ele>224.7</ele>
        <time>2020-06-07T18:52:08Z</time>
      </trkpt>
      <trkpt lat="48.04486" lon="-3.76043">
        <ele>224.7</ele>
        <time>2020-06-07T18:52:09Z</time>
      </trkpt>
      <trkpt lat="48.04486" lon="-3.76044">
        <ele>224.7</ele>
        <time>2020-06-07T18:52:10Z</time>
      </trkpt>
      <trkpt lat="48.04486" lon="-3.76045">
        <ele>224.7</ele>
        <time>2020-06-07T18:52:11Z</time>
      </trkpt>
      <trkpt lat="48.04486" lon="-3.76046">
        <ele>224.7</ele>
        <time>2020-06-07T18:52:12Z</time>
      </trkpt>
      <trkpt lat="48.04486" lon="-3.76047">
        <ele>224.7</ele>
        <time>2020-06-07T18:52:13Z</time>
      </trkpt>
      <trkpt lat="48.04486" lon="-3.76048">
        <ele>224.7</ele>
        <time>2020-06-07T18:52:14Z</time>
      </trkpt>
      <trkpt lat="48.04485" lon="-3.76048">
        <ele>224.7</ele>
        <time>2020-06-07T18:52:15Z</time>
      </trkpt>
      <trkpt lat="48.04484" lon="-3.76047">
        <ele>224.7</ele>
        <time>2020-06-07T18:52:16Z</time>
      </trkpt>
      <trkpt lat="48.04484" lon="-3.76047">
        <ele>224.7</ele>
        <time>2020-06-07T18:52:17Z</time>
      </trkpt>
      <trkpt lat="48.04484" lon="-3.76047">
        <ele>224.7</ele>
        <time>2020-06-07T18:52:18Z</time>
      </trkpt>
      <trkpt lat="48.04483" lon="-3.76046">
        <ele>224.7</ele>
        <time>2020-06-07T18:52:19Z</time>
      </trkpt>
      <trkpt lat="48.04483" lon="-3.76046">
        <ele>224.7</ele>
        <time>2020-06-07T18:52:20Z</time>
      </trkpt>
      <trkpt lat="48.04483" lon="-3.76046">
        <ele>224.6</ele>
        <time>2020-06-07T18:52:21Z</time>
      </trkpt>
      <trkpt lat="48.04483" lon="-3.76045">
        <ele>224.6</ele>
        <time>2020-06-07T18:52:22Z</time>
      </trkpt>
      <trkpt lat="48.04483" lon="-3.76045">
        <ele>224.6</ele>
        <time>2020-06-07T18:52:23Z</time>
      </trkpt>
      <trkpt lat="48.04482" lon="-3.76045">
        <ele>224.6</ele>
        <time>2020-06-07T18:52:24Z</time>
      </trkpt>
      <trkpt lat="48.04482" lon="-3.76045">
        <ele>224.6</ele>
        <time>2020-06-07T18:52:25Z</time>
      </trkpt>
      <trkpt lat="48.04481" lon="-3.76046">
        <ele>224.6</ele>
        <time>2020-06-07T18:52:26Z</time>
      </trkpt>
      <trkpt lat="48.0448" lon="-3.76046">
        <ele>224.6</ele>
        <time>2020-06-07T18:52:27Z</time>
      </trkpt>
      <trkpt lat="48.0448" lon="-3.76046">
        <ele>224.7</ele>
        <time>2020-06-07T18:52:28Z</time>
      </trkpt>
      <trkpt lat="48.04479" lon="-3.76047">
        <ele>224.7</ele>
        <time>2020-06-07T18:52:29Z</time>
      </trkpt>
      <trkpt lat="48.04478" lon="-3.76048">
        <ele>224.7</ele>
        <time>2020-06-07T18:52:30Z</time>
      </trkpt>
      <trkpt lat="48.04478" lon="-3.76049">
        <ele>224.7</ele>
        <time>2020-06-07T18:52:31Z</time>
      </trkpt>
      <trkpt lat="48.04478" lon="-3.7605">
        <ele>224.6</ele>
        <time>2020-06-07T18:52:32Z</time>
      </trkpt>
      <trkpt lat="48.04477" lon="-3.76051">
        <ele>224.7</ele>
        <time>2020-06-07T18:52:33Z</time>
      </trkpt>
      <trkpt lat="48.04477" lon="-3.76052">
        <ele>224.7</ele>
        <time>2020-06-07T18:52:34Z</time>
      </trkpt>
      <trkpt lat="48.04477" lon="-3.76054">
        <ele>224.7</ele>
        <time>2020-06-07T18:52:35Z</time>
      </trkpt>
      <trkpt lat="48.04477" lon="-3.76055">
        <ele>224.7</ele>
        <time>2020-06-07T18:52:36Z</time>
      </trkpt>
      <trkpt lat="48.04477" lon="-3.76056">
        <ele>224.7</ele>
        <time>2020-06-07T18:52:37Z</time>
      </trkpt>
      <trkpt lat="48.04477" lon="-3.76057">
        <ele>224.7</ele>
        <time>2020-06-07T18:52:38Z</time>
      </trkpt>
      <trkpt lat="48.04476" lon="-3.76058">
        <ele>224.7</ele>
        <time>2020-06-07T18:52:39Z</time>
      </trkpt>
      <trkpt lat="48.04477" lon="-3.76059">
        <ele>224.8</ele>
        <time>2020-06-07T18:52:40Z</time>
      </trkpt>
      <trkpt lat="48.04477" lon="-3.76061">
        <ele>224.8</ele>
        <time>2020-06-07T18:52:41Z</time>
      </trkpt>
      <trkpt lat="48.04478" lon="-3.76062">
        <ele>224.8</ele>
        <time>2020-06-07T18:52:42Z</time>
      </trkpt>
      <trkpt lat="48.04478" lon="-3.76063">
        <ele>224.8</ele>
        <time>2020-06-07T18:52:43Z</time>
      </trkpt>
      <trkpt lat="48.04478" lon="-3.76064">
        <ele>224.8</ele>
        <time>2020-06-07T18:52:44Z</time>
      </trkpt>
      <trkpt lat="48.04478" lon="-3.76065">
        <ele>224.8</ele>
        <time>2020-06-07T18:52:45Z</time>
      </trkpt>
      <trkpt lat="48.04477" lon="-3.76066">
        <ele>224.8</ele>
        <time>2020-06-07T18:52:46Z</time>
      </trkpt>
      <trkpt lat="48.04477" lon="-3.76068">
        <ele>224.8</ele>
        <time>2020-06-07T18:52:47Z</time>
      </trkpt>
      <trkpt lat="48.04477" lon="-3.7607">
        <ele>224.8</ele>
        <time>2020-06-07T18:52:48Z</time>
      </trkpt>
      <trkpt lat="48.04477" lon="-3.7607">
        <ele>224.8</ele>
        <time>2020-06-07T18:52:49Z</time>
      </trkpt>
      <trkpt lat="48.04477" lon="-3.76072">
        <ele>224.8</ele>
        <time>2020-06-07T18:52:50Z</time>
      </trkpt>
      <trkpt lat="48.04477" lon="-3.76072">
        <ele>224.8</ele>
        <time>2020-06-07T18:52:51Z</time>
      </trkpt>
      <trkpt lat="48.04477" lon="-3.76073">
        <ele>224.8</ele>
        <time>2020-06-07T18:52:52Z</time>
      </trkpt>
      <trkpt lat="48.04477" lon="-3.76073">
        <ele>224.8</ele>
        <time>2020-06-07T18:52:53Z</time>
      </trkpt>
      <trkpt lat="48.04477" lon="-3.76073">
        <ele>224.8</ele>
        <time>2020-06-07T18:52:54Z</time>
      </trkpt>
      <trkpt lat="48.04477" lon="-3.76074">
        <ele>224.8</ele>
        <time>2020-06-07T18:52:55Z</time>
      </trkpt>
      <trkpt lat="48.04477" lon="-3.76074">
        <ele>224.8</ele>
        <time>2020-06-07T18:52:56Z</time>
      </trkpt>
      <trkpt lat="48.04476" lon="-3.76073">
        <ele>224.8</ele>
        <time>2020-06-07T18:52:57Z</time>
      </trkpt>
      <trkpt lat="48.04476" lon="-3.76071">
        <ele>224.8</ele>
        <time>2020-06-07T18:52:58Z</time>
      </trkpt>
      <trkpt lat="48.04475" lon="-3.76071">
        <ele>224.8</ele>
        <time>2020-06-07T18:52:59Z</time>
      </trkpt>
      <trkpt lat="48.04474" lon="-3.76069">
        <ele>224.7</ele>
        <time>2020-06-07T18:53:00Z</time>
      </trkpt>
      <trkpt lat="48.04474" lon="-3.76069">
        <ele>224.7</ele>
        <time>2020-06-07T18:53:01Z</time>
      </trkpt>
      <trkpt lat="48.04475" lon="-3.76068">
        <ele>224.7</ele>
        <time>2020-06-07T18:53:02Z</time>
      </trkpt>
      <trkpt lat="48.04474" lon="-3.76067">
        <ele>224.7</ele>
        <time>2020-06-07T18:53:03Z</time>
      </trkpt>
      <trkpt lat="48.04474" lon="-3.76067">
        <ele>224.7</ele>
        <time>2020-06-07T18:53:04Z</time>
      </trkpt>
      <trkpt lat="48.04474" lon="-3.76066">
        <ele>224.7</ele>
        <time>2020-06-07T18:53:05Z</time>
      </trkpt>
      <trkpt lat="48.04473" lon="-3.76064">
        <ele>224.7</ele>
        <time>2020-06-07T18:53:06Z</time>
      </trkpt>
      <trkpt lat="48.04472" lon="-3.76061">
        <ele>224.6</ele>
        <time>2020-06-07T18:53:07Z</time>
      </trkpt>
      <trkpt lat="48.04469" lon="-3.76065">
        <ele>224.6</ele>
        <time>2020-06-07T18:53:23Z</time>
      </trkpt>
      <trkpt lat="48.04469" lon="-3.76065">
        <ele>224.6</ele>
        <time>2020-06-07T18:53:24Z</time>
      </trkpt>
      <trkpt lat="48.04469" lon="-3.76065">
        <ele>224.6</ele>
        <time>2020-06-07T18:53:25Z</time>
      </trkpt>
      <trkpt lat="48.04469" lon="-3.76064">
        <ele>224.6</ele>
        <time>2020-06-07T18:53:26Z</time>
      </trkpt>
      <trkpt lat="48.04469" lon="-3.76064">
        <ele>224.6</ele>
        <time>2020-06-07T18:53:27Z</time>
      </trkpt>
      <trkpt lat="48.04469" lon="-3.76066">
        <ele>224.6</ele>
        <time>2020-06-07T18:53:28Z</time>
      </trkpt>
      <trkpt lat="48.04468" lon="-3.76067">
        <ele>224.6</ele>
        <time>2020-06-07T18:53:29Z</time>
      </trkpt>
      <trkpt lat="48.04468" lon="-3.76067">
        <ele>224.6</ele>
        <time>2020-06-07T18:53:30Z</time>
      </trkpt>
      <trkpt lat="48.04467" lon="-3.76067">
        <ele>224.6</ele>
        <time>2020-06-07T18:53:31Z</time>
      </trkpt>
      <trkpt lat="48.04467" lon="-3.76066">
        <ele>224.6</ele>
        <time>2020-06-07T18:53:32Z</time>
      </trkpt>
      <trkpt lat="48.04467" lon="-3.76066">
        <ele>224.6</ele>
        <time>2020-06-07T18:53:33Z</time>
      </trkpt>
      <trkpt lat="48.04466" lon="-3.76066">
        <ele>224.5</ele>
        <time>2020-06-07T18:53:34Z</time>
      </trkpt>
      <trkpt lat="48.04466" lon="-3.76065">
        <ele>224.5</ele>
        <time>2020-06-07T18:53:35Z</time>
      </trkpt>
      <trkpt lat="48.04466" lon="-3.76065">
        <ele>224.5</ele>
        <time>2020-06-07T18:53:36Z</time>
      </trkpt>
      <trkpt lat="48.04465" lon="-3.76064">
        <ele>224.5</ele>
        <time>2020-06-07T18:53:37Z</time>
      </trkpt>
      <trkpt lat="48.04465" lon="-3.76063">
        <ele>224.5</ele>
        <time>2020-06-07T18:53:38Z</time>
      </trkpt>
      <trkpt lat="48.04463" lon="-3.7606">
        <ele>224.5</ele>
        <time>2020-06-07T18:53:39Z</time>
      </trkpt>
      <trkpt lat="48.04461" lon="-3.76057">
        <ele>224.5</ele>
        <time>2020-06-07T18:53:40Z</time>
      </trkpt>
      <trkpt lat="48.04461" lon="-3.76056">
        <ele>224.5</ele>
        <time>2020-06-07T18:53:41Z</time>
      </trkpt>
      <trkpt lat="48.0446" lon="-3.76052">
        <ele>224.4</ele>
        <time>2020-06-07T18:53:42Z</time>
      </trkpt>
      <trkpt lat="48.04458" lon="-3.76049">
        <ele>224.3</ele>
        <time>2020-06-07T18:53:43Z</time>
      </trkpt>
      <trkpt lat="48.04458" lon="-3.76049">
        <ele>224.3</ele>
        <time>2020-06-07T18:53:44Z</time>
      </trkpt>
      <trkpt lat="48.04458" lon="-3.76049">
        <ele>224.3</ele>
        <time>2020-06-07T18:53:45Z</time>
      </trkpt>
      <trkpt lat="48.04458" lon="-3.76049">
        <ele>224.3</ele>
        <time>2020-06-07T18:53:46Z</time>
      </trkpt>
      <trkpt lat="48.0446" lon="-3.76051">
        <ele>224.4</ele>
        <time>2020-06-07T18:53:47Z</time>
      </trkpt>
      <trkpt lat="48.0446" lon="-3.76051">
        <ele>224.4</ele>
        <time>2020-06-07T18:53:48Z</time>
      </trkpt>
      <trkpt lat="48.0446" lon="-3.7605">
        <ele>224.4</ele>
        <time>2020-06-07T18:53:49Z</time>
      </trkpt>
      <trkpt lat="48.0446" lon="-3.7605">
        <ele>224.4</ele>
        <time>2020-06-07T18:53:50Z</time>
      </trkpt>
      <trkpt lat="48.0446" lon="-3.76051">
        <ele>224.4</ele>
        <time>2020-06-07T18:53:51Z</time>
      </trkpt>
      <trkpt lat="48.0446" lon="-3.76051">
        <ele>224.4</ele>
        <time>2020-06-07T18:53:52Z</time>
      </trkpt>
      <trkpt lat="48.04462" lon="-3.7605">
        <ele>224.4</ele>
        <time>2020-06-07T18:53:53Z</time>
      </trkpt>
      <trkpt lat="48.04462" lon="-3.76051">
        <ele>224.4</ele>
        <time>2020-06-07T18:53:54Z</time>
      </trkpt>
      <trkpt lat="48.04463" lon="-3.76052">
        <ele>224.4</ele>
        <time>2020-06-07T18:53:55Z</time>
      </trkpt>
      <trkpt lat="48.04464" lon="-3.7605">
        <ele>224.5</ele>
        <time>2020-06-07T18:53:56Z</time>
      </trkpt>
      <trkpt lat="48.04465" lon="-3.76049">
        <ele>224.4</ele>
        <time>2020-06-07T18:53:57Z</time>
      </trkpt>
      <trkpt lat="48.04467" lon="-3.76047">
        <ele>224.5</ele>
        <time>2020-06-07T18:53:58Z</time>
      </trkpt>
      <trkpt lat="48.04467" lon="-3.76045">
        <ele>224.4</ele>
        <time>2020-06-07T18:53:59Z</time>
      </trkpt>
      <trkpt lat="48.04468" lon="-3.76044">
        <ele>224.4</ele>
        <time>2020-06-07T18:54:00Z</time>
      </trkpt>
      <trkpt lat="48.04471" lon="-3.76042">
        <ele>224.4</ele>
        <time>2020-06-07T18:54:01Z</time>
      </trkpt>
      <trkpt lat="48.04472" lon="-3.76041">
        <ele>224.3</ele>
        <time>2020-06-07T18:54:02Z</time>
      </trkpt>
      <trkpt lat="48.04475" lon="-3.76038">
        <ele>224.4</ele>
        <time>2020-06-07T18:54:03Z</time>
      </trkpt>
      <trkpt lat="48.04476" lon="-3.76037">
        <ele>224.3</ele>
        <time>2020-06-07T18:54:04Z</time>
      </trkpt>
      <trkpt lat="48.0448" lon="-3.76034">
        <ele>224.4</ele>
        <time>2020-06-07T18:54:05Z</time>
      </trkpt>
      <trkpt lat="48.04481" lon="-3.76033">
        <ele>224.3</ele>
        <time>2020-06-07T18:54:06Z</time>
      </trkpt>
      <trkpt lat="48.04484" lon="-3.7603">
        <ele>224.3</ele>
        <time>2020-06-07T18:54:07Z</time>
      </trkpt>
      <trkpt lat="48.04484" lon="-3.76029">
        <ele>224.4</ele>
        <time>2020-06-07T18:54:08Z</time>
      </trkpt>
      <trkpt lat="48.04485" lon="-3.76028">
        <ele>224.2</ele>
        <time>2020-06-07T18:54:09Z</time>
      </trkpt>
      <trkpt lat="48.04484" lon="-3.76028">
        <ele>224.2</ele>
        <time>2020-06-07T18:54:10Z</time>
      </trkpt>
      <trkpt lat="48.04484" lon="-3.76027">
        <ele>224.2</ele>
        <time>2020-06-07T18:54:11Z</time>
      </trkpt>
      <trkpt lat="48.04484" lon="-3.76025">
        <ele>224.2</ele>
        <time>2020-06-07T18:54:12Z</time>
      </trkpt>
      <trkpt lat="48.04484" lon="-3.76025">
        <ele>224.2</ele>
        <time>2020-06-07T18:54:13Z</time>
      </trkpt>
      <trkpt lat="48.04484" lon="-3.76024">
        <ele>224.1</ele>
        <time>2020-06-07T18:54:14Z</time>
      </trkpt>
      <trkpt lat="48.04484" lon="-3.76024">
        <ele>224.1</ele>
        <time>2020-06-07T18:54:15Z</time>
      </trkpt>
      <trkpt lat="48.04483" lon="-3.76024">
        <ele>224.2</ele>
        <time>2020-06-07T18:54:16Z</time>
      </trkpt>
      <trkpt lat="48.04482" lon="-3.76025">
        <ele>224.2</ele>
        <time>2020-06-07T18:54:17Z</time>
      </trkpt>
      <trkpt lat="48.04481" lon="-3.76025">
        <ele>224.1</ele>
        <time>2020-06-07T18:54:18Z</time>
      </trkpt>
      <trkpt lat="48.0448" lon="-3.76026">
        <ele>224.1</ele>
        <time>2020-06-07T18:54:19Z</time>
      </trkpt>
      <trkpt lat="48.0448" lon="-3.76024">
        <ele>224</ele>
        <time>2020-06-07T18:54:20Z</time>
      </trkpt>
      <trkpt lat="48.04479" lon="-3.76024">
        <ele>224</ele>
        <time>2020-06-07T18:54:21Z</time>
      </trkpt>
      <trkpt lat="48.04479" lon="-3.76027">
        <ele>224.1</ele>
        <time>2020-06-07T18:54:22Z</time>
      </trkpt>
      <trkpt lat="48.04478" lon="-3.7603">
        <ele>224.2</ele>
        <time>2020-06-07T18:54:23Z</time>
      </trkpt>
      <trkpt lat="48.04478" lon="-3.76031">
        <ele>224.2</ele>
        <time>2020-06-07T18:54:24Z</time>
      </trkpt>
      <trkpt lat="48.04477" lon="-3.76032">
        <ele>224.2</ele>
        <time>2020-06-07T18:54:25Z</time>
      </trkpt>
      <trkpt lat="48.04476" lon="-3.76033">
        <ele>224.3</ele>
        <time>2020-06-07T18:54:26Z</time>
      </trkpt>
      <trkpt lat="48.04476" lon="-3.76033">
        <ele>224.3</ele>
        <time>2020-06-07T18:54:27Z</time>
      </trkpt>
      <trkpt lat="48.04475" lon="-3.76034">
        <ele>224.3</ele>
        <time>2020-06-07T18:54:28Z</time>
      </trkpt>
      <trkpt lat="48.04475" lon="-3.76035">
        <ele>224.3</ele>
        <time>2020-06-07T18:54:29Z</time>
      </trkpt>
      <trkpt lat="48.04474" lon="-3.76036">
        <ele>224.3</ele>
        <time>2020-06-07T18:54:30Z</time>
      </trkpt>
      <trkpt lat="48.04473" lon="-3.76037">
        <ele>224.3</ele>
        <time>2020-06-07T18:54:31Z</time>
      </trkpt>
      <trkpt lat="48.04473" lon="-3.76038">
        <ele>224.4</ele>
        <time>2020-06-07T18:54:32Z</time>
      </trkpt>
      <trkpt lat="48.04472" lon="-3.76039">
        <ele>224.3</ele>
        <time>2020-06-07T18:54:33Z</time>
      </trkpt>
      <trkpt lat="48.04471" lon="-3.76041">
        <ele>224.3</ele>
        <time>2020-06-07T18:54:34Z</time>
      </trkpt>
      <trkpt lat="48.04471" lon="-3.76041">
        <ele>224.3</ele>
        <time>2020-06-07T18:54:35Z</time>
      </trkpt>
      <trkpt lat="48.0447" lon="-3.76042">
        <ele>224.4</ele>
        <time>2020-06-07T18:54:36Z</time>
      </trkpt>
      <trkpt lat="48.04469" lon="-3.76039">
        <ele>224.3</ele>
        <time>2020-06-07T18:54:39Z</time>
      </trkpt>
      <trkpt lat="48.04469" lon="-3.76038">
        <ele>224.3</ele>
        <time>2020-06-07T18:54:40Z</time>
      </trkpt>
      <trkpt lat="48.04469" lon="-3.76038">
        <ele>224.3</ele>
        <time>2020-06-07T18:54:41Z</time>
      </trkpt>
      <trkpt lat="48.04469" lon="-3.76038">
        <ele>224.3</ele>
        <time>2020-06-07T18:54:42Z</time>
      </trkpt>
      <trkpt lat="48.04469" lon="-3.7604">
        <ele>224.3</ele>
        <time>2020-06-07T18:54:43Z</time>
      </trkpt>
      <trkpt lat="48.04469" lon="-3.76041">
        <ele>224.3</ele>
        <time>2020-06-07T18:54:44Z</time>
      </trkpt>
      <trkpt lat="48.0447" lon="-3.76042">
        <ele>224.4</ele>
        <time>2020-06-07T18:54:45Z</time>
      </trkpt>
      <trkpt lat="48.0447" lon="-3.76042">
        <ele>224.4</ele>
        <time>2020-06-07T18:54:46Z</time>
      </trkpt>
      <trkpt lat="48.04469" lon="-3.76042">
        <ele>224.4</ele>
        <time>2020-06-07T18:54:47Z</time>
      </trkpt>
      <trkpt lat="48.04469" lon="-3.76041">
        <ele>224.3</ele>
        <time>2020-06-07T18:54:48Z</time>
      </trkpt>
      <trkpt lat="48.04469" lon="-3.76042">
        <ele>224.4</ele>
        <time>2020-06-07T18:54:49Z</time>
      </trkpt>
      <trkpt lat="48.04469" lon="-3.76041">
        <ele>224.3</ele>
        <time>2020-06-07T18:54:50Z</time>
      </trkpt>
      <trkpt lat="48.04469" lon="-3.76041">
        <ele>224.3</ele>
        <time>2020-06-07T18:54:51Z</time>
      </trkpt>
      <trkpt lat="48.04469" lon="-3.76041">
        <ele>224.3</ele>
        <time>2020-06-07T18:54:52Z</time>
      </trkpt>
      <trkpt lat="48.04469" lon="-3.76042">
        <ele>224.4</ele>
        <time>2020-06-07T18:54:53Z</time>
      </trkpt>
      <trkpt lat="48.04468" lon="-3.76042">
        <ele>224.4</ele>
        <time>2020-06-07T18:54:54Z</time>
      </trkpt>
      <trkpt lat="48.04468" lon="-3.76043">
        <ele>224.4</ele>
        <time>2020-06-07T18:54:55Z</time>
      </trkpt>
      <trkpt lat="48.04467" lon="-3.76044">
        <ele>224.4</ele>
        <time>2020-06-07T18:54:56Z</time>
      </trkpt>
      <trkpt lat="48.04466" lon="-3.76044">
        <ele>224.3</ele>
        <time>2020-06-07T18:54:57Z</time>
      </trkpt>
      <trkpt lat="48.04465" lon="-3.76045">
        <ele>224.3</ele>
        <time>2020-06-07T18:54:58Z</time>
      </trkpt>
      <trkpt lat="48.04464" lon="-3.76045">
        <ele>224.3</ele>
        <time>2020-06-07T18:54:59Z</time>
      </trkpt>
      <trkpt lat="48.04463" lon="-3.76045">
        <ele>224.3</ele>
        <time>2020-06-07T18:55:00Z</time>
      </trkpt>
      <trkpt lat="48.04462" lon="-3.76046">
        <ele>224.4</ele>
        <time>2020-06-07T18:55:01Z</time>
      </trkpt>
      <trkpt lat="48.04461" lon="-3.76047">
        <ele>224.4</ele>
        <time>2020-06-07T18:55:02Z</time>
      </trkpt>
      <trkpt lat="48.04462" lon="-3.76047">
        <ele>224.4</ele>
        <time>2020-06-07T18:55:03Z</time>
      </trkpt>
      <trkpt lat="48.04461" lon="-3.76048">
        <ele>224.4</ele>
        <time>2020-06-07T18:55:04Z</time>
      </trkpt>
      <trkpt lat="48.04461" lon="-3.76048">
        <ele>224.4</ele>
        <time>2020-06-07T18:55:05Z</time>
      </trkpt>
      <trkpt lat="48.04461" lon="-3.76048">
        <ele>224.4</ele>
        <time>2020-06-07T18:55:06Z</time>
      </trkpt>
      <trkpt lat="48.04461" lon="-3.76049">
        <ele>224.3</ele>
        <time>2020-06-07T18:55:07Z</time>
      </trkpt>
      <trkpt lat="48.0446" lon="-3.76049">
        <ele>224.3</ele>
        <time>2020-06-07T18:55:08Z</time>
      </trkpt>
      <trkpt lat="48.0446" lon="-3.7605">
        <ele>224.3</ele>
        <time>2020-06-07T18:55:09Z</time>
      </trkpt>
      <trkpt lat="48.0446" lon="-3.7605">
        <ele>224.4</ele>
        <time>2020-06-07T18:55:10Z</time>
      </trkpt>
      <trkpt lat="48.04459" lon="-3.7605">
        <ele>224.4</ele>
        <time>2020-06-07T18:55:11Z</time>
      </trkpt>
      <trkpt lat="48.04459" lon="-3.7605">
        <ele>224.4</ele>
        <time>2020-06-07T18:55:12Z</time>
      </trkpt>
      <trkpt lat="48.04459" lon="-3.76051">
        <ele>224.4</ele>
        <time>2020-06-07T18:55:13Z</time>
      </trkpt>
      <trkpt lat="48.04458" lon="-3.76051">
        <ele>224.4</ele>
        <time>2020-06-07T18:55:14Z</time>
      </trkpt>
      <trkpt lat="48.04458" lon="-3.76051">
        <ele>224.4</ele>
        <time>2020-06-07T18:55:15Z</time>
      </trkpt>
      <trkpt lat="48.04458" lon="-3.76051">
        <ele>224.4</ele>
        <time>2020-06-07T18:55:16Z</time>
      </trkpt>
      <trkpt lat="48.04458" lon="-3.76051">
        <ele>224.4</ele>
        <time>2020-06-07T18:55:17Z</time>
      </trkpt>
      <trkpt lat="48.04459" lon="-3.76051">
        <ele>224.4</ele>
        <time>2020-06-07T18:55:18Z</time>
      </trkpt>
      <trkpt lat="48.04459" lon="-3.76051">
        <ele>224.4</ele>
        <time>2020-06-07T18:55:19Z</time>
      </trkpt>
      <trkpt lat="48.04459" lon="-3.76049">
        <ele>224.3</ele>
        <time>2020-06-07T18:55:20Z</time>
      </trkpt>
      <trkpt lat="48.04459" lon="-3.76048">
        <ele>224.3</ele>
        <time>2020-06-07T18:55:21Z</time>
      </trkpt>
      <trkpt lat="48.04459" lon="-3.76048">
        <ele>224.3</ele>
        <time>2020-06-07T18:55:22Z</time>
      </trkpt>
      <trkpt lat="48.04459" lon="-3.76047">
        <ele>224.3</ele>
        <time>2020-06-07T18:55:23Z</time>
      </trkpt>
      <trkpt lat="48.0446" lon="-3.76047">
        <ele>224.3</ele>
        <time>2020-06-07T18:55:24Z</time>
      </trkpt>
      <trkpt lat="48.0446" lon="-3.76046">
        <ele>224.3</ele>
        <time>2020-06-07T18:55:25Z</time>
      </trkpt>
      <trkpt lat="48.04461" lon="-3.76044">
        <ele>224.3</ele>
        <time>2020-06-07T18:55:26Z</time>
      </trkpt>
      <trkpt lat="48.04462" lon="-3.76042">
        <ele>224.3</ele>
        <time>2020-06-07T18:55:27Z</time>
      </trkpt>
      <trkpt lat="48.04463" lon="-3.76041">
        <ele>224.2</ele>
        <time>2020-06-07T18:55:28Z</time>
      </trkpt>
      <trkpt lat="48.04464" lon="-3.7604">
        <ele>224.2</ele>
        <time>2020-06-07T18:55:29Z</time>
      </trkpt>
      <trkpt lat="48.04465" lon="-3.76039">
        <ele>224.2</ele>
        <time>2020-06-07T18:55:30Z</time>
      </trkpt>
      <trkpt lat="48.04465" lon="-3.76039">
        <ele>224.2</ele>
        <time>2020-06-07T18:55:31Z</time>
      </trkpt>
      <trkpt lat="48.04466" lon="-3.76039">
        <ele>224.2</ele>
        <time>2020-06-07T18:55:32Z</time>
      </trkpt>
      <trkpt lat="48.04465" lon="-3.76039">
        <ele>224.2</ele>
        <time>2020-06-07T18:55:33Z</time>
      </trkpt>
      <trkpt lat="48.04465" lon="-3.7604">
        <ele>224.2</ele>
        <time>2020-06-07T18:55:34Z</time>
      </trkpt>
      <trkpt lat="48.04465" lon="-3.7604">
        <ele>224.2</ele>
        <time>2020-06-07T18:55:35Z</time>
      </trkpt>
      <trkpt lat="48.04465" lon="-3.76041">
        <ele>224.2</ele>
        <time>2020-06-07T18:55:36Z</time>
      </trkpt>
      <trkpt lat="48.04465" lon="-3.76041">
        <ele>224.2</ele>
        <time>2020-06-07T18:55:37Z</time>
      </trkpt>
      <trkpt lat="48.04465" lon="-3.76042">
        <ele>224.3</ele>
        <time>2020-06-07T18:55:38Z</time>
      </trkpt>
      <trkpt lat="48.04465" lon="-3.76043">
        <ele>224.3</ele>
        <time>2020-06-07T18:55:39Z</time>
      </trkpt>
      <trkpt lat="48.04465" lon="-3.76043">
        <ele>224.3</ele>
        <time>2020-06-07T18:55:40Z</time>
      </trkpt>
      <trkpt lat="48.04464" lon="-3.76044">
        <ele>224.3</ele>
        <time>2020-06-07T18:55:41Z</time>
      </trkpt>
      <trkpt lat="48.04463" lon="-3.76046">
        <ele>224.3</ele>
        <time>2020-06-07T18:55:42Z</time>
      </trkpt>
      <trkpt lat="48.04463" lon="-3.76047">
        <ele>224.4</ele>
        <time>2020-06-07T18:55:43Z</time>
      </trkpt>
      <trkpt lat="48.04462" lon="-3.76047">
        <ele>224.4</ele>
        <time>2020-06-07T18:55:44Z</time>
      </trkpt>
      <trkpt lat="48.04461" lon="-3.76049">
        <ele>224.4</ele>
        <time>2020-06-07T18:55:45Z</time>
      </trkpt>
      <trkpt lat="48.0446" lon="-3.7605">
        <ele>224.3</ele>
        <time>2020-06-07T18:55:46Z</time>
      </trkpt>
      <trkpt lat="48.0446" lon="-3.7605">
        <ele>224.3</ele>
        <time>2020-06-07T18:55:47Z</time>
      </trkpt>
      <trkpt lat="48.0446" lon="-3.76051">
        <ele>224.4</ele>
        <time>2020-06-07T18:55:48Z</time>
      </trkpt>
      <trkpt lat="48.0446" lon="-3.76051">
        <ele>224.4</ele>
        <time>2020-06-07T18:55:49Z</time>
      </trkpt>
      <trkpt lat="48.04459" lon="-3.76051">
        <ele>224.4</ele>
        <time>2020-06-07T18:55:50Z</time>
      </trkpt>
      <trkpt lat="48.04459" lon="-3.7605">
        <ele>224.4</ele>
        <time>2020-06-07T18:55:51Z</time>
      </trkpt>
      <trkpt lat="48.04459" lon="-3.76051">
        <ele>224.4</ele>
        <time>2020-06-07T18:55:52Z</time>
      </trkpt>
      <trkpt lat="48.04459" lon="-3.76051">
        <ele>224.4</ele>
        <time>2020-06-07T18:55:53Z</time>
      </trkpt>
      <trkpt lat="48.04459" lon="-3.76051">
        <ele>224.4</ele>
        <time>2020-06-07T18:55:54Z</time>
      </trkpt>
      <trkpt lat="48.04459" lon="-3.76052">
        <ele>224.4</ele>
        <time>2020-06-07T18:55:55Z</time>
      </trkpt>
      <trkpt lat="48.04459" lon="-3.76052">
        <ele>224.4</ele>
        <time>2020-06-07T18:55:56Z</time>
      </trkpt>
      <trkpt lat="48.04459" lon="-3.76052">
        <ele>224.4</ele>
        <time>2020-06-07T18:55:57Z</time>
      </trkpt>
      <trkpt lat="48.04459" lon="-3.76052">
        <ele>224.4</ele>
        <time>2020-06-07T18:55:58Z</time>
      </trkpt>
      <trkpt lat="48.04459" lon="-3.76052">
        <ele>224.4</ele>
        <time>2020-06-07T18:55:59Z</time>
      </trkpt>
      <trkpt lat="48.0446" lon="-3.76053">
        <ele>224.4</ele>
        <time>2020-06-07T18:56:00Z</time>
      </trkpt>
      <trkpt lat="48.0446" lon="-3.76054">
        <ele>224.4</ele>
        <time>2020-06-07T18:56:01Z</time>
      </trkpt>
      <trkpt lat="48.0446" lon="-3.76054">
        <ele>224.4</ele>
        <time>2020-06-07T18:56:02Z</time>
      </trkpt>
      <trkpt lat="48.04461" lon="-3.76055">
        <ele>224.4</ele>
        <time>2020-06-07T18:56:03Z</time>
      </trkpt>
      <trkpt lat="48.04461" lon="-3.76056">
        <ele>224.4</ele>
        <time>2020-06-07T18:56:04Z</time>
      </trkpt>
      <trkpt lat="48.04461" lon="-3.76056">
        <ele>224.4</ele>
        <time>2020-06-07T18:56:05Z</time>
      </trkpt>
      <trkpt lat="48.04461" lon="-3.76057">
        <ele>224.5</ele>
        <time>2020-06-07T18:56:06Z</time>
      </trkpt>
      <trkpt lat="48.04461" lon="-3.76059">
        <ele>224.5</ele>
        <time>2020-06-07T18:56:07Z</time>
      </trkpt>
      <trkpt lat="48.04462" lon="-3.7606">
        <ele>224.5</ele>
        <time>2020-06-07T18:56:08Z</time>
      </trkpt>
      <trkpt lat="48.04463" lon="-3.7606">
        <ele>224.5</ele>
        <time>2020-06-07T18:56:09Z</time>
      </trkpt>
      <trkpt lat="48.04463" lon="-3.7606">
        <ele>224.5</ele>
        <time>2020-06-07T18:56:10Z</time>
      </trkpt>
      <trkpt lat="48.04463" lon="-3.7606">
        <ele>224.5</ele>
        <time>2020-06-07T18:56:11Z</time>
      </trkpt>
      <trkpt lat="48.04464" lon="-3.76061">
        <ele>224.5</ele>
        <time>2020-06-07T18:56:12Z</time>
      </trkpt>
      <trkpt lat="48.04464" lon="-3.7606">
        <ele>224.5</ele>
        <time>2020-06-07T18:56:13Z</time>
      </trkpt>
      <trkpt lat="48.04464" lon="-3.7606">
        <ele>224.5</ele>
        <time>2020-06-07T18:56:14Z</time>
      </trkpt>
      <trkpt lat="48.04463" lon="-3.7606">
        <ele>224.5</ele>
        <time>2020-06-07T18:56:15Z</time>
      </trkpt>
      <trkpt lat="48.04463" lon="-3.76059">
        <ele>224.5</ele>
        <time>2020-06-07T18:56:16Z</time>
      </trkpt>
      <trkpt lat="48.04463" lon="-3.76059">
        <ele>224.5</ele>
        <time>2020-06-07T18:56:17Z</time>
      </trkpt>
      <trkpt lat="48.04463" lon="-3.7606">
        <ele>224.5</ele>
        <time>2020-06-07T18:56:18Z</time>
      </trkpt>
      <trkpt lat="48.04462" lon="-3.76059">
        <ele>224.5</ele>
        <time>2020-06-07T18:56:19Z</time>
      </trkpt>
      <trkpt lat="48.04463" lon="-3.7606">
        <ele>224.5</ele>
        <time>2020-06-07T18:56:20Z</time>
      </trkpt>
      <trkpt lat="48.04463" lon="-3.76061">
        <ele>224.5</ele>
        <time>2020-06-07T18:56:21Z</time>
      </trkpt>
      <trkpt lat="48.04463" lon="-3.76061">
        <ele>224.5</ele>
        <time>2020-06-07T18:56:22Z</time>
      </trkpt>
      <trkpt lat="48.04463" lon="-3.76061">
        <ele>224.5</ele>
        <time>2020-06-07T18:56:23Z</time>
      </trkpt>
      <trkpt lat="48.04462" lon="-3.76061">
        <ele>224.5</ele>
        <time>2020-06-07T18:56:24Z</time>
      </trkpt>
      <trkpt lat="48.04462" lon="-3.76061">
        <ele>224.5</ele>
        <time>2020-06-07T18:56:25Z</time>
      </trkpt>
      <trkpt lat="48.04462" lon="-3.76061">
        <ele>224.5</ele>
        <time>2020-06-07T18:56:26Z</time>
      </trkpt>
      <trkpt lat="48.04461" lon="-3.7606">
        <ele>224.5</ele>
        <time>2020-06-07T18:56:27Z</time>
      </trkpt>
      <trkpt lat="48.04461" lon="-3.7606">
        <ele>224.5</ele>
        <time>2020-06-07T18:56:28Z</time>
      </trkpt>
      <trkpt lat="48.0446" lon="-3.76059">
        <ele>224.4</ele>
        <time>2020-06-07T18:56:29Z</time>
      </trkpt>
      <trkpt lat="48.04461" lon="-3.76058">
        <ele>224.4</ele>
        <time>2020-06-07T18:56:30Z</time>
      </trkpt>
      <trkpt lat="48.04461" lon="-3.76056">
        <ele>224.5</ele>
        <time>2020-06-07T18:56:31Z</time>
      </trkpt>
      <trkpt lat="48.04462" lon="-3.76055">
        <ele>224.5</ele>
        <time>2020-06-07T18:56:32Z</time>
      </trkpt>
      <trkpt lat="48.04463" lon="-3.76054">
        <ele>224.5</ele>
        <time>2020-06-07T18:56:33Z</time>
      </trkpt>
      <trkpt lat="48.04464" lon="-3.76054">
        <ele>224.5</ele>
        <time>2020-06-07T18:56:34Z</time>
      </trkpt>
      <trkpt lat="48.04464" lon="-3.76053">
        <ele>224.5</ele>
        <time>2020-06-07T18:56:35Z</time>
      </trkpt>
      <trkpt lat="48.04464" lon="-3.76053">
        <ele>224.4</ele>
        <time>2020-06-07T18:56:36Z</time>
      </trkpt>
      <trkpt lat="48.04464" lon="-3.76053">
        <ele>224.5</ele>
        <time>2020-06-07T18:56:37Z</time>
      </trkpt>
      <trkpt lat="48.04464" lon="-3.76053">
        <ele>224.4</ele>
        <time>2020-06-07T18:56:38Z</time>
      </trkpt>
      <trkpt lat="48.04463" lon="-3.76053">
        <ele>224.4</ele>
        <time>2020-06-07T18:56:39Z</time>
      </trkpt>
      <trkpt lat="48.04463" lon="-3.76053">
        <ele>224.4</ele>
        <time>2020-06-07T18:56:40Z</time>
      </trkpt>
      <trkpt lat="48.04463" lon="-3.76053">
        <ele>224.4</ele>
        <time>2020-06-07T18:56:41Z</time>
      </trkpt>
      <trkpt lat="48.04463" lon="-3.76054">
        <ele>224.4</ele>
        <time>2020-06-07T18:56:42Z</time>
      </trkpt>
      <trkpt lat="48.04463" lon="-3.76054">
        <ele>224.4</ele>
        <time>2020-06-07T18:56:43Z</time>
      </trkpt>
      <trkpt lat="48.04464" lon="-3.76054">
        <ele>224.5</ele>
        <time>2020-06-07T18:56:44Z</time>
      </trkpt>
      <trkpt lat="48.04463" lon="-3.76054">
        <ele>224.4</ele>
        <time>2020-06-07T18:56:45Z</time>
      </trkpt>
      <trkpt lat="48.04469" lon="-3.76042">
        <ele>224.4</ele>
        <time>2020-06-07T18:57:47Z</time>
      </trkpt>
      <trkpt lat="48.04468" lon="-3.76041">
        <ele>224.3</ele>
        <time>2020-06-07T18:57:48Z</time>
      </trkpt>
      <trkpt lat="48.04469" lon="-3.76041">
        <ele>224.3</ele>
        <time>2020-06-07T18:57:49Z</time>
      </trkpt>
      <trkpt lat="48.0447" lon="-3.76041">
        <ele>224.3</ele>
        <time>2020-06-07T18:57:50Z</time>
      </trkpt>
      <trkpt lat="48.04471" lon="-3.7604">
        <ele>224.3</ele>
        <time>2020-06-07T18:57:51Z</time>
      </trkpt>
      <trkpt lat="48.04471" lon="-3.7604">
        <ele>224.3</ele>
        <time>2020-06-07T18:57:52Z</time>
      </trkpt>
      <trkpt lat="48.04471" lon="-3.76041">
        <ele>224.3</ele>
        <time>2020-06-07T18:57:53Z</time>
      </trkpt>
      <trkpt lat="48.04471" lon="-3.76041">
        <ele>224.3</ele>
        <time>2020-06-07T18:57:54Z</time>
      </trkpt>
      <trkpt lat="48.04471" lon="-3.76041">
        <ele>224.3</ele>
        <time>2020-06-07T18:57:55Z</time>
      </trkpt>
      <trkpt lat="48.0447" lon="-3.76041">
        <ele>224.3</ele>
        <time>2020-06-07T18:57:56Z</time>
      </trkpt>
      <trkpt lat="48.0447" lon="-3.76041">
        <ele>224.3</ele>
        <time>2020-06-07T18:57:57Z</time>
      </trkpt>
      <trkpt lat="48.0447" lon="-3.76041">
        <ele>224.3</ele>
        <time>2020-06-07T18:57:58Z</time>
      </trkpt>
      <trkpt lat="48.0447" lon="-3.7604">
        <ele>224.3</ele>
        <time>2020-06-07T18:57:59Z</time>
      </trkpt>
      <trkpt lat="48.04471" lon="-3.76041">
        <ele>224.3</ele>
        <time>2020-06-07T18:58:00Z</time>
      </trkpt>
      <trkpt lat="48.04471" lon="-3.76042">
        <ele>224.4</ele>
        <time>2020-06-07T18:58:01Z</time>
      </trkpt>
      <trkpt lat="48.04471" lon="-3.76043">
        <ele>224.4</ele>
        <time>2020-06-07T18:58:02Z</time>
      </trkpt>
      <trkpt lat="48.04471" lon="-3.76043">
        <ele>224.4</ele>
        <time>2020-06-07T18:58:03Z</time>
      </trkpt>
      <trkpt lat="48.0447" lon="-3.76043">
        <ele>224.4</ele>
        <time>2020-06-07T18:58:04Z</time>
      </trkpt>
      <trkpt lat="48.04471" lon="-3.76044">
        <ele>224.4</ele>
        <time>2020-06-07T18:58:05Z</time>
      </trkpt>
      <trkpt lat="48.04471" lon="-3.76043">
        <ele>224.4</ele>
        <time>2020-06-07T18:58:06Z</time>
      </trkpt>
      <trkpt lat="48.0447" lon="-3.76043">
        <ele>224.4</ele>
        <time>2020-06-07T18:58:07Z</time>
      </trkpt>
      <trkpt lat="48.0447" lon="-3.76043">
        <ele>224.4</ele>
        <time>2020-06-07T18:58:08Z</time>
      </trkpt>
      <trkpt lat="48.0447" lon="-3.76043">
        <ele>224.4</ele>
        <time>2020-06-07T18:58:09Z</time>
      </trkpt>
      <trkpt lat="48.0447" lon="-3.76043">
        <ele>224.4</ele>
        <time>2020-06-07T18:58:10Z</time>
      </trkpt>
      <trkpt lat="48.0447" lon="-3.76043">
        <ele>224.4</ele>
        <time>2020-06-07T18:58:11Z</time>
      </trkpt>
      <trkpt lat="48.04471" lon="-3.76043">
        <ele>224.4</ele>
        <time>2020-06-07T18:58:12Z</time>
      </trkpt>
      <trkpt lat="48.04471" lon="-3.76043">
        <ele>224.4</ele>
        <time>2020-06-07T18:58:13Z</time>
      </trkpt>
      <trkpt lat="48.04471" lon="-3.76044">
        <ele>224.4</ele>
        <time>2020-06-07T18:58:14Z</time>
      </trkpt>
      <trkpt lat="48.04471" lon="-3.76044">
        <ele>224.4</ele>
        <time>2020-06-07T18:58:15Z</time>
      </trkpt>
      <trkpt lat="48.04463" lon="-3.76036">
        <ele>224.1</ele>
        <time>2020-06-07T18:59:04Z</time>
      </trkpt>
      <trkpt lat="48.04462" lon="-3.76036">
        <ele>224.1</ele>
        <time>2020-06-07T18:59:05Z</time>
      </trkpt>
      <trkpt lat="48.04461" lon="-3.76037">
        <ele>224.1</ele>
        <time>2020-06-07T18:59:06Z</time>
      </trkpt>
      <trkpt lat="48.04461" lon="-3.76037">
        <ele>224.1</ele>
        <time>2020-06-07T18:59:07Z</time>
      </trkpt>
      <trkpt lat="48.04461" lon="-3.76037">
        <ele>224.2</ele>
        <time>2020-06-07T18:59:08Z</time>
      </trkpt>
      <trkpt lat="48.04461" lon="-3.76038">
        <ele>224.2</ele>
        <time>2020-06-07T18:59:09Z</time>
      </trkpt>
      <trkpt lat="48.04461" lon="-3.76038">
        <ele>224.2</ele>
        <time>2020-06-07T18:59:10Z</time>
      </trkpt>
      <trkpt lat="48.04461" lon="-3.76039">
        <ele>224.2</ele>
        <time>2020-06-07T18:59:11Z</time>
      </trkpt>
      <trkpt lat="48.04462" lon="-3.7604">
        <ele>224.2</ele>
        <time>2020-06-07T18:59:12Z</time>
      </trkpt>
      <trkpt lat="48.04463" lon="-3.7604">
        <ele>224.2</ele>
        <time>2020-06-07T18:59:13Z</time>
      </trkpt>
      <trkpt lat="48.04463" lon="-3.7604">
        <ele>224.2</ele>
        <time>2020-06-07T18:59:14Z</time>
      </trkpt>
      <trkpt lat="48.04464" lon="-3.76041">
        <ele>224.2</ele>
        <time>2020-06-07T18:59:15Z</time>
      </trkpt>
      <trkpt lat="48.04465" lon="-3.76041">
        <ele>224.2</ele>
        <time>2020-06-07T18:59:16Z</time>
      </trkpt>
      <trkpt lat="48.04466" lon="-3.76042">
        <ele>224.3</ele>
        <time>2020-06-07T18:59:17Z</time>
      </trkpt>
      <trkpt lat="48.04466" lon="-3.76042">
        <ele>224.3</ele>
        <time>2020-06-07T18:59:18Z</time>
      </trkpt>
      <trkpt lat="48.04466" lon="-3.76042">
        <ele>224.3</ele>
        <time>2020-06-07T18:59:19Z</time>
      </trkpt>
      <trkpt lat="48.04465" lon="-3.76042">
        <ele>224.3</ele>
        <time>2020-06-07T18:59:20Z</time>
      </trkpt>
      <trkpt lat="48.04465" lon="-3.76043">
        <ele>224.3</ele>
        <time>2020-06-07T18:59:21Z</time>
      </trkpt>
      <trkpt lat="48.04464" lon="-3.76045">
        <ele>224.3</ele>
        <time>2020-06-07T18:59:22Z</time>
      </trkpt>
      <trkpt lat="48.04463" lon="-3.76045">
        <ele>224.3</ele>
        <time>2020-06-07T18:59:23Z</time>
      </trkpt>
      <trkpt lat="48.04462" lon="-3.76045">
        <ele>224.3</ele>
        <time>2020-06-07T18:59:24Z</time>
      </trkpt>
      <trkpt lat="48.0446" lon="-3.76046">
        <ele>224.3</ele>
        <time>2020-06-07T18:59:25Z</time>
      </trkpt>
      <trkpt lat="48.0446" lon="-3.76047">
        <ele>224.3</ele>
        <time>2020-06-07T18:59:26Z</time>
      </trkpt>
      <trkpt lat="48.0446" lon="-3.76048">
        <ele>224.3</ele>
        <time>2020-06-07T18:59:27Z</time>
      </trkpt>
      <trkpt lat="48.0446" lon="-3.76049">
        <ele>224.3</ele>
        <time>2020-06-07T18:59:28Z</time>
      </trkpt>
      <trkpt lat="48.0446" lon="-3.7605">
        <ele>224.3</ele>
        <time>2020-06-07T18:59:29Z</time>
      </trkpt>
      <trkpt lat="48.0446" lon="-3.7605">
        <ele>224.3</ele>
        <time>2020-06-07T18:59:30Z</time>
      </trkpt>
      <trkpt lat="48.0446" lon="-3.7605">
        <ele>224.4</ele>
        <time>2020-06-07T18:59:31Z</time>
      </trkpt>
      <trkpt lat="48.0446" lon="-3.7605">
        <ele>224.4</ele>
        <time>2020-06-07T18:59:32Z</time>
      </trkpt>
      <trkpt lat="48.04459" lon="-3.76051">
        <ele>224.4</ele>
        <time>2020-06-07T18:59:33Z</time>
      </trkpt>
      <trkpt lat="48.04459" lon="-3.76051">
        <ele>224.4</ele>
        <time>2020-06-07T18:59:34Z</time>
      </trkpt>
      <trkpt lat="48.0446" lon="-3.76051">
        <ele>224.4</ele>
        <time>2020-06-07T18:59:35Z</time>
      </trkpt>
      <trkpt lat="48.0446" lon="-3.76051">
        <ele>224.4</ele>
        <time>2020-06-07T18:59:36Z</time>
      </trkpt>
      <trkpt lat="48.0446" lon="-3.76051">
        <ele>224.4</ele>
        <time>2020-06-07T18:59:37Z</time>
      </trkpt>
      <trkpt lat="48.04461" lon="-3.76051">
        <ele>224.4</ele>
        <time>2020-06-07T18:59:38Z</time>
      </trkpt>
      <trkpt lat="48.04461" lon="-3.76052">
        <ele>224.4</ele>
        <time>2020-06-07T18:59:39Z</time>
      </trkpt>
      <trkpt lat="48.04461" lon="-3.76052">
        <ele>224.4</ele>
        <time>2020-06-07T18:59:40Z</time>
      </trkpt>
      <trkpt lat="48.04455" lon="-3.76057">
        <ele>224.3</ele>
        <time>2020-06-07T18:59:58Z</time>
      </trkpt>
      <trkpt lat="48.04454" lon="-3.76057">
        <ele>224.3</ele>
        <time>2020-06-07T18:59:59Z</time>
      </trkpt>
      <trkpt lat="48.04453" lon="-3.76057">
        <ele>224.3</ele>
        <time>2020-06-07T19:00:00Z</time>
      </trkpt>
      <trkpt lat="48.04452" lon="-3.76057">
        <ele>224.3</ele>
        <time>2020-06-07T19:00:01Z</time>
      </trkpt>
      <trkpt lat="48.04451" lon="-3.76057">
        <ele>224.3</ele>
        <time>2020-06-07T19:00:02Z</time>
      </trkpt>
      <trkpt lat="48.04451" lon="-3.76057">
        <ele>224.3</ele>
        <time>2020-06-07T19:00:03Z</time>
      </trkpt>
      <trkpt lat="48.0445" lon="-3.76057">
        <ele>224.3</ele>
        <time>2020-06-07T19:00:04Z</time>
      </trkpt>
      <trkpt lat="48.0445" lon="-3.76057">
        <ele>224.3</ele>
        <time>2020-06-07T19:00:05Z</time>
      </trkpt>
      <trkpt lat="48.0445" lon="-3.76057">
        <ele>224.3</ele>
        <time>2020-06-07T19:00:06Z</time>
      </trkpt>
      <trkpt lat="48.0445" lon="-3.76057">
        <ele>224.3</ele>
        <time>2020-06-07T19:00:07Z</time>
      </trkpt>
      <trkpt lat="48.0445" lon="-3.76057">
        <ele>224.3</ele>
        <time>2020-06-07T19:00:08Z</time>
      </trkpt>
      <trkpt lat="48.04451" lon="-3.76057">
        <ele>224.3</ele>
        <time>2020-06-07T19:00:09Z</time>
      </trkpt>
      <trkpt lat="48.0445" lon="-3.76057">
        <ele>224.3</ele>
        <time>2020-06-07T19:00:10Z</time>
      </trkpt>
      <trkpt lat="48.0445" lon="-3.76057">
        <ele>224.3</ele>
        <time>2020-06-07T19:00:11Z</time>
      </trkpt>
      <trkpt lat="48.0445" lon="-3.76057">
        <ele>224.3</ele>
        <time>2020-06-07T19:00:12Z</time>
      </trkpt>
      <trkpt lat="48.0445" lon="-3.76057">
        <ele>224.3</ele>
        <time>2020-06-07T19:00:13Z</time>
      </trkpt>
      <trkpt lat="48.0445" lon="-3.76057">
        <ele>224.3</ele>
        <time>2020-06-07T19:00:14Z</time>
      </trkpt>
      <trkpt lat="48.0445" lon="-3.76057">
        <ele>224.3</ele>
        <time>2020-06-07T19:00:15Z</time>
      </trkpt>
      <trkpt lat="48.04451" lon="-3.76057">
        <ele>224.3</ele>
        <time>2020-06-07T19:00:16Z</time>
      </trkpt>
      <trkpt lat="48.04451" lon="-3.76057">
        <ele>224.3</ele>
        <time>2020-06-07T19:00:17Z</time>
      </trkpt>
      <trkpt lat="48.0445" lon="-3.76056">
        <ele>224.3</ele>
        <time>2020-06-07T19:00:18Z</time>
      </trkpt>
      <trkpt lat="48.04455" lon="-3.76047">
        <ele>224.2</ele>
        <time>2020-06-07T19:00:52Z</time>
      </trkpt>
      <trkpt lat="48.04455" lon="-3.76047">
        <ele>224.2</ele>
        <time>2020-06-07T19:00:53Z</time>
      </trkpt>
      <trkpt lat="48.04455" lon="-3.76047">
        <ele>224.3</ele>
        <time>2020-06-07T19:00:54Z</time>
      </trkpt>
      <trkpt lat="48.04456" lon="-3.76047">
        <ele>224.3</ele>
        <time>2020-06-07T19:00:55Z</time>
      </trkpt>
      <trkpt lat="48.04456" lon="-3.76047">
        <ele>224.3</ele>
        <time>2020-06-07T19:00:56Z</time>
      </trkpt>
      <trkpt lat="48.04456" lon="-3.76047">
        <ele>224.3</ele>
        <time>2020-06-07T19:00:57Z</time>
      </trkpt>
      <trkpt lat="48.04456" lon="-3.76047">
        <ele>224.3</ele>
        <time>2020-06-07T19:00:58Z</time>
      </trkpt>
      <trkpt lat="48.04457" lon="-3.76047">
        <ele>224.3</ele>
        <time>2020-06-07T19:00:59Z</time>
      </trkpt>
      <trkpt lat="48.04457" lon="-3.76047">
        <ele>224.3</ele>
        <time>2020-06-07T19:01:00Z</time>
      </trkpt>
      <trkpt lat="48.04458" lon="-3.76047">
        <ele>224.3</ele>
        <time>2020-06-07T19:01:01Z</time>
      </trkpt>
      <trkpt lat="48.04458" lon="-3.76047">
        <ele>224.3</ele>
        <time>2020-06-07T19:01:02Z</time>
      </trkpt>
      <trkpt lat="48.04458" lon="-3.76047">
        <ele>224.3</ele>
        <time>2020-06-07T19:01:03Z</time>
      </trkpt>
      <trkpt lat="48.04466" lon="-3.76042">
        <ele>224.3</ele>
        <time>2020-06-07T19:01:17Z</time>
      </trkpt>
      <trkpt lat="48.04466" lon="-3.76042">
        <ele>224.3</ele>
        <time>2020-06-07T19:01:18Z</time>
      </trkpt>
      <trkpt lat="48.04466" lon="-3.76043">
        <ele>224.3</ele>
        <time>2020-06-07T19:01:19Z</time>
      </trkpt>
      <trkpt lat="48.04467" lon="-3.76042">
        <ele>224.4</ele>
        <time>2020-06-07T19:01:20Z</time>
      </trkpt>
      <trkpt lat="48.04467" lon="-3.76041">
        <ele>224.3</ele>
        <time>2020-06-07T19:01:21Z</time>
      </trkpt>
      <trkpt lat="48.04468" lon="-3.7604">
        <ele>224.3</ele>
        <time>2020-06-07T19:01:22Z</time>
      </trkpt>
      <trkpt lat="48.04469" lon="-3.76039">
        <ele>224.3</ele>
        <time>2020-06-07T19:01:23Z</time>
      </trkpt>
      <trkpt lat="48.0447" lon="-3.76038">
        <ele>224.3</ele>
        <time>2020-06-07T19:01:24Z</time>
      </trkpt>
      <trkpt lat="48.04471" lon="-3.76037">
        <ele>224.3</ele>
        <time>2020-06-07T19:01:25Z</time>
      </trkpt>
      <trkpt lat="48.04471" lon="-3.76036">
        <ele>224.3</ele>
        <time>2020-06-07T19:01:26Z</time>
      </trkpt>
      <trkpt lat="48.04471" lon="-3.76036">
        <ele>224.3</ele>
        <time>2020-06-07T19:01:27Z</time>
      </trkpt>
      <trkpt lat="48.04471" lon="-3.76036">
        <ele>224.3</ele>
        <time>2020-06-07T19:01:28Z</time>
      </trkpt>
      <trkpt lat="48.04471" lon="-3.76036">
        <ele>224.3</ele>
        <time>2020-06-07T19:01:29Z</time>
      </trkpt>
      <trkpt lat="48.04471" lon="-3.76036">
        <ele>224.3</ele>
        <time>2020-06-07T19:01:30Z</time>
      </trkpt>
      <trkpt lat="48.04471" lon="-3.76036">
        <ele>224.3</ele>
        <time>2020-06-07T19:01:31Z</time>
      </trkpt>
      <trkpt lat="48.04471" lon="-3.76036">
        <ele>224.3</ele>
        <time>2020-06-07T19:01:32Z</time>
      </trkpt>
      <trkpt lat="48.04471" lon="-3.76036">
        <ele>224.3</ele>
        <time>2020-06-07T19:01:33Z</time>
      </trkpt>
      <trkpt lat="48.04472" lon="-3.76036">
        <ele>224.3</ele>
        <time>2020-06-07T19:01:34Z</time>
      </trkpt>
      <trkpt lat="48.04472" lon="-3.76036">
        <ele>224.3</ele>
        <time>2020-06-07T19:01:35Z</time>
      </trkpt>
      <trkpt lat="48.04472" lon="-3.76036">
        <ele>224.3</ele>
        <time>2020-06-07T19:01:36Z</time>
      </trkpt>
      <trkpt lat="48.04472" lon="-3.76036">
        <ele>224.3</ele>
        <time>2020-06-07T19:01:37Z</time>
      </trkpt>
      <trkpt lat="48.04464" lon="-3.76062">
        <ele>224.5</ele>
        <time>2020-06-07T19:08:53Z</time>
      </trkpt>
      <trkpt lat="48.04465" lon="-3.76063">
        <ele>224.5</ele>
        <time>2020-06-07T19:08:54Z</time>
      </trkpt>
      <trkpt lat="48.04464" lon="-3.76063">
        <ele>224.5</ele>
        <time>2020-06-07T19:08:55Z</time>
      </trkpt>
      <trkpt lat="48.04464" lon="-3.76063">
        <ele>224.5</ele>
        <time>2020-06-07T19:08:56Z</time>
      </trkpt>
      <trkpt lat="48.04464" lon="-3.76063">
        <ele>224.5</ele>
        <time>2020-06-07T19:08:57Z</time>
      </trkpt>
      <trkpt lat="48.04464" lon="-3.76064">
        <ele>224.5</ele>
        <time>2020-06-07T19:08:58Z</time>
      </trkpt>
      <trkpt lat="48.04464" lon="-3.76064">
        <ele>224.5</ele>
        <time>2020-06-07T19:08:59Z</time>
      </trkpt>
      <trkpt lat="48.04464" lon="-3.76065">
        <ele>224.5</ele>
        <time>2020-06-07T19:09:00Z</time>
      </trkpt>
      <trkpt lat="48.04463" lon="-3.76065">
        <ele>224.5</ele>
        <time>2020-06-07T19:09:01Z</time>
      </trkpt>
      <trkpt lat="48.04464" lon="-3.76066">
        <ele>224.5</ele>
        <time>2020-06-07T19:09:02Z</time>
      </trkpt>
      <trkpt lat="48.04463" lon="-3.76065">
        <ele>224.5</ele>
        <time>2020-06-07T19:09:03Z</time>
      </trkpt>
      <trkpt lat="48.04463" lon="-3.76064">
        <ele>224.5</ele>
        <time>2020-06-07T19:09:04Z</time>
      </trkpt>
      <trkpt lat="48.04463" lon="-3.76063">
        <ele>224.5</ele>
        <time>2020-06-07T19:09:05Z</time>
      </trkpt>
      <trkpt lat="48.04463" lon="-3.76063">
        <ele>224.5</ele>
        <time>2020-06-07T19:09:06Z</time>
      </trkpt>
      <trkpt lat="48.04463" lon="-3.76061">
        <ele>224.5</ele>
        <time>2020-06-07T19:09:07Z</time>
      </trkpt>
      <trkpt lat="48.04467" lon="-3.76055">
        <ele>224.6</ele>
        <time>2020-06-07T19:09:16Z</time>
      </trkpt>
      <trkpt lat="48.04467" lon="-3.76054">
        <ele>224.5</ele>
        <time>2020-06-07T19:09:17Z</time>
      </trkpt>
      <trkpt lat="48.04467" lon="-3.76053">
        <ele>224.5</ele>
        <time>2020-06-07T19:09:18Z</time>
      </trkpt>
      <trkpt lat="48.04467" lon="-3.76053">
        <ele>224.5</ele>
        <time>2020-06-07T19:09:19Z</time>
      </trkpt>
      <trkpt lat="48.04468" lon="-3.76052">
        <ele>224.5</ele>
        <time>2020-06-07T19:09:20Z</time>
      </trkpt>
      <trkpt lat="48.04468" lon="-3.76052">
        <ele>224.5</ele>
        <time>2020-06-07T19:09:21Z</time>
      </trkpt>
      <trkpt lat="48.04468" lon="-3.76051">
        <ele>224.5</ele>
        <time>2020-06-07T19:09:22Z</time>
      </trkpt>
      <trkpt lat="48.04468" lon="-3.7605">
        <ele>224.5</ele>
        <time>2020-06-07T19:09:23Z</time>
      </trkpt>
      <trkpt lat="48.04468" lon="-3.7605">
        <ele>224.5</ele>
        <time>2020-06-07T19:09:24Z</time>
      </trkpt>
      <trkpt lat="48.04467" lon="-3.7605">
        <ele>224.5</ele>
        <time>2020-06-07T19:09:25Z</time>
      </trkpt>
      <trkpt lat="48.04466" lon="-3.7605">
        <ele>224.4</ele>
        <time>2020-06-07T19:09:26Z</time>
      </trkpt>
      <trkpt lat="48.04465" lon="-3.76051">
        <ele>224.5</ele>
        <time>2020-06-07T19:09:27Z</time>
      </trkpt>
      <trkpt lat="48.04465" lon="-3.76051">
        <ele>224.5</ele>
        <time>2020-06-07T19:09:28Z</time>
      </trkpt>
      <trkpt lat="48.04465" lon="-3.76051">
        <ele>224.5</ele>
        <time>2020-06-07T19:09:29Z</time>
      </trkpt>
      <trkpt lat="48.04465" lon="-3.76052">
        <ele>224.5</ele>
        <time>2020-06-07T19:09:30Z</time>
      </trkpt>
      <trkpt lat="48.04465" lon="-3.76052">
        <ele>224.5</ele>
        <time>2020-06-07T19:09:31Z</time>
      </trkpt>
      <trkpt lat="48.04465" lon="-3.76051">
        <ele>224.5</ele>
        <time>2020-06-07T19:09:32Z</time>
      </trkpt>
      <trkpt lat="48.04465" lon="-3.76051">
        <ele>224.5</ele>
        <time>2020-06-07T19:09:33Z</time>
      </trkpt>
      <trkpt lat="48.04466" lon="-3.76052">
        <ele>224.5</ele>
        <time>2020-06-07T19:09:34Z</time>
      </trkpt>
      <trkpt lat="48.04462" lon="-3.7605">
        <ele>224.4</ele>
        <time>2020-06-07T19:12:32Z</time>
      </trkpt>
      <trkpt lat="48.04461" lon="-3.7605">
        <ele>224.4</ele>
        <time>2020-06-07T19:12:33Z</time>
      </trkpt>
      <trkpt lat="48.04461" lon="-3.76051">
        <ele>224.4</ele>
        <time>2020-06-07T19:12:34Z</time>
      </trkpt>
      <trkpt lat="48.0446" lon="-3.7605">
        <ele>224.4</ele>
        <time>2020-06-07T19:12:35Z</time>
      </trkpt>
      <trkpt lat="48.0446" lon="-3.7605">
        <ele>224.4</ele>
        <time>2020-06-07T19:12:36Z</time>
      </trkpt>
      <trkpt lat="48.0446" lon="-3.7605">
        <ele>224.4</ele>
        <time>2020-06-07T19:12:37Z</time>
      </trkpt>
      <trkpt lat="48.04459" lon="-3.7605">
        <ele>224.4</ele>
        <time>2020-06-07T19:12:38Z</time>
      </trkpt>
      <trkpt lat="48.04458" lon="-3.7605">
        <ele>224.3</ele>
        <time>2020-06-07T19:12:39Z</time>
      </trkpt>
      <trkpt lat="48.04457" lon="-3.76049">
        <ele>224.3</ele>
        <time>2020-06-07T19:12:40Z</time>
      </trkpt>
      <trkpt lat="48.04457" lon="-3.76049">
        <ele>224.3</ele>
        <time>2020-06-07T19:12:41Z</time>
      </trkpt>
      <trkpt lat="48.04457" lon="-3.76048">
        <ele>224.3</ele>
        <time>2020-06-07T19:12:42Z</time>
      </trkpt>
      <trkpt lat="48.04457" lon="-3.76049">
        <ele>224.3</ele>
        <time>2020-06-07T19:12:43Z</time>
      </trkpt>
      <trkpt lat="48.04457" lon="-3.76049">
        <ele>224.3</ele>
        <time>2020-06-07T19:12:44Z</time>
      </trkpt>
      <trkpt lat="48.04457" lon="-3.76049">
        <ele>224.3</ele>
        <time>2020-06-07T19:12:45Z</time>
      </trkpt>
      <trkpt lat="48.04458" lon="-3.76049">
        <ele>224.3</ele>
        <time>2020-06-07T19:12:46Z</time>
      </trkpt>
      <trkpt lat="48.04458" lon="-3.7605">
        <ele>224.3</ele>
        <time>2020-06-07T19:12:47Z</time>
      </trkpt>
      <trkpt lat="48.04458" lon="-3.76049">
        <ele>224.3</ele>
        <time>2020-06-07T19:12:48Z</time>
      </trkpt>
      <trkpt lat="48.04458" lon="-3.76049">
        <ele>224.3</ele>
        <time>2020-06-07T19:12:49Z</time>
      </trkpt>
      <trkpt lat="48.04458" lon="-3.7605">
        <ele>224.4</ele>
        <time>2020-06-07T19:12:50Z</time>
      </trkpt>
      <trkpt lat="48.04458" lon="-3.7605">
        <ele>224.4</ele>
        <time>2020-06-07T19:12:51Z</time>
      </trkpt>
      <trkpt lat="48.04459" lon="-3.7605">
        <ele>224.4</ele>
        <time>2020-06-07T19:12:52Z</time>
      </trkpt>
      <trkpt lat="48.04459" lon="-3.7605">
        <ele>224.4</ele>
        <time>2020-06-07T19:12:53Z</time>
      </trkpt>
      <trkpt lat="48.04459" lon="-3.76051">
        <ele>224.4</ele>
        <time>2020-06-07T19:12:54Z</time>
      </trkpt>
      <trkpt lat="48.04459" lon="-3.76051">
        <ele>224.4</ele>
        <time>2020-06-07T19:12:55Z</time>
      </trkpt>
      <trkpt lat="48.04459" lon="-3.7605">
        <ele>224.3</ele>
        <time>2020-06-07T19:12:56Z</time>
      </trkpt>
      <trkpt lat="48.04458" lon="-3.7605">
        <ele>224.4</ele>
        <time>2020-06-07T19:12:57Z</time>
      </trkpt>
      <trkpt lat="48.04458" lon="-3.76052">
        <ele>224.3</ele>
        <time>2020-06-07T19:12:58Z</time>
      </trkpt>
      <trkpt lat="48.04457" lon="-3.76054">
        <ele>224.3</ele>
        <time>2020-06-07T19:12:59Z</time>
      </trkpt>
      <trkpt lat="48.04456" lon="-3.76054">
        <ele>224.4</ele>
        <time>2020-06-07T19:13:00Z</time>
      </trkpt>
      <trkpt lat="48.04456" lon="-3.76054">
        <ele>224.3</ele>
        <time>2020-06-07T19:13:01Z</time>
      </trkpt>
      <trkpt lat="48.04455" lon="-3.76055">
        <ele>224.4</ele>
        <time>2020-06-07T19:13:02Z</time>
      </trkpt>
      <trkpt lat="48.04454" lon="-3.76054">
        <ele>224.3</ele>
        <time>2020-06-07T19:13:03Z</time>
      </trkpt>
      <trkpt lat="48.04454" lon="-3.76054">
        <ele>224.3</ele>
        <time>2020-06-07T19:13:04Z</time>
      </trkpt>
      <trkpt lat="48.04453" lon="-3.76054">
        <ele>224.3</ele>
        <time>2020-06-07T19:13:05Z</time>
      </trkpt>
      <trkpt lat="48.04453" lon="-3.76053">
        <ele>224.3</ele>
        <time>2020-06-07T19:13:06Z</time>
      </trkpt>
      <trkpt lat="48.04453" lon="-3.76053">
        <ele>224.3</ele>
        <time>2020-06-07T19:13:07Z</time>
      </trkpt>
      <trkpt lat="48.04453" lon="-3.76053">
        <ele>224.3</ele>
        <time>2020-06-07T19:13:08Z</time>
      </trkpt>
      <trkpt lat="48.04453" lon="-3.76053">
        <ele>224.3</ele>
        <time>2020-06-07T19:13:09Z</time>
      </trkpt>
      <trkpt lat="48.04454" lon="-3.76054">
        <ele>224.3</ele>
        <time>2020-06-07T19:13:10Z</time>
      </trkpt>
      <trkpt lat="48.04454" lon="-3.76054">
        <ele>224.3</ele>
        <time>2020-06-07T19:13:11Z</time>
      </trkpt>
      <trkpt lat="48.04455" lon="-3.76054">
        <ele>224.3</ele>
        <time>2020-06-07T19:13:12Z</time>
      </trkpt>
      <trkpt lat="48.04455" lon="-3.76055">
        <ele>224.4</ele>
        <time>2020-06-07T19:13:13Z</time>
      </trkpt>
      <trkpt lat="48.04456" lon="-3.76055">
        <ele>224.4</ele>
        <time>2020-06-07T19:13:14Z</time>
      </trkpt>
      <trkpt lat="48.04456" lon="-3.76055">
        <ele>224.4</ele>
        <time>2020-06-07T19:13:15Z</time>
      </trkpt>
      <trkpt lat="48.04456" lon="-3.76054">
        <ele>224.4</ele>
        <time>2020-06-07T19:13:16Z</time>
      </trkpt>
      <trkpt lat="48.04457" lon="-3.76054">
        <ele>224.4</ele>
        <time>2020-06-07T19:13:17Z</time>
      </trkpt>
      <trkpt lat="48.04457" lon="-3.76054">
        <ele>224.3</ele>
        <time>2020-06-07T19:13:18Z</time>
      </trkpt>
      <trkpt lat="48.04457" lon="-3.76054">
        <ele>224.3</ele>
        <time>2020-06-07T19:13:19Z</time>
      </trkpt>
      <trkpt lat="48.04457" lon="-3.76053">
        <ele>224.3</ele>
        <time>2020-06-07T19:13:20Z</time>
      </trkpt>
      <trkpt lat="48.04458" lon="-3.76053">
        <ele>224.4</ele>
        <time>2020-06-07T19:13:21Z</time>
      </trkpt>
      <trkpt lat="48.04459" lon="-3.76052">
        <ele>224.4</ele>
        <time>2020-06-07T19:13:22Z</time>
      </trkpt>
      <trkpt lat="48.0446" lon="-3.76051">
        <ele>224.4</ele>
        <time>2020-06-07T19:13:23Z</time>
      </trkpt>
      <trkpt lat="48.04461" lon="-3.7605">
        <ele>224.4</ele>
        <time>2020-06-07T19:13:24Z</time>
      </trkpt>
      <trkpt lat="48.04462" lon="-3.7605">
        <ele>224.4</ele>
        <time>2020-06-07T19:13:25Z</time>
      </trkpt>
      <trkpt lat="48.04463" lon="-3.76049">
        <ele>224.4</ele>
        <time>2020-06-07T19:13:26Z</time>
      </trkpt>
      <trkpt lat="48.04464" lon="-3.76049">
        <ele>224.4</ele>
        <time>2020-06-07T19:13:27Z</time>
      </trkpt>
      <trkpt lat="48.04464" lon="-3.76049">
        <ele>224.4</ele>
        <time>2020-06-07T19:13:28Z</time>
      </trkpt>
      <trkpt lat="48.04465" lon="-3.76048">
        <ele>224.4</ele>
        <time>2020-06-07T19:13:29Z</time>
      </trkpt>
      <trkpt lat="48.04465" lon="-3.76048">
        <ele>224.4</ele>
        <time>2020-06-07T19:13:30Z</time>
      </trkpt>
      <trkpt lat="48.04466" lon="-3.76048">
        <ele>224.4</ele>
        <time>2020-06-07T19:13:31Z</time>
      </trkpt>
      <trkpt lat="48.04467" lon="-3.76047">
        <ele>224.5</ele>
        <time>2020-06-07T19:13:32Z</time>
      </trkpt>
      <trkpt lat="48.04469" lon="-3.76047">
        <ele>224.5</ele>
        <time>2020-06-07T19:13:33Z</time>
      </trkpt>
      <trkpt lat="48.0447" lon="-3.76046">
        <ele>224.5</ele>
        <time>2020-06-07T19:13:34Z</time>
      </trkpt>
      <trkpt lat="48.04471" lon="-3.76045">
        <ele>224.4</ele>
        <time>2020-06-07T19:13:35Z</time>
      </trkpt>
      <trkpt lat="48.04472" lon="-3.76044">
        <ele>224.5</ele>
        <time>2020-06-07T19:13:36Z</time>
      </trkpt>
      <trkpt lat="48.04473" lon="-3.76043">
        <ele>224.5</ele>
        <time>2020-06-07T19:13:37Z</time>
      </trkpt>
      <trkpt lat="48.04474" lon="-3.76042">
        <ele>224.5</ele>
        <time>2020-06-07T19:13:38Z</time>
      </trkpt>
      <trkpt lat="48.04474" lon="-3.76041">
        <ele>224.4</ele>
        <time>2020-06-07T19:13:39Z</time>
      </trkpt>
      <trkpt lat="48.04475" lon="-3.76041">
        <ele>224.4</ele>
        <time>2020-06-07T19:13:40Z</time>
      </trkpt>
      <trkpt lat="48.04475" lon="-3.76041">
        <ele>224.4</ele>
        <time>2020-06-07T19:13:41Z</time>
      </trkpt>
      <trkpt lat="48.04475" lon="-3.76041">
        <ele>224.4</ele>
        <time>2020-06-07T19:13:42Z</time>
      </trkpt>
      <trkpt lat="48.04475" lon="-3.76041">
        <ele>224.4</ele>
        <time>2020-06-07T19:13:43Z</time>
      </trkpt>
      <trkpt lat="48.04474" lon="-3.7604">
        <ele>224.4</ele>
        <time>2020-06-07T19:13:44Z</time>
      </trkpt>
      <trkpt lat="48.04475" lon="-3.7604">
        <ele>224.4</ele>
        <time>2020-06-07T19:13:45Z</time>
      </trkpt>
      <trkpt lat="48.04476" lon="-3.7604">
        <ele>224.4</ele>
        <time>2020-06-07T19:13:46Z</time>
      </trkpt>
      <trkpt lat="48.04476" lon="-3.76039">
        <ele>224.4</ele>
        <time>2020-06-07T19:13:47Z</time>
      </trkpt>
      <trkpt lat="48.04476" lon="-3.76039">
        <ele>224.4</ele>
        <time>2020-06-07T19:13:48Z</time>
      </trkpt>
      <trkpt lat="48.04476" lon="-3.76039">
        <ele>224.4</ele>
        <time>2020-06-07T19:13:49Z</time>
      </trkpt>
      <trkpt lat="48.04476" lon="-3.76038">
        <ele>224.4</ele>
        <time>2020-06-07T19:13:50Z</time>
      </trkpt>
      <trkpt lat="48.04477" lon="-3.76038">
        <ele>224.4</ele>
        <time>2020-06-07T19:13:51Z</time>
      </trkpt>
      <trkpt lat="48.04477" lon="-3.76037">
        <ele>224.4</ele>
        <time>2020-06-07T19:13:52Z</time>
      </trkpt>
      <trkpt lat="48.04477" lon="-3.76037">
        <ele>224.3</ele>
        <time>2020-06-07T19:13:53Z</time>
      </trkpt>
      <trkpt lat="48.04477" lon="-3.76037">
        <ele>224.3</ele>
        <time>2020-06-07T19:13:54Z</time>
      </trkpt>
      <trkpt lat="48.04478" lon="-3.76037">
        <ele>224.3</ele>
        <time>2020-06-07T19:13:55Z</time>
      </trkpt>
      <trkpt lat="48.04478" lon="-3.76036">
        <ele>224.3</ele>
        <time>2020-06-07T19:13:56Z</time>
      </trkpt>
      <trkpt lat="48.04478" lon="-3.76036">
        <ele>224.4</ele>
        <time>2020-06-07T19:13:57Z</time>
      </trkpt>
      <trkpt lat="48.04479" lon="-3.76036">
        <ele>224.4</ele>
        <time>2020-06-07T19:13:58Z</time>
      </trkpt>
      <trkpt lat="48.04479" lon="-3.76035">
        <ele>224.4</ele>
        <time>2020-06-07T19:13:59Z</time>
      </trkpt>
      <trkpt lat="48.04481" lon="-3.76034">
        <ele>224.4</ele>
        <time>2020-06-07T19:14:00Z</time>
      </trkpt>
      <trkpt lat="48.04481" lon="-3.76032">
        <ele>224.3</ele>
        <time>2020-06-07T19:14:01Z</time>
      </trkpt>
      <trkpt lat="48.04482" lon="-3.76031">
        <ele>224.3</ele>
        <time>2020-06-07T19:14:02Z</time>
      </trkpt>
      <trkpt lat="48.04484" lon="-3.76029">
        <ele>224.3</ele>
        <time>2020-06-07T19:14:03Z</time>
      </trkpt>
      <trkpt lat="48.04484" lon="-3.76028">
        <ele>224.2</ele>
        <time>2020-06-07T19:14:04Z</time>
      </trkpt>
      <trkpt lat="48.04485" lon="-3.76027">
        <ele>224.2</ele>
        <time>2020-06-07T19:14:05Z</time>
      </trkpt>
      <trkpt lat="48.04486" lon="-3.76025">
        <ele>224.2</ele>
        <time>2020-06-07T19:14:06Z</time>
      </trkpt>
      <trkpt lat="48.04486" lon="-3.76024">
        <ele>224.1</ele>
        <time>2020-06-07T19:14:07Z</time>
      </trkpt>
      <trkpt lat="48.04486" lon="-3.76023">
        <ele>224.1</ele>
        <time>2020-06-07T19:14:08Z</time>
      </trkpt>
      <trkpt lat="48.04486" lon="-3.76023">
        <ele>224.1</ele>
        <time>2020-06-07T19:14:09Z</time>
      </trkpt>
      <trkpt lat="48.04486" lon="-3.76023">
        <ele>224.1</ele>
        <time>2020-06-07T19:14:10Z</time>
      </trkpt>
      <trkpt lat="48.04485" lon="-3.76024">
        <ele>224.1</ele>
        <time>2020-06-07T19:14:11Z</time>
      </trkpt>
      <trkpt lat="48.04485" lon="-3.76024">
        <ele>224.1</ele>
        <time>2020-06-07T19:14:12Z</time>
      </trkpt>
      <trkpt lat="48.04485" lon="-3.76024">
        <ele>224.2</ele>
        <time>2020-06-07T19:14:13Z</time>
      </trkpt>
      <trkpt lat="48.04485" lon="-3.76025">
        <ele>224.2</ele>
        <time>2020-06-07T19:14:14Z</time>
      </trkpt>
      <trkpt lat="48.04485" lon="-3.76025">
        <ele>224.2</ele>
        <time>2020-06-07T19:14:15Z</time>
      </trkpt>
      <trkpt lat="48.04484" lon="-3.76026">
        <ele>224.2</ele>
        <time>2020-06-07T19:14:16Z</time>
      </trkpt>
      <trkpt lat="48.04484" lon="-3.76026">
        <ele>224.2</ele>
        <time>2020-06-07T19:14:17Z</time>
      </trkpt>
      <trkpt lat="48.04484" lon="-3.76027">
        <ele>224.2</ele>
        <time>2020-06-07T19:14:18Z</time>
      </trkpt>
      <trkpt lat="48.04484" lon="-3.76027">
        <ele>224.2</ele>
        <time>2020-06-07T19:14:19Z</time>
      </trkpt>
      <trkpt lat="48.04482" lon="-3.76031">
        <ele>224.3</ele>
        <time>2020-06-07T19:14:20Z</time>
      </trkpt>
      <trkpt lat="48.04481" lon="-3.76033">
        <ele>224.3</ele>
        <time>2020-06-07T19:14:21Z</time>
      </trkpt>
      <trkpt lat="48.0448" lon="-3.76035">
        <ele>224.4</ele>
        <time>2020-06-07T19:14:22Z</time>
      </trkpt>
      <trkpt lat="48.04479" lon="-3.76037">
        <ele>224.4</ele>
        <time>2020-06-07T19:14:23Z</time>
      </trkpt>
      <trkpt lat="48.04479" lon="-3.76039">
        <ele>224.5</ele>
        <time>2020-06-07T19:14:24Z</time>
      </trkpt>
      <trkpt lat="48.04478" lon="-3.7604">
        <ele>224.5</ele>
        <time>2020-06-07T19:14:25Z</time>
      </trkpt>
      <trkpt lat="48.04478" lon="-3.76041">
        <ele>224.4</ele>
        <time>2020-06-07T19:14:26Z</time>
      </trkpt>
      <trkpt lat="48.04477" lon="-3.76042">
        <ele>224.5</ele>
        <time>2020-06-07T19:14:27Z</time>
      </trkpt>
      <trkpt lat="48.04476" lon="-3.76042">
        <ele>224.5</ele>
        <time>2020-06-07T19:14:28Z</time>
      </trkpt>
      <trkpt lat="48.04476" lon="-3.76043">
        <ele>224.5</ele>
        <time>2020-06-07T19:14:29Z</time>
      </trkpt>
      <trkpt lat="48.04475" lon="-3.76044">
        <ele>224.5</ele>
        <time>2020-06-07T19:14:30Z</time>
      </trkpt>
      <trkpt lat="48.04473" lon="-3.76045">
        <ele>224.5</ele>
        <time>2020-06-07T19:14:31Z</time>
      </trkpt>
      <trkpt lat="48.04472" lon="-3.76046">
        <ele>224.4</ele>
        <time>2020-06-07T19:14:32Z</time>
      </trkpt>
      <trkpt lat="48.04471" lon="-3.76046">
        <ele>224.5</ele>
        <time>2020-06-07T19:14:33Z</time>
      </trkpt>
      <trkpt lat="48.0447" lon="-3.76047">
        <ele>224.6</ele>
        <time>2020-06-07T19:14:34Z</time>
      </trkpt>
      <trkpt lat="48.0447" lon="-3.76047">
        <ele>224.6</ele>
        <time>2020-06-07T19:14:35Z</time>
      </trkpt>
      <trkpt lat="48.04469" lon="-3.76047">
        <ele>224.6</ele>
        <time>2020-06-07T19:14:36Z</time>
      </trkpt>
      <trkpt lat="48.04469" lon="-3.76047">
        <ele>224.6</ele>
        <time>2020-06-07T19:14:37Z</time>
      </trkpt>
      <trkpt lat="48.04469" lon="-3.76047">
        <ele>224.6</ele>
        <time>2020-06-07T19:14:38Z</time>
      </trkpt>
      <trkpt lat="48.04468" lon="-3.76047">
        <ele>224.6</ele>
        <time>2020-06-07T19:14:39Z</time>
      </trkpt>
      <trkpt lat="48.04468" lon="-3.76047">
        <ele>224.6</ele>
        <time>2020-06-07T19:14:40Z</time>
      </trkpt>
      <trkpt lat="48.04468" lon="-3.76047">
        <ele>224.6</ele>
        <time>2020-06-07T19:14:41Z</time>
      </trkpt>
      <trkpt lat="48.04468" lon="-3.76047">
        <ele>224.6</ele>
        <time>2020-06-07T19:14:42Z</time>
      </trkpt>
      <trkpt lat="48.04468" lon="-3.76047">
        <ele>224.6</ele>
        <time>2020-06-07T19:14:43Z</time>
      </trkpt>
      <trkpt lat="48.04467" lon="-3.76048">
        <ele>224.6</ele>
        <time>2020-06-07T19:14:44Z</time>
      </trkpt>
      <trkpt lat="48.04467" lon="-3.76048">
        <ele>224.6</ele>
        <time>2020-06-07T19:14:45Z</time>
      </trkpt>
      <trkpt lat="48.04467" lon="-3.76049">
        <ele>224.6</ele>
        <time>2020-06-07T19:14:46Z</time>
      </trkpt>
      <trkpt lat="48.04467" lon="-3.76049">
        <ele>224.7</ele>
        <time>2020-06-07T19:14:47Z</time>
      </trkpt>
      <trkpt lat="48.04467" lon="-3.76049">
        <ele>224.7</ele>
        <time>2020-06-07T19:14:48Z</time>
      </trkpt>
      <trkpt lat="48.04466" lon="-3.76049">
        <ele>224.6</ele>
        <time>2020-06-07T19:14:49Z</time>
      </trkpt>
      <trkpt lat="48.04467" lon="-3.76049">
        <ele>224.7</ele>
        <time>2020-06-07T19:14:50Z</time>
      </trkpt>
      <trkpt lat="48.04467" lon="-3.76049">
        <ele>224.7</ele>
        <time>2020-06-07T19:14:51Z</time>
      </trkpt>
      <trkpt lat="48.04468" lon="-3.76049">
        <ele>224.7</ele>
        <time>2020-06-07T19:14:52Z</time>
      </trkpt>
      <trkpt lat="48.0447" lon="-3.76048">
        <ele>224.7</ele>
        <time>2020-06-07T19:14:53Z</time>
      </trkpt>
      <trkpt lat="48.04471" lon="-3.76046">
        <ele>224.6</ele>
        <time>2020-06-07T19:14:54Z</time>
      </trkpt>
      <trkpt lat="48.04474" lon="-3.76043">
        <ele>224.7</ele>
        <time>2020-06-07T19:14:55Z</time>
      </trkpt>
      <trkpt lat="48.04475" lon="-3.76042">
        <ele>224.8</ele>
        <time>2020-06-07T19:14:56Z</time>
      </trkpt>
      <trkpt lat="48.04476" lon="-3.76041">
        <ele>224.7</ele>
        <time>2020-06-07T19:14:57Z</time>
      </trkpt>
      <trkpt lat="48.04477" lon="-3.76039">
        <ele>224.7</ele>
        <time>2020-06-07T19:14:58Z</time>
      </trkpt>
      <trkpt lat="48.04479" lon="-3.76036">
        <ele>224.7</ele>
        <time>2020-06-07T19:14:59Z</time>
      </trkpt>
      <trkpt lat="48.0448" lon="-3.76035">
        <ele>224.7</ele>
        <time>2020-06-07T19:15:00Z</time>
      </trkpt>
      <trkpt lat="48.04481" lon="-3.76034">
        <ele>224.7</ele>
        <time>2020-06-07T19:15:01Z</time>
      </trkpt>
      <trkpt lat="48.04483" lon="-3.76032">
        <ele>224.6</ele>
        <time>2020-06-07T19:15:02Z</time>
      </trkpt>
      <trkpt lat="48.04483" lon="-3.76031">
        <ele>224.6</ele>
        <time>2020-06-07T19:15:03Z</time>
      </trkpt>
      <trkpt lat="48.04483" lon="-3.7603">
        <ele>224.6</ele>
        <time>2020-06-07T19:15:04Z</time>
      </trkpt>
      <trkpt lat="48.04483" lon="-3.76031">
        <ele>224.6</ele>
        <time>2020-06-07T19:15:05Z</time>
      </trkpt>
      <trkpt lat="48.04483" lon="-3.76031">
        <ele>224.6</ele>
        <time>2020-06-07T19:15:06Z</time>
      </trkpt>
      <trkpt lat="48.04483" lon="-3.76031">
        <ele>224.7</ele>
        <time>2020-06-07T19:15:07Z</time>
      </trkpt>
      <trkpt lat="48.04483" lon="-3.76032">
        <ele>224.7</ele>
        <time>2020-06-07T19:15:08Z</time>
      </trkpt>
      <trkpt lat="48.04483" lon="-3.76032">
        <ele>224.7</ele>
        <time>2020-06-07T19:15:09Z</time>
      </trkpt>
      <trkpt lat="48.04483" lon="-3.76032">
        <ele>224.7</ele>
        <time>2020-06-07T19:15:10Z</time>
      </trkpt>
      <trkpt lat="48.04482" lon="-3.76032">
        <ele>224.7</ele>
        <time>2020-06-07T19:15:11Z</time>
      </trkpt>
      <trkpt lat="48.04482" lon="-3.76032">
        <ele>224.7</ele>
        <time>2020-06-07T19:15:12Z</time>
      </trkpt>
      <trkpt lat="48.04481" lon="-3.76032">
        <ele>224.7</ele>
        <time>2020-06-07T19:15:13Z</time>
      </trkpt>
      <trkpt lat="48.04481" lon="-3.76033">
        <ele>224.7</ele>
        <time>2020-06-07T19:15:14Z</time>
      </trkpt>
      <trkpt lat="48.04481" lon="-3.76033">
        <ele>224.7</ele>
        <time>2020-06-07T19:15:15Z</time>
      </trkpt>
      <trkpt lat="48.04482" lon="-3.76033">
        <ele>224.8</ele>
        <time>2020-06-07T19:15:16Z</time>
      </trkpt>
      <trkpt lat="48.04482" lon="-3.76033">
        <ele>224.7</ele>
        <time>2020-06-07T19:15:17Z</time>
      </trkpt>
      <trkpt lat="48.04481" lon="-3.76032">
        <ele>224.8</ele>
        <time>2020-06-07T19:15:18Z</time>
      </trkpt>
      <trkpt lat="48.04482" lon="-3.76033">
        <ele>224.9</ele>
        <time>2020-06-07T19:15:19Z</time>
      </trkpt>
      <trkpt lat="48.04482" lon="-3.76033">
        <ele>224.9</ele>
        <time>2020-06-07T19:15:20Z</time>
      </trkpt>
      <trkpt lat="48.04482" lon="-3.76033">
        <ele>224.8</ele>
        <time>2020-06-07T19:15:21Z</time>
      </trkpt>
      <trkpt lat="48.04481" lon="-3.76032">
        <ele>224.8</ele>
        <time>2020-06-07T19:15:22Z</time>
      </trkpt>
      <trkpt lat="48.04481" lon="-3.76031">
        <ele>224.8</ele>
        <time>2020-06-07T19:15:23Z</time>
      </trkpt>
      <trkpt lat="48.0448" lon="-3.7603">
        <ele>224.7</ele>
        <time>2020-06-07T19:15:24Z</time>
      </trkpt>
      <trkpt lat="48.0448" lon="-3.7603">
        <ele>224.8</ele>
        <time>2020-06-07T19:15:25Z</time>
      </trkpt>
      <trkpt lat="48.0448" lon="-3.7603">
        <ele>224.8</ele>
        <time>2020-06-07T19:15:26Z</time>
      </trkpt>
      <trkpt lat="48.0448" lon="-3.7603">
        <ele>224.8</ele>
        <time>2020-06-07T19:15:27Z</time>
      </trkpt>
      <trkpt lat="48.0448" lon="-3.7603">
        <ele>224.8</ele>
        <time>2020-06-07T19:15:28Z</time>
      </trkpt>
      <trkpt lat="48.0448" lon="-3.7603">
        <ele>224.8</ele>
        <time>2020-06-07T19:15:29Z</time>
      </trkpt>
      <trkpt lat="48.0448" lon="-3.7603">
        <ele>224.8</ele>
        <time>2020-06-07T19:15:30Z</time>
      </trkpt>
      <trkpt lat="48.0447" lon="-3.76034">
        <ele>224.8</ele>
        <time>2020-06-07T19:16:18Z</time>
      </trkpt>
      <trkpt lat="48.0447" lon="-3.76033">
        <ele>224.8</ele>
        <time>2020-06-07T19:16:19Z</time>
      </trkpt>
      <trkpt lat="48.0447" lon="-3.76033">
        <ele>224.8</ele>
        <time>2020-06-07T19:16:20Z</time>
      </trkpt>
      <trkpt lat="48.0447" lon="-3.76033">
        <ele>224.8</ele>
        <time>2020-06-07T19:16:21Z</time>
      </trkpt>
      <trkpt lat="48.04471" lon="-3.76034">
        <ele>224.8</ele>
        <time>2020-06-07T19:16:22Z</time>
      </trkpt>
      <trkpt lat="48.0447" lon="-3.76034">
        <ele>224.8</ele>
        <time>2020-06-07T19:16:23Z</time>
      </trkpt>
      <trkpt lat="48.0447" lon="-3.76034">
        <ele>224.9</ele>
        <time>2020-06-07T19:16:24Z</time>
      </trkpt>
      <trkpt lat="48.0447" lon="-3.76034">
        <ele>224.9</ele>
        <time>2020-06-07T19:16:25Z</time>
      </trkpt>
      <trkpt lat="48.04471" lon="-3.76035">
        <ele>224.9</ele>
        <time>2020-06-07T19:16:26Z</time>
      </trkpt>
      <trkpt lat="48.04471" lon="-3.76035">
        <ele>224.9</ele>
        <time>2020-06-07T19:16:27Z</time>
      </trkpt>
      <trkpt lat="48.04471" lon="-3.76035">
        <ele>224.9</ele>
        <time>2020-06-07T19:16:28Z</time>
      </trkpt>
      <trkpt lat="48.04471" lon="-3.76035">
        <ele>224.9</ele>
        <time>2020-06-07T19:16:29Z</time>
      </trkpt>
      <trkpt lat="48.04471" lon="-3.76035">
        <ele>224.9</ele>
        <time>2020-06-07T19:16:30Z</time>
      </trkpt>
      <trkpt lat="48.04471" lon="-3.76034">
        <ele>224.9</ele>
        <time>2020-06-07T19:16:31Z</time>
      </trkpt>
      <trkpt lat="48.04471" lon="-3.76034">
        <ele>224.9</ele>
        <time>2020-06-07T19:16:32Z</time>
      </trkpt>
      <trkpt lat="48.0447" lon="-3.76034">
        <ele>224.9</ele>
        <time>2020-06-07T19:16:33Z</time>
      </trkpt>
      <trkpt lat="48.0447" lon="-3.76035">
        <ele>224.9</ele>
        <time>2020-06-07T19:16:34Z</time>
      </trkpt>
      <trkpt lat="48.04471" lon="-3.76034">
        <ele>224.9</ele>
        <time>2020-06-07T19:16:35Z</time>
      </trkpt>
      <trkpt lat="48.04471" lon="-3.76034">
        <ele>224.9</ele>
        <time>2020-06-07T19:16:36Z</time>
      </trkpt>
      <trkpt lat="48.04471" lon="-3.76034">
        <ele>225</ele>
        <time>2020-06-07T19:16:37Z</time>
      </trkpt>
      <trkpt lat="48.04472" lon="-3.76033">
        <ele>225</ele>
        <time>2020-06-07T19:16:38Z</time>
      </trkpt>
      <trkpt lat="48.04472" lon="-3.76033">
        <ele>225</ele>
        <time>2020-06-07T19:16:39Z</time>
      </trkpt>
      <trkpt lat="48.04472" lon="-3.76034">
        <ele>225</ele>
        <time>2020-06-07T19:16:40Z</time>
      </trkpt>
      <trkpt lat="48.04473" lon="-3.76034">
        <ele>225.1</ele>
        <time>2020-06-07T19:16:41Z</time>
      </trkpt>
      <trkpt lat="48.04473" lon="-3.76034">
        <ele>225.1</ele>
        <time>2020-06-07T19:16:42Z</time>
      </trkpt>
      <trkpt lat="48.04473" lon="-3.76033">
        <ele>225.1</ele>
        <time>2020-06-07T19:16:43Z</time>
      </trkpt>
      <trkpt lat="48.04473" lon="-3.76033">
        <ele>225.1</ele>
        <time>2020-06-07T19:16:44Z</time>
      </trkpt>
      <trkpt lat="48.04473" lon="-3.76034">
        <ele>225.1</ele>
        <time>2020-06-07T19:16:45Z</time>
      </trkpt>
      <trkpt lat="48.04473" lon="-3.76034">
        <ele>225.1</ele>
        <time>2020-06-07T19:16:46Z</time>
      </trkpt>
      <trkpt lat="48.04473" lon="-3.76034">
        <ele>225.1</ele>
        <time>2020-06-07T19:16:47Z</time>
      </trkpt>
      <trkpt lat="48.04473" lon="-3.76034">
        <ele>225.1</ele>
        <time>2020-06-07T19:16:48Z</time>
      </trkpt>
      <trkpt lat="48.04473" lon="-3.76034">
        <ele>225.1</ele>
        <time>2020-06-07T19:16:49Z</time>
      </trkpt>
      <trkpt lat="48.04473" lon="-3.76034">
        <ele>225.2</ele>
        <time>2020-06-07T19:16:50Z</time>
      </trkpt>
      <trkpt lat="48.04473" lon="-3.76034">
        <ele>225.2</ele>
        <time>2020-06-07T19:16:51Z</time>
      </trkpt>
      <trkpt lat="48.04473" lon="-3.76034">
        <ele>225.2</ele>
        <time>2020-06-07T19:16:52Z</time>
      </trkpt>
      <trkpt lat="48.04473" lon="-3.76034">
        <ele>225.2</ele>
        <time>2020-06-07T19:16:53Z</time>
      </trkpt>
      <trkpt lat="48.04473" lon="-3.76034">
        <ele>225.2</ele>
        <time>2020-06-07T19:16:54Z</time>
      </trkpt>
      <trkpt lat="48.04473" lon="-3.76034">
        <ele>225.2</ele>
        <time>2020-06-07T19:16:55Z</time>
      </trkpt>
      <trkpt lat="48.04473" lon="-3.76035">
        <ele>225.2</ele>
        <time>2020-06-07T19:16:56Z</time>
      </trkpt>
      <trkpt lat="48.04473" lon="-3.76036">
        <ele>225.2</ele>
        <time>2020-06-07T19:16:57Z</time>
      </trkpt>
      <trkpt lat="48.04472" lon="-3.76038">
        <ele>225.2</ele>
        <time>2020-06-07T19:17:35Z</time>
      </trkpt>
      <trkpt lat="48.04472" lon="-3.76039">
        <ele>225.2</ele>
        <time>2020-06-07T19:17:36Z</time>
      </trkpt>
      <trkpt lat="48.04472" lon="-3.76038">
        <ele>225.3</ele>
        <time>2020-06-07T19:17:37Z</time>
      </trkpt>
      <trkpt lat="48.04472" lon="-3.76038">
        <ele>225.3</ele>
        <time>2020-06-07T19:17:38Z</time>
      </trkpt>
      <trkpt lat="48.04472" lon="-3.76039">
        <ele>225.3</ele>
        <time>2020-06-07T19:17:39Z</time>
      </trkpt>
      <trkpt lat="48.04473" lon="-3.76039">
        <ele>225.3</ele>
        <time>2020-06-07T19:17:40Z</time>
      </trkpt>
      <trkpt lat="48.04473" lon="-3.76039">
        <ele>225.3</ele>
        <time>2020-06-07T19:17:41Z</time>
      </trkpt>
      <trkpt lat="48.04473" lon="-3.76039">
        <ele>225.3</ele>
        <time>2020-06-07T19:17:42Z</time>
      </trkpt>
      <trkpt lat="48.04473" lon="-3.76038">
        <ele>225.3</ele>
        <time>2020-06-07T19:17:43Z</time>
      </trkpt>
      <trkpt lat="48.04474" lon="-3.76037">
        <ele>225.3</ele>
        <time>2020-06-07T19:17:44Z</time>
      </trkpt>
      <trkpt lat="48.04474" lon="-3.76037">
        <ele>225.2</ele>
        <time>2020-06-07T19:17:45Z</time>
      </trkpt>
      <trkpt lat="48.04474" lon="-3.76036">
        <ele>225.2</ele>
        <time>2020-06-07T19:17:46Z</time>
      </trkpt>
      <trkpt lat="48.04474" lon="-3.76036">
        <ele>225.2</ele>
        <time>2020-06-07T19:17:47Z</time>
      </trkpt>
      <trkpt lat="48.04474" lon="-3.76036">
        <ele>225.2</ele>
        <time>2020-06-07T19:17:48Z</time>
      </trkpt>
      <trkpt lat="48.04474" lon="-3.76036">
        <ele>225.2</ele>
        <time>2020-06-07T19:17:49Z</time>
      </trkpt>
      <trkpt lat="48.04474" lon="-3.76036">
        <ele>225.2</ele>
        <time>2020-06-07T19:17:50Z</time>
      </trkpt>
      <trkpt lat="48.04474" lon="-3.76037">
        <ele>225.2</ele>
        <time>2020-06-07T19:17:51Z</time>
      </trkpt>
      <trkpt lat="48.04473" lon="-3.76037">
        <ele>225.3</ele>
        <time>2020-06-07T19:17:52Z</time>
      </trkpt>
      <trkpt lat="48.04473" lon="-3.76038">
        <ele>225.3</ele>
        <time>2020-06-07T19:17:53Z</time>
      </trkpt>
      <trkpt lat="48.04473" lon="-3.76039">
        <ele>225.3</ele>
        <time>2020-06-07T19:17:54Z</time>
      </trkpt>
      <trkpt lat="48.04473" lon="-3.7604">
        <ele>225.3</ele>
        <time>2020-06-07T19:17:55Z</time>
      </trkpt>
      <trkpt lat="48.04472" lon="-3.76041">
        <ele>225.2</ele>
        <time>2020-06-07T19:17:56Z</time>
      </trkpt>
      <trkpt lat="48.04472" lon="-3.76042">
        <ele>225.3</ele>
        <time>2020-06-07T19:17:57Z</time>
      </trkpt>
      <trkpt lat="48.04472" lon="-3.76043">
        <ele>225.3</ele>
        <time>2020-06-07T19:17:58Z</time>
      </trkpt>
      <trkpt lat="48.04472" lon="-3.76044">
        <ele>225.3</ele>
        <time>2020-06-07T19:17:59Z</time>
      </trkpt>
      <trkpt lat="48.04472" lon="-3.76046">
        <ele>225.3</ele>
        <time>2020-06-07T19:18:00Z</time>
      </trkpt>
      <trkpt lat="48.04472" lon="-3.76046">
        <ele>225.4</ele>
        <time>2020-06-07T19:18:01Z</time>
      </trkpt>
      <trkpt lat="48.04471" lon="-3.76048">
        <ele>225.4</ele>
        <time>2020-06-07T19:18:02Z</time>
      </trkpt>
      <trkpt lat="48.04471" lon="-3.76048">
        <ele>225.4</ele>
        <time>2020-06-07T19:18:03Z</time>
      </trkpt>
      <trkpt lat="48.0447" lon="-3.76048">
        <ele>225.4</ele>
        <time>2020-06-07T19:18:04Z</time>
      </trkpt>
      <trkpt lat="48.0447" lon="-3.76048">
        <ele>225.4</ele>
        <time>2020-06-07T19:18:05Z</time>
      </trkpt>
      <trkpt lat="48.0447" lon="-3.76049">
        <ele>225.4</ele>
        <time>2020-06-07T19:18:06Z</time>
      </trkpt>
      <trkpt lat="48.0447" lon="-3.76048">
        <ele>225.4</ele>
        <time>2020-06-07T19:18:07Z</time>
      </trkpt>
      <trkpt lat="48.0447" lon="-3.76047">
        <ele>225.4</ele>
        <time>2020-06-07T19:18:08Z</time>
      </trkpt>
      <trkpt lat="48.04471" lon="-3.76047">
        <ele>225.4</ele>
        <time>2020-06-07T19:18:09Z</time>
      </trkpt>
      <trkpt lat="48.04471" lon="-3.76046">
        <ele>225.4</ele>
        <time>2020-06-07T19:18:10Z</time>
      </trkpt>
      <trkpt lat="48.04471" lon="-3.76045">
        <ele>225.3</ele>
        <time>2020-06-07T19:18:26Z</time>
      </trkpt>
      <trkpt lat="48.04471" lon="-3.76045">
        <ele>225.3</ele>
        <time>2020-06-07T19:18:27Z</time>
      </trkpt>
      <trkpt lat="48.04471" lon="-3.76044">
        <ele>225.3</ele>
        <time>2020-06-07T19:18:28Z</time>
      </trkpt>
      <trkpt lat="48.04472" lon="-3.76044">
        <ele>225.3</ele>
        <time>2020-06-07T19:18:29Z</time>
      </trkpt>
      <trkpt lat="48.04472" lon="-3.76043">
        <ele>225.3</ele>
        <time>2020-06-07T19:18:30Z</time>
      </trkpt>
      <trkpt lat="48.04472" lon="-3.76042">
        <ele>225.3</ele>
        <time>2020-06-07T19:18:31Z</time>
      </trkpt>
      <trkpt lat="48.04472" lon="-3.76042">
        <ele>225.4</ele>
        <time>2020-06-07T19:18:32Z</time>
      </trkpt>
      <trkpt lat="48.04473" lon="-3.76041">
        <ele>225.3</ele>
        <time>2020-06-07T19:18:33Z</time>
      </trkpt>
      <trkpt lat="48.04473" lon="-3.7604">
        <ele>225.3</ele>
        <time>2020-06-07T19:18:34Z</time>
      </trkpt>
      <trkpt lat="48.04473" lon="-3.7604">
        <ele>225.3</ele>
        <time>2020-06-07T19:18:35Z</time>
      </trkpt>
      <trkpt lat="48.04473" lon="-3.76039">
        <ele>225.3</ele>
        <time>2020-06-07T19:18:36Z</time>
      </trkpt>
      <trkpt lat="48.04473" lon="-3.76038">
        <ele>225.3</ele>
        <time>2020-06-07T19:18:37Z</time>
      </trkpt>
      <trkpt lat="48.04474" lon="-3.76038">
        <ele>225.3</ele>
        <time>2020-06-07T19:18:56Z</time>
      </trkpt>
      <trkpt lat="48.04474" lon="-3.76037">
        <ele>225.2</ele>
        <time>2020-06-07T19:18:57Z</time>
      </trkpt>
      <trkpt lat="48.04474" lon="-3.76036">
        <ele>225.2</ele>
        <time>2020-06-07T19:18:58Z</time>
      </trkpt>
      <trkpt lat="48.04474" lon="-3.76036">
        <ele>225.2</ele>
        <time>2020-06-07T19:18:59Z</time>
      </trkpt>
      <trkpt lat="48.04475" lon="-3.76034">
        <ele>225.2</ele>
        <time>2020-06-07T19:19:00Z</time>
      </trkpt>
      <trkpt lat="48.04475" lon="-3.76033">
        <ele>225.1</ele>
        <time>2020-06-07T19:19:01Z</time>
      </trkpt>
      <trkpt lat="48.04475" lon="-3.76031">
        <ele>225.1</ele>
        <time>2020-06-07T19:19:02Z</time>
      </trkpt>
      <trkpt lat="48.04475" lon="-3.76031">
        <ele>225.1</ele>
        <time>2020-06-07T19:19:03Z</time>
      </trkpt>
      <trkpt lat="48.04475" lon="-3.76031">
        <ele>225.1</ele>
        <time>2020-06-07T19:19:04Z</time>
      </trkpt>
      <trkpt lat="48.04474" lon="-3.7603">
        <ele>225.1</ele>
        <time>2020-06-07T19:19:05Z</time>
      </trkpt>
      <trkpt lat="48.04474" lon="-3.7603">
        <ele>225.1</ele>
        <time>2020-06-07T19:19:06Z</time>
      </trkpt>
      <trkpt lat="48.04474" lon="-3.76029">
        <ele>225.1</ele>
        <time>2020-06-07T19:19:07Z</time>
      </trkpt>
      <trkpt lat="48.04473" lon="-3.76028">
        <ele>224.9</ele>
        <time>2020-06-07T19:19:08Z</time>
      </trkpt>
      <trkpt lat="48.04473" lon="-3.76027">
        <ele>224.9</ele>
        <time>2020-06-07T19:19:09Z</time>
      </trkpt>
      <trkpt lat="48.04472" lon="-3.76027">
        <ele>224.9</ele>
        <time>2020-06-07T19:19:10Z</time>
      </trkpt>
      <trkpt lat="48.04472" lon="-3.76027">
        <ele>224.9</ele>
        <time>2020-06-07T19:19:11Z</time>
      </trkpt>
      <trkpt lat="48.04472" lon="-3.76026">
        <ele>224.9</ele>
        <time>2020-06-07T19:19:12Z</time>
      </trkpt>
      <trkpt lat="48.04471" lon="-3.76026">
        <ele>224.9</ele>
        <time>2020-06-07T19:19:13Z</time>
      </trkpt>
      <trkpt lat="48.04471" lon="-3.76026">
        <ele>224.9</ele>
        <time>2020-06-07T19:19:14Z</time>
      </trkpt>
      <trkpt lat="48.04471" lon="-3.76025">
        <ele>224.9</ele>
        <time>2020-06-07T19:19:15Z</time>
      </trkpt>
      <trkpt lat="48.0447" lon="-3.76025">
        <ele>224.9</ele>
        <time>2020-06-07T19:19:16Z</time>
      </trkpt>
      <trkpt lat="48.0447" lon="-3.76025">
        <ele>224.9</ele>
        <time>2020-06-07T19:19:17Z</time>
      </trkpt>
      <trkpt lat="48.0447" lon="-3.76024">
        <ele>224.9</ele>
        <time>2020-06-07T19:19:18Z</time>
      </trkpt>
      <trkpt lat="48.04469" lon="-3.76024">
        <ele>224.7</ele>
        <time>2020-06-07T19:19:19Z</time>
      </trkpt>
      <trkpt lat="48.04469" lon="-3.76024">
        <ele>224.7</ele>
        <time>2020-06-07T19:19:20Z</time>
      </trkpt>
      <trkpt lat="48.04469" lon="-3.76024">
        <ele>224.7</ele>
        <time>2020-06-07T19:19:21Z</time>
      </trkpt>
      <trkpt lat="48.0447" lon="-3.76024">
        <ele>224.7</ele>
        <time>2020-06-07T19:19:22Z</time>
      </trkpt>
      <trkpt lat="48.04469" lon="-3.76023">
        <ele>224.7</ele>
        <time>2020-06-07T19:19:23Z</time>
      </trkpt>
      <trkpt lat="48.04407" lon="-3.75977">
        <ele>222.3</ele>
        <time>2020-06-07T19:20:03Z</time>
      </trkpt>
      <trkpt lat="48.04405" lon="-3.75976">
        <ele>222.3</ele>
        <time>2020-06-07T19:20:04Z</time>
      </trkpt>
      <trkpt lat="48.04402" lon="-3.75973">
        <ele>222.3</ele>
        <time>2020-06-07T19:20:05Z</time>
      </trkpt>
      <trkpt lat="48.04401" lon="-3.75971">
        <ele>222.1</ele>
        <time>2020-06-07T19:20:06Z</time>
      </trkpt>
      <trkpt lat="48.04399" lon="-3.75969">
        <ele>222.1</ele>
        <time>2020-06-07T19:20:07Z</time>
      </trkpt>
      <trkpt lat="48.04398" lon="-3.75967">
        <ele>221.9</ele>
        <time>2020-06-07T19:20:08Z</time>
      </trkpt>
      <trkpt lat="48.04396" lon="-3.75965">
        <ele>221.9</ele>
        <time>2020-06-07T19:20:09Z</time>
      </trkpt>
      <trkpt lat="48.04395" lon="-3.75963">
        <ele>221.7</ele>
        <time>2020-06-07T19:20:10Z</time>
      </trkpt>
      <trkpt lat="48.04576" lon="-3.75839">
        <ele>221</ele>
        <time>2020-06-07T19:22:07Z</time>
      </trkpt>
      <trkpt lat="48.04576" lon="-3.75838">
        <ele>221</ele>
        <time>2020-06-07T19:22:08Z</time>
      </trkpt>
      <trkpt lat="48.04577" lon="-3.75838">
        <ele>221</ele>
        <time>2020-06-07T19:22:09Z</time>
      </trkpt>
      <trkpt lat="48.04578" lon="-3.75838">
        <ele>221</ele>
        <time>2020-06-07T19:22:10Z</time>
      </trkpt>
      <trkpt lat="48.04578" lon="-3.75838">
        <ele>221</ele>
        <time>2020-06-07T19:22:11Z</time>
      </trkpt>
      <trkpt lat="48.04578" lon="-3.75838">
        <ele>221</ele>
        <time>2020-06-07T19:22:12Z</time>
      </trkpt>
      <trkpt lat="48.04578" lon="-3.75838">
        <ele>221</ele>
        <time>2020-06-07T19:22:13Z</time>
      </trkpt>
      <trkpt lat="48.04578" lon="-3.75838">
        <ele>221</ele>
        <time>2020-06-07T19:22:14Z</time>
      </trkpt>
      <trkpt lat="48.04578" lon="-3.75838">
        <ele>221</ele>
        <time>2020-06-07T19:22:15Z</time>
      </trkpt>
      <trkpt lat="48.04578" lon="-3.75838">
        <ele>221</ele>
        <time>2020-06-07T19:22:16Z</time>
      </trkpt>
      <trkpt lat="48.0458" lon="-3.75839">
        <ele>221</ele>
        <time>2020-06-07T19:22:17Z</time>
      </trkpt>
      <trkpt lat="48.0458" lon="-3.75838">
        <ele>221</ele>
        <time>2020-06-07T19:22:18Z</time>
      </trkpt>
      <trkpt lat="48.04448" lon="-3.76043">
        <ele>225</ele>
        <time>2020-06-07T20:03:47Z</time>
      </trkpt>
      <trkpt lat="48.04449" lon="-3.76041">
        <ele>224.9</ele>
        <time>2020-06-07T20:03:48Z</time>
      </trkpt>
      <trkpt lat="48.0445" lon="-3.76039">
        <ele>224.9</ele>
        <time>2020-06-07T20:03:49Z</time>
      </trkpt>
      <trkpt lat="48.04451" lon="-3.76037">
        <ele>224.8</ele>
        <time>2020-06-07T20:03:50Z</time>
      </trkpt>
      <trkpt lat="48.04452" lon="-3.76035">
        <ele>224.8</ele>
        <time>2020-06-07T20:03:51Z</time>
      </trkpt>
      <trkpt lat="48.04453" lon="-3.76033">
        <ele>224.9</ele>
        <time>2020-06-07T20:03:52Z</time>
      </trkpt>
      <trkpt lat="48.04454" lon="-3.76031">
        <ele>224.7</ele>
        <time>2020-06-07T20:03:53Z</time>
      </trkpt>
      <trkpt lat="48.04455" lon="-3.76029">
        <ele>224.7</ele>
        <time>2020-06-07T20:03:54Z</time>
      </trkpt>
      <trkpt lat="48.04456" lon="-3.76027">
        <ele>224.7</ele>
        <time>2020-06-07T20:03:55Z</time>
      </trkpt>
      <trkpt lat="48.04457" lon="-3.76025">
        <ele>224.7</ele>
        <time>2020-06-07T20:03:56Z</time>
      </trkpt>
      <trkpt lat="48.04458" lon="-3.76023">
        <ele>224.6</ele>
        <time>2020-06-07T20:03:57Z</time>
      </trkpt>
      <trkpt lat="48.04459" lon="-3.76021">
        <ele>224.6</ele>
        <time>2020-06-07T20:03:58Z</time>
      </trkpt>
      <trkpt lat="48.0446" lon="-3.76019">
        <ele>224.4</ele>
        <time>2020-06-07T20:03:59Z</time>
      </trkpt>
      <trkpt lat="48.04461" lon="-3.76017">
        <ele>224.4</ele>
        <time>2020-06-07T20:04:00Z</time>
      </trkpt>
      <trkpt lat="48.04463" lon="-3.76015">
        <ele>224.3</ele>
        <time>2020-06-07T20:04:01Z</time>
      </trkpt>
      <trkpt lat="48.04464" lon="-3.76013">
        <ele>224.3</ele>
        <time>2020-06-07T20:04:43Z</time>
      </trkpt>
      <trkpt lat="48.04465" lon="-3.76011">
        <ele>224.2</ele>
        <time>2020-06-07T20:04:44Z</time>
      </trkpt>
      <trkpt lat="48.04466" lon="-3.76009">
        <ele>224.2</ele>
        <time>2020-06-07T20:04:45Z</time>
      </trkpt>
      <trkpt lat="48.04466" lon="-3.76008">
        <ele>224.2</ele>
        <time>2020-06-07T20:04:46Z</time>
      </trkpt>
      <trkpt lat="48.04467" lon="-3.76008">
        <ele>224.3</ele>
        <time>2020-06-07T20:04:47Z</time>
      </trkpt>
      <trkpt lat="48.04467" lon="-3.76008">
        <ele>224.3</ele>
        <time>2020-06-07T20:04:48Z</time>
      </trkpt>
      <trkpt lat="48.04467" lon="-3.76007">
        <ele>224.1</ele>
        <time>2020-06-07T20:04:49Z</time>
      </trkpt>
      <trkpt lat="48.04467" lon="-3.76007">
        <ele>224.3</ele>
        <time>2020-06-07T20:04:50Z</time>
      </trkpt>
      <trkpt lat="48.04467" lon="-3.76007">
        <ele>224.3</ele>
        <time>2020-06-07T20:04:51Z</time>
      </trkpt>
      <trkpt lat="48.04467" lon="-3.76007">
        <ele>224.1</ele>
        <time>2020-06-07T20:04:52Z</time>
      </trkpt>
      <trkpt lat="48.04467" lon="-3.76007">
        <ele>224.1</ele>
        <time>2020-06-07T20:04:53Z</time>
      </trkpt>
      <trkpt lat="48.04468" lon="-3.76006">
        <ele>224.1</ele>
        <time>2020-06-07T20:04:54Z</time>
      </trkpt>
      <trkpt lat="48.04468" lon="-3.76005">
        <ele>224.1</ele>
        <time>2020-06-07T20:04:55Z</time>
      </trkpt>
      <trkpt lat="48.04468" lon="-3.76004">
        <ele>224.1</ele>
        <time>2020-06-07T20:04:56Z</time>
      </trkpt>
      <trkpt lat="48.04469" lon="-3.76004">
        <ele>224.1</ele>
        <time>2020-06-07T20:04:57Z</time>
      </trkpt>
      <trkpt lat="48.04469" lon="-3.76004">
        <ele>224.1</ele>
        <time>2020-06-07T20:04:58Z</time>
      </trkpt>
      <trkpt lat="48.0447" lon="-3.76003">
        <ele>224.2</ele>
        <time>2020-06-07T20:04:59Z</time>
      </trkpt>
      <trkpt lat="48.0447" lon="-3.76004">
        <ele>224.2</ele>
        <time>2020-06-07T20:05:00Z</time>
      </trkpt>
      <trkpt lat="48.0447" lon="-3.76005">
        <ele>224.2</ele>
        <time>2020-06-07T20:05:01Z</time>
      </trkpt>
      <trkpt lat="48.0447" lon="-3.76005">
        <ele>224.2</ele>
        <time>2020-06-07T20:05:02Z</time>
      </trkpt>
      <trkpt lat="48.0447" lon="-3.76005">
        <ele>224.2</ele>
        <time>2020-06-07T20:05:03Z</time>
      </trkpt>
      <trkpt lat="48.0447" lon="-3.76006">
        <ele>224.2</ele>
        <time>2020-06-07T20:05:04Z</time>
      </trkpt>
      <trkpt lat="48.0447" lon="-3.76006">
        <ele>224.2</ele>
        <time>2020-06-07T20:05:05Z</time>
      </trkpt>
      <trkpt lat="48.0447" lon="-3.76005">
        <ele>224.2</ele>
        <time>2020-06-07T20:05:06Z</time>
      </trkpt>
      <trkpt lat="48.0447" lon="-3.76005">
        <ele>224.2</ele>
        <time>2020-06-07T20:05:07Z</time>
      </trkpt>
      <trkpt lat="48.04471" lon="-3.76005">
        <ele>224.2</ele>
        <time>2020-06-07T20:05:08Z</time>
      </trkpt>
      <trkpt lat="48.04471" lon="-3.76005">
        <ele>224.2</ele>
        <time>2020-06-07T20:05:09Z</time>
      </trkpt>
      <trkpt lat="48.04472" lon="-3.76006">
        <ele>224.2</ele>
        <time>2020-06-07T20:05:10Z</time>
      </trkpt>
      <trkpt lat="48.04472" lon="-3.76006">
        <ele>224.2</ele>
        <time>2020-06-07T20:05:11Z</time>
      </trkpt>
      <trkpt lat="48.04481" lon="-3.76011">
        <ele>224.5</ele>
        <time>2020-06-07T20:05:59Z</time>
      </trkpt>
      <trkpt lat="48.04482" lon="-3.7601">
        <ele>224.5</ele>
        <time>2020-06-07T20:06:00Z</time>
      </trkpt>
      <trkpt lat="48.04483" lon="-3.7601">
        <ele>224.5</ele>
        <time>2020-06-07T20:06:01Z</time>
      </trkpt>
      <trkpt lat="48.04483" lon="-3.7601">
        <ele>224.5</ele>
        <time>2020-06-07T20:06:02Z</time>
      </trkpt>
      <trkpt lat="48.04483" lon="-3.7601">
        <ele>224.5</ele>
        <time>2020-06-07T20:06:03Z</time>
      </trkpt>
      <trkpt lat="48.04483" lon="-3.7601">
        <ele>224.5</ele>
        <time>2020-06-07T20:06:04Z</time>
      </trkpt>
      <trkpt lat="48.04483" lon="-3.76011">
        <ele>224.5</ele>
        <time>2020-06-07T20:06:05Z</time>
      </trkpt>
      <trkpt lat="48.04483" lon="-3.76011">
        <ele>224.5</ele>
        <time>2020-06-07T20:06:06Z</time>
      </trkpt>
      <trkpt lat="48.04483" lon="-3.76011">
        <ele>224.5</ele>
        <time>2020-06-07T20:06:07Z</time>
      </trkpt>
      <trkpt lat="48.04483" lon="-3.76011">
        <ele>224.5</ele>
        <time>2020-06-07T20:06:08Z</time>
      </trkpt>
      <trkpt lat="48.04483" lon="-3.7601">
        <ele>224.5</ele>
        <time>2020-06-07T20:06:09Z</time>
      </trkpt>
      <trkpt lat="48.04481" lon="-3.76019">
        <ele>224.7</ele>
        <time>2020-06-07T20:06:23Z</time>
      </trkpt>
      <trkpt lat="48.0448" lon="-3.76019">
        <ele>224.7</ele>
        <time>2020-06-07T20:06:24Z</time>
      </trkpt>
      <trkpt lat="48.0448" lon="-3.76018">
        <ele>224.7</ele>
        <time>2020-06-07T20:06:25Z</time>
      </trkpt>
      <trkpt lat="48.0448" lon="-3.76018">
        <ele>224.7</ele>
        <time>2020-06-07T20:06:26Z</time>
      </trkpt>
      <trkpt lat="48.0448" lon="-3.76018">
        <ele>224.7</ele>
        <time>2020-06-07T20:06:27Z</time>
      </trkpt>
      <trkpt lat="48.04479" lon="-3.76018">
        <ele>224.7</ele>
        <time>2020-06-07T20:06:28Z</time>
      </trkpt>
      <trkpt lat="48.04479" lon="-3.76018">
        <ele>224.7</ele>
        <time>2020-06-07T20:06:29Z</time>
      </trkpt>
      <trkpt lat="48.04479" lon="-3.76018">
        <ele>224.7</ele>
        <time>2020-06-07T20:06:30Z</time>
      </trkpt>
      <trkpt lat="48.04478" lon="-3.76017">
        <ele>224.7</ele>
        <time>2020-06-07T20:06:31Z</time>
      </trkpt>
      <trkpt lat="48.04482" lon="-3.76023">
        <ele>224.9</ele>
        <time>2020-06-07T20:06:32Z</time>
      </trkpt>
      <trkpt lat="48.04487" lon="-3.76028">
        <ele>225.1</ele>
        <time>2020-06-07T20:06:33Z</time>
      </trkpt>
      <trkpt lat="48.04491" lon="-3.76033">
        <ele>225.1</ele>
        <time>2020-06-07T20:06:34Z</time>
      </trkpt>
      <trkpt lat="48.04496" lon="-3.76038">
        <ele>225.1</ele>
        <time>2020-06-07T20:08:25Z</time>
      </trkpt>
      <trkpt lat="48.04501" lon="-3.76043">
        <ele>225</ele>
        <time>2020-06-07T20:08:26Z</time>
      </trkpt>
      <trkpt lat="48.04502" lon="-3.76039">
        <ele>225</ele>
        <time>2020-06-07T20:08:27Z</time>
      </trkpt>
      <trkpt lat="48.04502" lon="-3.76038">
        <ele>225</ele>
        <time>2020-06-07T20:08:28Z</time>
      </trkpt>
      <trkpt lat="48.04502" lon="-3.76037">
        <ele>225</ele>
        <time>2020-06-07T20:08:29Z</time>
      </trkpt>
      <trkpt lat="48.04502" lon="-3.76037">
        <ele>225</ele>
        <time>2020-06-07T20:08:30Z</time>
      </trkpt>
      <trkpt lat="48.04501" lon="-3.76037">
        <ele>225</ele>
        <time>2020-06-07T20:08:31Z</time>
      </trkpt>
      <trkpt lat="48.04501" lon="-3.76036">
        <ele>225</ele>
        <time>2020-06-07T20:08:32Z</time>
      </trkpt>
      <trkpt lat="48.045" lon="-3.76036">
        <ele>225</ele>
        <time>2020-06-07T20:08:33Z</time>
      </trkpt>
      <trkpt lat="48.045" lon="-3.76036">
        <ele>225</ele>
        <time>2020-06-07T20:08:34Z</time>
      </trkpt>
      <trkpt lat="48.045" lon="-3.76036">
        <ele>225</ele>
        <time>2020-06-07T20:08:35Z</time>
      </trkpt>
      <trkpt lat="48.04499" lon="-3.76035">
        <ele>225</ele>
        <time>2020-06-07T20:08:36Z</time>
      </trkpt>
      <trkpt lat="48.04499" lon="-3.76035">
        <ele>225</ele>
        <time>2020-06-07T20:08:37Z</time>
      </trkpt>
      <trkpt lat="48.04498" lon="-3.76035">
        <ele>225</ele>
        <time>2020-06-07T20:08:38Z</time>
      </trkpt>
      <trkpt lat="48.04497" lon="-3.76031">
        <ele>225</ele>
        <time>2020-06-07T20:08:39Z</time>
      </trkpt>
      <trkpt lat="48.04495" lon="-3.76028">
        <ele>225</ele>
        <time>2020-06-07T20:08:40Z</time>
      </trkpt>
      <trkpt lat="48.04494" lon="-3.76024">
        <ele>224.9</ele>
        <time>2020-06-07T20:08:41Z</time>
      </trkpt>
      <trkpt lat="48.04493" lon="-3.76023">
        <ele>224.9</ele>
        <time>2020-06-07T20:08:42Z</time>
      </trkpt>
      <trkpt lat="48.04493" lon="-3.76022">
        <ele>224.9</ele>
        <time>2020-06-07T20:08:43Z</time>
      </trkpt>
      <trkpt lat="48.04493" lon="-3.76021">
        <ele>224.9</ele>
        <time>2020-06-07T20:08:44Z</time>
      </trkpt>
      <trkpt lat="48.04492" lon="-3.7602">
        <ele>224.9</ele>
        <time>2020-06-07T20:08:45Z</time>
      </trkpt>
      <trkpt lat="48.04492" lon="-3.76018">
        <ele>224.9</ele>
        <time>2020-06-07T20:08:46Z</time>
      </trkpt>
      <trkpt lat="48.04491" lon="-3.76016">
        <ele>224.9</ele>
        <time>2020-06-07T20:08:47Z</time>
      </trkpt>
      <trkpt lat="48.0449" lon="-3.76015">
        <ele>224.9</ele>
        <time>2020-06-07T20:08:48Z</time>
      </trkpt>
      <trkpt lat="48.0449" lon="-3.76016">
        <ele>224.9</ele>
        <time>2020-06-07T20:08:49Z</time>
      </trkpt>
      <trkpt lat="48.0449" lon="-3.76017">
        <ele>224.9</ele>
        <time>2020-06-07T20:08:50Z</time>
      </trkpt>
      <trkpt lat="48.04491" lon="-3.76019">
        <ele>224.9</ele>
        <time>2020-06-07T20:08:51Z</time>
      </trkpt>
      <trkpt lat="48.04492" lon="-3.7602">
        <ele>224.9</ele>
        <time>2020-06-07T20:08:52Z</time>
      </trkpt>
      <trkpt lat="48.04492" lon="-3.7602">
        <ele>224.9</ele>
        <time>2020-06-07T20:08:53Z</time>
      </trkpt>
      <trkpt lat="48.04493" lon="-3.7602">
        <ele>224.9</ele>
        <time>2020-06-07T20:08:54Z</time>
      </trkpt>
      <trkpt lat="48.04493" lon="-3.76019">
        <ele>224.9</ele>
        <time>2020-06-07T20:08:55Z</time>
      </trkpt>
      <trkpt lat="48.04494" lon="-3.76018">
        <ele>224.9</ele>
        <time>2020-06-07T20:08:56Z</time>
      </trkpt>
      <trkpt lat="48.04495" lon="-3.76016">
        <ele>224.9</ele>
        <time>2020-06-07T20:08:57Z</time>
      </trkpt>
      <trkpt lat="48.04497" lon="-3.76013">
        <ele>224.8</ele>
        <time>2020-06-07T20:08:58Z</time>
      </trkpt>
      <trkpt lat="48.04497" lon="-3.76014">
        <ele>224.8</ele>
        <time>2020-06-07T20:08:59Z</time>
      </trkpt>
      <trkpt lat="48.04496" lon="-3.76016">
        <ele>224.8</ele>
        <time>2020-06-07T20:09:00Z</time>
      </trkpt>
      <trkpt lat="48.04495" lon="-3.76017">
        <ele>224.8</ele>
        <time>2020-06-07T20:09:01Z</time>
      </trkpt>
      <trkpt lat="48.04495" lon="-3.76016">
        <ele>224.8</ele>
        <time>2020-06-07T20:09:02Z</time>
      </trkpt>
      <trkpt lat="48.04493" lon="-3.76015">
        <ele>224.8</ele>
        <time>2020-06-07T20:09:03Z</time>
      </trkpt>
      <trkpt lat="48.04493" lon="-3.76014">
        <ele>224.8</ele>
        <time>2020-06-07T20:09:04Z</time>
      </trkpt>
      <trkpt lat="48.04492" lon="-3.76013">
        <ele>224.8</ele>
        <time>2020-06-07T20:09:05Z</time>
      </trkpt>
      <trkpt lat="48.04492" lon="-3.76012">
        <ele>224.8</ele>
        <time>2020-06-07T20:09:06Z</time>
      </trkpt>
      <trkpt lat="48.0449" lon="-3.76014">
        <ele>224.8</ele>
        <time>2020-06-07T20:09:07Z</time>
      </trkpt>
      <trkpt lat="48.04492" lon="-3.76015">
        <ele>224.8</ele>
        <time>2020-06-07T20:09:08Z</time>
      </trkpt>
      <trkpt lat="48.04492" lon="-3.76018">
        <ele>224.8</ele>
        <time>2020-06-07T20:09:09Z</time>
      </trkpt>
      <trkpt lat="48.04493" lon="-3.76019">
        <ele>224.8</ele>
        <time>2020-06-07T20:09:10Z</time>
      </trkpt>
      <trkpt lat="48.04494" lon="-3.7602">
        <ele>224.8</ele>
        <time>2020-06-07T20:09:27Z</time>
      </trkpt>
      <trkpt lat="48.04495" lon="-3.76021">
        <ele>224.7</ele>
        <time>2020-06-07T20:09:28Z</time>
      </trkpt>
      <trkpt lat="48.04496" lon="-3.76022">
        <ele>224.7</ele>
        <time>2020-06-07T20:09:29Z</time>
      </trkpt>
      <trkpt lat="48.04497" lon="-3.76022">
        <ele>224.7</ele>
        <time>2020-06-07T20:09:30Z</time>
      </trkpt>
      <trkpt lat="48.04497" lon="-3.76023">
        <ele>224.7</ele>
        <time>2020-06-07T20:09:31Z</time>
      </trkpt>
      <trkpt lat="48.04498" lon="-3.76024">
        <ele>224.7</ele>
        <time>2020-06-07T20:09:32Z</time>
      </trkpt>
      <trkpt lat="48.04498" lon="-3.76023">
        <ele>224.7</ele>
        <time>2020-06-07T20:09:33Z</time>
      </trkpt>
      <trkpt lat="48.04498" lon="-3.76022">
        <ele>224.7</ele>
        <time>2020-06-07T20:09:34Z</time>
      </trkpt>
      <trkpt lat="48.04498" lon="-3.76021">
        <ele>224.7</ele>
        <time>2020-06-07T20:09:35Z</time>
      </trkpt>
      <trkpt lat="48.04498" lon="-3.76021">
        <ele>224.7</ele>
        <time>2020-06-07T20:09:36Z</time>
      </trkpt>
      <trkpt lat="48.04498" lon="-3.76021">
        <ele>224.7</ele>
        <time>2020-06-07T20:09:37Z</time>
      </trkpt>
      <trkpt lat="48.04498" lon="-3.76021">
        <ele>224.7</ele>
        <time>2020-06-07T20:09:38Z</time>
      </trkpt>
      <trkpt lat="48.04497" lon="-3.7602">
        <ele>224.7</ele>
        <time>2020-06-07T20:09:39Z</time>
      </trkpt>
      <trkpt lat="48.04496" lon="-3.76017">
        <ele>224.7</ele>
        <time>2020-06-07T20:09:40Z</time>
      </trkpt>
      <trkpt lat="48.04494" lon="-3.76014">
        <ele>224.7</ele>
        <time>2020-06-07T20:09:41Z</time>
      </trkpt>
      <trkpt lat="48.04492" lon="-3.7601">
        <ele>224.7</ele>
        <time>2020-06-07T20:09:42Z</time>
      </trkpt>
      <trkpt lat="48.0449" lon="-3.76007">
        <ele>224.6</ele>
        <time>2020-06-07T20:09:43Z</time>
      </trkpt>
      <trkpt lat="48.04488" lon="-3.76004">
        <ele>224.6</ele>
        <time>2020-06-07T20:10:43Z</time>
      </trkpt>
      <trkpt lat="48.04486" lon="-3.76001">
        <ele>224.5</ele>
        <time>2020-06-07T20:10:44Z</time>
      </trkpt>
      <trkpt lat="48.04485" lon="-3.75998">
        <ele>224.3</ele>
        <time>2020-06-07T20:10:45Z</time>
      </trkpt>
      <trkpt lat="48.04483" lon="-3.75995">
        <ele>224.3</ele>
        <time>2020-06-07T20:10:46Z</time>
      </trkpt>
      <trkpt lat="48.04482" lon="-3.7599">
        <ele>224.1</ele>
        <time>2020-06-07T20:10:47Z</time>
      </trkpt>
      <trkpt lat="48.04481" lon="-3.75989">
        <ele>224.1</ele>
        <time>2020-06-07T20:10:48Z</time>
      </trkpt>
      <trkpt lat="48.04479" lon="-3.75985">
        <ele>224</ele>
        <time>2020-06-07T20:10:49Z</time>
      </trkpt>
      <trkpt lat="48.04478" lon="-3.75983">
        <ele>223.9</ele>
        <time>2020-06-07T20:10:50Z</time>
      </trkpt>
      <trkpt lat="48.04476" lon="-3.75981">
        <ele>223.9</ele>
        <time>2020-06-07T20:10:51Z</time>
      </trkpt>
      <trkpt lat="48.04473" lon="-3.7598">
        <ele>223.8</ele>
        <time>2020-06-07T20:10:52Z</time>
      </trkpt>
      <trkpt lat="48.04471" lon="-3.75979">
        <ele>223.7</ele>
        <time>2020-06-07T20:10:53Z</time>
      </trkpt>
      <trkpt lat="48.0447" lon="-3.75979">
        <ele>223.7</ele>
        <time>2020-06-07T20:10:54Z</time>
      </trkpt>
      <trkpt lat="48.04469" lon="-3.75981">
        <ele>223.6</ele>
        <time>2020-06-07T20:10:55Z</time>
      </trkpt>
      <trkpt lat="48.0447" lon="-3.75982">
        <ele>223.6</ele>
        <time>2020-06-07T20:10:56Z</time>
      </trkpt>
      <trkpt lat="48.04471" lon="-3.75984">
        <ele>223.6</ele>
        <time>2020-06-07T20:10:57Z</time>
      </trkpt>
      <trkpt lat="48.04472" lon="-3.75986">
        <ele>223.5</ele>
        <time>2020-06-07T20:10:58Z</time>
      </trkpt>
      <trkpt lat="48.04472" lon="-3.75986">
        <ele>223.5</ele>
        <time>2020-06-07T20:10:59Z</time>
      </trkpt>
      <trkpt lat="48.04472" lon="-3.75987">
        <ele>223.5</ele>
        <time>2020-06-07T20:11:00Z</time>
      </trkpt>
      <trkpt lat="48.04472" lon="-3.75988">
        <ele>223.5</ele>
        <time>2020-06-07T20:11:01Z</time>
      </trkpt>
      <trkpt lat="48.04473" lon="-3.75988">
        <ele>223.6</ele>
        <time>2020-06-07T20:11:02Z</time>
      </trkpt>
      <trkpt lat="48.04473" lon="-3.75989">
        <ele>223.6</ele>
        <time>2020-06-07T20:11:03Z</time>
      </trkpt>
      <trkpt lat="48.04473" lon="-3.7599">
        <ele>223.6</ele>
        <time>2020-06-07T20:11:04Z</time>
      </trkpt>
      <trkpt lat="48.04473" lon="-3.75991">
        <ele>223.6</ele>
        <time>2020-06-07T20:11:05Z</time>
      </trkpt>
      <trkpt lat="48.04473" lon="-3.75991">
        <ele>223.7</ele>
        <time>2020-06-07T20:11:06Z</time>
      </trkpt>
      <trkpt lat="48.04474" lon="-3.75992">
        <ele>223.7</ele>
        <time>2020-06-07T20:11:07Z</time>
      </trkpt>
      <trkpt lat="48.04474" lon="-3.75993">
        <ele>223.7</ele>
        <time>2020-06-07T20:11:08Z</time>
      </trkpt>
      <trkpt lat="48.04474" lon="-3.75994">
        <ele>223.8</ele>
        <time>2020-06-07T20:11:09Z</time>
      </trkpt>
      <trkpt lat="48.04475" lon="-3.75994">
        <ele>223.8</ele>
        <time>2020-06-07T20:11:10Z</time>
      </trkpt>
      <trkpt lat="48.04475" lon="-3.75995">
        <ele>223.8</ele>
        <time>2020-06-07T20:11:11Z</time>
      </trkpt>
      <trkpt lat="48.04476" lon="-3.75998">
        <ele>223.9</ele>
        <time>2020-06-07T20:11:12Z</time>
      </trkpt>
      <trkpt lat="48.04477" lon="-3.76002">
        <ele>224.5</ele>
        <time>2020-06-07T20:11:13Z</time>
      </trkpt>
      <trkpt lat="48.04477" lon="-3.76003">
        <ele>224.5</ele>
        <time>2020-06-07T20:11:14Z</time>
      </trkpt>
      <trkpt lat="48.04478" lon="-3.76007">
        <ele>224.6</ele>
        <time>2020-06-07T20:11:15Z</time>
      </trkpt>
      <trkpt lat="48.04479" lon="-3.76009">
        <ele>224.6</ele>
        <time>2020-06-07T20:11:16Z</time>
      </trkpt>
      <trkpt lat="48.0448" lon="-3.76011">
        <ele>224.7</ele>
        <time>2020-06-07T20:11:17Z</time>
      </trkpt>
      <trkpt lat="48.04482" lon="-3.76012">
        <ele>224.7</ele>
        <time>2020-06-07T20:11:18Z</time>
      </trkpt>
      <trkpt lat="48.04483" lon="-3.76013">
        <ele>224.8</ele>
        <time>2020-06-07T20:11:19Z</time>
      </trkpt>
      <trkpt lat="48.04484" lon="-3.76014">
        <ele>224.9</ele>
        <time>2020-06-07T20:11:20Z</time>
      </trkpt>
      <trkpt lat="48.04486" lon="-3.76015">
        <ele>224.9</ele>
        <time>2020-06-07T20:11:21Z</time>
      </trkpt>
      <trkpt lat="48.04487" lon="-3.76016">
        <ele>225</ele>
        <time>2020-06-07T20:11:22Z</time>
      </trkpt>
      <trkpt lat="48.04488" lon="-3.76017">
        <ele>225</ele>
        <time>2020-06-07T20:11:23Z</time>
      </trkpt>
      <trkpt lat="48.04492" lon="-3.76018">
        <ele>225.1</ele>
        <time>2020-06-07T20:11:24Z</time>
      </trkpt>
      <trkpt lat="48.04498" lon="-3.7602">
        <ele>225.4</ele>
        <time>2020-06-07T20:11:25Z</time>
      </trkpt>
      <trkpt lat="48.04502" lon="-3.76021">
        <ele>225.5</ele>
        <time>2020-06-07T20:11:26Z</time>
      </trkpt>
      <trkpt lat="48.04505" lon="-3.76022">
        <ele>225.6</ele>
        <time>2020-06-07T20:11:27Z</time>
      </trkpt>
      <trkpt lat="48.04508" lon="-3.76023">
        <ele>225.8</ele>
        <time>2020-06-07T20:11:28Z</time>
      </trkpt>
      <trkpt lat="48.04511" lon="-3.76024">
        <ele>225.9</ele>
        <time>2020-06-07T20:11:29Z</time>
      </trkpt>
      <trkpt lat="48.04514" lon="-3.76025">
        <ele>226</ele>
        <time>2020-06-07T20:11:30Z</time>
      </trkpt>
      <trkpt lat="48.04517" lon="-3.76027">
        <ele>226.2</ele>
        <time>2020-06-07T20:11:31Z</time>
      </trkpt>
      <trkpt lat="48.0452" lon="-3.76029">
        <ele>226.3</ele>
        <time>2020-06-07T20:11:32Z</time>
      </trkpt>
      <trkpt lat="48.04524" lon="-3.76033">
        <ele>226.5</ele>
        <time>2020-06-07T20:11:33Z</time>
      </trkpt>
      <trkpt lat="48.04527" lon="-3.76037">
        <ele>226.7</ele>
        <time>2020-06-07T20:11:34Z</time>
      </trkpt>
      <trkpt lat="48.04529" lon="-3.76041">
        <ele>226.8</ele>
        <time>2020-06-07T20:11:35Z</time>
      </trkpt>
      <trkpt lat="48.04532" lon="-3.76042">
        <ele>226.9</ele>
        <time>2020-06-07T20:11:36Z</time>
      </trkpt>
      <trkpt lat="48.04534" lon="-3.76044">
        <ele>227</ele>
        <time>2020-06-07T20:11:37Z</time>
      </trkpt>
      <trkpt lat="48.04537" lon="-3.76046">
        <ele>227.1</ele>
        <time>2020-06-07T20:11:38Z</time>
      </trkpt>
      <trkpt lat="48.0454" lon="-3.76048">
        <ele>227.3</ele>
        <time>2020-06-07T20:11:39Z</time>
      </trkpt>
      <trkpt lat="48.04539" lon="-3.76048">
        <ele>227.3</ele>
        <time>2020-06-07T20:11:40Z</time>
      </trkpt>
      <trkpt lat="48.04539" lon="-3.76051">
        <ele>227.4</ele>
        <time>2020-06-07T20:11:41Z</time>
      </trkpt>
      <trkpt lat="48.04534" lon="-3.76086">
        <ele>228.2</ele>
        <time>2020-06-07T20:11:52Z</time>
      </trkpt>
      <trkpt lat="48.04533" lon="-3.76089">
        <ele>228.1</ele>
        <time>2020-06-07T20:11:53Z</time>
      </trkpt>
      <trkpt lat="48.04532" lon="-3.76089">
        <ele>228</ele>
        <time>2020-06-07T20:11:54Z</time>
      </trkpt>
      <trkpt lat="48.04532" lon="-3.76088">
        <ele>228</ele>
        <time>2020-06-07T20:11:55Z</time>
      </trkpt>
      <trkpt lat="48.04531" lon="-3.76088">
        <ele>228</ele>
        <time>2020-06-07T20:11:56Z</time>
      </trkpt>
      <trkpt lat="48.0453" lon="-3.76088">
        <ele>228</ele>
        <time>2020-06-07T20:11:57Z</time>
      </trkpt>
      <trkpt lat="48.0453" lon="-3.76087">
        <ele>227.9</ele>
        <time>2020-06-07T20:11:58Z</time>
      </trkpt>
      <trkpt lat="48.04529" lon="-3.76087">
        <ele>227.9</ele>
        <time>2020-06-07T20:11:59Z</time>
      </trkpt>
      <trkpt lat="48.04528" lon="-3.76086">
        <ele>227.9</ele>
        <time>2020-06-07T20:12:00Z</time>
      </trkpt>
      <trkpt lat="48.04527" lon="-3.76084">
        <ele>227.8</ele>
        <time>2020-06-07T20:12:01Z</time>
      </trkpt>
      <trkpt lat="48.04526" lon="-3.76085">
        <ele>227.8</ele>
        <time>2020-06-07T20:12:02Z</time>
      </trkpt>
      <trkpt lat="48.04525" lon="-3.76085">
        <ele>227.7</ele>
        <time>2020-06-07T20:12:03Z</time>
      </trkpt>
      <trkpt lat="48.04525" lon="-3.76085">
        <ele>227.7</ele>
        <time>2020-06-07T20:12:04Z</time>
      </trkpt>
      <trkpt lat="48.04525" lon="-3.76083">
        <ele>227.7</ele>
        <time>2020-06-07T20:12:05Z</time>
      </trkpt>
      <trkpt lat="48.04525" lon="-3.76081">
        <ele>227.6</ele>
        <time>2020-06-07T20:12:06Z</time>
      </trkpt>
      <trkpt lat="48.04525" lon="-3.76078">
        <ele>227.5</ele>
        <time>2020-06-07T20:12:07Z</time>
      </trkpt>
      <trkpt lat="48.04524" lon="-3.76079">
        <ele>227.5</ele>
        <time>2020-06-07T20:12:08Z</time>
      </trkpt>
      <trkpt lat="48.04524" lon="-3.76078">
        <ele>227.5</ele>
        <time>2020-06-07T20:12:09Z</time>
      </trkpt>
      <trkpt lat="48.04523" lon="-3.76079">
        <ele>227.4</ele>
        <time>2020-06-07T20:12:10Z</time>
      </trkpt>
      <trkpt lat="48.04522" lon="-3.76079">
        <ele>227.4</ele>
        <time>2020-06-07T20:12:11Z</time>
      </trkpt>
      <trkpt lat="48.04521" lon="-3.76079">
        <ele>227.4</ele>
        <time>2020-06-07T20:12:12Z</time>
      </trkpt>
      <trkpt lat="48.04521" lon="-3.76082">
        <ele>227.3</ele>
        <time>2020-06-07T20:12:14Z</time>
      </trkpt>
      <trkpt lat="48.0452" lon="-3.7608">
        <ele>227.2</ele>
        <time>2020-06-07T20:12:15Z</time>
      </trkpt>
      <trkpt lat="48.0452" lon="-3.7608">
        <ele>227.2</ele>
        <time>2020-06-07T20:12:16Z</time>
      </trkpt>
      <trkpt lat="48.0452" lon="-3.76079">
        <ele>227.2</ele>
        <time>2020-06-07T20:12:17Z</time>
      </trkpt>
      <trkpt lat="48.0452" lon="-3.76079">
        <ele>227.2</ele>
        <time>2020-06-07T20:12:18Z</time>
      </trkpt>
      <trkpt lat="48.0452" lon="-3.76079">
        <ele>227.2</ele>
        <time>2020-06-07T20:12:19Z</time>
      </trkpt>
      <trkpt lat="48.04519" lon="-3.76078">
        <ele>227.2</ele>
        <time>2020-06-07T20:12:20Z</time>
      </trkpt>
      <trkpt lat="48.04519" lon="-3.76078">
        <ele>227.2</ele>
        <time>2020-06-07T20:12:21Z</time>
      </trkpt>
      <trkpt lat="48.04519" lon="-3.76077">
        <ele>227.1</ele>
        <time>2020-06-07T20:12:22Z</time>
      </trkpt>
      <trkpt lat="48.04519" lon="-3.76077">
        <ele>227.1</ele>
        <time>2020-06-07T20:12:23Z</time>
      </trkpt>
      <trkpt lat="48.04518" lon="-3.76077">
        <ele>227.1</ele>
        <time>2020-06-07T20:12:24Z</time>
      </trkpt>
      <trkpt lat="48.04518" lon="-3.76076">
        <ele>227.1</ele>
        <time>2020-06-07T20:12:25Z</time>
      </trkpt>
      <trkpt lat="48.04518" lon="-3.76076">
        <ele>227.1</ele>
        <time>2020-06-07T20:12:26Z</time>
      </trkpt>
      <trkpt lat="48.04519" lon="-3.76071">
        <ele>227</ele>
        <time>2020-06-07T20:12:27Z</time>
      </trkpt>
      <trkpt lat="48.0452" lon="-3.7607">
        <ele>226.9</ele>
        <time>2020-06-07T20:12:28Z</time>
      </trkpt>
      <trkpt lat="48.0452" lon="-3.76069">
        <ele>226.9</ele>
        <time>2020-06-07T20:12:29Z</time>
      </trkpt>
      <trkpt lat="48.04519" lon="-3.76066">
        <ele>226.8</ele>
        <time>2020-06-07T20:12:30Z</time>
      </trkpt>
      <trkpt lat="48.04519" lon="-3.76065">
        <ele>226.8</ele>
        <time>2020-06-07T20:12:31Z</time>
      </trkpt>
      <trkpt lat="48.04518" lon="-3.76064">
        <ele>226.7</ele>
        <time>2020-06-07T20:12:32Z</time>
      </trkpt>
      <trkpt lat="48.04518" lon="-3.76062">
        <ele>226.7</ele>
        <time>2020-06-07T20:12:33Z</time>
      </trkpt>
      <trkpt lat="48.04517" lon="-3.7606">
        <ele>226.6</ele>
        <time>2020-06-07T20:12:34Z</time>
      </trkpt>
      <trkpt lat="48.04515" lon="-3.76056">
        <ele>226.5</ele>
        <time>2020-06-07T20:12:35Z</time>
      </trkpt>
      <trkpt lat="48.04515" lon="-3.76055">
        <ele>226.5</ele>
        <time>2020-06-07T20:12:36Z</time>
      </trkpt>
      <trkpt lat="48.04514" lon="-3.76052">
        <ele>226.4</ele>
        <time>2020-06-07T20:12:37Z</time>
      </trkpt>
      <trkpt lat="48.04513" lon="-3.7605">
        <ele>226.3</ele>
        <time>2020-06-07T20:12:38Z</time>
      </trkpt>
      <trkpt lat="48.04512" lon="-3.76049">
        <ele>226.3</ele>
        <time>2020-06-07T20:12:39Z</time>
      </trkpt>
      <trkpt lat="48.04512" lon="-3.76047">
        <ele>226.2</ele>
        <time>2020-06-07T20:12:40Z</time>
      </trkpt>
      <trkpt lat="48.04511" lon="-3.76045">
        <ele>226.1</ele>
        <time>2020-06-07T20:12:41Z</time>
      </trkpt>
      <trkpt lat="48.0451" lon="-3.76044">
        <ele>226.1</ele>
        <time>2020-06-07T20:12:42Z</time>
      </trkpt>
      <trkpt lat="48.04509" lon="-3.76042">
        <ele>226</ele>
        <time>2020-06-07T20:12:43Z</time>
      </trkpt>
      <trkpt lat="48.04508" lon="-3.7604">
        <ele>226</ele>
        <time>2020-06-07T20:12:44Z</time>
      </trkpt>
      <trkpt lat="48.04507" lon="-3.76039">
        <ele>225.9</ele>
        <time>2020-06-07T20:12:45Z</time>
      </trkpt>
      <trkpt lat="48.04506" lon="-3.76037">
        <ele>225.8</ele>
        <time>2020-06-07T20:12:46Z</time>
      </trkpt>
      <trkpt lat="48.04505" lon="-3.76036">
        <ele>225.8</ele>
        <time>2020-06-07T20:12:47Z</time>
      </trkpt>
      <trkpt lat="48.04504" lon="-3.76034">
        <ele>225.7</ele>
        <time>2020-06-07T20:12:48Z</time>
      </trkpt>
      <trkpt lat="48.04503" lon="-3.76032">
        <ele>225.7</ele>
        <time>2020-06-07T20:12:49Z</time>
      </trkpt>
      <trkpt lat="48.04502" lon="-3.76031">
        <ele>225.6</ele>
        <time>2020-06-07T20:12:50Z</time>
      </trkpt>
      <trkpt lat="48.04501" lon="-3.76029">
        <ele>225.6</ele>
        <time>2020-06-07T20:14:16Z</time>
      </trkpt>
      <trkpt lat="48.045" lon="-3.76027">
        <ele>225.5</ele>
        <time>2020-06-07T20:14:17Z</time>
      </trkpt>
      <trkpt lat="48.04499" lon="-3.76026">
        <ele>225.4</ele>
        <time>2020-06-07T20:14:18Z</time>
      </trkpt>
      <trkpt lat="48.04498" lon="-3.76024">
        <ele>225.4</ele>
        <time>2020-06-07T20:14:19Z</time>
      </trkpt>
      <trkpt lat="48.04498" lon="-3.76022">
        <ele>225.3</ele>
        <time>2020-06-07T20:14:20Z</time>
      </trkpt>
      <trkpt lat="48.04497" lon="-3.76021">
        <ele>225.3</ele>
        <time>2020-06-07T20:14:21Z</time>
      </trkpt>
      <trkpt lat="48.04496" lon="-3.76019">
        <ele>225.2</ele>
        <time>2020-06-07T20:14:22Z</time>
      </trkpt>
      <trkpt lat="48.04495" lon="-3.76017">
        <ele>225.2</ele>
        <time>2020-06-07T20:14:23Z</time>
      </trkpt>
      <trkpt lat="48.04494" lon="-3.76016">
        <ele>225.1</ele>
        <time>2020-06-07T20:14:24Z</time>
      </trkpt>
      <trkpt lat="48.04493" lon="-3.76014">
        <ele>225.1</ele>
        <time>2020-06-07T20:14:25Z</time>
      </trkpt>
      <trkpt lat="48.04493" lon="-3.76013">
        <ele>225</ele>
        <time>2020-06-07T20:14:26Z</time>
      </trkpt>
      <trkpt lat="48.04491" lon="-3.76012">
        <ele>225</ele>
        <time>2020-06-07T20:14:27Z</time>
      </trkpt>
      <trkpt lat="48.04491" lon="-3.76012">
        <ele>225</ele>
        <time>2020-06-07T20:14:28Z</time>
      </trkpt>
      <trkpt lat="48.04491" lon="-3.76012">
        <ele>225</ele>
        <time>2020-06-07T20:14:29Z</time>
      </trkpt>
      <trkpt lat="48.04491" lon="-3.76012">
        <ele>224.9</ele>
        <time>2020-06-07T20:14:30Z</time>
      </trkpt>
      <trkpt lat="48.04491" lon="-3.76013">
        <ele>224.9</ele>
        <time>2020-06-07T20:14:31Z</time>
      </trkpt>
      <trkpt lat="48.04491" lon="-3.76013">
        <ele>224.9</ele>
        <time>2020-06-07T20:14:32Z</time>
      </trkpt>
      <trkpt lat="48.0449" lon="-3.76012">
        <ele>224.9</ele>
        <time>2020-06-07T20:14:33Z</time>
      </trkpt>
      <trkpt lat="48.04489" lon="-3.7601">
        <ele>224.8</ele>
        <time>2020-06-07T20:14:34Z</time>
      </trkpt>
      <trkpt lat="48.04488" lon="-3.76008">
        <ele>224.8</ele>
        <time>2020-06-07T20:14:35Z</time>
      </trkpt>
      <trkpt lat="48.04488" lon="-3.76007">
        <ele>224.8</ele>
        <time>2020-06-07T20:14:36Z</time>
      </trkpt>
      <trkpt lat="48.04488" lon="-3.76005">
        <ele>224.7</ele>
        <time>2020-06-07T20:14:37Z</time>
      </trkpt>
      <trkpt lat="48.04489" lon="-3.76004">
        <ele>224.7</ele>
        <time>2020-06-07T20:14:38Z</time>
      </trkpt>
      <trkpt lat="48.04489" lon="-3.76002">
        <ele>224.6</ele>
        <time>2020-06-07T20:14:39Z</time>
      </trkpt>
      <trkpt lat="48.0449" lon="-3.76001">
        <ele>224.6</ele>
        <time>2020-06-07T20:14:40Z</time>
      </trkpt>
      <trkpt lat="48.0449" lon="-3.76">
        <ele>224.4</ele>
        <time>2020-06-07T20:14:41Z</time>
      </trkpt>
      <trkpt lat="48.04491" lon="-3.75999">
        <ele>224.6</ele>
        <time>2020-06-07T20:14:42Z</time>
      </trkpt>
      <trkpt lat="48.04491" lon="-3.76001">
        <ele>224.6</ele>
        <time>2020-06-07T20:14:43Z</time>
      </trkpt>
      <trkpt lat="48.04491" lon="-3.76003">
        <ele>224.7</ele>
        <time>2020-06-07T20:14:44Z</time>
      </trkpt>
      <trkpt lat="48.04492" lon="-3.76004">
        <ele>224.7</ele>
        <time>2020-06-07T20:14:45Z</time>
      </trkpt>
      <trkpt lat="48.04492" lon="-3.76006">
        <ele>224.8</ele>
        <time>2020-06-07T20:14:46Z</time>
      </trkpt>
      <trkpt lat="48.04492" lon="-3.76007">
        <ele>224.8</ele>
        <time>2020-06-07T20:14:47Z</time>
      </trkpt>
      <trkpt lat="48.04492" lon="-3.76009">
        <ele>224.8</ele>
        <time>2020-06-07T20:14:48Z</time>
      </trkpt>
      <trkpt lat="48.04492" lon="-3.76011">
        <ele>224.9</ele>
        <time>2020-06-07T20:14:49Z</time>
      </trkpt>
      <trkpt lat="48.04492" lon="-3.76012">
        <ele>224.9</ele>
        <time>2020-06-07T20:14:50Z</time>
      </trkpt>
      <trkpt lat="48.04493" lon="-3.76014">
        <ele>225</ele>
        <time>2020-06-07T20:14:51Z</time>
      </trkpt>
      <trkpt lat="48.04493" lon="-3.76015">
        <ele>224.4</ele>
        <time>2020-06-07T20:14:52Z</time>
      </trkpt>
      <trkpt lat="48.04493" lon="-3.76017">
        <ele>224.4</ele>
        <time>2020-06-07T20:17:52Z</time>
      </trkpt>
      <trkpt lat="48.04493" lon="-3.76019">
        <ele>224.4</ele>
        <time>2020-06-07T20:17:53Z</time>
      </trkpt>
      <trkpt lat="48.04493" lon="-3.7602">
        <ele>224.4</ele>
        <time>2020-06-07T20:17:54Z</time>
      </trkpt>
      <trkpt lat="48.04493" lon="-3.76022">
        <ele>224.4</ele>
        <time>2020-06-07T20:17:55Z</time>
      </trkpt>
      <trkpt lat="48.04493" lon="-3.76024">
        <ele>224.3</ele>
        <time>2020-06-07T20:17:56Z</time>
      </trkpt>
      <trkpt lat="48.04494" lon="-3.76025">
        <ele>224.3</ele>
        <time>2020-06-07T20:17:57Z</time>
      </trkpt>
      <trkpt lat="48.04494" lon="-3.76027">
        <ele>224.3</ele>
        <time>2020-06-07T20:17:58Z</time>
      </trkpt>
      <trkpt lat="48.04494" lon="-3.76028">
        <ele>224.3</ele>
        <time>2020-06-07T20:17:59Z</time>
      </trkpt>
      <trkpt lat="48.04494" lon="-3.7603">
        <ele>224.3</ele>
        <time>2020-06-07T20:18:00Z</time>
      </trkpt>
      <trkpt lat="48.04494" lon="-3.76032">
        <ele>224.3</ele>
        <time>2020-06-07T20:18:01Z</time>
      </trkpt>
      <trkpt lat="48.04494" lon="-3.76033">
        <ele>224.3</ele>
        <time>2020-06-07T20:18:02Z</time>
      </trkpt>
      <trkpt lat="48.04494" lon="-3.76035">
        <ele>224.3</ele>
        <time>2020-06-07T20:18:39Z</time>
      </trkpt>
      <trkpt lat="48.04495" lon="-3.76036">
        <ele>224.3</ele>
        <time>2020-06-07T20:18:40Z</time>
      </trkpt>
      <trkpt lat="48.04495" lon="-3.76038">
        <ele>224.3</ele>
        <time>2020-06-07T20:18:41Z</time>
      </trkpt>
      <trkpt lat="48.04496" lon="-3.76036">
        <ele>224.3</ele>
        <time>2020-06-07T20:18:42Z</time>
      </trkpt>
      <trkpt lat="48.04498" lon="-3.76035">
        <ele>224.3</ele>
        <time>2020-06-07T20:18:43Z</time>
      </trkpt>
      <trkpt lat="48.04498" lon="-3.76033">
        <ele>224.3</ele>
        <time>2020-06-07T20:18:44Z</time>
      </trkpt>
      <trkpt lat="48.04498" lon="-3.76033">
        <ele>224.3</ele>
        <time>2020-06-07T20:18:45Z</time>
      </trkpt>
      <trkpt lat="48.04498" lon="-3.76032">
        <ele>224.3</ele>
        <time>2020-06-07T20:18:46Z</time>
      </trkpt>
      <trkpt lat="48.04497" lon="-3.76031">
        <ele>224.3</ele>
        <time>2020-06-07T20:18:47Z</time>
      </trkpt>
      <trkpt lat="48.04497" lon="-3.76031">
        <ele>224.3</ele>
        <time>2020-06-07T20:18:48Z</time>
      </trkpt>
      <trkpt lat="48.04496" lon="-3.7603">
        <ele>224.3</ele>
        <time>2020-06-07T20:18:49Z</time>
      </trkpt>
      <trkpt lat="48.04496" lon="-3.76029">
        <ele>224.3</ele>
        <time>2020-06-07T20:18:50Z</time>
      </trkpt>
      <trkpt lat="48.04495" lon="-3.76029">
        <ele>224.3</ele>
        <time>2020-06-07T20:18:51Z</time>
      </trkpt>
      <trkpt lat="48.04495" lon="-3.76028">
        <ele>224.3</ele>
        <time>2020-06-07T20:18:52Z</time>
      </trkpt>
      <trkpt lat="48.04494" lon="-3.76027">
        <ele>224.3</ele>
        <time>2020-06-07T20:18:53Z</time>
      </trkpt>
      <trkpt lat="48.04494" lon="-3.76027">
        <ele>224.3</ele>
        <time>2020-06-07T20:18:54Z</time>
      </trkpt>
      <trkpt lat="48.04493" lon="-3.76026">
        <ele>224.3</ele>
        <time>2020-06-07T20:20:36Z</time>
      </trkpt>
      <trkpt lat="48.04493" lon="-3.76025">
        <ele>224.3</ele>
        <time>2020-06-07T20:20:37Z</time>
      </trkpt>
      <trkpt lat="48.04493" lon="-3.76024">
        <ele>224.3</ele>
        <time>2020-06-07T20:20:38Z</time>
      </trkpt>
      <trkpt lat="48.04494" lon="-3.76024">
        <ele>224.3</ele>
        <time>2020-06-07T20:20:39Z</time>
      </trkpt>
      <trkpt lat="48.04494" lon="-3.76024">
        <ele>224.3</ele>
        <time>2020-06-07T20:20:40Z</time>
      </trkpt>
      <trkpt lat="48.04495" lon="-3.76024">
        <ele>224.3</ele>
        <time>2020-06-07T20:20:41Z</time>
      </trkpt>
      <trkpt lat="48.04495" lon="-3.76025">
        <ele>224.3</ele>
        <time>2020-06-07T20:20:42Z</time>
      </trkpt>
      <trkpt lat="48.04495" lon="-3.76025">
        <ele>224.3</ele>
        <time>2020-06-07T20:20:43Z</time>
      </trkpt>
      <trkpt lat="48.04495" lon="-3.76026">
        <ele>224.2</ele>
        <time>2020-06-07T20:20:44Z</time>
      </trkpt>
      <trkpt lat="48.04495" lon="-3.76026">
        <ele>224.2</ele>
        <time>2020-06-07T20:20:45Z</time>
      </trkpt>
      <trkpt lat="48.04495" lon="-3.76027">
        <ele>224.2</ele>
        <time>2020-06-07T20:20:46Z</time>
      </trkpt>
      <trkpt lat="48.04494" lon="-3.76027">
        <ele>224.2</ele>
        <time>2020-06-07T20:20:47Z</time>
      </trkpt>
      <trkpt lat="48.04495" lon="-3.76028">
        <ele>224.2</ele>
        <time>2020-06-07T20:20:48Z</time>
      </trkpt>
      <trkpt lat="48.04494" lon="-3.76028">
        <ele>224.2</ele>
        <time>2020-06-07T20:20:49Z</time>
      </trkpt>
      <trkpt lat="48.04495" lon="-3.76027">
        <ele>224.2</ele>
        <time>2020-06-07T20:20:50Z</time>
      </trkpt>
      <trkpt lat="48.04495" lon="-3.76027">
        <ele>224.2</ele>
        <time>2020-06-07T20:20:51Z</time>
      </trkpt>
      <trkpt lat="48.04494" lon="-3.76027">
        <ele>224.2</ele>
        <time>2020-06-07T20:20:52Z</time>
      </trkpt>
      <trkpt lat="48.04495" lon="-3.76027">
        <ele>224.2</ele>
        <time>2020-06-07T20:20:53Z</time>
      </trkpt>
      <trkpt lat="48.04494" lon="-3.76027">
        <ele>224.2</ele>
        <time>2020-06-07T20:20:54Z</time>
      </trkpt>
      <trkpt lat="48.04494" lon="-3.76028">
        <ele>224.2</ele>
        <time>2020-06-07T20:20:55Z</time>
      </trkpt>
      <trkpt lat="48.04493" lon="-3.76029">
        <ele>224.2</ele>
        <time>2020-06-07T20:20:56Z</time>
      </trkpt>
      <trkpt lat="48.04493" lon="-3.76029">
        <ele>224.2</ele>
        <time>2020-06-07T20:20:57Z</time>
      </trkpt>
      <trkpt lat="48.04493" lon="-3.76029">
        <ele>224.2</ele>
        <time>2020-06-07T20:20:58Z</time>
      </trkpt>
      <trkpt lat="48.04493" lon="-3.76028">
        <ele>224.2</ele>
        <time>2020-06-07T20:20:59Z</time>
      </trkpt>
      <trkpt lat="48.04481" lon="-3.76024">
        <ele>224.2</ele>
        <time>2020-06-07T20:21:57Z</time>
      </trkpt>
      <trkpt lat="48.04481" lon="-3.76023">
        <ele>224.2</ele>
        <time>2020-06-07T20:21:58Z</time>
      </trkpt>
      <trkpt lat="48.04481" lon="-3.76022">
        <ele>224.2</ele>
        <time>2020-06-07T20:21:59Z</time>
      </trkpt>
      <trkpt lat="48.0448" lon="-3.76022">
        <ele>224.2</ele>
        <time>2020-06-07T20:22:00Z</time>
      </trkpt>
      <trkpt lat="48.04479" lon="-3.76022">
        <ele>224.2</ele>
        <time>2020-06-07T20:22:01Z</time>
      </trkpt>
      <trkpt lat="48.04477" lon="-3.76021">
        <ele>224.2</ele>
        <time>2020-06-07T20:22:02Z</time>
      </trkpt>
      <trkpt lat="48.04476" lon="-3.7602">
        <ele>224.2</ele>
        <time>2020-06-07T20:22:03Z</time>
      </trkpt>
      <trkpt lat="48.04475" lon="-3.76019">
        <ele>224.2</ele>
        <time>2020-06-07T20:22:04Z</time>
      </trkpt>
      <trkpt lat="48.04474" lon="-3.76018">
        <ele>224.2</ele>
        <time>2020-06-07T20:22:05Z</time>
      </trkpt>
      <trkpt lat="48.04473" lon="-3.76017">
        <ele>224.1</ele>
        <time>2020-06-07T20:22:06Z</time>
      </trkpt>
      <trkpt lat="48.04471" lon="-3.76016">
        <ele>224.1</ele>
        <time>2020-06-07T20:22:07Z</time>
      </trkpt>
      <trkpt lat="48.0447" lon="-3.76014">
        <ele>224.1</ele>
        <time>2020-06-07T20:22:53Z</time>
      </trkpt>
      <trkpt lat="48.04469" lon="-3.76013">
        <ele>224.1</ele>
        <time>2020-06-07T20:22:54Z</time>
      </trkpt>
      <trkpt lat="48.04466" lon="-3.76016">
        <ele>224.1</ele>
        <time>2020-06-07T20:22:55Z</time>
      </trkpt>
      <trkpt lat="48.04465" lon="-3.76017">
        <ele>224.1</ele>
        <time>2020-06-07T20:22:56Z</time>
      </trkpt>
      <trkpt lat="48.04462" lon="-3.76021">
        <ele>224.1</ele>
        <time>2020-06-07T20:22:57Z</time>
      </trkpt>
      <trkpt lat="48.04461" lon="-3.76022">
        <ele>224.1</ele>
        <time>2020-06-07T20:22:58Z</time>
      </trkpt>
      <trkpt lat="48.04459" lon="-3.76026">
        <ele>224.1</ele>
        <time>2020-06-07T20:22:59Z</time>
      </trkpt>
      <trkpt lat="48.04456" lon="-3.76032">
        <ele>224.2</ele>
        <time>2020-06-07T20:23:00Z</time>
      </trkpt>
      <trkpt lat="48.04455" lon="-3.76038">
        <ele>224.3</ele>
        <time>2020-06-07T20:23:01Z</time>
      </trkpt>
      <trkpt lat="48.04455" lon="-3.76045">
        <ele>224.4</ele>
        <time>2020-06-07T20:23:02Z</time>
      </trkpt>
      <trkpt lat="48.04456" lon="-3.7605">
        <ele>224.5</ele>
        <time>2020-06-07T20:23:03Z</time>
      </trkpt>
      <trkpt lat="48.04458" lon="-3.76056">
        <ele>224.6</ele>
        <time>2020-06-07T20:23:04Z</time>
      </trkpt>
      <trkpt lat="48.04458" lon="-3.76062">
        <ele>224.6</ele>
        <time>2020-06-07T20:23:05Z</time>
      </trkpt>
      <trkpt lat="48.04458" lon="-3.76068">
        <ele>224.7</ele>
        <time>2020-06-07T20:23:06Z</time>
      </trkpt>
      <trkpt lat="48.04459" lon="-3.76073">
        <ele>224.8</ele>
        <time>2020-06-07T20:23:07Z</time>
      </trkpt>
      <trkpt lat="48.04459" lon="-3.76078">
        <ele>224.9</ele>
        <time>2020-06-07T20:23:08Z</time>
      </trkpt>
      <trkpt lat="48.04458" lon="-3.76083">
        <ele>225</ele>
        <time>2020-06-07T20:23:09Z</time>
      </trkpt>
      <trkpt lat="48.04455" lon="-3.76087">
        <ele>225.1</ele>
        <time>2020-06-07T20:23:10Z</time>
      </trkpt>
      <trkpt lat="48.04451" lon="-3.76091">
        <ele>224.3</ele>
        <time>2020-06-07T20:23:11Z</time>
      </trkpt>
      <trkpt lat="48.04447" lon="-3.76093">
        <ele>224</ele>
        <time>2020-06-07T20:23:12Z</time>
      </trkpt>
      <trkpt lat="48.04442" lon="-3.76094">
        <ele>223.7</ele>
        <time>2020-06-07T20:23:13Z</time>
      </trkpt>
      <trkpt lat="48.04437" lon="-3.76094">
        <ele>223.3</ele>
        <time>2020-06-07T20:23:14Z</time>
      </trkpt>
      <trkpt lat="48.04431" lon="-3.76095">
        <ele>223</ele>
        <time>2020-06-07T20:23:15Z</time>
      </trkpt>
      <trkpt lat="48.04426" lon="-3.76097">
        <ele>222.7</ele>
        <time>2020-06-07T20:23:16Z</time>
      </trkpt>
      <trkpt lat="48.0442" lon="-3.76098">
        <ele>222.3</ele>
        <time>2020-06-07T20:23:17Z</time>
      </trkpt>
      <trkpt lat="48.04413" lon="-3.76099">
        <ele>221.9</ele>
        <time>2020-06-07T20:23:18Z</time>
      </trkpt>
      <trkpt lat="48.04407" lon="-3.761">
        <ele>221.5</ele>
        <time>2020-06-07T20:23:19Z</time>
      </trkpt>
      <trkpt lat="48.044" lon="-3.761">
        <ele>221.1</ele>
        <time>2020-06-07T20:23:20Z</time>
      </trkpt>
      <trkpt lat="48.04392" lon="-3.76098">
        <ele>220.7</ele>
        <time>2020-06-07T20:23:21Z</time>
      </trkpt>
      <trkpt lat="48.04385" lon="-3.76096">
        <ele>220.3</ele>
        <time>2020-06-07T20:23:22Z</time>
      </trkpt>
      <trkpt lat="48.04377" lon="-3.76094">
        <ele>219.9</ele>
        <time>2020-06-07T20:23:23Z</time>
      </trkpt>
      <trkpt lat="48.04369" lon="-3.76091">
        <ele>219.4</ele>
        <time>2020-06-07T20:23:24Z</time>
      </trkpt>
      <trkpt lat="48.04362" lon="-3.76087">
        <ele>219</ele>
        <time>2020-06-07T20:23:25Z</time>
      </trkpt>
      <trkpt lat="48.04355" lon="-3.76083">
        <ele>218.6</ele>
        <time>2020-06-07T20:23:26Z</time>
      </trkpt>
      <trkpt lat="48.04347" lon="-3.76077">
        <ele>218.1</ele>
        <time>2020-06-07T20:23:27Z</time>
      </trkpt>
      <trkpt lat="48.04338" lon="-3.7607">
        <ele>217.5</ele>
        <time>2020-06-07T20:23:28Z</time>
      </trkpt>
      <trkpt lat="48.04329" lon="-3.76065">
        <ele>217</ele>
        <time>2020-06-07T20:23:29Z</time>
      </trkpt>
      <trkpt lat="48.04322" lon="-3.76059">
        <ele>216.6</ele>
        <time>2020-06-07T20:23:30Z</time>
      </trkpt>
      <trkpt lat="48.04312" lon="-3.76052">
        <ele>216.1</ele>
        <time>2020-06-07T20:23:31Z</time>
      </trkpt>
      <trkpt lat="48.04304" lon="-3.76046">
        <ele>215.8</ele>
        <time>2020-06-07T20:23:32Z</time>
      </trkpt>
      <trkpt lat="48.04295" lon="-3.76041">
        <ele>215.4</ele>
        <time>2020-06-07T20:23:33Z</time>
      </trkpt>
      <trkpt lat="48.04287" lon="-3.76035">
        <ele>215.1</ele>
        <time>2020-06-07T20:23:34Z</time>
      </trkpt>
      <trkpt lat="48.04278" lon="-3.7603">
        <ele>214.9</ele>
        <time>2020-06-07T20:23:35Z</time>
      </trkpt>
      <trkpt lat="48.0427" lon="-3.76024">
        <ele>214.7</ele>
        <time>2020-06-07T20:23:36Z</time>
      </trkpt>
      <trkpt lat="48.04261" lon="-3.76018">
        <ele>214.5</ele>
        <time>2020-06-07T20:23:37Z</time>
      </trkpt>
      <trkpt lat="48.04253" lon="-3.76013">
        <ele>214.5</ele>
        <time>2020-06-07T20:23:38Z</time>
      </trkpt>
      <trkpt lat="48.04244" lon="-3.76008">
        <ele>214.4</ele>
        <time>2020-06-07T20:23:39Z</time>
      </trkpt>
      <trkpt lat="48.04236" lon="-3.76003">
        <ele>214.4</ele>
        <time>2020-06-07T20:23:40Z</time>
      </trkpt>
      <trkpt lat="48.04228" lon="-3.75998">
        <ele>214.5</ele>
        <time>2020-06-07T20:23:41Z</time>
      </trkpt>
      <trkpt lat="48.04219" lon="-3.75993">
        <ele>214.6</ele>
        <time>2020-06-07T20:23:42Z</time>
      </trkpt>
      <trkpt lat="48.04211" lon="-3.75989">
        <ele>214.7</ele>
        <time>2020-06-07T20:23:43Z</time>
      </trkpt>
      <trkpt lat="48.04204" lon="-3.75985">
        <ele>214.9</ele>
        <time>2020-06-07T20:23:44Z</time>
      </trkpt>
      <trkpt lat="48.04196" lon="-3.75981">
        <ele>215.1</ele>
        <time>2020-06-07T20:23:45Z</time>
      </trkpt>
      <trkpt lat="48.04188" lon="-3.75976">
        <ele>215.3</ele>
        <time>2020-06-07T20:23:46Z</time>
      </trkpt>
      <trkpt lat="48.04181" lon="-3.75973">
        <ele>215.5</ele>
        <time>2020-06-07T20:23:47Z</time>
      </trkpt>
      <trkpt lat="48.04174" lon="-3.75969">
        <ele>215.7</ele>
        <time>2020-06-07T20:23:48Z</time>
      </trkpt>
      <trkpt lat="48.04167" lon="-3.75966">
        <ele>215.9</ele>
        <time>2020-06-07T20:23:49Z</time>
      </trkpt>
      <trkpt lat="48.0416" lon="-3.75962">
        <ele>216.1</ele>
        <time>2020-06-07T20:23:50Z</time>
      </trkpt>
      <trkpt lat="48.04153" lon="-3.75959">
        <ele>216.3</ele>
        <time>2020-06-07T20:23:51Z</time>
      </trkpt>
      <trkpt lat="48.04147" lon="-3.75956">
        <ele>216.5</ele>
        <time>2020-06-07T20:23:52Z</time>
      </trkpt>
      <trkpt lat="48.04141" lon="-3.75953">
        <ele>216.8</ele>
        <time>2020-06-07T20:23:53Z</time>
      </trkpt>
      <trkpt lat="48.04135" lon="-3.75951">
        <ele>216.9</ele>
        <time>2020-06-07T20:23:54Z</time>
      </trkpt>
      <trkpt lat="48.04129" lon="-3.75948">
        <ele>217.1</ele>
        <time>2020-06-07T20:23:55Z</time>
      </trkpt>
      <trkpt lat="48.04123" lon="-3.75944">
        <ele>217.3</ele>
        <time>2020-06-07T20:23:56Z</time>
      </trkpt>
      <trkpt lat="48.04116" lon="-3.7594">
        <ele>217.5</ele>
        <time>2020-06-07T20:23:57Z</time>
      </trkpt>
      <trkpt lat="48.04111" lon="-3.75936">
        <ele>217.6</ele>
        <time>2020-06-07T20:23:58Z</time>
      </trkpt>
      <trkpt lat="48.04105" lon="-3.75933">
        <ele>217.7</ele>
        <time>2020-06-07T20:23:59Z</time>
      </trkpt>
      <trkpt lat="48.04099" lon="-3.75931">
        <ele>217.8</ele>
        <time>2020-06-07T20:24:00Z</time>
      </trkpt>
      <trkpt lat="48.04093" lon="-3.75929">
        <ele>217.9</ele>
        <time>2020-06-07T20:24:01Z</time>
      </trkpt>
      <trkpt lat="48.04086" lon="-3.75925">
        <ele>217.9</ele>
        <time>2020-06-07T20:24:02Z</time>
      </trkpt>
      <trkpt lat="48.04081" lon="-3.75922">
        <ele>217.9</ele>
        <time>2020-06-07T20:24:03Z</time>
      </trkpt>
      <trkpt lat="48.04074" lon="-3.75919">
        <ele>217.9</ele>
        <time>2020-06-07T20:24:04Z</time>
      </trkpt>
      <trkpt lat="48.04066" lon="-3.75916">
        <ele>217.8</ele>
        <time>2020-06-07T20:24:05Z</time>
      </trkpt>
      <trkpt lat="48.04058" lon="-3.75911">
        <ele>217.7</ele>
        <time>2020-06-07T20:24:06Z</time>
      </trkpt>
      <trkpt lat="48.04051" lon="-3.75907">
        <ele>217.5</ele>
        <time>2020-06-07T20:24:07Z</time>
      </trkpt>
      <trkpt lat="48.04043" lon="-3.75903">
        <ele>217.2</ele>
        <time>2020-06-07T20:24:08Z</time>
      </trkpt>
      <trkpt lat="48.04035" lon="-3.75897">
        <ele>216.9</ele>
        <time>2020-06-07T20:24:09Z</time>
      </trkpt>
      <trkpt lat="48.04027" lon="-3.75891">
        <ele>216.6</ele>
        <time>2020-06-07T20:24:10Z</time>
      </trkpt>
      <trkpt lat="48.04019" lon="-3.75887">
        <ele>216.4</ele>
        <time>2020-06-07T20:24:11Z</time>
      </trkpt>
      <trkpt lat="48.04011" lon="-3.75882">
        <ele>216.1</ele>
        <time>2020-06-07T20:24:12Z</time>
      </trkpt>
      <trkpt lat="48.04002" lon="-3.75877">
        <ele>215.8</ele>
        <time>2020-06-07T20:24:13Z</time>
      </trkpt>
      <trkpt lat="48.03995" lon="-3.75872">
        <ele>215.5</ele>
        <time>2020-06-07T20:24:14Z</time>
      </trkpt>
      <trkpt lat="48.03987" lon="-3.75868">
        <ele>215.2</ele>
        <time>2020-06-07T20:24:15Z</time>
      </trkpt>
      <trkpt lat="48.03979" lon="-3.75864">
        <ele>214.9</ele>
        <time>2020-06-07T20:24:16Z</time>
      </trkpt>
      <trkpt lat="48.0397" lon="-3.75861">
        <ele>214.6</ele>
        <time>2020-06-07T20:24:17Z</time>
      </trkpt>
      <trkpt lat="48.03962" lon="-3.75858">
        <ele>214.3</ele>
        <time>2020-06-07T20:24:18Z</time>
      </trkpt>
      <trkpt lat="48.03954" lon="-3.75856">
        <ele>213.9</ele>
        <time>2020-06-07T20:24:19Z</time>
      </trkpt>
      <trkpt lat="48.03945" lon="-3.75854">
        <ele>213.7</ele>
        <time>2020-06-07T20:24:20Z</time>
      </trkpt>
      <trkpt lat="48.03935" lon="-3.75853">
        <ele>213.5</ele>
        <time>2020-06-07T20:24:21Z</time>
      </trkpt>
      <trkpt lat="48.03925" lon="-3.75851">
        <ele>213.3</ele>
        <time>2020-06-07T20:24:22Z</time>
      </trkpt>
      <trkpt lat="48.03916" lon="-3.7585">
        <ele>213.1</ele>
        <time>2020-06-07T20:24:23Z</time>
      </trkpt>
      <trkpt lat="48.03905" lon="-3.75849">
        <ele>212.9</ele>
        <time>2020-06-07T20:24:24Z</time>
      </trkpt>
      <trkpt lat="48.03894" lon="-3.75848">
        <ele>212.5</ele>
        <time>2020-06-07T20:24:25Z</time>
      </trkpt>
      <trkpt lat="48.03884" lon="-3.75844">
        <ele>212.1</ele>
        <time>2020-06-07T20:24:26Z</time>
      </trkpt>
      <trkpt lat="48.03873" lon="-3.75841">
        <ele>211.8</ele>
        <time>2020-06-07T20:24:27Z</time>
      </trkpt>
      <trkpt lat="48.03863" lon="-3.7584">
        <ele>211.5</ele>
        <time>2020-06-07T20:24:28Z</time>
      </trkpt>
      <trkpt lat="48.03852" lon="-3.75839">
        <ele>211</ele>
        <time>2020-06-07T20:24:29Z</time>
      </trkpt>
      <trkpt lat="48.03842" lon="-3.75837">
        <ele>210.5</ele>
        <time>2020-06-07T20:24:30Z</time>
      </trkpt>
      <trkpt lat="48.03831" lon="-3.75837">
        <ele>210</ele>
        <time>2020-06-07T20:24:31Z</time>
      </trkpt>
      <trkpt lat="48.03821" lon="-3.75838">
        <ele>209.5</ele>
        <time>2020-06-07T20:24:32Z</time>
      </trkpt>
      <trkpt lat="48.03811" lon="-3.75838">
        <ele>209.2</ele>
        <time>2020-06-07T20:24:33Z</time>
      </trkpt>
      <trkpt lat="48.03801" lon="-3.75837">
        <ele>208.9</ele>
        <time>2020-06-07T20:24:34Z</time>
      </trkpt>
      <trkpt lat="48.03791" lon="-3.75836">
        <ele>208.6</ele>
        <time>2020-06-07T20:24:35Z</time>
      </trkpt>
      <trkpt lat="48.03781" lon="-3.75834">
        <ele>208.3</ele>
        <time>2020-06-07T20:24:36Z</time>
      </trkpt>
      <trkpt lat="48.0377" lon="-3.75832">
        <ele>207.9</ele>
        <time>2020-06-07T20:24:37Z</time>
      </trkpt>
      <trkpt lat="48.0376" lon="-3.7583">
        <ele>207.6</ele>
        <time>2020-06-07T20:24:38Z</time>
      </trkpt>
      <trkpt lat="48.0375" lon="-3.75829">
        <ele>207.1</ele>
        <time>2020-06-07T20:24:39Z</time>
      </trkpt>
      <trkpt lat="48.0374" lon="-3.75826">
        <ele>206.6</ele>
        <time>2020-06-07T20:24:40Z</time>
      </trkpt>
      <trkpt lat="48.03729" lon="-3.75823">
        <ele>206.1</ele>
        <time>2020-06-07T20:24:41Z</time>
      </trkpt>
      <trkpt lat="48.03719" lon="-3.7582">
        <ele>205.6</ele>
        <time>2020-06-07T20:24:42Z</time>
      </trkpt>
      <trkpt lat="48.03709" lon="-3.75815">
        <ele>205</ele>
        <time>2020-06-07T20:24:43Z</time>
      </trkpt>
      <trkpt lat="48.03699" lon="-3.75811">
        <ele>204.4</ele>
        <time>2020-06-07T20:24:44Z</time>
      </trkpt>
      <trkpt lat="48.03688" lon="-3.75806">
        <ele>203.6</ele>
        <time>2020-06-07T20:24:45Z</time>
      </trkpt>
      <trkpt lat="48.03678" lon="-3.758">
        <ele>202.7</ele>
        <time>2020-06-07T20:24:46Z</time>
      </trkpt>
      <trkpt lat="48.03667" lon="-3.75794">
        <ele>201.4</ele>
        <time>2020-06-07T20:24:47Z</time>
      </trkpt>
      <trkpt lat="48.03657" lon="-3.75787">
        <ele>200.3</ele>
        <time>2020-06-07T20:24:48Z</time>
      </trkpt>
      <trkpt lat="48.03648" lon="-3.7578">
        <ele>200.4</ele>
        <time>2020-06-07T20:24:49Z</time>
      </trkpt>
      <trkpt lat="48.03638" lon="-3.75772">
        <ele>200.8</ele>
        <time>2020-06-07T20:24:50Z</time>
      </trkpt>
      <trkpt lat="48.03628" lon="-3.75765">
        <ele>201.3</ele>
        <time>2020-06-07T20:24:51Z</time>
      </trkpt>
      <trkpt lat="48.03618" lon="-3.75758">
        <ele>201.1</ele>
        <time>2020-06-07T20:24:52Z</time>
      </trkpt>
      <trkpt lat="48.03608" lon="-3.75751">
        <ele>200.5</ele>
        <time>2020-06-07T20:24:53Z</time>
      </trkpt>
      <trkpt lat="48.03598" lon="-3.75746">
        <ele>200</ele>
        <time>2020-06-07T20:24:54Z</time>
      </trkpt>
      <trkpt lat="48.03588" lon="-3.75741">
        <ele>199.8</ele>
        <time>2020-06-07T20:24:55Z</time>
      </trkpt>
      <trkpt lat="48.03578" lon="-3.75737">
        <ele>199.6</ele>
        <time>2020-06-07T20:24:56Z</time>
      </trkpt>
      <trkpt lat="48.03568" lon="-3.75735">
        <ele>199.4</ele>
        <time>2020-06-07T20:24:57Z</time>
      </trkpt>
      <trkpt lat="48.03559" lon="-3.75732">
        <ele>199.3</ele>
        <time>2020-06-07T20:24:58Z</time>
      </trkpt>
      <trkpt lat="48.0355" lon="-3.75729">
        <ele>199.2</ele>
        <time>2020-06-07T20:24:59Z</time>
      </trkpt>
      <trkpt lat="48.03542" lon="-3.75726">
        <ele>199.1</ele>
        <time>2020-06-07T20:25:00Z</time>
      </trkpt>
      <trkpt lat="48.03534" lon="-3.75725">
        <ele>199.1</ele>
        <time>2020-06-07T20:25:01Z</time>
      </trkpt>
      <trkpt lat="48.03525" lon="-3.75724">
        <ele>199</ele>
        <time>2020-06-07T20:25:02Z</time>
      </trkpt>
      <trkpt lat="48.03516" lon="-3.75722">
        <ele>198.9</ele>
        <time>2020-06-07T20:25:03Z</time>
      </trkpt>
      <trkpt lat="48.03508" lon="-3.75719">
        <ele>198.7</ele>
        <time>2020-06-07T20:25:04Z</time>
      </trkpt>
      <trkpt lat="48.03499" lon="-3.75716">
        <ele>198.6</ele>
        <time>2020-06-07T20:25:05Z</time>
      </trkpt>
      <trkpt lat="48.03491" lon="-3.75714">
        <ele>198.6</ele>
        <time>2020-06-07T20:25:06Z</time>
      </trkpt>
      <trkpt lat="48.03484" lon="-3.75712">
        <ele>198.7</ele>
        <time>2020-06-07T20:25:07Z</time>
      </trkpt>
      <trkpt lat="48.03476" lon="-3.75709">
        <ele>198.7</ele>
        <time>2020-06-07T20:25:08Z</time>
      </trkpt>
      <trkpt lat="48.03469" lon="-3.75707">
        <ele>198.8</ele>
        <time>2020-06-07T20:25:09Z</time>
      </trkpt>
      <trkpt lat="48.03461" lon="-3.75705">
        <ele>198.9</ele>
        <time>2020-06-07T20:25:10Z</time>
      </trkpt>
      <trkpt lat="48.03454" lon="-3.75701">
        <ele>198.9</ele>
        <time>2020-06-07T20:25:11Z</time>
      </trkpt>
      <trkpt lat="48.03447" lon="-3.75699">
        <ele>199</ele>
        <time>2020-06-07T20:25:12Z</time>
      </trkpt>
      <trkpt lat="48.0344" lon="-3.75696">
        <ele>199.1</ele>
        <time>2020-06-07T20:25:13Z</time>
      </trkpt>
      <trkpt lat="48.03433" lon="-3.75693">
        <ele>199.2</ele>
        <time>2020-06-07T20:25:14Z</time>
      </trkpt>
      <trkpt lat="48.03427" lon="-3.7569">
        <ele>199.2</ele>
        <time>2020-06-07T20:25:15Z</time>
      </trkpt>
      <trkpt lat="48.0342" lon="-3.75689">
        <ele>199.2</ele>
        <time>2020-06-07T20:25:16Z</time>
      </trkpt>
      <trkpt lat="48.03413" lon="-3.75689">
        <ele>199.2</ele>
        <time>2020-06-07T20:25:17Z</time>
      </trkpt>
      <trkpt lat="48.03406" lon="-3.75688">
        <ele>199.2</ele>
        <time>2020-06-07T20:25:18Z</time>
      </trkpt>
      <trkpt lat="48.034" lon="-3.75686">
        <ele>199.2</ele>
        <time>2020-06-07T20:25:19Z</time>
      </trkpt>
      <trkpt lat="48.03394" lon="-3.75684">
        <ele>199.2</ele>
        <time>2020-06-07T20:25:20Z</time>
      </trkpt>
      <trkpt lat="48.03388" lon="-3.75682">
        <ele>199.1</ele>
        <time>2020-06-07T20:25:21Z</time>
      </trkpt>
      <trkpt lat="48.03381" lon="-3.75679">
        <ele>199.1</ele>
        <time>2020-06-07T20:25:22Z</time>
      </trkpt>
      <trkpt lat="48.03375" lon="-3.75677">
        <ele>199</ele>
        <time>2020-06-07T20:25:23Z</time>
      </trkpt>
      <trkpt lat="48.03368" lon="-3.75676">
        <ele>198.9</ele>
        <time>2020-06-07T20:25:24Z</time>
      </trkpt>
      <trkpt lat="48.03362" lon="-3.75675">
        <ele>198.8</ele>
        <time>2020-06-07T20:25:25Z</time>
      </trkpt>
      <trkpt lat="48.03355" lon="-3.75673">
        <ele>198.8</ele>
        <time>2020-06-07T20:25:26Z</time>
      </trkpt>
      <trkpt lat="48.03347" lon="-3.75671">
        <ele>198.7</ele>
        <time>2020-06-07T20:25:27Z</time>
      </trkpt>
      <trkpt lat="48.03339" lon="-3.75669">
        <ele>198.7</ele>
        <time>2020-06-07T20:25:28Z</time>
      </trkpt>
      <trkpt lat="48.0333" lon="-3.75667">
        <ele>198.7</ele>
        <time>2020-06-07T20:25:29Z</time>
      </trkpt>
      <trkpt lat="48.03321" lon="-3.75664">
        <ele>198.6</ele>
        <time>2020-06-07T20:25:30Z</time>
      </trkpt>
      <trkpt lat="48.03313" lon="-3.7566">
        <ele>198.5</ele>
        <time>2020-06-07T20:25:31Z</time>
      </trkpt>
      <trkpt lat="48.03304" lon="-3.75658">
        <ele>198.5</ele>
        <time>2020-06-07T20:25:32Z</time>
      </trkpt>
      <trkpt lat="48.03297" lon="-3.75653">
        <ele>198.5</ele>
        <time>2020-06-07T20:25:33Z</time>
      </trkpt>
      <trkpt lat="48.03289" lon="-3.75648">
        <ele>198.6</ele>
        <time>2020-06-07T20:25:34Z</time>
      </trkpt>
      <trkpt lat="48.03281" lon="-3.75643">
        <ele>198.6</ele>
        <time>2020-06-07T20:25:35Z</time>
      </trkpt>
      <trkpt lat="48.03274" lon="-3.7564">
        <ele>198.6</ele>
        <time>2020-06-07T20:25:36Z</time>
      </trkpt>
      <trkpt lat="48.03266" lon="-3.75639">
        <ele>198.6</ele>
        <time>2020-06-07T20:25:37Z</time>
      </trkpt>
      <trkpt lat="48.0326" lon="-3.75641">
        <ele>198.6</ele>
        <time>2020-06-07T20:25:38Z</time>
      </trkpt>
      <trkpt lat="48.03254" lon="-3.75648">
        <ele>198.6</ele>
        <time>2020-06-07T20:25:39Z</time>
      </trkpt>
      <trkpt lat="48.03249" lon="-3.75655">
        <ele>198.6</ele>
        <time>2020-06-07T20:25:40Z</time>
      </trkpt>
      <trkpt lat="48.03246" lon="-3.75661">
        <ele>198.6</ele>
        <time>2020-06-07T20:25:41Z</time>
      </trkpt>
      <trkpt lat="48.03242" lon="-3.75665">
        <ele>198.5</ele>
        <time>2020-06-07T20:25:42Z</time>
      </trkpt>
      <trkpt lat="48.03238" lon="-3.75666">
        <ele>198.3</ele>
        <time>2020-06-07T20:25:43Z</time>
      </trkpt>
      <trkpt lat="48.03232" lon="-3.75668">
        <ele>198.1</ele>
        <time>2020-06-07T20:25:44Z</time>
      </trkpt>
      <trkpt lat="48.03226" lon="-3.75668">
        <ele>197.8</ele>
        <time>2020-06-07T20:25:45Z</time>
      </trkpt>
      <trkpt lat="48.03219" lon="-3.75668">
        <ele>197.5</ele>
        <time>2020-06-07T20:25:46Z</time>
      </trkpt>
      <trkpt lat="48.03212" lon="-3.75665">
        <ele>197.1</ele>
        <time>2020-06-07T20:25:47Z</time>
      </trkpt>
      <trkpt lat="48.03204" lon="-3.75661">
        <ele>196.8</ele>
        <time>2020-06-07T20:25:48Z</time>
      </trkpt>
      <trkpt lat="48.03196" lon="-3.75659">
        <ele>196.5</ele>
        <time>2020-06-07T20:25:49Z</time>
      </trkpt>
      <trkpt lat="48.03187" lon="-3.75657">
        <ele>196.3</ele>
        <time>2020-06-07T20:25:50Z</time>
      </trkpt>
      <trkpt lat="48.03178" lon="-3.75654">
        <ele>196</ele>
        <time>2020-06-07T20:25:51Z</time>
      </trkpt>
      <trkpt lat="48.03172" lon="-3.75652">
        <ele>195.9</ele>
        <time>2020-06-07T20:25:52Z</time>
      </trkpt>
      <trkpt lat="48.03166" lon="-3.75648">
        <ele>195.6</ele>
        <time>2020-06-07T20:25:53Z</time>
      </trkpt>
      <trkpt lat="48.03159" lon="-3.75645">
        <ele>195.4</ele>
        <time>2020-06-07T20:25:54Z</time>
      </trkpt>
      <trkpt lat="48.03152" lon="-3.75641">
        <ele>195.1</ele>
        <time>2020-06-07T20:25:55Z</time>
      </trkpt>
      <trkpt lat="48.03144" lon="-3.75637">
        <ele>195</ele>
        <time>2020-06-07T20:25:56Z</time>
      </trkpt>
      <trkpt lat="48.03135" lon="-3.75634">
        <ele>194.8</ele>
        <time>2020-06-07T20:25:57Z</time>
      </trkpt>
      <trkpt lat="48.03125" lon="-3.7563">
        <ele>194.8</ele>
        <time>2020-06-07T20:25:58Z</time>
      </trkpt>
      <trkpt lat="48.03116" lon="-3.75627">
        <ele>194.7</ele>
        <time>2020-06-07T20:25:59Z</time>
      </trkpt>
      <trkpt lat="48.03106" lon="-3.75623">
        <ele>194.6</ele>
        <time>2020-06-07T20:26:00Z</time>
      </trkpt>
      <trkpt lat="48.03094" lon="-3.75619">
        <ele>194.3</ele>
        <time>2020-06-07T20:26:01Z</time>
      </trkpt>
      <trkpt lat="48.03083" lon="-3.75615">
        <ele>194.1</ele>
        <time>2020-06-07T20:26:02Z</time>
      </trkpt>
      <trkpt lat="48.03073" lon="-3.75612">
        <ele>193.9</ele>
        <time>2020-06-07T20:26:03Z</time>
      </trkpt>
      <trkpt lat="48.03062" lon="-3.75609">
        <ele>193.8</ele>
        <time>2020-06-07T20:26:04Z</time>
      </trkpt>
      <trkpt lat="48.03052" lon="-3.75606">
        <ele>193.6</ele>
        <time>2020-06-07T20:26:05Z</time>
      </trkpt>
      <trkpt lat="48.03042" lon="-3.75604">
        <ele>193.4</ele>
        <time>2020-06-07T20:26:06Z</time>
      </trkpt>
      <trkpt lat="48.03032" lon="-3.75603">
        <ele>193.2</ele>
        <time>2020-06-07T20:26:07Z</time>
      </trkpt>
      <trkpt lat="48.03024" lon="-3.75601">
        <ele>193.1</ele>
        <time>2020-06-07T20:26:08Z</time>
      </trkpt>
      <trkpt lat="48.03017" lon="-3.75599">
        <ele>193.1</ele>
        <time>2020-06-07T20:26:09Z</time>
      </trkpt>
      <trkpt lat="48.03009" lon="-3.75596">
        <ele>193.1</ele>
        <time>2020-06-07T20:26:10Z</time>
      </trkpt>
      <trkpt lat="48.02999" lon="-3.75594">
        <ele>192.9</ele>
        <time>2020-06-07T20:26:11Z</time>
      </trkpt>
      <trkpt lat="48.0299" lon="-3.75593">
        <ele>192.8</ele>
        <time>2020-06-07T20:26:12Z</time>
      </trkpt>
      <trkpt lat="48.0298" lon="-3.75592">
        <ele>192.7</ele>
        <time>2020-06-07T20:26:13Z</time>
      </trkpt>
      <trkpt lat="48.02971" lon="-3.75591">
        <ele>192.6</ele>
        <time>2020-06-07T20:26:14Z</time>
      </trkpt>
      <trkpt lat="48.02961" lon="-3.75589">
        <ele>192.6</ele>
        <time>2020-06-07T20:26:15Z</time>
      </trkpt>
      <trkpt lat="48.02952" lon="-3.75588">
        <ele>192.4</ele>
        <time>2020-06-07T20:26:16Z</time>
      </trkpt>
      <trkpt lat="48.02944" lon="-3.75588">
        <ele>192.3</ele>
        <time>2020-06-07T20:26:17Z</time>
      </trkpt>
      <trkpt lat="48.02936" lon="-3.75587">
        <ele>192.2</ele>
        <time>2020-06-07T20:26:18Z</time>
      </trkpt>
      <trkpt lat="48.02927" lon="-3.75587">
        <ele>192.2</ele>
        <time>2020-06-07T20:26:19Z</time>
      </trkpt>
      <trkpt lat="48.02919" lon="-3.75587">
        <ele>192.2</ele>
        <time>2020-06-07T20:26:20Z</time>
      </trkpt>
      <trkpt lat="48.0291" lon="-3.75586">
        <ele>192.1</ele>
        <time>2020-06-07T20:26:21Z</time>
      </trkpt>
      <trkpt lat="48.029" lon="-3.75587">
        <ele>191.9</ele>
        <time>2020-06-07T20:26:22Z</time>
      </trkpt>
      <trkpt lat="48.02892" lon="-3.75587">
        <ele>191.7</ele>
        <time>2020-06-07T20:26:23Z</time>
      </trkpt>
      <trkpt lat="48.02883" lon="-3.75586">
        <ele>191.4</ele>
        <time>2020-06-07T20:26:24Z</time>
      </trkpt>
      <trkpt lat="48.02874" lon="-3.75586">
        <ele>191.1</ele>
        <time>2020-06-07T20:26:25Z</time>
      </trkpt>
      <trkpt lat="48.02864" lon="-3.75585">
        <ele>190.9</ele>
        <time>2020-06-07T20:26:26Z</time>
      </trkpt>
      <trkpt lat="48.02855" lon="-3.75584">
        <ele>190.7</ele>
        <time>2020-06-07T20:26:27Z</time>
      </trkpt>
      <trkpt lat="48.02846" lon="-3.75583">
        <ele>190.5</ele>
        <time>2020-06-07T20:26:28Z</time>
      </trkpt>
      <trkpt lat="48.02837" lon="-3.75582">
        <ele>190.4</ele>
        <time>2020-06-07T20:26:29Z</time>
      </trkpt>
      <trkpt lat="48.02828" lon="-3.75581">
        <ele>190.2</ele>
        <time>2020-06-07T20:26:30Z</time>
      </trkpt>
      <trkpt lat="48.02818" lon="-3.7558">
        <ele>190.2</ele>
        <time>2020-06-07T20:26:31Z</time>
      </trkpt>
      <trkpt lat="48.02809" lon="-3.7558">
        <ele>190.2</ele>
        <time>2020-06-07T20:26:32Z</time>
      </trkpt>
      <trkpt lat="48.02801" lon="-3.7558">
        <ele>190.2</ele>
        <time>2020-06-07T20:26:33Z</time>
      </trkpt>
      <trkpt lat="48.02794" lon="-3.7558">
        <ele>190.1</ele>
        <time>2020-06-07T20:26:34Z</time>
      </trkpt>
      <trkpt lat="48.02786" lon="-3.7558">
        <ele>190</ele>
        <time>2020-06-07T20:26:35Z</time>
      </trkpt>
      <trkpt lat="48.02778" lon="-3.7558">
        <ele>189.9</ele>
        <time>2020-06-07T20:26:36Z</time>
      </trkpt>
      <trkpt lat="48.02771" lon="-3.75579">
        <ele>189.9</ele>
        <time>2020-06-07T20:26:37Z</time>
      </trkpt>
      <trkpt lat="48.02765" lon="-3.75579">
        <ele>189.9</ele>
        <time>2020-06-07T20:26:38Z</time>
      </trkpt>
      <trkpt lat="48.02758" lon="-3.75579">
        <ele>189.7</ele>
        <time>2020-06-07T20:26:39Z</time>
      </trkpt>
      <trkpt lat="48.02751" lon="-3.75579">
        <ele>189.4</ele>
        <time>2020-06-07T20:26:40Z</time>
      </trkpt>
      <trkpt lat="48.02744" lon="-3.75578">
        <ele>189.2</ele>
        <time>2020-06-07T20:26:41Z</time>
      </trkpt>
      <trkpt lat="48.02737" lon="-3.75577">
        <ele>189.1</ele>
        <time>2020-06-07T20:26:42Z</time>
      </trkpt>
      <trkpt lat="48.02728" lon="-3.75578">
        <ele>188.9</ele>
        <time>2020-06-07T20:26:43Z</time>
      </trkpt>
      <trkpt lat="48.0272" lon="-3.75577">
        <ele>188.5</ele>
        <time>2020-06-07T20:26:44Z</time>
      </trkpt>
      <trkpt lat="48.02711" lon="-3.75576">
        <ele>188.3</ele>
        <time>2020-06-07T20:26:45Z</time>
      </trkpt>
      <trkpt lat="48.02703" lon="-3.75575">
        <ele>188.1</ele>
        <time>2020-06-07T20:26:46Z</time>
      </trkpt>
      <trkpt lat="48.02695" lon="-3.75573">
        <ele>187.8</ele>
        <time>2020-06-07T20:26:47Z</time>
      </trkpt>
      <trkpt lat="48.02686" lon="-3.75572">
        <ele>187.5</ele>
        <time>2020-06-07T20:26:48Z</time>
      </trkpt>
      <trkpt lat="48.02677" lon="-3.7557">
        <ele>187.7</ele>
        <time>2020-06-07T20:26:49Z</time>
      </trkpt>
      <trkpt lat="48.02668" lon="-3.75568">
        <ele>189.3</ele>
        <time>2020-06-07T20:26:50Z</time>
      </trkpt>
      <trkpt lat="48.02657" lon="-3.75566">
        <ele>190.6</ele>
        <time>2020-06-07T20:26:51Z</time>
      </trkpt>
      <trkpt lat="48.02646" lon="-3.75564">
        <ele>190.9</ele>
        <time>2020-06-07T20:26:52Z</time>
      </trkpt>
      <trkpt lat="48.02634" lon="-3.75563">
        <ele>190.6</ele>
        <time>2020-06-07T20:26:53Z</time>
      </trkpt>
      <trkpt lat="48.02623" lon="-3.75562">
        <ele>190</ele>
        <time>2020-06-07T20:26:54Z</time>
      </trkpt>
      <trkpt lat="48.02614" lon="-3.75561">
        <ele>189.5</ele>
        <time>2020-06-07T20:26:55Z</time>
      </trkpt>
      <trkpt lat="48.02604" lon="-3.75562">
        <ele>188.9</ele>
        <time>2020-06-07T20:26:56Z</time>
      </trkpt>
      <trkpt lat="48.02595" lon="-3.75562">
        <ele>188.3</ele>
        <time>2020-06-07T20:26:57Z</time>
      </trkpt>
      <trkpt lat="48.02586" lon="-3.75561">
        <ele>187.6</ele>
        <time>2020-06-07T20:26:58Z</time>
      </trkpt>
      <trkpt lat="48.02578" lon="-3.75561">
        <ele>186.9</ele>
        <time>2020-06-07T20:26:59Z</time>
      </trkpt>
      <trkpt lat="48.02569" lon="-3.75562">
        <ele>186.4</ele>
        <time>2020-06-07T20:27:00Z</time>
      </trkpt>
      <trkpt lat="48.02561" lon="-3.75563">
        <ele>186.1</ele>
        <time>2020-06-07T20:27:01Z</time>
      </trkpt>
      <trkpt lat="48.02552" lon="-3.75563">
        <ele>185.7</ele>
        <time>2020-06-07T20:27:02Z</time>
      </trkpt>
      <trkpt lat="48.02543" lon="-3.75563">
        <ele>185.4</ele>
        <time>2020-06-07T20:27:03Z</time>
      </trkpt>
      <trkpt lat="48.02535" lon="-3.75563">
        <ele>185.1</ele>
        <time>2020-06-07T20:27:04Z</time>
      </trkpt>
      <trkpt lat="48.02526" lon="-3.75561">
        <ele>184.8</ele>
        <time>2020-06-07T20:27:05Z</time>
      </trkpt>
      <trkpt lat="48.02518" lon="-3.75559">
        <ele>184.5</ele>
        <time>2020-06-07T20:27:06Z</time>
      </trkpt>
      <trkpt lat="48.0251" lon="-3.75558">
        <ele>184.1</ele>
        <time>2020-06-07T20:27:07Z</time>
      </trkpt>
      <trkpt lat="48.02501" lon="-3.75558">
        <ele>183.8</ele>
        <time>2020-06-07T20:27:08Z</time>
      </trkpt>
      <trkpt lat="48.02493" lon="-3.75558">
        <ele>183.5</ele>
        <time>2020-06-07T20:27:09Z</time>
      </trkpt>
      <trkpt lat="48.02485" lon="-3.75559">
        <ele>183.2</ele>
        <time>2020-06-07T20:27:10Z</time>
      </trkpt>
      <trkpt lat="48.02476" lon="-3.7556">
        <ele>182.8</ele>
        <time>2020-06-07T20:27:11Z</time>
      </trkpt>
      <trkpt lat="48.02468" lon="-3.7556">
        <ele>182.4</ele>
        <time>2020-06-07T20:27:12Z</time>
      </trkpt>
      <trkpt lat="48.0246" lon="-3.75559">
        <ele>182</ele>
        <time>2020-06-07T20:27:13Z</time>
      </trkpt>
      <trkpt lat="48.02452" lon="-3.75559">
        <ele>181.6</ele>
        <time>2020-06-07T20:27:14Z</time>
      </trkpt>
      <trkpt lat="48.02443" lon="-3.75559">
        <ele>181.2</ele>
        <time>2020-06-07T20:27:15Z</time>
      </trkpt>
      <trkpt lat="48.02434" lon="-3.75558">
        <ele>180.8</ele>
        <time>2020-06-07T20:27:16Z</time>
      </trkpt>
      <trkpt lat="48.02426" lon="-3.75558">
        <ele>180.4</ele>
        <time>2020-06-07T20:27:17Z</time>
      </trkpt>
      <trkpt lat="48.02417" lon="-3.75559">
        <ele>180</ele>
        <time>2020-06-07T20:27:18Z</time>
      </trkpt>
      <trkpt lat="48.02408" lon="-3.75559">
        <ele>179.2</ele>
        <time>2020-06-07T20:27:19Z</time>
      </trkpt>
      <trkpt lat="48.02399" lon="-3.75559">
        <ele>178.9</ele>
        <time>2020-06-07T20:27:20Z</time>
      </trkpt>
      <trkpt lat="48.0239" lon="-3.75559">
        <ele>178.6</ele>
        <time>2020-06-07T20:27:21Z</time>
      </trkpt>
      <trkpt lat="48.02382" lon="-3.75558">
        <ele>178.3</ele>
        <time>2020-06-07T20:27:22Z</time>
      </trkpt>
      <trkpt lat="48.02373" lon="-3.75558">
        <ele>178.1</ele>
        <time>2020-06-07T20:27:23Z</time>
      </trkpt>
      <trkpt lat="48.02365" lon="-3.75558">
        <ele>177.9</ele>
        <time>2020-06-07T20:27:24Z</time>
      </trkpt>
      <trkpt lat="48.02357" lon="-3.75558">
        <ele>177.7</ele>
        <time>2020-06-07T20:27:25Z</time>
      </trkpt>
      <trkpt lat="48.02348" lon="-3.75558">
        <ele>177.5</ele>
        <time>2020-06-07T20:27:26Z</time>
      </trkpt>
      <trkpt lat="48.0234" lon="-3.75557">
        <ele>177.3</ele>
        <time>2020-06-07T20:27:27Z</time>
      </trkpt>
      <trkpt lat="48.02331" lon="-3.75557">
        <ele>177.2</ele>
        <time>2020-06-07T20:27:28Z</time>
      </trkpt>
      <trkpt lat="48.02322" lon="-3.75557">
        <ele>177.2</ele>
        <time>2020-06-07T20:27:29Z</time>
      </trkpt>
      <trkpt lat="48.02312" lon="-3.75556">
        <ele>177.2</ele>
        <time>2020-06-07T20:27:30Z</time>
      </trkpt>
      <trkpt lat="48.02303" lon="-3.75555">
        <ele>177.2</ele>
        <time>2020-06-07T20:27:31Z</time>
      </trkpt>
      <trkpt lat="48.02293" lon="-3.75555">
        <ele>177.3</ele>
        <time>2020-06-07T20:27:32Z</time>
      </trkpt>
      <trkpt lat="48.02284" lon="-3.75555">
        <ele>177.2</ele>
        <time>2020-06-07T20:27:33Z</time>
      </trkpt>
      <trkpt lat="48.02274" lon="-3.75556">
        <ele>177.1</ele>
        <time>2020-06-07T20:27:34Z</time>
      </trkpt>
      <trkpt lat="48.02264" lon="-3.75557">
        <ele>177</ele>
        <time>2020-06-07T20:27:35Z</time>
      </trkpt>
      <trkpt lat="48.02254" lon="-3.75558">
        <ele>176.9</ele>
        <time>2020-06-07T20:27:36Z</time>
      </trkpt>
      <trkpt lat="48.02245" lon="-3.75559">
        <ele>176.9</ele>
        <time>2020-06-07T20:27:37Z</time>
      </trkpt>
      <trkpt lat="48.02235" lon="-3.75561">
        <ele>176.9</ele>
        <time>2020-06-07T20:27:38Z</time>
      </trkpt>
      <trkpt lat="48.02226" lon="-3.75562">
        <ele>176.8</ele>
        <time>2020-06-07T20:27:39Z</time>
      </trkpt>
      <trkpt lat="48.02217" lon="-3.75562">
        <ele>176.8</ele>
        <time>2020-06-07T20:27:40Z</time>
      </trkpt>
      <trkpt lat="48.02207" lon="-3.75562">
        <ele>176.9</ele>
        <time>2020-06-07T20:27:41Z</time>
      </trkpt>
      <trkpt lat="48.02199" lon="-3.75563">
        <ele>177</ele>
        <time>2020-06-07T20:27:42Z</time>
      </trkpt>
      <trkpt lat="48.02189" lon="-3.75565">
        <ele>177.1</ele>
        <time>2020-06-07T20:27:43Z</time>
      </trkpt>
      <trkpt lat="48.0218" lon="-3.75566">
        <ele>177.1</ele>
        <time>2020-06-07T20:27:44Z</time>
      </trkpt>
      <trkpt lat="48.02171" lon="-3.75567">
        <ele>177.1</ele>
        <time>2020-06-07T20:27:45Z</time>
      </trkpt>
      <trkpt lat="48.02162" lon="-3.75568">
        <ele>176.9</ele>
        <time>2020-06-07T20:27:46Z</time>
      </trkpt>
      <trkpt lat="48.02152" lon="-3.75569">
        <ele>176.7</ele>
        <time>2020-06-07T20:27:47Z</time>
      </trkpt>
      <trkpt lat="48.02143" lon="-3.7557">
        <ele>176.5</ele>
        <time>2020-06-07T20:27:48Z</time>
      </trkpt>
      <trkpt lat="48.02134" lon="-3.75571">
        <ele>176.4</ele>
        <time>2020-06-07T20:27:49Z</time>
      </trkpt>
      <trkpt lat="48.02125" lon="-3.75572">
        <ele>176.4</ele>
        <time>2020-06-07T20:27:50Z</time>
      </trkpt>
      <trkpt lat="48.02117" lon="-3.75572">
        <ele>176.5</ele>
        <time>2020-06-07T20:27:51Z</time>
      </trkpt>
      <trkpt lat="48.02109" lon="-3.75573">
        <ele>176.6</ele>
        <time>2020-06-07T20:27:52Z</time>
      </trkpt>
      <trkpt lat="48.02101" lon="-3.75574">
        <ele>176.7</ele>
        <time>2020-06-07T20:27:53Z</time>
      </trkpt>
      <trkpt lat="48.02092" lon="-3.75575">
        <ele>176.8</ele>
        <time>2020-06-07T20:27:54Z</time>
      </trkpt>
      <trkpt lat="48.02084" lon="-3.75577">
        <ele>176.9</ele>
        <time>2020-06-07T20:27:55Z</time>
      </trkpt>
      <trkpt lat="48.02075" lon="-3.75578">
        <ele>176.9</ele>
        <time>2020-06-07T20:27:56Z</time>
      </trkpt>
      <trkpt lat="48.02066" lon="-3.75578">
        <ele>177.5</ele>
        <time>2020-06-07T20:27:57Z</time>
      </trkpt>
      <trkpt lat="48.02057" lon="-3.75578">
        <ele>177.8</ele>
        <time>2020-06-07T20:27:58Z</time>
      </trkpt>
      <trkpt lat="48.02049" lon="-3.75577">
        <ele>178.1</ele>
        <time>2020-06-07T20:27:59Z</time>
      </trkpt>
      <trkpt lat="48.02041" lon="-3.75577">
        <ele>178.2</ele>
        <time>2020-06-07T20:28:00Z</time>
      </trkpt>
      <trkpt lat="48.02033" lon="-3.75575">
        <ele>178.4</ele>
        <time>2020-06-07T20:28:01Z</time>
      </trkpt>
      <trkpt lat="48.02025" lon="-3.75573">
        <ele>178.5</ele>
        <time>2020-06-07T20:28:02Z</time>
      </trkpt>
      <trkpt lat="48.02018" lon="-3.75573">
        <ele>178.5</ele>
        <time>2020-06-07T20:28:03Z</time>
      </trkpt>
      <trkpt lat="48.0201" lon="-3.75573">
        <ele>178.5</ele>
        <time>2020-06-07T20:28:04Z</time>
      </trkpt>
      <trkpt lat="48.02002" lon="-3.75571">
        <ele>178.5</ele>
        <time>2020-06-07T20:28:05Z</time>
      </trkpt>
      <trkpt lat="48.01994" lon="-3.75571">
        <ele>178.6</ele>
        <time>2020-06-07T20:28:06Z</time>
      </trkpt>
      <trkpt lat="48.01987" lon="-3.7557">
        <ele>178.6</ele>
        <time>2020-06-07T20:28:07Z</time>
      </trkpt>
      <trkpt lat="48.01981" lon="-3.75569">
        <ele>178.7</ele>
        <time>2020-06-07T20:28:08Z</time>
      </trkpt>
      <trkpt lat="48.01974" lon="-3.75568">
        <ele>178.7</ele>
        <time>2020-06-07T20:28:09Z</time>
      </trkpt>
      <trkpt lat="48.01968" lon="-3.75568">
        <ele>178.8</ele>
        <time>2020-06-07T20:28:10Z</time>
      </trkpt>
      <trkpt lat="48.01961" lon="-3.75567">
        <ele>178.8</ele>
        <time>2020-06-07T20:28:11Z</time>
      </trkpt>
      <trkpt lat="48.01955" lon="-3.75566">
        <ele>178.7</ele>
        <time>2020-06-07T20:28:12Z</time>
      </trkpt>
      <trkpt lat="48.01949" lon="-3.75566">
        <ele>178.6</ele>
        <time>2020-06-07T20:28:13Z</time>
      </trkpt>
      <trkpt lat="48.01943" lon="-3.75565">
        <ele>178.5</ele>
        <time>2020-06-07T20:28:14Z</time>
      </trkpt>
      <trkpt lat="48.01937" lon="-3.75564">
        <ele>178.5</ele>
        <time>2020-06-07T20:28:15Z</time>
      </trkpt>
      <trkpt lat="48.01932" lon="-3.75562">
        <ele>178.4</ele>
        <time>2020-06-07T20:28:16Z</time>
      </trkpt>
      <trkpt lat="48.01927" lon="-3.75561">
        <ele>178.3</ele>
        <time>2020-06-07T20:28:17Z</time>
      </trkpt>
      <trkpt lat="48.01921" lon="-3.7556">
        <ele>178.1</ele>
        <time>2020-06-07T20:28:18Z</time>
      </trkpt>
      <trkpt lat="48.01914" lon="-3.75559">
        <ele>178</ele>
        <time>2020-06-07T20:28:19Z</time>
      </trkpt>
      <trkpt lat="48.01908" lon="-3.75557">
        <ele>177.8</ele>
        <time>2020-06-07T20:28:20Z</time>
      </trkpt>
      <trkpt lat="48.01902" lon="-3.75554">
        <ele>177.7</ele>
        <time>2020-06-07T20:28:21Z</time>
      </trkpt>
      <trkpt lat="48.01896" lon="-3.7555">
        <ele>177.6</ele>
        <time>2020-06-07T20:28:22Z</time>
      </trkpt>
      <trkpt lat="48.0189" lon="-3.75546">
        <ele>177.5</ele>
        <time>2020-06-07T20:28:23Z</time>
      </trkpt>
      <trkpt lat="48.01883" lon="-3.75544">
        <ele>177.3</ele>
        <time>2020-06-07T20:28:24Z</time>
      </trkpt>
      <trkpt lat="48.01876" lon="-3.75542">
        <ele>177.2</ele>
        <time>2020-06-07T20:28:25Z</time>
      </trkpt>
      <trkpt lat="48.01869" lon="-3.75539">
        <ele>177</ele>
        <time>2020-06-07T20:28:26Z</time>
      </trkpt>
      <trkpt lat="48.01862" lon="-3.75535">
        <ele>176.9</ele>
        <time>2020-06-07T20:28:27Z</time>
      </trkpt>
      <trkpt lat="48.01856" lon="-3.75531">
        <ele>176.7</ele>
        <time>2020-06-07T20:28:28Z</time>
      </trkpt>
      <trkpt lat="48.0185" lon="-3.75527">
        <ele>176.5</ele>
        <time>2020-06-07T20:28:29Z</time>
      </trkpt>
      <trkpt lat="48.01843" lon="-3.75523">
        <ele>176.2</ele>
        <time>2020-06-07T20:28:30Z</time>
      </trkpt>
      <trkpt lat="48.01835" lon="-3.75519">
        <ele>175.9</ele>
        <time>2020-06-07T20:28:31Z</time>
      </trkpt>
      <trkpt lat="48.01828" lon="-3.75516">
        <ele>175.6</ele>
        <time>2020-06-07T20:28:32Z</time>
      </trkpt>
      <trkpt lat="48.0182" lon="-3.75513">
        <ele>175.3</ele>
        <time>2020-06-07T20:28:33Z</time>
      </trkpt>
      <trkpt lat="48.01811" lon="-3.75509">
        <ele>175</ele>
        <time>2020-06-07T20:28:34Z</time>
      </trkpt>
      <trkpt lat="48.01804" lon="-3.75505">
        <ele>174.7</ele>
        <time>2020-06-07T20:28:35Z</time>
      </trkpt>
      <trkpt lat="48.01796" lon="-3.75501">
        <ele>174.3</ele>
        <time>2020-06-07T20:28:36Z</time>
      </trkpt>
      <trkpt lat="48.01787" lon="-3.75499">
        <ele>173.8</ele>
        <time>2020-06-07T20:28:37Z</time>
      </trkpt>
      <trkpt lat="48.01779" lon="-3.75497">
        <ele>173.2</ele>
        <time>2020-06-07T20:28:38Z</time>
      </trkpt>
      <trkpt lat="48.01771" lon="-3.75494">
        <ele>172.8</ele>
        <time>2020-06-07T20:28:39Z</time>
      </trkpt>
      <trkpt lat="48.01763" lon="-3.75491">
        <ele>172.5</ele>
        <time>2020-06-07T20:28:40Z</time>
      </trkpt>
      <trkpt lat="48.01755" lon="-3.75487">
        <ele>172.1</ele>
        <time>2020-06-07T20:28:41Z</time>
      </trkpt>
      <trkpt lat="48.01747" lon="-3.75483">
        <ele>171.6</ele>
        <time>2020-06-07T20:28:42Z</time>
      </trkpt>
      <trkpt lat="48.01738" lon="-3.75479">
        <ele>171.2</ele>
        <time>2020-06-07T20:28:43Z</time>
      </trkpt>
      <trkpt lat="48.01731" lon="-3.75474">
        <ele>170.9</ele>
        <time>2020-06-07T20:28:44Z</time>
      </trkpt>
      <trkpt lat="48.01723" lon="-3.75471">
        <ele>170.6</ele>
        <time>2020-06-07T20:28:45Z</time>
      </trkpt>
      <trkpt lat="48.01715" lon="-3.75468">
        <ele>170.4</ele>
        <time>2020-06-07T20:28:46Z</time>
      </trkpt>
      <trkpt lat="48.01707" lon="-3.75465">
        <ele>170</ele>
        <time>2020-06-07T20:28:47Z</time>
      </trkpt>
      <trkpt lat="48.01699" lon="-3.75459">
        <ele>169.6</ele>
        <time>2020-06-07T20:28:48Z</time>
      </trkpt>
      <trkpt lat="48.0169" lon="-3.75454">
        <ele>169.1</ele>
        <time>2020-06-07T20:28:49Z</time>
      </trkpt>
      <trkpt lat="48.01682" lon="-3.7545">
        <ele>168.9</ele>
        <time>2020-06-07T20:28:50Z</time>
      </trkpt>
      <trkpt lat="48.01673" lon="-3.75445">
        <ele>168.8</ele>
        <time>2020-06-07T20:28:51Z</time>
      </trkpt>
      <trkpt lat="48.01664" lon="-3.75441">
        <ele>168.8</ele>
        <time>2020-06-07T20:28:52Z</time>
      </trkpt>
      <trkpt lat="48.01656" lon="-3.75436">
        <ele>168.7</ele>
        <time>2020-06-07T20:28:53Z</time>
      </trkpt>
      <trkpt lat="48.01647" lon="-3.75431">
        <ele>168.5</ele>
        <time>2020-06-07T20:28:54Z</time>
      </trkpt>
      <trkpt lat="48.01638" lon="-3.75426">
        <ele>168.3</ele>
        <time>2020-06-07T20:28:55Z</time>
      </trkpt>
      <trkpt lat="48.0163" lon="-3.75421">
        <ele>168.2</ele>
        <time>2020-06-07T20:28:56Z</time>
      </trkpt>
      <trkpt lat="48.01622" lon="-3.75416">
        <ele>168.1</ele>
        <time>2020-06-07T20:28:57Z</time>
      </trkpt>
      <trkpt lat="48.01614" lon="-3.7541">
        <ele>168</ele>
        <time>2020-06-07T20:28:58Z</time>
      </trkpt>
      <trkpt lat="48.01606" lon="-3.75405">
        <ele>167.7</ele>
        <time>2020-06-07T20:28:59Z</time>
      </trkpt>
      <trkpt lat="48.01597" lon="-3.75403">
        <ele>167.4</ele>
        <time>2020-06-07T20:29:00Z</time>
      </trkpt>
      <trkpt lat="48.01589" lon="-3.754">
        <ele>167.1</ele>
        <time>2020-06-07T20:29:01Z</time>
      </trkpt>
      <trkpt lat="48.01581" lon="-3.75397">
        <ele>166.8</ele>
        <time>2020-06-07T20:29:02Z</time>
      </trkpt>
      <trkpt lat="48.01573" lon="-3.75393">
        <ele>166.3</ele>
        <time>2020-06-07T20:29:03Z</time>
      </trkpt>
      <trkpt lat="48.01564" lon="-3.75387">
        <ele>166</ele>
        <time>2020-06-07T20:29:04Z</time>
      </trkpt>
      <trkpt lat="48.01556" lon="-3.75382">
        <ele>165.8</ele>
        <time>2020-06-07T20:29:05Z</time>
      </trkpt>
      <trkpt lat="48.01547" lon="-3.75377">
        <ele>165.6</ele>
        <time>2020-06-07T20:29:06Z</time>
      </trkpt>
      <trkpt lat="48.01539" lon="-3.75373">
        <ele>165.3</ele>
        <time>2020-06-07T20:29:07Z</time>
      </trkpt>
      <trkpt lat="48.0153" lon="-3.7537">
        <ele>164.8</ele>
        <time>2020-06-07T20:29:08Z</time>
      </trkpt>
      <trkpt lat="48.01522" lon="-3.75366">
        <ele>164.3</ele>
        <time>2020-06-07T20:29:09Z</time>
      </trkpt>
      <trkpt lat="48.01513" lon="-3.75362">
        <ele>163.9</ele>
        <time>2020-06-07T20:29:10Z</time>
      </trkpt>
      <trkpt lat="48.01504" lon="-3.75359">
        <ele>163.5</ele>
        <time>2020-06-07T20:29:11Z</time>
      </trkpt>
      <trkpt lat="48.01495" lon="-3.75354">
        <ele>163.1</ele>
        <time>2020-06-07T20:29:12Z</time>
      </trkpt>
      <trkpt lat="48.01484" lon="-3.75349">
        <ele>162.5</ele>
        <time>2020-06-07T20:29:13Z</time>
      </trkpt>
      <trkpt lat="48.01474" lon="-3.75346">
        <ele>162</ele>
        <time>2020-06-07T20:29:14Z</time>
      </trkpt>
      <trkpt lat="48.01463" lon="-3.75342">
        <ele>161.6</ele>
        <time>2020-06-07T20:29:15Z</time>
      </trkpt>
      <trkpt lat="48.01453" lon="-3.75336">
        <ele>161.1</ele>
        <time>2020-06-07T20:29:16Z</time>
      </trkpt>
      <trkpt lat="48.01443" lon="-3.75331">
        <ele>160.7</ele>
        <time>2020-06-07T20:29:17Z</time>
      </trkpt>
      <trkpt lat="48.01433" lon="-3.75327">
        <ele>160.3</ele>
        <time>2020-06-07T20:29:18Z</time>
      </trkpt>
      <trkpt lat="48.01423" lon="-3.75322">
        <ele>159.9</ele>
        <time>2020-06-07T20:29:19Z</time>
      </trkpt>
      <trkpt lat="48.01413" lon="-3.75317">
        <ele>159.7</ele>
        <time>2020-06-07T20:29:20Z</time>
      </trkpt>
      <trkpt lat="48.01403" lon="-3.75314">
        <ele>159.4</ele>
        <time>2020-06-07T20:29:21Z</time>
      </trkpt>
      <trkpt lat="48.01394" lon="-3.7531">
        <ele>159.1</ele>
        <time>2020-06-07T20:29:22Z</time>
      </trkpt>
      <trkpt lat="48.01385" lon="-3.75306">
        <ele>158.8</ele>
        <time>2020-06-07T20:29:23Z</time>
      </trkpt>
      <trkpt lat="48.01376" lon="-3.753">
        <ele>158.5</ele>
        <time>2020-06-07T20:29:24Z</time>
      </trkpt>
      <trkpt lat="48.01366" lon="-3.75294">
        <ele>158.4</ele>
        <time>2020-06-07T20:29:25Z</time>
      </trkpt>
      <trkpt lat="48.01357" lon="-3.75289">
        <ele>158.4</ele>
        <time>2020-06-07T20:29:26Z</time>
      </trkpt>
      <trkpt lat="48.01348" lon="-3.75284">
        <ele>158.4</ele>
        <time>2020-06-07T20:29:27Z</time>
      </trkpt>
      <trkpt lat="48.0134" lon="-3.75281">
        <ele>158.4</ele>
        <time>2020-06-07T20:29:28Z</time>
      </trkpt>
      <trkpt lat="48.01331" lon="-3.75278">
        <ele>158.3</ele>
        <time>2020-06-07T20:29:29Z</time>
      </trkpt>
      <trkpt lat="48.01323" lon="-3.75274">
        <ele>158.2</ele>
        <time>2020-06-07T20:29:30Z</time>
      </trkpt>
      <trkpt lat="48.01315" lon="-3.7527">
        <ele>158</ele>
        <time>2020-06-07T20:29:31Z</time>
      </trkpt>
      <trkpt lat="48.01306" lon="-3.75264">
        <ele>157.9</ele>
        <time>2020-06-07T20:29:32Z</time>
      </trkpt>
      <trkpt lat="48.01298" lon="-3.75259">
        <ele>157.7</ele>
        <time>2020-06-07T20:29:33Z</time>
      </trkpt>
      <trkpt lat="48.01291" lon="-3.75255">
        <ele>157.4</ele>
        <time>2020-06-07T20:29:34Z</time>
      </trkpt>
      <trkpt lat="48.01283" lon="-3.75251">
        <ele>157.1</ele>
        <time>2020-06-07T20:29:35Z</time>
      </trkpt>
      <trkpt lat="48.01275" lon="-3.75247">
        <ele>156.7</ele>
        <time>2020-06-07T20:29:36Z</time>
      </trkpt>
      <trkpt lat="48.01267" lon="-3.75244">
        <ele>156.4</ele>
        <time>2020-06-07T20:29:37Z</time>
      </trkpt>
      <trkpt lat="48.01259" lon="-3.7524">
        <ele>156.1</ele>
        <time>2020-06-07T20:29:38Z</time>
      </trkpt>
      <trkpt lat="48.01253" lon="-3.75235">
        <ele>155.8</ele>
        <time>2020-06-07T20:29:39Z</time>
      </trkpt>
      <trkpt lat="48.01246" lon="-3.75229">
        <ele>155.6</ele>
        <time>2020-06-07T20:29:40Z</time>
      </trkpt>
      <trkpt lat="48.0124" lon="-3.75225">
        <ele>155.3</ele>
        <time>2020-06-07T20:29:41Z</time>
      </trkpt>
      <trkpt lat="48.01235" lon="-3.75223">
        <ele>155.1</ele>
        <time>2020-06-07T20:29:42Z</time>
      </trkpt>
      <trkpt lat="48.01231" lon="-3.75223">
        <ele>154.9</ele>
        <time>2020-06-07T20:29:43Z</time>
      </trkpt>
      <trkpt lat="48.01228" lon="-3.75222">
        <ele>154.8</ele>
        <time>2020-06-07T20:29:44Z</time>
      </trkpt>
      <trkpt lat="48.01225" lon="-3.75224">
        <ele>154.7</ele>
        <time>2020-06-07T20:29:45Z</time>
      </trkpt>
      <trkpt lat="48.01224" lon="-3.75224">
        <ele>154.7</ele>
        <time>2020-06-07T20:29:46Z</time>
      </trkpt>
      <trkpt lat="48.01224" lon="-3.75223">
        <ele>154.6</ele>
        <time>2020-06-07T20:29:47Z</time>
      </trkpt>
      <trkpt lat="48.01223" lon="-3.75223">
        <ele>154.6</ele>
        <time>2020-06-07T20:29:48Z</time>
      </trkpt>
      <trkpt lat="48.01223" lon="-3.75224">
        <ele>154.6</ele>
        <time>2020-06-07T20:29:49Z</time>
      </trkpt>
      <trkpt lat="48.01223" lon="-3.75225">
        <ele>154.6</ele>
        <time>2020-06-07T20:29:50Z</time>
      </trkpt>
      <trkpt lat="48.01222" lon="-3.75225">
        <ele>154.6</ele>
        <time>2020-06-07T20:29:51Z</time>
      </trkpt>
      <trkpt lat="48.01222" lon="-3.75225">
        <ele>154.5</ele>
        <time>2020-06-07T20:29:52Z</time>
      </trkpt>
      <trkpt lat="48.01221" lon="-3.75225">
        <ele>154.5</ele>
        <time>2020-06-07T20:29:53Z</time>
      </trkpt>
      <trkpt lat="48.0122" lon="-3.75226">
        <ele>154.5</ele>
        <time>2020-06-07T20:29:54Z</time>
      </trkpt>
      <trkpt lat="48.01219" lon="-3.75225">
        <ele>154.4</ele>
        <time>2020-06-07T20:29:55Z</time>
      </trkpt>
      <trkpt lat="48.01217" lon="-3.75225">
        <ele>154.4</ele>
        <time>2020-06-07T20:29:56Z</time>
      </trkpt>
      <trkpt lat="48.01216" lon="-3.75226">
        <ele>154.3</ele>
        <time>2020-06-07T20:29:57Z</time>
      </trkpt>
      <trkpt lat="48.01215" lon="-3.75227">
        <ele>154</ele>
        <time>2020-06-07T20:29:58Z</time>
      </trkpt>
      <trkpt lat="48.01213" lon="-3.75232">
        <ele>154</ele>
        <time>2020-06-07T20:29:59Z</time>
      </trkpt>
      <trkpt lat="48.01212" lon="-3.75235">
        <ele>154</ele>
        <time>2020-06-07T20:30:00Z</time>
      </trkpt>
      <trkpt lat="48.01211" lon="-3.75241">
        <ele>153.9</ele>
        <time>2020-06-07T20:30:01Z</time>
      </trkpt>
      <trkpt lat="48.0121" lon="-3.75247">
        <ele>153.9</ele>
        <time>2020-06-07T20:30:02Z</time>
      </trkpt>
      <trkpt lat="48.0121" lon="-3.75255">
        <ele>153.9</ele>
        <time>2020-06-07T20:30:03Z</time>
      </trkpt>
      <trkpt lat="48.01211" lon="-3.75263">
        <ele>153.8</ele>
        <time>2020-06-07T20:30:04Z</time>
      </trkpt>
      <trkpt lat="48.01211" lon="-3.75271">
        <ele>153.7</ele>
        <time>2020-06-07T20:30:05Z</time>
      </trkpt>
      <trkpt lat="48.01211" lon="-3.7528">
        <ele>153.6</ele>
        <time>2020-06-07T20:30:06Z</time>
      </trkpt>
      <trkpt lat="48.0121" lon="-3.75289">
        <ele>153.4</ele>
        <time>2020-06-07T20:30:07Z</time>
      </trkpt>
      <trkpt lat="48.01208" lon="-3.75299">
        <ele>153.2</ele>
        <time>2020-06-07T20:30:08Z</time>
      </trkpt>
      <trkpt lat="48.01208" lon="-3.7531">
        <ele>153</ele>
        <time>2020-06-07T20:30:09Z</time>
      </trkpt>
      <trkpt lat="48.01207" lon="-3.75322">
        <ele>152.7</ele>
        <time>2020-06-07T20:30:10Z</time>
      </trkpt>
      <trkpt lat="48.01206" lon="-3.75333">
        <ele>152.5</ele>
        <time>2020-06-07T20:30:11Z</time>
      </trkpt>
      <trkpt lat="48.01205" lon="-3.75345">
        <ele>152.3</ele>
        <time>2020-06-07T20:30:12Z</time>
      </trkpt>
      <trkpt lat="48.01204" lon="-3.75357">
        <ele>152.1</ele>
        <time>2020-06-07T20:30:13Z</time>
      </trkpt>
      <trkpt lat="48.01203" lon="-3.75368">
        <ele>151.9</ele>
        <time>2020-06-07T20:30:14Z</time>
      </trkpt>
      <trkpt lat="48.01201" lon="-3.75381">
        <ele>151.6</ele>
        <time>2020-06-07T20:30:15Z</time>
      </trkpt>
      <trkpt lat="48.01201" lon="-3.75394">
        <ele>151.4</ele>
        <time>2020-06-07T20:30:16Z</time>
      </trkpt>
      <trkpt lat="48.01199" lon="-3.75406">
        <ele>151.2</ele>
        <time>2020-06-07T20:30:17Z</time>
      </trkpt>
      <trkpt lat="48.01197" lon="-3.75417">
        <ele>151.1</ele>
        <time>2020-06-07T20:30:18Z</time>
      </trkpt>
      <trkpt lat="48.01195" lon="-3.75429">
        <ele>150.9</ele>
        <time>2020-06-07T20:30:19Z</time>
      </trkpt>
      <trkpt lat="48.01194" lon="-3.75441">
        <ele>150.5</ele>
        <time>2020-06-07T20:30:20Z</time>
      </trkpt>
      <trkpt lat="48.01194" lon="-3.75454">
        <ele>150.2</ele>
        <time>2020-06-07T20:30:21Z</time>
      </trkpt>
      <trkpt lat="48.01194" lon="-3.75467">
        <ele>149.9</ele>
        <time>2020-06-07T20:30:22Z</time>
      </trkpt>
      <trkpt lat="48.01195" lon="-3.75481">
        <ele>149.5</ele>
        <time>2020-06-07T20:30:23Z</time>
      </trkpt>
      <trkpt lat="48.01194" lon="-3.75494">
        <ele>149.1</ele>
        <time>2020-06-07T20:30:24Z</time>
      </trkpt>
      <trkpt lat="48.01194" lon="-3.75506">
        <ele>148.9</ele>
        <time>2020-06-07T20:30:25Z</time>
      </trkpt>
      <trkpt lat="48.01194" lon="-3.75518">
        <ele>148.6</ele>
        <time>2020-06-07T20:30:26Z</time>
      </trkpt>
      <trkpt lat="48.01195" lon="-3.75531">
        <ele>148.3</ele>
        <time>2020-06-07T20:30:27Z</time>
      </trkpt>
      <trkpt lat="48.01195" lon="-3.75545">
        <ele>148</ele>
        <time>2020-06-07T20:30:28Z</time>
      </trkpt>
      <trkpt lat="48.01196" lon="-3.75556">
        <ele>147.7</ele>
        <time>2020-06-07T20:30:29Z</time>
      </trkpt>
      <trkpt lat="48.01198" lon="-3.7557">
        <ele>147.5</ele>
        <time>2020-06-07T20:30:30Z</time>
      </trkpt>
      <trkpt lat="48.01199" lon="-3.75583">
        <ele>147.1</ele>
        <time>2020-06-07T20:30:31Z</time>
      </trkpt>
      <trkpt lat="48.01198" lon="-3.75596">
        <ele>147</ele>
        <time>2020-06-07T20:30:32Z</time>
      </trkpt>
      <trkpt lat="48.01198" lon="-3.75609">
        <ele>146.9</ele>
        <time>2020-06-07T20:30:33Z</time>
      </trkpt>
      <trkpt lat="48.012" lon="-3.75621">
        <ele>146.7</ele>
        <time>2020-06-07T20:30:34Z</time>
      </trkpt>
      <trkpt lat="48.01201" lon="-3.75633">
        <ele>146.7</ele>
        <time>2020-06-07T20:30:35Z</time>
      </trkpt>
      <trkpt lat="48.012" lon="-3.75646">
        <ele>146.6</ele>
        <time>2020-06-07T20:30:36Z</time>
      </trkpt>
      <trkpt lat="48.01199" lon="-3.75659">
        <ele>146.6</ele>
        <time>2020-06-07T20:30:37Z</time>
      </trkpt>
      <trkpt lat="48.012" lon="-3.75669">
        <ele>146.7</ele>
        <time>2020-06-07T20:30:38Z</time>
      </trkpt>
      <trkpt lat="48.012" lon="-3.7568">
        <ele>146.8</ele>
        <time>2020-06-07T20:30:39Z</time>
      </trkpt>
      <trkpt lat="48.012" lon="-3.7569">
        <ele>146.9</ele>
        <time>2020-06-07T20:30:40Z</time>
      </trkpt>
      <trkpt lat="48.012" lon="-3.757">
        <ele>146.9</ele>
        <time>2020-06-07T20:30:41Z</time>
      </trkpt>
      <trkpt lat="48.012" lon="-3.7571">
        <ele>147</ele>
        <time>2020-06-07T20:30:42Z</time>
      </trkpt>
      <trkpt lat="48.01197" lon="-3.75718">
        <ele>147.8</ele>
        <time>2020-06-07T20:30:43Z</time>
      </trkpt>
      <trkpt lat="48.01192" lon="-3.75722">
        <ele>148.2</ele>
        <time>2020-06-07T20:30:44Z</time>
      </trkpt>
      <trkpt lat="48.01186" lon="-3.75723">
        <ele>148.7</ele>
        <time>2020-06-07T20:30:45Z</time>
      </trkpt>
      <trkpt lat="48.0118" lon="-3.75724">
        <ele>149.1</ele>
        <time>2020-06-07T20:30:46Z</time>
      </trkpt>
      <trkpt lat="48.01175" lon="-3.75725">
        <ele>149.5</ele>
        <time>2020-06-07T20:30:47Z</time>
      </trkpt>
      <trkpt lat="48.01171" lon="-3.75727">
        <ele>149.8</ele>
        <time>2020-06-07T20:30:48Z</time>
      </trkpt>
      <trkpt lat="48.01167" lon="-3.7573">
        <ele>150.2</ele>
        <time>2020-06-07T20:30:49Z</time>
      </trkpt>
      <trkpt lat="48.01162" lon="-3.75733">
        <ele>150.6</ele>
        <time>2020-06-07T20:30:50Z</time>
      </trkpt>
      <trkpt lat="48.01158" lon="-3.75736">
        <ele>150.9</ele>
        <time>2020-06-07T20:30:51Z</time>
      </trkpt>
      <trkpt lat="48.01155" lon="-3.7574">
        <ele>151.2</ele>
        <time>2020-06-07T20:30:52Z</time>
      </trkpt>
      <trkpt lat="48.01151" lon="-3.75743">
        <ele>151.5</ele>
        <time>2020-06-07T20:30:53Z</time>
      </trkpt>
      <trkpt lat="48.01148" lon="-3.75747">
        <ele>151.9</ele>
        <time>2020-06-07T20:30:54Z</time>
      </trkpt>
      <trkpt lat="48.01146" lon="-3.75752">
        <ele>152.2</ele>
        <time>2020-06-07T20:30:55Z</time>
      </trkpt>
      <trkpt lat="48.01143" lon="-3.75757">
        <ele>152.5</ele>
        <time>2020-06-07T20:30:56Z</time>
      </trkpt>
      <trkpt lat="48.0114" lon="-3.75762">
        <ele>152.8</ele>
        <time>2020-06-07T20:30:57Z</time>
      </trkpt>
      <trkpt lat="48.01138" lon="-3.75766">
        <ele>153.1</ele>
        <time>2020-06-07T20:30:58Z</time>
      </trkpt>
      <trkpt lat="48.01136" lon="-3.75772">
        <ele>153.4</ele>
        <time>2020-06-07T20:30:59Z</time>
      </trkpt>
      <trkpt lat="48.01134" lon="-3.75778">
        <ele>153.8</ele>
        <time>2020-06-07T20:31:00Z</time>
      </trkpt>
      <trkpt lat="48.01132" lon="-3.75784">
        <ele>154.1</ele>
        <time>2020-06-07T20:31:01Z</time>
      </trkpt>
      <trkpt lat="48.0113" lon="-3.75788">
        <ele>154.3</ele>
        <time>2020-06-07T20:31:02Z</time>
      </trkpt>
      <trkpt lat="48.01129" lon="-3.75792">
        <ele>154.6</ele>
        <time>2020-06-07T20:31:03Z</time>
      </trkpt>
      <trkpt lat="48.01127" lon="-3.75798">
        <ele>154.9</ele>
        <time>2020-06-07T20:31:04Z</time>
      </trkpt>
      <trkpt lat="48.01125" lon="-3.75803">
        <ele>155.2</ele>
        <time>2020-06-07T20:31:05Z</time>
      </trkpt>
      <trkpt lat="48.01124" lon="-3.75807">
        <ele>155.4</ele>
        <time>2020-06-07T20:31:06Z</time>
      </trkpt>
      <trkpt lat="48.01122" lon="-3.75811">
        <ele>155.6</ele>
        <time>2020-06-07T20:31:07Z</time>
      </trkpt>
      <trkpt lat="48.01122" lon="-3.75813">
        <ele>155.7</ele>
        <time>2020-06-07T20:31:08Z</time>
      </trkpt>
      <trkpt lat="48.01121" lon="-3.75817">
        <ele>155.9</ele>
        <time>2020-06-07T20:31:09Z</time>
      </trkpt>
      <trkpt lat="48.0112" lon="-3.75821">
        <ele>156.2</ele>
        <time>2020-06-07T20:31:10Z</time>
      </trkpt>
      <trkpt lat="48.01119" lon="-3.75826">
        <ele>156.4</ele>
        <time>2020-06-07T20:31:11Z</time>
      </trkpt>
      <trkpt lat="48.01117" lon="-3.75832">
        <ele>156.7</ele>
        <time>2020-06-07T20:31:12Z</time>
      </trkpt>
      <trkpt lat="48.01115" lon="-3.75837">
        <ele>157</ele>
        <time>2020-06-07T20:31:13Z</time>
      </trkpt>
      <trkpt lat="48.01112" lon="-3.75841">
        <ele>157.3</ele>
        <time>2020-06-07T20:31:14Z</time>
      </trkpt>
      <trkpt lat="48.0111" lon="-3.75847">
        <ele>157.6</ele>
        <time>2020-06-07T20:31:15Z</time>
      </trkpt>
      <trkpt lat="48.01108" lon="-3.75852">
        <ele>157.9</ele>
        <time>2020-06-07T20:31:16Z</time>
      </trkpt>
      <trkpt lat="48.01107" lon="-3.75858">
        <ele>158.2</ele>
        <time>2020-06-07T20:31:17Z</time>
      </trkpt>
      <trkpt lat="48.01105" lon="-3.75863">
        <ele>158.5</ele>
        <time>2020-06-07T20:31:18Z</time>
      </trkpt>
      <trkpt lat="48.01104" lon="-3.75868">
        <ele>158.8</ele>
        <time>2020-06-07T20:31:19Z</time>
      </trkpt>
      <trkpt lat="48.01102" lon="-3.75873">
        <ele>159.1</ele>
        <time>2020-06-07T20:31:20Z</time>
      </trkpt>
      <trkpt lat="48.011" lon="-3.75879">
        <ele>159.4</ele>
        <time>2020-06-07T20:31:21Z</time>
      </trkpt>
      <trkpt lat="48.01099" lon="-3.75884">
        <ele>159.7</ele>
        <time>2020-06-07T20:31:22Z</time>
      </trkpt>
      <trkpt lat="48.01097" lon="-3.7589">
        <ele>160</ele>
        <time>2020-06-07T20:31:23Z</time>
      </trkpt>
      <trkpt lat="48.01096" lon="-3.75896">
        <ele>160.3</ele>
        <time>2020-06-07T20:31:24Z</time>
      </trkpt>
      <trkpt lat="48.01094" lon="-3.75903">
        <ele>160.7</ele>
        <time>2020-06-07T20:31:25Z</time>
      </trkpt>
      <trkpt lat="48.01092" lon="-3.75909">
        <ele>161</ele>
        <time>2020-06-07T20:31:26Z</time>
      </trkpt>
      <trkpt lat="48.01091" lon="-3.75915">
        <ele>161.4</ele>
        <time>2020-06-07T20:31:27Z</time>
      </trkpt>
      <trkpt lat="48.01089" lon="-3.75921">
        <ele>161.7</ele>
        <time>2020-06-07T20:31:28Z</time>
      </trkpt>
      <trkpt lat="48.01089" lon="-3.75926">
        <ele>161.9</ele>
        <time>2020-06-07T20:31:29Z</time>
      </trkpt>
      <trkpt lat="48.01087" lon="-3.7593">
        <ele>162.2</ele>
        <time>2020-06-07T20:31:30Z</time>
      </trkpt>
      <trkpt lat="48.01086" lon="-3.75936">
        <ele>162.5</ele>
        <time>2020-06-07T20:31:31Z</time>
      </trkpt>
      <trkpt lat="48.01084" lon="-3.75942">
        <ele>162.8</ele>
        <time>2020-06-07T20:31:32Z</time>
      </trkpt>
      <trkpt lat="48.01083" lon="-3.75947">
        <ele>163.1</ele>
        <time>2020-06-07T20:31:33Z</time>
      </trkpt>
      <trkpt lat="48.0108" lon="-3.75951">
        <ele>163.3</ele>
        <time>2020-06-07T20:31:34Z</time>
      </trkpt>
      <trkpt lat="48.01077" lon="-3.75953">
        <ele>163.6</ele>
        <time>2020-06-07T20:31:35Z</time>
      </trkpt>
      <trkpt lat="48.01074" lon="-3.75955">
        <ele>163.9</ele>
        <time>2020-06-07T20:31:36Z</time>
      </trkpt>
      <trkpt lat="48.01071" lon="-3.75954">
        <ele>164</ele>
        <time>2020-06-07T20:31:37Z</time>
      </trkpt>
      <trkpt lat="48.01068" lon="-3.75952">
        <ele>163.9</ele>
        <time>2020-06-07T20:31:38Z</time>
      </trkpt>
      <trkpt lat="48.01064" lon="-3.7595">
        <ele>163.8</ele>
        <time>2020-06-07T20:31:39Z</time>
      </trkpt>
      <trkpt lat="48.01063" lon="-3.7595">
        <ele>163.7</ele>
        <time>2020-06-07T20:31:40Z</time>
      </trkpt>
      <trkpt lat="48.0106" lon="-3.75948">
        <ele>163.6</ele>
        <time>2020-06-07T20:31:41Z</time>
      </trkpt>
      <trkpt lat="48.01058" lon="-3.75945">
        <ele>163.5</ele>
        <time>2020-06-07T20:31:42Z</time>
      </trkpt>
      <trkpt lat="48.01057" lon="-3.75942">
        <ele>163.3</ele>
        <time>2020-06-07T20:31:43Z</time>
      </trkpt>
      <trkpt lat="48.01055" lon="-3.75938">
        <ele>163.2</ele>
        <time>2020-06-07T20:31:44Z</time>
      </trkpt>
      <trkpt lat="48.01054" lon="-3.75932">
        <ele>163</ele>
        <time>2020-06-07T20:31:45Z</time>
      </trkpt>
      <trkpt lat="48.01052" lon="-3.75927">
        <ele>162.9</ele>
        <time>2020-06-07T20:31:46Z</time>
      </trkpt>
      <trkpt lat="48.01049" lon="-3.75922">
        <ele>162.7</ele>
        <time>2020-06-07T20:31:47Z</time>
      </trkpt>
      <trkpt lat="48.01045" lon="-3.75918">
        <ele>162.5</ele>
        <time>2020-06-07T20:31:48Z</time>
      </trkpt>
      <trkpt lat="48.01041" lon="-3.75914">
        <ele>162.3</ele>
        <time>2020-06-07T20:31:49Z</time>
      </trkpt>
      <trkpt lat="48.01036" lon="-3.75911">
        <ele>162.1</ele>
        <time>2020-06-07T20:31:50Z</time>
      </trkpt>
      <trkpt lat="48.01032" lon="-3.75911">
        <ele>161.9</ele>
        <time>2020-06-07T20:31:51Z</time>
      </trkpt>
      <trkpt lat="48.01027" lon="-3.75912">
        <ele>161.7</ele>
        <time>2020-06-07T20:31:52Z</time>
      </trkpt>
      <trkpt lat="48.01022" lon="-3.75914">
        <ele>161.4</ele>
        <time>2020-06-07T20:31:53Z</time>
      </trkpt>
      <trkpt lat="48.01016" lon="-3.75917">
        <ele>161.2</ele>
        <time>2020-06-07T20:31:54Z</time>
      </trkpt>
      <trkpt lat="48.01011" lon="-3.75922">
        <ele>160.9</ele>
        <time>2020-06-07T20:31:55Z</time>
      </trkpt>
      <trkpt lat="48.01007" lon="-3.75927">
        <ele>160.7</ele>
        <time>2020-06-07T20:31:56Z</time>
      </trkpt>
      <trkpt lat="48.01003" lon="-3.75932">
        <ele>160.5</ele>
        <time>2020-06-07T20:31:57Z</time>
      </trkpt>
      <trkpt lat="48.00998" lon="-3.75934">
        <ele>160.3</ele>
        <time>2020-06-07T20:31:58Z</time>
      </trkpt>
      <trkpt lat="48.00992" lon="-3.75937">
        <ele>160</ele>
        <time>2020-06-07T20:31:59Z</time>
      </trkpt>
      <trkpt lat="48.00986" lon="-3.75938">
        <ele>159.7</ele>
        <time>2020-06-07T20:32:00Z</time>
      </trkpt>
      <trkpt lat="48.00979" lon="-3.75938">
        <ele>159.5</ele>
        <time>2020-06-07T20:32:01Z</time>
      </trkpt>
      <trkpt lat="48.00973" lon="-3.75936">
        <ele>159.2</ele>
        <time>2020-06-07T20:32:02Z</time>
      </trkpt>
      <trkpt lat="48.00967" lon="-3.75933">
        <ele>159</ele>
        <time>2020-06-07T20:32:03Z</time>
      </trkpt>
      <trkpt lat="48.00963" lon="-3.75931">
        <ele>158.7</ele>
        <time>2020-06-07T20:32:04Z</time>
      </trkpt>
      <trkpt lat="48.00958" lon="-3.7593">
        <ele>158.6</ele>
        <time>2020-06-07T20:32:05Z</time>
      </trkpt>
      <trkpt lat="48.00954" lon="-3.75928">
        <ele>158.4</ele>
        <time>2020-06-07T20:32:06Z</time>
      </trkpt>
      <trkpt lat="48.00949" lon="-3.75927">
        <ele>158.2</ele>
        <time>2020-06-07T20:32:07Z</time>
      </trkpt>
      <trkpt lat="48.00944" lon="-3.75924">
        <ele>157.9</ele>
        <time>2020-06-07T20:32:08Z</time>
      </trkpt>
      <trkpt lat="48.00939" lon="-3.75921">
        <ele>157.7</ele>
        <time>2020-06-07T20:32:09Z</time>
      </trkpt>
      <trkpt lat="48.00934" lon="-3.75918">
        <ele>157.5</ele>
        <time>2020-06-07T20:32:10Z</time>
      </trkpt>
      <trkpt lat="48.00929" lon="-3.75915">
        <ele>157.2</ele>
        <time>2020-06-07T20:32:11Z</time>
      </trkpt>
      <trkpt lat="48.00924" lon="-3.75913">
        <ele>157</ele>
        <time>2020-06-07T20:32:12Z</time>
      </trkpt>
      <trkpt lat="48.00919" lon="-3.75909">
        <ele>156.7</ele>
        <time>2020-06-07T20:32:13Z</time>
      </trkpt>
      <trkpt lat="48.00913" lon="-3.75907">
        <ele>156.5</ele>
        <time>2020-06-07T20:32:14Z</time>
      </trkpt>
      <trkpt lat="48.00908" lon="-3.75905">
        <ele>156.2</ele>
        <time>2020-06-07T20:32:15Z</time>
      </trkpt>
      <trkpt lat="48.00902" lon="-3.75901">
        <ele>155.9</ele>
        <time>2020-06-07T20:32:16Z</time>
      </trkpt>
      <trkpt lat="48.00897" lon="-3.75897">
        <ele>155.6</ele>
        <time>2020-06-07T20:32:17Z</time>
      </trkpt>
      <trkpt lat="48.00891" lon="-3.75893">
        <ele>155.3</ele>
        <time>2020-06-07T20:32:18Z</time>
      </trkpt>
      <trkpt lat="48.00885" lon="-3.75888">
        <ele>155</ele>
        <time>2020-06-07T20:32:19Z</time>
      </trkpt>
      <trkpt lat="48.00879" lon="-3.75883">
        <ele>154.6</ele>
        <time>2020-06-07T20:32:20Z</time>
      </trkpt>
      <trkpt lat="48.00872" lon="-3.75878">
        <ele>154.2</ele>
        <time>2020-06-07T20:32:21Z</time>
      </trkpt>
      <trkpt lat="48.00866" lon="-3.75874">
        <ele>153.9</ele>
        <time>2020-06-07T20:32:22Z</time>
      </trkpt>
      <trkpt lat="48.0086" lon="-3.75868">
        <ele>153.6</ele>
        <time>2020-06-07T20:32:23Z</time>
      </trkpt>
      <trkpt lat="48.00854" lon="-3.75862">
        <ele>153.2</ele>
        <time>2020-06-07T20:32:24Z</time>
      </trkpt>
      <trkpt lat="48.00847" lon="-3.75855">
        <ele>152.8</ele>
        <time>2020-06-07T20:32:25Z</time>
      </trkpt>
      <trkpt lat="48.00841" lon="-3.7585">
        <ele>152.5</ele>
        <time>2020-06-07T20:32:26Z</time>
      </trkpt>
      <trkpt lat="48.00834" lon="-3.75844">
        <ele>152.1</ele>
        <time>2020-06-07T20:32:27Z</time>
      </trkpt>
      <trkpt lat="48.00827" lon="-3.75838">
        <ele>151.7</ele>
        <time>2020-06-07T20:32:28Z</time>
      </trkpt>
      <trkpt lat="48.0082" lon="-3.75832">
        <ele>151.3</ele>
        <time>2020-06-07T20:32:29Z</time>
      </trkpt>
      <trkpt lat="48.00812" lon="-3.75826">
        <ele>150.9</ele>
        <time>2020-06-07T20:32:30Z</time>
      </trkpt>
      <trkpt lat="48.00804" lon="-3.75821">
        <ele>150.5</ele>
        <time>2020-06-07T20:32:31Z</time>
      </trkpt>
      <trkpt lat="48.00796" lon="-3.75816">
        <ele>150</ele>
        <time>2020-06-07T20:32:32Z</time>
      </trkpt>
      <trkpt lat="48.00789" lon="-3.75811">
        <ele>149.6</ele>
        <time>2020-06-07T20:32:33Z</time>
      </trkpt>
      <trkpt lat="48.00782" lon="-3.75805">
        <ele>149.2</ele>
        <time>2020-06-07T20:32:34Z</time>
      </trkpt>
      <trkpt lat="48.00775" lon="-3.75799">
        <ele>148.8</ele>
        <time>2020-06-07T20:32:35Z</time>
      </trkpt>
      <trkpt lat="48.00766" lon="-3.75792">
        <ele>148.4</ele>
        <time>2020-06-07T20:32:36Z</time>
      </trkpt>
      <trkpt lat="48.00758" lon="-3.75786">
        <ele>147.9</ele>
        <time>2020-06-07T20:32:37Z</time>
      </trkpt>
      <trkpt lat="48.0075" lon="-3.75781">
        <ele>147.5</ele>
        <time>2020-06-07T20:32:38Z</time>
      </trkpt>
      <trkpt lat="48.00742" lon="-3.75775">
        <ele>147.1</ele>
        <time>2020-06-07T20:32:39Z</time>
      </trkpt>
      <trkpt lat="48.00734" lon="-3.75769">
        <ele>146.6</ele>
        <time>2020-06-07T20:32:40Z</time>
      </trkpt>
      <trkpt lat="48.00726" lon="-3.75763">
        <ele>146.2</ele>
        <time>2020-06-07T20:32:41Z</time>
      </trkpt>
      <trkpt lat="48.00718" lon="-3.75757">
        <ele>145.7</ele>
        <time>2020-06-07T20:32:42Z</time>
      </trkpt>
      <trkpt lat="48.0071" lon="-3.75752">
        <ele>145.3</ele>
        <time>2020-06-07T20:32:43Z</time>
      </trkpt>
      <trkpt lat="48.00703" lon="-3.75748">
        <ele>145</ele>
        <time>2020-06-07T20:32:44Z</time>
      </trkpt>
      <trkpt lat="48.00697" lon="-3.75744">
        <ele>144.6</ele>
        <time>2020-06-07T20:32:45Z</time>
      </trkpt>
      <trkpt lat="48.0069" lon="-3.75739">
        <ele>144.4</ele>
        <time>2020-06-07T20:32:46Z</time>
      </trkpt>
      <trkpt lat="48.00685" lon="-3.75734">
        <ele>144.3</ele>
        <time>2020-06-07T20:32:47Z</time>
      </trkpt>
      <trkpt lat="48.0068" lon="-3.75728">
        <ele>144.2</ele>
        <time>2020-06-07T20:32:48Z</time>
      </trkpt>
      <trkpt lat="48.00674" lon="-3.75719">
        <ele>144.1</ele>
        <time>2020-06-07T20:32:49Z</time>
      </trkpt>
      <trkpt lat="48.0067" lon="-3.75709">
        <ele>143.9</ele>
        <time>2020-06-07T20:32:50Z</time>
      </trkpt>
      <trkpt lat="48.00668" lon="-3.75699">
        <ele>143.8</ele>
        <time>2020-06-07T20:32:51Z</time>
      </trkpt>
      <trkpt lat="48.00667" lon="-3.75691">
        <ele>143.8</ele>
        <time>2020-06-07T20:32:52Z</time>
      </trkpt>
      <trkpt lat="48.00669" lon="-3.75684">
        <ele>143.7</ele>
        <time>2020-06-07T20:32:53Z</time>
      </trkpt>
      <trkpt lat="48.00672" lon="-3.75678">
        <ele>143.6</ele>
        <time>2020-06-07T20:32:54Z</time>
      </trkpt>
      <trkpt lat="48.00674" lon="-3.75674">
        <ele>143.6</ele>
        <time>2020-06-07T20:32:55Z</time>
      </trkpt>
      <trkpt lat="48.00676" lon="-3.7567">
        <ele>143.5</ele>
        <time>2020-06-07T20:32:56Z</time>
      </trkpt>
      <trkpt lat="48.00678" lon="-3.75667">
        <ele>143.5</ele>
        <time>2020-06-07T20:32:57Z</time>
      </trkpt>
      <trkpt lat="48.00679" lon="-3.75666">
        <ele>143.5</ele>
        <time>2020-06-07T20:32:58Z</time>
      </trkpt>
      <trkpt lat="48.00681" lon="-3.75665">
        <ele>143.5</ele>
        <time>2020-06-07T20:32:59Z</time>
      </trkpt>
      <trkpt lat="48.00682" lon="-3.75663">
        <ele>143.4</ele>
        <time>2020-06-07T20:33:00Z</time>
      </trkpt>
      <trkpt lat="48.00683" lon="-3.75662">
        <ele>143.4</ele>
        <time>2020-06-07T20:33:01Z</time>
      </trkpt>
      <trkpt lat="48.00683" lon="-3.7566">
        <ele>143.4</ele>
        <time>2020-06-07T20:33:02Z</time>
      </trkpt>
      <trkpt lat="48.00684" lon="-3.75659">
        <ele>143.4</ele>
        <time>2020-06-07T20:33:03Z</time>
      </trkpt>
      <trkpt lat="48.00685" lon="-3.75659">
        <ele>143.4</ele>
        <time>2020-06-07T20:33:04Z</time>
      </trkpt>
      <trkpt lat="48.00685" lon="-3.75658">
        <ele>143.4</ele>
        <time>2020-06-07T20:33:05Z</time>
      </trkpt>
      <trkpt lat="48.00686" lon="-3.75658">
        <ele>143.4</ele>
        <time>2020-06-07T20:33:06Z</time>
      </trkpt>
      <trkpt lat="48.00687" lon="-3.75658">
        <ele>143.4</ele>
        <time>2020-06-07T20:33:07Z</time>
      </trkpt>
      <trkpt lat="48.00688" lon="-3.75658">
        <ele>143.4</ele>
        <time>2020-06-07T20:33:08Z</time>
      </trkpt>
      <trkpt lat="48.00688" lon="-3.75658">
        <ele>143.4</ele>
        <time>2020-06-07T20:33:09Z</time>
      </trkpt>
      <trkpt lat="48.00689" lon="-3.75658">
        <ele>143.4</ele>
        <time>2020-06-07T20:33:10Z</time>
      </trkpt>
      <trkpt lat="48.0069" lon="-3.75659">
        <ele>143.5</ele>
        <time>2020-06-07T20:33:11Z</time>
      </trkpt>
      <trkpt lat="48.00691" lon="-3.75659">
        <ele>143.5</ele>
        <time>2020-06-07T20:33:12Z</time>
      </trkpt>
      <trkpt lat="48.00691" lon="-3.7566">
        <ele>143.5</ele>
        <time>2020-06-07T20:33:13Z</time>
      </trkpt>
      <trkpt lat="48.00692" lon="-3.7566">
        <ele>143.5</ele>
        <time>2020-06-07T20:33:14Z</time>
      </trkpt>
      <trkpt lat="48.00692" lon="-3.7566">
        <ele>143.5</ele>
        <time>2020-06-07T20:33:15Z</time>
      </trkpt>
      <trkpt lat="48.00692" lon="-3.75661">
        <ele>143.5</ele>
        <time>2020-06-07T20:33:16Z</time>
      </trkpt>
      <trkpt lat="48.00692" lon="-3.75661">
        <ele>143.5</ele>
        <time>2020-06-07T20:33:17Z</time>
      </trkpt>
      <trkpt lat="48.00692" lon="-3.75661">
        <ele>143.5</ele>
        <time>2020-06-07T20:33:18Z</time>
      </trkpt>
    </trkseg>
  </trk>
</gpx>